<?xml version="1.0" encoding="UTF-8" standalone="no" ?>
<gpx xmlns="http://www.topografix.com/GPX/1/1" xmlns:xsi="http://www.w3.org/2001/XMLSchema-instance" xsi:schemaLocation="http://www.topografix.com/GPX/1/1 http://www.topografix.com/GPX/1/1/gpx.xsd" version="1.1" creator="VisuGPX - https://www.visugpx.com">
  <metadata>
    <name>grand Taillet Forclaz Ramaz</name>
    <desc><![CDATA[A faire essais]]></desc>
  </metadata>
  <trk>
    <name><![CDATA[1ere 3000]]></name>
    <extensions>
      <line xmlns="http://www.topografix.com/GPX/gpx_style/0/2">
        <color>00FF00</color>
        <width>4</width>
      </line>
    </extensions>
    <trkseg>
      <trkpt lat="46.19287" lon="6.25008">
        <ele>472.8</ele>
        <time>2021-06-26T04:49:22Z</time>
      </trkpt>
      <trkpt lat="46.19282" lon="6.2501">
        <ele>453.2</ele>
        <time>2021-06-26T04:50:44Z</time>
      </trkpt>
      <trkpt lat="46.19282" lon="6.25018">
        <ele>453.2</ele>
        <time>2021-06-26T04:51:04Z</time>
      </trkpt>
      <trkpt lat="46.19282" lon="6.25017">
        <ele>453.2</ele>
        <time>2021-06-26T04:51:19Z</time>
      </trkpt>
      <trkpt lat="46.19284" lon="6.25017">
        <ele>453.2</ele>
        <time>2021-06-26T04:51:35Z</time>
      </trkpt>
      <trkpt lat="46.19286" lon="6.25019">
        <ele>453.2</ele>
        <time>2021-06-26T04:51:50Z</time>
      </trkpt>
      <trkpt lat="46.19285" lon="6.25019">
        <ele>453.4</ele>
        <time>2021-06-26T04:51:54Z</time>
      </trkpt>
      <trkpt lat="46.19284" lon="6.25021">
        <ele>453.4</ele>
        <time>2021-06-26T04:51:56Z</time>
      </trkpt>
      <trkpt lat="46.19283" lon="6.25025">
        <ele>453.4</ele>
        <time>2021-06-26T04:51:58Z</time>
      </trkpt>
      <trkpt lat="46.19282" lon="6.25028">
        <ele>453.4</ele>
        <time>2021-06-26T04:51:59Z</time>
      </trkpt>
      <trkpt lat="46.19282" lon="6.25032">
        <ele>453.2</ele>
        <time>2021-06-26T04:52:00Z</time>
      </trkpt>
      <trkpt lat="46.1928" lon="6.25044">
        <ele>453.2</ele>
        <time>2021-06-26T04:52:03Z</time>
      </trkpt>
      <trkpt lat="46.19276" lon="6.25065">
        <ele>453.2</ele>
        <time>2021-06-26T04:52:08Z</time>
      </trkpt>
      <trkpt lat="46.19275" lon="6.25069">
        <ele>453.4</ele>
        <time>2021-06-26T04:52:09Z</time>
      </trkpt>
      <trkpt lat="46.19273" lon="6.25073">
        <ele>453.2</ele>
        <time>2021-06-26T04:52:10Z</time>
      </trkpt>
      <trkpt lat="46.19272" lon="6.25076">
        <ele>453.2</ele>
        <time>2021-06-26T04:52:11Z</time>
      </trkpt>
      <trkpt lat="46.19271" lon="6.25079">
        <ele>453.2</ele>
        <time>2021-06-26T04:52:12Z</time>
      </trkpt>
      <trkpt lat="46.1927" lon="6.25081">
        <ele>453.2</ele>
        <time>2021-06-26T04:52:13Z</time>
      </trkpt>
      <trkpt lat="46.1927" lon="6.25081">
        <ele>453.4</ele>
        <time>2021-06-26T04:52:14Z</time>
      </trkpt>
      <trkpt lat="46.19271" lon="6.2509">
        <ele>454.6</ele>
        <time>2021-06-26T04:52:22Z</time>
      </trkpt>
      <trkpt lat="46.19271" lon="6.2509">
        <ele>454.6</ele>
        <time>2021-06-26T04:52:23Z</time>
      </trkpt>
      <trkpt lat="46.19271" lon="6.2509">
        <ele>454.8</ele>
        <time>2021-06-26T04:52:24Z</time>
      </trkpt>
      <trkpt lat="46.1927" lon="6.2509">
        <ele>454.8</ele>
        <time>2021-06-26T04:52:30Z</time>
      </trkpt>
      <trkpt lat="46.19271" lon="6.25097">
        <ele>454.8</ele>
        <time>2021-06-26T04:52:42Z</time>
      </trkpt>
      <trkpt lat="46.19272" lon="6.25099">
        <ele>454.8</ele>
        <time>2021-06-26T04:52:43Z</time>
      </trkpt>
      <trkpt lat="46.19272" lon="6.25102">
        <ele>454.8</ele>
        <time>2021-06-26T04:52:44Z</time>
      </trkpt>
      <trkpt lat="46.19271" lon="6.25105">
        <ele>454.8</ele>
        <time>2021-06-26T04:52:45Z</time>
      </trkpt>
      <trkpt lat="46.19266" lon="6.25109">
        <ele>454.6</ele>
        <time>2021-06-26T04:52:48Z</time>
      </trkpt>
      <trkpt lat="46.19257" lon="6.25109">
        <ele>454.6</ele>
        <time>2021-06-26T04:52:51Z</time>
      </trkpt>
      <trkpt lat="46.19253" lon="6.2511">
        <ele>454.8</ele>
        <time>2021-06-26T04:52:52Z</time>
      </trkpt>
      <trkpt lat="46.19249" lon="6.2511">
        <ele>454.8</ele>
        <time>2021-06-26T04:52:53Z</time>
      </trkpt>
      <trkpt lat="46.19241" lon="6.2511">
        <ele>454.8</ele>
        <time>2021-06-26T04:52:55Z</time>
      </trkpt>
      <trkpt lat="46.19232" lon="6.25111">
        <ele>454.8</ele>
        <time>2021-06-26T04:52:57Z</time>
      </trkpt>
      <trkpt lat="46.19219" lon="6.25112">
        <ele>454.8</ele>
        <time>2021-06-26T04:53:00Z</time>
      </trkpt>
      <trkpt lat="46.19215" lon="6.25112">
        <ele>454.8</ele>
        <time>2021-06-26T04:53:01Z</time>
      </trkpt>
      <trkpt lat="46.19207" lon="6.25109">
        <ele>455.2</ele>
        <time>2021-06-26T04:53:03Z</time>
      </trkpt>
      <trkpt lat="46.19203" lon="6.25106">
        <ele>455.2</ele>
        <time>2021-06-26T04:53:04Z</time>
      </trkpt>
      <trkpt lat="46.192" lon="6.25102">
        <ele>455.2</ele>
        <time>2021-06-26T04:53:05Z</time>
      </trkpt>
      <trkpt lat="46.19197" lon="6.25097">
        <ele>455.2</ele>
        <time>2021-06-26T04:53:06Z</time>
      </trkpt>
      <trkpt lat="46.19194" lon="6.25091">
        <ele>455.4</ele>
        <time>2021-06-26T04:53:07Z</time>
      </trkpt>
      <trkpt lat="46.19192" lon="6.25085">
        <ele>455.6</ele>
        <time>2021-06-26T04:53:08Z</time>
      </trkpt>
      <trkpt lat="46.19189" lon="6.2508">
        <ele>455.8</ele>
        <time>2021-06-26T04:53:09Z</time>
      </trkpt>
      <trkpt lat="46.19181" lon="6.25071">
        <ele>456.4</ele>
        <time>2021-06-26T04:53:11Z</time>
      </trkpt>
      <trkpt lat="46.19177" lon="6.25068">
        <ele>456.6</ele>
        <time>2021-06-26T04:53:12Z</time>
      </trkpt>
      <trkpt lat="46.19173" lon="6.25067">
        <ele>456.6</ele>
        <time>2021-06-26T04:53:13Z</time>
      </trkpt>
      <trkpt lat="46.19169" lon="6.25066">
        <ele>456.8</ele>
        <time>2021-06-26T04:53:14Z</time>
      </trkpt>
      <trkpt lat="46.19166" lon="6.25065">
        <ele>457</ele>
        <time>2021-06-26T04:53:15Z</time>
      </trkpt>
      <trkpt lat="46.19163" lon="6.25064">
        <ele>456.8</ele>
        <time>2021-06-26T04:53:16Z</time>
      </trkpt>
      <trkpt lat="46.1916" lon="6.25061">
        <ele>457.2</ele>
        <time>2021-06-26T04:53:17Z</time>
      </trkpt>
      <trkpt lat="46.19156" lon="6.25058">
        <ele>457.2</ele>
        <time>2021-06-26T04:53:18Z</time>
      </trkpt>
      <trkpt lat="46.19152" lon="6.25054">
        <ele>457.2</ele>
        <time>2021-06-26T04:53:19Z</time>
      </trkpt>
      <trkpt lat="46.19147" lon="6.25051">
        <ele>457.2</ele>
        <time>2021-06-26T04:53:20Z</time>
      </trkpt>
      <trkpt lat="46.19141" lon="6.2505">
        <ele>457.4</ele>
        <time>2021-06-26T04:53:21Z</time>
      </trkpt>
      <trkpt lat="46.19136" lon="6.25051">
        <ele>457.4</ele>
        <time>2021-06-26T04:53:22Z</time>
      </trkpt>
      <trkpt lat="46.19131" lon="6.25053">
        <ele>457.4</ele>
        <time>2021-06-26T04:53:23Z</time>
      </trkpt>
      <trkpt lat="46.19126" lon="6.25058">
        <ele>457.4</ele>
        <time>2021-06-26T04:53:24Z</time>
      </trkpt>
      <trkpt lat="46.19123" lon="6.25063">
        <ele>457.4</ele>
        <time>2021-06-26T04:53:25Z</time>
      </trkpt>
      <trkpt lat="46.1912" lon="6.25069">
        <ele>457.4</ele>
        <time>2021-06-26T04:53:26Z</time>
      </trkpt>
      <trkpt lat="46.19117" lon="6.25075">
        <ele>457.6</ele>
        <time>2021-06-26T04:53:27Z</time>
      </trkpt>
      <trkpt lat="46.19116" lon="6.25082">
        <ele>457.6</ele>
        <time>2021-06-26T04:53:28Z</time>
      </trkpt>
      <trkpt lat="46.19114" lon="6.25089">
        <ele>457.4</ele>
        <time>2021-06-26T04:53:29Z</time>
      </trkpt>
      <trkpt lat="46.19112" lon="6.25095">
        <ele>457.6</ele>
        <time>2021-06-26T04:53:30Z</time>
      </trkpt>
      <trkpt lat="46.19104" lon="6.25106">
        <ele>457.8</ele>
        <time>2021-06-26T04:53:32Z</time>
      </trkpt>
      <trkpt lat="46.19099" lon="6.2511">
        <ele>457.8</ele>
        <time>2021-06-26T04:53:33Z</time>
      </trkpt>
      <trkpt lat="46.19093" lon="6.25114">
        <ele>457.6</ele>
        <time>2021-06-26T04:53:34Z</time>
      </trkpt>
      <trkpt lat="46.19086" lon="6.25116">
        <ele>457.8</ele>
        <time>2021-06-26T04:53:35Z</time>
      </trkpt>
      <trkpt lat="46.19078" lon="6.25117">
        <ele>457.6</ele>
        <time>2021-06-26T04:53:36Z</time>
      </trkpt>
      <trkpt lat="46.1907" lon="6.25117">
        <ele>457.6</ele>
        <time>2021-06-26T04:53:37Z</time>
      </trkpt>
      <trkpt lat="46.19062" lon="6.25115">
        <ele>457.4</ele>
        <time>2021-06-26T04:53:38Z</time>
      </trkpt>
      <trkpt lat="46.19055" lon="6.25112">
        <ele>457.4</ele>
        <time>2021-06-26T04:53:39Z</time>
      </trkpt>
      <trkpt lat="46.19048" lon="6.25107">
        <ele>457.6</ele>
        <time>2021-06-26T04:53:40Z</time>
      </trkpt>
      <trkpt lat="46.19042" lon="6.25102">
        <ele>457.4</ele>
        <time>2021-06-26T04:53:41Z</time>
      </trkpt>
      <trkpt lat="46.19037" lon="6.25096">
        <ele>457.4</ele>
        <time>2021-06-26T04:53:42Z</time>
      </trkpt>
      <trkpt lat="46.19032" lon="6.2509">
        <ele>457.4</ele>
        <time>2021-06-26T04:53:43Z</time>
      </trkpt>
      <trkpt lat="46.19027" lon="6.25085">
        <ele>456.8</ele>
        <time>2021-06-26T04:53:44Z</time>
      </trkpt>
      <trkpt lat="46.19021" lon="6.25083">
        <ele>456.2</ele>
        <time>2021-06-26T04:53:45Z</time>
      </trkpt>
      <trkpt lat="46.19015" lon="6.25082">
        <ele>456.2</ele>
        <time>2021-06-26T04:53:46Z</time>
      </trkpt>
      <trkpt lat="46.1901" lon="6.2508">
        <ele>456</ele>
        <time>2021-06-26T04:53:47Z</time>
      </trkpt>
      <trkpt lat="46.19005" lon="6.25078">
        <ele>455.8</ele>
        <time>2021-06-26T04:53:48Z</time>
      </trkpt>
      <trkpt lat="46.19" lon="6.25075">
        <ele>456</ele>
        <time>2021-06-26T04:53:49Z</time>
      </trkpt>
      <trkpt lat="46.18995" lon="6.25072">
        <ele>455.8</ele>
        <time>2021-06-26T04:53:50Z</time>
      </trkpt>
      <trkpt lat="46.18989" lon="6.2507">
        <ele>455.8</ele>
        <time>2021-06-26T04:53:51Z</time>
      </trkpt>
      <trkpt lat="46.18974" lon="6.25066">
        <ele>455.8</ele>
        <time>2021-06-26T04:53:54Z</time>
      </trkpt>
      <trkpt lat="46.18968" lon="6.25066">
        <ele>456</ele>
        <time>2021-06-26T04:53:55Z</time>
      </trkpt>
      <trkpt lat="46.18963" lon="6.25066">
        <ele>456.2</ele>
        <time>2021-06-26T04:53:56Z</time>
      </trkpt>
      <trkpt lat="46.18958" lon="6.25066">
        <ele>456.6</ele>
        <time>2021-06-26T04:53:57Z</time>
      </trkpt>
      <trkpt lat="46.18943" lon="6.25066">
        <ele>457.4</ele>
        <time>2021-06-26T04:54:00Z</time>
      </trkpt>
      <trkpt lat="46.18937" lon="6.25067">
        <ele>458</ele>
        <time>2021-06-26T04:54:01Z</time>
      </trkpt>
      <trkpt lat="46.18932" lon="6.25068">
        <ele>458.2</ele>
        <time>2021-06-26T04:54:02Z</time>
      </trkpt>
      <trkpt lat="46.18927" lon="6.25068">
        <ele>458.2</ele>
        <time>2021-06-26T04:54:03Z</time>
      </trkpt>
      <trkpt lat="46.18922" lon="6.25069">
        <ele>458.6</ele>
        <time>2021-06-26T04:54:04Z</time>
      </trkpt>
      <trkpt lat="46.18917" lon="6.25069">
        <ele>458.6</ele>
        <time>2021-06-26T04:54:05Z</time>
      </trkpt>
      <trkpt lat="46.18911" lon="6.2507">
        <ele>459</ele>
        <time>2021-06-26T04:54:06Z</time>
      </trkpt>
      <trkpt lat="46.18906" lon="6.2507">
        <ele>459</ele>
        <time>2021-06-26T04:54:07Z</time>
      </trkpt>
      <trkpt lat="46.189" lon="6.25071">
        <ele>459.2</ele>
        <time>2021-06-26T04:54:08Z</time>
      </trkpt>
      <trkpt lat="46.18895" lon="6.25072">
        <ele>459.4</ele>
        <time>2021-06-26T04:54:09Z</time>
      </trkpt>
      <trkpt lat="46.18889" lon="6.25072">
        <ele>459.6</ele>
        <time>2021-06-26T04:54:10Z</time>
      </trkpt>
      <trkpt lat="46.18884" lon="6.25073">
        <ele>459.8</ele>
        <time>2021-06-26T04:54:11Z</time>
      </trkpt>
      <trkpt lat="46.18878" lon="6.25074">
        <ele>460.2</ele>
        <time>2021-06-26T04:54:12Z</time>
      </trkpt>
      <trkpt lat="46.18873" lon="6.25075">
        <ele>460.4</ele>
        <time>2021-06-26T04:54:13Z</time>
      </trkpt>
      <trkpt lat="46.18867" lon="6.25075">
        <ele>460.4</ele>
        <time>2021-06-26T04:54:14Z</time>
      </trkpt>
      <trkpt lat="46.18861" lon="6.25074">
        <ele>460.4</ele>
        <time>2021-06-26T04:54:15Z</time>
      </trkpt>
      <trkpt lat="46.18856" lon="6.25074">
        <ele>460.6</ele>
        <time>2021-06-26T04:54:16Z</time>
      </trkpt>
      <trkpt lat="46.18851" lon="6.25074">
        <ele>460.6</ele>
        <time>2021-06-26T04:54:17Z</time>
      </trkpt>
      <trkpt lat="46.18845" lon="6.25075">
        <ele>460.8</ele>
        <time>2021-06-26T04:54:18Z</time>
      </trkpt>
      <trkpt lat="46.1884" lon="6.25075">
        <ele>460.8</ele>
        <time>2021-06-26T04:54:19Z</time>
      </trkpt>
      <trkpt lat="46.18834" lon="6.25075">
        <ele>461</ele>
        <time>2021-06-26T04:54:20Z</time>
      </trkpt>
      <trkpt lat="46.18828" lon="6.25075">
        <ele>461</ele>
        <time>2021-06-26T04:54:21Z</time>
      </trkpt>
      <trkpt lat="46.18822" lon="6.25075">
        <ele>461</ele>
        <time>2021-06-26T04:54:22Z</time>
      </trkpt>
      <trkpt lat="46.18817" lon="6.25075">
        <ele>461.4</ele>
        <time>2021-06-26T04:54:23Z</time>
      </trkpt>
      <trkpt lat="46.18811" lon="6.25075">
        <ele>461.4</ele>
        <time>2021-06-26T04:54:24Z</time>
      </trkpt>
      <trkpt lat="46.18805" lon="6.25076">
        <ele>461.4</ele>
        <time>2021-06-26T04:54:25Z</time>
      </trkpt>
      <trkpt lat="46.18799" lon="6.25076">
        <ele>461.4</ele>
        <time>2021-06-26T04:54:26Z</time>
      </trkpt>
      <trkpt lat="46.18794" lon="6.25077">
        <ele>461.4</ele>
        <time>2021-06-26T04:54:27Z</time>
      </trkpt>
      <trkpt lat="46.18788" lon="6.25077">
        <ele>461.6</ele>
        <time>2021-06-26T04:54:28Z</time>
      </trkpt>
      <trkpt lat="46.18782" lon="6.25078">
        <ele>461.6</ele>
        <time>2021-06-26T04:54:29Z</time>
      </trkpt>
      <trkpt lat="46.18776" lon="6.25079">
        <ele>461.8</ele>
        <time>2021-06-26T04:54:30Z</time>
      </trkpt>
      <trkpt lat="46.18771" lon="6.2508">
        <ele>461.8</ele>
        <time>2021-06-26T04:54:31Z</time>
      </trkpt>
      <trkpt lat="46.18766" lon="6.25082">
        <ele>462.2</ele>
        <time>2021-06-26T04:54:32Z</time>
      </trkpt>
      <trkpt lat="46.1876" lon="6.25084">
        <ele>462.4</ele>
        <time>2021-06-26T04:54:33Z</time>
      </trkpt>
      <trkpt lat="46.18755" lon="6.25086">
        <ele>462.6</ele>
        <time>2021-06-26T04:54:34Z</time>
      </trkpt>
      <trkpt lat="46.18751" lon="6.25088">
        <ele>462.6</ele>
        <time>2021-06-26T04:54:35Z</time>
      </trkpt>
      <trkpt lat="46.18746" lon="6.2509">
        <ele>462.8</ele>
        <time>2021-06-26T04:54:36Z</time>
      </trkpt>
      <trkpt lat="46.18741" lon="6.25093">
        <ele>462.8</ele>
        <time>2021-06-26T04:54:37Z</time>
      </trkpt>
      <trkpt lat="46.18736" lon="6.25095">
        <ele>462.8</ele>
        <time>2021-06-26T04:54:38Z</time>
      </trkpt>
      <trkpt lat="46.1873" lon="6.25098">
        <ele>463</ele>
        <time>2021-06-26T04:54:39Z</time>
      </trkpt>
      <trkpt lat="46.18725" lon="6.251">
        <ele>463</ele>
        <time>2021-06-26T04:54:40Z</time>
      </trkpt>
      <trkpt lat="46.18719" lon="6.25102">
        <ele>463</ele>
        <time>2021-06-26T04:54:41Z</time>
      </trkpt>
      <trkpt lat="46.18714" lon="6.25104">
        <ele>463</ele>
        <time>2021-06-26T04:54:42Z</time>
      </trkpt>
      <trkpt lat="46.18709" lon="6.25107">
        <ele>463</ele>
        <time>2021-06-26T04:54:43Z</time>
      </trkpt>
      <trkpt lat="46.18704" lon="6.25109">
        <ele>463.2</ele>
        <time>2021-06-26T04:54:44Z</time>
      </trkpt>
      <trkpt lat="46.18699" lon="6.25111">
        <ele>463.4</ele>
        <time>2021-06-26T04:54:45Z</time>
      </trkpt>
      <trkpt lat="46.18694" lon="6.25114">
        <ele>463.6</ele>
        <time>2021-06-26T04:54:46Z</time>
      </trkpt>
      <trkpt lat="46.18689" lon="6.25116">
        <ele>463.8</ele>
        <time>2021-06-26T04:54:47Z</time>
      </trkpt>
      <trkpt lat="46.18684" lon="6.25118">
        <ele>463.8</ele>
        <time>2021-06-26T04:54:48Z</time>
      </trkpt>
      <trkpt lat="46.18679" lon="6.25121">
        <ele>464</ele>
        <time>2021-06-26T04:54:49Z</time>
      </trkpt>
      <trkpt lat="46.18675" lon="6.25123">
        <ele>464.2</ele>
        <time>2021-06-26T04:54:50Z</time>
      </trkpt>
      <trkpt lat="46.18671" lon="6.25126">
        <ele>464.4</ele>
        <time>2021-06-26T04:54:51Z</time>
      </trkpt>
      <trkpt lat="46.18666" lon="6.25128">
        <ele>464.6</ele>
        <time>2021-06-26T04:54:52Z</time>
      </trkpt>
      <trkpt lat="46.1866" lon="6.2513">
        <ele>464.6</ele>
        <time>2021-06-26T04:54:53Z</time>
      </trkpt>
      <trkpt lat="46.18654" lon="6.25129">
        <ele>464.8</ele>
        <time>2021-06-26T04:54:54Z</time>
      </trkpt>
      <trkpt lat="46.18647" lon="6.25129">
        <ele>465</ele>
        <time>2021-06-26T04:54:55Z</time>
      </trkpt>
      <trkpt lat="46.18642" lon="6.25131">
        <ele>465</ele>
        <time>2021-06-26T04:54:56Z</time>
      </trkpt>
      <trkpt lat="46.18637" lon="6.25133">
        <ele>465.2</ele>
        <time>2021-06-26T04:54:57Z</time>
      </trkpt>
      <trkpt lat="46.18631" lon="6.25135">
        <ele>465.2</ele>
        <time>2021-06-26T04:54:58Z</time>
      </trkpt>
      <trkpt lat="46.18626" lon="6.25138">
        <ele>465.4</ele>
        <time>2021-06-26T04:54:59Z</time>
      </trkpt>
      <trkpt lat="46.18621" lon="6.2514">
        <ele>465.4</ele>
        <time>2021-06-26T04:55:00Z</time>
      </trkpt>
      <trkpt lat="46.18615" lon="6.25143">
        <ele>465.8</ele>
        <time>2021-06-26T04:55:01Z</time>
      </trkpt>
      <trkpt lat="46.1861" lon="6.25145">
        <ele>466</ele>
        <time>2021-06-26T04:55:02Z</time>
      </trkpt>
      <trkpt lat="46.18604" lon="6.25146">
        <ele>466</ele>
        <time>2021-06-26T04:55:03Z</time>
      </trkpt>
      <trkpt lat="46.18597" lon="6.25147">
        <ele>466.4</ele>
        <time>2021-06-26T04:55:04Z</time>
      </trkpt>
      <trkpt lat="46.1859" lon="6.25145">
        <ele>466.4</ele>
        <time>2021-06-26T04:55:05Z</time>
      </trkpt>
      <trkpt lat="46.18584" lon="6.25145">
        <ele>466.4</ele>
        <time>2021-06-26T04:55:06Z</time>
      </trkpt>
      <trkpt lat="46.18578" lon="6.25146">
        <ele>466.6</ele>
        <time>2021-06-26T04:55:07Z</time>
      </trkpt>
      <trkpt lat="46.18573" lon="6.25147">
        <ele>467</ele>
        <time>2021-06-26T04:55:08Z</time>
      </trkpt>
      <trkpt lat="46.18568" lon="6.25148">
        <ele>467</ele>
        <time>2021-06-26T04:55:09Z</time>
      </trkpt>
      <trkpt lat="46.18562" lon="6.25149">
        <ele>467</ele>
        <time>2021-06-26T04:55:10Z</time>
      </trkpt>
      <trkpt lat="46.18556" lon="6.2515">
        <ele>467.2</ele>
        <time>2021-06-26T04:55:11Z</time>
      </trkpt>
      <trkpt lat="46.1855" lon="6.25152">
        <ele>467.4</ele>
        <time>2021-06-26T04:55:12Z</time>
      </trkpt>
      <trkpt lat="46.18545" lon="6.25153">
        <ele>467.8</ele>
        <time>2021-06-26T04:55:13Z</time>
      </trkpt>
      <trkpt lat="46.18539" lon="6.25155">
        <ele>467.6</ele>
        <time>2021-06-26T04:55:14Z</time>
      </trkpt>
      <trkpt lat="46.18534" lon="6.25156">
        <ele>467.8</ele>
        <time>2021-06-26T04:55:15Z</time>
      </trkpt>
      <trkpt lat="46.18529" lon="6.25158">
        <ele>468.2</ele>
        <time>2021-06-26T04:55:16Z</time>
      </trkpt>
      <trkpt lat="46.18523" lon="6.2516">
        <ele>468.2</ele>
        <time>2021-06-26T04:55:17Z</time>
      </trkpt>
      <trkpt lat="46.18518" lon="6.25161">
        <ele>468.4</ele>
        <time>2021-06-26T04:55:18Z</time>
      </trkpt>
      <trkpt lat="46.18513" lon="6.25163">
        <ele>468.6</ele>
        <time>2021-06-26T04:55:19Z</time>
      </trkpt>
      <trkpt lat="46.18507" lon="6.25164">
        <ele>468.8</ele>
        <time>2021-06-26T04:55:20Z</time>
      </trkpt>
      <trkpt lat="46.18502" lon="6.25166">
        <ele>468.6</ele>
        <time>2021-06-26T04:55:21Z</time>
      </trkpt>
      <trkpt lat="46.18496" lon="6.25168">
        <ele>468.8</ele>
        <time>2021-06-26T04:55:22Z</time>
      </trkpt>
      <trkpt lat="46.18491" lon="6.25169">
        <ele>468.8</ele>
        <time>2021-06-26T04:55:23Z</time>
      </trkpt>
      <trkpt lat="46.18485" lon="6.25171">
        <ele>468.8</ele>
        <time>2021-06-26T04:55:24Z</time>
      </trkpt>
      <trkpt lat="46.1848" lon="6.25173">
        <ele>469</ele>
        <time>2021-06-26T04:55:25Z</time>
      </trkpt>
      <trkpt lat="46.18475" lon="6.25175">
        <ele>469</ele>
        <time>2021-06-26T04:55:26Z</time>
      </trkpt>
      <trkpt lat="46.18469" lon="6.25176">
        <ele>469.2</ele>
        <time>2021-06-26T04:55:27Z</time>
      </trkpt>
      <trkpt lat="46.18464" lon="6.25178">
        <ele>469.4</ele>
        <time>2021-06-26T04:55:28Z</time>
      </trkpt>
      <trkpt lat="46.18459" lon="6.2518">
        <ele>469.6</ele>
        <time>2021-06-26T04:55:29Z</time>
      </trkpt>
      <trkpt lat="46.18453" lon="6.25182">
        <ele>469.8</ele>
        <time>2021-06-26T04:55:30Z</time>
      </trkpt>
      <trkpt lat="46.18448" lon="6.25184">
        <ele>469.8</ele>
        <time>2021-06-26T04:55:31Z</time>
      </trkpt>
      <trkpt lat="46.18443" lon="6.25187">
        <ele>469.8</ele>
        <time>2021-06-26T04:55:32Z</time>
      </trkpt>
      <trkpt lat="46.18438" lon="6.25189">
        <ele>469.8</ele>
        <time>2021-06-26T04:55:33Z</time>
      </trkpt>
      <trkpt lat="46.18433" lon="6.25192">
        <ele>470</ele>
        <time>2021-06-26T04:55:34Z</time>
      </trkpt>
      <trkpt lat="46.18428" lon="6.25194">
        <ele>470</ele>
        <time>2021-06-26T04:55:35Z</time>
      </trkpt>
      <trkpt lat="46.18423" lon="6.25197">
        <ele>470.2</ele>
        <time>2021-06-26T04:55:36Z</time>
      </trkpt>
      <trkpt lat="46.18418" lon="6.252">
        <ele>470.4</ele>
        <time>2021-06-26T04:55:37Z</time>
      </trkpt>
      <trkpt lat="46.18413" lon="6.25203">
        <ele>470.6</ele>
        <time>2021-06-26T04:55:38Z</time>
      </trkpt>
      <trkpt lat="46.18408" lon="6.25206">
        <ele>470.6</ele>
        <time>2021-06-26T04:55:39Z</time>
      </trkpt>
      <trkpt lat="46.18403" lon="6.25209">
        <ele>470.8</ele>
        <time>2021-06-26T04:55:40Z</time>
      </trkpt>
      <trkpt lat="46.18398" lon="6.25213">
        <ele>470.8</ele>
        <time>2021-06-26T04:55:41Z</time>
      </trkpt>
      <trkpt lat="46.18394" lon="6.25216">
        <ele>471</ele>
        <time>2021-06-26T04:55:42Z</time>
      </trkpt>
      <trkpt lat="46.18389" lon="6.2522">
        <ele>471.2</ele>
        <time>2021-06-26T04:55:43Z</time>
      </trkpt>
      <trkpt lat="46.18384" lon="6.25223">
        <ele>471.4</ele>
        <time>2021-06-26T04:55:44Z</time>
      </trkpt>
      <trkpt lat="46.18379" lon="6.25226">
        <ele>471.4</ele>
        <time>2021-06-26T04:55:45Z</time>
      </trkpt>
      <trkpt lat="46.18374" lon="6.2523">
        <ele>471.6</ele>
        <time>2021-06-26T04:55:46Z</time>
      </trkpt>
      <trkpt lat="46.1837" lon="6.25233">
        <ele>471.6</ele>
        <time>2021-06-26T04:55:47Z</time>
      </trkpt>
      <trkpt lat="46.18365" lon="6.25236">
        <ele>471.8</ele>
        <time>2021-06-26T04:55:48Z</time>
      </trkpt>
      <trkpt lat="46.18361" lon="6.25239">
        <ele>471.8</ele>
        <time>2021-06-26T04:55:49Z</time>
      </trkpt>
      <trkpt lat="46.18357" lon="6.25243">
        <ele>472</ele>
        <time>2021-06-26T04:55:50Z</time>
      </trkpt>
      <trkpt lat="46.18352" lon="6.25246">
        <ele>472.2</ele>
        <time>2021-06-26T04:55:51Z</time>
      </trkpt>
      <trkpt lat="46.18348" lon="6.25249">
        <ele>472.4</ele>
        <time>2021-06-26T04:55:52Z</time>
      </trkpt>
      <trkpt lat="46.18344" lon="6.25253">
        <ele>472.6</ele>
        <time>2021-06-26T04:55:53Z</time>
      </trkpt>
      <trkpt lat="46.1834" lon="6.25256">
        <ele>472.6</ele>
        <time>2021-06-26T04:55:54Z</time>
      </trkpt>
      <trkpt lat="46.18336" lon="6.25259">
        <ele>472.6</ele>
        <time>2021-06-26T04:55:55Z</time>
      </trkpt>
      <trkpt lat="46.18331" lon="6.25262">
        <ele>473</ele>
        <time>2021-06-26T04:55:56Z</time>
      </trkpt>
      <trkpt lat="46.18327" lon="6.25265">
        <ele>473.4</ele>
        <time>2021-06-26T04:55:57Z</time>
      </trkpt>
      <trkpt lat="46.18322" lon="6.25268">
        <ele>473.4</ele>
        <time>2021-06-26T04:55:58Z</time>
      </trkpt>
      <trkpt lat="46.18318" lon="6.25271">
        <ele>473.8</ele>
        <time>2021-06-26T04:55:59Z</time>
      </trkpt>
      <trkpt lat="46.18314" lon="6.25274">
        <ele>474</ele>
        <time>2021-06-26T04:56:00Z</time>
      </trkpt>
      <trkpt lat="46.18309" lon="6.25277">
        <ele>474.4</ele>
        <time>2021-06-26T04:56:01Z</time>
      </trkpt>
      <trkpt lat="46.18305" lon="6.2528">
        <ele>474.6</ele>
        <time>2021-06-26T04:56:02Z</time>
      </trkpt>
      <trkpt lat="46.183" lon="6.25283">
        <ele>474.8</ele>
        <time>2021-06-26T04:56:03Z</time>
      </trkpt>
      <trkpt lat="46.18296" lon="6.25286">
        <ele>474.8</ele>
        <time>2021-06-26T04:56:04Z</time>
      </trkpt>
      <trkpt lat="46.18292" lon="6.25289">
        <ele>475.2</ele>
        <time>2021-06-26T04:56:05Z</time>
      </trkpt>
      <trkpt lat="46.18287" lon="6.25292">
        <ele>475.2</ele>
        <time>2021-06-26T04:56:06Z</time>
      </trkpt>
      <trkpt lat="46.18283" lon="6.25295">
        <ele>475.4</ele>
        <time>2021-06-26T04:56:07Z</time>
      </trkpt>
      <trkpt lat="46.18279" lon="6.25297">
        <ele>475.8</ele>
        <time>2021-06-26T04:56:08Z</time>
      </trkpt>
      <trkpt lat="46.18275" lon="6.253">
        <ele>476</ele>
        <time>2021-06-26T04:56:09Z</time>
      </trkpt>
      <trkpt lat="46.18271" lon="6.25303">
        <ele>476.4</ele>
        <time>2021-06-26T04:56:10Z</time>
      </trkpt>
      <trkpt lat="46.18266" lon="6.25305">
        <ele>476.8</ele>
        <time>2021-06-26T04:56:11Z</time>
      </trkpt>
      <trkpt lat="46.18262" lon="6.25308">
        <ele>477</ele>
        <time>2021-06-26T04:56:12Z</time>
      </trkpt>
      <trkpt lat="46.18257" lon="6.25311">
        <ele>477.2</ele>
        <time>2021-06-26T04:56:13Z</time>
      </trkpt>
      <trkpt lat="46.18253" lon="6.25313">
        <ele>477.4</ele>
        <time>2021-06-26T04:56:14Z</time>
      </trkpt>
      <trkpt lat="46.18249" lon="6.25316">
        <ele>477.6</ele>
        <time>2021-06-26T04:56:15Z</time>
      </trkpt>
      <trkpt lat="46.18244" lon="6.25319">
        <ele>477.6</ele>
        <time>2021-06-26T04:56:16Z</time>
      </trkpt>
      <trkpt lat="46.1824" lon="6.25322">
        <ele>477.8</ele>
        <time>2021-06-26T04:56:17Z</time>
      </trkpt>
      <trkpt lat="46.18236" lon="6.25324">
        <ele>478</ele>
        <time>2021-06-26T04:56:18Z</time>
      </trkpt>
      <trkpt lat="46.18231" lon="6.25327">
        <ele>478.2</ele>
        <time>2021-06-26T04:56:19Z</time>
      </trkpt>
      <trkpt lat="46.18227" lon="6.2533">
        <ele>478.2</ele>
        <time>2021-06-26T04:56:20Z</time>
      </trkpt>
      <trkpt lat="46.18222" lon="6.25333">
        <ele>478.4</ele>
        <time>2021-06-26T04:56:21Z</time>
      </trkpt>
      <trkpt lat="46.18217" lon="6.25336">
        <ele>478.8</ele>
        <time>2021-06-26T04:56:22Z</time>
      </trkpt>
      <trkpt lat="46.18212" lon="6.25339">
        <ele>478.8</ele>
        <time>2021-06-26T04:56:23Z</time>
      </trkpt>
      <trkpt lat="46.18206" lon="6.25342">
        <ele>478.8</ele>
        <time>2021-06-26T04:56:24Z</time>
      </trkpt>
      <trkpt lat="46.18201" lon="6.25345">
        <ele>479</ele>
        <time>2021-06-26T04:56:25Z</time>
      </trkpt>
      <trkpt lat="46.18195" lon="6.25347">
        <ele>479</ele>
        <time>2021-06-26T04:56:26Z</time>
      </trkpt>
      <trkpt lat="46.1819" lon="6.2535">
        <ele>479.2</ele>
        <time>2021-06-26T04:56:27Z</time>
      </trkpt>
      <trkpt lat="46.18185" lon="6.25354">
        <ele>479.2</ele>
        <time>2021-06-26T04:56:28Z</time>
      </trkpt>
      <trkpt lat="46.1818" lon="6.25357">
        <ele>479.6</ele>
        <time>2021-06-26T04:56:29Z</time>
      </trkpt>
      <trkpt lat="46.18175" lon="6.2536">
        <ele>479.6</ele>
        <time>2021-06-26T04:56:30Z</time>
      </trkpt>
      <trkpt lat="46.1817" lon="6.25363">
        <ele>479.4</ele>
        <time>2021-06-26T04:56:31Z</time>
      </trkpt>
      <trkpt lat="46.18166" lon="6.25367">
        <ele>479.6</ele>
        <time>2021-06-26T04:56:32Z</time>
      </trkpt>
      <trkpt lat="46.18161" lon="6.2537">
        <ele>479.8</ele>
        <time>2021-06-26T04:56:33Z</time>
      </trkpt>
      <trkpt lat="46.18156" lon="6.25373">
        <ele>479.8</ele>
        <time>2021-06-26T04:56:34Z</time>
      </trkpt>
      <trkpt lat="46.18151" lon="6.25376">
        <ele>479.8</ele>
        <time>2021-06-26T04:56:35Z</time>
      </trkpt>
      <trkpt lat="46.18146" lon="6.25379">
        <ele>480</ele>
        <time>2021-06-26T04:56:36Z</time>
      </trkpt>
      <trkpt lat="46.18141" lon="6.25382">
        <ele>480.2</ele>
        <time>2021-06-26T04:56:37Z</time>
      </trkpt>
      <trkpt lat="46.18135" lon="6.25385">
        <ele>480.2</ele>
        <time>2021-06-26T04:56:38Z</time>
      </trkpt>
      <trkpt lat="46.1813" lon="6.25388">
        <ele>480.2</ele>
        <time>2021-06-26T04:56:39Z</time>
      </trkpt>
      <trkpt lat="46.18126" lon="6.25391">
        <ele>480.2</ele>
        <time>2021-06-26T04:56:40Z</time>
      </trkpt>
      <trkpt lat="46.18121" lon="6.25394">
        <ele>480.4</ele>
        <time>2021-06-26T04:56:41Z</time>
      </trkpt>
      <trkpt lat="46.18116" lon="6.25397">
        <ele>480.4</ele>
        <time>2021-06-26T04:56:42Z</time>
      </trkpt>
      <trkpt lat="46.18111" lon="6.254">
        <ele>480.6</ele>
        <time>2021-06-26T04:56:43Z</time>
      </trkpt>
      <trkpt lat="46.18105" lon="6.25403">
        <ele>480.6</ele>
        <time>2021-06-26T04:56:44Z</time>
      </trkpt>
      <trkpt lat="46.18096" lon="6.2541">
        <ele>480.6</ele>
        <time>2021-06-26T04:56:46Z</time>
      </trkpt>
      <trkpt lat="46.18091" lon="6.25414">
        <ele>480.8</ele>
        <time>2021-06-26T04:56:47Z</time>
      </trkpt>
      <trkpt lat="46.18082" lon="6.25421">
        <ele>480.8</ele>
        <time>2021-06-26T04:56:49Z</time>
      </trkpt>
      <trkpt lat="46.18079" lon="6.25425">
        <ele>481</ele>
        <time>2021-06-26T04:56:50Z</time>
      </trkpt>
      <trkpt lat="46.18075" lon="6.25429">
        <ele>481</ele>
        <time>2021-06-26T04:56:51Z</time>
      </trkpt>
      <trkpt lat="46.18072" lon="6.25434">
        <ele>481.4</ele>
        <time>2021-06-26T04:56:52Z</time>
      </trkpt>
      <trkpt lat="46.18068" lon="6.25438">
        <ele>481.4</ele>
        <time>2021-06-26T04:56:53Z</time>
      </trkpt>
      <trkpt lat="46.18065" lon="6.25442">
        <ele>481.4</ele>
        <time>2021-06-26T04:56:54Z</time>
      </trkpt>
      <trkpt lat="46.18062" lon="6.25447">
        <ele>481.4</ele>
        <time>2021-06-26T04:56:55Z</time>
      </trkpt>
      <trkpt lat="46.18058" lon="6.25451">
        <ele>481.6</ele>
        <time>2021-06-26T04:56:56Z</time>
      </trkpt>
      <trkpt lat="46.18055" lon="6.25456">
        <ele>482</ele>
        <time>2021-06-26T04:56:57Z</time>
      </trkpt>
      <trkpt lat="46.18052" lon="6.2546">
        <ele>482</ele>
        <time>2021-06-26T04:56:58Z</time>
      </trkpt>
      <trkpt lat="46.18049" lon="6.25465">
        <ele>482.4</ele>
        <time>2021-06-26T04:56:59Z</time>
      </trkpt>
      <trkpt lat="46.18046" lon="6.25468">
        <ele>482.4</ele>
        <time>2021-06-26T04:57:00Z</time>
      </trkpt>
      <trkpt lat="46.18043" lon="6.25473">
        <ele>482.8</ele>
        <time>2021-06-26T04:57:01Z</time>
      </trkpt>
      <trkpt lat="46.1804" lon="6.25477">
        <ele>483</ele>
        <time>2021-06-26T04:57:02Z</time>
      </trkpt>
      <trkpt lat="46.18037" lon="6.25482">
        <ele>483.4</ele>
        <time>2021-06-26T04:57:03Z</time>
      </trkpt>
      <trkpt lat="46.18034" lon="6.25486">
        <ele>483.8</ele>
        <time>2021-06-26T04:57:04Z</time>
      </trkpt>
      <trkpt lat="46.18031" lon="6.25491">
        <ele>484</ele>
        <time>2021-06-26T04:57:05Z</time>
      </trkpt>
      <trkpt lat="46.18028" lon="6.25495">
        <ele>484.2</ele>
        <time>2021-06-26T04:57:06Z</time>
      </trkpt>
      <trkpt lat="46.18025" lon="6.25499">
        <ele>484.6</ele>
        <time>2021-06-26T04:57:07Z</time>
      </trkpt>
      <trkpt lat="46.18022" lon="6.25503">
        <ele>484.8</ele>
        <time>2021-06-26T04:57:08Z</time>
      </trkpt>
      <trkpt lat="46.18018" lon="6.25506">
        <ele>485.2</ele>
        <time>2021-06-26T04:57:09Z</time>
      </trkpt>
      <trkpt lat="46.18015" lon="6.2551">
        <ele>485.6</ele>
        <time>2021-06-26T04:57:10Z</time>
      </trkpt>
      <trkpt lat="46.18011" lon="6.25513">
        <ele>485.8</ele>
        <time>2021-06-26T04:57:11Z</time>
      </trkpt>
      <trkpt lat="46.18007" lon="6.25516">
        <ele>486</ele>
        <time>2021-06-26T04:57:12Z</time>
      </trkpt>
      <trkpt lat="46.18002" lon="6.25519">
        <ele>486.2</ele>
        <time>2021-06-26T04:57:13Z</time>
      </trkpt>
      <trkpt lat="46.17998" lon="6.25522">
        <ele>486.6</ele>
        <time>2021-06-26T04:57:14Z</time>
      </trkpt>
      <trkpt lat="46.17994" lon="6.25525">
        <ele>486.8</ele>
        <time>2021-06-26T04:57:15Z</time>
      </trkpt>
      <trkpt lat="46.17989" lon="6.25527">
        <ele>487</ele>
        <time>2021-06-26T04:57:16Z</time>
      </trkpt>
      <trkpt lat="46.17985" lon="6.2553">
        <ele>487.2</ele>
        <time>2021-06-26T04:57:17Z</time>
      </trkpt>
      <trkpt lat="46.17981" lon="6.25532">
        <ele>487.4</ele>
        <time>2021-06-26T04:57:18Z</time>
      </trkpt>
      <trkpt lat="46.17976" lon="6.25534">
        <ele>487.6</ele>
        <time>2021-06-26T04:57:19Z</time>
      </trkpt>
      <trkpt lat="46.1797" lon="6.25536">
        <ele>487.6</ele>
        <time>2021-06-26T04:57:20Z</time>
      </trkpt>
      <trkpt lat="46.17965" lon="6.25538">
        <ele>487.6</ele>
        <time>2021-06-26T04:57:21Z</time>
      </trkpt>
      <trkpt lat="46.1796" lon="6.25541">
        <ele>487.6</ele>
        <time>2021-06-26T04:57:22Z</time>
      </trkpt>
      <trkpt lat="46.17954" lon="6.25543">
        <ele>487.6</ele>
        <time>2021-06-26T04:57:23Z</time>
      </trkpt>
      <trkpt lat="46.17948" lon="6.25544">
        <ele>487.6</ele>
        <time>2021-06-26T04:57:24Z</time>
      </trkpt>
      <trkpt lat="46.17942" lon="6.25545">
        <ele>487.8</ele>
        <time>2021-06-26T04:57:25Z</time>
      </trkpt>
      <trkpt lat="46.17936" lon="6.25546">
        <ele>487.8</ele>
        <time>2021-06-26T04:57:26Z</time>
      </trkpt>
      <trkpt lat="46.17929" lon="6.25548">
        <ele>487.8</ele>
        <time>2021-06-26T04:57:27Z</time>
      </trkpt>
      <trkpt lat="46.17923" lon="6.2555">
        <ele>487.8</ele>
        <time>2021-06-26T04:57:28Z</time>
      </trkpt>
      <trkpt lat="46.17908" lon="6.25552">
        <ele>487.8</ele>
        <time>2021-06-26T04:57:30Z</time>
      </trkpt>
      <trkpt lat="46.17877" lon="6.25554">
        <ele>487.6</ele>
        <time>2021-06-26T04:57:34Z</time>
      </trkpt>
      <trkpt lat="46.17861" lon="6.25552">
        <ele>486.6</ele>
        <time>2021-06-26T04:57:36Z</time>
      </trkpt>
      <trkpt lat="46.17844" lon="6.25548">
        <ele>485.4</ele>
        <time>2021-06-26T04:57:38Z</time>
      </trkpt>
      <trkpt lat="46.17835" lon="6.25546">
        <ele>485</ele>
        <time>2021-06-26T04:57:39Z</time>
      </trkpt>
      <trkpt lat="46.17811" lon="6.25545">
        <ele>484</ele>
        <time>2021-06-26T04:57:42Z</time>
      </trkpt>
      <trkpt lat="46.17803" lon="6.25546">
        <ele>483.6</ele>
        <time>2021-06-26T04:57:43Z</time>
      </trkpt>
      <trkpt lat="46.17796" lon="6.25547">
        <ele>482.6</ele>
        <time>2021-06-26T04:57:44Z</time>
      </trkpt>
      <trkpt lat="46.17788" lon="6.25547">
        <ele>482.6</ele>
        <time>2021-06-26T04:57:45Z</time>
      </trkpt>
      <trkpt lat="46.1778" lon="6.25548">
        <ele>482.2</ele>
        <time>2021-06-26T04:57:46Z</time>
      </trkpt>
      <trkpt lat="46.17772" lon="6.25549">
        <ele>482</ele>
        <time>2021-06-26T04:57:47Z</time>
      </trkpt>
      <trkpt lat="46.1775" lon="6.25555">
        <ele>481.2</ele>
        <time>2021-06-26T04:57:50Z</time>
      </trkpt>
      <trkpt lat="46.17743" lon="6.25558">
        <ele>481</ele>
        <time>2021-06-26T04:57:51Z</time>
      </trkpt>
      <trkpt lat="46.17736" lon="6.25561">
        <ele>480.8</ele>
        <time>2021-06-26T04:57:52Z</time>
      </trkpt>
      <trkpt lat="46.1773" lon="6.25565">
        <ele>480.8</ele>
        <time>2021-06-26T04:57:53Z</time>
      </trkpt>
      <trkpt lat="46.17723" lon="6.25568">
        <ele>481</ele>
        <time>2021-06-26T04:57:54Z</time>
      </trkpt>
      <trkpt lat="46.1771" lon="6.25576">
        <ele>480.8</ele>
        <time>2021-06-26T04:57:56Z</time>
      </trkpt>
      <trkpt lat="46.17698" lon="6.25583">
        <ele>480.8</ele>
        <time>2021-06-26T04:57:58Z</time>
      </trkpt>
      <trkpt lat="46.17691" lon="6.25586">
        <ele>480.8</ele>
        <time>2021-06-26T04:57:59Z</time>
      </trkpt>
      <trkpt lat="46.17685" lon="6.25589">
        <ele>480.8</ele>
        <time>2021-06-26T04:58:00Z</time>
      </trkpt>
      <trkpt lat="46.17679" lon="6.25592">
        <ele>480.8</ele>
        <time>2021-06-26T04:58:01Z</time>
      </trkpt>
      <trkpt lat="46.17673" lon="6.25595">
        <ele>481</ele>
        <time>2021-06-26T04:58:02Z</time>
      </trkpt>
      <trkpt lat="46.17668" lon="6.25598">
        <ele>481.2</ele>
        <time>2021-06-26T04:58:03Z</time>
      </trkpt>
      <trkpt lat="46.17662" lon="6.25601">
        <ele>481.2</ele>
        <time>2021-06-26T04:58:04Z</time>
      </trkpt>
      <trkpt lat="46.17651" lon="6.25608">
        <ele>481.6</ele>
        <time>2021-06-26T04:58:06Z</time>
      </trkpt>
      <trkpt lat="46.17645" lon="6.25611">
        <ele>481.6</ele>
        <time>2021-06-26T04:58:07Z</time>
      </trkpt>
      <trkpt lat="46.17639" lon="6.25614">
        <ele>481.6</ele>
        <time>2021-06-26T04:58:08Z</time>
      </trkpt>
      <trkpt lat="46.17634" lon="6.25617">
        <ele>481.8</ele>
        <time>2021-06-26T04:58:09Z</time>
      </trkpt>
      <trkpt lat="46.17623" lon="6.25623">
        <ele>482.2</ele>
        <time>2021-06-26T04:58:11Z</time>
      </trkpt>
      <trkpt lat="46.17617" lon="6.25626">
        <ele>482.4</ele>
        <time>2021-06-26T04:58:12Z</time>
      </trkpt>
      <trkpt lat="46.176" lon="6.25635">
        <ele>483</ele>
        <time>2021-06-26T04:58:15Z</time>
      </trkpt>
      <trkpt lat="46.17595" lon="6.25637">
        <ele>483.2</ele>
        <time>2021-06-26T04:58:16Z</time>
      </trkpt>
      <trkpt lat="46.17589" lon="6.2564">
        <ele>483.4</ele>
        <time>2021-06-26T04:58:17Z</time>
      </trkpt>
      <trkpt lat="46.17584" lon="6.25643">
        <ele>483.6</ele>
        <time>2021-06-26T04:58:18Z</time>
      </trkpt>
      <trkpt lat="46.17579" lon="6.25647">
        <ele>483.6</ele>
        <time>2021-06-26T04:58:19Z</time>
      </trkpt>
      <trkpt lat="46.17574" lon="6.25649">
        <ele>483.8</ele>
        <time>2021-06-26T04:58:20Z</time>
      </trkpt>
      <trkpt lat="46.17569" lon="6.25652">
        <ele>483.8</ele>
        <time>2021-06-26T04:58:21Z</time>
      </trkpt>
      <trkpt lat="46.17564" lon="6.25655">
        <ele>483.8</ele>
        <time>2021-06-26T04:58:22Z</time>
      </trkpt>
      <trkpt lat="46.17559" lon="6.25658">
        <ele>484.2</ele>
        <time>2021-06-26T04:58:23Z</time>
      </trkpt>
      <trkpt lat="46.17555" lon="6.25661">
        <ele>484.4</ele>
        <time>2021-06-26T04:58:24Z</time>
      </trkpt>
      <trkpt lat="46.1755" lon="6.25665">
        <ele>484.4</ele>
        <time>2021-06-26T04:58:25Z</time>
      </trkpt>
      <trkpt lat="46.17546" lon="6.25669">
        <ele>484.6</ele>
        <time>2021-06-26T04:58:26Z</time>
      </trkpt>
      <trkpt lat="46.17542" lon="6.25672">
        <ele>484.8</ele>
        <time>2021-06-26T04:58:27Z</time>
      </trkpt>
      <trkpt lat="46.17538" lon="6.25676">
        <ele>485.2</ele>
        <time>2021-06-26T04:58:28Z</time>
      </trkpt>
      <trkpt lat="46.17534" lon="6.25679">
        <ele>485.4</ele>
        <time>2021-06-26T04:58:29Z</time>
      </trkpt>
      <trkpt lat="46.1753" lon="6.25683">
        <ele>485.4</ele>
        <time>2021-06-26T04:58:30Z</time>
      </trkpt>
      <trkpt lat="46.17526" lon="6.25686">
        <ele>485.6</ele>
        <time>2021-06-26T04:58:31Z</time>
      </trkpt>
      <trkpt lat="46.17522" lon="6.2569">
        <ele>485.8</ele>
        <time>2021-06-26T04:58:32Z</time>
      </trkpt>
      <trkpt lat="46.17518" lon="6.25693">
        <ele>486</ele>
        <time>2021-06-26T04:58:33Z</time>
      </trkpt>
      <trkpt lat="46.17515" lon="6.25697">
        <ele>486.4</ele>
        <time>2021-06-26T04:58:34Z</time>
      </trkpt>
      <trkpt lat="46.17511" lon="6.257">
        <ele>486.6</ele>
        <time>2021-06-26T04:58:35Z</time>
      </trkpt>
      <trkpt lat="46.17508" lon="6.25703">
        <ele>486.8</ele>
        <time>2021-06-26T04:58:36Z</time>
      </trkpt>
      <trkpt lat="46.17505" lon="6.25706">
        <ele>486.8</ele>
        <time>2021-06-26T04:58:37Z</time>
      </trkpt>
      <trkpt lat="46.17501" lon="6.25709">
        <ele>487</ele>
        <time>2021-06-26T04:58:38Z</time>
      </trkpt>
      <trkpt lat="46.17498" lon="6.25713">
        <ele>487.4</ele>
        <time>2021-06-26T04:58:39Z</time>
      </trkpt>
      <trkpt lat="46.17494" lon="6.25716">
        <ele>487.8</ele>
        <time>2021-06-26T04:58:40Z</time>
      </trkpt>
      <trkpt lat="46.17491" lon="6.2572">
        <ele>488</ele>
        <time>2021-06-26T04:58:41Z</time>
      </trkpt>
      <trkpt lat="46.17488" lon="6.25723">
        <ele>488.6</ele>
        <time>2021-06-26T04:58:42Z</time>
      </trkpt>
      <trkpt lat="46.17484" lon="6.25726">
        <ele>489</ele>
        <time>2021-06-26T04:58:43Z</time>
      </trkpt>
      <trkpt lat="46.17481" lon="6.25729">
        <ele>489.2</ele>
        <time>2021-06-26T04:58:44Z</time>
      </trkpt>
      <trkpt lat="46.17478" lon="6.25732">
        <ele>489.6</ele>
        <time>2021-06-26T04:58:45Z</time>
      </trkpt>
      <trkpt lat="46.17474" lon="6.25735">
        <ele>490</ele>
        <time>2021-06-26T04:58:46Z</time>
      </trkpt>
      <trkpt lat="46.17471" lon="6.25738">
        <ele>490.2</ele>
        <time>2021-06-26T04:58:47Z</time>
      </trkpt>
      <trkpt lat="46.17469" lon="6.25741">
        <ele>490.6</ele>
        <time>2021-06-26T04:58:48Z</time>
      </trkpt>
      <trkpt lat="46.17465" lon="6.25744">
        <ele>490.8</ele>
        <time>2021-06-26T04:58:49Z</time>
      </trkpt>
      <trkpt lat="46.17462" lon="6.25747">
        <ele>491.2</ele>
        <time>2021-06-26T04:58:50Z</time>
      </trkpt>
      <trkpt lat="46.17459" lon="6.2575">
        <ele>491.4</ele>
        <time>2021-06-26T04:58:51Z</time>
      </trkpt>
      <trkpt lat="46.17456" lon="6.25753">
        <ele>491.4</ele>
        <time>2021-06-26T04:58:52Z</time>
      </trkpt>
      <trkpt lat="46.17453" lon="6.25756">
        <ele>491.8</ele>
        <time>2021-06-26T04:58:53Z</time>
      </trkpt>
      <trkpt lat="46.1745" lon="6.25759">
        <ele>491.8</ele>
        <time>2021-06-26T04:58:54Z</time>
      </trkpt>
      <trkpt lat="46.17447" lon="6.25762">
        <ele>492.2</ele>
        <time>2021-06-26T04:58:55Z</time>
      </trkpt>
      <trkpt lat="46.17444" lon="6.25766">
        <ele>492.6</ele>
        <time>2021-06-26T04:58:56Z</time>
      </trkpt>
      <trkpt lat="46.17441" lon="6.2577">
        <ele>492.8</ele>
        <time>2021-06-26T04:58:57Z</time>
      </trkpt>
      <trkpt lat="46.17439" lon="6.25774">
        <ele>493.2</ele>
        <time>2021-06-26T04:58:58Z</time>
      </trkpt>
      <trkpt lat="46.17436" lon="6.25778">
        <ele>493.4</ele>
        <time>2021-06-26T04:58:59Z</time>
      </trkpt>
      <trkpt lat="46.17433" lon="6.25781">
        <ele>493.8</ele>
        <time>2021-06-26T04:59:00Z</time>
      </trkpt>
      <trkpt lat="46.17429" lon="6.25784">
        <ele>494</ele>
        <time>2021-06-26T04:59:01Z</time>
      </trkpt>
      <trkpt lat="46.17426" lon="6.25785">
        <ele>494.2</ele>
        <time>2021-06-26T04:59:02Z</time>
      </trkpt>
      <trkpt lat="46.17423" lon="6.25786">
        <ele>494.6</ele>
        <time>2021-06-26T04:59:03Z</time>
      </trkpt>
      <trkpt lat="46.17421" lon="6.25788">
        <ele>494.6</ele>
        <time>2021-06-26T04:59:04Z</time>
      </trkpt>
      <trkpt lat="46.17419" lon="6.25792">
        <ele>494.8</ele>
        <time>2021-06-26T04:59:05Z</time>
      </trkpt>
      <trkpt lat="46.17418" lon="6.25797">
        <ele>495.2</ele>
        <time>2021-06-26T04:59:06Z</time>
      </trkpt>
      <trkpt lat="46.17417" lon="6.25802">
        <ele>495.2</ele>
        <time>2021-06-26T04:59:07Z</time>
      </trkpt>
      <trkpt lat="46.17416" lon="6.25808">
        <ele>495.4</ele>
        <time>2021-06-26T04:59:08Z</time>
      </trkpt>
      <trkpt lat="46.17416" lon="6.25813">
        <ele>495.2</ele>
        <time>2021-06-26T04:59:09Z</time>
      </trkpt>
      <trkpt lat="46.17415" lon="6.25819">
        <ele>495.4</ele>
        <time>2021-06-26T04:59:10Z</time>
      </trkpt>
      <trkpt lat="46.17414" lon="6.25824">
        <ele>495.2</ele>
        <time>2021-06-26T04:59:11Z</time>
      </trkpt>
      <trkpt lat="46.17412" lon="6.25829">
        <ele>495.4</ele>
        <time>2021-06-26T04:59:12Z</time>
      </trkpt>
      <trkpt lat="46.1741" lon="6.25834">
        <ele>495.4</ele>
        <time>2021-06-26T04:59:13Z</time>
      </trkpt>
      <trkpt lat="46.17408" lon="6.25839">
        <ele>495.2</ele>
        <time>2021-06-26T04:59:14Z</time>
      </trkpt>
      <trkpt lat="46.17404" lon="6.25843">
        <ele>495.4</ele>
        <time>2021-06-26T04:59:15Z</time>
      </trkpt>
      <trkpt lat="46.174" lon="6.25847">
        <ele>495.4</ele>
        <time>2021-06-26T04:59:16Z</time>
      </trkpt>
      <trkpt lat="46.17396" lon="6.25851">
        <ele>495.4</ele>
        <time>2021-06-26T04:59:17Z</time>
      </trkpt>
      <trkpt lat="46.17387" lon="6.25862">
        <ele>495.4</ele>
        <time>2021-06-26T04:59:19Z</time>
      </trkpt>
      <trkpt lat="46.17377" lon="6.25874">
        <ele>495.2</ele>
        <time>2021-06-26T04:59:21Z</time>
      </trkpt>
      <trkpt lat="46.17372" lon="6.25881">
        <ele>495.2</ele>
        <time>2021-06-26T04:59:22Z</time>
      </trkpt>
      <trkpt lat="46.17362" lon="6.25897">
        <ele>495.2</ele>
        <time>2021-06-26T04:59:24Z</time>
      </trkpt>
      <trkpt lat="46.17358" lon="6.25906">
        <ele>495</ele>
        <time>2021-06-26T04:59:25Z</time>
      </trkpt>
      <trkpt lat="46.17354" lon="6.25916">
        <ele>494.6</ele>
        <time>2021-06-26T04:59:26Z</time>
      </trkpt>
      <trkpt lat="46.17335" lon="6.25965">
        <ele>492.4</ele>
        <time>2021-06-26T04:59:31Z</time>
      </trkpt>
      <trkpt lat="46.1733" lon="6.25974">
        <ele>491.6</ele>
        <time>2021-06-26T04:59:32Z</time>
      </trkpt>
      <trkpt lat="46.17326" lon="6.25984">
        <ele>491.6</ele>
        <time>2021-06-26T04:59:33Z</time>
      </trkpt>
      <trkpt lat="46.17322" lon="6.25993">
        <ele>491.2</ele>
        <time>2021-06-26T04:59:34Z</time>
      </trkpt>
      <trkpt lat="46.17318" lon="6.26001">
        <ele>491.2</ele>
        <time>2021-06-26T04:59:35Z</time>
      </trkpt>
      <trkpt lat="46.17314" lon="6.26009">
        <ele>491.2</ele>
        <time>2021-06-26T04:59:36Z</time>
      </trkpt>
      <trkpt lat="46.17311" lon="6.26018">
        <ele>490.6</ele>
        <time>2021-06-26T04:59:37Z</time>
      </trkpt>
      <trkpt lat="46.17307" lon="6.26026">
        <ele>490.6</ele>
        <time>2021-06-26T04:59:38Z</time>
      </trkpt>
      <trkpt lat="46.17303" lon="6.26035">
        <ele>490.4</ele>
        <time>2021-06-26T04:59:39Z</time>
      </trkpt>
      <trkpt lat="46.173" lon="6.26043">
        <ele>490.4</ele>
        <time>2021-06-26T04:59:40Z</time>
      </trkpt>
      <trkpt lat="46.17296" lon="6.2605">
        <ele>490.2</ele>
        <time>2021-06-26T04:59:41Z</time>
      </trkpt>
      <trkpt lat="46.17292" lon="6.26057">
        <ele>490.4</ele>
        <time>2021-06-26T04:59:42Z</time>
      </trkpt>
      <trkpt lat="46.17288" lon="6.26064">
        <ele>490.4</ele>
        <time>2021-06-26T04:59:43Z</time>
      </trkpt>
      <trkpt lat="46.17284" lon="6.2607">
        <ele>490.4</ele>
        <time>2021-06-26T04:59:44Z</time>
      </trkpt>
      <trkpt lat="46.1728" lon="6.26076">
        <ele>490.4</ele>
        <time>2021-06-26T04:59:45Z</time>
      </trkpt>
      <trkpt lat="46.17277" lon="6.26082">
        <ele>490.4</ele>
        <time>2021-06-26T04:59:46Z</time>
      </trkpt>
      <trkpt lat="46.17275" lon="6.26088">
        <ele>490.4</ele>
        <time>2021-06-26T04:59:47Z</time>
      </trkpt>
      <trkpt lat="46.17272" lon="6.26093">
        <ele>490.6</ele>
        <time>2021-06-26T04:59:48Z</time>
      </trkpt>
      <trkpt lat="46.17268" lon="6.26097">
        <ele>490.6</ele>
        <time>2021-06-26T04:59:49Z</time>
      </trkpt>
      <trkpt lat="46.17265" lon="6.26102">
        <ele>491</ele>
        <time>2021-06-26T04:59:50Z</time>
      </trkpt>
      <trkpt lat="46.17262" lon="6.26107">
        <ele>491</ele>
        <time>2021-06-26T04:59:51Z</time>
      </trkpt>
      <trkpt lat="46.1726" lon="6.26112">
        <ele>491.4</ele>
        <time>2021-06-26T04:59:52Z</time>
      </trkpt>
      <trkpt lat="46.17258" lon="6.26118">
        <ele>491.8</ele>
        <time>2021-06-26T04:59:53Z</time>
      </trkpt>
      <trkpt lat="46.17256" lon="6.26124">
        <ele>492.2</ele>
        <time>2021-06-26T04:59:54Z</time>
      </trkpt>
      <trkpt lat="46.17253" lon="6.26129">
        <ele>492.6</ele>
        <time>2021-06-26T04:59:55Z</time>
      </trkpt>
      <trkpt lat="46.17251" lon="6.26134">
        <ele>493</ele>
        <time>2021-06-26T04:59:56Z</time>
      </trkpt>
      <trkpt lat="46.17248" lon="6.2614">
        <ele>493</ele>
        <time>2021-06-26T04:59:57Z</time>
      </trkpt>
      <trkpt lat="46.17246" lon="6.26145">
        <ele>493.6</ele>
        <time>2021-06-26T04:59:58Z</time>
      </trkpt>
      <trkpt lat="46.17243" lon="6.26151">
        <ele>494.2</ele>
        <time>2021-06-26T04:59:59Z</time>
      </trkpt>
      <trkpt lat="46.1724" lon="6.26157">
        <ele>494.6</ele>
        <time>2021-06-26T05:00:00Z</time>
      </trkpt>
      <trkpt lat="46.17237" lon="6.26162">
        <ele>494.6</ele>
        <time>2021-06-26T05:00:01Z</time>
      </trkpt>
      <trkpt lat="46.17234" lon="6.26168">
        <ele>495</ele>
        <time>2021-06-26T05:00:02Z</time>
      </trkpt>
      <trkpt lat="46.17231" lon="6.26173">
        <ele>495.2</ele>
        <time>2021-06-26T05:00:03Z</time>
      </trkpt>
      <trkpt lat="46.17227" lon="6.26179">
        <ele>495.6</ele>
        <time>2021-06-26T05:00:04Z</time>
      </trkpt>
      <trkpt lat="46.17224" lon="6.26184">
        <ele>495.8</ele>
        <time>2021-06-26T05:00:05Z</time>
      </trkpt>
      <trkpt lat="46.17221" lon="6.26189">
        <ele>496</ele>
        <time>2021-06-26T05:00:06Z</time>
      </trkpt>
      <trkpt lat="46.17217" lon="6.26194">
        <ele>496.2</ele>
        <time>2021-06-26T05:00:07Z</time>
      </trkpt>
      <trkpt lat="46.17213" lon="6.262">
        <ele>496.6</ele>
        <time>2021-06-26T05:00:08Z</time>
      </trkpt>
      <trkpt lat="46.1721" lon="6.26206">
        <ele>496.6</ele>
        <time>2021-06-26T05:00:09Z</time>
      </trkpt>
      <trkpt lat="46.17207" lon="6.26212">
        <ele>496.8</ele>
        <time>2021-06-26T05:00:10Z</time>
      </trkpt>
      <trkpt lat="46.17203" lon="6.26217">
        <ele>496.8</ele>
        <time>2021-06-26T05:00:11Z</time>
      </trkpt>
      <trkpt lat="46.172" lon="6.26222">
        <ele>496.8</ele>
        <time>2021-06-26T05:00:12Z</time>
      </trkpt>
      <trkpt lat="46.17197" lon="6.26227">
        <ele>497</ele>
        <time>2021-06-26T05:00:13Z</time>
      </trkpt>
      <trkpt lat="46.17193" lon="6.26232">
        <ele>497</ele>
        <time>2021-06-26T05:00:14Z</time>
      </trkpt>
      <trkpt lat="46.17189" lon="6.26237">
        <ele>497</ele>
        <time>2021-06-26T05:00:15Z</time>
      </trkpt>
      <trkpt lat="46.17185" lon="6.26242">
        <ele>497</ele>
        <time>2021-06-26T05:00:16Z</time>
      </trkpt>
      <trkpt lat="46.17181" lon="6.26248">
        <ele>497</ele>
        <time>2021-06-26T05:00:17Z</time>
      </trkpt>
      <trkpt lat="46.17176" lon="6.26254">
        <ele>497</ele>
        <time>2021-06-26T05:00:18Z</time>
      </trkpt>
      <trkpt lat="46.17168" lon="6.26264">
        <ele>496.8</ele>
        <time>2021-06-26T05:00:20Z</time>
      </trkpt>
      <trkpt lat="46.17163" lon="6.2627">
        <ele>496.8</ele>
        <time>2021-06-26T05:00:21Z</time>
      </trkpt>
      <trkpt lat="46.17141" lon="6.26303">
        <ele>496.8</ele>
        <time>2021-06-26T05:00:26Z</time>
      </trkpt>
      <trkpt lat="46.17133" lon="6.2632">
        <ele>496.8</ele>
        <time>2021-06-26T05:00:28Z</time>
      </trkpt>
      <trkpt lat="46.17129" lon="6.26328">
        <ele>496.6</ele>
        <time>2021-06-26T05:00:29Z</time>
      </trkpt>
      <trkpt lat="46.17115" lon="6.26351">
        <ele>496.2</ele>
        <time>2021-06-26T05:00:32Z</time>
      </trkpt>
      <trkpt lat="46.17107" lon="6.26367">
        <ele>496</ele>
        <time>2021-06-26T05:00:34Z</time>
      </trkpt>
      <trkpt lat="46.17103" lon="6.26374">
        <ele>496</ele>
        <time>2021-06-26T05:00:35Z</time>
      </trkpt>
      <trkpt lat="46.17099" lon="6.26381">
        <ele>496</ele>
        <time>2021-06-26T05:00:36Z</time>
      </trkpt>
      <trkpt lat="46.17095" lon="6.26387">
        <ele>496</ele>
        <time>2021-06-26T05:00:37Z</time>
      </trkpt>
      <trkpt lat="46.17093" lon="6.26392">
        <ele>495.8</ele>
        <time>2021-06-26T05:00:38Z</time>
      </trkpt>
      <trkpt lat="46.17091" lon="6.26395">
        <ele>495.6</ele>
        <time>2021-06-26T05:00:39Z</time>
      </trkpt>
      <trkpt lat="46.17089" lon="6.26397">
        <ele>495.6</ele>
        <time>2021-06-26T05:00:40Z</time>
      </trkpt>
      <trkpt lat="46.17088" lon="6.26399">
        <ele>495.8</ele>
        <time>2021-06-26T05:00:41Z</time>
      </trkpt>
      <trkpt lat="46.17087" lon="6.26402">
        <ele>495.8</ele>
        <time>2021-06-26T05:00:42Z</time>
      </trkpt>
      <trkpt lat="46.17085" lon="6.26405">
        <ele>495.8</ele>
        <time>2021-06-26T05:00:43Z</time>
      </trkpt>
      <trkpt lat="46.17076" lon="6.26417">
        <ele>495.6</ele>
        <time>2021-06-26T05:00:46Z</time>
      </trkpt>
      <trkpt lat="46.17073" lon="6.26423">
        <ele>495.6</ele>
        <time>2021-06-26T05:00:47Z</time>
      </trkpt>
      <trkpt lat="46.17062" lon="6.26441">
        <ele>495.4</ele>
        <time>2021-06-26T05:00:50Z</time>
      </trkpt>
      <trkpt lat="46.17057" lon="6.26448">
        <ele>495.2</ele>
        <time>2021-06-26T05:00:51Z</time>
      </trkpt>
      <trkpt lat="46.17053" lon="6.26456">
        <ele>495.2</ele>
        <time>2021-06-26T05:00:52Z</time>
      </trkpt>
      <trkpt lat="46.17043" lon="6.26472">
        <ele>495.2</ele>
        <time>2021-06-26T05:00:54Z</time>
      </trkpt>
      <trkpt lat="46.17028" lon="6.26499">
        <ele>494.8</ele>
        <time>2021-06-26T05:00:57Z</time>
      </trkpt>
      <trkpt lat="46.17023" lon="6.26509">
        <ele>494.4</ele>
        <time>2021-06-26T05:00:58Z</time>
      </trkpt>
      <trkpt lat="46.17011" lon="6.2653">
        <ele>493.4</ele>
        <time>2021-06-26T05:01:00Z</time>
      </trkpt>
      <trkpt lat="46.16998" lon="6.26551">
        <ele>493</ele>
        <time>2021-06-26T05:01:02Z</time>
      </trkpt>
      <trkpt lat="46.16985" lon="6.26573">
        <ele>491.4</ele>
        <time>2021-06-26T05:01:04Z</time>
      </trkpt>
      <trkpt lat="46.16972" lon="6.26595">
        <ele>490.4</ele>
        <time>2021-06-26T05:01:06Z</time>
      </trkpt>
      <trkpt lat="46.16966" lon="6.26606">
        <ele>489.8</ele>
        <time>2021-06-26T05:01:07Z</time>
      </trkpt>
      <trkpt lat="46.1696" lon="6.26616">
        <ele>488.6</ele>
        <time>2021-06-26T05:01:08Z</time>
      </trkpt>
      <trkpt lat="46.16954" lon="6.26625">
        <ele>487.4</ele>
        <time>2021-06-26T05:01:09Z</time>
      </trkpt>
      <trkpt lat="46.16949" lon="6.26634">
        <ele>486.4</ele>
        <time>2021-06-26T05:01:10Z</time>
      </trkpt>
      <trkpt lat="46.16944" lon="6.26643">
        <ele>485</ele>
        <time>2021-06-26T05:01:11Z</time>
      </trkpt>
      <trkpt lat="46.16938" lon="6.26651">
        <ele>484.2</ele>
        <time>2021-06-26T05:01:12Z</time>
      </trkpt>
      <trkpt lat="46.16933" lon="6.2666">
        <ele>483.6</ele>
        <time>2021-06-26T05:01:13Z</time>
      </trkpt>
      <trkpt lat="46.16928" lon="6.26668">
        <ele>483.2</ele>
        <time>2021-06-26T05:01:14Z</time>
      </trkpt>
      <trkpt lat="46.16923" lon="6.26676">
        <ele>482.8</ele>
        <time>2021-06-26T05:01:15Z</time>
      </trkpt>
      <trkpt lat="46.16919" lon="6.26685">
        <ele>482.8</ele>
        <time>2021-06-26T05:01:16Z</time>
      </trkpt>
      <trkpt lat="46.16915" lon="6.26694">
        <ele>482.6</ele>
        <time>2021-06-26T05:01:17Z</time>
      </trkpt>
      <trkpt lat="46.16911" lon="6.26704">
        <ele>482.6</ele>
        <time>2021-06-26T05:01:18Z</time>
      </trkpt>
      <trkpt lat="46.16906" lon="6.26725">
        <ele>482.4</ele>
        <time>2021-06-26T05:01:20Z</time>
      </trkpt>
      <trkpt lat="46.16903" lon="6.26747">
        <ele>482.4</ele>
        <time>2021-06-26T05:01:22Z</time>
      </trkpt>
      <trkpt lat="46.169" lon="6.26781">
        <ele>482.4</ele>
        <time>2021-06-26T05:01:25Z</time>
      </trkpt>
      <trkpt lat="46.16897" lon="6.26803">
        <ele>482.4</ele>
        <time>2021-06-26T05:01:27Z</time>
      </trkpt>
      <trkpt lat="46.16894" lon="6.26813">
        <ele>482.2</ele>
        <time>2021-06-26T05:01:28Z</time>
      </trkpt>
      <trkpt lat="46.16891" lon="6.26824">
        <ele>482.2</ele>
        <time>2021-06-26T05:01:29Z</time>
      </trkpt>
      <trkpt lat="46.16887" lon="6.26834">
        <ele>482.2</ele>
        <time>2021-06-26T05:01:30Z</time>
      </trkpt>
      <trkpt lat="46.16878" lon="6.26853">
        <ele>482</ele>
        <time>2021-06-26T05:01:32Z</time>
      </trkpt>
      <trkpt lat="46.1686" lon="6.26879">
        <ele>481.4</ele>
        <time>2021-06-26T05:01:35Z</time>
      </trkpt>
      <trkpt lat="46.16853" lon="6.26887">
        <ele>481.2</ele>
        <time>2021-06-26T05:01:36Z</time>
      </trkpt>
      <trkpt lat="46.16831" lon="6.26906">
        <ele>480.6</ele>
        <time>2021-06-26T05:01:39Z</time>
      </trkpt>
      <trkpt lat="46.16822" lon="6.26911">
        <ele>480.4</ele>
        <time>2021-06-26T05:01:40Z</time>
      </trkpt>
      <trkpt lat="46.16805" lon="6.26923">
        <ele>479.6</ele>
        <time>2021-06-26T05:01:42Z</time>
      </trkpt>
      <trkpt lat="46.16787" lon="6.26935">
        <ele>479</ele>
        <time>2021-06-26T05:01:44Z</time>
      </trkpt>
      <trkpt lat="46.16759" lon="6.26958">
        <ele>477.8</ele>
        <time>2021-06-26T05:01:47Z</time>
      </trkpt>
      <trkpt lat="46.16751" lon="6.26968">
        <ele>477.2</ele>
        <time>2021-06-26T05:01:48Z</time>
      </trkpt>
      <trkpt lat="46.16742" lon="6.26976">
        <ele>476.6</ele>
        <time>2021-06-26T05:01:49Z</time>
      </trkpt>
      <trkpt lat="46.16734" lon="6.26987">
        <ele>475.8</ele>
        <time>2021-06-26T05:01:50Z</time>
      </trkpt>
      <trkpt lat="46.16722" lon="6.27011">
        <ele>474.2</ele>
        <time>2021-06-26T05:01:52Z</time>
      </trkpt>
      <trkpt lat="46.16718" lon="6.27023">
        <ele>473.4</ele>
        <time>2021-06-26T05:01:53Z</time>
      </trkpt>
      <trkpt lat="46.16716" lon="6.27037">
        <ele>472.4</ele>
        <time>2021-06-26T05:01:54Z</time>
      </trkpt>
      <trkpt lat="46.1672" lon="6.2705">
        <ele>471.4</ele>
        <time>2021-06-26T05:01:55Z</time>
      </trkpt>
      <trkpt lat="46.16724" lon="6.27061">
        <ele>470.8</ele>
        <time>2021-06-26T05:01:56Z</time>
      </trkpt>
      <trkpt lat="46.1673" lon="6.27073">
        <ele>469.6</ele>
        <time>2021-06-26T05:01:57Z</time>
      </trkpt>
      <trkpt lat="46.16736" lon="6.27084">
        <ele>468.6</ele>
        <time>2021-06-26T05:01:58Z</time>
      </trkpt>
      <trkpt lat="46.16744" lon="6.27094">
        <ele>468</ele>
        <time>2021-06-26T05:01:59Z</time>
      </trkpt>
      <trkpt lat="46.16751" lon="6.27103">
        <ele>467.2</ele>
        <time>2021-06-26T05:02:00Z</time>
      </trkpt>
      <trkpt lat="46.16759" lon="6.27111">
        <ele>466.6</ele>
        <time>2021-06-26T05:02:01Z</time>
      </trkpt>
      <trkpt lat="46.16768" lon="6.27117">
        <ele>466</ele>
        <time>2021-06-26T05:02:02Z</time>
      </trkpt>
      <trkpt lat="46.16777" lon="6.27122">
        <ele>465.2</ele>
        <time>2021-06-26T05:02:03Z</time>
      </trkpt>
      <trkpt lat="46.16785" lon="6.27125">
        <ele>464.2</ele>
        <time>2021-06-26T05:02:04Z</time>
      </trkpt>
      <trkpt lat="46.16792" lon="6.27127">
        <ele>463</ele>
        <time>2021-06-26T05:02:05Z</time>
      </trkpt>
      <trkpt lat="46.16799" lon="6.27128">
        <ele>461.6</ele>
        <time>2021-06-26T05:02:06Z</time>
      </trkpt>
      <trkpt lat="46.16804" lon="6.27129">
        <ele>461.6</ele>
        <time>2021-06-26T05:02:07Z</time>
      </trkpt>
      <trkpt lat="46.16808" lon="6.2713">
        <ele>460.6</ele>
        <time>2021-06-26T05:02:08Z</time>
      </trkpt>
      <trkpt lat="46.16812" lon="6.27132">
        <ele>459.8</ele>
        <time>2021-06-26T05:02:09Z</time>
      </trkpt>
      <trkpt lat="46.16815" lon="6.27135">
        <ele>459</ele>
        <time>2021-06-26T05:02:10Z</time>
      </trkpt>
      <trkpt lat="46.16818" lon="6.27138">
        <ele>458.6</ele>
        <time>2021-06-26T05:02:11Z</time>
      </trkpt>
      <trkpt lat="46.16831" lon="6.27143">
        <ele>457.2</ele>
        <time>2021-06-26T05:02:14Z</time>
      </trkpt>
      <trkpt lat="46.1684" lon="6.27147">
        <ele>457.2</ele>
        <time>2021-06-26T05:02:16Z</time>
      </trkpt>
      <trkpt lat="46.16849" lon="6.27156">
        <ele>457</ele>
        <time>2021-06-26T05:02:18Z</time>
      </trkpt>
      <trkpt lat="46.16852" lon="6.27163">
        <ele>456.8</ele>
        <time>2021-06-26T05:02:19Z</time>
      </trkpt>
      <trkpt lat="46.16853" lon="6.27171">
        <ele>456.8</ele>
        <time>2021-06-26T05:02:20Z</time>
      </trkpt>
      <trkpt lat="46.16854" lon="6.27179">
        <ele>456.6</ele>
        <time>2021-06-26T05:02:21Z</time>
      </trkpt>
      <trkpt lat="46.16854" lon="6.27188">
        <ele>456.6</ele>
        <time>2021-06-26T05:02:22Z</time>
      </trkpt>
      <trkpt lat="46.16852" lon="6.27196">
        <ele>456.6</ele>
        <time>2021-06-26T05:02:23Z</time>
      </trkpt>
      <trkpt lat="46.16851" lon="6.27205">
        <ele>456.6</ele>
        <time>2021-06-26T05:02:24Z</time>
      </trkpt>
      <trkpt lat="46.1685" lon="6.27214">
        <ele>456.6</ele>
        <time>2021-06-26T05:02:25Z</time>
      </trkpt>
      <trkpt lat="46.16848" lon="6.27223">
        <ele>456.6</ele>
        <time>2021-06-26T05:02:26Z</time>
      </trkpt>
      <trkpt lat="46.16842" lon="6.27278">
        <ele>456.6</ele>
        <time>2021-06-26T05:02:32Z</time>
      </trkpt>
      <trkpt lat="46.16839" lon="6.27296">
        <ele>456.6</ele>
        <time>2021-06-26T05:02:34Z</time>
      </trkpt>
      <trkpt lat="46.16836" lon="6.27314">
        <ele>456.6</ele>
        <time>2021-06-26T05:02:36Z</time>
      </trkpt>
      <trkpt lat="46.16833" lon="6.27323">
        <ele>456.6</ele>
        <time>2021-06-26T05:02:37Z</time>
      </trkpt>
      <trkpt lat="46.16831" lon="6.27331">
        <ele>456.6</ele>
        <time>2021-06-26T05:02:38Z</time>
      </trkpt>
      <trkpt lat="46.16827" lon="6.27338">
        <ele>456.6</ele>
        <time>2021-06-26T05:02:39Z</time>
      </trkpt>
      <trkpt lat="46.16824" lon="6.27345">
        <ele>456.8</ele>
        <time>2021-06-26T05:02:40Z</time>
      </trkpt>
      <trkpt lat="46.1682" lon="6.27352">
        <ele>456.8</ele>
        <time>2021-06-26T05:02:41Z</time>
      </trkpt>
      <trkpt lat="46.16816" lon="6.27357">
        <ele>456.8</ele>
        <time>2021-06-26T05:02:42Z</time>
      </trkpt>
      <trkpt lat="46.16812" lon="6.27361">
        <ele>457</ele>
        <time>2021-06-26T05:02:43Z</time>
      </trkpt>
      <trkpt lat="46.16808" lon="6.27365">
        <ele>457</ele>
        <time>2021-06-26T05:02:44Z</time>
      </trkpt>
      <trkpt lat="46.16803" lon="6.27369">
        <ele>457.2</ele>
        <time>2021-06-26T05:02:45Z</time>
      </trkpt>
      <trkpt lat="46.16799" lon="6.27371">
        <ele>457.2</ele>
        <time>2021-06-26T05:02:46Z</time>
      </trkpt>
      <trkpt lat="46.16794" lon="6.27372">
        <ele>457.4</ele>
        <time>2021-06-26T05:02:47Z</time>
      </trkpt>
      <trkpt lat="46.16789" lon="6.27373">
        <ele>457.6</ele>
        <time>2021-06-26T05:02:48Z</time>
      </trkpt>
      <trkpt lat="46.16784" lon="6.27374">
        <ele>457.6</ele>
        <time>2021-06-26T05:02:49Z</time>
      </trkpt>
      <trkpt lat="46.1678" lon="6.27374">
        <ele>457.8</ele>
        <time>2021-06-26T05:02:50Z</time>
      </trkpt>
      <trkpt lat="46.16775" lon="6.27373">
        <ele>458.2</ele>
        <time>2021-06-26T05:02:51Z</time>
      </trkpt>
      <trkpt lat="46.1677" lon="6.27372">
        <ele>458.4</ele>
        <time>2021-06-26T05:02:52Z</time>
      </trkpt>
      <trkpt lat="46.16765" lon="6.27372">
        <ele>458.8</ele>
        <time>2021-06-26T05:02:53Z</time>
      </trkpt>
      <trkpt lat="46.1676" lon="6.27371">
        <ele>459</ele>
        <time>2021-06-26T05:02:54Z</time>
      </trkpt>
      <trkpt lat="46.16755" lon="6.2737">
        <ele>459.4</ele>
        <time>2021-06-26T05:02:55Z</time>
      </trkpt>
      <trkpt lat="46.1675" lon="6.27368">
        <ele>459.8</ele>
        <time>2021-06-26T05:02:56Z</time>
      </trkpt>
      <trkpt lat="46.16745" lon="6.27367">
        <ele>460.2</ele>
        <time>2021-06-26T05:02:57Z</time>
      </trkpt>
      <trkpt lat="46.1674" lon="6.27365">
        <ele>460.4</ele>
        <time>2021-06-26T05:02:58Z</time>
      </trkpt>
      <trkpt lat="46.16735" lon="6.27364">
        <ele>460.6</ele>
        <time>2021-06-26T05:02:59Z</time>
      </trkpt>
      <trkpt lat="46.1673" lon="6.27363">
        <ele>460.6</ele>
        <time>2021-06-26T05:03:00Z</time>
      </trkpt>
      <trkpt lat="46.16725" lon="6.27362">
        <ele>460.8</ele>
        <time>2021-06-26T05:03:01Z</time>
      </trkpt>
      <trkpt lat="46.1672" lon="6.27361">
        <ele>461.2</ele>
        <time>2021-06-26T05:03:02Z</time>
      </trkpt>
      <trkpt lat="46.16715" lon="6.2736">
        <ele>461.4</ele>
        <time>2021-06-26T05:03:03Z</time>
      </trkpt>
      <trkpt lat="46.1671" lon="6.27358">
        <ele>461.6</ele>
        <time>2021-06-26T05:03:04Z</time>
      </trkpt>
      <trkpt lat="46.16706" lon="6.27357">
        <ele>462</ele>
        <time>2021-06-26T05:03:05Z</time>
      </trkpt>
      <trkpt lat="46.16701" lon="6.27356">
        <ele>462</ele>
        <time>2021-06-26T05:03:06Z</time>
      </trkpt>
      <trkpt lat="46.16697" lon="6.27355">
        <ele>462.2</ele>
        <time>2021-06-26T05:03:07Z</time>
      </trkpt>
      <trkpt lat="46.16693" lon="6.27354">
        <ele>462.4</ele>
        <time>2021-06-26T05:03:08Z</time>
      </trkpt>
      <trkpt lat="46.16688" lon="6.27353">
        <ele>462.4</ele>
        <time>2021-06-26T05:03:09Z</time>
      </trkpt>
      <trkpt lat="46.16684" lon="6.27353">
        <ele>462.8</ele>
        <time>2021-06-26T05:03:10Z</time>
      </trkpt>
      <trkpt lat="46.1668" lon="6.27352">
        <ele>462.8</ele>
        <time>2021-06-26T05:03:11Z</time>
      </trkpt>
      <trkpt lat="46.16676" lon="6.27351">
        <ele>463</ele>
        <time>2021-06-26T05:03:12Z</time>
      </trkpt>
      <trkpt lat="46.16671" lon="6.27349">
        <ele>463.2</ele>
        <time>2021-06-26T05:03:13Z</time>
      </trkpt>
      <trkpt lat="46.16667" lon="6.27348">
        <ele>463.4</ele>
        <time>2021-06-26T05:03:14Z</time>
      </trkpt>
      <trkpt lat="46.16663" lon="6.27347">
        <ele>463.6</ele>
        <time>2021-06-26T05:03:15Z</time>
      </trkpt>
      <trkpt lat="46.16658" lon="6.27345">
        <ele>463.8</ele>
        <time>2021-06-26T05:03:16Z</time>
      </trkpt>
      <trkpt lat="46.16654" lon="6.27343">
        <ele>464</ele>
        <time>2021-06-26T05:03:17Z</time>
      </trkpt>
      <trkpt lat="46.1665" lon="6.27341">
        <ele>464.2</ele>
        <time>2021-06-26T05:03:18Z</time>
      </trkpt>
      <trkpt lat="46.16646" lon="6.27339">
        <ele>464.6</ele>
        <time>2021-06-26T05:03:19Z</time>
      </trkpt>
      <trkpt lat="46.16641" lon="6.27337">
        <ele>464.8</ele>
        <time>2021-06-26T05:03:20Z</time>
      </trkpt>
      <trkpt lat="46.16637" lon="6.27334">
        <ele>464.8</ele>
        <time>2021-06-26T05:03:21Z</time>
      </trkpt>
      <trkpt lat="46.16634" lon="6.27332">
        <ele>465</ele>
        <time>2021-06-26T05:03:22Z</time>
      </trkpt>
      <trkpt lat="46.1663" lon="6.27329">
        <ele>465.2</ele>
        <time>2021-06-26T05:03:23Z</time>
      </trkpt>
      <trkpt lat="46.16627" lon="6.27326">
        <ele>465.4</ele>
        <time>2021-06-26T05:03:24Z</time>
      </trkpt>
      <trkpt lat="46.16623" lon="6.27323">
        <ele>465.8</ele>
        <time>2021-06-26T05:03:25Z</time>
      </trkpt>
      <trkpt lat="46.16619" lon="6.27319">
        <ele>466</ele>
        <time>2021-06-26T05:03:26Z</time>
      </trkpt>
      <trkpt lat="46.16616" lon="6.27315">
        <ele>466</ele>
        <time>2021-06-26T05:03:27Z</time>
      </trkpt>
      <trkpt lat="46.16613" lon="6.27311">
        <ele>466.2</ele>
        <time>2021-06-26T05:03:28Z</time>
      </trkpt>
      <trkpt lat="46.1661" lon="6.27308">
        <ele>466.6</ele>
        <time>2021-06-26T05:03:29Z</time>
      </trkpt>
      <trkpt lat="46.16606" lon="6.27304">
        <ele>466.8</ele>
        <time>2021-06-26T05:03:30Z</time>
      </trkpt>
      <trkpt lat="46.16603" lon="6.273">
        <ele>467</ele>
        <time>2021-06-26T05:03:31Z</time>
      </trkpt>
      <trkpt lat="46.16599" lon="6.27297">
        <ele>467</ele>
        <time>2021-06-26T05:03:32Z</time>
      </trkpt>
      <trkpt lat="46.16595" lon="6.27293">
        <ele>467.2</ele>
        <time>2021-06-26T05:03:33Z</time>
      </trkpt>
      <trkpt lat="46.16592" lon="6.2729">
        <ele>467.6</ele>
        <time>2021-06-26T05:03:34Z</time>
      </trkpt>
      <trkpt lat="46.16588" lon="6.27286">
        <ele>467.6</ele>
        <time>2021-06-26T05:03:35Z</time>
      </trkpt>
      <trkpt lat="46.16584" lon="6.27283">
        <ele>468</ele>
        <time>2021-06-26T05:03:36Z</time>
      </trkpt>
      <trkpt lat="46.16579" lon="6.2728">
        <ele>468.2</ele>
        <time>2021-06-26T05:03:37Z</time>
      </trkpt>
      <trkpt lat="46.16575" lon="6.27277">
        <ele>468.4</ele>
        <time>2021-06-26T05:03:38Z</time>
      </trkpt>
      <trkpt lat="46.1657" lon="6.27274">
        <ele>468.6</ele>
        <time>2021-06-26T05:03:39Z</time>
      </trkpt>
      <trkpt lat="46.16565" lon="6.27272">
        <ele>468.8</ele>
        <time>2021-06-26T05:03:40Z</time>
      </trkpt>
      <trkpt lat="46.16561" lon="6.2727">
        <ele>469</ele>
        <time>2021-06-26T05:03:41Z</time>
      </trkpt>
      <trkpt lat="46.16556" lon="6.27268">
        <ele>469.2</ele>
        <time>2021-06-26T05:03:42Z</time>
      </trkpt>
      <trkpt lat="46.16552" lon="6.27266">
        <ele>469.4</ele>
        <time>2021-06-26T05:03:43Z</time>
      </trkpt>
      <trkpt lat="46.16548" lon="6.27265">
        <ele>469.8</ele>
        <time>2021-06-26T05:03:44Z</time>
      </trkpt>
      <trkpt lat="46.16544" lon="6.27264">
        <ele>470.2</ele>
        <time>2021-06-26T05:03:45Z</time>
      </trkpt>
      <trkpt lat="46.1654" lon="6.27262">
        <ele>470.2</ele>
        <time>2021-06-26T05:03:46Z</time>
      </trkpt>
      <trkpt lat="46.16535" lon="6.27261">
        <ele>470.6</ele>
        <time>2021-06-26T05:03:47Z</time>
      </trkpt>
      <trkpt lat="46.16531" lon="6.27259">
        <ele>470.8</ele>
        <time>2021-06-26T05:03:48Z</time>
      </trkpt>
      <trkpt lat="46.16526" lon="6.27258">
        <ele>471</ele>
        <time>2021-06-26T05:03:49Z</time>
      </trkpt>
      <trkpt lat="46.16522" lon="6.27256">
        <ele>471.2</ele>
        <time>2021-06-26T05:03:50Z</time>
      </trkpt>
      <trkpt lat="46.16518" lon="6.27254">
        <ele>471.4</ele>
        <time>2021-06-26T05:03:51Z</time>
      </trkpt>
      <trkpt lat="46.16514" lon="6.27252">
        <ele>471.8</ele>
        <time>2021-06-26T05:03:52Z</time>
      </trkpt>
      <trkpt lat="46.1651" lon="6.27251">
        <ele>472</ele>
        <time>2021-06-26T05:03:53Z</time>
      </trkpt>
      <trkpt lat="46.16505" lon="6.27249">
        <ele>472</ele>
        <time>2021-06-26T05:03:54Z</time>
      </trkpt>
      <trkpt lat="46.16501" lon="6.27247">
        <ele>472.2</ele>
        <time>2021-06-26T05:03:55Z</time>
      </trkpt>
      <trkpt lat="46.16496" lon="6.27246">
        <ele>472.2</ele>
        <time>2021-06-26T05:03:56Z</time>
      </trkpt>
      <trkpt lat="46.16491" lon="6.27244">
        <ele>472.4</ele>
        <time>2021-06-26T05:03:57Z</time>
      </trkpt>
      <trkpt lat="46.16487" lon="6.27242">
        <ele>472.4</ele>
        <time>2021-06-26T05:03:58Z</time>
      </trkpt>
      <trkpt lat="46.16483" lon="6.2724">
        <ele>472.6</ele>
        <time>2021-06-26T05:03:59Z</time>
      </trkpt>
      <trkpt lat="46.16478" lon="6.27238">
        <ele>472.8</ele>
        <time>2021-06-26T05:04:00Z</time>
      </trkpt>
      <trkpt lat="46.16473" lon="6.27236">
        <ele>473</ele>
        <time>2021-06-26T05:04:01Z</time>
      </trkpt>
      <trkpt lat="46.16468" lon="6.27234">
        <ele>473.2</ele>
        <time>2021-06-26T05:04:02Z</time>
      </trkpt>
      <trkpt lat="46.16463" lon="6.27232">
        <ele>473.4</ele>
        <time>2021-06-26T05:04:03Z</time>
      </trkpt>
      <trkpt lat="46.16459" lon="6.2723">
        <ele>473.6</ele>
        <time>2021-06-26T05:04:04Z</time>
      </trkpt>
      <trkpt lat="46.16454" lon="6.27229">
        <ele>473.6</ele>
        <time>2021-06-26T05:04:05Z</time>
      </trkpt>
      <trkpt lat="46.1645" lon="6.27227">
        <ele>473.8</ele>
        <time>2021-06-26T05:04:06Z</time>
      </trkpt>
      <trkpt lat="46.16445" lon="6.27226">
        <ele>473.8</ele>
        <time>2021-06-26T05:04:07Z</time>
      </trkpt>
      <trkpt lat="46.1644" lon="6.27224">
        <ele>474</ele>
        <time>2021-06-26T05:04:08Z</time>
      </trkpt>
      <trkpt lat="46.16435" lon="6.27224">
        <ele>474.2</ele>
        <time>2021-06-26T05:04:09Z</time>
      </trkpt>
      <trkpt lat="46.1643" lon="6.27223">
        <ele>474.4</ele>
        <time>2021-06-26T05:04:10Z</time>
      </trkpt>
      <trkpt lat="46.16426" lon="6.27223">
        <ele>474.8</ele>
        <time>2021-06-26T05:04:11Z</time>
      </trkpt>
      <trkpt lat="46.16421" lon="6.27223">
        <ele>475</ele>
        <time>2021-06-26T05:04:12Z</time>
      </trkpt>
      <trkpt lat="46.16417" lon="6.27223">
        <ele>475.2</ele>
        <time>2021-06-26T05:04:13Z</time>
      </trkpt>
      <trkpt lat="46.16412" lon="6.27224">
        <ele>475.6</ele>
        <time>2021-06-26T05:04:14Z</time>
      </trkpt>
      <trkpt lat="46.16408" lon="6.27225">
        <ele>475.6</ele>
        <time>2021-06-26T05:04:15Z</time>
      </trkpt>
      <trkpt lat="46.16404" lon="6.27226">
        <ele>475.6</ele>
        <time>2021-06-26T05:04:16Z</time>
      </trkpt>
      <trkpt lat="46.16399" lon="6.27228">
        <ele>476</ele>
        <time>2021-06-26T05:04:17Z</time>
      </trkpt>
      <trkpt lat="46.16395" lon="6.2723">
        <ele>476</ele>
        <time>2021-06-26T05:04:18Z</time>
      </trkpt>
      <trkpt lat="46.16391" lon="6.27233">
        <ele>476.4</ele>
        <time>2021-06-26T05:04:19Z</time>
      </trkpt>
      <trkpt lat="46.16387" lon="6.27236">
        <ele>476.8</ele>
        <time>2021-06-26T05:04:20Z</time>
      </trkpt>
      <trkpt lat="46.16383" lon="6.27239">
        <ele>477</ele>
        <time>2021-06-26T05:04:21Z</time>
      </trkpt>
      <trkpt lat="46.16379" lon="6.27242">
        <ele>477</ele>
        <time>2021-06-26T05:04:22Z</time>
      </trkpt>
      <trkpt lat="46.16375" lon="6.27245">
        <ele>477.6</ele>
        <time>2021-06-26T05:04:23Z</time>
      </trkpt>
      <trkpt lat="46.16372" lon="6.27249">
        <ele>477.6</ele>
        <time>2021-06-26T05:04:24Z</time>
      </trkpt>
      <trkpt lat="46.16368" lon="6.27253">
        <ele>477.8</ele>
        <time>2021-06-26T05:04:25Z</time>
      </trkpt>
      <trkpt lat="46.16364" lon="6.27257">
        <ele>477.8</ele>
        <time>2021-06-26T05:04:26Z</time>
      </trkpt>
      <trkpt lat="46.16361" lon="6.27261">
        <ele>478</ele>
        <time>2021-06-26T05:04:27Z</time>
      </trkpt>
      <trkpt lat="46.16357" lon="6.27266">
        <ele>478.2</ele>
        <time>2021-06-26T05:04:28Z</time>
      </trkpt>
      <trkpt lat="46.16354" lon="6.27271">
        <ele>478.4</ele>
        <time>2021-06-26T05:04:29Z</time>
      </trkpt>
      <trkpt lat="46.16351" lon="6.27276">
        <ele>478.6</ele>
        <time>2021-06-26T05:04:30Z</time>
      </trkpt>
      <trkpt lat="46.16348" lon="6.27281">
        <ele>479</ele>
        <time>2021-06-26T05:04:31Z</time>
      </trkpt>
      <trkpt lat="46.16346" lon="6.27287">
        <ele>479.2</ele>
        <time>2021-06-26T05:04:32Z</time>
      </trkpt>
      <trkpt lat="46.16343" lon="6.27292">
        <ele>479.4</ele>
        <time>2021-06-26T05:04:33Z</time>
      </trkpt>
      <trkpt lat="46.16341" lon="6.27298">
        <ele>479.6</ele>
        <time>2021-06-26T05:04:34Z</time>
      </trkpt>
      <trkpt lat="46.16338" lon="6.27304">
        <ele>479.8</ele>
        <time>2021-06-26T05:04:35Z</time>
      </trkpt>
      <trkpt lat="46.16335" lon="6.27311">
        <ele>479.8</ele>
        <time>2021-06-26T05:04:36Z</time>
      </trkpt>
      <trkpt lat="46.16333" lon="6.27318">
        <ele>479.8</ele>
        <time>2021-06-26T05:04:37Z</time>
      </trkpt>
      <trkpt lat="46.1633" lon="6.27325">
        <ele>480</ele>
        <time>2021-06-26T05:04:38Z</time>
      </trkpt>
      <trkpt lat="46.16328" lon="6.27332">
        <ele>480.4</ele>
        <time>2021-06-26T05:04:39Z</time>
      </trkpt>
      <trkpt lat="46.16325" lon="6.27338">
        <ele>480.4</ele>
        <time>2021-06-26T05:04:40Z</time>
      </trkpt>
      <trkpt lat="46.16323" lon="6.27346">
        <ele>480.4</ele>
        <time>2021-06-26T05:04:41Z</time>
      </trkpt>
      <trkpt lat="46.1632" lon="6.27353">
        <ele>480.4</ele>
        <time>2021-06-26T05:04:42Z</time>
      </trkpt>
      <trkpt lat="46.16317" lon="6.27361">
        <ele>480.4</ele>
        <time>2021-06-26T05:04:43Z</time>
      </trkpt>
      <trkpt lat="46.16315" lon="6.27368">
        <ele>480.4</ele>
        <time>2021-06-26T05:04:44Z</time>
      </trkpt>
      <trkpt lat="46.16312" lon="6.27375">
        <ele>480.4</ele>
        <time>2021-06-26T05:04:45Z</time>
      </trkpt>
      <trkpt lat="46.16309" lon="6.27382">
        <ele>480.6</ele>
        <time>2021-06-26T05:04:46Z</time>
      </trkpt>
      <trkpt lat="46.16289" lon="6.27436">
        <ele>480.4</ele>
        <time>2021-06-26T05:04:53Z</time>
      </trkpt>
      <trkpt lat="46.16281" lon="6.27459">
        <ele>480.4</ele>
        <time>2021-06-26T05:04:56Z</time>
      </trkpt>
      <trkpt lat="46.16278" lon="6.27467">
        <ele>480.4</ele>
        <time>2021-06-26T05:04:57Z</time>
      </trkpt>
      <trkpt lat="46.16272" lon="6.27482">
        <ele>480.2</ele>
        <time>2021-06-26T05:04:59Z</time>
      </trkpt>
      <trkpt lat="46.16269" lon="6.2749">
        <ele>480</ele>
        <time>2021-06-26T05:05:00Z</time>
      </trkpt>
      <trkpt lat="46.16258" lon="6.27521">
        <ele>480</ele>
        <time>2021-06-26T05:05:04Z</time>
      </trkpt>
      <trkpt lat="46.16255" lon="6.27529">
        <ele>479.8</ele>
        <time>2021-06-26T05:05:05Z</time>
      </trkpt>
      <trkpt lat="46.16243" lon="6.2756">
        <ele>479.8</ele>
        <time>2021-06-26T05:05:09Z</time>
      </trkpt>
      <trkpt lat="46.1624" lon="6.27567">
        <ele>479.6</ele>
        <time>2021-06-26T05:05:10Z</time>
      </trkpt>
      <trkpt lat="46.16229" lon="6.27589">
        <ele>479.6</ele>
        <time>2021-06-26T05:05:13Z</time>
      </trkpt>
      <trkpt lat="46.1622" lon="6.276">
        <ele>479.6</ele>
        <time>2021-06-26T05:05:15Z</time>
      </trkpt>
      <trkpt lat="46.16215" lon="6.27605">
        <ele>479.6</ele>
        <time>2021-06-26T05:05:16Z</time>
      </trkpt>
      <trkpt lat="46.1621" lon="6.27612">
        <ele>479.6</ele>
        <time>2021-06-26T05:05:17Z</time>
      </trkpt>
      <trkpt lat="46.16208" lon="6.27621">
        <ele>479.6</ele>
        <time>2021-06-26T05:05:18Z</time>
      </trkpt>
      <trkpt lat="46.16207" lon="6.2763">
        <ele>479.6</ele>
        <time>2021-06-26T05:05:19Z</time>
      </trkpt>
      <trkpt lat="46.16207" lon="6.27639">
        <ele>479.6</ele>
        <time>2021-06-26T05:05:20Z</time>
      </trkpt>
      <trkpt lat="46.16206" lon="6.27648">
        <ele>479.6</ele>
        <time>2021-06-26T05:05:21Z</time>
      </trkpt>
      <trkpt lat="46.16203" lon="6.27658">
        <ele>479.6</ele>
        <time>2021-06-26T05:05:22Z</time>
      </trkpt>
      <trkpt lat="46.16195" lon="6.27685">
        <ele>479.4</ele>
        <time>2021-06-26T05:05:25Z</time>
      </trkpt>
      <trkpt lat="46.16166" lon="6.27758">
        <ele>479</ele>
        <time>2021-06-26T05:05:33Z</time>
      </trkpt>
      <trkpt lat="46.16144" lon="6.27813">
        <ele>478.4</ele>
        <time>2021-06-26T05:05:39Z</time>
      </trkpt>
      <trkpt lat="46.1614" lon="6.27822">
        <ele>478.4</ele>
        <time>2021-06-26T05:05:40Z</time>
      </trkpt>
      <trkpt lat="46.16133" lon="6.27841">
        <ele>478.4</ele>
        <time>2021-06-26T05:05:42Z</time>
      </trkpt>
      <trkpt lat="46.16119" lon="6.27878">
        <ele>478</ele>
        <time>2021-06-26T05:05:46Z</time>
      </trkpt>
      <trkpt lat="46.16097" lon="6.27934">
        <ele>477.8</ele>
        <time>2021-06-26T05:05:52Z</time>
      </trkpt>
      <trkpt lat="46.16067" lon="6.28011">
        <ele>477.8</ele>
        <time>2021-06-26T05:06:00Z</time>
      </trkpt>
      <trkpt lat="46.16049" lon="6.28059">
        <ele>477.6</ele>
        <time>2021-06-26T05:06:05Z</time>
      </trkpt>
      <trkpt lat="46.1602" lon="6.28137">
        <ele>477.4</ele>
        <time>2021-06-26T05:06:13Z</time>
      </trkpt>
      <trkpt lat="46.16012" lon="6.28156">
        <ele>477.4</ele>
        <time>2021-06-26T05:06:15Z</time>
      </trkpt>
      <trkpt lat="46.16001" lon="6.28184">
        <ele>477.2</ele>
        <time>2021-06-26T05:06:18Z</time>
      </trkpt>
      <trkpt lat="46.15997" lon="6.28194">
        <ele>477</ele>
        <time>2021-06-26T05:06:19Z</time>
      </trkpt>
      <trkpt lat="46.15994" lon="6.28203">
        <ele>477</ele>
        <time>2021-06-26T05:06:20Z</time>
      </trkpt>
      <trkpt lat="46.1599" lon="6.28212">
        <ele>477</ele>
        <time>2021-06-26T05:06:21Z</time>
      </trkpt>
      <trkpt lat="46.15982" lon="6.2823">
        <ele>476.8</ele>
        <time>2021-06-26T05:06:23Z</time>
      </trkpt>
      <trkpt lat="46.15973" lon="6.28248">
        <ele>477</ele>
        <time>2021-06-26T05:06:25Z</time>
      </trkpt>
      <trkpt lat="46.1595" lon="6.28291">
        <ele>476.4</ele>
        <time>2021-06-26T05:06:30Z</time>
      </trkpt>
      <trkpt lat="46.15946" lon="6.283">
        <ele>476.4</ele>
        <time>2021-06-26T05:06:31Z</time>
      </trkpt>
      <trkpt lat="46.15941" lon="6.28308">
        <ele>476.4</ele>
        <time>2021-06-26T05:06:32Z</time>
      </trkpt>
      <trkpt lat="46.15927" lon="6.28335">
        <ele>476.2</ele>
        <time>2021-06-26T05:06:35Z</time>
      </trkpt>
      <trkpt lat="46.15896" lon="6.28398">
        <ele>475.6</ele>
        <time>2021-06-26T05:06:42Z</time>
      </trkpt>
      <trkpt lat="46.15892" lon="6.28407">
        <ele>475.6</ele>
        <time>2021-06-26T05:06:43Z</time>
      </trkpt>
      <trkpt lat="46.15888" lon="6.28417">
        <ele>475.6</ele>
        <time>2021-06-26T05:06:44Z</time>
      </trkpt>
      <trkpt lat="46.15872" lon="6.28469">
        <ele>475</ele>
        <time>2021-06-26T05:06:49Z</time>
      </trkpt>
      <trkpt lat="46.1587" lon="6.2848">
        <ele>475</ele>
        <time>2021-06-26T05:06:50Z</time>
      </trkpt>
      <trkpt lat="46.15868" lon="6.28491">
        <ele>475</ele>
        <time>2021-06-26T05:06:51Z</time>
      </trkpt>
      <trkpt lat="46.15867" lon="6.28502">
        <ele>474.8</ele>
        <time>2021-06-26T05:06:52Z</time>
      </trkpt>
      <trkpt lat="46.15865" lon="6.28512">
        <ele>474.4</ele>
        <time>2021-06-26T05:06:53Z</time>
      </trkpt>
      <trkpt lat="46.15864" lon="6.28523">
        <ele>474.4</ele>
        <time>2021-06-26T05:06:54Z</time>
      </trkpt>
      <trkpt lat="46.15864" lon="6.28533">
        <ele>474</ele>
        <time>2021-06-26T05:06:55Z</time>
      </trkpt>
      <trkpt lat="46.15868" lon="6.28541">
        <ele>474</ele>
        <time>2021-06-26T05:06:56Z</time>
      </trkpt>
      <trkpt lat="46.15874" lon="6.28548">
        <ele>473.4</ele>
        <time>2021-06-26T05:06:57Z</time>
      </trkpt>
      <trkpt lat="46.1588" lon="6.28553">
        <ele>473.4</ele>
        <time>2021-06-26T05:06:58Z</time>
      </trkpt>
      <trkpt lat="46.15886" lon="6.28558">
        <ele>473.2</ele>
        <time>2021-06-26T05:06:59Z</time>
      </trkpt>
      <trkpt lat="46.15892" lon="6.28565">
        <ele>473.2</ele>
        <time>2021-06-26T05:07:00Z</time>
      </trkpt>
      <trkpt lat="46.15897" lon="6.28572">
        <ele>473</ele>
        <time>2021-06-26T05:07:01Z</time>
      </trkpt>
      <trkpt lat="46.15914" lon="6.28592">
        <ele>472.8</ele>
        <time>2021-06-26T05:07:04Z</time>
      </trkpt>
      <trkpt lat="46.15919" lon="6.28599">
        <ele>472.6</ele>
        <time>2021-06-26T05:07:05Z</time>
      </trkpt>
      <trkpt lat="46.15925" lon="6.28606">
        <ele>472.6</ele>
        <time>2021-06-26T05:07:06Z</time>
      </trkpt>
      <trkpt lat="46.15935" lon="6.28619">
        <ele>472.6</ele>
        <time>2021-06-26T05:07:08Z</time>
      </trkpt>
      <trkpt lat="46.15939" lon="6.28626">
        <ele>472.6</ele>
        <time>2021-06-26T05:07:09Z</time>
      </trkpt>
      <trkpt lat="46.15944" lon="6.28633">
        <ele>472.6</ele>
        <time>2021-06-26T05:07:10Z</time>
      </trkpt>
      <trkpt lat="46.15947" lon="6.2864">
        <ele>472.6</ele>
        <time>2021-06-26T05:07:11Z</time>
      </trkpt>
      <trkpt lat="46.15951" lon="6.28646">
        <ele>472.6</ele>
        <time>2021-06-26T05:07:12Z</time>
      </trkpt>
      <trkpt lat="46.15954" lon="6.28651">
        <ele>472.6</ele>
        <time>2021-06-26T05:07:13Z</time>
      </trkpt>
      <trkpt lat="46.15958" lon="6.28657">
        <ele>472.6</ele>
        <time>2021-06-26T05:07:14Z</time>
      </trkpt>
      <trkpt lat="46.15961" lon="6.28662">
        <ele>472.8</ele>
        <time>2021-06-26T05:07:15Z</time>
      </trkpt>
      <trkpt lat="46.15964" lon="6.28667">
        <ele>473</ele>
        <time>2021-06-26T05:07:16Z</time>
      </trkpt>
      <trkpt lat="46.15968" lon="6.28672">
        <ele>473</ele>
        <time>2021-06-26T05:07:17Z</time>
      </trkpt>
      <trkpt lat="46.15971" lon="6.28677">
        <ele>473.4</ele>
        <time>2021-06-26T05:07:18Z</time>
      </trkpt>
      <trkpt lat="46.15974" lon="6.28682">
        <ele>473.8</ele>
        <time>2021-06-26T05:07:19Z</time>
      </trkpt>
      <trkpt lat="46.15977" lon="6.28687">
        <ele>474.4</ele>
        <time>2021-06-26T05:07:20Z</time>
      </trkpt>
      <trkpt lat="46.1598" lon="6.28692">
        <ele>474.8</ele>
        <time>2021-06-26T05:07:21Z</time>
      </trkpt>
      <trkpt lat="46.15983" lon="6.28697">
        <ele>475.2</ele>
        <time>2021-06-26T05:07:22Z</time>
      </trkpt>
      <trkpt lat="46.15987" lon="6.28702">
        <ele>475.8</ele>
        <time>2021-06-26T05:07:23Z</time>
      </trkpt>
      <trkpt lat="46.1599" lon="6.28707">
        <ele>476</ele>
        <time>2021-06-26T05:07:24Z</time>
      </trkpt>
      <trkpt lat="46.15994" lon="6.28713">
        <ele>476.4</ele>
        <time>2021-06-26T05:07:25Z</time>
      </trkpt>
      <trkpt lat="46.15997" lon="6.28718">
        <ele>476.6</ele>
        <time>2021-06-26T05:07:26Z</time>
      </trkpt>
      <trkpt lat="46.16" lon="6.28724">
        <ele>476.6</ele>
        <time>2021-06-26T05:07:27Z</time>
      </trkpt>
      <trkpt lat="46.16004" lon="6.2873">
        <ele>476.8</ele>
        <time>2021-06-26T05:07:28Z</time>
      </trkpt>
      <trkpt lat="46.16007" lon="6.28735">
        <ele>477</ele>
        <time>2021-06-26T05:07:29Z</time>
      </trkpt>
      <trkpt lat="46.1601" lon="6.2874">
        <ele>477.2</ele>
        <time>2021-06-26T05:07:30Z</time>
      </trkpt>
      <trkpt lat="46.16013" lon="6.28746">
        <ele>477.4</ele>
        <time>2021-06-26T05:07:31Z</time>
      </trkpt>
      <trkpt lat="46.16016" lon="6.28752">
        <ele>477.8</ele>
        <time>2021-06-26T05:07:32Z</time>
      </trkpt>
      <trkpt lat="46.16019" lon="6.28757">
        <ele>478</ele>
        <time>2021-06-26T05:07:33Z</time>
      </trkpt>
      <trkpt lat="46.16022" lon="6.28763">
        <ele>478.2</ele>
        <time>2021-06-26T05:07:34Z</time>
      </trkpt>
      <trkpt lat="46.16025" lon="6.28769">
        <ele>478.4</ele>
        <time>2021-06-26T05:07:35Z</time>
      </trkpt>
      <trkpt lat="46.16028" lon="6.28776">
        <ele>478.6</ele>
        <time>2021-06-26T05:07:36Z</time>
      </trkpt>
      <trkpt lat="46.1603" lon="6.28782">
        <ele>478.8</ele>
        <time>2021-06-26T05:07:37Z</time>
      </trkpt>
      <trkpt lat="46.16033" lon="6.28788">
        <ele>478.8</ele>
        <time>2021-06-26T05:07:38Z</time>
      </trkpt>
      <trkpt lat="46.16036" lon="6.28795">
        <ele>479.2</ele>
        <time>2021-06-26T05:07:39Z</time>
      </trkpt>
      <trkpt lat="46.16039" lon="6.28801">
        <ele>479.4</ele>
        <time>2021-06-26T05:07:40Z</time>
      </trkpt>
      <trkpt lat="46.16042" lon="6.28808">
        <ele>479.4</ele>
        <time>2021-06-26T05:07:41Z</time>
      </trkpt>
      <trkpt lat="46.16045" lon="6.28815">
        <ele>479.8</ele>
        <time>2021-06-26T05:07:42Z</time>
      </trkpt>
      <trkpt lat="46.16047" lon="6.28822">
        <ele>480.2</ele>
        <time>2021-06-26T05:07:43Z</time>
      </trkpt>
      <trkpt lat="46.1605" lon="6.2883">
        <ele>480.2</ele>
        <time>2021-06-26T05:07:44Z</time>
      </trkpt>
      <trkpt lat="46.16053" lon="6.28837">
        <ele>480.4</ele>
        <time>2021-06-26T05:07:45Z</time>
      </trkpt>
      <trkpt lat="46.16056" lon="6.28845">
        <ele>480.4</ele>
        <time>2021-06-26T05:07:46Z</time>
      </trkpt>
      <trkpt lat="46.16059" lon="6.28852">
        <ele>480.6</ele>
        <time>2021-06-26T05:07:47Z</time>
      </trkpt>
      <trkpt lat="46.16061" lon="6.2886">
        <ele>480.6</ele>
        <time>2021-06-26T05:07:48Z</time>
      </trkpt>
      <trkpt lat="46.16064" lon="6.28868">
        <ele>480.4</ele>
        <time>2021-06-26T05:07:49Z</time>
      </trkpt>
      <trkpt lat="46.16066" lon="6.28877">
        <ele>480.4</ele>
        <time>2021-06-26T05:07:50Z</time>
      </trkpt>
      <trkpt lat="46.16068" lon="6.28885">
        <ele>480.4</ele>
        <time>2021-06-26T05:07:51Z</time>
      </trkpt>
      <trkpt lat="46.16071" lon="6.28894">
        <ele>480.4</ele>
        <time>2021-06-26T05:07:52Z</time>
      </trkpt>
      <trkpt lat="46.16073" lon="6.28902">
        <ele>480.6</ele>
        <time>2021-06-26T05:07:53Z</time>
      </trkpt>
      <trkpt lat="46.16094" lon="6.28981">
        <ele>480.2</ele>
        <time>2021-06-26T05:08:02Z</time>
      </trkpt>
      <trkpt lat="46.16096" lon="6.28989">
        <ele>480.2</ele>
        <time>2021-06-26T05:08:03Z</time>
      </trkpt>
      <trkpt lat="46.16101" lon="6.29006">
        <ele>480.2</ele>
        <time>2021-06-26T05:08:05Z</time>
      </trkpt>
      <trkpt lat="46.16104" lon="6.29013">
        <ele>480.2</ele>
        <time>2021-06-26T05:08:06Z</time>
      </trkpt>
      <trkpt lat="46.16107" lon="6.29021">
        <ele>480.2</ele>
        <time>2021-06-26T05:08:07Z</time>
      </trkpt>
      <trkpt lat="46.16109" lon="6.29029">
        <ele>480.2</ele>
        <time>2021-06-26T05:08:08Z</time>
      </trkpt>
      <trkpt lat="46.16116" lon="6.29054">
        <ele>480.2</ele>
        <time>2021-06-26T05:08:11Z</time>
      </trkpt>
      <trkpt lat="46.16118" lon="6.29062">
        <ele>480.2</ele>
        <time>2021-06-26T05:08:12Z</time>
      </trkpt>
      <trkpt lat="46.1612" lon="6.2907">
        <ele>480.2</ele>
        <time>2021-06-26T05:08:13Z</time>
      </trkpt>
      <trkpt lat="46.16122" lon="6.29078">
        <ele>480.2</ele>
        <time>2021-06-26T05:08:14Z</time>
      </trkpt>
      <trkpt lat="46.16124" lon="6.29086">
        <ele>480.4</ele>
        <time>2021-06-26T05:08:15Z</time>
      </trkpt>
      <trkpt lat="46.16126" lon="6.29093">
        <ele>480.6</ele>
        <time>2021-06-26T05:08:16Z</time>
      </trkpt>
      <trkpt lat="46.16128" lon="6.29101">
        <ele>480.6</ele>
        <time>2021-06-26T05:08:17Z</time>
      </trkpt>
      <trkpt lat="46.1613" lon="6.29108">
        <ele>480.6</ele>
        <time>2021-06-26T05:08:18Z</time>
      </trkpt>
      <trkpt lat="46.16132" lon="6.29115">
        <ele>481</ele>
        <time>2021-06-26T05:08:19Z</time>
      </trkpt>
      <trkpt lat="46.16133" lon="6.29122">
        <ele>481.6</ele>
        <time>2021-06-26T05:08:20Z</time>
      </trkpt>
      <trkpt lat="46.16135" lon="6.2913">
        <ele>482</ele>
        <time>2021-06-26T05:08:21Z</time>
      </trkpt>
      <trkpt lat="46.16137" lon="6.29137">
        <ele>482.2</ele>
        <time>2021-06-26T05:08:22Z</time>
      </trkpt>
      <trkpt lat="46.16139" lon="6.29145">
        <ele>482.4</ele>
        <time>2021-06-26T05:08:23Z</time>
      </trkpt>
      <trkpt lat="46.16141" lon="6.29152">
        <ele>482.6</ele>
        <time>2021-06-26T05:08:24Z</time>
      </trkpt>
      <trkpt lat="46.16143" lon="6.2916">
        <ele>482.8</ele>
        <time>2021-06-26T05:08:25Z</time>
      </trkpt>
      <trkpt lat="46.16145" lon="6.29167">
        <ele>483.2</ele>
        <time>2021-06-26T05:08:26Z</time>
      </trkpt>
      <trkpt lat="46.16147" lon="6.29175">
        <ele>483.4</ele>
        <time>2021-06-26T05:08:27Z</time>
      </trkpt>
      <trkpt lat="46.16149" lon="6.29182">
        <ele>483.6</ele>
        <time>2021-06-26T05:08:28Z</time>
      </trkpt>
      <trkpt lat="46.1615" lon="6.2919">
        <ele>483.6</ele>
        <time>2021-06-26T05:08:29Z</time>
      </trkpt>
      <trkpt lat="46.16152" lon="6.29198">
        <ele>483.6</ele>
        <time>2021-06-26T05:08:30Z</time>
      </trkpt>
      <trkpt lat="46.16154" lon="6.29206">
        <ele>484</ele>
        <time>2021-06-26T05:08:31Z</time>
      </trkpt>
      <trkpt lat="46.16156" lon="6.29213">
        <ele>484</ele>
        <time>2021-06-26T05:08:32Z</time>
      </trkpt>
      <trkpt lat="46.16158" lon="6.29221">
        <ele>484.2</ele>
        <time>2021-06-26T05:08:33Z</time>
      </trkpt>
      <trkpt lat="46.1616" lon="6.29228">
        <ele>484.4</ele>
        <time>2021-06-26T05:08:34Z</time>
      </trkpt>
      <trkpt lat="46.16162" lon="6.29236">
        <ele>484.6</ele>
        <time>2021-06-26T05:08:35Z</time>
      </trkpt>
      <trkpt lat="46.16164" lon="6.29243">
        <ele>484.6</ele>
        <time>2021-06-26T05:08:36Z</time>
      </trkpt>
      <trkpt lat="46.16166" lon="6.2925">
        <ele>484.8</ele>
        <time>2021-06-26T05:08:37Z</time>
      </trkpt>
      <trkpt lat="46.16168" lon="6.29258">
        <ele>484.6</ele>
        <time>2021-06-26T05:08:38Z</time>
      </trkpt>
      <trkpt lat="46.16169" lon="6.29265">
        <ele>485</ele>
        <time>2021-06-26T05:08:39Z</time>
      </trkpt>
      <trkpt lat="46.16171" lon="6.29272">
        <ele>485</ele>
        <time>2021-06-26T05:08:40Z</time>
      </trkpt>
      <trkpt lat="46.16173" lon="6.29279">
        <ele>485</ele>
        <time>2021-06-26T05:08:41Z</time>
      </trkpt>
      <trkpt lat="46.16175" lon="6.29286">
        <ele>485.2</ele>
        <time>2021-06-26T05:08:42Z</time>
      </trkpt>
      <trkpt lat="46.16177" lon="6.29293">
        <ele>485.4</ele>
        <time>2021-06-26T05:08:43Z</time>
      </trkpt>
      <trkpt lat="46.16179" lon="6.293">
        <ele>485.6</ele>
        <time>2021-06-26T05:08:44Z</time>
      </trkpt>
      <trkpt lat="46.16181" lon="6.29307">
        <ele>485.8</ele>
        <time>2021-06-26T05:08:45Z</time>
      </trkpt>
      <trkpt lat="46.16182" lon="6.29314">
        <ele>486</ele>
        <time>2021-06-26T05:08:46Z</time>
      </trkpt>
      <trkpt lat="46.16184" lon="6.29321">
        <ele>486.2</ele>
        <time>2021-06-26T05:08:47Z</time>
      </trkpt>
      <trkpt lat="46.16186" lon="6.29328">
        <ele>486.4</ele>
        <time>2021-06-26T05:08:48Z</time>
      </trkpt>
      <trkpt lat="46.16188" lon="6.29335">
        <ele>486.6</ele>
        <time>2021-06-26T05:08:49Z</time>
      </trkpt>
      <trkpt lat="46.1619" lon="6.29342">
        <ele>486.8</ele>
        <time>2021-06-26T05:08:50Z</time>
      </trkpt>
      <trkpt lat="46.16192" lon="6.2935">
        <ele>487.2</ele>
        <time>2021-06-26T05:08:51Z</time>
      </trkpt>
      <trkpt lat="46.16194" lon="6.29357">
        <ele>487.2</ele>
        <time>2021-06-26T05:08:52Z</time>
      </trkpt>
      <trkpt lat="46.16196" lon="6.29365">
        <ele>487.4</ele>
        <time>2021-06-26T05:08:53Z</time>
      </trkpt>
      <trkpt lat="46.16198" lon="6.29372">
        <ele>487.6</ele>
        <time>2021-06-26T05:08:54Z</time>
      </trkpt>
      <trkpt lat="46.162" lon="6.29379">
        <ele>487.8</ele>
        <time>2021-06-26T05:08:55Z</time>
      </trkpt>
      <trkpt lat="46.16202" lon="6.29386">
        <ele>488.2</ele>
        <time>2021-06-26T05:08:56Z</time>
      </trkpt>
      <trkpt lat="46.16204" lon="6.29394">
        <ele>488.4</ele>
        <time>2021-06-26T05:08:57Z</time>
      </trkpt>
      <trkpt lat="46.16206" lon="6.29401">
        <ele>488.4</ele>
        <time>2021-06-26T05:08:58Z</time>
      </trkpt>
      <trkpt lat="46.16207" lon="6.29408">
        <ele>488.8</ele>
        <time>2021-06-26T05:08:59Z</time>
      </trkpt>
      <trkpt lat="46.16209" lon="6.29415">
        <ele>488.6</ele>
        <time>2021-06-26T05:09:00Z</time>
      </trkpt>
      <trkpt lat="46.1621" lon="6.29422">
        <ele>488.8</ele>
        <time>2021-06-26T05:09:01Z</time>
      </trkpt>
      <trkpt lat="46.16211" lon="6.2943">
        <ele>488.8</ele>
        <time>2021-06-26T05:09:02Z</time>
      </trkpt>
      <trkpt lat="46.16212" lon="6.29437">
        <ele>489</ele>
        <time>2021-06-26T05:09:03Z</time>
      </trkpt>
      <trkpt lat="46.16212" lon="6.29445">
        <ele>489.4</ele>
        <time>2021-06-26T05:09:04Z</time>
      </trkpt>
      <trkpt lat="46.16213" lon="6.29452">
        <ele>489.4</ele>
        <time>2021-06-26T05:09:05Z</time>
      </trkpt>
      <trkpt lat="46.16213" lon="6.2946">
        <ele>489.8</ele>
        <time>2021-06-26T05:09:06Z</time>
      </trkpt>
      <trkpt lat="46.16214" lon="6.29467">
        <ele>490.2</ele>
        <time>2021-06-26T05:09:07Z</time>
      </trkpt>
      <trkpt lat="46.16214" lon="6.29475">
        <ele>490.4</ele>
        <time>2021-06-26T05:09:08Z</time>
      </trkpt>
      <trkpt lat="46.16215" lon="6.29483">
        <ele>490.8</ele>
        <time>2021-06-26T05:09:09Z</time>
      </trkpt>
      <trkpt lat="46.16215" lon="6.29491">
        <ele>491</ele>
        <time>2021-06-26T05:09:10Z</time>
      </trkpt>
      <trkpt lat="46.16216" lon="6.29499">
        <ele>491.2</ele>
        <time>2021-06-26T05:09:11Z</time>
      </trkpt>
      <trkpt lat="46.16216" lon="6.29507">
        <ele>491.2</ele>
        <time>2021-06-26T05:09:12Z</time>
      </trkpt>
      <trkpt lat="46.16217" lon="6.29515">
        <ele>491.2</ele>
        <time>2021-06-26T05:09:13Z</time>
      </trkpt>
      <trkpt lat="46.16217" lon="6.29524">
        <ele>491.2</ele>
        <time>2021-06-26T05:09:14Z</time>
      </trkpt>
      <trkpt lat="46.16218" lon="6.29532">
        <ele>491.2</ele>
        <time>2021-06-26T05:09:15Z</time>
      </trkpt>
      <trkpt lat="46.16218" lon="6.29541">
        <ele>491.4</ele>
        <time>2021-06-26T05:09:16Z</time>
      </trkpt>
      <trkpt lat="46.16219" lon="6.29549">
        <ele>491.4</ele>
        <time>2021-06-26T05:09:17Z</time>
      </trkpt>
      <trkpt lat="46.16219" lon="6.29558">
        <ele>491.4</ele>
        <time>2021-06-26T05:09:18Z</time>
      </trkpt>
      <trkpt lat="46.1622" lon="6.29566">
        <ele>491.4</ele>
        <time>2021-06-26T05:09:19Z</time>
      </trkpt>
      <trkpt lat="46.1622" lon="6.29583">
        <ele>491.6</ele>
        <time>2021-06-26T05:09:21Z</time>
      </trkpt>
      <trkpt lat="46.1622" lon="6.29601">
        <ele>491.6</ele>
        <time>2021-06-26T05:09:23Z</time>
      </trkpt>
      <trkpt lat="46.16219" lon="6.29609">
        <ele>491.6</ele>
        <time>2021-06-26T05:09:24Z</time>
      </trkpt>
      <trkpt lat="46.16219" lon="6.29618">
        <ele>491.6</ele>
        <time>2021-06-26T05:09:25Z</time>
      </trkpt>
      <trkpt lat="46.16218" lon="6.29626">
        <ele>491.6</ele>
        <time>2021-06-26T05:09:26Z</time>
      </trkpt>
      <trkpt lat="46.16217" lon="6.29634">
        <ele>491.8</ele>
        <time>2021-06-26T05:09:27Z</time>
      </trkpt>
      <trkpt lat="46.16216" lon="6.29642">
        <ele>491.8</ele>
        <time>2021-06-26T05:09:28Z</time>
      </trkpt>
      <trkpt lat="46.16214" lon="6.2965">
        <ele>491.6</ele>
        <time>2021-06-26T05:09:29Z</time>
      </trkpt>
      <trkpt lat="46.16213" lon="6.29657">
        <ele>491.8</ele>
        <time>2021-06-26T05:09:30Z</time>
      </trkpt>
      <trkpt lat="46.16212" lon="6.29665">
        <ele>491.6</ele>
        <time>2021-06-26T05:09:31Z</time>
      </trkpt>
      <trkpt lat="46.16209" lon="6.29707">
        <ele>492.4</ele>
        <time>2021-06-26T05:09:36Z</time>
      </trkpt>
      <trkpt lat="46.16209" lon="6.29715">
        <ele>492.4</ele>
        <time>2021-06-26T05:09:37Z</time>
      </trkpt>
      <trkpt lat="46.16212" lon="6.29732">
        <ele>492.8</ele>
        <time>2021-06-26T05:09:39Z</time>
      </trkpt>
      <trkpt lat="46.1622" lon="6.29767">
        <ele>493</ele>
        <time>2021-06-26T05:09:43Z</time>
      </trkpt>
      <trkpt lat="46.16223" lon="6.29775">
        <ele>493</ele>
        <time>2021-06-26T05:09:44Z</time>
      </trkpt>
      <trkpt lat="46.16239" lon="6.29835">
        <ele>493.2</ele>
        <time>2021-06-26T05:09:51Z</time>
      </trkpt>
      <trkpt lat="46.16244" lon="6.29852">
        <ele>493.2</ele>
        <time>2021-06-26T05:09:53Z</time>
      </trkpt>
      <trkpt lat="46.16248" lon="6.29868">
        <ele>493.2</ele>
        <time>2021-06-26T05:09:55Z</time>
      </trkpt>
      <trkpt lat="46.1625" lon="6.29877">
        <ele>493.2</ele>
        <time>2021-06-26T05:09:56Z</time>
      </trkpt>
      <trkpt lat="46.16255" lon="6.29893">
        <ele>493.2</ele>
        <time>2021-06-26T05:09:58Z</time>
      </trkpt>
      <trkpt lat="46.16257" lon="6.29901">
        <ele>493.4</ele>
        <time>2021-06-26T05:09:59Z</time>
      </trkpt>
      <trkpt lat="46.1626" lon="6.2991">
        <ele>493.2</ele>
        <time>2021-06-26T05:10:00Z</time>
      </trkpt>
      <trkpt lat="46.16262" lon="6.29918">
        <ele>493.4</ele>
        <time>2021-06-26T05:10:01Z</time>
      </trkpt>
      <trkpt lat="46.16265" lon="6.29926">
        <ele>493.4</ele>
        <time>2021-06-26T05:10:02Z</time>
      </trkpt>
      <trkpt lat="46.16269" lon="6.29942">
        <ele>493.6</ele>
        <time>2021-06-26T05:10:04Z</time>
      </trkpt>
      <trkpt lat="46.16272" lon="6.29949">
        <ele>493.8</ele>
        <time>2021-06-26T05:10:05Z</time>
      </trkpt>
      <trkpt lat="46.16275" lon="6.29956">
        <ele>494</ele>
        <time>2021-06-26T05:10:06Z</time>
      </trkpt>
      <trkpt lat="46.16278" lon="6.29963">
        <ele>494</ele>
        <time>2021-06-26T05:10:07Z</time>
      </trkpt>
      <trkpt lat="46.16281" lon="6.29969">
        <ele>494</ele>
        <time>2021-06-26T05:10:08Z</time>
      </trkpt>
      <trkpt lat="46.16289" lon="6.29982">
        <ele>494.2</ele>
        <time>2021-06-26T05:10:10Z</time>
      </trkpt>
      <trkpt lat="46.16293" lon="6.29988">
        <ele>494.4</ele>
        <time>2021-06-26T05:10:11Z</time>
      </trkpt>
      <trkpt lat="46.16296" lon="6.29994">
        <ele>494.6</ele>
        <time>2021-06-26T05:10:12Z</time>
      </trkpt>
      <trkpt lat="46.163" lon="6.3">
        <ele>494.8</ele>
        <time>2021-06-26T05:10:13Z</time>
      </trkpt>
      <trkpt lat="46.16304" lon="6.30006">
        <ele>494.8</ele>
        <time>2021-06-26T05:10:14Z</time>
      </trkpt>
      <trkpt lat="46.16307" lon="6.30011">
        <ele>495</ele>
        <time>2021-06-26T05:10:15Z</time>
      </trkpt>
      <trkpt lat="46.16311" lon="6.30017">
        <ele>495.2</ele>
        <time>2021-06-26T05:10:16Z</time>
      </trkpt>
      <trkpt lat="46.16314" lon="6.30023">
        <ele>495.2</ele>
        <time>2021-06-26T05:10:17Z</time>
      </trkpt>
      <trkpt lat="46.16317" lon="6.30029">
        <ele>495.4</ele>
        <time>2021-06-26T05:10:18Z</time>
      </trkpt>
      <trkpt lat="46.1632" lon="6.30035">
        <ele>495.6</ele>
        <time>2021-06-26T05:10:19Z</time>
      </trkpt>
      <trkpt lat="46.16324" lon="6.30041">
        <ele>495.8</ele>
        <time>2021-06-26T05:10:20Z</time>
      </trkpt>
      <trkpt lat="46.16327" lon="6.30047">
        <ele>496</ele>
        <time>2021-06-26T05:10:21Z</time>
      </trkpt>
      <trkpt lat="46.1633" lon="6.30054">
        <ele>496.2</ele>
        <time>2021-06-26T05:10:22Z</time>
      </trkpt>
      <trkpt lat="46.16333" lon="6.3006">
        <ele>496.4</ele>
        <time>2021-06-26T05:10:23Z</time>
      </trkpt>
      <trkpt lat="46.16336" lon="6.30066">
        <ele>496.4</ele>
        <time>2021-06-26T05:10:24Z</time>
      </trkpt>
      <trkpt lat="46.16339" lon="6.30072">
        <ele>496.4</ele>
        <time>2021-06-26T05:10:25Z</time>
      </trkpt>
      <trkpt lat="46.16343" lon="6.30079">
        <ele>496.6</ele>
        <time>2021-06-26T05:10:26Z</time>
      </trkpt>
      <trkpt lat="46.16346" lon="6.30085">
        <ele>496.8</ele>
        <time>2021-06-26T05:10:27Z</time>
      </trkpt>
      <trkpt lat="46.1635" lon="6.30091">
        <ele>496.8</ele>
        <time>2021-06-26T05:10:28Z</time>
      </trkpt>
      <trkpt lat="46.16354" lon="6.30097">
        <ele>496.8</ele>
        <time>2021-06-26T05:10:29Z</time>
      </trkpt>
      <trkpt lat="46.16357" lon="6.30102">
        <ele>497.2</ele>
        <time>2021-06-26T05:10:30Z</time>
      </trkpt>
      <trkpt lat="46.16361" lon="6.30108">
        <ele>497.2</ele>
        <time>2021-06-26T05:10:31Z</time>
      </trkpt>
      <trkpt lat="46.16365" lon="6.30114">
        <ele>497.2</ele>
        <time>2021-06-26T05:10:32Z</time>
      </trkpt>
      <trkpt lat="46.16368" lon="6.30119">
        <ele>497.4</ele>
        <time>2021-06-26T05:10:33Z</time>
      </trkpt>
      <trkpt lat="46.16372" lon="6.30125">
        <ele>497.4</ele>
        <time>2021-06-26T05:10:34Z</time>
      </trkpt>
      <trkpt lat="46.16375" lon="6.30131">
        <ele>497.6</ele>
        <time>2021-06-26T05:10:35Z</time>
      </trkpt>
      <trkpt lat="46.16378" lon="6.30137">
        <ele>497.8</ele>
        <time>2021-06-26T05:10:36Z</time>
      </trkpt>
      <trkpt lat="46.16382" lon="6.30143">
        <ele>497.8</ele>
        <time>2021-06-26T05:10:37Z</time>
      </trkpt>
      <trkpt lat="46.16385" lon="6.30148">
        <ele>497.8</ele>
        <time>2021-06-26T05:10:38Z</time>
      </trkpt>
      <trkpt lat="46.16389" lon="6.30154">
        <ele>498.2</ele>
        <time>2021-06-26T05:10:39Z</time>
      </trkpt>
      <trkpt lat="46.16393" lon="6.3016">
        <ele>498.2</ele>
        <time>2021-06-26T05:10:40Z</time>
      </trkpt>
      <trkpt lat="46.16396" lon="6.30166">
        <ele>498.4</ele>
        <time>2021-06-26T05:10:41Z</time>
      </trkpt>
      <trkpt lat="46.164" lon="6.30172">
        <ele>498.6</ele>
        <time>2021-06-26T05:10:42Z</time>
      </trkpt>
      <trkpt lat="46.16404" lon="6.30178">
        <ele>498.8</ele>
        <time>2021-06-26T05:10:43Z</time>
      </trkpt>
      <trkpt lat="46.16408" lon="6.30184">
        <ele>498.8</ele>
        <time>2021-06-26T05:10:44Z</time>
      </trkpt>
      <trkpt lat="46.16411" lon="6.3019">
        <ele>499</ele>
        <time>2021-06-26T05:10:45Z</time>
      </trkpt>
      <trkpt lat="46.16415" lon="6.30196">
        <ele>499.2</ele>
        <time>2021-06-26T05:10:46Z</time>
      </trkpt>
      <trkpt lat="46.16419" lon="6.30203">
        <ele>499.4</ele>
        <time>2021-06-26T05:10:47Z</time>
      </trkpt>
      <trkpt lat="46.16423" lon="6.30209">
        <ele>499.6</ele>
        <time>2021-06-26T05:10:48Z</time>
      </trkpt>
      <trkpt lat="46.16427" lon="6.30215">
        <ele>499.6</ele>
        <time>2021-06-26T05:10:49Z</time>
      </trkpt>
      <trkpt lat="46.16431" lon="6.30221">
        <ele>499.8</ele>
        <time>2021-06-26T05:10:50Z</time>
      </trkpt>
      <trkpt lat="46.16435" lon="6.30227">
        <ele>499.8</ele>
        <time>2021-06-26T05:10:51Z</time>
      </trkpt>
      <trkpt lat="46.16439" lon="6.30233">
        <ele>500</ele>
        <time>2021-06-26T05:10:52Z</time>
      </trkpt>
      <trkpt lat="46.16443" lon="6.30239">
        <ele>500</ele>
        <time>2021-06-26T05:10:53Z</time>
      </trkpt>
      <trkpt lat="46.16447" lon="6.30244">
        <ele>500.2</ele>
        <time>2021-06-26T05:10:54Z</time>
      </trkpt>
      <trkpt lat="46.1645" lon="6.3025">
        <ele>500.2</ele>
        <time>2021-06-26T05:10:55Z</time>
      </trkpt>
      <trkpt lat="46.16454" lon="6.30257">
        <ele>500.2</ele>
        <time>2021-06-26T05:10:56Z</time>
      </trkpt>
      <trkpt lat="46.16457" lon="6.30263">
        <ele>500.4</ele>
        <time>2021-06-26T05:10:57Z</time>
      </trkpt>
      <trkpt lat="46.1646" lon="6.30269">
        <ele>500.2</ele>
        <time>2021-06-26T05:10:58Z</time>
      </trkpt>
      <trkpt lat="46.16464" lon="6.30275">
        <ele>500.2</ele>
        <time>2021-06-26T05:10:59Z</time>
      </trkpt>
      <trkpt lat="46.16467" lon="6.30281">
        <ele>500.2</ele>
        <time>2021-06-26T05:11:00Z</time>
      </trkpt>
      <trkpt lat="46.1647" lon="6.30287">
        <ele>500.4</ele>
        <time>2021-06-26T05:11:01Z</time>
      </trkpt>
      <trkpt lat="46.16474" lon="6.30293">
        <ele>500.2</ele>
        <time>2021-06-26T05:11:02Z</time>
      </trkpt>
      <trkpt lat="46.16477" lon="6.30298">
        <ele>500.8</ele>
        <time>2021-06-26T05:11:03Z</time>
      </trkpt>
      <trkpt lat="46.1648" lon="6.30304">
        <ele>501</ele>
        <time>2021-06-26T05:11:04Z</time>
      </trkpt>
      <trkpt lat="46.16483" lon="6.3031">
        <ele>501.2</ele>
        <time>2021-06-26T05:11:05Z</time>
      </trkpt>
      <trkpt lat="46.16486" lon="6.30317">
        <ele>501.2</ele>
        <time>2021-06-26T05:11:06Z</time>
      </trkpt>
      <trkpt lat="46.16489" lon="6.30322">
        <ele>501.4</ele>
        <time>2021-06-26T05:11:07Z</time>
      </trkpt>
      <trkpt lat="46.16493" lon="6.30328">
        <ele>501.6</ele>
        <time>2021-06-26T05:11:08Z</time>
      </trkpt>
      <trkpt lat="46.16496" lon="6.30334">
        <ele>501.6</ele>
        <time>2021-06-26T05:11:09Z</time>
      </trkpt>
      <trkpt lat="46.16499" lon="6.30339">
        <ele>501.8</ele>
        <time>2021-06-26T05:11:10Z</time>
      </trkpt>
      <trkpt lat="46.16503" lon="6.30345">
        <ele>502</ele>
        <time>2021-06-26T05:11:11Z</time>
      </trkpt>
      <trkpt lat="46.16506" lon="6.3035">
        <ele>502.2</ele>
        <time>2021-06-26T05:11:12Z</time>
      </trkpt>
      <trkpt lat="46.16509" lon="6.30356">
        <ele>502.4</ele>
        <time>2021-06-26T05:11:13Z</time>
      </trkpt>
      <trkpt lat="46.16512" lon="6.30362">
        <ele>502.8</ele>
        <time>2021-06-26T05:11:14Z</time>
      </trkpt>
      <trkpt lat="46.16515" lon="6.30367">
        <ele>503</ele>
        <time>2021-06-26T05:11:15Z</time>
      </trkpt>
      <trkpt lat="46.16518" lon="6.30373">
        <ele>503</ele>
        <time>2021-06-26T05:11:16Z</time>
      </trkpt>
      <trkpt lat="46.16521" lon="6.30378">
        <ele>503.4</ele>
        <time>2021-06-26T05:11:17Z</time>
      </trkpt>
      <trkpt lat="46.16524" lon="6.30384">
        <ele>503.4</ele>
        <time>2021-06-26T05:11:18Z</time>
      </trkpt>
      <trkpt lat="46.16528" lon="6.30389">
        <ele>503.4</ele>
        <time>2021-06-26T05:11:19Z</time>
      </trkpt>
      <trkpt lat="46.16531" lon="6.30394">
        <ele>503.6</ele>
        <time>2021-06-26T05:11:20Z</time>
      </trkpt>
      <trkpt lat="46.16534" lon="6.304">
        <ele>503.6</ele>
        <time>2021-06-26T05:11:21Z</time>
      </trkpt>
      <trkpt lat="46.16537" lon="6.30405">
        <ele>504</ele>
        <time>2021-06-26T05:11:22Z</time>
      </trkpt>
      <trkpt lat="46.1654" lon="6.3041">
        <ele>504</ele>
        <time>2021-06-26T05:11:23Z</time>
      </trkpt>
      <trkpt lat="46.16543" lon="6.30415">
        <ele>504.4</ele>
        <time>2021-06-26T05:11:24Z</time>
      </trkpt>
      <trkpt lat="46.16546" lon="6.30419">
        <ele>504.6</ele>
        <time>2021-06-26T05:11:25Z</time>
      </trkpt>
      <trkpt lat="46.16549" lon="6.30423">
        <ele>504.8</ele>
        <time>2021-06-26T05:11:26Z</time>
      </trkpt>
      <trkpt lat="46.16552" lon="6.30428">
        <ele>505</ele>
        <time>2021-06-26T05:11:27Z</time>
      </trkpt>
      <trkpt lat="46.16554" lon="6.30433">
        <ele>505</ele>
        <time>2021-06-26T05:11:28Z</time>
      </trkpt>
      <trkpt lat="46.16557" lon="6.30438">
        <ele>505</ele>
        <time>2021-06-26T05:11:29Z</time>
      </trkpt>
      <trkpt lat="46.1656" lon="6.30442">
        <ele>505.4</ele>
        <time>2021-06-26T05:11:30Z</time>
      </trkpt>
      <trkpt lat="46.16562" lon="6.30447">
        <ele>505.4</ele>
        <time>2021-06-26T05:11:31Z</time>
      </trkpt>
      <trkpt lat="46.16565" lon="6.30451">
        <ele>505.6</ele>
        <time>2021-06-26T05:11:32Z</time>
      </trkpt>
      <trkpt lat="46.16567" lon="6.30456">
        <ele>506</ele>
        <time>2021-06-26T05:11:33Z</time>
      </trkpt>
      <trkpt lat="46.1657" lon="6.3046">
        <ele>506.4</ele>
        <time>2021-06-26T05:11:34Z</time>
      </trkpt>
      <trkpt lat="46.16572" lon="6.30465">
        <ele>506.6</ele>
        <time>2021-06-26T05:11:35Z</time>
      </trkpt>
      <trkpt lat="46.16574" lon="6.3047">
        <ele>506.8</ele>
        <time>2021-06-26T05:11:36Z</time>
      </trkpt>
      <trkpt lat="46.16576" lon="6.30475">
        <ele>507.2</ele>
        <time>2021-06-26T05:11:37Z</time>
      </trkpt>
      <trkpt lat="46.16578" lon="6.30479">
        <ele>507.4</ele>
        <time>2021-06-26T05:11:38Z</time>
      </trkpt>
      <trkpt lat="46.16581" lon="6.30483">
        <ele>507.6</ele>
        <time>2021-06-26T05:11:39Z</time>
      </trkpt>
      <trkpt lat="46.16584" lon="6.30486">
        <ele>508</ele>
        <time>2021-06-26T05:11:40Z</time>
      </trkpt>
      <trkpt lat="46.16587" lon="6.3049">
        <ele>508.2</ele>
        <time>2021-06-26T05:11:41Z</time>
      </trkpt>
      <trkpt lat="46.16589" lon="6.30493">
        <ele>508.2</ele>
        <time>2021-06-26T05:11:42Z</time>
      </trkpt>
      <trkpt lat="46.16592" lon="6.30496">
        <ele>508.6</ele>
        <time>2021-06-26T05:11:43Z</time>
      </trkpt>
      <trkpt lat="46.16594" lon="6.30499">
        <ele>508.8</ele>
        <time>2021-06-26T05:11:44Z</time>
      </trkpt>
      <trkpt lat="46.16597" lon="6.30502">
        <ele>509.2</ele>
        <time>2021-06-26T05:11:45Z</time>
      </trkpt>
      <trkpt lat="46.166" lon="6.30505">
        <ele>509.6</ele>
        <time>2021-06-26T05:11:46Z</time>
      </trkpt>
      <trkpt lat="46.16603" lon="6.30507">
        <ele>509.8</ele>
        <time>2021-06-26T05:11:47Z</time>
      </trkpt>
      <trkpt lat="46.16606" lon="6.3051">
        <ele>510</ele>
        <time>2021-06-26T05:11:48Z</time>
      </trkpt>
      <trkpt lat="46.1661" lon="6.30513">
        <ele>510.6</ele>
        <time>2021-06-26T05:11:49Z</time>
      </trkpt>
      <trkpt lat="46.16612" lon="6.30516">
        <ele>511</ele>
        <time>2021-06-26T05:11:50Z</time>
      </trkpt>
      <trkpt lat="46.16614" lon="6.3052">
        <ele>511.4</ele>
        <time>2021-06-26T05:11:51Z</time>
      </trkpt>
      <trkpt lat="46.16617" lon="6.30523">
        <ele>512</ele>
        <time>2021-06-26T05:11:52Z</time>
      </trkpt>
      <trkpt lat="46.1662" lon="6.30527">
        <ele>512.2</ele>
        <time>2021-06-26T05:11:53Z</time>
      </trkpt>
      <trkpt lat="46.16622" lon="6.30531">
        <ele>512.6</ele>
        <time>2021-06-26T05:11:54Z</time>
      </trkpt>
      <trkpt lat="46.16624" lon="6.30534">
        <ele>512.8</ele>
        <time>2021-06-26T05:11:55Z</time>
      </trkpt>
      <trkpt lat="46.16626" lon="6.30538">
        <ele>513.2</ele>
        <time>2021-06-26T05:11:56Z</time>
      </trkpt>
      <trkpt lat="46.16628" lon="6.30543">
        <ele>513.4</ele>
        <time>2021-06-26T05:11:57Z</time>
      </trkpt>
      <trkpt lat="46.1663" lon="6.30547">
        <ele>514</ele>
        <time>2021-06-26T05:11:58Z</time>
      </trkpt>
      <trkpt lat="46.16632" lon="6.30552">
        <ele>514.2</ele>
        <time>2021-06-26T05:11:59Z</time>
      </trkpt>
      <trkpt lat="46.16633" lon="6.30555">
        <ele>514.4</ele>
        <time>2021-06-26T05:12:00Z</time>
      </trkpt>
      <trkpt lat="46.16635" lon="6.30559">
        <ele>514.6</ele>
        <time>2021-06-26T05:12:01Z</time>
      </trkpt>
      <trkpt lat="46.16636" lon="6.30563">
        <ele>514.8</ele>
        <time>2021-06-26T05:12:02Z</time>
      </trkpt>
      <trkpt lat="46.16635" lon="6.30567">
        <ele>514.8</ele>
        <time>2021-06-26T05:12:03Z</time>
      </trkpt>
      <trkpt lat="46.16635" lon="6.30571">
        <ele>515.2</ele>
        <time>2021-06-26T05:12:04Z</time>
      </trkpt>
      <trkpt lat="46.16633" lon="6.30575">
        <ele>515.6</ele>
        <time>2021-06-26T05:12:05Z</time>
      </trkpt>
      <trkpt lat="46.16632" lon="6.30579">
        <ele>515.8</ele>
        <time>2021-06-26T05:12:06Z</time>
      </trkpt>
      <trkpt lat="46.1663" lon="6.30583">
        <ele>516</ele>
        <time>2021-06-26T05:12:07Z</time>
      </trkpt>
      <trkpt lat="46.16629" lon="6.30588">
        <ele>516.2</ele>
        <time>2021-06-26T05:12:08Z</time>
      </trkpt>
      <trkpt lat="46.16627" lon="6.30593">
        <ele>516.4</ele>
        <time>2021-06-26T05:12:09Z</time>
      </trkpt>
      <trkpt lat="46.16626" lon="6.30597">
        <ele>516.6</ele>
        <time>2021-06-26T05:12:10Z</time>
      </trkpt>
      <trkpt lat="46.16625" lon="6.30601">
        <ele>516.8</ele>
        <time>2021-06-26T05:12:11Z</time>
      </trkpt>
      <trkpt lat="46.16624" lon="6.30605">
        <ele>517.2</ele>
        <time>2021-06-26T05:12:12Z</time>
      </trkpt>
      <trkpt lat="46.16623" lon="6.3061">
        <ele>517.6</ele>
        <time>2021-06-26T05:12:13Z</time>
      </trkpt>
      <trkpt lat="46.16621" lon="6.30615">
        <ele>517.8</ele>
        <time>2021-06-26T05:12:14Z</time>
      </trkpt>
      <trkpt lat="46.16621" lon="6.30621">
        <ele>517.8</ele>
        <time>2021-06-26T05:12:15Z</time>
      </trkpt>
      <trkpt lat="46.16619" lon="6.30626">
        <ele>518</ele>
        <time>2021-06-26T05:12:16Z</time>
      </trkpt>
      <trkpt lat="46.16618" lon="6.30631">
        <ele>518</ele>
        <time>2021-06-26T05:12:17Z</time>
      </trkpt>
      <trkpt lat="46.16615" lon="6.30637">
        <ele>518.2</ele>
        <time>2021-06-26T05:12:18Z</time>
      </trkpt>
      <trkpt lat="46.16613" lon="6.30642">
        <ele>518.2</ele>
        <time>2021-06-26T05:12:19Z</time>
      </trkpt>
      <trkpt lat="46.1661" lon="6.30647">
        <ele>518.2</ele>
        <time>2021-06-26T05:12:20Z</time>
      </trkpt>
      <trkpt lat="46.16607" lon="6.30653">
        <ele>518.2</ele>
        <time>2021-06-26T05:12:21Z</time>
      </trkpt>
      <trkpt lat="46.16604" lon="6.30658">
        <ele>518.2</ele>
        <time>2021-06-26T05:12:22Z</time>
      </trkpt>
      <trkpt lat="46.16601" lon="6.30663">
        <ele>518.2</ele>
        <time>2021-06-26T05:12:23Z</time>
      </trkpt>
      <trkpt lat="46.16598" lon="6.30669">
        <ele>518.4</ele>
        <time>2021-06-26T05:12:24Z</time>
      </trkpt>
      <trkpt lat="46.16594" lon="6.30675">
        <ele>518.4</ele>
        <time>2021-06-26T05:12:25Z</time>
      </trkpt>
      <trkpt lat="46.16591" lon="6.30682">
        <ele>518.4</ele>
        <time>2021-06-26T05:12:26Z</time>
      </trkpt>
      <trkpt lat="46.16587" lon="6.30689">
        <ele>518.4</ele>
        <time>2021-06-26T05:12:27Z</time>
      </trkpt>
      <trkpt lat="46.16583" lon="6.30695">
        <ele>518.6</ele>
        <time>2021-06-26T05:12:28Z</time>
      </trkpt>
      <trkpt lat="46.16579" lon="6.30701">
        <ele>518.6</ele>
        <time>2021-06-26T05:12:29Z</time>
      </trkpt>
      <trkpt lat="46.16575" lon="6.30707">
        <ele>518.6</ele>
        <time>2021-06-26T05:12:30Z</time>
      </trkpt>
      <trkpt lat="46.16559" lon="6.3073">
        <ele>519</ele>
        <time>2021-06-26T05:12:34Z</time>
      </trkpt>
      <trkpt lat="46.16529" lon="6.30758">
        <ele>519</ele>
        <time>2021-06-26T05:12:40Z</time>
      </trkpt>
      <trkpt lat="46.16524" lon="6.30762">
        <ele>519.2</ele>
        <time>2021-06-26T05:12:41Z</time>
      </trkpt>
      <trkpt lat="46.16473" lon="6.30805">
        <ele>519.2</ele>
        <time>2021-06-26T05:12:51Z</time>
      </trkpt>
      <trkpt lat="46.16468" lon="6.3081">
        <ele>519</ele>
        <time>2021-06-26T05:12:52Z</time>
      </trkpt>
      <trkpt lat="46.16463" lon="6.30814">
        <ele>519.2</ele>
        <time>2021-06-26T05:12:53Z</time>
      </trkpt>
      <trkpt lat="46.16458" lon="6.30818">
        <ele>519.2</ele>
        <time>2021-06-26T05:12:54Z</time>
      </trkpt>
      <trkpt lat="46.16453" lon="6.30822">
        <ele>519.2</ele>
        <time>2021-06-26T05:12:55Z</time>
      </trkpt>
      <trkpt lat="46.16449" lon="6.30826">
        <ele>519.4</ele>
        <time>2021-06-26T05:12:56Z</time>
      </trkpt>
      <trkpt lat="46.16444" lon="6.3083">
        <ele>519.2</ele>
        <time>2021-06-26T05:12:57Z</time>
      </trkpt>
      <trkpt lat="46.16435" lon="6.30839">
        <ele>519.4</ele>
        <time>2021-06-26T05:12:59Z</time>
      </trkpt>
      <trkpt lat="46.1641" lon="6.3087">
        <ele>520.2</ele>
        <time>2021-06-26T05:13:05Z</time>
      </trkpt>
      <trkpt lat="46.16374" lon="6.30919">
        <ele>521</ele>
        <time>2021-06-26T05:13:13Z</time>
      </trkpt>
      <trkpt lat="46.16364" lon="6.30932">
        <ele>521</ele>
        <time>2021-06-26T05:13:15Z</time>
      </trkpt>
      <trkpt lat="46.16345" lon="6.30958">
        <ele>521.2</ele>
        <time>2021-06-26T05:13:19Z</time>
      </trkpt>
      <trkpt lat="46.16341" lon="6.30965">
        <ele>521</ele>
        <time>2021-06-26T05:13:20Z</time>
      </trkpt>
      <trkpt lat="46.16329" lon="6.30987">
        <ele>521</ele>
        <time>2021-06-26T05:13:23Z</time>
      </trkpt>
      <trkpt lat="46.16325" lon="6.30994">
        <ele>520.8</ele>
        <time>2021-06-26T05:13:24Z</time>
      </trkpt>
      <trkpt lat="46.16313" lon="6.31016">
        <ele>520.4</ele>
        <time>2021-06-26T05:13:27Z</time>
      </trkpt>
      <trkpt lat="46.16284" lon="6.31071">
        <ele>520</ele>
        <time>2021-06-26T05:13:34Z</time>
      </trkpt>
      <trkpt lat="46.16278" lon="6.31077">
        <ele>519.8</ele>
        <time>2021-06-26T05:13:35Z</time>
      </trkpt>
      <trkpt lat="46.16273" lon="6.31083">
        <ele>519.8</ele>
        <time>2021-06-26T05:13:36Z</time>
      </trkpt>
      <trkpt lat="46.16255" lon="6.31098">
        <ele>520</ele>
        <time>2021-06-26T05:13:39Z</time>
      </trkpt>
      <trkpt lat="46.16244" lon="6.31108">
        <ele>520</ele>
        <time>2021-06-26T05:13:41Z</time>
      </trkpt>
      <trkpt lat="46.16239" lon="6.31113">
        <ele>519.8</ele>
        <time>2021-06-26T05:13:42Z</time>
      </trkpt>
      <trkpt lat="46.16234" lon="6.31118">
        <ele>520</ele>
        <time>2021-06-26T05:13:43Z</time>
      </trkpt>
      <trkpt lat="46.16229" lon="6.31123">
        <ele>520</ele>
        <time>2021-06-26T05:13:44Z</time>
      </trkpt>
      <trkpt lat="46.16219" lon="6.31135">
        <ele>520</ele>
        <time>2021-06-26T05:13:46Z</time>
      </trkpt>
      <trkpt lat="46.1621" lon="6.31147">
        <ele>520</ele>
        <time>2021-06-26T05:13:48Z</time>
      </trkpt>
      <trkpt lat="46.16201" lon="6.31161">
        <ele>520.2</ele>
        <time>2021-06-26T05:13:50Z</time>
      </trkpt>
      <trkpt lat="46.16193" lon="6.31174">
        <ele>520.6</ele>
        <time>2021-06-26T05:13:52Z</time>
      </trkpt>
      <trkpt lat="46.1619" lon="6.31181">
        <ele>520.6</ele>
        <time>2021-06-26T05:13:53Z</time>
      </trkpt>
      <trkpt lat="46.16186" lon="6.31188">
        <ele>520.8</ele>
        <time>2021-06-26T05:13:54Z</time>
      </trkpt>
      <trkpt lat="46.16182" lon="6.31195">
        <ele>520.8</ele>
        <time>2021-06-26T05:13:55Z</time>
      </trkpt>
      <trkpt lat="46.16179" lon="6.31202">
        <ele>521</ele>
        <time>2021-06-26T05:13:56Z</time>
      </trkpt>
      <trkpt lat="46.16176" lon="6.31209">
        <ele>521</ele>
        <time>2021-06-26T05:13:57Z</time>
      </trkpt>
      <trkpt lat="46.16174" lon="6.31217">
        <ele>521.2</ele>
        <time>2021-06-26T05:13:58Z</time>
      </trkpt>
      <trkpt lat="46.16171" lon="6.31224">
        <ele>521.2</ele>
        <time>2021-06-26T05:13:59Z</time>
      </trkpt>
      <trkpt lat="46.16169" lon="6.31231">
        <ele>521.2</ele>
        <time>2021-06-26T05:14:00Z</time>
      </trkpt>
      <trkpt lat="46.16167" lon="6.31239">
        <ele>521.4</ele>
        <time>2021-06-26T05:14:01Z</time>
      </trkpt>
      <trkpt lat="46.16164" lon="6.31245">
        <ele>521.4</ele>
        <time>2021-06-26T05:14:02Z</time>
      </trkpt>
      <trkpt lat="46.16162" lon="6.31252">
        <ele>521.4</ele>
        <time>2021-06-26T05:14:03Z</time>
      </trkpt>
      <trkpt lat="46.1616" lon="6.31259">
        <ele>522</ele>
        <time>2021-06-26T05:14:04Z</time>
      </trkpt>
      <trkpt lat="46.16157" lon="6.31266">
        <ele>522.2</ele>
        <time>2021-06-26T05:14:05Z</time>
      </trkpt>
      <trkpt lat="46.16155" lon="6.31273">
        <ele>522.4</ele>
        <time>2021-06-26T05:14:06Z</time>
      </trkpt>
      <trkpt lat="46.16153" lon="6.31279">
        <ele>522.6</ele>
        <time>2021-06-26T05:14:07Z</time>
      </trkpt>
      <trkpt lat="46.16151" lon="6.31286">
        <ele>522.8</ele>
        <time>2021-06-26T05:14:08Z</time>
      </trkpt>
      <trkpt lat="46.16148" lon="6.31292">
        <ele>523</ele>
        <time>2021-06-26T05:14:09Z</time>
      </trkpt>
      <trkpt lat="46.16146" lon="6.31299">
        <ele>523.2</ele>
        <time>2021-06-26T05:14:10Z</time>
      </trkpt>
      <trkpt lat="46.16145" lon="6.31305">
        <ele>523.2</ele>
        <time>2021-06-26T05:14:11Z</time>
      </trkpt>
      <trkpt lat="46.16144" lon="6.3131">
        <ele>523.6</ele>
        <time>2021-06-26T05:14:12Z</time>
      </trkpt>
      <trkpt lat="46.16144" lon="6.31315">
        <ele>523.6</ele>
        <time>2021-06-26T05:14:13Z</time>
      </trkpt>
      <trkpt lat="46.16144" lon="6.31319">
        <ele>523.8</ele>
        <time>2021-06-26T05:14:14Z</time>
      </trkpt>
      <trkpt lat="46.16144" lon="6.31323">
        <ele>524</ele>
        <time>2021-06-26T05:14:15Z</time>
      </trkpt>
      <trkpt lat="46.16145" lon="6.31327">
        <ele>524.2</ele>
        <time>2021-06-26T05:14:16Z</time>
      </trkpt>
      <trkpt lat="46.16146" lon="6.31332">
        <ele>524.2</ele>
        <time>2021-06-26T05:14:17Z</time>
      </trkpt>
      <trkpt lat="46.16147" lon="6.31337">
        <ele>524.4</ele>
        <time>2021-06-26T05:14:18Z</time>
      </trkpt>
      <trkpt lat="46.16148" lon="6.31344">
        <ele>524.4</ele>
        <time>2021-06-26T05:14:19Z</time>
      </trkpt>
      <trkpt lat="46.1615" lon="6.31351">
        <ele>524.4</ele>
        <time>2021-06-26T05:14:20Z</time>
      </trkpt>
      <trkpt lat="46.16152" lon="6.31359">
        <ele>524.4</ele>
        <time>2021-06-26T05:14:21Z</time>
      </trkpt>
      <trkpt lat="46.16158" lon="6.31383">
        <ele>524.4</ele>
        <time>2021-06-26T05:14:24Z</time>
      </trkpt>
      <trkpt lat="46.1616" lon="6.31391">
        <ele>524.2</ele>
        <time>2021-06-26T05:14:25Z</time>
      </trkpt>
      <trkpt lat="46.16167" lon="6.31416">
        <ele>523.8</ele>
        <time>2021-06-26T05:14:28Z</time>
      </trkpt>
      <trkpt lat="46.16169" lon="6.31423">
        <ele>523.2</ele>
        <time>2021-06-26T05:14:29Z</time>
      </trkpt>
      <trkpt lat="46.1617" lon="6.31431">
        <ele>523</ele>
        <time>2021-06-26T05:14:30Z</time>
      </trkpt>
      <trkpt lat="46.16172" lon="6.31439">
        <ele>522.6</ele>
        <time>2021-06-26T05:14:31Z</time>
      </trkpt>
      <trkpt lat="46.16173" lon="6.31446">
        <ele>522.6</ele>
        <time>2021-06-26T05:14:32Z</time>
      </trkpt>
      <trkpt lat="46.16176" lon="6.31461">
        <ele>522.2</ele>
        <time>2021-06-26T05:14:34Z</time>
      </trkpt>
      <trkpt lat="46.16178" lon="6.31469">
        <ele>522.2</ele>
        <time>2021-06-26T05:14:35Z</time>
      </trkpt>
      <trkpt lat="46.16179" lon="6.31476">
        <ele>522.2</ele>
        <time>2021-06-26T05:14:36Z</time>
      </trkpt>
      <trkpt lat="46.16179" lon="6.31484">
        <ele>522</ele>
        <time>2021-06-26T05:14:37Z</time>
      </trkpt>
      <trkpt lat="46.16178" lon="6.31491">
        <ele>522.2</ele>
        <time>2021-06-26T05:14:38Z</time>
      </trkpt>
      <trkpt lat="46.16176" lon="6.31498">
        <ele>522</ele>
        <time>2021-06-26T05:14:39Z</time>
      </trkpt>
      <trkpt lat="46.16175" lon="6.31504">
        <ele>522.2</ele>
        <time>2021-06-26T05:14:40Z</time>
      </trkpt>
      <trkpt lat="46.16173" lon="6.31509">
        <ele>522</ele>
        <time>2021-06-26T05:14:41Z</time>
      </trkpt>
      <trkpt lat="46.16171" lon="6.31513">
        <ele>522</ele>
        <time>2021-06-26T05:14:42Z</time>
      </trkpt>
      <trkpt lat="46.16168" lon="6.31516">
        <ele>522.2</ele>
        <time>2021-06-26T05:14:43Z</time>
      </trkpt>
      <trkpt lat="46.16166" lon="6.3152">
        <ele>522.2</ele>
        <time>2021-06-26T05:14:44Z</time>
      </trkpt>
      <trkpt lat="46.16163" lon="6.31525">
        <ele>522.2</ele>
        <time>2021-06-26T05:14:45Z</time>
      </trkpt>
      <trkpt lat="46.1616" lon="6.3153">
        <ele>522.4</ele>
        <time>2021-06-26T05:14:46Z</time>
      </trkpt>
      <trkpt lat="46.1615" lon="6.31552">
        <ele>522.6</ele>
        <time>2021-06-26T05:14:50Z</time>
      </trkpt>
      <trkpt lat="46.16147" lon="6.31558">
        <ele>522.6</ele>
        <time>2021-06-26T05:14:51Z</time>
      </trkpt>
      <trkpt lat="46.16145" lon="6.31573">
        <ele>522.6</ele>
        <time>2021-06-26T05:14:53Z</time>
      </trkpt>
      <trkpt lat="46.16145" lon="6.31582">
        <ele>522.6</ele>
        <time>2021-06-26T05:14:54Z</time>
      </trkpt>
      <trkpt lat="46.16145" lon="6.31591">
        <ele>522.6</ele>
        <time>2021-06-26T05:14:55Z</time>
      </trkpt>
      <trkpt lat="46.16144" lon="6.316">
        <ele>522.6</ele>
        <time>2021-06-26T05:14:56Z</time>
      </trkpt>
      <trkpt lat="46.16142" lon="6.31618">
        <ele>522.6</ele>
        <time>2021-06-26T05:14:58Z</time>
      </trkpt>
      <trkpt lat="46.1614" lon="6.31636">
        <ele>522.2</ele>
        <time>2021-06-26T05:15:00Z</time>
      </trkpt>
      <trkpt lat="46.16139" lon="6.31644">
        <ele>522</ele>
        <time>2021-06-26T05:15:01Z</time>
      </trkpt>
      <trkpt lat="46.16136" lon="6.31651">
        <ele>521.6</ele>
        <time>2021-06-26T05:15:02Z</time>
      </trkpt>
      <trkpt lat="46.16132" lon="6.31655">
        <ele>521.2</ele>
        <time>2021-06-26T05:15:03Z</time>
      </trkpt>
      <trkpt lat="46.16128" lon="6.31657">
        <ele>521.2</ele>
        <time>2021-06-26T05:15:04Z</time>
      </trkpt>
      <trkpt lat="46.16123" lon="6.31658">
        <ele>521</ele>
        <time>2021-06-26T05:15:05Z</time>
      </trkpt>
      <trkpt lat="46.16119" lon="6.31659">
        <ele>521.2</ele>
        <time>2021-06-26T05:15:06Z</time>
      </trkpt>
      <trkpt lat="46.16115" lon="6.3166">
        <ele>521.2</ele>
        <time>2021-06-26T05:15:07Z</time>
      </trkpt>
      <trkpt lat="46.16111" lon="6.31661">
        <ele>521</ele>
        <time>2021-06-26T05:15:08Z</time>
      </trkpt>
      <trkpt lat="46.16097" lon="6.31665">
        <ele>521.2</ele>
        <time>2021-06-26T05:15:11Z</time>
      </trkpt>
      <trkpt lat="46.16093" lon="6.31668">
        <ele>521.2</ele>
        <time>2021-06-26T05:15:12Z</time>
      </trkpt>
      <trkpt lat="46.16067" lon="6.31695">
        <ele>522.4</ele>
        <time>2021-06-26T05:15:18Z</time>
      </trkpt>
      <trkpt lat="46.16063" lon="6.317">
        <ele>522.6</ele>
        <time>2021-06-26T05:15:19Z</time>
      </trkpt>
      <trkpt lat="46.16059" lon="6.31705">
        <ele>522.6</ele>
        <time>2021-06-26T05:15:20Z</time>
      </trkpt>
      <trkpt lat="46.16053" lon="6.31717">
        <ele>523</ele>
        <time>2021-06-26T05:15:22Z</time>
      </trkpt>
      <trkpt lat="46.16049" lon="6.31722">
        <ele>523</ele>
        <time>2021-06-26T05:15:23Z</time>
      </trkpt>
      <trkpt lat="46.16046" lon="6.31728">
        <ele>523</ele>
        <time>2021-06-26T05:15:24Z</time>
      </trkpt>
      <trkpt lat="46.1604" lon="6.3174">
        <ele>523.2</ele>
        <time>2021-06-26T05:15:26Z</time>
      </trkpt>
      <trkpt lat="46.16037" lon="6.31746">
        <ele>523.2</ele>
        <time>2021-06-26T05:15:27Z</time>
      </trkpt>
      <trkpt lat="46.16034" lon="6.31753">
        <ele>523.2</ele>
        <time>2021-06-26T05:15:28Z</time>
      </trkpt>
      <trkpt lat="46.16031" lon="6.3176">
        <ele>523.4</ele>
        <time>2021-06-26T05:15:29Z</time>
      </trkpt>
      <trkpt lat="46.16028" lon="6.31766">
        <ele>523.6</ele>
        <time>2021-06-26T05:15:30Z</time>
      </trkpt>
      <trkpt lat="46.16025" lon="6.31773">
        <ele>523.8</ele>
        <time>2021-06-26T05:15:31Z</time>
      </trkpt>
      <trkpt lat="46.16022" lon="6.31781">
        <ele>523.8</ele>
        <time>2021-06-26T05:15:32Z</time>
      </trkpt>
      <trkpt lat="46.16019" lon="6.31788">
        <ele>523.8</ele>
        <time>2021-06-26T05:15:33Z</time>
      </trkpt>
      <trkpt lat="46.16016" lon="6.31795">
        <ele>524</ele>
        <time>2021-06-26T05:15:34Z</time>
      </trkpt>
      <trkpt lat="46.16013" lon="6.31802">
        <ele>524</ele>
        <time>2021-06-26T05:15:35Z</time>
      </trkpt>
      <trkpt lat="46.1601" lon="6.3181">
        <ele>524.4</ele>
        <time>2021-06-26T05:15:36Z</time>
      </trkpt>
      <trkpt lat="46.16007" lon="6.31817">
        <ele>524.6</ele>
        <time>2021-06-26T05:15:37Z</time>
      </trkpt>
      <trkpt lat="46.16005" lon="6.31824">
        <ele>524.6</ele>
        <time>2021-06-26T05:15:38Z</time>
      </trkpt>
      <trkpt lat="46.16002" lon="6.31832">
        <ele>524.8</ele>
        <time>2021-06-26T05:15:39Z</time>
      </trkpt>
      <trkpt lat="46.16" lon="6.3184">
        <ele>524.8</ele>
        <time>2021-06-26T05:15:40Z</time>
      </trkpt>
      <trkpt lat="46.15997" lon="6.31847">
        <ele>525</ele>
        <time>2021-06-26T05:15:41Z</time>
      </trkpt>
      <trkpt lat="46.15993" lon="6.31855">
        <ele>525.2</ele>
        <time>2021-06-26T05:15:42Z</time>
      </trkpt>
      <trkpt lat="46.1599" lon="6.31862">
        <ele>525.2</ele>
        <time>2021-06-26T05:15:43Z</time>
      </trkpt>
      <trkpt lat="46.15987" lon="6.3187">
        <ele>525.2</ele>
        <time>2021-06-26T05:15:44Z</time>
      </trkpt>
      <trkpt lat="46.15975" lon="6.319">
        <ele>525.4</ele>
        <time>2021-06-26T05:15:48Z</time>
      </trkpt>
      <trkpt lat="46.15972" lon="6.31908">
        <ele>525.6</ele>
        <time>2021-06-26T05:15:49Z</time>
      </trkpt>
      <trkpt lat="46.15963" lon="6.3193">
        <ele>525.6</ele>
        <time>2021-06-26T05:15:52Z</time>
      </trkpt>
      <trkpt lat="46.1596" lon="6.31937">
        <ele>525.6</ele>
        <time>2021-06-26T05:15:53Z</time>
      </trkpt>
      <trkpt lat="46.15956" lon="6.31944">
        <ele>525.8</ele>
        <time>2021-06-26T05:15:54Z</time>
      </trkpt>
      <trkpt lat="46.15952" lon="6.3195">
        <ele>525.8</ele>
        <time>2021-06-26T05:15:55Z</time>
      </trkpt>
      <trkpt lat="46.15947" lon="6.31955">
        <ele>526</ele>
        <time>2021-06-26T05:15:56Z</time>
      </trkpt>
      <trkpt lat="46.15942" lon="6.31959">
        <ele>526</ele>
        <time>2021-06-26T05:15:57Z</time>
      </trkpt>
      <trkpt lat="46.15937" lon="6.31963">
        <ele>526</ele>
        <time>2021-06-26T05:15:58Z</time>
      </trkpt>
      <trkpt lat="46.15931" lon="6.31966">
        <ele>525.8</ele>
        <time>2021-06-26T05:15:59Z</time>
      </trkpt>
      <trkpt lat="46.1592" lon="6.31971">
        <ele>526</ele>
        <time>2021-06-26T05:16:01Z</time>
      </trkpt>
      <trkpt lat="46.15914" lon="6.31973">
        <ele>526.4</ele>
        <time>2021-06-26T05:16:02Z</time>
      </trkpt>
      <trkpt lat="46.1587" lon="6.31996">
        <ele>527</ele>
        <time>2021-06-26T05:16:10Z</time>
      </trkpt>
      <trkpt lat="46.15859" lon="6.32002">
        <ele>527.4</ele>
        <time>2021-06-26T05:16:12Z</time>
      </trkpt>
      <trkpt lat="46.15837" lon="6.32014">
        <ele>527.4</ele>
        <time>2021-06-26T05:16:16Z</time>
      </trkpt>
      <trkpt lat="46.15821" lon="6.32022">
        <ele>527.6</ele>
        <time>2021-06-26T05:16:19Z</time>
      </trkpt>
      <trkpt lat="46.15816" lon="6.32025">
        <ele>527.8</ele>
        <time>2021-06-26T05:16:20Z</time>
      </trkpt>
      <trkpt lat="46.1581" lon="6.32029">
        <ele>527.8</ele>
        <time>2021-06-26T05:16:21Z</time>
      </trkpt>
      <trkpt lat="46.158" lon="6.32035">
        <ele>528.4</ele>
        <time>2021-06-26T05:16:23Z</time>
      </trkpt>
      <trkpt lat="46.15795" lon="6.32038">
        <ele>528.4</ele>
        <time>2021-06-26T05:16:24Z</time>
      </trkpt>
      <trkpt lat="46.1579" lon="6.32041">
        <ele>528.4</ele>
        <time>2021-06-26T05:16:25Z</time>
      </trkpt>
      <trkpt lat="46.1578" lon="6.32047">
        <ele>528.8</ele>
        <time>2021-06-26T05:16:27Z</time>
      </trkpt>
      <trkpt lat="46.15775" lon="6.3205">
        <ele>528.6</ele>
        <time>2021-06-26T05:16:28Z</time>
      </trkpt>
      <trkpt lat="46.15771" lon="6.32054">
        <ele>528.8</ele>
        <time>2021-06-26T05:16:29Z</time>
      </trkpt>
      <trkpt lat="46.15766" lon="6.32057">
        <ele>528.8</ele>
        <time>2021-06-26T05:16:30Z</time>
      </trkpt>
      <trkpt lat="46.15762" lon="6.3206">
        <ele>529</ele>
        <time>2021-06-26T05:16:31Z</time>
      </trkpt>
      <trkpt lat="46.15757" lon="6.32062">
        <ele>529.4</ele>
        <time>2021-06-26T05:16:32Z</time>
      </trkpt>
      <trkpt lat="46.15753" lon="6.32066">
        <ele>529.4</ele>
        <time>2021-06-26T05:16:33Z</time>
      </trkpt>
      <trkpt lat="46.15749" lon="6.32069">
        <ele>529.4</ele>
        <time>2021-06-26T05:16:34Z</time>
      </trkpt>
      <trkpt lat="46.15746" lon="6.32071">
        <ele>529.6</ele>
        <time>2021-06-26T05:16:35Z</time>
      </trkpt>
      <trkpt lat="46.15742" lon="6.32075">
        <ele>529.6</ele>
        <time>2021-06-26T05:16:36Z</time>
      </trkpt>
      <trkpt lat="46.15739" lon="6.32078">
        <ele>529.8</ele>
        <time>2021-06-26T05:16:37Z</time>
      </trkpt>
      <trkpt lat="46.15737" lon="6.32083">
        <ele>530.2</ele>
        <time>2021-06-26T05:16:38Z</time>
      </trkpt>
      <trkpt lat="46.15736" lon="6.32088">
        <ele>530.4</ele>
        <time>2021-06-26T05:16:39Z</time>
      </trkpt>
      <trkpt lat="46.15737" lon="6.32094">
        <ele>530.4</ele>
        <time>2021-06-26T05:16:40Z</time>
      </trkpt>
      <trkpt lat="46.15738" lon="6.321">
        <ele>531</ele>
        <time>2021-06-26T05:16:41Z</time>
      </trkpt>
      <trkpt lat="46.15739" lon="6.32106">
        <ele>531.4</ele>
        <time>2021-06-26T05:16:42Z</time>
      </trkpt>
      <trkpt lat="46.15741" lon="6.32112">
        <ele>531.8</ele>
        <time>2021-06-26T05:16:43Z</time>
      </trkpt>
      <trkpt lat="46.15744" lon="6.32118">
        <ele>532.2</ele>
        <time>2021-06-26T05:16:44Z</time>
      </trkpt>
      <trkpt lat="46.15746" lon="6.32124">
        <ele>532.4</ele>
        <time>2021-06-26T05:16:45Z</time>
      </trkpt>
      <trkpt lat="46.15748" lon="6.3213">
        <ele>532.8</ele>
        <time>2021-06-26T05:16:46Z</time>
      </trkpt>
      <trkpt lat="46.15751" lon="6.32136">
        <ele>533.2</ele>
        <time>2021-06-26T05:16:47Z</time>
      </trkpt>
      <trkpt lat="46.15753" lon="6.32141">
        <ele>533.4</ele>
        <time>2021-06-26T05:16:48Z</time>
      </trkpt>
      <trkpt lat="46.15756" lon="6.32146">
        <ele>533.6</ele>
        <time>2021-06-26T05:16:49Z</time>
      </trkpt>
      <trkpt lat="46.15758" lon="6.32151">
        <ele>533.8</ele>
        <time>2021-06-26T05:16:50Z</time>
      </trkpt>
      <trkpt lat="46.15761" lon="6.32157">
        <ele>534.2</ele>
        <time>2021-06-26T05:16:51Z</time>
      </trkpt>
      <trkpt lat="46.15764" lon="6.32162">
        <ele>534.2</ele>
        <time>2021-06-26T05:16:52Z</time>
      </trkpt>
      <trkpt lat="46.15767" lon="6.32167">
        <ele>534.6</ele>
        <time>2021-06-26T05:16:53Z</time>
      </trkpt>
      <trkpt lat="46.15769" lon="6.32173">
        <ele>534.8</ele>
        <time>2021-06-26T05:16:54Z</time>
      </trkpt>
      <trkpt lat="46.15772" lon="6.32179">
        <ele>535</ele>
        <time>2021-06-26T05:16:55Z</time>
      </trkpt>
      <trkpt lat="46.15774" lon="6.32185">
        <ele>535.4</ele>
        <time>2021-06-26T05:16:56Z</time>
      </trkpt>
      <trkpt lat="46.15776" lon="6.32191">
        <ele>535.6</ele>
        <time>2021-06-26T05:16:57Z</time>
      </trkpt>
      <trkpt lat="46.15778" lon="6.32197">
        <ele>535.8</ele>
        <time>2021-06-26T05:16:58Z</time>
      </trkpt>
      <trkpt lat="46.15778" lon="6.32204">
        <ele>535.8</ele>
        <time>2021-06-26T05:16:59Z</time>
      </trkpt>
      <trkpt lat="46.15779" lon="6.3221">
        <ele>535.8</ele>
        <time>2021-06-26T05:17:00Z</time>
      </trkpt>
      <trkpt lat="46.15778" lon="6.32216">
        <ele>535.8</ele>
        <time>2021-06-26T05:17:01Z</time>
      </trkpt>
      <trkpt lat="46.15778" lon="6.32222">
        <ele>536.2</ele>
        <time>2021-06-26T05:17:02Z</time>
      </trkpt>
      <trkpt lat="46.15777" lon="6.32228">
        <ele>536.4</ele>
        <time>2021-06-26T05:17:03Z</time>
      </trkpt>
      <trkpt lat="46.15775" lon="6.32233">
        <ele>536.4</ele>
        <time>2021-06-26T05:17:04Z</time>
      </trkpt>
      <trkpt lat="46.15774" lon="6.3224">
        <ele>536.6</ele>
        <time>2021-06-26T05:17:05Z</time>
      </trkpt>
      <trkpt lat="46.15773" lon="6.32246">
        <ele>536.8</ele>
        <time>2021-06-26T05:17:06Z</time>
      </trkpt>
      <trkpt lat="46.15772" lon="6.32253">
        <ele>537</ele>
        <time>2021-06-26T05:17:07Z</time>
      </trkpt>
      <trkpt lat="46.15772" lon="6.3226">
        <ele>537</ele>
        <time>2021-06-26T05:17:08Z</time>
      </trkpt>
      <trkpt lat="46.15772" lon="6.32268">
        <ele>537.2</ele>
        <time>2021-06-26T05:17:09Z</time>
      </trkpt>
      <trkpt lat="46.15771" lon="6.32276">
        <ele>537.2</ele>
        <time>2021-06-26T05:17:10Z</time>
      </trkpt>
      <trkpt lat="46.15771" lon="6.32285">
        <ele>537.4</ele>
        <time>2021-06-26T05:17:11Z</time>
      </trkpt>
      <trkpt lat="46.15771" lon="6.32294">
        <ele>537.4</ele>
        <time>2021-06-26T05:17:12Z</time>
      </trkpt>
      <trkpt lat="46.15771" lon="6.32303">
        <ele>537.2</ele>
        <time>2021-06-26T05:17:13Z</time>
      </trkpt>
      <trkpt lat="46.15774" lon="6.32323">
        <ele>537.2</ele>
        <time>2021-06-26T05:17:15Z</time>
      </trkpt>
      <trkpt lat="46.15779" lon="6.32343">
        <ele>537.2</ele>
        <time>2021-06-26T05:17:17Z</time>
      </trkpt>
      <trkpt lat="46.15783" lon="6.32353">
        <ele>537.2</ele>
        <time>2021-06-26T05:17:18Z</time>
      </trkpt>
      <trkpt lat="46.15786" lon="6.32363">
        <ele>537</ele>
        <time>2021-06-26T05:17:19Z</time>
      </trkpt>
      <trkpt lat="46.15796" lon="6.32393">
        <ele>535.6</ele>
        <time>2021-06-26T05:17:22Z</time>
      </trkpt>
      <trkpt lat="46.15796" lon="6.32403">
        <ele>535.6</ele>
        <time>2021-06-26T05:17:23Z</time>
      </trkpt>
      <trkpt lat="46.15793" lon="6.32414">
        <ele>535.4</ele>
        <time>2021-06-26T05:17:24Z</time>
      </trkpt>
      <trkpt lat="46.15788" lon="6.32423">
        <ele>535</ele>
        <time>2021-06-26T05:17:25Z</time>
      </trkpt>
      <trkpt lat="46.15781" lon="6.32432">
        <ele>534.4</ele>
        <time>2021-06-26T05:17:26Z</time>
      </trkpt>
      <trkpt lat="46.15766" lon="6.32447">
        <ele>532.8</ele>
        <time>2021-06-26T05:17:28Z</time>
      </trkpt>
      <trkpt lat="46.15759" lon="6.32456">
        <ele>531.8</ele>
        <time>2021-06-26T05:17:29Z</time>
      </trkpt>
      <trkpt lat="46.15752" lon="6.32466">
        <ele>531.2</ele>
        <time>2021-06-26T05:17:30Z</time>
      </trkpt>
      <trkpt lat="46.15738" lon="6.32489">
        <ele>529.8</ele>
        <time>2021-06-26T05:17:32Z</time>
      </trkpt>
      <trkpt lat="46.15726" lon="6.32512">
        <ele>527.8</ele>
        <time>2021-06-26T05:17:34Z</time>
      </trkpt>
      <trkpt lat="46.15714" lon="6.32537">
        <ele>526.6</ele>
        <time>2021-06-26T05:17:36Z</time>
      </trkpt>
      <trkpt lat="46.1571" lon="6.3255">
        <ele>525.8</ele>
        <time>2021-06-26T05:17:37Z</time>
      </trkpt>
      <trkpt lat="46.15706" lon="6.32564">
        <ele>524.8</ele>
        <time>2021-06-26T05:17:38Z</time>
      </trkpt>
      <trkpt lat="46.15706" lon="6.32578">
        <ele>523.8</ele>
        <time>2021-06-26T05:17:39Z</time>
      </trkpt>
      <trkpt lat="46.15708" lon="6.32592">
        <ele>522.8</ele>
        <time>2021-06-26T05:17:40Z</time>
      </trkpt>
      <trkpt lat="46.15712" lon="6.32606">
        <ele>521.4</ele>
        <time>2021-06-26T05:17:41Z</time>
      </trkpt>
      <trkpt lat="46.15718" lon="6.3262">
        <ele>520.6</ele>
        <time>2021-06-26T05:17:42Z</time>
      </trkpt>
      <trkpt lat="46.15724" lon="6.32635">
        <ele>519.6</ele>
        <time>2021-06-26T05:17:43Z</time>
      </trkpt>
      <trkpt lat="46.1573" lon="6.32649">
        <ele>519.6</ele>
        <time>2021-06-26T05:17:44Z</time>
      </trkpt>
      <trkpt lat="46.15741" lon="6.32675">
        <ele>518</ele>
        <time>2021-06-26T05:17:46Z</time>
      </trkpt>
      <trkpt lat="46.15746" lon="6.32688">
        <ele>517.2</ele>
        <time>2021-06-26T05:17:47Z</time>
      </trkpt>
      <trkpt lat="46.15751" lon="6.327">
        <ele>516.4</ele>
        <time>2021-06-26T05:17:48Z</time>
      </trkpt>
      <trkpt lat="46.15756" lon="6.32712">
        <ele>515.6</ele>
        <time>2021-06-26T05:17:49Z</time>
      </trkpt>
      <trkpt lat="46.1576" lon="6.32722">
        <ele>514.2</ele>
        <time>2021-06-26T05:17:50Z</time>
      </trkpt>
      <trkpt lat="46.15764" lon="6.32732">
        <ele>513</ele>
        <time>2021-06-26T05:17:51Z</time>
      </trkpt>
      <trkpt lat="46.15767" lon="6.32742">
        <ele>512.4</ele>
        <time>2021-06-26T05:17:52Z</time>
      </trkpt>
      <trkpt lat="46.15771" lon="6.3275">
        <ele>512</ele>
        <time>2021-06-26T05:17:53Z</time>
      </trkpt>
      <trkpt lat="46.15774" lon="6.32758">
        <ele>511.8</ele>
        <time>2021-06-26T05:17:54Z</time>
      </trkpt>
      <trkpt lat="46.15776" lon="6.32764">
        <ele>511.8</ele>
        <time>2021-06-26T05:17:55Z</time>
      </trkpt>
      <trkpt lat="46.15778" lon="6.3277">
        <ele>511.8</ele>
        <time>2021-06-26T05:17:56Z</time>
      </trkpt>
      <trkpt lat="46.1578" lon="6.32775">
        <ele>511.8</ele>
        <time>2021-06-26T05:17:57Z</time>
      </trkpt>
      <trkpt lat="46.15782" lon="6.3278">
        <ele>511.8</ele>
        <time>2021-06-26T05:17:58Z</time>
      </trkpt>
      <trkpt lat="46.15784" lon="6.32784">
        <ele>511.8</ele>
        <time>2021-06-26T05:17:59Z</time>
      </trkpt>
      <trkpt lat="46.15786" lon="6.32788">
        <ele>511.8</ele>
        <time>2021-06-26T05:18:00Z</time>
      </trkpt>
      <trkpt lat="46.15788" lon="6.32791">
        <ele>512.2</ele>
        <time>2021-06-26T05:18:01Z</time>
      </trkpt>
      <trkpt lat="46.15789" lon="6.32795">
        <ele>513.2</ele>
        <time>2021-06-26T05:18:02Z</time>
      </trkpt>
      <trkpt lat="46.15791" lon="6.32799">
        <ele>514</ele>
        <time>2021-06-26T05:18:03Z</time>
      </trkpt>
      <trkpt lat="46.15792" lon="6.32803">
        <ele>515</ele>
        <time>2021-06-26T05:18:04Z</time>
      </trkpt>
      <trkpt lat="46.15793" lon="6.32807">
        <ele>515.8</ele>
        <time>2021-06-26T05:18:05Z</time>
      </trkpt>
      <trkpt lat="46.15795" lon="6.32811">
        <ele>515.8</ele>
        <time>2021-06-26T05:18:06Z</time>
      </trkpt>
      <trkpt lat="46.15796" lon="6.32815">
        <ele>516.4</ele>
        <time>2021-06-26T05:18:07Z</time>
      </trkpt>
      <trkpt lat="46.15798" lon="6.32819">
        <ele>517.2</ele>
        <time>2021-06-26T05:18:08Z</time>
      </trkpt>
      <trkpt lat="46.15799" lon="6.32823">
        <ele>517.6</ele>
        <time>2021-06-26T05:18:09Z</time>
      </trkpt>
      <trkpt lat="46.158" lon="6.32827">
        <ele>518</ele>
        <time>2021-06-26T05:18:10Z</time>
      </trkpt>
      <trkpt lat="46.158" lon="6.32831">
        <ele>518.6</ele>
        <time>2021-06-26T05:18:11Z</time>
      </trkpt>
      <trkpt lat="46.15801" lon="6.32835">
        <ele>519</ele>
        <time>2021-06-26T05:18:12Z</time>
      </trkpt>
      <trkpt lat="46.15802" lon="6.32839">
        <ele>519.2</ele>
        <time>2021-06-26T05:18:13Z</time>
      </trkpt>
      <trkpt lat="46.15801" lon="6.32844">
        <ele>519.6</ele>
        <time>2021-06-26T05:18:14Z</time>
      </trkpt>
      <trkpt lat="46.15801" lon="6.32848">
        <ele>520</ele>
        <time>2021-06-26T05:18:15Z</time>
      </trkpt>
      <trkpt lat="46.15801" lon="6.32852">
        <ele>520.2</ele>
        <time>2021-06-26T05:18:16Z</time>
      </trkpt>
      <trkpt lat="46.15801" lon="6.32857">
        <ele>520.6</ele>
        <time>2021-06-26T05:18:17Z</time>
      </trkpt>
      <trkpt lat="46.15802" lon="6.32861">
        <ele>520.8</ele>
        <time>2021-06-26T05:18:18Z</time>
      </trkpt>
      <trkpt lat="46.15802" lon="6.32866">
        <ele>521</ele>
        <time>2021-06-26T05:18:19Z</time>
      </trkpt>
      <trkpt lat="46.15802" lon="6.3287">
        <ele>521.4</ele>
        <time>2021-06-26T05:18:20Z</time>
      </trkpt>
      <trkpt lat="46.15802" lon="6.32874">
        <ele>521.8</ele>
        <time>2021-06-26T05:18:21Z</time>
      </trkpt>
      <trkpt lat="46.15803" lon="6.32879">
        <ele>522</ele>
        <time>2021-06-26T05:18:22Z</time>
      </trkpt>
      <trkpt lat="46.15803" lon="6.32884">
        <ele>522.4</ele>
        <time>2021-06-26T05:18:23Z</time>
      </trkpt>
      <trkpt lat="46.15804" lon="6.32889">
        <ele>522.6</ele>
        <time>2021-06-26T05:18:24Z</time>
      </trkpt>
      <trkpt lat="46.15805" lon="6.32894">
        <ele>522.8</ele>
        <time>2021-06-26T05:18:25Z</time>
      </trkpt>
      <trkpt lat="46.15806" lon="6.32899">
        <ele>523.2</ele>
        <time>2021-06-26T05:18:26Z</time>
      </trkpt>
      <trkpt lat="46.15807" lon="6.32904">
        <ele>523.2</ele>
        <time>2021-06-26T05:18:27Z</time>
      </trkpt>
      <trkpt lat="46.15809" lon="6.32909">
        <ele>523.4</ele>
        <time>2021-06-26T05:18:28Z</time>
      </trkpt>
      <trkpt lat="46.1581" lon="6.32914">
        <ele>523.8</ele>
        <time>2021-06-26T05:18:29Z</time>
      </trkpt>
      <trkpt lat="46.15811" lon="6.32919">
        <ele>524</ele>
        <time>2021-06-26T05:18:30Z</time>
      </trkpt>
      <trkpt lat="46.15813" lon="6.32924">
        <ele>524.2</ele>
        <time>2021-06-26T05:18:31Z</time>
      </trkpt>
      <trkpt lat="46.15814" lon="6.32929">
        <ele>524.4</ele>
        <time>2021-06-26T05:18:32Z</time>
      </trkpt>
      <trkpt lat="46.15816" lon="6.32934">
        <ele>524.6</ele>
        <time>2021-06-26T05:18:33Z</time>
      </trkpt>
      <trkpt lat="46.15817" lon="6.32938">
        <ele>524.8</ele>
        <time>2021-06-26T05:18:34Z</time>
      </trkpt>
      <trkpt lat="46.15819" lon="6.32943">
        <ele>524.8</ele>
        <time>2021-06-26T05:18:35Z</time>
      </trkpt>
      <trkpt lat="46.1582" lon="6.32947">
        <ele>525</ele>
        <time>2021-06-26T05:18:36Z</time>
      </trkpt>
      <trkpt lat="46.15822" lon="6.32952">
        <ele>525.2</ele>
        <time>2021-06-26T05:18:37Z</time>
      </trkpt>
      <trkpt lat="46.15823" lon="6.32957">
        <ele>525.4</ele>
        <time>2021-06-26T05:18:38Z</time>
      </trkpt>
      <trkpt lat="46.15825" lon="6.32962">
        <ele>525.6</ele>
        <time>2021-06-26T05:18:39Z</time>
      </trkpt>
      <trkpt lat="46.15826" lon="6.32967">
        <ele>525.8</ele>
        <time>2021-06-26T05:18:40Z</time>
      </trkpt>
      <trkpt lat="46.15827" lon="6.32972">
        <ele>526</ele>
        <time>2021-06-26T05:18:41Z</time>
      </trkpt>
      <trkpt lat="46.15829" lon="6.32977">
        <ele>526.2</ele>
        <time>2021-06-26T05:18:42Z</time>
      </trkpt>
      <trkpt lat="46.1583" lon="6.32982">
        <ele>526.2</ele>
        <time>2021-06-26T05:18:43Z</time>
      </trkpt>
      <trkpt lat="46.15832" lon="6.32986">
        <ele>526.4</ele>
        <time>2021-06-26T05:18:44Z</time>
      </trkpt>
      <trkpt lat="46.15834" lon="6.32991">
        <ele>526.6</ele>
        <time>2021-06-26T05:18:45Z</time>
      </trkpt>
      <trkpt lat="46.15836" lon="6.32996">
        <ele>527</ele>
        <time>2021-06-26T05:18:46Z</time>
      </trkpt>
      <trkpt lat="46.15837" lon="6.33">
        <ele>527.2</ele>
        <time>2021-06-26T05:18:47Z</time>
      </trkpt>
      <trkpt lat="46.15839" lon="6.33005">
        <ele>527.4</ele>
        <time>2021-06-26T05:18:48Z</time>
      </trkpt>
      <trkpt lat="46.15841" lon="6.33009">
        <ele>527.4</ele>
        <time>2021-06-26T05:18:49Z</time>
      </trkpt>
      <trkpt lat="46.15843" lon="6.33013">
        <ele>527.6</ele>
        <time>2021-06-26T05:18:50Z</time>
      </trkpt>
      <trkpt lat="46.15845" lon="6.33017">
        <ele>528</ele>
        <time>2021-06-26T05:18:51Z</time>
      </trkpt>
      <trkpt lat="46.15847" lon="6.3302">
        <ele>528.2</ele>
        <time>2021-06-26T05:18:52Z</time>
      </trkpt>
      <trkpt lat="46.1585" lon="6.33024">
        <ele>528.4</ele>
        <time>2021-06-26T05:18:53Z</time>
      </trkpt>
      <trkpt lat="46.15852" lon="6.33027">
        <ele>528.6</ele>
        <time>2021-06-26T05:18:54Z</time>
      </trkpt>
      <trkpt lat="46.15855" lon="6.3303">
        <ele>528.8</ele>
        <time>2021-06-26T05:18:55Z</time>
      </trkpt>
      <trkpt lat="46.15857" lon="6.33034">
        <ele>529</ele>
        <time>2021-06-26T05:18:56Z</time>
      </trkpt>
      <trkpt lat="46.1586" lon="6.33037">
        <ele>529.2</ele>
        <time>2021-06-26T05:18:57Z</time>
      </trkpt>
      <trkpt lat="46.15862" lon="6.3304">
        <ele>529.4</ele>
        <time>2021-06-26T05:18:58Z</time>
      </trkpt>
      <trkpt lat="46.15865" lon="6.33043">
        <ele>529.6</ele>
        <time>2021-06-26T05:18:59Z</time>
      </trkpt>
      <trkpt lat="46.15867" lon="6.33047">
        <ele>529.8</ele>
        <time>2021-06-26T05:19:00Z</time>
      </trkpt>
      <trkpt lat="46.15869" lon="6.3305">
        <ele>530.2</ele>
        <time>2021-06-26T05:19:01Z</time>
      </trkpt>
      <trkpt lat="46.15871" lon="6.33053">
        <ele>530.4</ele>
        <time>2021-06-26T05:19:02Z</time>
      </trkpt>
      <trkpt lat="46.15874" lon="6.33056">
        <ele>530.6</ele>
        <time>2021-06-26T05:19:03Z</time>
      </trkpt>
      <trkpt lat="46.15876" lon="6.33059">
        <ele>530.8</ele>
        <time>2021-06-26T05:19:04Z</time>
      </trkpt>
      <trkpt lat="46.15879" lon="6.33063">
        <ele>531.4</ele>
        <time>2021-06-26T05:19:05Z</time>
      </trkpt>
      <trkpt lat="46.15881" lon="6.33066">
        <ele>531.6</ele>
        <time>2021-06-26T05:19:06Z</time>
      </trkpt>
      <trkpt lat="46.15883" lon="6.33069">
        <ele>531.8</ele>
        <time>2021-06-26T05:19:07Z</time>
      </trkpt>
      <trkpt lat="46.15885" lon="6.33072">
        <ele>532.2</ele>
        <time>2021-06-26T05:19:08Z</time>
      </trkpt>
      <trkpt lat="46.15887" lon="6.33075">
        <ele>532.2</ele>
        <time>2021-06-26T05:19:09Z</time>
      </trkpt>
      <trkpt lat="46.15889" lon="6.33078">
        <ele>532.2</ele>
        <time>2021-06-26T05:19:10Z</time>
      </trkpt>
      <trkpt lat="46.15892" lon="6.3308">
        <ele>532.6</ele>
        <time>2021-06-26T05:19:11Z</time>
      </trkpt>
      <trkpt lat="46.15894" lon="6.33083">
        <ele>533</ele>
        <time>2021-06-26T05:19:12Z</time>
      </trkpt>
      <trkpt lat="46.15896" lon="6.33086">
        <ele>533.4</ele>
        <time>2021-06-26T05:19:13Z</time>
      </trkpt>
      <trkpt lat="46.15899" lon="6.33089">
        <ele>533.6</ele>
        <time>2021-06-26T05:19:14Z</time>
      </trkpt>
      <trkpt lat="46.15901" lon="6.33091">
        <ele>533.8</ele>
        <time>2021-06-26T05:19:15Z</time>
      </trkpt>
      <trkpt lat="46.15902" lon="6.33093">
        <ele>534</ele>
        <time>2021-06-26T05:19:16Z</time>
      </trkpt>
      <trkpt lat="46.15904" lon="6.33096">
        <ele>534.4</ele>
        <time>2021-06-26T05:19:17Z</time>
      </trkpt>
      <trkpt lat="46.15907" lon="6.33098">
        <ele>534.8</ele>
        <time>2021-06-26T05:19:18Z</time>
      </trkpt>
      <trkpt lat="46.15909" lon="6.331">
        <ele>535.2</ele>
        <time>2021-06-26T05:19:19Z</time>
      </trkpt>
      <trkpt lat="46.15911" lon="6.33103">
        <ele>535.4</ele>
        <time>2021-06-26T05:19:20Z</time>
      </trkpt>
      <trkpt lat="46.15913" lon="6.33105">
        <ele>535.8</ele>
        <time>2021-06-26T05:19:21Z</time>
      </trkpt>
      <trkpt lat="46.15915" lon="6.33109">
        <ele>536.2</ele>
        <time>2021-06-26T05:19:22Z</time>
      </trkpt>
      <trkpt lat="46.15918" lon="6.33112">
        <ele>536.4</ele>
        <time>2021-06-26T05:19:23Z</time>
      </trkpt>
      <trkpt lat="46.1592" lon="6.33115">
        <ele>536.8</ele>
        <time>2021-06-26T05:19:24Z</time>
      </trkpt>
      <trkpt lat="46.15922" lon="6.33119">
        <ele>537.2</ele>
        <time>2021-06-26T05:19:25Z</time>
      </trkpt>
      <trkpt lat="46.15924" lon="6.33122">
        <ele>537.4</ele>
        <time>2021-06-26T05:19:26Z</time>
      </trkpt>
      <trkpt lat="46.15926" lon="6.33126">
        <ele>537.6</ele>
        <time>2021-06-26T05:19:27Z</time>
      </trkpt>
      <trkpt lat="46.15929" lon="6.33129">
        <ele>537.8</ele>
        <time>2021-06-26T05:19:28Z</time>
      </trkpt>
      <trkpt lat="46.15931" lon="6.33133">
        <ele>538.4</ele>
        <time>2021-06-26T05:19:29Z</time>
      </trkpt>
      <trkpt lat="46.15933" lon="6.33136">
        <ele>538.6</ele>
        <time>2021-06-26T05:19:30Z</time>
      </trkpt>
      <trkpt lat="46.15936" lon="6.33141">
        <ele>539</ele>
        <time>2021-06-26T05:19:31Z</time>
      </trkpt>
      <trkpt lat="46.15938" lon="6.33145">
        <ele>539</ele>
        <time>2021-06-26T05:19:32Z</time>
      </trkpt>
      <trkpt lat="46.1594" lon="6.33149">
        <ele>539.2</ele>
        <time>2021-06-26T05:19:33Z</time>
      </trkpt>
      <trkpt lat="46.15942" lon="6.33153">
        <ele>539.6</ele>
        <time>2021-06-26T05:19:34Z</time>
      </trkpt>
      <trkpt lat="46.15944" lon="6.33158">
        <ele>539.6</ele>
        <time>2021-06-26T05:19:35Z</time>
      </trkpt>
      <trkpt lat="46.15945" lon="6.33162">
        <ele>540</ele>
        <time>2021-06-26T05:19:36Z</time>
      </trkpt>
      <trkpt lat="46.15947" lon="6.33167">
        <ele>540</ele>
        <time>2021-06-26T05:19:37Z</time>
      </trkpt>
      <trkpt lat="46.15949" lon="6.33172">
        <ele>540.2</ele>
        <time>2021-06-26T05:19:38Z</time>
      </trkpt>
      <trkpt lat="46.15951" lon="6.33177">
        <ele>540.4</ele>
        <time>2021-06-26T05:19:39Z</time>
      </trkpt>
      <trkpt lat="46.15952" lon="6.33181">
        <ele>540.4</ele>
        <time>2021-06-26T05:19:40Z</time>
      </trkpt>
      <trkpt lat="46.15953" lon="6.33186">
        <ele>540.8</ele>
        <time>2021-06-26T05:19:41Z</time>
      </trkpt>
      <trkpt lat="46.15955" lon="6.33191">
        <ele>540.8</ele>
        <time>2021-06-26T05:19:42Z</time>
      </trkpt>
      <trkpt lat="46.15956" lon="6.33196">
        <ele>540.8</ele>
        <time>2021-06-26T05:19:43Z</time>
      </trkpt>
      <trkpt lat="46.15957" lon="6.33201">
        <ele>541.2</ele>
        <time>2021-06-26T05:19:44Z</time>
      </trkpt>
      <trkpt lat="46.15959" lon="6.33207">
        <ele>541.2</ele>
        <time>2021-06-26T05:19:45Z</time>
      </trkpt>
      <trkpt lat="46.1596" lon="6.33212">
        <ele>541.4</ele>
        <time>2021-06-26T05:19:46Z</time>
      </trkpt>
      <trkpt lat="46.15961" lon="6.33217">
        <ele>541.6</ele>
        <time>2021-06-26T05:19:47Z</time>
      </trkpt>
      <trkpt lat="46.15962" lon="6.33222">
        <ele>541.8</ele>
        <time>2021-06-26T05:19:48Z</time>
      </trkpt>
      <trkpt lat="46.15963" lon="6.33227">
        <ele>542</ele>
        <time>2021-06-26T05:19:49Z</time>
      </trkpt>
      <trkpt lat="46.15964" lon="6.33232">
        <ele>542.2</ele>
        <time>2021-06-26T05:19:50Z</time>
      </trkpt>
      <trkpt lat="46.15965" lon="6.33238">
        <ele>542.4</ele>
        <time>2021-06-26T05:19:51Z</time>
      </trkpt>
      <trkpt lat="46.15965" lon="6.33243">
        <ele>542.4</ele>
        <time>2021-06-26T05:19:52Z</time>
      </trkpt>
      <trkpt lat="46.15966" lon="6.33248">
        <ele>542.4</ele>
        <time>2021-06-26T05:19:53Z</time>
      </trkpt>
      <trkpt lat="46.15967" lon="6.33253">
        <ele>542.4</ele>
        <time>2021-06-26T05:19:54Z</time>
      </trkpt>
      <trkpt lat="46.15968" lon="6.33258">
        <ele>542.8</ele>
        <time>2021-06-26T05:19:55Z</time>
      </trkpt>
      <trkpt lat="46.15969" lon="6.33264">
        <ele>542.8</ele>
        <time>2021-06-26T05:19:56Z</time>
      </trkpt>
      <trkpt lat="46.1597" lon="6.33269">
        <ele>543</ele>
        <time>2021-06-26T05:19:57Z</time>
      </trkpt>
      <trkpt lat="46.15971" lon="6.33275">
        <ele>543.2</ele>
        <time>2021-06-26T05:19:58Z</time>
      </trkpt>
      <trkpt lat="46.15972" lon="6.3328">
        <ele>543.4</ele>
        <time>2021-06-26T05:19:59Z</time>
      </trkpt>
      <trkpt lat="46.15973" lon="6.33286">
        <ele>543.6</ele>
        <time>2021-06-26T05:20:00Z</time>
      </trkpt>
      <trkpt lat="46.15974" lon="6.33291">
        <ele>543.8</ele>
        <time>2021-06-26T05:20:01Z</time>
      </trkpt>
      <trkpt lat="46.15975" lon="6.33296">
        <ele>544</ele>
        <time>2021-06-26T05:20:02Z</time>
      </trkpt>
      <trkpt lat="46.15976" lon="6.33301">
        <ele>544.2</ele>
        <time>2021-06-26T05:20:03Z</time>
      </trkpt>
      <trkpt lat="46.15977" lon="6.33305">
        <ele>544.2</ele>
        <time>2021-06-26T05:20:04Z</time>
      </trkpt>
      <trkpt lat="46.15977" lon="6.3331">
        <ele>544.2</ele>
        <time>2021-06-26T05:20:05Z</time>
      </trkpt>
      <trkpt lat="46.15978" lon="6.33315">
        <ele>544.4</ele>
        <time>2021-06-26T05:20:06Z</time>
      </trkpt>
      <trkpt lat="46.15979" lon="6.3332">
        <ele>544.6</ele>
        <time>2021-06-26T05:20:07Z</time>
      </trkpt>
      <trkpt lat="46.1598" lon="6.33325">
        <ele>545</ele>
        <time>2021-06-26T05:20:08Z</time>
      </trkpt>
      <trkpt lat="46.15982" lon="6.33331">
        <ele>545</ele>
        <time>2021-06-26T05:20:09Z</time>
      </trkpt>
      <trkpt lat="46.15984" lon="6.33336">
        <ele>545.2</ele>
        <time>2021-06-26T05:20:10Z</time>
      </trkpt>
      <trkpt lat="46.15985" lon="6.33342">
        <ele>545.4</ele>
        <time>2021-06-26T05:20:11Z</time>
      </trkpt>
      <trkpt lat="46.15987" lon="6.33347">
        <ele>545.4</ele>
        <time>2021-06-26T05:20:12Z</time>
      </trkpt>
      <trkpt lat="46.15989" lon="6.33353">
        <ele>545.6</ele>
        <time>2021-06-26T05:20:13Z</time>
      </trkpt>
      <trkpt lat="46.15991" lon="6.33358">
        <ele>545.8</ele>
        <time>2021-06-26T05:20:14Z</time>
      </trkpt>
      <trkpt lat="46.15994" lon="6.33362">
        <ele>546</ele>
        <time>2021-06-26T05:20:15Z</time>
      </trkpt>
      <trkpt lat="46.15997" lon="6.33367">
        <ele>546</ele>
        <time>2021-06-26T05:20:16Z</time>
      </trkpt>
      <trkpt lat="46.16" lon="6.33371">
        <ele>546.2</ele>
        <time>2021-06-26T05:20:17Z</time>
      </trkpt>
      <trkpt lat="46.16003" lon="6.33375">
        <ele>546.2</ele>
        <time>2021-06-26T05:20:18Z</time>
      </trkpt>
      <trkpt lat="46.16006" lon="6.33379">
        <ele>546.8</ele>
        <time>2021-06-26T05:20:19Z</time>
      </trkpt>
      <trkpt lat="46.16009" lon="6.33384">
        <ele>547</ele>
        <time>2021-06-26T05:20:20Z</time>
      </trkpt>
      <trkpt lat="46.16012" lon="6.33388">
        <ele>547.2</ele>
        <time>2021-06-26T05:20:21Z</time>
      </trkpt>
      <trkpt lat="46.16015" lon="6.33392">
        <ele>547.4</ele>
        <time>2021-06-26T05:20:22Z</time>
      </trkpt>
      <trkpt lat="46.16018" lon="6.33396">
        <ele>547.6</ele>
        <time>2021-06-26T05:20:23Z</time>
      </trkpt>
      <trkpt lat="46.16021" lon="6.334">
        <ele>547.8</ele>
        <time>2021-06-26T05:20:24Z</time>
      </trkpt>
      <trkpt lat="46.16024" lon="6.33404">
        <ele>548</ele>
        <time>2021-06-26T05:20:25Z</time>
      </trkpt>
      <trkpt lat="46.16026" lon="6.33408">
        <ele>548</ele>
        <time>2021-06-26T05:20:26Z</time>
      </trkpt>
      <trkpt lat="46.1603" lon="6.33412">
        <ele>548.2</ele>
        <time>2021-06-26T05:20:27Z</time>
      </trkpt>
      <trkpt lat="46.16032" lon="6.33416">
        <ele>548.6</ele>
        <time>2021-06-26T05:20:28Z</time>
      </trkpt>
      <trkpt lat="46.16035" lon="6.33421">
        <ele>548.8</ele>
        <time>2021-06-26T05:20:29Z</time>
      </trkpt>
      <trkpt lat="46.16038" lon="6.33425">
        <ele>549</ele>
        <time>2021-06-26T05:20:30Z</time>
      </trkpt>
      <trkpt lat="46.1604" lon="6.3343">
        <ele>549</ele>
        <time>2021-06-26T05:20:31Z</time>
      </trkpt>
      <trkpt lat="46.16042" lon="6.33435">
        <ele>549.4</ele>
        <time>2021-06-26T05:20:32Z</time>
      </trkpt>
      <trkpt lat="46.16043" lon="6.3344">
        <ele>549.4</ele>
        <time>2021-06-26T05:20:33Z</time>
      </trkpt>
      <trkpt lat="46.16043" lon="6.33445">
        <ele>549.4</ele>
        <time>2021-06-26T05:20:34Z</time>
      </trkpt>
      <trkpt lat="46.16043" lon="6.33449">
        <ele>549.8</ele>
        <time>2021-06-26T05:20:35Z</time>
      </trkpt>
      <trkpt lat="46.16042" lon="6.33453">
        <ele>549.8</ele>
        <time>2021-06-26T05:20:36Z</time>
      </trkpt>
      <trkpt lat="46.16041" lon="6.33456">
        <ele>549.8</ele>
        <time>2021-06-26T05:20:37Z</time>
      </trkpt>
      <trkpt lat="46.16039" lon="6.3346">
        <ele>549.8</ele>
        <time>2021-06-26T05:20:38Z</time>
      </trkpt>
      <trkpt lat="46.16038" lon="6.33464">
        <ele>549.8</ele>
        <time>2021-06-26T05:20:39Z</time>
      </trkpt>
      <trkpt lat="46.16036" lon="6.33468">
        <ele>550</ele>
        <time>2021-06-26T05:20:40Z</time>
      </trkpt>
      <trkpt lat="46.16034" lon="6.33472">
        <ele>550</ele>
        <time>2021-06-26T05:20:41Z</time>
      </trkpt>
      <trkpt lat="46.16031" lon="6.33477">
        <ele>550.2</ele>
        <time>2021-06-26T05:20:42Z</time>
      </trkpt>
      <trkpt lat="46.16029" lon="6.33482">
        <ele>550.2</ele>
        <time>2021-06-26T05:20:43Z</time>
      </trkpt>
      <trkpt lat="46.16026" lon="6.33487">
        <ele>550.4</ele>
        <time>2021-06-26T05:20:44Z</time>
      </trkpt>
      <trkpt lat="46.16023" lon="6.33493">
        <ele>550.8</ele>
        <time>2021-06-26T05:20:45Z</time>
      </trkpt>
      <trkpt lat="46.16021" lon="6.33498">
        <ele>550.8</ele>
        <time>2021-06-26T05:20:46Z</time>
      </trkpt>
      <trkpt lat="46.16018" lon="6.33503">
        <ele>550.8</ele>
        <time>2021-06-26T05:20:47Z</time>
      </trkpt>
      <trkpt lat="46.16015" lon="6.33509">
        <ele>551</ele>
        <time>2021-06-26T05:20:48Z</time>
      </trkpt>
      <trkpt lat="46.1601" lon="6.3352">
        <ele>551</ele>
        <time>2021-06-26T05:20:50Z</time>
      </trkpt>
      <trkpt lat="46.16007" lon="6.33525">
        <ele>551</ele>
        <time>2021-06-26T05:20:51Z</time>
      </trkpt>
      <trkpt lat="46.16001" lon="6.33536">
        <ele>551.2</ele>
        <time>2021-06-26T05:20:53Z</time>
      </trkpt>
      <trkpt lat="46.15987" lon="6.33568">
        <ele>551.2</ele>
        <time>2021-06-26T05:20:58Z</time>
      </trkpt>
      <trkpt lat="46.15978" lon="6.33587">
        <ele>551.4</ele>
        <time>2021-06-26T05:21:01Z</time>
      </trkpt>
      <trkpt lat="46.15975" lon="6.33593">
        <ele>551.4</ele>
        <time>2021-06-26T05:21:02Z</time>
      </trkpt>
      <trkpt lat="46.15972" lon="6.33598">
        <ele>551.4</ele>
        <time>2021-06-26T05:21:03Z</time>
      </trkpt>
      <trkpt lat="46.15969" lon="6.33604">
        <ele>551.6</ele>
        <time>2021-06-26T05:21:04Z</time>
      </trkpt>
      <trkpt lat="46.15959" lon="6.33622">
        <ele>551.6</ele>
        <time>2021-06-26T05:21:07Z</time>
      </trkpt>
      <trkpt lat="46.15956" lon="6.33628">
        <ele>551.8</ele>
        <time>2021-06-26T05:21:08Z</time>
      </trkpt>
      <trkpt lat="46.15953" lon="6.33634">
        <ele>551.8</ele>
        <time>2021-06-26T05:21:09Z</time>
      </trkpt>
      <trkpt lat="46.15941" lon="6.33658">
        <ele>552.2</ele>
        <time>2021-06-26T05:21:13Z</time>
      </trkpt>
      <trkpt lat="46.1593" lon="6.33675">
        <ele>552.4</ele>
        <time>2021-06-26T05:21:16Z</time>
      </trkpt>
      <trkpt lat="46.15916" lon="6.33696">
        <ele>552.6</ele>
        <time>2021-06-26T05:21:20Z</time>
      </trkpt>
      <trkpt lat="46.15912" lon="6.33701">
        <ele>552.8</ele>
        <time>2021-06-26T05:21:21Z</time>
      </trkpt>
      <trkpt lat="46.15909" lon="6.33706">
        <ele>553</ele>
        <time>2021-06-26T05:21:22Z</time>
      </trkpt>
      <trkpt lat="46.15902" lon="6.33716">
        <ele>553</ele>
        <time>2021-06-26T05:21:24Z</time>
      </trkpt>
      <trkpt lat="46.15894" lon="6.33726">
        <ele>553.2</ele>
        <time>2021-06-26T05:21:26Z</time>
      </trkpt>
      <trkpt lat="46.15891" lon="6.33731">
        <ele>553.4</ele>
        <time>2021-06-26T05:21:27Z</time>
      </trkpt>
      <trkpt lat="46.15887" lon="6.33737">
        <ele>553.4</ele>
        <time>2021-06-26T05:21:28Z</time>
      </trkpt>
      <trkpt lat="46.15879" lon="6.33747">
        <ele>553.6</ele>
        <time>2021-06-26T05:21:30Z</time>
      </trkpt>
      <trkpt lat="46.15875" lon="6.33752">
        <ele>553.8</ele>
        <time>2021-06-26T05:21:31Z</time>
      </trkpt>
      <trkpt lat="46.15871" lon="6.33757">
        <ele>553.6</ele>
        <time>2021-06-26T05:21:32Z</time>
      </trkpt>
      <trkpt lat="46.15867" lon="6.33761">
        <ele>553.6</ele>
        <time>2021-06-26T05:21:33Z</time>
      </trkpt>
      <trkpt lat="46.15849" lon="6.33777">
        <ele>554</ele>
        <time>2021-06-26T05:21:37Z</time>
      </trkpt>
      <trkpt lat="46.1584" lon="6.33785">
        <ele>554.2</ele>
        <time>2021-06-26T05:21:39Z</time>
      </trkpt>
      <trkpt lat="46.15836" lon="6.33788">
        <ele>554.2</ele>
        <time>2021-06-26T05:21:40Z</time>
      </trkpt>
      <trkpt lat="46.15831" lon="6.33792">
        <ele>554.4</ele>
        <time>2021-06-26T05:21:41Z</time>
      </trkpt>
      <trkpt lat="46.15804" lon="6.33814">
        <ele>555.2</ele>
        <time>2021-06-26T05:21:47Z</time>
      </trkpt>
      <trkpt lat="46.158" lon="6.33818">
        <ele>555.2</ele>
        <time>2021-06-26T05:21:48Z</time>
      </trkpt>
      <trkpt lat="46.15796" lon="6.33822">
        <ele>555.4</ele>
        <time>2021-06-26T05:21:49Z</time>
      </trkpt>
      <trkpt lat="46.15791" lon="6.33826">
        <ele>555.4</ele>
        <time>2021-06-26T05:21:50Z</time>
      </trkpt>
      <trkpt lat="46.15783" lon="6.33834">
        <ele>555.4</ele>
        <time>2021-06-26T05:21:52Z</time>
      </trkpt>
      <trkpt lat="46.15779" lon="6.33838">
        <ele>555.6</ele>
        <time>2021-06-26T05:21:53Z</time>
      </trkpt>
      <trkpt lat="46.15776" lon="6.33843">
        <ele>555.8</ele>
        <time>2021-06-26T05:21:54Z</time>
      </trkpt>
      <trkpt lat="46.15772" lon="6.33848">
        <ele>556</ele>
        <time>2021-06-26T05:21:55Z</time>
      </trkpt>
      <trkpt lat="46.15769" lon="6.33854">
        <ele>556</ele>
        <time>2021-06-26T05:21:56Z</time>
      </trkpt>
      <trkpt lat="46.15766" lon="6.3386">
        <ele>556.2</ele>
        <time>2021-06-26T05:21:57Z</time>
      </trkpt>
      <trkpt lat="46.15763" lon="6.33866">
        <ele>556.2</ele>
        <time>2021-06-26T05:21:58Z</time>
      </trkpt>
      <trkpt lat="46.15761" lon="6.33873">
        <ele>556.4</ele>
        <time>2021-06-26T05:21:59Z</time>
      </trkpt>
      <trkpt lat="46.1576" lon="6.3388">
        <ele>556.6</ele>
        <time>2021-06-26T05:22:00Z</time>
      </trkpt>
      <trkpt lat="46.15758" lon="6.33886">
        <ele>556.6</ele>
        <time>2021-06-26T05:22:01Z</time>
      </trkpt>
      <trkpt lat="46.15756" lon="6.33893">
        <ele>557</ele>
        <time>2021-06-26T05:22:02Z</time>
      </trkpt>
      <trkpt lat="46.15755" lon="6.339">
        <ele>557</ele>
        <time>2021-06-26T05:22:03Z</time>
      </trkpt>
      <trkpt lat="46.15753" lon="6.33907">
        <ele>557.4</ele>
        <time>2021-06-26T05:22:04Z</time>
      </trkpt>
      <trkpt lat="46.15752" lon="6.33913">
        <ele>557.6</ele>
        <time>2021-06-26T05:22:05Z</time>
      </trkpt>
      <trkpt lat="46.15751" lon="6.33919">
        <ele>557.6</ele>
        <time>2021-06-26T05:22:06Z</time>
      </trkpt>
      <trkpt lat="46.15749" lon="6.33925">
        <ele>557.6</ele>
        <time>2021-06-26T05:22:07Z</time>
      </trkpt>
      <trkpt lat="46.15748" lon="6.33931">
        <ele>557.6</ele>
        <time>2021-06-26T05:22:08Z</time>
      </trkpt>
      <trkpt lat="46.15747" lon="6.33936">
        <ele>557.6</ele>
        <time>2021-06-26T05:22:09Z</time>
      </trkpt>
      <trkpt lat="46.15746" lon="6.3394">
        <ele>557.8</ele>
        <time>2021-06-26T05:22:10Z</time>
      </trkpt>
      <trkpt lat="46.15746" lon="6.33945">
        <ele>557.8</ele>
        <time>2021-06-26T05:22:11Z</time>
      </trkpt>
      <trkpt lat="46.15746" lon="6.33949">
        <ele>557.8</ele>
        <time>2021-06-26T05:22:12Z</time>
      </trkpt>
      <trkpt lat="46.15747" lon="6.33953">
        <ele>558</ele>
        <time>2021-06-26T05:22:13Z</time>
      </trkpt>
      <trkpt lat="46.15748" lon="6.33957">
        <ele>557.8</ele>
        <time>2021-06-26T05:22:14Z</time>
      </trkpt>
      <trkpt lat="46.15752" lon="6.33963">
        <ele>557.8</ele>
        <time>2021-06-26T05:22:16Z</time>
      </trkpt>
      <trkpt lat="46.15754" lon="6.33966">
        <ele>558</ele>
        <time>2021-06-26T05:22:17Z</time>
      </trkpt>
      <trkpt lat="46.15757" lon="6.33968">
        <ele>558</ele>
        <time>2021-06-26T05:22:18Z</time>
      </trkpt>
      <trkpt lat="46.15761" lon="6.33974">
        <ele>558</ele>
        <time>2021-06-26T05:22:20Z</time>
      </trkpt>
      <trkpt lat="46.15762" lon="6.33977">
        <ele>558</ele>
        <time>2021-06-26T05:22:21Z</time>
      </trkpt>
      <trkpt lat="46.15764" lon="6.3398">
        <ele>558</ele>
        <time>2021-06-26T05:22:22Z</time>
      </trkpt>
      <trkpt lat="46.15767" lon="6.33983">
        <ele>558.4</ele>
        <time>2021-06-26T05:22:23Z</time>
      </trkpt>
      <trkpt lat="46.15769" lon="6.33986">
        <ele>558.4</ele>
        <time>2021-06-26T05:22:24Z</time>
      </trkpt>
      <trkpt lat="46.1577" lon="6.3399">
        <ele>558.6</ele>
        <time>2021-06-26T05:22:25Z</time>
      </trkpt>
      <trkpt lat="46.15771" lon="6.33994">
        <ele>559.2</ele>
        <time>2021-06-26T05:22:26Z</time>
      </trkpt>
      <trkpt lat="46.15772" lon="6.33997">
        <ele>559.4</ele>
        <time>2021-06-26T05:22:27Z</time>
      </trkpt>
      <trkpt lat="46.15774" lon="6.34001">
        <ele>559.6</ele>
        <time>2021-06-26T05:22:28Z</time>
      </trkpt>
      <trkpt lat="46.15776" lon="6.34005">
        <ele>560</ele>
        <time>2021-06-26T05:22:29Z</time>
      </trkpt>
      <trkpt lat="46.15777" lon="6.34008">
        <ele>560.4</ele>
        <time>2021-06-26T05:22:30Z</time>
      </trkpt>
      <trkpt lat="46.15779" lon="6.34012">
        <ele>560.6</ele>
        <time>2021-06-26T05:22:31Z</time>
      </trkpt>
      <trkpt lat="46.1578" lon="6.34016">
        <ele>561</ele>
        <time>2021-06-26T05:22:32Z</time>
      </trkpt>
      <trkpt lat="46.15782" lon="6.3402">
        <ele>561.2</ele>
        <time>2021-06-26T05:22:33Z</time>
      </trkpt>
      <trkpt lat="46.15783" lon="6.34023">
        <ele>561.8</ele>
        <time>2021-06-26T05:22:34Z</time>
      </trkpt>
      <trkpt lat="46.15784" lon="6.34027">
        <ele>562</ele>
        <time>2021-06-26T05:22:35Z</time>
      </trkpt>
      <trkpt lat="46.15786" lon="6.3403">
        <ele>562.2</ele>
        <time>2021-06-26T05:22:36Z</time>
      </trkpt>
      <trkpt lat="46.15787" lon="6.34033">
        <ele>562.6</ele>
        <time>2021-06-26T05:22:37Z</time>
      </trkpt>
      <trkpt lat="46.15788" lon="6.34036">
        <ele>563</ele>
        <time>2021-06-26T05:22:38Z</time>
      </trkpt>
      <trkpt lat="46.15788" lon="6.3404">
        <ele>563.4</ele>
        <time>2021-06-26T05:22:39Z</time>
      </trkpt>
      <trkpt lat="46.1579" lon="6.34043">
        <ele>563.6</ele>
        <time>2021-06-26T05:22:40Z</time>
      </trkpt>
      <trkpt lat="46.15791" lon="6.34046">
        <ele>564.2</ele>
        <time>2021-06-26T05:22:41Z</time>
      </trkpt>
      <trkpt lat="46.15792" lon="6.3405">
        <ele>564.4</ele>
        <time>2021-06-26T05:22:42Z</time>
      </trkpt>
      <trkpt lat="46.15792" lon="6.34053">
        <ele>565</ele>
        <time>2021-06-26T05:22:43Z</time>
      </trkpt>
      <trkpt lat="46.15793" lon="6.34057">
        <ele>565</ele>
        <time>2021-06-26T05:22:44Z</time>
      </trkpt>
      <trkpt lat="46.15793" lon="6.34061">
        <ele>565.6</ele>
        <time>2021-06-26T05:22:45Z</time>
      </trkpt>
      <trkpt lat="46.15794" lon="6.34065">
        <ele>566.2</ele>
        <time>2021-06-26T05:22:46Z</time>
      </trkpt>
      <trkpt lat="46.15795" lon="6.34069">
        <ele>566.4</ele>
        <time>2021-06-26T05:22:47Z</time>
      </trkpt>
      <trkpt lat="46.15796" lon="6.34072">
        <ele>566.8</ele>
        <time>2021-06-26T05:22:48Z</time>
      </trkpt>
      <trkpt lat="46.15798" lon="6.34076">
        <ele>567.2</ele>
        <time>2021-06-26T05:22:49Z</time>
      </trkpt>
      <trkpt lat="46.15799" lon="6.34079">
        <ele>567.4</ele>
        <time>2021-06-26T05:22:50Z</time>
      </trkpt>
      <trkpt lat="46.15801" lon="6.34082">
        <ele>567.6</ele>
        <time>2021-06-26T05:22:51Z</time>
      </trkpt>
      <trkpt lat="46.15804" lon="6.34085">
        <ele>567.8</ele>
        <time>2021-06-26T05:22:52Z</time>
      </trkpt>
      <trkpt lat="46.15806" lon="6.34088">
        <ele>568.2</ele>
        <time>2021-06-26T05:22:53Z</time>
      </trkpt>
      <trkpt lat="46.15808" lon="6.34093">
        <ele>568.2</ele>
        <time>2021-06-26T05:22:54Z</time>
      </trkpt>
      <trkpt lat="46.15809" lon="6.34098">
        <ele>568.6</ele>
        <time>2021-06-26T05:22:55Z</time>
      </trkpt>
      <trkpt lat="46.15809" lon="6.34102">
        <ele>568.8</ele>
        <time>2021-06-26T05:22:56Z</time>
      </trkpt>
      <trkpt lat="46.1581" lon="6.34107">
        <ele>569.2</ele>
        <time>2021-06-26T05:22:57Z</time>
      </trkpt>
      <trkpt lat="46.1581" lon="6.34112">
        <ele>569.4</ele>
        <time>2021-06-26T05:22:58Z</time>
      </trkpt>
      <trkpt lat="46.15811" lon="6.34117">
        <ele>569.6</ele>
        <time>2021-06-26T05:22:59Z</time>
      </trkpt>
      <trkpt lat="46.15812" lon="6.34122">
        <ele>569.8</ele>
        <time>2021-06-26T05:23:00Z</time>
      </trkpt>
      <trkpt lat="46.15812" lon="6.34126">
        <ele>570</ele>
        <time>2021-06-26T05:23:01Z</time>
      </trkpt>
      <trkpt lat="46.15814" lon="6.34131">
        <ele>569.8</ele>
        <time>2021-06-26T05:23:02Z</time>
      </trkpt>
      <trkpt lat="46.15815" lon="6.34135">
        <ele>570</ele>
        <time>2021-06-26T05:23:03Z</time>
      </trkpt>
      <trkpt lat="46.15816" lon="6.34139">
        <ele>570</ele>
        <time>2021-06-26T05:23:04Z</time>
      </trkpt>
      <trkpt lat="46.15817" lon="6.34143">
        <ele>570.2</ele>
        <time>2021-06-26T05:23:05Z</time>
      </trkpt>
      <trkpt lat="46.15818" lon="6.34145">
        <ele>570.2</ele>
        <time>2021-06-26T05:23:06Z</time>
      </trkpt>
      <trkpt lat="46.15818" lon="6.34148">
        <ele>570.4</ele>
        <time>2021-06-26T05:23:07Z</time>
      </trkpt>
      <trkpt lat="46.15819" lon="6.3415">
        <ele>570.6</ele>
        <time>2021-06-26T05:23:08Z</time>
      </trkpt>
      <trkpt lat="46.1582" lon="6.34153">
        <ele>571</ele>
        <time>2021-06-26T05:23:09Z</time>
      </trkpt>
      <trkpt lat="46.15822" lon="6.34157">
        <ele>571</ele>
        <time>2021-06-26T05:23:10Z</time>
      </trkpt>
      <trkpt lat="46.15824" lon="6.3416">
        <ele>571.2</ele>
        <time>2021-06-26T05:23:11Z</time>
      </trkpt>
      <trkpt lat="46.15826" lon="6.34163">
        <ele>571.2</ele>
        <time>2021-06-26T05:23:12Z</time>
      </trkpt>
      <trkpt lat="46.15829" lon="6.34167">
        <ele>571.4</ele>
        <time>2021-06-26T05:23:13Z</time>
      </trkpt>
      <trkpt lat="46.15831" lon="6.34171">
        <ele>571.4</ele>
        <time>2021-06-26T05:23:14Z</time>
      </trkpt>
      <trkpt lat="46.15833" lon="6.34175">
        <ele>571.4</ele>
        <time>2021-06-26T05:23:15Z</time>
      </trkpt>
      <trkpt lat="46.15835" lon="6.3418">
        <ele>571.8</ele>
        <time>2021-06-26T05:23:16Z</time>
      </trkpt>
      <trkpt lat="46.15837" lon="6.34184">
        <ele>571.8</ele>
        <time>2021-06-26T05:23:17Z</time>
      </trkpt>
      <trkpt lat="46.1584" lon="6.34188">
        <ele>572</ele>
        <time>2021-06-26T05:23:18Z</time>
      </trkpt>
      <trkpt lat="46.15842" lon="6.34192">
        <ele>572</ele>
        <time>2021-06-26T05:23:19Z</time>
      </trkpt>
      <trkpt lat="46.15845" lon="6.34196">
        <ele>572.2</ele>
        <time>2021-06-26T05:23:20Z</time>
      </trkpt>
      <trkpt lat="46.15849" lon="6.34199">
        <ele>572.2</ele>
        <time>2021-06-26T05:23:21Z</time>
      </trkpt>
      <trkpt lat="46.15852" lon="6.34201">
        <ele>572.2</ele>
        <time>2021-06-26T05:23:22Z</time>
      </trkpt>
      <trkpt lat="46.15864" lon="6.34211">
        <ele>572.2</ele>
        <time>2021-06-26T05:23:25Z</time>
      </trkpt>
      <trkpt lat="46.15886" lon="6.34238">
        <ele>572.4</ele>
        <time>2021-06-26T05:23:31Z</time>
      </trkpt>
      <trkpt lat="46.15889" lon="6.34244">
        <ele>572.4</ele>
        <time>2021-06-26T05:23:32Z</time>
      </trkpt>
      <trkpt lat="46.15898" lon="6.3426">
        <ele>572.4</ele>
        <time>2021-06-26T05:23:35Z</time>
      </trkpt>
      <trkpt lat="46.15901" lon="6.34266">
        <ele>572.4</ele>
        <time>2021-06-26T05:23:36Z</time>
      </trkpt>
      <trkpt lat="46.15903" lon="6.34271">
        <ele>572.4</ele>
        <time>2021-06-26T05:23:37Z</time>
      </trkpt>
      <trkpt lat="46.15905" lon="6.34276">
        <ele>572.4</ele>
        <time>2021-06-26T05:23:38Z</time>
      </trkpt>
      <trkpt lat="46.15907" lon="6.34279">
        <ele>572.6</ele>
        <time>2021-06-26T05:23:39Z</time>
      </trkpt>
      <trkpt lat="46.15908" lon="6.34282">
        <ele>572.4</ele>
        <time>2021-06-26T05:23:40Z</time>
      </trkpt>
      <trkpt lat="46.15908" lon="6.34282">
        <ele>572.4</ele>
        <time>2021-06-26T05:23:41Z</time>
      </trkpt>
      <trkpt lat="46.15908" lon="6.34282">
        <ele>572.4</ele>
        <time>2021-06-26T05:23:42Z</time>
      </trkpt>
      <trkpt lat="46.15909" lon="6.34281">
        <ele>573.6</ele>
        <time>2021-06-26T05:24:00Z</time>
      </trkpt>
      <trkpt lat="46.15909" lon="6.34281">
        <ele>573.4</ele>
        <time>2021-06-26T05:24:28Z</time>
      </trkpt>
      <trkpt lat="46.15909" lon="6.34281">
        <ele>573.4</ele>
        <time>2021-06-26T05:24:48Z</time>
      </trkpt>
      <trkpt lat="46.15912" lon="6.34286">
        <ele>573.4</ele>
        <time>2021-06-26T05:25:18Z</time>
      </trkpt>
      <trkpt lat="46.15921" lon="6.34301">
        <ele>573.2</ele>
        <time>2021-06-26T05:25:23Z</time>
      </trkpt>
      <trkpt lat="46.15926" lon="6.3431">
        <ele>573.2</ele>
        <time>2021-06-26T05:25:25Z</time>
      </trkpt>
      <trkpt lat="46.15937" lon="6.34332">
        <ele>573.2</ele>
        <time>2021-06-26T05:25:29Z</time>
      </trkpt>
      <trkpt lat="46.1596" lon="6.34364">
        <ele>572.6</ele>
        <time>2021-06-26T05:25:35Z</time>
      </trkpt>
      <trkpt lat="46.15973" lon="6.34378">
        <ele>572.6</ele>
        <time>2021-06-26T05:25:38Z</time>
      </trkpt>
      <trkpt lat="46.15977" lon="6.34382">
        <ele>572.6</ele>
        <time>2021-06-26T05:25:39Z</time>
      </trkpt>
      <trkpt lat="46.15982" lon="6.34386">
        <ele>572.6</ele>
        <time>2021-06-26T05:25:40Z</time>
      </trkpt>
      <trkpt lat="46.15991" lon="6.34394">
        <ele>572.6</ele>
        <time>2021-06-26T05:25:42Z</time>
      </trkpt>
      <trkpt lat="46.16004" lon="6.34407">
        <ele>572.6</ele>
        <time>2021-06-26T05:25:45Z</time>
      </trkpt>
      <trkpt lat="46.16019" lon="6.34421">
        <ele>572.6</ele>
        <time>2021-06-26T05:25:48Z</time>
      </trkpt>
      <trkpt lat="46.16056" lon="6.34466">
        <ele>572.8</ele>
        <time>2021-06-26T05:25:56Z</time>
      </trkpt>
      <trkpt lat="46.1606" lon="6.34472">
        <ele>572.8</ele>
        <time>2021-06-26T05:25:57Z</time>
      </trkpt>
      <trkpt lat="46.16064" lon="6.34478">
        <ele>572.8</ele>
        <time>2021-06-26T05:25:58Z</time>
      </trkpt>
      <trkpt lat="46.16068" lon="6.34484">
        <ele>572.8</ele>
        <time>2021-06-26T05:25:59Z</time>
      </trkpt>
      <trkpt lat="46.16072" lon="6.34491">
        <ele>572.8</ele>
        <time>2021-06-26T05:26:00Z</time>
      </trkpt>
      <trkpt lat="46.16077" lon="6.34506">
        <ele>572.8</ele>
        <time>2021-06-26T05:26:02Z</time>
      </trkpt>
      <trkpt lat="46.16089" lon="6.34556">
        <ele>573</ele>
        <time>2021-06-26T05:26:08Z</time>
      </trkpt>
      <trkpt lat="46.16091" lon="6.34564">
        <ele>573</ele>
        <time>2021-06-26T05:26:09Z</time>
      </trkpt>
      <trkpt lat="46.16096" lon="6.3459">
        <ele>572.8</ele>
        <time>2021-06-26T05:26:12Z</time>
      </trkpt>
      <trkpt lat="46.16098" lon="6.34598">
        <ele>573</ele>
        <time>2021-06-26T05:26:13Z</time>
      </trkpt>
      <trkpt lat="46.16099" lon="6.34606">
        <ele>572.8</ele>
        <time>2021-06-26T05:26:14Z</time>
      </trkpt>
      <trkpt lat="46.16102" lon="6.34623">
        <ele>572.8</ele>
        <time>2021-06-26T05:26:16Z</time>
      </trkpt>
      <trkpt lat="46.16104" lon="6.34631">
        <ele>573</ele>
        <time>2021-06-26T05:26:17Z</time>
      </trkpt>
      <trkpt lat="46.1611" lon="6.34667">
        <ele>572.4</ele>
        <time>2021-06-26T05:26:21Z</time>
      </trkpt>
      <trkpt lat="46.16117" lon="6.34706">
        <ele>571.8</ele>
        <time>2021-06-26T05:26:25Z</time>
      </trkpt>
      <trkpt lat="46.1612" lon="6.34715">
        <ele>571.6</ele>
        <time>2021-06-26T05:26:26Z</time>
      </trkpt>
      <trkpt lat="46.16129" lon="6.34734">
        <ele>571.2</ele>
        <time>2021-06-26T05:26:28Z</time>
      </trkpt>
      <trkpt lat="46.16134" lon="6.34743">
        <ele>571</ele>
        <time>2021-06-26T05:26:29Z</time>
      </trkpt>
      <trkpt lat="46.1615" lon="6.34772">
        <ele>570.6</ele>
        <time>2021-06-26T05:26:32Z</time>
      </trkpt>
      <trkpt lat="46.1616" lon="6.34796">
        <ele>570</ele>
        <time>2021-06-26T05:26:34Z</time>
      </trkpt>
      <trkpt lat="46.16164" lon="6.34809">
        <ele>569.8</ele>
        <time>2021-06-26T05:26:35Z</time>
      </trkpt>
      <trkpt lat="46.16169" lon="6.34837">
        <ele>568.8</ele>
        <time>2021-06-26T05:26:37Z</time>
      </trkpt>
      <trkpt lat="46.1617" lon="6.34852">
        <ele>568</ele>
        <time>2021-06-26T05:26:38Z</time>
      </trkpt>
      <trkpt lat="46.1617" lon="6.34867">
        <ele>567</ele>
        <time>2021-06-26T05:26:39Z</time>
      </trkpt>
      <trkpt lat="46.16168" lon="6.34881">
        <ele>566.4</ele>
        <time>2021-06-26T05:26:40Z</time>
      </trkpt>
      <trkpt lat="46.16166" lon="6.34896">
        <ele>565.8</ele>
        <time>2021-06-26T05:26:41Z</time>
      </trkpt>
      <trkpt lat="46.16163" lon="6.34911">
        <ele>564.8</ele>
        <time>2021-06-26T05:26:42Z</time>
      </trkpt>
      <trkpt lat="46.16156" lon="6.34942">
        <ele>563.2</ele>
        <time>2021-06-26T05:26:44Z</time>
      </trkpt>
      <trkpt lat="46.16148" lon="6.34972">
        <ele>561.8</ele>
        <time>2021-06-26T05:26:46Z</time>
      </trkpt>
      <trkpt lat="46.16137" lon="6.34999">
        <ele>560.6</ele>
        <time>2021-06-26T05:26:48Z</time>
      </trkpt>
      <trkpt lat="46.16132" lon="6.35011">
        <ele>559.4</ele>
        <time>2021-06-26T05:26:49Z</time>
      </trkpt>
      <trkpt lat="46.16127" lon="6.35022">
        <ele>558.6</ele>
        <time>2021-06-26T05:26:50Z</time>
      </trkpt>
      <trkpt lat="46.16123" lon="6.35035">
        <ele>557.6</ele>
        <time>2021-06-26T05:26:51Z</time>
      </trkpt>
      <trkpt lat="46.1612" lon="6.35048">
        <ele>557</ele>
        <time>2021-06-26T05:26:52Z</time>
      </trkpt>
      <trkpt lat="46.16121" lon="6.35061">
        <ele>556</ele>
        <time>2021-06-26T05:26:53Z</time>
      </trkpt>
      <trkpt lat="46.16122" lon="6.35075">
        <ele>555.2</ele>
        <time>2021-06-26T05:26:54Z</time>
      </trkpt>
      <trkpt lat="46.16125" lon="6.35088">
        <ele>554</ele>
        <time>2021-06-26T05:26:55Z</time>
      </trkpt>
      <trkpt lat="46.16128" lon="6.35101">
        <ele>554</ele>
        <time>2021-06-26T05:26:56Z</time>
      </trkpt>
      <trkpt lat="46.16132" lon="6.35114">
        <ele>553.4</ele>
        <time>2021-06-26T05:26:57Z</time>
      </trkpt>
      <trkpt lat="46.16135" lon="6.35128">
        <ele>552.6</ele>
        <time>2021-06-26T05:26:58Z</time>
      </trkpt>
      <trkpt lat="46.16143" lon="6.35155">
        <ele>551.8</ele>
        <time>2021-06-26T05:27:00Z</time>
      </trkpt>
      <trkpt lat="46.1615" lon="6.35183">
        <ele>550.2</ele>
        <time>2021-06-26T05:27:02Z</time>
      </trkpt>
      <trkpt lat="46.16157" lon="6.35209">
        <ele>549</ele>
        <time>2021-06-26T05:27:04Z</time>
      </trkpt>
      <trkpt lat="46.1616" lon="6.35222">
        <ele>548.4</ele>
        <time>2021-06-26T05:27:05Z</time>
      </trkpt>
      <trkpt lat="46.16162" lon="6.35233">
        <ele>547.8</ele>
        <time>2021-06-26T05:27:06Z</time>
      </trkpt>
      <trkpt lat="46.16164" lon="6.35245">
        <ele>547.2</ele>
        <time>2021-06-26T05:27:07Z</time>
      </trkpt>
      <trkpt lat="46.16166" lon="6.35255">
        <ele>546.6</ele>
        <time>2021-06-26T05:27:08Z</time>
      </trkpt>
      <trkpt lat="46.16168" lon="6.35265">
        <ele>545.6</ele>
        <time>2021-06-26T05:27:09Z</time>
      </trkpt>
      <trkpt lat="46.16169" lon="6.35274">
        <ele>544.8</ele>
        <time>2021-06-26T05:27:10Z</time>
      </trkpt>
      <trkpt lat="46.16169" lon="6.35282">
        <ele>544.2</ele>
        <time>2021-06-26T05:27:11Z</time>
      </trkpt>
      <trkpt lat="46.16169" lon="6.35288">
        <ele>544</ele>
        <time>2021-06-26T05:27:12Z</time>
      </trkpt>
      <trkpt lat="46.16169" lon="6.35294">
        <ele>543.8</ele>
        <time>2021-06-26T05:27:13Z</time>
      </trkpt>
      <trkpt lat="46.16168" lon="6.35298">
        <ele>543.8</ele>
        <time>2021-06-26T05:27:14Z</time>
      </trkpt>
      <trkpt lat="46.16167" lon="6.35302">
        <ele>543.6</ele>
        <time>2021-06-26T05:27:15Z</time>
      </trkpt>
      <trkpt lat="46.16167" lon="6.35304">
        <ele>543.6</ele>
        <time>2021-06-26T05:27:16Z</time>
      </trkpt>
      <trkpt lat="46.16166" lon="6.35305">
        <ele>543.6</ele>
        <time>2021-06-26T05:27:17Z</time>
      </trkpt>
      <trkpt lat="46.16167" lon="6.35305">
        <ele>543.8</ele>
        <time>2021-06-26T05:27:18Z</time>
      </trkpt>
      <trkpt lat="46.16165" lon="6.35311">
        <ele>543.6</ele>
        <time>2021-06-26T05:27:22Z</time>
      </trkpt>
      <trkpt lat="46.16164" lon="6.35317">
        <ele>544</ele>
        <time>2021-06-26T05:27:24Z</time>
      </trkpt>
      <trkpt lat="46.16163" lon="6.3532">
        <ele>544.2</ele>
        <time>2021-06-26T05:27:25Z</time>
      </trkpt>
      <trkpt lat="46.16161" lon="6.35324">
        <ele>544.2</ele>
        <time>2021-06-26T05:27:26Z</time>
      </trkpt>
      <trkpt lat="46.16154" lon="6.35343">
        <ele>544.4</ele>
        <time>2021-06-26T05:27:30Z</time>
      </trkpt>
      <trkpt lat="46.16152" lon="6.35348">
        <ele>544.6</ele>
        <time>2021-06-26T05:27:31Z</time>
      </trkpt>
      <trkpt lat="46.16142" lon="6.35365">
        <ele>544.4</ele>
        <time>2021-06-26T05:27:34Z</time>
      </trkpt>
      <trkpt lat="46.16135" lon="6.35378">
        <ele>544.6</ele>
        <time>2021-06-26T05:27:36Z</time>
      </trkpt>
      <trkpt lat="46.16104" lon="6.35439">
        <ele>544.6</ele>
        <time>2021-06-26T05:27:45Z</time>
      </trkpt>
      <trkpt lat="46.16101" lon="6.35446">
        <ele>544.6</ele>
        <time>2021-06-26T05:27:46Z</time>
      </trkpt>
      <trkpt lat="46.16097" lon="6.35452">
        <ele>544.6</ele>
        <time>2021-06-26T05:27:47Z</time>
      </trkpt>
      <trkpt lat="46.16085" lon="6.3547">
        <ele>544.8</ele>
        <time>2021-06-26T05:27:50Z</time>
      </trkpt>
      <trkpt lat="46.1608" lon="6.35476">
        <ele>544.6</ele>
        <time>2021-06-26T05:27:51Z</time>
      </trkpt>
      <trkpt lat="46.16076" lon="6.35482">
        <ele>544.8</ele>
        <time>2021-06-26T05:27:52Z</time>
      </trkpt>
      <trkpt lat="46.16034" lon="6.3552">
        <ele>545.2</ele>
        <time>2021-06-26T05:28:00Z</time>
      </trkpt>
      <trkpt lat="46.15996" lon="6.35556">
        <ele>545.6</ele>
        <time>2021-06-26T05:28:07Z</time>
      </trkpt>
      <trkpt lat="46.15991" lon="6.35561">
        <ele>545.8</ele>
        <time>2021-06-26T05:28:08Z</time>
      </trkpt>
      <trkpt lat="46.15975" lon="6.35575">
        <ele>545.8</ele>
        <time>2021-06-26T05:28:11Z</time>
      </trkpt>
      <trkpt lat="46.1597" lon="6.3558">
        <ele>545.8</ele>
        <time>2021-06-26T05:28:12Z</time>
      </trkpt>
      <trkpt lat="46.15964" lon="6.35586">
        <ele>545.8</ele>
        <time>2021-06-26T05:28:13Z</time>
      </trkpt>
      <trkpt lat="46.15959" lon="6.35591">
        <ele>545.8</ele>
        <time>2021-06-26T05:28:14Z</time>
      </trkpt>
      <trkpt lat="46.15949" lon="6.35601">
        <ele>545.8</ele>
        <time>2021-06-26T05:28:16Z</time>
      </trkpt>
      <trkpt lat="46.15945" lon="6.35606">
        <ele>545.8</ele>
        <time>2021-06-26T05:28:17Z</time>
      </trkpt>
      <trkpt lat="46.15941" lon="6.35612">
        <ele>546</ele>
        <time>2021-06-26T05:28:18Z</time>
      </trkpt>
      <trkpt lat="46.15936" lon="6.35618">
        <ele>545.8</ele>
        <time>2021-06-26T05:28:19Z</time>
      </trkpt>
      <trkpt lat="46.15928" lon="6.35631">
        <ele>546</ele>
        <time>2021-06-26T05:28:21Z</time>
      </trkpt>
      <trkpt lat="46.15917" lon="6.35664">
        <ele>546.4</ele>
        <time>2021-06-26T05:28:25Z</time>
      </trkpt>
      <trkpt lat="46.15915" lon="6.35673">
        <ele>546.6</ele>
        <time>2021-06-26T05:28:26Z</time>
      </trkpt>
      <trkpt lat="46.15906" lon="6.35729">
        <ele>546.8</ele>
        <time>2021-06-26T05:28:32Z</time>
      </trkpt>
      <trkpt lat="46.15905" lon="6.35767">
        <ele>547.4</ele>
        <time>2021-06-26T05:28:36Z</time>
      </trkpt>
      <trkpt lat="46.15905" lon="6.35776">
        <ele>547.4</ele>
        <time>2021-06-26T05:28:37Z</time>
      </trkpt>
      <trkpt lat="46.15905" lon="6.35785">
        <ele>547.6</ele>
        <time>2021-06-26T05:28:38Z</time>
      </trkpt>
      <trkpt lat="46.15906" lon="6.35803">
        <ele>547.4</ele>
        <time>2021-06-26T05:28:40Z</time>
      </trkpt>
      <trkpt lat="46.15906" lon="6.35811">
        <ele>547.6</ele>
        <time>2021-06-26T05:28:41Z</time>
      </trkpt>
      <trkpt lat="46.15907" lon="6.35819">
        <ele>547.6</ele>
        <time>2021-06-26T05:28:42Z</time>
      </trkpt>
      <trkpt lat="46.15907" lon="6.35824">
        <ele>547.8</ele>
        <time>2021-06-26T05:28:43Z</time>
      </trkpt>
      <trkpt lat="46.15908" lon="6.35829">
        <ele>547.8</ele>
        <time>2021-06-26T05:28:44Z</time>
      </trkpt>
      <trkpt lat="46.15908" lon="6.35832">
        <ele>548</ele>
        <time>2021-06-26T05:28:45Z</time>
      </trkpt>
      <trkpt lat="46.15909" lon="6.35835">
        <ele>548</ele>
        <time>2021-06-26T05:28:46Z</time>
      </trkpt>
      <trkpt lat="46.15909" lon="6.35836">
        <ele>548</ele>
        <time>2021-06-26T05:28:47Z</time>
      </trkpt>
      <trkpt lat="46.15909" lon="6.35837">
        <ele>548.2</ele>
        <time>2021-06-26T05:28:48Z</time>
      </trkpt>
      <trkpt lat="46.15913" lon="6.35839">
        <ele>549</ele>
        <time>2021-06-26T05:28:56Z</time>
      </trkpt>
      <trkpt lat="46.15915" lon="6.3584">
        <ele>549</ele>
        <time>2021-06-26T05:28:57Z</time>
      </trkpt>
      <trkpt lat="46.15921" lon="6.35853">
        <ele>549.2</ele>
        <time>2021-06-26T05:29:00Z</time>
      </trkpt>
      <trkpt lat="46.15926" lon="6.35863">
        <ele>549</ele>
        <time>2021-06-26T05:29:02Z</time>
      </trkpt>
      <trkpt lat="46.15934" lon="6.35885">
        <ele>548.6</ele>
        <time>2021-06-26T05:29:06Z</time>
      </trkpt>
      <trkpt lat="46.15936" lon="6.3589">
        <ele>548.8</ele>
        <time>2021-06-26T05:29:07Z</time>
      </trkpt>
      <trkpt lat="46.15938" lon="6.35895">
        <ele>548.6</ele>
        <time>2021-06-26T05:29:08Z</time>
      </trkpt>
      <trkpt lat="46.15943" lon="6.35906">
        <ele>548.6</ele>
        <time>2021-06-26T05:29:10Z</time>
      </trkpt>
      <trkpt lat="46.15945" lon="6.35911">
        <ele>548.6</ele>
        <time>2021-06-26T05:29:11Z</time>
      </trkpt>
      <trkpt lat="46.15947" lon="6.35916">
        <ele>548.6</ele>
        <time>2021-06-26T05:29:12Z</time>
      </trkpt>
      <trkpt lat="46.15949" lon="6.3592">
        <ele>548.6</ele>
        <time>2021-06-26T05:29:13Z</time>
      </trkpt>
      <trkpt lat="46.15952" lon="6.35925">
        <ele>548.8</ele>
        <time>2021-06-26T05:29:14Z</time>
      </trkpt>
      <trkpt lat="46.15954" lon="6.35929">
        <ele>548.8</ele>
        <time>2021-06-26T05:29:15Z</time>
      </trkpt>
      <trkpt lat="46.15956" lon="6.35933">
        <ele>548.8</ele>
        <time>2021-06-26T05:29:16Z</time>
      </trkpt>
      <trkpt lat="46.15958" lon="6.35937">
        <ele>548.8</ele>
        <time>2021-06-26T05:29:17Z</time>
      </trkpt>
      <trkpt lat="46.15959" lon="6.35942">
        <ele>549</ele>
        <time>2021-06-26T05:29:18Z</time>
      </trkpt>
      <trkpt lat="46.15961" lon="6.35946">
        <ele>549.4</ele>
        <time>2021-06-26T05:29:19Z</time>
      </trkpt>
      <trkpt lat="46.15962" lon="6.3595">
        <ele>549.6</ele>
        <time>2021-06-26T05:29:20Z</time>
      </trkpt>
      <trkpt lat="46.15964" lon="6.35955">
        <ele>550</ele>
        <time>2021-06-26T05:29:21Z</time>
      </trkpt>
      <trkpt lat="46.15966" lon="6.35959">
        <ele>550.6</ele>
        <time>2021-06-26T05:29:22Z</time>
      </trkpt>
      <trkpt lat="46.15967" lon="6.35964">
        <ele>550.8</ele>
        <time>2021-06-26T05:29:23Z</time>
      </trkpt>
      <trkpt lat="46.15968" lon="6.3597">
        <ele>551.2</ele>
        <time>2021-06-26T05:29:24Z</time>
      </trkpt>
      <trkpt lat="46.1597" lon="6.35975">
        <ele>551.4</ele>
        <time>2021-06-26T05:29:25Z</time>
      </trkpt>
      <trkpt lat="46.15971" lon="6.35981">
        <ele>551.8</ele>
        <time>2021-06-26T05:29:26Z</time>
      </trkpt>
      <trkpt lat="46.15973" lon="6.35986">
        <ele>552</ele>
        <time>2021-06-26T05:29:27Z</time>
      </trkpt>
      <trkpt lat="46.15975" lon="6.35992">
        <ele>552.4</ele>
        <time>2021-06-26T05:29:28Z</time>
      </trkpt>
      <trkpt lat="46.15977" lon="6.35997">
        <ele>552.4</ele>
        <time>2021-06-26T05:29:29Z</time>
      </trkpt>
      <trkpt lat="46.15979" lon="6.36002">
        <ele>552.8</ele>
        <time>2021-06-26T05:29:30Z</time>
      </trkpt>
      <trkpt lat="46.1598" lon="6.36007">
        <ele>553.2</ele>
        <time>2021-06-26T05:29:31Z</time>
      </trkpt>
      <trkpt lat="46.15982" lon="6.36012">
        <ele>553.2</ele>
        <time>2021-06-26T05:29:32Z</time>
      </trkpt>
      <trkpt lat="46.15984" lon="6.36017">
        <ele>553.6</ele>
        <time>2021-06-26T05:29:33Z</time>
      </trkpt>
      <trkpt lat="46.15986" lon="6.36022">
        <ele>554</ele>
        <time>2021-06-26T05:29:34Z</time>
      </trkpt>
      <trkpt lat="46.15987" lon="6.36027">
        <ele>554.2</ele>
        <time>2021-06-26T05:29:35Z</time>
      </trkpt>
      <trkpt lat="46.15989" lon="6.36032">
        <ele>554.6</ele>
        <time>2021-06-26T05:29:36Z</time>
      </trkpt>
      <trkpt lat="46.1599" lon="6.36036">
        <ele>554.8</ele>
        <time>2021-06-26T05:29:37Z</time>
      </trkpt>
      <trkpt lat="46.15992" lon="6.36041">
        <ele>554.8</ele>
        <time>2021-06-26T05:29:38Z</time>
      </trkpt>
      <trkpt lat="46.15994" lon="6.36045">
        <ele>555</ele>
        <time>2021-06-26T05:29:39Z</time>
      </trkpt>
      <trkpt lat="46.15996" lon="6.3605">
        <ele>555.2</ele>
        <time>2021-06-26T05:29:40Z</time>
      </trkpt>
      <trkpt lat="46.15998" lon="6.36055">
        <ele>555.8</ele>
        <time>2021-06-26T05:29:41Z</time>
      </trkpt>
      <trkpt lat="46.15999" lon="6.36059">
        <ele>555.8</ele>
        <time>2021-06-26T05:29:42Z</time>
      </trkpt>
      <trkpt lat="46.16001" lon="6.36064">
        <ele>556</ele>
        <time>2021-06-26T05:29:43Z</time>
      </trkpt>
      <trkpt lat="46.16003" lon="6.36068">
        <ele>556.4</ele>
        <time>2021-06-26T05:29:44Z</time>
      </trkpt>
      <trkpt lat="46.16005" lon="6.36073">
        <ele>556.8</ele>
        <time>2021-06-26T05:29:45Z</time>
      </trkpt>
      <trkpt lat="46.16007" lon="6.36077">
        <ele>557</ele>
        <time>2021-06-26T05:29:46Z</time>
      </trkpt>
      <trkpt lat="46.16009" lon="6.36082">
        <ele>557.4</ele>
        <time>2021-06-26T05:29:47Z</time>
      </trkpt>
      <trkpt lat="46.16011" lon="6.36086">
        <ele>557.8</ele>
        <time>2021-06-26T05:29:48Z</time>
      </trkpt>
      <trkpt lat="46.16013" lon="6.36091">
        <ele>558.2</ele>
        <time>2021-06-26T05:29:49Z</time>
      </trkpt>
      <trkpt lat="46.16015" lon="6.36095">
        <ele>558.4</ele>
        <time>2021-06-26T05:29:50Z</time>
      </trkpt>
      <trkpt lat="46.16017" lon="6.361">
        <ele>558.6</ele>
        <time>2021-06-26T05:29:51Z</time>
      </trkpt>
      <trkpt lat="46.16018" lon="6.36105">
        <ele>559</ele>
        <time>2021-06-26T05:29:52Z</time>
      </trkpt>
      <trkpt lat="46.1602" lon="6.36109">
        <ele>559.2</ele>
        <time>2021-06-26T05:29:53Z</time>
      </trkpt>
      <trkpt lat="46.16022" lon="6.36114">
        <ele>559.6</ele>
        <time>2021-06-26T05:29:54Z</time>
      </trkpt>
      <trkpt lat="46.16024" lon="6.36118">
        <ele>559.8</ele>
        <time>2021-06-26T05:29:55Z</time>
      </trkpt>
      <trkpt lat="46.16026" lon="6.36122">
        <ele>560.2</ele>
        <time>2021-06-26T05:29:56Z</time>
      </trkpt>
      <trkpt lat="46.16028" lon="6.36127">
        <ele>560.4</ele>
        <time>2021-06-26T05:29:57Z</time>
      </trkpt>
      <trkpt lat="46.16029" lon="6.36131">
        <ele>560.6</ele>
        <time>2021-06-26T05:29:58Z</time>
      </trkpt>
      <trkpt lat="46.16031" lon="6.36135">
        <ele>561</ele>
        <time>2021-06-26T05:29:59Z</time>
      </trkpt>
      <trkpt lat="46.16033" lon="6.36139">
        <ele>561.2</ele>
        <time>2021-06-26T05:30:00Z</time>
      </trkpt>
      <trkpt lat="46.16035" lon="6.36143">
        <ele>561.2</ele>
        <time>2021-06-26T05:30:01Z</time>
      </trkpt>
      <trkpt lat="46.16037" lon="6.36147">
        <ele>561.2</ele>
        <time>2021-06-26T05:30:02Z</time>
      </trkpt>
      <trkpt lat="46.16039" lon="6.36151">
        <ele>561.4</ele>
        <time>2021-06-26T05:30:03Z</time>
      </trkpt>
      <trkpt lat="46.16041" lon="6.36155">
        <ele>561.8</ele>
        <time>2021-06-26T05:30:04Z</time>
      </trkpt>
      <trkpt lat="46.16043" lon="6.36159">
        <ele>562.2</ele>
        <time>2021-06-26T05:30:05Z</time>
      </trkpt>
      <trkpt lat="46.16045" lon="6.36163">
        <ele>562.6</ele>
        <time>2021-06-26T05:30:06Z</time>
      </trkpt>
      <trkpt lat="46.16046" lon="6.36168">
        <ele>563</ele>
        <time>2021-06-26T05:30:07Z</time>
      </trkpt>
      <trkpt lat="46.16048" lon="6.36172">
        <ele>563.4</ele>
        <time>2021-06-26T05:30:08Z</time>
      </trkpt>
      <trkpt lat="46.16049" lon="6.36176">
        <ele>563.6</ele>
        <time>2021-06-26T05:30:09Z</time>
      </trkpt>
      <trkpt lat="46.16051" lon="6.3618">
        <ele>563.8</ele>
        <time>2021-06-26T05:30:10Z</time>
      </trkpt>
      <trkpt lat="46.16053" lon="6.36184">
        <ele>564</ele>
        <time>2021-06-26T05:30:11Z</time>
      </trkpt>
      <trkpt lat="46.16054" lon="6.36188">
        <ele>564.4</ele>
        <time>2021-06-26T05:30:12Z</time>
      </trkpt>
      <trkpt lat="46.16056" lon="6.36192">
        <ele>564.6</ele>
        <time>2021-06-26T05:30:13Z</time>
      </trkpt>
      <trkpt lat="46.16057" lon="6.36196">
        <ele>564.8</ele>
        <time>2021-06-26T05:30:14Z</time>
      </trkpt>
      <trkpt lat="46.16058" lon="6.36201">
        <ele>565.2</ele>
        <time>2021-06-26T05:30:15Z</time>
      </trkpt>
      <trkpt lat="46.1606" lon="6.36205">
        <ele>565.2</ele>
        <time>2021-06-26T05:30:16Z</time>
      </trkpt>
      <trkpt lat="46.16061" lon="6.3621">
        <ele>565.4</ele>
        <time>2021-06-26T05:30:17Z</time>
      </trkpt>
      <trkpt lat="46.16062" lon="6.36214">
        <ele>565.6</ele>
        <time>2021-06-26T05:30:18Z</time>
      </trkpt>
      <trkpt lat="46.16064" lon="6.36218">
        <ele>566</ele>
        <time>2021-06-26T05:30:19Z</time>
      </trkpt>
      <trkpt lat="46.16065" lon="6.36222">
        <ele>566</ele>
        <time>2021-06-26T05:30:20Z</time>
      </trkpt>
      <trkpt lat="46.16066" lon="6.36227">
        <ele>566.4</ele>
        <time>2021-06-26T05:30:21Z</time>
      </trkpt>
      <trkpt lat="46.16066" lon="6.36231">
        <ele>566.4</ele>
        <time>2021-06-26T05:30:22Z</time>
      </trkpt>
      <trkpt lat="46.16067" lon="6.36236">
        <ele>566.8</ele>
        <time>2021-06-26T05:30:23Z</time>
      </trkpt>
      <trkpt lat="46.16068" lon="6.3624">
        <ele>567</ele>
        <time>2021-06-26T05:30:24Z</time>
      </trkpt>
      <trkpt lat="46.16068" lon="6.36244">
        <ele>567</ele>
        <time>2021-06-26T05:30:25Z</time>
      </trkpt>
      <trkpt lat="46.16068" lon="6.36248">
        <ele>567.4</ele>
        <time>2021-06-26T05:30:26Z</time>
      </trkpt>
      <trkpt lat="46.16068" lon="6.36252">
        <ele>567.4</ele>
        <time>2021-06-26T05:30:27Z</time>
      </trkpt>
      <trkpt lat="46.16068" lon="6.36257">
        <ele>567.8</ele>
        <time>2021-06-26T05:30:28Z</time>
      </trkpt>
      <trkpt lat="46.16068" lon="6.36261">
        <ele>568.2</ele>
        <time>2021-06-26T05:30:29Z</time>
      </trkpt>
      <trkpt lat="46.16068" lon="6.36265">
        <ele>568.2</ele>
        <time>2021-06-26T05:30:30Z</time>
      </trkpt>
      <trkpt lat="46.16069" lon="6.36269">
        <ele>568.6</ele>
        <time>2021-06-26T05:30:31Z</time>
      </trkpt>
      <trkpt lat="46.16069" lon="6.36273">
        <ele>569</ele>
        <time>2021-06-26T05:30:32Z</time>
      </trkpt>
      <trkpt lat="46.16068" lon="6.36277">
        <ele>569.2</ele>
        <time>2021-06-26T05:30:33Z</time>
      </trkpt>
      <trkpt lat="46.16068" lon="6.36281">
        <ele>569.8</ele>
        <time>2021-06-26T05:30:34Z</time>
      </trkpt>
      <trkpt lat="46.16068" lon="6.36285">
        <ele>570</ele>
        <time>2021-06-26T05:30:35Z</time>
      </trkpt>
      <trkpt lat="46.16068" lon="6.36289">
        <ele>570.2</ele>
        <time>2021-06-26T05:30:36Z</time>
      </trkpt>
      <trkpt lat="46.16068" lon="6.36293">
        <ele>570.6</ele>
        <time>2021-06-26T05:30:37Z</time>
      </trkpt>
      <trkpt lat="46.16068" lon="6.36298">
        <ele>570.8</ele>
        <time>2021-06-26T05:30:38Z</time>
      </trkpt>
      <trkpt lat="46.16067" lon="6.36302">
        <ele>571</ele>
        <time>2021-06-26T05:30:39Z</time>
      </trkpt>
      <trkpt lat="46.16067" lon="6.36307">
        <ele>571.4</ele>
        <time>2021-06-26T05:30:40Z</time>
      </trkpt>
      <trkpt lat="46.16067" lon="6.36311">
        <ele>572</ele>
        <time>2021-06-26T05:30:41Z</time>
      </trkpt>
      <trkpt lat="46.16066" lon="6.36315">
        <ele>572</ele>
        <time>2021-06-26T05:30:42Z</time>
      </trkpt>
      <trkpt lat="46.16066" lon="6.3632">
        <ele>572.4</ele>
        <time>2021-06-26T05:30:43Z</time>
      </trkpt>
      <trkpt lat="46.16065" lon="6.36324">
        <ele>572.8</ele>
        <time>2021-06-26T05:30:44Z</time>
      </trkpt>
      <trkpt lat="46.16064" lon="6.36328">
        <ele>572.8</ele>
        <time>2021-06-26T05:30:45Z</time>
      </trkpt>
      <trkpt lat="46.16064" lon="6.36333">
        <ele>573.2</ele>
        <time>2021-06-26T05:30:46Z</time>
      </trkpt>
      <trkpt lat="46.16064" lon="6.36337">
        <ele>573.4</ele>
        <time>2021-06-26T05:30:47Z</time>
      </trkpt>
      <trkpt lat="46.16064" lon="6.36341">
        <ele>573.4</ele>
        <time>2021-06-26T05:30:48Z</time>
      </trkpt>
      <trkpt lat="46.16063" lon="6.36346">
        <ele>573.6</ele>
        <time>2021-06-26T05:30:49Z</time>
      </trkpt>
      <trkpt lat="46.16063" lon="6.3635">
        <ele>573.8</ele>
        <time>2021-06-26T05:30:50Z</time>
      </trkpt>
      <trkpt lat="46.16062" lon="6.36355">
        <ele>574</ele>
        <time>2021-06-26T05:30:51Z</time>
      </trkpt>
      <trkpt lat="46.16062" lon="6.36359">
        <ele>574.2</ele>
        <time>2021-06-26T05:30:52Z</time>
      </trkpt>
      <trkpt lat="46.16061" lon="6.36363">
        <ele>574.6</ele>
        <time>2021-06-26T05:30:53Z</time>
      </trkpt>
      <trkpt lat="46.16061" lon="6.36367">
        <ele>574.6</ele>
        <time>2021-06-26T05:30:54Z</time>
      </trkpt>
      <trkpt lat="46.16061" lon="6.36372">
        <ele>574.8</ele>
        <time>2021-06-26T05:30:55Z</time>
      </trkpt>
      <trkpt lat="46.16061" lon="6.36376">
        <ele>575</ele>
        <time>2021-06-26T05:30:56Z</time>
      </trkpt>
      <trkpt lat="46.1606" lon="6.36381">
        <ele>575.2</ele>
        <time>2021-06-26T05:30:57Z</time>
      </trkpt>
      <trkpt lat="46.1606" lon="6.36385">
        <ele>575.6</ele>
        <time>2021-06-26T05:30:58Z</time>
      </trkpt>
      <trkpt lat="46.1606" lon="6.36389">
        <ele>575.8</ele>
        <time>2021-06-26T05:30:59Z</time>
      </trkpt>
      <trkpt lat="46.16059" lon="6.36394">
        <ele>576</ele>
        <time>2021-06-26T05:31:00Z</time>
      </trkpt>
      <trkpt lat="46.16059" lon="6.36398">
        <ele>576.2</ele>
        <time>2021-06-26T05:31:01Z</time>
      </trkpt>
      <trkpt lat="46.16059" lon="6.36402">
        <ele>576.4</ele>
        <time>2021-06-26T05:31:02Z</time>
      </trkpt>
      <trkpt lat="46.16059" lon="6.36406">
        <ele>576.6</ele>
        <time>2021-06-26T05:31:03Z</time>
      </trkpt>
      <trkpt lat="46.16059" lon="6.3641">
        <ele>576.8</ele>
        <time>2021-06-26T05:31:04Z</time>
      </trkpt>
      <trkpt lat="46.16059" lon="6.36415">
        <ele>577</ele>
        <time>2021-06-26T05:31:05Z</time>
      </trkpt>
      <trkpt lat="46.16059" lon="6.36419">
        <ele>577</ele>
        <time>2021-06-26T05:31:06Z</time>
      </trkpt>
      <trkpt lat="46.16058" lon="6.36423">
        <ele>577.4</ele>
        <time>2021-06-26T05:31:07Z</time>
      </trkpt>
      <trkpt lat="46.16058" lon="6.36427">
        <ele>577.4</ele>
        <time>2021-06-26T05:31:08Z</time>
      </trkpt>
      <trkpt lat="46.16058" lon="6.36431">
        <ele>577.8</ele>
        <time>2021-06-26T05:31:09Z</time>
      </trkpt>
      <trkpt lat="46.16059" lon="6.36435">
        <ele>578</ele>
        <time>2021-06-26T05:31:10Z</time>
      </trkpt>
      <trkpt lat="46.16059" lon="6.3644">
        <ele>578</ele>
        <time>2021-06-26T05:31:11Z</time>
      </trkpt>
      <trkpt lat="46.16059" lon="6.36444">
        <ele>578.2</ele>
        <time>2021-06-26T05:31:12Z</time>
      </trkpt>
      <trkpt lat="46.16059" lon="6.36448">
        <ele>578.6</ele>
        <time>2021-06-26T05:31:13Z</time>
      </trkpt>
      <trkpt lat="46.16059" lon="6.36453">
        <ele>578.8</ele>
        <time>2021-06-26T05:31:14Z</time>
      </trkpt>
      <trkpt lat="46.16059" lon="6.36457">
        <ele>579.2</ele>
        <time>2021-06-26T05:31:15Z</time>
      </trkpt>
      <trkpt lat="46.1606" lon="6.36461">
        <ele>579.4</ele>
        <time>2021-06-26T05:31:16Z</time>
      </trkpt>
      <trkpt lat="46.1606" lon="6.36466">
        <ele>579.8</ele>
        <time>2021-06-26T05:31:17Z</time>
      </trkpt>
      <trkpt lat="46.1606" lon="6.3647">
        <ele>580</ele>
        <time>2021-06-26T05:31:18Z</time>
      </trkpt>
      <trkpt lat="46.16061" lon="6.36474">
        <ele>580.4</ele>
        <time>2021-06-26T05:31:19Z</time>
      </trkpt>
      <trkpt lat="46.16062" lon="6.36479">
        <ele>580.6</ele>
        <time>2021-06-26T05:31:20Z</time>
      </trkpt>
      <trkpt lat="46.16062" lon="6.36483">
        <ele>580.6</ele>
        <time>2021-06-26T05:31:21Z</time>
      </trkpt>
      <trkpt lat="46.16063" lon="6.36487">
        <ele>581</ele>
        <time>2021-06-26T05:31:22Z</time>
      </trkpt>
      <trkpt lat="46.16064" lon="6.36491">
        <ele>581.2</ele>
        <time>2021-06-26T05:31:23Z</time>
      </trkpt>
      <trkpt lat="46.16065" lon="6.36495">
        <ele>581.6</ele>
        <time>2021-06-26T05:31:24Z</time>
      </trkpt>
      <trkpt lat="46.16066" lon="6.365">
        <ele>581.6</ele>
        <time>2021-06-26T05:31:25Z</time>
      </trkpt>
      <trkpt lat="46.16066" lon="6.36504">
        <ele>582</ele>
        <time>2021-06-26T05:31:26Z</time>
      </trkpt>
      <trkpt lat="46.16067" lon="6.36508">
        <ele>582.4</ele>
        <time>2021-06-26T05:31:27Z</time>
      </trkpt>
      <trkpt lat="46.16068" lon="6.36512">
        <ele>582.6</ele>
        <time>2021-06-26T05:31:28Z</time>
      </trkpt>
      <trkpt lat="46.16069" lon="6.36517">
        <ele>582.8</ele>
        <time>2021-06-26T05:31:29Z</time>
      </trkpt>
      <trkpt lat="46.1607" lon="6.36521">
        <ele>583.2</ele>
        <time>2021-06-26T05:31:30Z</time>
      </trkpt>
      <trkpt lat="46.16071" lon="6.36526">
        <ele>583.4</ele>
        <time>2021-06-26T05:31:31Z</time>
      </trkpt>
      <trkpt lat="46.16072" lon="6.3653">
        <ele>583.8</ele>
        <time>2021-06-26T05:31:32Z</time>
      </trkpt>
      <trkpt lat="46.16073" lon="6.36534">
        <ele>583.8</ele>
        <time>2021-06-26T05:31:33Z</time>
      </trkpt>
      <trkpt lat="46.16074" lon="6.36539">
        <ele>583.8</ele>
        <time>2021-06-26T05:31:34Z</time>
      </trkpt>
      <trkpt lat="46.16075" lon="6.36544">
        <ele>584</ele>
        <time>2021-06-26T05:31:35Z</time>
      </trkpt>
      <trkpt lat="46.16076" lon="6.36548">
        <ele>584.2</ele>
        <time>2021-06-26T05:31:36Z</time>
      </trkpt>
      <trkpt lat="46.16077" lon="6.36553">
        <ele>584.4</ele>
        <time>2021-06-26T05:31:37Z</time>
      </trkpt>
      <trkpt lat="46.16078" lon="6.36558">
        <ele>584.6</ele>
        <time>2021-06-26T05:31:38Z</time>
      </trkpt>
      <trkpt lat="46.1608" lon="6.36563">
        <ele>584.8</ele>
        <time>2021-06-26T05:31:39Z</time>
      </trkpt>
      <trkpt lat="46.16081" lon="6.36568">
        <ele>585</ele>
        <time>2021-06-26T05:31:40Z</time>
      </trkpt>
      <trkpt lat="46.16082" lon="6.36574">
        <ele>585.2</ele>
        <time>2021-06-26T05:31:41Z</time>
      </trkpt>
      <trkpt lat="46.16083" lon="6.36579">
        <ele>585.2</ele>
        <time>2021-06-26T05:31:42Z</time>
      </trkpt>
      <trkpt lat="46.16083" lon="6.36584">
        <ele>585.4</ele>
        <time>2021-06-26T05:31:43Z</time>
      </trkpt>
      <trkpt lat="46.16084" lon="6.36589">
        <ele>585.6</ele>
        <time>2021-06-26T05:31:44Z</time>
      </trkpt>
      <trkpt lat="46.16085" lon="6.36594">
        <ele>585.6</ele>
        <time>2021-06-26T05:31:45Z</time>
      </trkpt>
      <trkpt lat="46.16086" lon="6.366">
        <ele>585.8</ele>
        <time>2021-06-26T05:31:46Z</time>
      </trkpt>
      <trkpt lat="46.16087" lon="6.36605">
        <ele>586</ele>
        <time>2021-06-26T05:31:47Z</time>
      </trkpt>
      <trkpt lat="46.16088" lon="6.3661">
        <ele>586</ele>
        <time>2021-06-26T05:31:48Z</time>
      </trkpt>
      <trkpt lat="46.16089" lon="6.36615">
        <ele>586</ele>
        <time>2021-06-26T05:31:49Z</time>
      </trkpt>
      <trkpt lat="46.1609" lon="6.3662">
        <ele>586.2</ele>
        <time>2021-06-26T05:31:50Z</time>
      </trkpt>
      <trkpt lat="46.16091" lon="6.36626">
        <ele>586.4</ele>
        <time>2021-06-26T05:31:51Z</time>
      </trkpt>
      <trkpt lat="46.16092" lon="6.36631">
        <ele>586.6</ele>
        <time>2021-06-26T05:31:52Z</time>
      </trkpt>
      <trkpt lat="46.16094" lon="6.36637">
        <ele>586.8</ele>
        <time>2021-06-26T05:31:53Z</time>
      </trkpt>
      <trkpt lat="46.16095" lon="6.36643">
        <ele>587.2</ele>
        <time>2021-06-26T05:31:54Z</time>
      </trkpt>
      <trkpt lat="46.16096" lon="6.36648">
        <ele>587.2</ele>
        <time>2021-06-26T05:31:55Z</time>
      </trkpt>
      <trkpt lat="46.16097" lon="6.36654">
        <ele>587.2</ele>
        <time>2021-06-26T05:31:56Z</time>
      </trkpt>
      <trkpt lat="46.16098" lon="6.3666">
        <ele>587.4</ele>
        <time>2021-06-26T05:31:57Z</time>
      </trkpt>
      <trkpt lat="46.161" lon="6.36666">
        <ele>587.6</ele>
        <time>2021-06-26T05:31:58Z</time>
      </trkpt>
      <trkpt lat="46.16101" lon="6.36672">
        <ele>587.8</ele>
        <time>2021-06-26T05:31:59Z</time>
      </trkpt>
      <trkpt lat="46.16102" lon="6.36677">
        <ele>587.8</ele>
        <time>2021-06-26T05:32:00Z</time>
      </trkpt>
      <trkpt lat="46.16104" lon="6.36683">
        <ele>588</ele>
        <time>2021-06-26T05:32:01Z</time>
      </trkpt>
      <trkpt lat="46.16105" lon="6.36688">
        <ele>588</ele>
        <time>2021-06-26T05:32:02Z</time>
      </trkpt>
      <trkpt lat="46.16106" lon="6.36694">
        <ele>588.4</ele>
        <time>2021-06-26T05:32:03Z</time>
      </trkpt>
      <trkpt lat="46.16107" lon="6.367">
        <ele>588.6</ele>
        <time>2021-06-26T05:32:04Z</time>
      </trkpt>
      <trkpt lat="46.16108" lon="6.36706">
        <ele>588.6</ele>
        <time>2021-06-26T05:32:05Z</time>
      </trkpt>
      <trkpt lat="46.16109" lon="6.36712">
        <ele>588.6</ele>
        <time>2021-06-26T05:32:06Z</time>
      </trkpt>
      <trkpt lat="46.1611" lon="6.36718">
        <ele>588.8</ele>
        <time>2021-06-26T05:32:07Z</time>
      </trkpt>
      <trkpt lat="46.1611" lon="6.36724">
        <ele>588.8</ele>
        <time>2021-06-26T05:32:08Z</time>
      </trkpt>
      <trkpt lat="46.16111" lon="6.3673">
        <ele>589</ele>
        <time>2021-06-26T05:32:09Z</time>
      </trkpt>
      <trkpt lat="46.16111" lon="6.36736">
        <ele>589.2</ele>
        <time>2021-06-26T05:32:10Z</time>
      </trkpt>
      <trkpt lat="46.16111" lon="6.36742">
        <ele>589.4</ele>
        <time>2021-06-26T05:32:11Z</time>
      </trkpt>
      <trkpt lat="46.16111" lon="6.36748">
        <ele>589.6</ele>
        <time>2021-06-26T05:32:12Z</time>
      </trkpt>
      <trkpt lat="46.1611" lon="6.36754">
        <ele>589.6</ele>
        <time>2021-06-26T05:32:13Z</time>
      </trkpt>
      <trkpt lat="46.1611" lon="6.36761">
        <ele>589.6</ele>
        <time>2021-06-26T05:32:14Z</time>
      </trkpt>
      <trkpt lat="46.16109" lon="6.36767">
        <ele>589.6</ele>
        <time>2021-06-26T05:32:15Z</time>
      </trkpt>
      <trkpt lat="46.16108" lon="6.36773">
        <ele>589.8</ele>
        <time>2021-06-26T05:32:16Z</time>
      </trkpt>
      <trkpt lat="46.16107" lon="6.36779">
        <ele>590</ele>
        <time>2021-06-26T05:32:17Z</time>
      </trkpt>
      <trkpt lat="46.16105" lon="6.36784">
        <ele>590.2</ele>
        <time>2021-06-26T05:32:18Z</time>
      </trkpt>
      <trkpt lat="46.16104" lon="6.3679">
        <ele>590.2</ele>
        <time>2021-06-26T05:32:19Z</time>
      </trkpt>
      <trkpt lat="46.16102" lon="6.36796">
        <ele>590.2</ele>
        <time>2021-06-26T05:32:20Z</time>
      </trkpt>
      <trkpt lat="46.16101" lon="6.36801">
        <ele>590.4</ele>
        <time>2021-06-26T05:32:21Z</time>
      </trkpt>
      <trkpt lat="46.16099" lon="6.36807">
        <ele>590.6</ele>
        <time>2021-06-26T05:32:22Z</time>
      </trkpt>
      <trkpt lat="46.16098" lon="6.36812">
        <ele>590.8</ele>
        <time>2021-06-26T05:32:23Z</time>
      </trkpt>
      <trkpt lat="46.16096" lon="6.36818">
        <ele>591</ele>
        <time>2021-06-26T05:32:24Z</time>
      </trkpt>
      <trkpt lat="46.16095" lon="6.36823">
        <ele>591.4</ele>
        <time>2021-06-26T05:32:25Z</time>
      </trkpt>
      <trkpt lat="46.16094" lon="6.36829">
        <ele>591.4</ele>
        <time>2021-06-26T05:32:26Z</time>
      </trkpt>
      <trkpt lat="46.16092" lon="6.36835">
        <ele>591.6</ele>
        <time>2021-06-26T05:32:27Z</time>
      </trkpt>
      <trkpt lat="46.16091" lon="6.3684">
        <ele>591.8</ele>
        <time>2021-06-26T05:32:28Z</time>
      </trkpt>
      <trkpt lat="46.1609" lon="6.36846">
        <ele>592</ele>
        <time>2021-06-26T05:32:29Z</time>
      </trkpt>
      <trkpt lat="46.16089" lon="6.36852">
        <ele>592.2</ele>
        <time>2021-06-26T05:32:30Z</time>
      </trkpt>
      <trkpt lat="46.16088" lon="6.36858">
        <ele>592.4</ele>
        <time>2021-06-26T05:32:31Z</time>
      </trkpt>
      <trkpt lat="46.16088" lon="6.36864">
        <ele>592.8</ele>
        <time>2021-06-26T05:32:32Z</time>
      </trkpt>
      <trkpt lat="46.16087" lon="6.3687">
        <ele>592.8</ele>
        <time>2021-06-26T05:32:33Z</time>
      </trkpt>
      <trkpt lat="46.16086" lon="6.36876">
        <ele>593</ele>
        <time>2021-06-26T05:32:34Z</time>
      </trkpt>
      <trkpt lat="46.16086" lon="6.36882">
        <ele>593.2</ele>
        <time>2021-06-26T05:32:35Z</time>
      </trkpt>
      <trkpt lat="46.16086" lon="6.36889">
        <ele>593.6</ele>
        <time>2021-06-26T05:32:36Z</time>
      </trkpt>
      <trkpt lat="46.16085" lon="6.36895">
        <ele>593.8</ele>
        <time>2021-06-26T05:32:37Z</time>
      </trkpt>
      <trkpt lat="46.16085" lon="6.36901">
        <ele>594</ele>
        <time>2021-06-26T05:32:38Z</time>
      </trkpt>
      <trkpt lat="46.16085" lon="6.36907">
        <ele>594.2</ele>
        <time>2021-06-26T05:32:39Z</time>
      </trkpt>
      <trkpt lat="46.16085" lon="6.36913">
        <ele>594.6</ele>
        <time>2021-06-26T05:32:40Z</time>
      </trkpt>
      <trkpt lat="46.16085" lon="6.36919">
        <ele>594.6</ele>
        <time>2021-06-26T05:32:41Z</time>
      </trkpt>
      <trkpt lat="46.16085" lon="6.36925">
        <ele>595</ele>
        <time>2021-06-26T05:32:42Z</time>
      </trkpt>
      <trkpt lat="46.16085" lon="6.36931">
        <ele>595</ele>
        <time>2021-06-26T05:32:43Z</time>
      </trkpt>
      <trkpt lat="46.16085" lon="6.36937">
        <ele>595</ele>
        <time>2021-06-26T05:32:44Z</time>
      </trkpt>
      <trkpt lat="46.16085" lon="6.36943">
        <ele>595.2</ele>
        <time>2021-06-26T05:32:45Z</time>
      </trkpt>
      <trkpt lat="46.16085" lon="6.36949">
        <ele>595.6</ele>
        <time>2021-06-26T05:32:46Z</time>
      </trkpt>
      <trkpt lat="46.16085" lon="6.36955">
        <ele>596</ele>
        <time>2021-06-26T05:32:47Z</time>
      </trkpt>
      <trkpt lat="46.16086" lon="6.36962">
        <ele>596.2</ele>
        <time>2021-06-26T05:32:48Z</time>
      </trkpt>
      <trkpt lat="46.16087" lon="6.36968">
        <ele>596.4</ele>
        <time>2021-06-26T05:32:49Z</time>
      </trkpt>
      <trkpt lat="46.16087" lon="6.36974">
        <ele>596.6</ele>
        <time>2021-06-26T05:32:50Z</time>
      </trkpt>
      <trkpt lat="46.16089" lon="6.3698">
        <ele>596.8</ele>
        <time>2021-06-26T05:32:51Z</time>
      </trkpt>
      <trkpt lat="46.1609" lon="6.36986">
        <ele>597</ele>
        <time>2021-06-26T05:32:52Z</time>
      </trkpt>
      <trkpt lat="46.16091" lon="6.36991">
        <ele>597.4</ele>
        <time>2021-06-26T05:32:53Z</time>
      </trkpt>
      <trkpt lat="46.16093" lon="6.36997">
        <ele>597.6</ele>
        <time>2021-06-26T05:32:54Z</time>
      </trkpt>
      <trkpt lat="46.16095" lon="6.37002">
        <ele>598</ele>
        <time>2021-06-26T05:32:55Z</time>
      </trkpt>
      <trkpt lat="46.16097" lon="6.37008">
        <ele>598.2</ele>
        <time>2021-06-26T05:32:56Z</time>
      </trkpt>
      <trkpt lat="46.161" lon="6.37013">
        <ele>598.4</ele>
        <time>2021-06-26T05:32:57Z</time>
      </trkpt>
      <trkpt lat="46.16102" lon="6.37018">
        <ele>598.4</ele>
        <time>2021-06-26T05:32:58Z</time>
      </trkpt>
      <trkpt lat="46.16104" lon="6.37023">
        <ele>598.6</ele>
        <time>2021-06-26T05:32:59Z</time>
      </trkpt>
      <trkpt lat="46.16106" lon="6.37028">
        <ele>598.6</ele>
        <time>2021-06-26T05:33:00Z</time>
      </trkpt>
      <trkpt lat="46.16109" lon="6.37033">
        <ele>598.8</ele>
        <time>2021-06-26T05:33:01Z</time>
      </trkpt>
      <trkpt lat="46.16112" lon="6.37039">
        <ele>599</ele>
        <time>2021-06-26T05:33:02Z</time>
      </trkpt>
      <trkpt lat="46.16114" lon="6.37044">
        <ele>599.2</ele>
        <time>2021-06-26T05:33:03Z</time>
      </trkpt>
      <trkpt lat="46.16117" lon="6.37049">
        <ele>599.4</ele>
        <time>2021-06-26T05:33:04Z</time>
      </trkpt>
      <trkpt lat="46.16119" lon="6.37055">
        <ele>599.8</ele>
        <time>2021-06-26T05:33:05Z</time>
      </trkpt>
      <trkpt lat="46.16122" lon="6.3706">
        <ele>599.8</ele>
        <time>2021-06-26T05:33:06Z</time>
      </trkpt>
      <trkpt lat="46.16124" lon="6.37065">
        <ele>599.8</ele>
        <time>2021-06-26T05:33:07Z</time>
      </trkpt>
      <trkpt lat="46.16127" lon="6.37071">
        <ele>600</ele>
        <time>2021-06-26T05:33:08Z</time>
      </trkpt>
      <trkpt lat="46.16129" lon="6.37076">
        <ele>600</ele>
        <time>2021-06-26T05:33:09Z</time>
      </trkpt>
      <trkpt lat="46.16132" lon="6.37082">
        <ele>600.2</ele>
        <time>2021-06-26T05:33:10Z</time>
      </trkpt>
      <trkpt lat="46.16134" lon="6.37087">
        <ele>600.2</ele>
        <time>2021-06-26T05:33:11Z</time>
      </trkpt>
      <trkpt lat="46.16137" lon="6.37093">
        <ele>600.4</ele>
        <time>2021-06-26T05:33:12Z</time>
      </trkpt>
      <trkpt lat="46.16139" lon="6.37098">
        <ele>600.4</ele>
        <time>2021-06-26T05:33:13Z</time>
      </trkpt>
      <trkpt lat="46.16142" lon="6.37104">
        <ele>600.4</ele>
        <time>2021-06-26T05:33:14Z</time>
      </trkpt>
      <trkpt lat="46.16144" lon="6.3711">
        <ele>600.6</ele>
        <time>2021-06-26T05:33:15Z</time>
      </trkpt>
      <trkpt lat="46.16147" lon="6.37116">
        <ele>600.8</ele>
        <time>2021-06-26T05:33:16Z</time>
      </trkpt>
      <trkpt lat="46.16149" lon="6.37121">
        <ele>601</ele>
        <time>2021-06-26T05:33:17Z</time>
      </trkpt>
      <trkpt lat="46.16151" lon="6.37127">
        <ele>601</ele>
        <time>2021-06-26T05:33:18Z</time>
      </trkpt>
      <trkpt lat="46.16153" lon="6.37132">
        <ele>601.2</ele>
        <time>2021-06-26T05:33:19Z</time>
      </trkpt>
      <trkpt lat="46.16155" lon="6.37137">
        <ele>601.2</ele>
        <time>2021-06-26T05:33:20Z</time>
      </trkpt>
      <trkpt lat="46.16157" lon="6.37143">
        <ele>601.4</ele>
        <time>2021-06-26T05:33:21Z</time>
      </trkpt>
      <trkpt lat="46.16159" lon="6.37148">
        <ele>601.6</ele>
        <time>2021-06-26T05:33:22Z</time>
      </trkpt>
      <trkpt lat="46.16161" lon="6.37153">
        <ele>601.6</ele>
        <time>2021-06-26T05:33:23Z</time>
      </trkpt>
      <trkpt lat="46.16163" lon="6.37157">
        <ele>601.6</ele>
        <time>2021-06-26T05:33:24Z</time>
      </trkpt>
      <trkpt lat="46.16164" lon="6.37162">
        <ele>601.8</ele>
        <time>2021-06-26T05:33:25Z</time>
      </trkpt>
      <trkpt lat="46.16167" lon="6.37166">
        <ele>602</ele>
        <time>2021-06-26T05:33:26Z</time>
      </trkpt>
      <trkpt lat="46.16169" lon="6.37171">
        <ele>602</ele>
        <time>2021-06-26T05:33:27Z</time>
      </trkpt>
      <trkpt lat="46.16171" lon="6.37174">
        <ele>602.4</ele>
        <time>2021-06-26T05:33:28Z</time>
      </trkpt>
      <trkpt lat="46.16174" lon="6.37178">
        <ele>603</ele>
        <time>2021-06-26T05:33:29Z</time>
      </trkpt>
      <trkpt lat="46.16177" lon="6.37181">
        <ele>603.4</ele>
        <time>2021-06-26T05:33:30Z</time>
      </trkpt>
      <trkpt lat="46.1618" lon="6.37184">
        <ele>603.4</ele>
        <time>2021-06-26T05:33:31Z</time>
      </trkpt>
      <trkpt lat="46.16183" lon="6.37187">
        <ele>604</ele>
        <time>2021-06-26T05:33:32Z</time>
      </trkpt>
      <trkpt lat="46.16186" lon="6.37189">
        <ele>604.4</ele>
        <time>2021-06-26T05:33:33Z</time>
      </trkpt>
      <trkpt lat="46.16189" lon="6.37191">
        <ele>604.8</ele>
        <time>2021-06-26T05:33:34Z</time>
      </trkpt>
      <trkpt lat="46.16192" lon="6.37193">
        <ele>605</ele>
        <time>2021-06-26T05:33:35Z</time>
      </trkpt>
      <trkpt lat="46.16196" lon="6.37195">
        <ele>605.4</ele>
        <time>2021-06-26T05:33:36Z</time>
      </trkpt>
      <trkpt lat="46.16199" lon="6.37196">
        <ele>605.6</ele>
        <time>2021-06-26T05:33:37Z</time>
      </trkpt>
      <trkpt lat="46.16202" lon="6.37198">
        <ele>606.2</ele>
        <time>2021-06-26T05:33:38Z</time>
      </trkpt>
      <trkpt lat="46.16206" lon="6.372">
        <ele>606.4</ele>
        <time>2021-06-26T05:33:39Z</time>
      </trkpt>
      <trkpt lat="46.16209" lon="6.37203">
        <ele>606.6</ele>
        <time>2021-06-26T05:33:40Z</time>
      </trkpt>
      <trkpt lat="46.16212" lon="6.37207">
        <ele>606.8</ele>
        <time>2021-06-26T05:33:41Z</time>
      </trkpt>
      <trkpt lat="46.16215" lon="6.37211">
        <ele>607</ele>
        <time>2021-06-26T05:33:42Z</time>
      </trkpt>
      <trkpt lat="46.16217" lon="6.37215">
        <ele>607.4</ele>
        <time>2021-06-26T05:33:43Z</time>
      </trkpt>
      <trkpt lat="46.16219" lon="6.3722">
        <ele>607.6</ele>
        <time>2021-06-26T05:33:44Z</time>
      </trkpt>
      <trkpt lat="46.16221" lon="6.37225">
        <ele>608</ele>
        <time>2021-06-26T05:33:45Z</time>
      </trkpt>
      <trkpt lat="46.16222" lon="6.37231">
        <ele>608.4</ele>
        <time>2021-06-26T05:33:46Z</time>
      </trkpt>
      <trkpt lat="46.16222" lon="6.37236">
        <ele>608.4</ele>
        <time>2021-06-26T05:33:47Z</time>
      </trkpt>
      <trkpt lat="46.16221" lon="6.37242">
        <ele>608.6</ele>
        <time>2021-06-26T05:33:48Z</time>
      </trkpt>
      <trkpt lat="46.1622" lon="6.37247">
        <ele>608.6</ele>
        <time>2021-06-26T05:33:49Z</time>
      </trkpt>
      <trkpt lat="46.16218" lon="6.37253">
        <ele>608.8</ele>
        <time>2021-06-26T05:33:50Z</time>
      </trkpt>
      <trkpt lat="46.16215" lon="6.37257">
        <ele>608.8</ele>
        <time>2021-06-26T05:33:51Z</time>
      </trkpt>
      <trkpt lat="46.16211" lon="6.37261">
        <ele>609</ele>
        <time>2021-06-26T05:33:52Z</time>
      </trkpt>
      <trkpt lat="46.16207" lon="6.37265">
        <ele>609</ele>
        <time>2021-06-26T05:33:53Z</time>
      </trkpt>
      <trkpt lat="46.16203" lon="6.37267">
        <ele>609.2</ele>
        <time>2021-06-26T05:33:54Z</time>
      </trkpt>
      <trkpt lat="46.16198" lon="6.37267">
        <ele>609.2</ele>
        <time>2021-06-26T05:33:55Z</time>
      </trkpt>
      <trkpt lat="46.16193" lon="6.37267">
        <ele>609.4</ele>
        <time>2021-06-26T05:33:56Z</time>
      </trkpt>
      <trkpt lat="46.16188" lon="6.37267">
        <ele>609.6</ele>
        <time>2021-06-26T05:33:57Z</time>
      </trkpt>
      <trkpt lat="46.16183" lon="6.37266">
        <ele>609.8</ele>
        <time>2021-06-26T05:33:58Z</time>
      </trkpt>
      <trkpt lat="46.16178" lon="6.37264">
        <ele>609.8</ele>
        <time>2021-06-26T05:33:59Z</time>
      </trkpt>
      <trkpt lat="46.16174" lon="6.37263">
        <ele>609.8</ele>
        <time>2021-06-26T05:34:00Z</time>
      </trkpt>
      <trkpt lat="46.16169" lon="6.37261">
        <ele>609.8</ele>
        <time>2021-06-26T05:34:01Z</time>
      </trkpt>
      <trkpt lat="46.16164" lon="6.37258">
        <ele>609.8</ele>
        <time>2021-06-26T05:34:02Z</time>
      </trkpt>
      <trkpt lat="46.1616" lon="6.37256">
        <ele>610</ele>
        <time>2021-06-26T05:34:03Z</time>
      </trkpt>
      <trkpt lat="46.16155" lon="6.37254">
        <ele>610</ele>
        <time>2021-06-26T05:34:04Z</time>
      </trkpt>
      <trkpt lat="46.16151" lon="6.37252">
        <ele>610</ele>
        <time>2021-06-26T05:34:05Z</time>
      </trkpt>
      <trkpt lat="46.16132" lon="6.37245">
        <ele>610.2</ele>
        <time>2021-06-26T05:34:09Z</time>
      </trkpt>
      <trkpt lat="46.16128" lon="6.37244">
        <ele>610.2</ele>
        <time>2021-06-26T05:34:10Z</time>
      </trkpt>
      <trkpt lat="46.16124" lon="6.37242">
        <ele>610.2</ele>
        <time>2021-06-26T05:34:11Z</time>
      </trkpt>
      <trkpt lat="46.1612" lon="6.37241">
        <ele>610.2</ele>
        <time>2021-06-26T05:34:12Z</time>
      </trkpt>
      <trkpt lat="46.16112" lon="6.37238">
        <ele>610.2</ele>
        <time>2021-06-26T05:34:14Z</time>
      </trkpt>
      <trkpt lat="46.16109" lon="6.37237">
        <ele>610.2</ele>
        <time>2021-06-26T05:34:15Z</time>
      </trkpt>
      <trkpt lat="46.16105" lon="6.37237">
        <ele>610.2</ele>
        <time>2021-06-26T05:34:16Z</time>
      </trkpt>
      <trkpt lat="46.16101" lon="6.37237">
        <ele>610.4</ele>
        <time>2021-06-26T05:34:17Z</time>
      </trkpt>
      <trkpt lat="46.16093" lon="6.37238">
        <ele>610.6</ele>
        <time>2021-06-26T05:34:19Z</time>
      </trkpt>
      <trkpt lat="46.16089" lon="6.37237">
        <ele>611</ele>
        <time>2021-06-26T05:34:20Z</time>
      </trkpt>
      <trkpt lat="46.16085" lon="6.37238">
        <ele>611</ele>
        <time>2021-06-26T05:34:21Z</time>
      </trkpt>
      <trkpt lat="46.1608" lon="6.37238">
        <ele>611.2</ele>
        <time>2021-06-26T05:34:22Z</time>
      </trkpt>
      <trkpt lat="46.16076" lon="6.37239">
        <ele>611.4</ele>
        <time>2021-06-26T05:34:23Z</time>
      </trkpt>
      <trkpt lat="46.16071" lon="6.37239">
        <ele>611.6</ele>
        <time>2021-06-26T05:34:24Z</time>
      </trkpt>
      <trkpt lat="46.16066" lon="6.37239">
        <ele>612</ele>
        <time>2021-06-26T05:34:25Z</time>
      </trkpt>
      <trkpt lat="46.16062" lon="6.3724">
        <ele>612.2</ele>
        <time>2021-06-26T05:34:26Z</time>
      </trkpt>
      <trkpt lat="46.16057" lon="6.3724">
        <ele>612.4</ele>
        <time>2021-06-26T05:34:27Z</time>
      </trkpt>
      <trkpt lat="46.16053" lon="6.37241">
        <ele>612.6</ele>
        <time>2021-06-26T05:34:28Z</time>
      </trkpt>
      <trkpt lat="46.16048" lon="6.37241">
        <ele>613</ele>
        <time>2021-06-26T05:34:29Z</time>
      </trkpt>
      <trkpt lat="46.16044" lon="6.37242">
        <ele>613</ele>
        <time>2021-06-26T05:34:30Z</time>
      </trkpt>
      <trkpt lat="46.1604" lon="6.37243">
        <ele>613.4</ele>
        <time>2021-06-26T05:34:31Z</time>
      </trkpt>
      <trkpt lat="46.16036" lon="6.37244">
        <ele>613.4</ele>
        <time>2021-06-26T05:34:32Z</time>
      </trkpt>
      <trkpt lat="46.16032" lon="6.37245">
        <ele>613.6</ele>
        <time>2021-06-26T05:34:33Z</time>
      </trkpt>
      <trkpt lat="46.16028" lon="6.37246">
        <ele>614</ele>
        <time>2021-06-26T05:34:34Z</time>
      </trkpt>
      <trkpt lat="46.16024" lon="6.37247">
        <ele>614.2</ele>
        <time>2021-06-26T05:34:35Z</time>
      </trkpt>
      <trkpt lat="46.1602" lon="6.37248">
        <ele>614.4</ele>
        <time>2021-06-26T05:34:36Z</time>
      </trkpt>
      <trkpt lat="46.16016" lon="6.3725">
        <ele>614.6</ele>
        <time>2021-06-26T05:34:37Z</time>
      </trkpt>
      <trkpt lat="46.16013" lon="6.37251">
        <ele>615</ele>
        <time>2021-06-26T05:34:38Z</time>
      </trkpt>
      <trkpt lat="46.16009" lon="6.37253">
        <ele>615.4</ele>
        <time>2021-06-26T05:34:39Z</time>
      </trkpt>
      <trkpt lat="46.16005" lon="6.37255">
        <ele>615.6</ele>
        <time>2021-06-26T05:34:40Z</time>
      </trkpt>
      <trkpt lat="46.16001" lon="6.37257">
        <ele>616.2</ele>
        <time>2021-06-26T05:34:41Z</time>
      </trkpt>
      <trkpt lat="46.15997" lon="6.37259">
        <ele>616.4</ele>
        <time>2021-06-26T05:34:42Z</time>
      </trkpt>
      <trkpt lat="46.15994" lon="6.37261">
        <ele>616.6</ele>
        <time>2021-06-26T05:34:43Z</time>
      </trkpt>
      <trkpt lat="46.1599" lon="6.37263">
        <ele>617</ele>
        <time>2021-06-26T05:34:44Z</time>
      </trkpt>
      <trkpt lat="46.15986" lon="6.37265">
        <ele>617.2</ele>
        <time>2021-06-26T05:34:45Z</time>
      </trkpt>
      <trkpt lat="46.15983" lon="6.37267">
        <ele>617.6</ele>
        <time>2021-06-26T05:34:46Z</time>
      </trkpt>
      <trkpt lat="46.15979" lon="6.37269">
        <ele>617.6</ele>
        <time>2021-06-26T05:34:47Z</time>
      </trkpt>
      <trkpt lat="46.15976" lon="6.37271">
        <ele>617.8</ele>
        <time>2021-06-26T05:34:48Z</time>
      </trkpt>
      <trkpt lat="46.15972" lon="6.37274">
        <ele>618</ele>
        <time>2021-06-26T05:34:49Z</time>
      </trkpt>
      <trkpt lat="46.15969" lon="6.37276">
        <ele>618.4</ele>
        <time>2021-06-26T05:34:50Z</time>
      </trkpt>
      <trkpt lat="46.15965" lon="6.37278">
        <ele>618.6</ele>
        <time>2021-06-26T05:34:51Z</time>
      </trkpt>
      <trkpt lat="46.15962" lon="6.37281">
        <ele>619</ele>
        <time>2021-06-26T05:34:52Z</time>
      </trkpt>
      <trkpt lat="46.15958" lon="6.37283">
        <ele>619</ele>
        <time>2021-06-26T05:34:53Z</time>
      </trkpt>
      <trkpt lat="46.15955" lon="6.37285">
        <ele>619.2</ele>
        <time>2021-06-26T05:34:54Z</time>
      </trkpt>
      <trkpt lat="46.15951" lon="6.37287">
        <ele>619.4</ele>
        <time>2021-06-26T05:34:55Z</time>
      </trkpt>
      <trkpt lat="46.15948" lon="6.37289">
        <ele>619.4</ele>
        <time>2021-06-26T05:34:56Z</time>
      </trkpt>
      <trkpt lat="46.15944" lon="6.37291">
        <ele>619.8</ele>
        <time>2021-06-26T05:34:57Z</time>
      </trkpt>
      <trkpt lat="46.15941" lon="6.37294">
        <ele>619.8</ele>
        <time>2021-06-26T05:34:58Z</time>
      </trkpt>
      <trkpt lat="46.15937" lon="6.37296">
        <ele>620</ele>
        <time>2021-06-26T05:34:59Z</time>
      </trkpt>
      <trkpt lat="46.15933" lon="6.37298">
        <ele>620</ele>
        <time>2021-06-26T05:35:00Z</time>
      </trkpt>
      <trkpt lat="46.1593" lon="6.373">
        <ele>620.4</ele>
        <time>2021-06-26T05:35:01Z</time>
      </trkpt>
      <trkpt lat="46.15926" lon="6.37303">
        <ele>620.8</ele>
        <time>2021-06-26T05:35:02Z</time>
      </trkpt>
      <trkpt lat="46.15923" lon="6.37305">
        <ele>621</ele>
        <time>2021-06-26T05:35:03Z</time>
      </trkpt>
      <trkpt lat="46.15919" lon="6.37307">
        <ele>621.4</ele>
        <time>2021-06-26T05:35:04Z</time>
      </trkpt>
      <trkpt lat="46.15916" lon="6.37309">
        <ele>621.6</ele>
        <time>2021-06-26T05:35:05Z</time>
      </trkpt>
      <trkpt lat="46.15912" lon="6.37312">
        <ele>622</ele>
        <time>2021-06-26T05:35:06Z</time>
      </trkpt>
      <trkpt lat="46.15909" lon="6.37314">
        <ele>622</ele>
        <time>2021-06-26T05:35:07Z</time>
      </trkpt>
      <trkpt lat="46.15905" lon="6.37316">
        <ele>622.4</ele>
        <time>2021-06-26T05:35:08Z</time>
      </trkpt>
      <trkpt lat="46.15902" lon="6.37318">
        <ele>622.4</ele>
        <time>2021-06-26T05:35:09Z</time>
      </trkpt>
      <trkpt lat="46.15898" lon="6.3732">
        <ele>622.8</ele>
        <time>2021-06-26T05:35:10Z</time>
      </trkpt>
      <trkpt lat="46.15895" lon="6.37322">
        <ele>623</ele>
        <time>2021-06-26T05:35:11Z</time>
      </trkpt>
      <trkpt lat="46.15891" lon="6.37324">
        <ele>623</ele>
        <time>2021-06-26T05:35:12Z</time>
      </trkpt>
      <trkpt lat="46.15888" lon="6.37326">
        <ele>623.2</ele>
        <time>2021-06-26T05:35:13Z</time>
      </trkpt>
      <trkpt lat="46.15884" lon="6.37328">
        <ele>623.2</ele>
        <time>2021-06-26T05:35:14Z</time>
      </trkpt>
      <trkpt lat="46.15881" lon="6.3733">
        <ele>623.4</ele>
        <time>2021-06-26T05:35:15Z</time>
      </trkpt>
      <trkpt lat="46.15877" lon="6.37333">
        <ele>623.6</ele>
        <time>2021-06-26T05:35:16Z</time>
      </trkpt>
      <trkpt lat="46.15874" lon="6.37335">
        <ele>624</ele>
        <time>2021-06-26T05:35:17Z</time>
      </trkpt>
      <trkpt lat="46.15871" lon="6.37337">
        <ele>624.2</ele>
        <time>2021-06-26T05:35:18Z</time>
      </trkpt>
      <trkpt lat="46.15867" lon="6.37339">
        <ele>624.6</ele>
        <time>2021-06-26T05:35:19Z</time>
      </trkpt>
      <trkpt lat="46.15864" lon="6.37341">
        <ele>624.8</ele>
        <time>2021-06-26T05:35:20Z</time>
      </trkpt>
      <trkpt lat="46.1586" lon="6.37343">
        <ele>624.8</ele>
        <time>2021-06-26T05:35:21Z</time>
      </trkpt>
      <trkpt lat="46.15857" lon="6.37346">
        <ele>625.2</ele>
        <time>2021-06-26T05:35:22Z</time>
      </trkpt>
      <trkpt lat="46.15854" lon="6.37348">
        <ele>625.4</ele>
        <time>2021-06-26T05:35:23Z</time>
      </trkpt>
      <trkpt lat="46.1585" lon="6.3735">
        <ele>625.6</ele>
        <time>2021-06-26T05:35:24Z</time>
      </trkpt>
      <trkpt lat="46.15847" lon="6.37352">
        <ele>625.8</ele>
        <time>2021-06-26T05:35:25Z</time>
      </trkpt>
      <trkpt lat="46.15844" lon="6.37355">
        <ele>626</ele>
        <time>2021-06-26T05:35:26Z</time>
      </trkpt>
      <trkpt lat="46.15841" lon="6.37357">
        <ele>626</ele>
        <time>2021-06-26T05:35:27Z</time>
      </trkpt>
      <trkpt lat="46.15838" lon="6.3736">
        <ele>626.4</ele>
        <time>2021-06-26T05:35:28Z</time>
      </trkpt>
      <trkpt lat="46.15835" lon="6.37363">
        <ele>626.6</ele>
        <time>2021-06-26T05:35:29Z</time>
      </trkpt>
      <trkpt lat="46.15833" lon="6.37365">
        <ele>627</ele>
        <time>2021-06-26T05:35:30Z</time>
      </trkpt>
      <trkpt lat="46.1583" lon="6.37368">
        <ele>627.2</ele>
        <time>2021-06-26T05:35:31Z</time>
      </trkpt>
      <trkpt lat="46.15827" lon="6.37371">
        <ele>627.4</ele>
        <time>2021-06-26T05:35:32Z</time>
      </trkpt>
      <trkpt lat="46.15824" lon="6.37374">
        <ele>627.8</ele>
        <time>2021-06-26T05:35:33Z</time>
      </trkpt>
      <trkpt lat="46.15822" lon="6.37377">
        <ele>628</ele>
        <time>2021-06-26T05:35:34Z</time>
      </trkpt>
      <trkpt lat="46.15819" lon="6.37381">
        <ele>628.2</ele>
        <time>2021-06-26T05:35:35Z</time>
      </trkpt>
      <trkpt lat="46.15817" lon="6.37384">
        <ele>628.2</ele>
        <time>2021-06-26T05:35:36Z</time>
      </trkpt>
      <trkpt lat="46.15814" lon="6.37388">
        <ele>628.6</ele>
        <time>2021-06-26T05:35:37Z</time>
      </trkpt>
      <trkpt lat="46.15812" lon="6.37392">
        <ele>628.8</ele>
        <time>2021-06-26T05:35:38Z</time>
      </trkpt>
      <trkpt lat="46.1581" lon="6.37396">
        <ele>629</ele>
        <time>2021-06-26T05:35:39Z</time>
      </trkpt>
      <trkpt lat="46.15808" lon="6.37401">
        <ele>629.4</ele>
        <time>2021-06-26T05:35:40Z</time>
      </trkpt>
      <trkpt lat="46.15806" lon="6.37405">
        <ele>629.4</ele>
        <time>2021-06-26T05:35:41Z</time>
      </trkpt>
      <trkpt lat="46.15804" lon="6.37409">
        <ele>629.8</ele>
        <time>2021-06-26T05:35:42Z</time>
      </trkpt>
      <trkpt lat="46.15802" lon="6.37413">
        <ele>630</ele>
        <time>2021-06-26T05:35:43Z</time>
      </trkpt>
      <trkpt lat="46.158" lon="6.37417">
        <ele>630.2</ele>
        <time>2021-06-26T05:35:44Z</time>
      </trkpt>
      <trkpt lat="46.15798" lon="6.37421">
        <ele>630.4</ele>
        <time>2021-06-26T05:35:45Z</time>
      </trkpt>
      <trkpt lat="46.15796" lon="6.37426">
        <ele>630.6</ele>
        <time>2021-06-26T05:35:46Z</time>
      </trkpt>
      <trkpt lat="46.15794" lon="6.3743">
        <ele>630.8</ele>
        <time>2021-06-26T05:35:47Z</time>
      </trkpt>
      <trkpt lat="46.15792" lon="6.37434">
        <ele>630.8</ele>
        <time>2021-06-26T05:35:48Z</time>
      </trkpt>
      <trkpt lat="46.1579" lon="6.37438">
        <ele>631</ele>
        <time>2021-06-26T05:35:49Z</time>
      </trkpt>
      <trkpt lat="46.15788" lon="6.37442">
        <ele>631.4</ele>
        <time>2021-06-26T05:35:50Z</time>
      </trkpt>
      <trkpt lat="46.15786" lon="6.37446">
        <ele>631.8</ele>
        <time>2021-06-26T05:35:51Z</time>
      </trkpt>
      <trkpt lat="46.15783" lon="6.37449">
        <ele>631.8</ele>
        <time>2021-06-26T05:35:52Z</time>
      </trkpt>
      <trkpt lat="46.15781" lon="6.37453">
        <ele>632</ele>
        <time>2021-06-26T05:35:53Z</time>
      </trkpt>
      <trkpt lat="46.15779" lon="6.37457">
        <ele>632.2</ele>
        <time>2021-06-26T05:35:54Z</time>
      </trkpt>
      <trkpt lat="46.15776" lon="6.37461">
        <ele>632.4</ele>
        <time>2021-06-26T05:35:55Z</time>
      </trkpt>
      <trkpt lat="46.15774" lon="6.37465">
        <ele>632.6</ele>
        <time>2021-06-26T05:35:56Z</time>
      </trkpt>
      <trkpt lat="46.15771" lon="6.37468">
        <ele>632.8</ele>
        <time>2021-06-26T05:35:57Z</time>
      </trkpt>
      <trkpt lat="46.15769" lon="6.37472">
        <ele>632.8</ele>
        <time>2021-06-26T05:35:58Z</time>
      </trkpt>
      <trkpt lat="46.15767" lon="6.37475">
        <ele>633</ele>
        <time>2021-06-26T05:35:59Z</time>
      </trkpt>
      <trkpt lat="46.15764" lon="6.37478">
        <ele>633.2</ele>
        <time>2021-06-26T05:36:00Z</time>
      </trkpt>
      <trkpt lat="46.15762" lon="6.3748">
        <ele>633.2</ele>
        <time>2021-06-26T05:36:01Z</time>
      </trkpt>
      <trkpt lat="46.15761" lon="6.37483">
        <ele>633.4</ele>
        <time>2021-06-26T05:36:02Z</time>
      </trkpt>
      <trkpt lat="46.15759" lon="6.37485">
        <ele>633.4</ele>
        <time>2021-06-26T05:36:03Z</time>
      </trkpt>
      <trkpt lat="46.15759" lon="6.37485">
        <ele>633.8</ele>
        <time>2021-06-26T05:36:04Z</time>
      </trkpt>
      <trkpt lat="46.15759" lon="6.37485">
        <ele>634.2</ele>
        <time>2021-06-26T05:36:06Z</time>
      </trkpt>
      <trkpt lat="46.1576" lon="6.37485">
        <ele>635.8</ele>
        <time>2021-06-26T05:36:49Z</time>
      </trkpt>
      <trkpt lat="46.15758" lon="6.37488">
        <ele>635.8</ele>
        <time>2021-06-26T05:37:33Z</time>
      </trkpt>
      <trkpt lat="46.15757" lon="6.37489">
        <ele>635.8</ele>
        <time>2021-06-26T05:37:34Z</time>
      </trkpt>
      <trkpt lat="46.15756" lon="6.37491">
        <ele>636</ele>
        <time>2021-06-26T05:37:35Z</time>
      </trkpt>
      <trkpt lat="46.15754" lon="6.37494">
        <ele>635.8</ele>
        <time>2021-06-26T05:37:36Z</time>
      </trkpt>
      <trkpt lat="46.15751" lon="6.375">
        <ele>635.8</ele>
        <time>2021-06-26T05:37:38Z</time>
      </trkpt>
      <trkpt lat="46.15735" lon="6.37522">
        <ele>636</ele>
        <time>2021-06-26T05:37:44Z</time>
      </trkpt>
      <trkpt lat="46.15729" lon="6.37529">
        <ele>636</ele>
        <time>2021-06-26T05:37:46Z</time>
      </trkpt>
      <trkpt lat="46.15715" lon="6.37542">
        <ele>636.2</ele>
        <time>2021-06-26T05:37:50Z</time>
      </trkpt>
      <trkpt lat="46.15707" lon="6.37548">
        <ele>636.4</ele>
        <time>2021-06-26T05:37:52Z</time>
      </trkpt>
      <trkpt lat="46.157" lon="6.37554">
        <ele>636.8</ele>
        <time>2021-06-26T05:37:54Z</time>
      </trkpt>
      <trkpt lat="46.1568" lon="6.37568">
        <ele>637.4</ele>
        <time>2021-06-26T05:37:59Z</time>
      </trkpt>
      <trkpt lat="46.15672" lon="6.37573">
        <ele>637.6</ele>
        <time>2021-06-26T05:38:01Z</time>
      </trkpt>
      <trkpt lat="46.15668" lon="6.37575">
        <ele>637.8</ele>
        <time>2021-06-26T05:38:02Z</time>
      </trkpt>
      <trkpt lat="46.15664" lon="6.37578">
        <ele>638</ele>
        <time>2021-06-26T05:38:03Z</time>
      </trkpt>
      <trkpt lat="46.1566" lon="6.37581">
        <ele>638</ele>
        <time>2021-06-26T05:38:04Z</time>
      </trkpt>
      <trkpt lat="46.15656" lon="6.37584">
        <ele>638.2</ele>
        <time>2021-06-26T05:38:05Z</time>
      </trkpt>
      <trkpt lat="46.15652" lon="6.37587">
        <ele>638.2</ele>
        <time>2021-06-26T05:38:06Z</time>
      </trkpt>
      <trkpt lat="46.15649" lon="6.3759">
        <ele>638.6</ele>
        <time>2021-06-26T05:38:07Z</time>
      </trkpt>
      <trkpt lat="46.15645" lon="6.37593">
        <ele>638.6</ele>
        <time>2021-06-26T05:38:08Z</time>
      </trkpt>
      <trkpt lat="46.15641" lon="6.37596">
        <ele>638.8</ele>
        <time>2021-06-26T05:38:09Z</time>
      </trkpt>
      <trkpt lat="46.15637" lon="6.37599">
        <ele>639</ele>
        <time>2021-06-26T05:38:10Z</time>
      </trkpt>
      <trkpt lat="46.15633" lon="6.37602">
        <ele>639</ele>
        <time>2021-06-26T05:38:11Z</time>
      </trkpt>
      <trkpt lat="46.1563" lon="6.37605">
        <ele>639.2</ele>
        <time>2021-06-26T05:38:12Z</time>
      </trkpt>
      <trkpt lat="46.15626" lon="6.37609">
        <ele>639.2</ele>
        <time>2021-06-26T05:38:13Z</time>
      </trkpt>
      <trkpt lat="46.15623" lon="6.37612">
        <ele>639.6</ele>
        <time>2021-06-26T05:38:14Z</time>
      </trkpt>
      <trkpt lat="46.1562" lon="6.37616">
        <ele>639.6</ele>
        <time>2021-06-26T05:38:15Z</time>
      </trkpt>
      <trkpt lat="46.15616" lon="6.37619">
        <ele>640</ele>
        <time>2021-06-26T05:38:16Z</time>
      </trkpt>
      <trkpt lat="46.15613" lon="6.37623">
        <ele>640.4</ele>
        <time>2021-06-26T05:38:17Z</time>
      </trkpt>
      <trkpt lat="46.1561" lon="6.37627">
        <ele>640.4</ele>
        <time>2021-06-26T05:38:18Z</time>
      </trkpt>
      <trkpt lat="46.15607" lon="6.37631">
        <ele>640.6</ele>
        <time>2021-06-26T05:38:19Z</time>
      </trkpt>
      <trkpt lat="46.15604" lon="6.37634">
        <ele>640.6</ele>
        <time>2021-06-26T05:38:20Z</time>
      </trkpt>
      <trkpt lat="46.15601" lon="6.37638">
        <ele>641</ele>
        <time>2021-06-26T05:38:21Z</time>
      </trkpt>
      <trkpt lat="46.15599" lon="6.37642">
        <ele>641.2</ele>
        <time>2021-06-26T05:38:22Z</time>
      </trkpt>
      <trkpt lat="46.15596" lon="6.37645">
        <ele>641.6</ele>
        <time>2021-06-26T05:38:23Z</time>
      </trkpt>
      <trkpt lat="46.15594" lon="6.37649">
        <ele>642</ele>
        <time>2021-06-26T05:38:24Z</time>
      </trkpt>
      <trkpt lat="46.15591" lon="6.37652">
        <ele>642.2</ele>
        <time>2021-06-26T05:38:25Z</time>
      </trkpt>
      <trkpt lat="46.15589" lon="6.37655">
        <ele>642.6</ele>
        <time>2021-06-26T05:38:26Z</time>
      </trkpt>
      <trkpt lat="46.15586" lon="6.37659">
        <ele>642.6</ele>
        <time>2021-06-26T05:38:27Z</time>
      </trkpt>
      <trkpt lat="46.15584" lon="6.37662">
        <ele>642.6</ele>
        <time>2021-06-26T05:38:28Z</time>
      </trkpt>
      <trkpt lat="46.15581" lon="6.37666">
        <ele>643</ele>
        <time>2021-06-26T05:38:29Z</time>
      </trkpt>
      <trkpt lat="46.15579" lon="6.3767">
        <ele>643.2</ele>
        <time>2021-06-26T05:38:30Z</time>
      </trkpt>
      <trkpt lat="46.15576" lon="6.37673">
        <ele>643.4</ele>
        <time>2021-06-26T05:38:31Z</time>
      </trkpt>
      <trkpt lat="46.15574" lon="6.37677">
        <ele>644</ele>
        <time>2021-06-26T05:38:32Z</time>
      </trkpt>
      <trkpt lat="46.15572" lon="6.3768">
        <ele>644</ele>
        <time>2021-06-26T05:38:33Z</time>
      </trkpt>
      <trkpt lat="46.1557" lon="6.37683">
        <ele>644.4</ele>
        <time>2021-06-26T05:38:34Z</time>
      </trkpt>
      <trkpt lat="46.15568" lon="6.37686">
        <ele>644.6</ele>
        <time>2021-06-26T05:38:35Z</time>
      </trkpt>
      <trkpt lat="46.15566" lon="6.3769">
        <ele>645</ele>
        <time>2021-06-26T05:38:36Z</time>
      </trkpt>
      <trkpt lat="46.15564" lon="6.37693">
        <ele>645.6</ele>
        <time>2021-06-26T05:38:37Z</time>
      </trkpt>
      <trkpt lat="46.15562" lon="6.37697">
        <ele>645.6</ele>
        <time>2021-06-26T05:38:38Z</time>
      </trkpt>
      <trkpt lat="46.1556" lon="6.377">
        <ele>646</ele>
        <time>2021-06-26T05:38:39Z</time>
      </trkpt>
      <trkpt lat="46.15558" lon="6.37703">
        <ele>646.2</ele>
        <time>2021-06-26T05:38:40Z</time>
      </trkpt>
      <trkpt lat="46.15557" lon="6.37706">
        <ele>646.4</ele>
        <time>2021-06-26T05:38:41Z</time>
      </trkpt>
      <trkpt lat="46.15555" lon="6.37709">
        <ele>646.8</ele>
        <time>2021-06-26T05:38:42Z</time>
      </trkpt>
      <trkpt lat="46.15554" lon="6.37712">
        <ele>647.2</ele>
        <time>2021-06-26T05:38:43Z</time>
      </trkpt>
      <trkpt lat="46.15552" lon="6.37715">
        <ele>647.6</ele>
        <time>2021-06-26T05:38:44Z</time>
      </trkpt>
      <trkpt lat="46.1555" lon="6.37718">
        <ele>647.8</ele>
        <time>2021-06-26T05:38:45Z</time>
      </trkpt>
      <trkpt lat="46.15548" lon="6.37721">
        <ele>648.2</ele>
        <time>2021-06-26T05:38:46Z</time>
      </trkpt>
      <trkpt lat="46.15547" lon="6.37724">
        <ele>648.4</ele>
        <time>2021-06-26T05:38:47Z</time>
      </trkpt>
      <trkpt lat="46.15545" lon="6.37727">
        <ele>648.6</ele>
        <time>2021-06-26T05:38:48Z</time>
      </trkpt>
      <trkpt lat="46.15544" lon="6.3773">
        <ele>649</ele>
        <time>2021-06-26T05:38:49Z</time>
      </trkpt>
      <trkpt lat="46.15542" lon="6.37733">
        <ele>649</ele>
        <time>2021-06-26T05:38:50Z</time>
      </trkpt>
      <trkpt lat="46.1554" lon="6.37735">
        <ele>649.2</ele>
        <time>2021-06-26T05:38:51Z</time>
      </trkpt>
      <trkpt lat="46.15538" lon="6.37737">
        <ele>649.6</ele>
        <time>2021-06-26T05:38:52Z</time>
      </trkpt>
      <trkpt lat="46.15536" lon="6.3774">
        <ele>649.8</ele>
        <time>2021-06-26T05:38:53Z</time>
      </trkpt>
      <trkpt lat="46.15534" lon="6.37742">
        <ele>650.2</ele>
        <time>2021-06-26T05:38:54Z</time>
      </trkpt>
      <trkpt lat="46.15532" lon="6.37744">
        <ele>650.4</ele>
        <time>2021-06-26T05:38:55Z</time>
      </trkpt>
      <trkpt lat="46.15529" lon="6.37747">
        <ele>650.6</ele>
        <time>2021-06-26T05:38:56Z</time>
      </trkpt>
      <trkpt lat="46.15527" lon="6.37749">
        <ele>651</ele>
        <time>2021-06-26T05:38:57Z</time>
      </trkpt>
      <trkpt lat="46.15525" lon="6.37751">
        <ele>651.2</ele>
        <time>2021-06-26T05:38:58Z</time>
      </trkpt>
      <trkpt lat="46.15523" lon="6.37753">
        <ele>651.4</ele>
        <time>2021-06-26T05:38:59Z</time>
      </trkpt>
      <trkpt lat="46.15521" lon="6.37756">
        <ele>651.8</ele>
        <time>2021-06-26T05:39:00Z</time>
      </trkpt>
      <trkpt lat="46.15519" lon="6.37758">
        <ele>652.2</ele>
        <time>2021-06-26T05:39:01Z</time>
      </trkpt>
      <trkpt lat="46.15517" lon="6.3776">
        <ele>652.4</ele>
        <time>2021-06-26T05:39:02Z</time>
      </trkpt>
      <trkpt lat="46.15515" lon="6.37763">
        <ele>652.8</ele>
        <time>2021-06-26T05:39:03Z</time>
      </trkpt>
      <trkpt lat="46.15513" lon="6.37765">
        <ele>652.8</ele>
        <time>2021-06-26T05:39:04Z</time>
      </trkpt>
      <trkpt lat="46.1551" lon="6.37767">
        <ele>653</ele>
        <time>2021-06-26T05:39:05Z</time>
      </trkpt>
      <trkpt lat="46.15508" lon="6.37769">
        <ele>653.2</ele>
        <time>2021-06-26T05:39:06Z</time>
      </trkpt>
      <trkpt lat="46.15506" lon="6.37771">
        <ele>653.4</ele>
        <time>2021-06-26T05:39:07Z</time>
      </trkpt>
      <trkpt lat="46.15504" lon="6.37774">
        <ele>653.6</ele>
        <time>2021-06-26T05:39:08Z</time>
      </trkpt>
      <trkpt lat="46.15502" lon="6.37776">
        <ele>653.8</ele>
        <time>2021-06-26T05:39:09Z</time>
      </trkpt>
      <trkpt lat="46.155" lon="6.37779">
        <ele>654.2</ele>
        <time>2021-06-26T05:39:10Z</time>
      </trkpt>
      <trkpt lat="46.15498" lon="6.37781">
        <ele>654.4</ele>
        <time>2021-06-26T05:39:11Z</time>
      </trkpt>
      <trkpt lat="46.15495" lon="6.37784">
        <ele>654.6</ele>
        <time>2021-06-26T05:39:12Z</time>
      </trkpt>
      <trkpt lat="46.15493" lon="6.37787">
        <ele>654.6</ele>
        <time>2021-06-26T05:39:13Z</time>
      </trkpt>
      <trkpt lat="46.15491" lon="6.3779">
        <ele>654.6</ele>
        <time>2021-06-26T05:39:14Z</time>
      </trkpt>
      <trkpt lat="46.15488" lon="6.37793">
        <ele>654.8</ele>
        <time>2021-06-26T05:39:15Z</time>
      </trkpt>
      <trkpt lat="46.15486" lon="6.37797">
        <ele>655.2</ele>
        <time>2021-06-26T05:39:16Z</time>
      </trkpt>
      <trkpt lat="46.15483" lon="6.378">
        <ele>655.4</ele>
        <time>2021-06-26T05:39:17Z</time>
      </trkpt>
      <trkpt lat="46.15481" lon="6.37803">
        <ele>655.6</ele>
        <time>2021-06-26T05:39:18Z</time>
      </trkpt>
      <trkpt lat="46.15478" lon="6.37807">
        <ele>655.8</ele>
        <time>2021-06-26T05:39:19Z</time>
      </trkpt>
      <trkpt lat="46.15475" lon="6.3781">
        <ele>656</ele>
        <time>2021-06-26T05:39:20Z</time>
      </trkpt>
      <trkpt lat="46.15472" lon="6.37813">
        <ele>656.2</ele>
        <time>2021-06-26T05:39:21Z</time>
      </trkpt>
      <trkpt lat="46.1547" lon="6.37816">
        <ele>656.4</ele>
        <time>2021-06-26T05:39:22Z</time>
      </trkpt>
      <trkpt lat="46.15467" lon="6.3782">
        <ele>656.8</ele>
        <time>2021-06-26T05:39:23Z</time>
      </trkpt>
      <trkpt lat="46.15465" lon="6.37823">
        <ele>657</ele>
        <time>2021-06-26T05:39:24Z</time>
      </trkpt>
      <trkpt lat="46.15462" lon="6.37827">
        <ele>657.4</ele>
        <time>2021-06-26T05:39:25Z</time>
      </trkpt>
      <trkpt lat="46.1546" lon="6.3783">
        <ele>657.4</ele>
        <time>2021-06-26T05:39:26Z</time>
      </trkpt>
      <trkpt lat="46.15457" lon="6.37834">
        <ele>657.8</ele>
        <time>2021-06-26T05:39:27Z</time>
      </trkpt>
      <trkpt lat="46.15455" lon="6.37837">
        <ele>658</ele>
        <time>2021-06-26T05:39:28Z</time>
      </trkpt>
      <trkpt lat="46.15453" lon="6.37841">
        <ele>658</ele>
        <time>2021-06-26T05:39:29Z</time>
      </trkpt>
      <trkpt lat="46.1545" lon="6.37845">
        <ele>658.2</ele>
        <time>2021-06-26T05:39:30Z</time>
      </trkpt>
      <trkpt lat="46.15448" lon="6.37849">
        <ele>658.4</ele>
        <time>2021-06-26T05:39:31Z</time>
      </trkpt>
      <trkpt lat="46.15446" lon="6.37853">
        <ele>658.6</ele>
        <time>2021-06-26T05:39:32Z</time>
      </trkpt>
      <trkpt lat="46.15445" lon="6.37857">
        <ele>658.6</ele>
        <time>2021-06-26T05:39:33Z</time>
      </trkpt>
      <trkpt lat="46.15444" lon="6.37862">
        <ele>658.8</ele>
        <time>2021-06-26T05:39:34Z</time>
      </trkpt>
      <trkpt lat="46.15442" lon="6.37866">
        <ele>658.8</ele>
        <time>2021-06-26T05:39:35Z</time>
      </trkpt>
      <trkpt lat="46.1544" lon="6.3787">
        <ele>659</ele>
        <time>2021-06-26T05:39:36Z</time>
      </trkpt>
      <trkpt lat="46.15438" lon="6.37874">
        <ele>659.4</ele>
        <time>2021-06-26T05:39:37Z</time>
      </trkpt>
      <trkpt lat="46.15436" lon="6.37878">
        <ele>659.6</ele>
        <time>2021-06-26T05:39:38Z</time>
      </trkpt>
      <trkpt lat="46.15435" lon="6.37883">
        <ele>659.6</ele>
        <time>2021-06-26T05:39:39Z</time>
      </trkpt>
      <trkpt lat="46.15433" lon="6.37887">
        <ele>659.6</ele>
        <time>2021-06-26T05:39:40Z</time>
      </trkpt>
      <trkpt lat="46.15431" lon="6.37891">
        <ele>659.8</ele>
        <time>2021-06-26T05:39:41Z</time>
      </trkpt>
      <trkpt lat="46.15429" lon="6.37895">
        <ele>660</ele>
        <time>2021-06-26T05:39:42Z</time>
      </trkpt>
      <trkpt lat="46.15428" lon="6.37899">
        <ele>660.2</ele>
        <time>2021-06-26T05:39:43Z</time>
      </trkpt>
      <trkpt lat="46.15426" lon="6.37903">
        <ele>660.4</ele>
        <time>2021-06-26T05:39:44Z</time>
      </trkpt>
      <trkpt lat="46.15425" lon="6.37908">
        <ele>660.6</ele>
        <time>2021-06-26T05:39:45Z</time>
      </trkpt>
      <trkpt lat="46.15423" lon="6.37912">
        <ele>660.8</ele>
        <time>2021-06-26T05:39:46Z</time>
      </trkpt>
      <trkpt lat="46.15422" lon="6.37916">
        <ele>660.8</ele>
        <time>2021-06-26T05:39:47Z</time>
      </trkpt>
      <trkpt lat="46.15421" lon="6.3792">
        <ele>661.2</ele>
        <time>2021-06-26T05:39:48Z</time>
      </trkpt>
      <trkpt lat="46.15419" lon="6.37924">
        <ele>661</ele>
        <time>2021-06-26T05:39:49Z</time>
      </trkpt>
      <trkpt lat="46.15418" lon="6.37927">
        <ele>661.4</ele>
        <time>2021-06-26T05:39:50Z</time>
      </trkpt>
      <trkpt lat="46.15416" lon="6.3793">
        <ele>661.6</ele>
        <time>2021-06-26T05:39:51Z</time>
      </trkpt>
      <trkpt lat="46.15414" lon="6.37933">
        <ele>661.6</ele>
        <time>2021-06-26T05:39:52Z</time>
      </trkpt>
      <trkpt lat="46.15412" lon="6.37936">
        <ele>662</ele>
        <time>2021-06-26T05:39:53Z</time>
      </trkpt>
      <trkpt lat="46.1541" lon="6.37938">
        <ele>662.2</ele>
        <time>2021-06-26T05:39:54Z</time>
      </trkpt>
      <trkpt lat="46.15407" lon="6.37939">
        <ele>662.6</ele>
        <time>2021-06-26T05:39:55Z</time>
      </trkpt>
      <trkpt lat="46.15403" lon="6.37941">
        <ele>662.6</ele>
        <time>2021-06-26T05:39:56Z</time>
      </trkpt>
      <trkpt lat="46.15399" lon="6.37943">
        <ele>662.6</ele>
        <time>2021-06-26T05:39:57Z</time>
      </trkpt>
      <trkpt lat="46.15394" lon="6.37946">
        <ele>662.6</ele>
        <time>2021-06-26T05:39:58Z</time>
      </trkpt>
      <trkpt lat="46.15389" lon="6.37948">
        <ele>662.4</ele>
        <time>2021-06-26T05:39:59Z</time>
      </trkpt>
      <trkpt lat="46.15383" lon="6.3795">
        <ele>662.4</ele>
        <time>2021-06-26T05:40:00Z</time>
      </trkpt>
      <trkpt lat="46.15378" lon="6.37953">
        <ele>662.6</ele>
        <time>2021-06-26T05:40:01Z</time>
      </trkpt>
      <trkpt lat="46.15364" lon="6.37959">
        <ele>662.6</ele>
        <time>2021-06-26T05:40:03Z</time>
      </trkpt>
      <trkpt lat="46.15348" lon="6.37966">
        <ele>662.6</ele>
        <time>2021-06-26T05:40:05Z</time>
      </trkpt>
      <trkpt lat="46.15325" lon="6.3798">
        <ele>661.6</ele>
        <time>2021-06-26T05:40:08Z</time>
      </trkpt>
      <trkpt lat="46.15319" lon="6.37988">
        <ele>661.2</ele>
        <time>2021-06-26T05:40:09Z</time>
      </trkpt>
      <trkpt lat="46.15313" lon="6.37998">
        <ele>660.4</ele>
        <time>2021-06-26T05:40:10Z</time>
      </trkpt>
      <trkpt lat="46.15308" lon="6.38008">
        <ele>659.8</ele>
        <time>2021-06-26T05:40:11Z</time>
      </trkpt>
      <trkpt lat="46.15304" lon="6.38018">
        <ele>659</ele>
        <time>2021-06-26T05:40:12Z</time>
      </trkpt>
      <trkpt lat="46.15294" lon="6.38038">
        <ele>657.2</ele>
        <time>2021-06-26T05:40:14Z</time>
      </trkpt>
      <trkpt lat="46.15289" lon="6.38047">
        <ele>656.4</ele>
        <time>2021-06-26T05:40:15Z</time>
      </trkpt>
      <trkpt lat="46.15284" lon="6.38056">
        <ele>655.8</ele>
        <time>2021-06-26T05:40:16Z</time>
      </trkpt>
      <trkpt lat="46.15279" lon="6.38064">
        <ele>655.2</ele>
        <time>2021-06-26T05:40:17Z</time>
      </trkpt>
      <trkpt lat="46.15274" lon="6.38073">
        <ele>654.8</ele>
        <time>2021-06-26T05:40:18Z</time>
      </trkpt>
      <trkpt lat="46.15269" lon="6.38081">
        <ele>654.4</ele>
        <time>2021-06-26T05:40:19Z</time>
      </trkpt>
      <trkpt lat="46.15264" lon="6.38088">
        <ele>654</ele>
        <time>2021-06-26T05:40:20Z</time>
      </trkpt>
      <trkpt lat="46.15259" lon="6.38096">
        <ele>654</ele>
        <time>2021-06-26T05:40:21Z</time>
      </trkpt>
      <trkpt lat="46.15254" lon="6.38103">
        <ele>653.6</ele>
        <time>2021-06-26T05:40:22Z</time>
      </trkpt>
      <trkpt lat="46.15249" lon="6.38111">
        <ele>653.2</ele>
        <time>2021-06-26T05:40:23Z</time>
      </trkpt>
      <trkpt lat="46.15235" lon="6.38135">
        <ele>653</ele>
        <time>2021-06-26T05:40:26Z</time>
      </trkpt>
      <trkpt lat="46.15225" lon="6.38151">
        <ele>653</ele>
        <time>2021-06-26T05:40:28Z</time>
      </trkpt>
      <trkpt lat="46.15221" lon="6.38159">
        <ele>652.8</ele>
        <time>2021-06-26T05:40:29Z</time>
      </trkpt>
      <trkpt lat="46.15218" lon="6.38169">
        <ele>652.8</ele>
        <time>2021-06-26T05:40:30Z</time>
      </trkpt>
      <trkpt lat="46.15214" lon="6.38179">
        <ele>652.6</ele>
        <time>2021-06-26T05:40:31Z</time>
      </trkpt>
      <trkpt lat="46.15211" lon="6.3819">
        <ele>652.8</ele>
        <time>2021-06-26T05:40:32Z</time>
      </trkpt>
      <trkpt lat="46.15204" lon="6.38237">
        <ele>652.2</ele>
        <time>2021-06-26T05:40:36Z</time>
      </trkpt>
      <trkpt lat="46.15197" lon="6.38272">
        <ele>651.4</ele>
        <time>2021-06-26T05:40:39Z</time>
      </trkpt>
      <trkpt lat="46.15191" lon="6.38295">
        <ele>650.2</ele>
        <time>2021-06-26T05:40:41Z</time>
      </trkpt>
      <trkpt lat="46.15188" lon="6.38306">
        <ele>650</ele>
        <time>2021-06-26T05:40:42Z</time>
      </trkpt>
      <trkpt lat="46.15176" lon="6.38341">
        <ele>649.2</ele>
        <time>2021-06-26T05:40:45Z</time>
      </trkpt>
      <trkpt lat="46.15168" lon="6.38366">
        <ele>648.6</ele>
        <time>2021-06-26T05:40:47Z</time>
      </trkpt>
      <trkpt lat="46.1516" lon="6.3839">
        <ele>648</ele>
        <time>2021-06-26T05:40:49Z</time>
      </trkpt>
      <trkpt lat="46.15155" lon="6.38401">
        <ele>647.6</ele>
        <time>2021-06-26T05:40:50Z</time>
      </trkpt>
      <trkpt lat="46.15149" lon="6.38412">
        <ele>646.8</ele>
        <time>2021-06-26T05:40:51Z</time>
      </trkpt>
      <trkpt lat="46.15136" lon="6.38432">
        <ele>645.6</ele>
        <time>2021-06-26T05:40:53Z</time>
      </trkpt>
      <trkpt lat="46.15123" lon="6.38454">
        <ele>644.6</ele>
        <time>2021-06-26T05:40:55Z</time>
      </trkpt>
      <trkpt lat="46.15111" lon="6.38479">
        <ele>643.2</ele>
        <time>2021-06-26T05:40:57Z</time>
      </trkpt>
      <trkpt lat="46.15101" lon="6.38505">
        <ele>642</ele>
        <time>2021-06-26T05:40:59Z</time>
      </trkpt>
      <trkpt lat="46.15096" lon="6.38518">
        <ele>641.2</ele>
        <time>2021-06-26T05:41:00Z</time>
      </trkpt>
      <trkpt lat="46.1508" lon="6.38558">
        <ele>639.6</ele>
        <time>2021-06-26T05:41:03Z</time>
      </trkpt>
      <trkpt lat="46.1507" lon="6.38584">
        <ele>638.2</ele>
        <time>2021-06-26T05:41:05Z</time>
      </trkpt>
      <trkpt lat="46.15055" lon="6.38622">
        <ele>636.6</ele>
        <time>2021-06-26T05:41:08Z</time>
      </trkpt>
      <trkpt lat="46.15045" lon="6.38648">
        <ele>635</ele>
        <time>2021-06-26T05:41:10Z</time>
      </trkpt>
      <trkpt lat="46.1504" lon="6.38661">
        <ele>634.4</ele>
        <time>2021-06-26T05:41:11Z</time>
      </trkpt>
      <trkpt lat="46.15035" lon="6.38673">
        <ele>633.8</ele>
        <time>2021-06-26T05:41:12Z</time>
      </trkpt>
      <trkpt lat="46.1502" lon="6.3871">
        <ele>631.8</ele>
        <time>2021-06-26T05:41:15Z</time>
      </trkpt>
      <trkpt lat="46.1501" lon="6.38735">
        <ele>630.2</ele>
        <time>2021-06-26T05:41:17Z</time>
      </trkpt>
      <trkpt lat="46.15006" lon="6.38747">
        <ele>629.8</ele>
        <time>2021-06-26T05:41:18Z</time>
      </trkpt>
      <trkpt lat="46.15001" lon="6.3876">
        <ele>628.8</ele>
        <time>2021-06-26T05:41:19Z</time>
      </trkpt>
      <trkpt lat="46.14998" lon="6.38773">
        <ele>628.4</ele>
        <time>2021-06-26T05:41:20Z</time>
      </trkpt>
      <trkpt lat="46.14993" lon="6.38801">
        <ele>627</ele>
        <time>2021-06-26T05:41:22Z</time>
      </trkpt>
      <trkpt lat="46.14989" lon="6.38828">
        <ele>626</ele>
        <time>2021-06-26T05:41:24Z</time>
      </trkpt>
      <trkpt lat="46.14983" lon="6.38869">
        <ele>624.4</ele>
        <time>2021-06-26T05:41:27Z</time>
      </trkpt>
      <trkpt lat="46.14979" lon="6.38882">
        <ele>623.8</ele>
        <time>2021-06-26T05:41:28Z</time>
      </trkpt>
      <trkpt lat="46.14975" lon="6.38894">
        <ele>623</ele>
        <time>2021-06-26T05:41:29Z</time>
      </trkpt>
      <trkpt lat="46.14971" lon="6.38906">
        <ele>622.6</ele>
        <time>2021-06-26T05:41:30Z</time>
      </trkpt>
      <trkpt lat="46.14966" lon="6.38917">
        <ele>622.6</ele>
        <time>2021-06-26T05:41:31Z</time>
      </trkpt>
      <trkpt lat="46.14961" lon="6.38927">
        <ele>622</ele>
        <time>2021-06-26T05:41:32Z</time>
      </trkpt>
      <trkpt lat="46.14956" lon="6.38937">
        <ele>621.2</ele>
        <time>2021-06-26T05:41:33Z</time>
      </trkpt>
      <trkpt lat="46.14951" lon="6.38948">
        <ele>620.6</ele>
        <time>2021-06-26T05:41:34Z</time>
      </trkpt>
      <trkpt lat="46.14947" lon="6.38957">
        <ele>620.2</ele>
        <time>2021-06-26T05:41:35Z</time>
      </trkpt>
      <trkpt lat="46.14942" lon="6.38967">
        <ele>620</ele>
        <time>2021-06-26T05:41:36Z</time>
      </trkpt>
      <trkpt lat="46.14937" lon="6.38976">
        <ele>619.6</ele>
        <time>2021-06-26T05:41:37Z</time>
      </trkpt>
      <trkpt lat="46.14932" lon="6.38985">
        <ele>619.4</ele>
        <time>2021-06-26T05:41:38Z</time>
      </trkpt>
      <trkpt lat="46.14913" lon="6.39023">
        <ele>618.6</ele>
        <time>2021-06-26T05:41:42Z</time>
      </trkpt>
      <trkpt lat="46.14899" lon="6.39051">
        <ele>618.4</ele>
        <time>2021-06-26T05:41:45Z</time>
      </trkpt>
      <trkpt lat="46.14891" lon="6.3907">
        <ele>618.2</ele>
        <time>2021-06-26T05:41:47Z</time>
      </trkpt>
      <trkpt lat="46.14886" lon="6.3908">
        <ele>618</ele>
        <time>2021-06-26T05:41:48Z</time>
      </trkpt>
      <trkpt lat="46.14882" lon="6.39089">
        <ele>618</ele>
        <time>2021-06-26T05:41:49Z</time>
      </trkpt>
      <trkpt lat="46.14877" lon="6.39097">
        <ele>618</ele>
        <time>2021-06-26T05:41:50Z</time>
      </trkpt>
      <trkpt lat="46.14872" lon="6.39106">
        <ele>617.8</ele>
        <time>2021-06-26T05:41:51Z</time>
      </trkpt>
      <trkpt lat="46.14857" lon="6.3913">
        <ele>617.8</ele>
        <time>2021-06-26T05:41:54Z</time>
      </trkpt>
      <trkpt lat="46.14853" lon="6.39138">
        <ele>617.4</ele>
        <time>2021-06-26T05:41:55Z</time>
      </trkpt>
      <trkpt lat="46.14849" lon="6.39146">
        <ele>617.4</ele>
        <time>2021-06-26T05:41:56Z</time>
      </trkpt>
      <trkpt lat="46.14845" lon="6.39154">
        <ele>617.2</ele>
        <time>2021-06-26T05:41:57Z</time>
      </trkpt>
      <trkpt lat="46.14841" lon="6.39162">
        <ele>617</ele>
        <time>2021-06-26T05:41:58Z</time>
      </trkpt>
      <trkpt lat="46.14837" lon="6.3917">
        <ele>617</ele>
        <time>2021-06-26T05:41:59Z</time>
      </trkpt>
      <trkpt lat="46.14834" lon="6.39179">
        <ele>616.8</ele>
        <time>2021-06-26T05:42:00Z</time>
      </trkpt>
      <trkpt lat="46.14831" lon="6.39188">
        <ele>616.8</ele>
        <time>2021-06-26T05:42:01Z</time>
      </trkpt>
      <trkpt lat="46.14829" lon="6.39197">
        <ele>616.6</ele>
        <time>2021-06-26T05:42:02Z</time>
      </trkpt>
      <trkpt lat="46.14826" lon="6.39215">
        <ele>616.6</ele>
        <time>2021-06-26T05:42:04Z</time>
      </trkpt>
      <trkpt lat="46.14821" lon="6.39242">
        <ele>616.6</ele>
        <time>2021-06-26T05:42:07Z</time>
      </trkpt>
      <trkpt lat="46.14818" lon="6.39261">
        <ele>616.4</ele>
        <time>2021-06-26T05:42:09Z</time>
      </trkpt>
      <trkpt lat="46.14811" lon="6.39319">
        <ele>616.6</ele>
        <time>2021-06-26T05:42:15Z</time>
      </trkpt>
      <trkpt lat="46.1481" lon="6.39328">
        <ele>616.4</ele>
        <time>2021-06-26T05:42:16Z</time>
      </trkpt>
      <trkpt lat="46.1481" lon="6.39337">
        <ele>616.4</ele>
        <time>2021-06-26T05:42:17Z</time>
      </trkpt>
      <trkpt lat="46.14811" lon="6.39367">
        <ele>616.4</ele>
        <time>2021-06-26T05:42:20Z</time>
      </trkpt>
      <trkpt lat="46.1482" lon="6.39426">
        <ele>616.4</ele>
        <time>2021-06-26T05:42:26Z</time>
      </trkpt>
      <trkpt lat="46.14823" lon="6.39436">
        <ele>616.2</ele>
        <time>2021-06-26T05:42:27Z</time>
      </trkpt>
      <trkpt lat="46.14827" lon="6.39445">
        <ele>616.2</ele>
        <time>2021-06-26T05:42:28Z</time>
      </trkpt>
      <trkpt lat="46.1483" lon="6.39454">
        <ele>616.2</ele>
        <time>2021-06-26T05:42:29Z</time>
      </trkpt>
      <trkpt lat="46.14833" lon="6.39462">
        <ele>616.2</ele>
        <time>2021-06-26T05:42:30Z</time>
      </trkpt>
      <trkpt lat="46.14837" lon="6.39471">
        <ele>616</ele>
        <time>2021-06-26T05:42:31Z</time>
      </trkpt>
      <trkpt lat="46.1484" lon="6.39479">
        <ele>616</ele>
        <time>2021-06-26T05:42:32Z</time>
      </trkpt>
      <trkpt lat="46.14843" lon="6.39487">
        <ele>616.2</ele>
        <time>2021-06-26T05:42:33Z</time>
      </trkpt>
      <trkpt lat="46.14846" lon="6.39495">
        <ele>616</ele>
        <time>2021-06-26T05:42:34Z</time>
      </trkpt>
      <trkpt lat="46.14848" lon="6.39504">
        <ele>616.2</ele>
        <time>2021-06-26T05:42:35Z</time>
      </trkpt>
      <trkpt lat="46.1485" lon="6.39512">
        <ele>616.2</ele>
        <time>2021-06-26T05:42:36Z</time>
      </trkpt>
      <trkpt lat="46.14853" lon="6.39521">
        <ele>616.2</ele>
        <time>2021-06-26T05:42:37Z</time>
      </trkpt>
      <trkpt lat="46.14864" lon="6.39577">
        <ele>616.6</ele>
        <time>2021-06-26T05:42:43Z</time>
      </trkpt>
      <trkpt lat="46.14868" lon="6.39606">
        <ele>616.4</ele>
        <time>2021-06-26T05:42:46Z</time>
      </trkpt>
      <trkpt lat="46.14868" lon="6.39615">
        <ele>616.6</ele>
        <time>2021-06-26T05:42:47Z</time>
      </trkpt>
      <trkpt lat="46.14869" lon="6.39625">
        <ele>616.6</ele>
        <time>2021-06-26T05:42:48Z</time>
      </trkpt>
      <trkpt lat="46.14869" lon="6.39634">
        <ele>616.6</ele>
        <time>2021-06-26T05:42:49Z</time>
      </trkpt>
      <trkpt lat="46.14869" lon="6.39643">
        <ele>616.6</ele>
        <time>2021-06-26T05:42:50Z</time>
      </trkpt>
      <trkpt lat="46.1487" lon="6.39699">
        <ele>616.4</ele>
        <time>2021-06-26T05:42:56Z</time>
      </trkpt>
      <trkpt lat="46.14871" lon="6.39707">
        <ele>616.4</ele>
        <time>2021-06-26T05:42:57Z</time>
      </trkpt>
      <trkpt lat="46.14873" lon="6.39715">
        <ele>616.2</ele>
        <time>2021-06-26T05:42:58Z</time>
      </trkpt>
      <trkpt lat="46.14875" lon="6.39723">
        <ele>616.4</ele>
        <time>2021-06-26T05:42:59Z</time>
      </trkpt>
      <trkpt lat="46.14877" lon="6.39731">
        <ele>616.2</ele>
        <time>2021-06-26T05:43:00Z</time>
      </trkpt>
      <trkpt lat="46.14879" lon="6.39738">
        <ele>616.4</ele>
        <time>2021-06-26T05:43:01Z</time>
      </trkpt>
      <trkpt lat="46.14881" lon="6.39744">
        <ele>616.2</ele>
        <time>2021-06-26T05:43:02Z</time>
      </trkpt>
      <trkpt lat="46.14883" lon="6.39749">
        <ele>616.4</ele>
        <time>2021-06-26T05:43:03Z</time>
      </trkpt>
      <trkpt lat="46.14884" lon="6.39754">
        <ele>616.4</ele>
        <time>2021-06-26T05:43:04Z</time>
      </trkpt>
      <trkpt lat="46.14885" lon="6.39756">
        <ele>616.4</ele>
        <time>2021-06-26T05:43:05Z</time>
      </trkpt>
      <trkpt lat="46.14886" lon="6.39757">
        <ele>616.2</ele>
        <time>2021-06-26T05:43:06Z</time>
      </trkpt>
      <trkpt lat="46.14885" lon="6.39755">
        <ele>617.4</ele>
        <time>2021-06-26T05:43:19Z</time>
      </trkpt>
      <trkpt lat="46.14888" lon="6.39761">
        <ele>617.4</ele>
        <time>2021-06-26T05:43:24Z</time>
      </trkpt>
      <trkpt lat="46.1489" lon="6.39763">
        <ele>617.4</ele>
        <time>2021-06-26T05:43:25Z</time>
      </trkpt>
      <trkpt lat="46.14893" lon="6.39766">
        <ele>617.4</ele>
        <time>2021-06-26T05:43:26Z</time>
      </trkpt>
      <trkpt lat="46.14905" lon="6.39785">
        <ele>617.4</ele>
        <time>2021-06-26T05:43:30Z</time>
      </trkpt>
      <trkpt lat="46.14927" lon="6.39829">
        <ele>616.8</ele>
        <time>2021-06-26T05:43:37Z</time>
      </trkpt>
      <trkpt lat="46.14954" lon="6.39897">
        <ele>616.6</ele>
        <time>2021-06-26T05:43:46Z</time>
      </trkpt>
      <trkpt lat="46.1496" lon="6.39913">
        <ele>616.4</ele>
        <time>2021-06-26T05:43:48Z</time>
      </trkpt>
      <trkpt lat="46.14979" lon="6.39965">
        <ele>616.2</ele>
        <time>2021-06-26T05:43:54Z</time>
      </trkpt>
      <trkpt lat="46.14981" lon="6.39974">
        <ele>616.2</ele>
        <time>2021-06-26T05:43:55Z</time>
      </trkpt>
      <trkpt lat="46.14982" lon="6.39984">
        <ele>616.2</ele>
        <time>2021-06-26T05:43:56Z</time>
      </trkpt>
      <trkpt lat="46.14983" lon="6.39993">
        <ele>616</ele>
        <time>2021-06-26T05:43:57Z</time>
      </trkpt>
      <trkpt lat="46.14982" lon="6.40002">
        <ele>615.8</ele>
        <time>2021-06-26T05:43:58Z</time>
      </trkpt>
      <trkpt lat="46.14975" lon="6.4006">
        <ele>615</ele>
        <time>2021-06-26T05:44:04Z</time>
      </trkpt>
      <trkpt lat="46.14974" lon="6.4007">
        <ele>615.2</ele>
        <time>2021-06-26T05:44:05Z</time>
      </trkpt>
      <trkpt lat="46.14973" lon="6.40079">
        <ele>615.2</ele>
        <time>2021-06-26T05:44:06Z</time>
      </trkpt>
      <trkpt lat="46.14971" lon="6.40087">
        <ele>615</ele>
        <time>2021-06-26T05:44:07Z</time>
      </trkpt>
      <trkpt lat="46.1497" lon="6.40096">
        <ele>615.2</ele>
        <time>2021-06-26T05:44:08Z</time>
      </trkpt>
      <trkpt lat="46.14968" lon="6.40105">
        <ele>615.2</ele>
        <time>2021-06-26T05:44:09Z</time>
      </trkpt>
      <trkpt lat="46.14966" lon="6.40113">
        <ele>615</ele>
        <time>2021-06-26T05:44:10Z</time>
      </trkpt>
      <trkpt lat="46.14951" lon="6.40154">
        <ele>615.2</ele>
        <time>2021-06-26T05:44:15Z</time>
      </trkpt>
      <trkpt lat="46.14948" lon="6.40162">
        <ele>615.4</ele>
        <time>2021-06-26T05:44:16Z</time>
      </trkpt>
      <trkpt lat="46.14944" lon="6.4017">
        <ele>615.4</ele>
        <time>2021-06-26T05:44:17Z</time>
      </trkpt>
      <trkpt lat="46.14941" lon="6.40177">
        <ele>615.4</ele>
        <time>2021-06-26T05:44:18Z</time>
      </trkpt>
      <trkpt lat="46.14938" lon="6.40184">
        <ele>615.6</ele>
        <time>2021-06-26T05:44:19Z</time>
      </trkpt>
      <trkpt lat="46.14935" lon="6.4019">
        <ele>615.6</ele>
        <time>2021-06-26T05:44:20Z</time>
      </trkpt>
      <trkpt lat="46.14932" lon="6.40196">
        <ele>615.6</ele>
        <time>2021-06-26T05:44:21Z</time>
      </trkpt>
      <trkpt lat="46.14929" lon="6.40202">
        <ele>615.8</ele>
        <time>2021-06-26T05:44:22Z</time>
      </trkpt>
      <trkpt lat="46.14926" lon="6.40208">
        <ele>615.8</ele>
        <time>2021-06-26T05:44:23Z</time>
      </trkpt>
      <trkpt lat="46.14923" lon="6.40214">
        <ele>616</ele>
        <time>2021-06-26T05:44:24Z</time>
      </trkpt>
      <trkpt lat="46.14921" lon="6.4022">
        <ele>616</ele>
        <time>2021-06-26T05:44:25Z</time>
      </trkpt>
      <trkpt lat="46.14918" lon="6.40226">
        <ele>616</ele>
        <time>2021-06-26T05:44:26Z</time>
      </trkpt>
      <trkpt lat="46.14916" lon="6.40232">
        <ele>616.4</ele>
        <time>2021-06-26T05:44:27Z</time>
      </trkpt>
      <trkpt lat="46.14914" lon="6.40237">
        <ele>616.8</ele>
        <time>2021-06-26T05:44:28Z</time>
      </trkpt>
      <trkpt lat="46.14912" lon="6.40243">
        <ele>617.2</ele>
        <time>2021-06-26T05:44:29Z</time>
      </trkpt>
      <trkpt lat="46.1491" lon="6.40248">
        <ele>617.4</ele>
        <time>2021-06-26T05:44:30Z</time>
      </trkpt>
      <trkpt lat="46.14908" lon="6.40254">
        <ele>617.6</ele>
        <time>2021-06-26T05:44:31Z</time>
      </trkpt>
      <trkpt lat="46.14906" lon="6.4026">
        <ele>618</ele>
        <time>2021-06-26T05:44:32Z</time>
      </trkpt>
      <trkpt lat="46.14904" lon="6.40266">
        <ele>618.4</ele>
        <time>2021-06-26T05:44:33Z</time>
      </trkpt>
      <trkpt lat="46.14902" lon="6.40271">
        <ele>618.8</ele>
        <time>2021-06-26T05:44:34Z</time>
      </trkpt>
      <trkpt lat="46.149" lon="6.40277">
        <ele>619.2</ele>
        <time>2021-06-26T05:44:35Z</time>
      </trkpt>
      <trkpt lat="46.14898" lon="6.40283">
        <ele>619.2</ele>
        <time>2021-06-26T05:44:36Z</time>
      </trkpt>
      <trkpt lat="46.14896" lon="6.40289">
        <ele>619.6</ele>
        <time>2021-06-26T05:44:37Z</time>
      </trkpt>
      <trkpt lat="46.14895" lon="6.40295">
        <ele>619.8</ele>
        <time>2021-06-26T05:44:38Z</time>
      </trkpt>
      <trkpt lat="46.14893" lon="6.40302">
        <ele>620.2</ele>
        <time>2021-06-26T05:44:39Z</time>
      </trkpt>
      <trkpt lat="46.14891" lon="6.40308">
        <ele>620.6</ele>
        <time>2021-06-26T05:44:40Z</time>
      </trkpt>
      <trkpt lat="46.14889" lon="6.40314">
        <ele>621</ele>
        <time>2021-06-26T05:44:41Z</time>
      </trkpt>
      <trkpt lat="46.14888" lon="6.40321">
        <ele>621.2</ele>
        <time>2021-06-26T05:44:42Z</time>
      </trkpt>
      <trkpt lat="46.14886" lon="6.40327">
        <ele>621.6</ele>
        <time>2021-06-26T05:44:43Z</time>
      </trkpt>
      <trkpt lat="46.14884" lon="6.40334">
        <ele>621.6</ele>
        <time>2021-06-26T05:44:44Z</time>
      </trkpt>
      <trkpt lat="46.14882" lon="6.4034">
        <ele>622</ele>
        <time>2021-06-26T05:44:45Z</time>
      </trkpt>
      <trkpt lat="46.14879" lon="6.40347">
        <ele>622</ele>
        <time>2021-06-26T05:44:46Z</time>
      </trkpt>
      <trkpt lat="46.14877" lon="6.40353">
        <ele>622.4</ele>
        <time>2021-06-26T05:44:47Z</time>
      </trkpt>
      <trkpt lat="46.14874" lon="6.40359">
        <ele>622.4</ele>
        <time>2021-06-26T05:44:48Z</time>
      </trkpt>
      <trkpt lat="46.14872" lon="6.40364">
        <ele>622.6</ele>
        <time>2021-06-26T05:44:49Z</time>
      </trkpt>
      <trkpt lat="46.14869" lon="6.4037">
        <ele>622.8</ele>
        <time>2021-06-26T05:44:50Z</time>
      </trkpt>
      <trkpt lat="46.14866" lon="6.40376">
        <ele>622.8</ele>
        <time>2021-06-26T05:44:51Z</time>
      </trkpt>
      <trkpt lat="46.14862" lon="6.40381">
        <ele>623.2</ele>
        <time>2021-06-26T05:44:52Z</time>
      </trkpt>
      <trkpt lat="46.14859" lon="6.40386">
        <ele>623.2</ele>
        <time>2021-06-26T05:44:53Z</time>
      </trkpt>
      <trkpt lat="46.14855" lon="6.40392">
        <ele>623.2</ele>
        <time>2021-06-26T05:44:54Z</time>
      </trkpt>
      <trkpt lat="46.14852" lon="6.40397">
        <ele>623.4</ele>
        <time>2021-06-26T05:44:55Z</time>
      </trkpt>
      <trkpt lat="46.1485" lon="6.40403">
        <ele>623.6</ele>
        <time>2021-06-26T05:44:56Z</time>
      </trkpt>
      <trkpt lat="46.14848" lon="6.4041">
        <ele>623.8</ele>
        <time>2021-06-26T05:44:57Z</time>
      </trkpt>
      <trkpt lat="46.14845" lon="6.40416">
        <ele>624</ele>
        <time>2021-06-26T05:44:58Z</time>
      </trkpt>
      <trkpt lat="46.14843" lon="6.40423">
        <ele>624</ele>
        <time>2021-06-26T05:44:59Z</time>
      </trkpt>
      <trkpt lat="46.14841" lon="6.40429">
        <ele>624</ele>
        <time>2021-06-26T05:45:00Z</time>
      </trkpt>
      <trkpt lat="46.14838" lon="6.40435">
        <ele>624</ele>
        <time>2021-06-26T05:45:01Z</time>
      </trkpt>
      <trkpt lat="46.14836" lon="6.40441">
        <ele>624.4</ele>
        <time>2021-06-26T05:45:02Z</time>
      </trkpt>
      <trkpt lat="46.14832" lon="6.40447">
        <ele>624.4</ele>
        <time>2021-06-26T05:45:03Z</time>
      </trkpt>
      <trkpt lat="46.14829" lon="6.40452">
        <ele>624.4</ele>
        <time>2021-06-26T05:45:04Z</time>
      </trkpt>
      <trkpt lat="46.14825" lon="6.40457">
        <ele>624.4</ele>
        <time>2021-06-26T05:45:05Z</time>
      </trkpt>
      <trkpt lat="46.14821" lon="6.40461">
        <ele>624.8</ele>
        <time>2021-06-26T05:45:06Z</time>
      </trkpt>
      <trkpt lat="46.14817" lon="6.40465">
        <ele>624.8</ele>
        <time>2021-06-26T05:45:07Z</time>
      </trkpt>
      <trkpt lat="46.14812" lon="6.4047">
        <ele>625</ele>
        <time>2021-06-26T05:45:08Z</time>
      </trkpt>
      <trkpt lat="46.14808" lon="6.40474">
        <ele>625</ele>
        <time>2021-06-26T05:45:09Z</time>
      </trkpt>
      <trkpt lat="46.14804" lon="6.40479">
        <ele>625.4</ele>
        <time>2021-06-26T05:45:10Z</time>
      </trkpt>
      <trkpt lat="46.14799" lon="6.40483">
        <ele>625.6</ele>
        <time>2021-06-26T05:45:11Z</time>
      </trkpt>
      <trkpt lat="46.14793" lon="6.40485">
        <ele>625.4</ele>
        <time>2021-06-26T05:45:12Z</time>
      </trkpt>
      <trkpt lat="46.14788" lon="6.40488">
        <ele>625.6</ele>
        <time>2021-06-26T05:45:13Z</time>
      </trkpt>
      <trkpt lat="46.14781" lon="6.4049">
        <ele>625.6</ele>
        <time>2021-06-26T05:45:14Z</time>
      </trkpt>
      <trkpt lat="46.14775" lon="6.40491">
        <ele>625.6</ele>
        <time>2021-06-26T05:45:15Z</time>
      </trkpt>
      <trkpt lat="46.14762" lon="6.40494">
        <ele>625.6</ele>
        <time>2021-06-26T05:45:17Z</time>
      </trkpt>
      <trkpt lat="46.14756" lon="6.40498">
        <ele>625.6</ele>
        <time>2021-06-26T05:45:18Z</time>
      </trkpt>
      <trkpt lat="46.14751" lon="6.40502">
        <ele>625.6</ele>
        <time>2021-06-26T05:45:19Z</time>
      </trkpt>
      <trkpt lat="46.14746" lon="6.40507">
        <ele>625.8</ele>
        <time>2021-06-26T05:45:20Z</time>
      </trkpt>
      <trkpt lat="46.14725" lon="6.40525">
        <ele>625.6</ele>
        <time>2021-06-26T05:45:24Z</time>
      </trkpt>
      <trkpt lat="46.1472" lon="6.4053">
        <ele>625.8</ele>
        <time>2021-06-26T05:45:25Z</time>
      </trkpt>
      <trkpt lat="46.14715" lon="6.40534">
        <ele>625.8</ele>
        <time>2021-06-26T05:45:26Z</time>
      </trkpt>
      <trkpt lat="46.1471" lon="6.40538">
        <ele>625.6</ele>
        <time>2021-06-26T05:45:27Z</time>
      </trkpt>
      <trkpt lat="46.14704" lon="6.40542">
        <ele>625.6</ele>
        <time>2021-06-26T05:45:28Z</time>
      </trkpt>
      <trkpt lat="46.14699" lon="6.40545">
        <ele>625.6</ele>
        <time>2021-06-26T05:45:29Z</time>
      </trkpt>
      <trkpt lat="46.14695" lon="6.40549">
        <ele>625.6</ele>
        <time>2021-06-26T05:45:30Z</time>
      </trkpt>
      <trkpt lat="46.14691" lon="6.40552">
        <ele>625.6</ele>
        <time>2021-06-26T05:45:31Z</time>
      </trkpt>
      <trkpt lat="46.14687" lon="6.40554">
        <ele>625.6</ele>
        <time>2021-06-26T05:45:32Z</time>
      </trkpt>
      <trkpt lat="46.14683" lon="6.40555">
        <ele>625.8</ele>
        <time>2021-06-26T05:45:33Z</time>
      </trkpt>
      <trkpt lat="46.14679" lon="6.40556">
        <ele>625.6</ele>
        <time>2021-06-26T05:45:34Z</time>
      </trkpt>
      <trkpt lat="46.14675" lon="6.40557">
        <ele>625.8</ele>
        <time>2021-06-26T05:45:35Z</time>
      </trkpt>
      <trkpt lat="46.14672" lon="6.40557">
        <ele>625.8</ele>
        <time>2021-06-26T05:45:36Z</time>
      </trkpt>
      <trkpt lat="46.14668" lon="6.40558">
        <ele>626</ele>
        <time>2021-06-26T05:45:37Z</time>
      </trkpt>
      <trkpt lat="46.14665" lon="6.40559">
        <ele>626.2</ele>
        <time>2021-06-26T05:45:38Z</time>
      </trkpt>
      <trkpt lat="46.14661" lon="6.4056">
        <ele>626.6</ele>
        <time>2021-06-26T05:45:39Z</time>
      </trkpt>
      <trkpt lat="46.14658" lon="6.40562">
        <ele>627.2</ele>
        <time>2021-06-26T05:45:40Z</time>
      </trkpt>
      <trkpt lat="46.14655" lon="6.40564">
        <ele>627.6</ele>
        <time>2021-06-26T05:45:41Z</time>
      </trkpt>
      <trkpt lat="46.14652" lon="6.40566">
        <ele>628.2</ele>
        <time>2021-06-26T05:45:42Z</time>
      </trkpt>
      <trkpt lat="46.14649" lon="6.40569">
        <ele>628.8</ele>
        <time>2021-06-26T05:45:43Z</time>
      </trkpt>
      <trkpt lat="46.14646" lon="6.40572">
        <ele>629.4</ele>
        <time>2021-06-26T05:45:44Z</time>
      </trkpt>
      <trkpt lat="46.14643" lon="6.40575">
        <ele>629.4</ele>
        <time>2021-06-26T05:45:45Z</time>
      </trkpt>
      <trkpt lat="46.1464" lon="6.40579">
        <ele>629.6</ele>
        <time>2021-06-26T05:45:46Z</time>
      </trkpt>
      <trkpt lat="46.14637" lon="6.40583">
        <ele>630.2</ele>
        <time>2021-06-26T05:45:47Z</time>
      </trkpt>
      <trkpt lat="46.14634" lon="6.40588">
        <ele>630.8</ele>
        <time>2021-06-26T05:45:48Z</time>
      </trkpt>
      <trkpt lat="46.14633" lon="6.40593">
        <ele>631</ele>
        <time>2021-06-26T05:45:49Z</time>
      </trkpt>
      <trkpt lat="46.14632" lon="6.406">
        <ele>631.6</ele>
        <time>2021-06-26T05:45:50Z</time>
      </trkpt>
      <trkpt lat="46.14632" lon="6.40606">
        <ele>631.6</ele>
        <time>2021-06-26T05:45:51Z</time>
      </trkpt>
      <trkpt lat="46.14631" lon="6.40611">
        <ele>632</ele>
        <time>2021-06-26T05:45:52Z</time>
      </trkpt>
      <trkpt lat="46.1463" lon="6.40616">
        <ele>632.2</ele>
        <time>2021-06-26T05:45:53Z</time>
      </trkpt>
      <trkpt lat="46.14629" lon="6.4062">
        <ele>632.4</ele>
        <time>2021-06-26T05:45:54Z</time>
      </trkpt>
      <trkpt lat="46.14627" lon="6.40623">
        <ele>632.4</ele>
        <time>2021-06-26T05:45:55Z</time>
      </trkpt>
      <trkpt lat="46.14625" lon="6.40625">
        <ele>632.6</ele>
        <time>2021-06-26T05:45:56Z</time>
      </trkpt>
      <trkpt lat="46.14623" lon="6.40628">
        <ele>632.8</ele>
        <time>2021-06-26T05:45:57Z</time>
      </trkpt>
      <trkpt lat="46.14621" lon="6.4063">
        <ele>632.6</ele>
        <time>2021-06-26T05:45:58Z</time>
      </trkpt>
      <trkpt lat="46.14619" lon="6.40633">
        <ele>632.6</ele>
        <time>2021-06-26T05:45:59Z</time>
      </trkpt>
      <trkpt lat="46.14617" lon="6.40636">
        <ele>632.8</ele>
        <time>2021-06-26T05:46:00Z</time>
      </trkpt>
      <trkpt lat="46.14615" lon="6.40638">
        <ele>632.8</ele>
        <time>2021-06-26T05:46:01Z</time>
      </trkpt>
      <trkpt lat="46.14613" lon="6.40641">
        <ele>633.2</ele>
        <time>2021-06-26T05:46:02Z</time>
      </trkpt>
      <trkpt lat="46.14611" lon="6.40644">
        <ele>633.8</ele>
        <time>2021-06-26T05:46:03Z</time>
      </trkpt>
      <trkpt lat="46.14609" lon="6.40646">
        <ele>634.2</ele>
        <time>2021-06-26T05:46:04Z</time>
      </trkpt>
      <trkpt lat="46.14608" lon="6.4065">
        <ele>634.6</ele>
        <time>2021-06-26T05:46:05Z</time>
      </trkpt>
      <trkpt lat="46.14606" lon="6.40653">
        <ele>635</ele>
        <time>2021-06-26T05:46:06Z</time>
      </trkpt>
      <trkpt lat="46.14605" lon="6.40656">
        <ele>635.4</ele>
        <time>2021-06-26T05:46:07Z</time>
      </trkpt>
      <trkpt lat="46.14603" lon="6.4066">
        <ele>635.4</ele>
        <time>2021-06-26T05:46:08Z</time>
      </trkpt>
      <trkpt lat="46.14602" lon="6.40663">
        <ele>635.6</ele>
        <time>2021-06-26T05:46:09Z</time>
      </trkpt>
      <trkpt lat="46.146" lon="6.40666">
        <ele>635.8</ele>
        <time>2021-06-26T05:46:10Z</time>
      </trkpt>
      <trkpt lat="46.14598" lon="6.4067">
        <ele>636.4</ele>
        <time>2021-06-26T05:46:11Z</time>
      </trkpt>
      <trkpt lat="46.14596" lon="6.40673">
        <ele>636.8</ele>
        <time>2021-06-26T05:46:12Z</time>
      </trkpt>
      <trkpt lat="46.14594" lon="6.40676">
        <ele>637.2</ele>
        <time>2021-06-26T05:46:13Z</time>
      </trkpt>
      <trkpt lat="46.14593" lon="6.40679">
        <ele>637.4</ele>
        <time>2021-06-26T05:46:14Z</time>
      </trkpt>
      <trkpt lat="46.14591" lon="6.40682">
        <ele>637.8</ele>
        <time>2021-06-26T05:46:15Z</time>
      </trkpt>
      <trkpt lat="46.1459" lon="6.40686">
        <ele>638.2</ele>
        <time>2021-06-26T05:46:16Z</time>
      </trkpt>
      <trkpt lat="46.14588" lon="6.40689">
        <ele>638.6</ele>
        <time>2021-06-26T05:46:17Z</time>
      </trkpt>
      <trkpt lat="46.14587" lon="6.40693">
        <ele>639</ele>
        <time>2021-06-26T05:46:18Z</time>
      </trkpt>
      <trkpt lat="46.14585" lon="6.40696">
        <ele>639.2</ele>
        <time>2021-06-26T05:46:19Z</time>
      </trkpt>
      <trkpt lat="46.14584" lon="6.40701">
        <ele>639.4</ele>
        <time>2021-06-26T05:46:20Z</time>
      </trkpt>
      <trkpt lat="46.14582" lon="6.40705">
        <ele>639.6</ele>
        <time>2021-06-26T05:46:21Z</time>
      </trkpt>
      <trkpt lat="46.1458" lon="6.40709">
        <ele>639.8</ele>
        <time>2021-06-26T05:46:22Z</time>
      </trkpt>
      <trkpt lat="46.14579" lon="6.40713">
        <ele>640</ele>
        <time>2021-06-26T05:46:23Z</time>
      </trkpt>
      <trkpt lat="46.14577" lon="6.40718">
        <ele>640.4</ele>
        <time>2021-06-26T05:46:24Z</time>
      </trkpt>
      <trkpt lat="46.14576" lon="6.40723">
        <ele>640.8</ele>
        <time>2021-06-26T05:46:25Z</time>
      </trkpt>
      <trkpt lat="46.14575" lon="6.40727">
        <ele>641</ele>
        <time>2021-06-26T05:46:26Z</time>
      </trkpt>
      <trkpt lat="46.14573" lon="6.40732">
        <ele>641.2</ele>
        <time>2021-06-26T05:46:27Z</time>
      </trkpt>
      <trkpt lat="46.14571" lon="6.40737">
        <ele>641.4</ele>
        <time>2021-06-26T05:46:28Z</time>
      </trkpt>
      <trkpt lat="46.1457" lon="6.40741">
        <ele>641.6</ele>
        <time>2021-06-26T05:46:29Z</time>
      </trkpt>
      <trkpt lat="46.14568" lon="6.40745">
        <ele>642</ele>
        <time>2021-06-26T05:46:30Z</time>
      </trkpt>
      <trkpt lat="46.14567" lon="6.4075">
        <ele>642</ele>
        <time>2021-06-26T05:46:31Z</time>
      </trkpt>
      <trkpt lat="46.14566" lon="6.40755">
        <ele>642.2</ele>
        <time>2021-06-26T05:46:32Z</time>
      </trkpt>
      <trkpt lat="46.14564" lon="6.40759">
        <ele>642.4</ele>
        <time>2021-06-26T05:46:33Z</time>
      </trkpt>
      <trkpt lat="46.14563" lon="6.40764">
        <ele>642.6</ele>
        <time>2021-06-26T05:46:34Z</time>
      </trkpt>
      <trkpt lat="46.14561" lon="6.40769">
        <ele>642.8</ele>
        <time>2021-06-26T05:46:35Z</time>
      </trkpt>
      <trkpt lat="46.1456" lon="6.40773">
        <ele>643.2</ele>
        <time>2021-06-26T05:46:36Z</time>
      </trkpt>
      <trkpt lat="46.14559" lon="6.40777">
        <ele>643.4</ele>
        <time>2021-06-26T05:46:37Z</time>
      </trkpt>
      <trkpt lat="46.14557" lon="6.40782">
        <ele>643.8</ele>
        <time>2021-06-26T05:46:38Z</time>
      </trkpt>
      <trkpt lat="46.14556" lon="6.40786">
        <ele>643.8</ele>
        <time>2021-06-26T05:46:39Z</time>
      </trkpt>
      <trkpt lat="46.14555" lon="6.40791">
        <ele>644.2</ele>
        <time>2021-06-26T05:46:40Z</time>
      </trkpt>
      <trkpt lat="46.14553" lon="6.40795">
        <ele>644.4</ele>
        <time>2021-06-26T05:46:41Z</time>
      </trkpt>
      <trkpt lat="46.14551" lon="6.408">
        <ele>644.6</ele>
        <time>2021-06-26T05:46:42Z</time>
      </trkpt>
      <trkpt lat="46.1455" lon="6.40804">
        <ele>644.8</ele>
        <time>2021-06-26T05:46:43Z</time>
      </trkpt>
      <trkpt lat="46.14547" lon="6.40808">
        <ele>645</ele>
        <time>2021-06-26T05:46:44Z</time>
      </trkpt>
      <trkpt lat="46.14545" lon="6.40813">
        <ele>645.2</ele>
        <time>2021-06-26T05:46:45Z</time>
      </trkpt>
      <trkpt lat="46.14542" lon="6.40817">
        <ele>645.4</ele>
        <time>2021-06-26T05:46:46Z</time>
      </trkpt>
      <trkpt lat="46.14539" lon="6.4082">
        <ele>645.8</ele>
        <time>2021-06-26T05:46:47Z</time>
      </trkpt>
      <trkpt lat="46.14536" lon="6.40824">
        <ele>646</ele>
        <time>2021-06-26T05:46:48Z</time>
      </trkpt>
      <trkpt lat="46.14534" lon="6.40829">
        <ele>646.4</ele>
        <time>2021-06-26T05:46:49Z</time>
      </trkpt>
      <trkpt lat="46.14531" lon="6.40833">
        <ele>646.8</ele>
        <time>2021-06-26T05:46:50Z</time>
      </trkpt>
      <trkpt lat="46.14529" lon="6.40837">
        <ele>646.8</ele>
        <time>2021-06-26T05:46:51Z</time>
      </trkpt>
      <trkpt lat="46.14526" lon="6.40841">
        <ele>647.2</ele>
        <time>2021-06-26T05:46:52Z</time>
      </trkpt>
      <trkpt lat="46.14524" lon="6.40845">
        <ele>647.2</ele>
        <time>2021-06-26T05:46:53Z</time>
      </trkpt>
      <trkpt lat="46.14522" lon="6.4085">
        <ele>647.4</ele>
        <time>2021-06-26T05:46:54Z</time>
      </trkpt>
      <trkpt lat="46.1452" lon="6.40855">
        <ele>647.6</ele>
        <time>2021-06-26T05:46:55Z</time>
      </trkpt>
      <trkpt lat="46.14518" lon="6.40861">
        <ele>647.6</ele>
        <time>2021-06-26T05:46:56Z</time>
      </trkpt>
      <trkpt lat="46.14516" lon="6.40868">
        <ele>647.8</ele>
        <time>2021-06-26T05:46:57Z</time>
      </trkpt>
      <trkpt lat="46.14514" lon="6.40875">
        <ele>647.8</ele>
        <time>2021-06-26T05:46:58Z</time>
      </trkpt>
      <trkpt lat="46.14512" lon="6.40882">
        <ele>647.8</ele>
        <time>2021-06-26T05:46:59Z</time>
      </trkpt>
      <trkpt lat="46.1451" lon="6.40889">
        <ele>647.8</ele>
        <time>2021-06-26T05:47:00Z</time>
      </trkpt>
      <trkpt lat="46.14508" lon="6.40896">
        <ele>647.8</ele>
        <time>2021-06-26T05:47:01Z</time>
      </trkpt>
      <trkpt lat="46.14507" lon="6.40902">
        <ele>647.8</ele>
        <time>2021-06-26T05:47:02Z</time>
      </trkpt>
      <trkpt lat="46.14505" lon="6.40908">
        <ele>647.8</ele>
        <time>2021-06-26T05:47:03Z</time>
      </trkpt>
      <trkpt lat="46.14504" lon="6.40912">
        <ele>648</ele>
        <time>2021-06-26T05:47:04Z</time>
      </trkpt>
      <trkpt lat="46.14503" lon="6.40917">
        <ele>647.8</ele>
        <time>2021-06-26T05:47:05Z</time>
      </trkpt>
      <trkpt lat="46.14504" lon="6.40922">
        <ele>647.6</ele>
        <time>2021-06-26T05:47:06Z</time>
      </trkpt>
      <trkpt lat="46.14509" lon="6.4093">
        <ele>647</ele>
        <time>2021-06-26T05:47:08Z</time>
      </trkpt>
      <trkpt lat="46.14513" lon="6.40933">
        <ele>646.6</ele>
        <time>2021-06-26T05:47:09Z</time>
      </trkpt>
      <trkpt lat="46.14517" lon="6.40935">
        <ele>646.6</ele>
        <time>2021-06-26T05:47:10Z</time>
      </trkpt>
      <trkpt lat="46.14521" lon="6.40937">
        <ele>646.6</ele>
        <time>2021-06-26T05:47:11Z</time>
      </trkpt>
      <trkpt lat="46.14525" lon="6.40938">
        <ele>646.4</ele>
        <time>2021-06-26T05:47:12Z</time>
      </trkpt>
      <trkpt lat="46.14529" lon="6.4094">
        <ele>646.6</ele>
        <time>2021-06-26T05:47:13Z</time>
      </trkpt>
      <trkpt lat="46.14541" lon="6.40945">
        <ele>646.4</ele>
        <time>2021-06-26T05:47:16Z</time>
      </trkpt>
      <trkpt lat="46.14544" lon="6.40946">
        <ele>646.4</ele>
        <time>2021-06-26T05:47:17Z</time>
      </trkpt>
      <trkpt lat="46.14548" lon="6.40948">
        <ele>646.4</ele>
        <time>2021-06-26T05:47:18Z</time>
      </trkpt>
      <trkpt lat="46.14552" lon="6.4095">
        <ele>646.4</ele>
        <time>2021-06-26T05:47:19Z</time>
      </trkpt>
      <trkpt lat="46.14556" lon="6.40951">
        <ele>646.6</ele>
        <time>2021-06-26T05:47:20Z</time>
      </trkpt>
      <trkpt lat="46.14564" lon="6.40954">
        <ele>646.8</ele>
        <time>2021-06-26T05:47:22Z</time>
      </trkpt>
      <trkpt lat="46.14568" lon="6.40956">
        <ele>646.8</ele>
        <time>2021-06-26T05:47:23Z</time>
      </trkpt>
      <trkpt lat="46.1458" lon="6.40961">
        <ele>647.6</ele>
        <time>2021-06-26T05:47:26Z</time>
      </trkpt>
      <trkpt lat="46.14584" lon="6.40963">
        <ele>647.8</ele>
        <time>2021-06-26T05:47:27Z</time>
      </trkpt>
      <trkpt lat="46.14588" lon="6.40965">
        <ele>648</ele>
        <time>2021-06-26T05:47:28Z</time>
      </trkpt>
      <trkpt lat="46.14592" lon="6.40967">
        <ele>648.2</ele>
        <time>2021-06-26T05:47:29Z</time>
      </trkpt>
      <trkpt lat="46.14596" lon="6.40969">
        <ele>648.4</ele>
        <time>2021-06-26T05:47:30Z</time>
      </trkpt>
      <trkpt lat="46.146" lon="6.4097">
        <ele>648.8</ele>
        <time>2021-06-26T05:47:31Z</time>
      </trkpt>
      <trkpt lat="46.14604" lon="6.40972">
        <ele>649</ele>
        <time>2021-06-26T05:47:32Z</time>
      </trkpt>
      <trkpt lat="46.14608" lon="6.40974">
        <ele>649</ele>
        <time>2021-06-26T05:47:33Z</time>
      </trkpt>
      <trkpt lat="46.14612" lon="6.40976">
        <ele>649.2</ele>
        <time>2021-06-26T05:47:34Z</time>
      </trkpt>
      <trkpt lat="46.14615" lon="6.40977">
        <ele>649.6</ele>
        <time>2021-06-26T05:47:35Z</time>
      </trkpt>
      <trkpt lat="46.14619" lon="6.40979">
        <ele>650</ele>
        <time>2021-06-26T05:47:36Z</time>
      </trkpt>
      <trkpt lat="46.14623" lon="6.4098">
        <ele>650</ele>
        <time>2021-06-26T05:47:37Z</time>
      </trkpt>
      <trkpt lat="46.14627" lon="6.40982">
        <ele>650.4</ele>
        <time>2021-06-26T05:47:38Z</time>
      </trkpt>
      <trkpt lat="46.14631" lon="6.40983">
        <ele>650.4</ele>
        <time>2021-06-26T05:47:39Z</time>
      </trkpt>
      <trkpt lat="46.14635" lon="6.40985">
        <ele>650.8</ele>
        <time>2021-06-26T05:47:40Z</time>
      </trkpt>
      <trkpt lat="46.14639" lon="6.40986">
        <ele>651</ele>
        <time>2021-06-26T05:47:41Z</time>
      </trkpt>
      <trkpt lat="46.14643" lon="6.40988">
        <ele>651.2</ele>
        <time>2021-06-26T05:47:42Z</time>
      </trkpt>
      <trkpt lat="46.14647" lon="6.40989">
        <ele>651.6</ele>
        <time>2021-06-26T05:47:43Z</time>
      </trkpt>
      <trkpt lat="46.1465" lon="6.40991">
        <ele>651.8</ele>
        <time>2021-06-26T05:47:44Z</time>
      </trkpt>
      <trkpt lat="46.14654" lon="6.40993">
        <ele>652.2</ele>
        <time>2021-06-26T05:47:45Z</time>
      </trkpt>
      <trkpt lat="46.14657" lon="6.40995">
        <ele>652.4</ele>
        <time>2021-06-26T05:47:46Z</time>
      </trkpt>
      <trkpt lat="46.14661" lon="6.40997">
        <ele>652.8</ele>
        <time>2021-06-26T05:47:47Z</time>
      </trkpt>
      <trkpt lat="46.14664" lon="6.40998">
        <ele>652.8</ele>
        <time>2021-06-26T05:47:48Z</time>
      </trkpt>
      <trkpt lat="46.14668" lon="6.41">
        <ele>653.2</ele>
        <time>2021-06-26T05:47:49Z</time>
      </trkpt>
      <trkpt lat="46.14671" lon="6.41001">
        <ele>653.4</ele>
        <time>2021-06-26T05:47:50Z</time>
      </trkpt>
      <trkpt lat="46.14675" lon="6.41003">
        <ele>653.8</ele>
        <time>2021-06-26T05:47:51Z</time>
      </trkpt>
      <trkpt lat="46.14678" lon="6.41004">
        <ele>654.2</ele>
        <time>2021-06-26T05:47:52Z</time>
      </trkpt>
      <trkpt lat="46.14681" lon="6.41006">
        <ele>654.4</ele>
        <time>2021-06-26T05:47:53Z</time>
      </trkpt>
      <trkpt lat="46.14685" lon="6.41007">
        <ele>655</ele>
        <time>2021-06-26T05:47:54Z</time>
      </trkpt>
      <trkpt lat="46.14688" lon="6.41009">
        <ele>655.2</ele>
        <time>2021-06-26T05:47:55Z</time>
      </trkpt>
      <trkpt lat="46.14692" lon="6.4101">
        <ele>655.4</ele>
        <time>2021-06-26T05:47:56Z</time>
      </trkpt>
      <trkpt lat="46.14695" lon="6.41012">
        <ele>655.6</ele>
        <time>2021-06-26T05:47:57Z</time>
      </trkpt>
      <trkpt lat="46.14699" lon="6.41013">
        <ele>655.8</ele>
        <time>2021-06-26T05:47:58Z</time>
      </trkpt>
      <trkpt lat="46.14702" lon="6.41015">
        <ele>656.4</ele>
        <time>2021-06-26T05:47:59Z</time>
      </trkpt>
      <trkpt lat="46.14706" lon="6.41016">
        <ele>656.4</ele>
        <time>2021-06-26T05:48:00Z</time>
      </trkpt>
      <trkpt lat="46.14709" lon="6.41018">
        <ele>656.6</ele>
        <time>2021-06-26T05:48:01Z</time>
      </trkpt>
      <trkpt lat="46.14712" lon="6.4102">
        <ele>656.6</ele>
        <time>2021-06-26T05:48:02Z</time>
      </trkpt>
      <trkpt lat="46.14716" lon="6.41021">
        <ele>657</ele>
        <time>2021-06-26T05:48:03Z</time>
      </trkpt>
      <trkpt lat="46.14719" lon="6.41022">
        <ele>657.4</ele>
        <time>2021-06-26T05:48:04Z</time>
      </trkpt>
      <trkpt lat="46.14722" lon="6.41024">
        <ele>657.6</ele>
        <time>2021-06-26T05:48:05Z</time>
      </trkpt>
      <trkpt lat="46.14726" lon="6.41025">
        <ele>657.8</ele>
        <time>2021-06-26T05:48:06Z</time>
      </trkpt>
      <trkpt lat="46.14729" lon="6.41027">
        <ele>658</ele>
        <time>2021-06-26T05:48:07Z</time>
      </trkpt>
      <trkpt lat="46.14732" lon="6.41028">
        <ele>658.4</ele>
        <time>2021-06-26T05:48:08Z</time>
      </trkpt>
      <trkpt lat="46.14736" lon="6.41029">
        <ele>658.8</ele>
        <time>2021-06-26T05:48:09Z</time>
      </trkpt>
      <trkpt lat="46.14739" lon="6.4103">
        <ele>658.8</ele>
        <time>2021-06-26T05:48:10Z</time>
      </trkpt>
      <trkpt lat="46.14742" lon="6.4103">
        <ele>659</ele>
        <time>2021-06-26T05:48:11Z</time>
      </trkpt>
      <trkpt lat="46.14745" lon="6.41031">
        <ele>659.4</ele>
        <time>2021-06-26T05:48:12Z</time>
      </trkpt>
      <trkpt lat="46.14747" lon="6.41032">
        <ele>659.6</ele>
        <time>2021-06-26T05:48:13Z</time>
      </trkpt>
      <trkpt lat="46.1475" lon="6.41033">
        <ele>659.8</ele>
        <time>2021-06-26T05:48:14Z</time>
      </trkpt>
      <trkpt lat="46.14753" lon="6.41034">
        <ele>660</ele>
        <time>2021-06-26T05:48:15Z</time>
      </trkpt>
      <trkpt lat="46.14756" lon="6.41036">
        <ele>660.4</ele>
        <time>2021-06-26T05:48:16Z</time>
      </trkpt>
      <trkpt lat="46.14759" lon="6.41037">
        <ele>660.6</ele>
        <time>2021-06-26T05:48:17Z</time>
      </trkpt>
      <trkpt lat="46.14761" lon="6.41038">
        <ele>661</ele>
        <time>2021-06-26T05:48:18Z</time>
      </trkpt>
      <trkpt lat="46.14764" lon="6.4104">
        <ele>661.4</ele>
        <time>2021-06-26T05:48:19Z</time>
      </trkpt>
      <trkpt lat="46.14767" lon="6.41041">
        <ele>661.6</ele>
        <time>2021-06-26T05:48:20Z</time>
      </trkpt>
      <trkpt lat="46.14768" lon="6.41044">
        <ele>661.6</ele>
        <time>2021-06-26T05:48:21Z</time>
      </trkpt>
      <trkpt lat="46.1477" lon="6.41046">
        <ele>662</ele>
        <time>2021-06-26T05:48:22Z</time>
      </trkpt>
      <trkpt lat="46.14772" lon="6.41048">
        <ele>662.2</ele>
        <time>2021-06-26T05:48:23Z</time>
      </trkpt>
      <trkpt lat="46.14774" lon="6.41049">
        <ele>662.6</ele>
        <time>2021-06-26T05:48:24Z</time>
      </trkpt>
      <trkpt lat="46.14776" lon="6.4105">
        <ele>662.8</ele>
        <time>2021-06-26T05:48:25Z</time>
      </trkpt>
      <trkpt lat="46.14778" lon="6.4105">
        <ele>662.8</ele>
        <time>2021-06-26T05:48:26Z</time>
      </trkpt>
      <trkpt lat="46.1478" lon="6.41051">
        <ele>663</ele>
        <time>2021-06-26T05:48:27Z</time>
      </trkpt>
      <trkpt lat="46.14782" lon="6.41052">
        <ele>663.2</ele>
        <time>2021-06-26T05:48:28Z</time>
      </trkpt>
      <trkpt lat="46.14784" lon="6.41052">
        <ele>663.4</ele>
        <time>2021-06-26T05:48:29Z</time>
      </trkpt>
      <trkpt lat="46.14786" lon="6.41053">
        <ele>663.8</ele>
        <time>2021-06-26T05:48:30Z</time>
      </trkpt>
      <trkpt lat="46.14789" lon="6.41053">
        <ele>664</ele>
        <time>2021-06-26T05:48:31Z</time>
      </trkpt>
      <trkpt lat="46.14791" lon="6.41053">
        <ele>664</ele>
        <time>2021-06-26T05:48:32Z</time>
      </trkpt>
      <trkpt lat="46.14795" lon="6.41054">
        <ele>664.2</ele>
        <time>2021-06-26T05:48:33Z</time>
      </trkpt>
      <trkpt lat="46.14798" lon="6.41055">
        <ele>664.4</ele>
        <time>2021-06-26T05:48:34Z</time>
      </trkpt>
      <trkpt lat="46.14801" lon="6.41056">
        <ele>664.4</ele>
        <time>2021-06-26T05:48:35Z</time>
      </trkpt>
      <trkpt lat="46.14804" lon="6.41058">
        <ele>664.6</ele>
        <time>2021-06-26T05:48:36Z</time>
      </trkpt>
      <trkpt lat="46.14806" lon="6.41061">
        <ele>664.4</ele>
        <time>2021-06-26T05:48:37Z</time>
      </trkpt>
      <trkpt lat="46.14807" lon="6.41063">
        <ele>664.6</ele>
        <time>2021-06-26T05:48:38Z</time>
      </trkpt>
      <trkpt lat="46.14807" lon="6.41067">
        <ele>664.6</ele>
        <time>2021-06-26T05:48:39Z</time>
      </trkpt>
      <trkpt lat="46.14805" lon="6.41071">
        <ele>664.4</ele>
        <time>2021-06-26T05:48:40Z</time>
      </trkpt>
      <trkpt lat="46.14804" lon="6.41077">
        <ele>664.4</ele>
        <time>2021-06-26T05:48:41Z</time>
      </trkpt>
      <trkpt lat="46.14803" lon="6.41082">
        <ele>664.4</ele>
        <time>2021-06-26T05:48:42Z</time>
      </trkpt>
      <trkpt lat="46.14802" lon="6.41088">
        <ele>664.6</ele>
        <time>2021-06-26T05:48:43Z</time>
      </trkpt>
      <trkpt lat="46.148" lon="6.41093">
        <ele>664.8</ele>
        <time>2021-06-26T05:48:44Z</time>
      </trkpt>
      <trkpt lat="46.14799" lon="6.41098">
        <ele>664.6</ele>
        <time>2021-06-26T05:48:45Z</time>
      </trkpt>
      <trkpt lat="46.14795" lon="6.41106">
        <ele>664.8</ele>
        <time>2021-06-26T05:48:47Z</time>
      </trkpt>
      <trkpt lat="46.14793" lon="6.41109">
        <ele>665</ele>
        <time>2021-06-26T05:48:48Z</time>
      </trkpt>
      <trkpt lat="46.14791" lon="6.41111">
        <ele>665</ele>
        <time>2021-06-26T05:48:49Z</time>
      </trkpt>
      <trkpt lat="46.1479" lon="6.41113">
        <ele>665</ele>
        <time>2021-06-26T05:48:50Z</time>
      </trkpt>
      <trkpt lat="46.14789" lon="6.41116">
        <ele>665</ele>
        <time>2021-06-26T05:48:51Z</time>
      </trkpt>
      <trkpt lat="46.14788" lon="6.41119">
        <ele>665.2</ele>
        <time>2021-06-26T05:48:52Z</time>
      </trkpt>
      <trkpt lat="46.14786" lon="6.41122">
        <ele>665.4</ele>
        <time>2021-06-26T05:48:53Z</time>
      </trkpt>
      <trkpt lat="46.14785" lon="6.41124">
        <ele>665.4</ele>
        <time>2021-06-26T05:48:54Z</time>
      </trkpt>
      <trkpt lat="46.14783" lon="6.41125">
        <ele>665.6</ele>
        <time>2021-06-26T05:48:55Z</time>
      </trkpt>
      <trkpt lat="46.14781" lon="6.41126">
        <ele>665.6</ele>
        <time>2021-06-26T05:48:56Z</time>
      </trkpt>
      <trkpt lat="46.14779" lon="6.41126">
        <ele>665.6</ele>
        <time>2021-06-26T05:48:57Z</time>
      </trkpt>
      <trkpt lat="46.14774" lon="6.41123">
        <ele>665.6</ele>
        <time>2021-06-26T05:48:59Z</time>
      </trkpt>
      <trkpt lat="46.14772" lon="6.41122">
        <ele>665.8</ele>
        <time>2021-06-26T05:49:00Z</time>
      </trkpt>
      <trkpt lat="46.1477" lon="6.4112">
        <ele>665.6</ele>
        <time>2021-06-26T05:49:01Z</time>
      </trkpt>
      <trkpt lat="46.14757" lon="6.41112">
        <ele>665.8</ele>
        <time>2021-06-26T05:49:06Z</time>
      </trkpt>
      <trkpt lat="46.14754" lon="6.41113">
        <ele>665.6</ele>
        <time>2021-06-26T05:49:07Z</time>
      </trkpt>
      <trkpt lat="46.14751" lon="6.41115">
        <ele>665.6</ele>
        <time>2021-06-26T05:49:08Z</time>
      </trkpt>
      <trkpt lat="46.14748" lon="6.41115">
        <ele>665.4</ele>
        <time>2021-06-26T05:49:09Z</time>
      </trkpt>
      <trkpt lat="46.14743" lon="6.41115">
        <ele>665.4</ele>
        <time>2021-06-26T05:49:10Z</time>
      </trkpt>
      <trkpt lat="46.14736" lon="6.4111">
        <ele>665.2</ele>
        <time>2021-06-26T05:49:12Z</time>
      </trkpt>
      <trkpt lat="46.14732" lon="6.41108">
        <ele>665.2</ele>
        <time>2021-06-26T05:49:13Z</time>
      </trkpt>
      <trkpt lat="46.14729" lon="6.41108">
        <ele>665</ele>
        <time>2021-06-26T05:49:14Z</time>
      </trkpt>
      <trkpt lat="46.14727" lon="6.41109">
        <ele>665</ele>
        <time>2021-06-26T05:49:15Z</time>
      </trkpt>
      <trkpt lat="46.14725" lon="6.41111">
        <ele>664.8</ele>
        <time>2021-06-26T05:49:16Z</time>
      </trkpt>
      <trkpt lat="46.14723" lon="6.41114">
        <ele>664.8</ele>
        <time>2021-06-26T05:49:17Z</time>
      </trkpt>
      <trkpt lat="46.14721" lon="6.41118">
        <ele>664.6</ele>
        <time>2021-06-26T05:49:18Z</time>
      </trkpt>
      <trkpt lat="46.14718" lon="6.41127">
        <ele>664.4</ele>
        <time>2021-06-26T05:49:20Z</time>
      </trkpt>
      <trkpt lat="46.14717" lon="6.41133">
        <ele>664.2</ele>
        <time>2021-06-26T05:49:21Z</time>
      </trkpt>
      <trkpt lat="46.14715" lon="6.41139">
        <ele>664</ele>
        <time>2021-06-26T05:49:22Z</time>
      </trkpt>
      <trkpt lat="46.14714" lon="6.41145">
        <ele>664</ele>
        <time>2021-06-26T05:49:23Z</time>
      </trkpt>
      <trkpt lat="46.14711" lon="6.41159">
        <ele>664</ele>
        <time>2021-06-26T05:49:25Z</time>
      </trkpt>
      <trkpt lat="46.14709" lon="6.41167">
        <ele>664</ele>
        <time>2021-06-26T05:49:26Z</time>
      </trkpt>
      <trkpt lat="46.14707" lon="6.41183">
        <ele>663.4</ele>
        <time>2021-06-26T05:49:28Z</time>
      </trkpt>
      <trkpt lat="46.14701" lon="6.41209">
        <ele>662</ele>
        <time>2021-06-26T05:49:31Z</time>
      </trkpt>
      <trkpt lat="46.14699" lon="6.41218">
        <ele>661.4</ele>
        <time>2021-06-26T05:49:32Z</time>
      </trkpt>
      <trkpt lat="46.14697" lon="6.41228">
        <ele>660.6</ele>
        <time>2021-06-26T05:49:33Z</time>
      </trkpt>
      <trkpt lat="46.14697" lon="6.41239">
        <ele>660</ele>
        <time>2021-06-26T05:49:34Z</time>
      </trkpt>
      <trkpt lat="46.14698" lon="6.41261">
        <ele>659.4</ele>
        <time>2021-06-26T05:49:36Z</time>
      </trkpt>
      <trkpt lat="46.14701" lon="6.41273">
        <ele>658.8</ele>
        <time>2021-06-26T05:49:37Z</time>
      </trkpt>
      <trkpt lat="46.14704" lon="6.41286">
        <ele>658.2</ele>
        <time>2021-06-26T05:49:38Z</time>
      </trkpt>
      <trkpt lat="46.14708" lon="6.41299">
        <ele>657.6</ele>
        <time>2021-06-26T05:49:39Z</time>
      </trkpt>
      <trkpt lat="46.1471" lon="6.41313">
        <ele>657.2</ele>
        <time>2021-06-26T05:49:40Z</time>
      </trkpt>
      <trkpt lat="46.14713" lon="6.41327">
        <ele>656.6</ele>
        <time>2021-06-26T05:49:41Z</time>
      </trkpt>
      <trkpt lat="46.14716" lon="6.41343">
        <ele>655.8</ele>
        <time>2021-06-26T05:49:42Z</time>
      </trkpt>
      <trkpt lat="46.14718" lon="6.41359">
        <ele>655</ele>
        <time>2021-06-26T05:49:43Z</time>
      </trkpt>
      <trkpt lat="46.14719" lon="6.41376">
        <ele>654.4</ele>
        <time>2021-06-26T05:49:44Z</time>
      </trkpt>
      <trkpt lat="46.14721" lon="6.41393">
        <ele>653.2</ele>
        <time>2021-06-26T05:49:45Z</time>
      </trkpt>
      <trkpt lat="46.14725" lon="6.41424">
        <ele>650.6</ele>
        <time>2021-06-26T05:49:47Z</time>
      </trkpt>
      <trkpt lat="46.14729" lon="6.4144">
        <ele>649</ele>
        <time>2021-06-26T05:49:48Z</time>
      </trkpt>
      <trkpt lat="46.14733" lon="6.41454">
        <ele>647.6</ele>
        <time>2021-06-26T05:49:49Z</time>
      </trkpt>
      <trkpt lat="46.1474" lon="6.41467">
        <ele>646</ele>
        <time>2021-06-26T05:49:50Z</time>
      </trkpt>
      <trkpt lat="46.14747" lon="6.41478">
        <ele>644</ele>
        <time>2021-06-26T05:49:51Z</time>
      </trkpt>
      <trkpt lat="46.14755" lon="6.41489">
        <ele>642.6</ele>
        <time>2021-06-26T05:49:52Z</time>
      </trkpt>
      <trkpt lat="46.14762" lon="6.41501">
        <ele>641.2</ele>
        <time>2021-06-26T05:49:53Z</time>
      </trkpt>
      <trkpt lat="46.14767" lon="6.41513">
        <ele>640</ele>
        <time>2021-06-26T05:49:54Z</time>
      </trkpt>
      <trkpt lat="46.14771" lon="6.41526">
        <ele>639</ele>
        <time>2021-06-26T05:49:55Z</time>
      </trkpt>
      <trkpt lat="46.14772" lon="6.4154">
        <ele>638.2</ele>
        <time>2021-06-26T05:49:56Z</time>
      </trkpt>
      <trkpt lat="46.14772" lon="6.41553">
        <ele>637.6</ele>
        <time>2021-06-26T05:49:57Z</time>
      </trkpt>
      <trkpt lat="46.1477" lon="6.41566">
        <ele>637.6</ele>
        <time>2021-06-26T05:49:58Z</time>
      </trkpt>
      <trkpt lat="46.14767" lon="6.41579">
        <ele>636.8</ele>
        <time>2021-06-26T05:49:59Z</time>
      </trkpt>
      <trkpt lat="46.14765" lon="6.41592">
        <ele>636.4</ele>
        <time>2021-06-26T05:50:00Z</time>
      </trkpt>
      <trkpt lat="46.14762" lon="6.41618">
        <ele>635.8</ele>
        <time>2021-06-26T05:50:02Z</time>
      </trkpt>
      <trkpt lat="46.14761" lon="6.4163">
        <ele>635.4</ele>
        <time>2021-06-26T05:50:03Z</time>
      </trkpt>
      <trkpt lat="46.1476" lon="6.41642">
        <ele>635.2</ele>
        <time>2021-06-26T05:50:04Z</time>
      </trkpt>
      <trkpt lat="46.14761" lon="6.41653">
        <ele>635.2</ele>
        <time>2021-06-26T05:50:05Z</time>
      </trkpt>
      <trkpt lat="46.14762" lon="6.41664">
        <ele>635</ele>
        <time>2021-06-26T05:50:06Z</time>
      </trkpt>
      <trkpt lat="46.14764" lon="6.41674">
        <ele>634.8</ele>
        <time>2021-06-26T05:50:07Z</time>
      </trkpt>
      <trkpt lat="46.14765" lon="6.41684">
        <ele>634.8</ele>
        <time>2021-06-26T05:50:08Z</time>
      </trkpt>
      <trkpt lat="46.14765" lon="6.41694">
        <ele>634.8</ele>
        <time>2021-06-26T05:50:09Z</time>
      </trkpt>
      <trkpt lat="46.14764" lon="6.41703">
        <ele>634.8</ele>
        <time>2021-06-26T05:50:10Z</time>
      </trkpt>
      <trkpt lat="46.14763" lon="6.41713">
        <ele>634.8</ele>
        <time>2021-06-26T05:50:11Z</time>
      </trkpt>
      <trkpt lat="46.14762" lon="6.41722">
        <ele>634.8</ele>
        <time>2021-06-26T05:50:12Z</time>
      </trkpt>
      <trkpt lat="46.14761" lon="6.41731">
        <ele>634.8</ele>
        <time>2021-06-26T05:50:13Z</time>
      </trkpt>
      <trkpt lat="46.1476" lon="6.41741">
        <ele>634.6</ele>
        <time>2021-06-26T05:50:14Z</time>
      </trkpt>
      <trkpt lat="46.14759" lon="6.41749">
        <ele>634.8</ele>
        <time>2021-06-26T05:50:15Z</time>
      </trkpt>
      <trkpt lat="46.14757" lon="6.41758">
        <ele>635</ele>
        <time>2021-06-26T05:50:16Z</time>
      </trkpt>
      <trkpt lat="46.14756" lon="6.41767">
        <ele>635.2</ele>
        <time>2021-06-26T05:50:17Z</time>
      </trkpt>
      <trkpt lat="46.14756" lon="6.41776">
        <ele>635.4</ele>
        <time>2021-06-26T05:50:18Z</time>
      </trkpt>
      <trkpt lat="46.14756" lon="6.41785">
        <ele>635.6</ele>
        <time>2021-06-26T05:50:19Z</time>
      </trkpt>
      <trkpt lat="46.14757" lon="6.41793">
        <ele>635.8</ele>
        <time>2021-06-26T05:50:20Z</time>
      </trkpt>
      <trkpt lat="46.14759" lon="6.41802">
        <ele>635.8</ele>
        <time>2021-06-26T05:50:21Z</time>
      </trkpt>
      <trkpt lat="46.14761" lon="6.4181">
        <ele>635.8</ele>
        <time>2021-06-26T05:50:22Z</time>
      </trkpt>
      <trkpt lat="46.14763" lon="6.41818">
        <ele>636.2</ele>
        <time>2021-06-26T05:50:23Z</time>
      </trkpt>
      <trkpt lat="46.14765" lon="6.41825">
        <ele>636.4</ele>
        <time>2021-06-26T05:50:24Z</time>
      </trkpt>
      <trkpt lat="46.14768" lon="6.41832">
        <ele>636.6</ele>
        <time>2021-06-26T05:50:25Z</time>
      </trkpt>
      <trkpt lat="46.14771" lon="6.41839">
        <ele>637</ele>
        <time>2021-06-26T05:50:26Z</time>
      </trkpt>
      <trkpt lat="46.14775" lon="6.41844">
        <ele>637</ele>
        <time>2021-06-26T05:50:27Z</time>
      </trkpt>
      <trkpt lat="46.14779" lon="6.41849">
        <ele>637.2</ele>
        <time>2021-06-26T05:50:28Z</time>
      </trkpt>
      <trkpt lat="46.14783" lon="6.41854">
        <ele>637.2</ele>
        <time>2021-06-26T05:50:29Z</time>
      </trkpt>
      <trkpt lat="46.14787" lon="6.41858">
        <ele>637.6</ele>
        <time>2021-06-26T05:50:30Z</time>
      </trkpt>
      <trkpt lat="46.1479" lon="6.41863">
        <ele>637.6</ele>
        <time>2021-06-26T05:50:31Z</time>
      </trkpt>
      <trkpt lat="46.14793" lon="6.41868">
        <ele>637.8</ele>
        <time>2021-06-26T05:50:32Z</time>
      </trkpt>
      <trkpt lat="46.14795" lon="6.41873">
        <ele>638</ele>
        <time>2021-06-26T05:50:33Z</time>
      </trkpt>
      <trkpt lat="46.14795" lon="6.41878">
        <ele>638.2</ele>
        <time>2021-06-26T05:50:34Z</time>
      </trkpt>
      <trkpt lat="46.14796" lon="6.41884">
        <ele>638.6</ele>
        <time>2021-06-26T05:50:35Z</time>
      </trkpt>
      <trkpt lat="46.14795" lon="6.4189">
        <ele>639</ele>
        <time>2021-06-26T05:50:36Z</time>
      </trkpt>
      <trkpt lat="46.14793" lon="6.41895">
        <ele>639.4</ele>
        <time>2021-06-26T05:50:37Z</time>
      </trkpt>
      <trkpt lat="46.14792" lon="6.419">
        <ele>639.6</ele>
        <time>2021-06-26T05:50:38Z</time>
      </trkpt>
      <trkpt lat="46.1479" lon="6.41905">
        <ele>640.2</ele>
        <time>2021-06-26T05:50:39Z</time>
      </trkpt>
      <trkpt lat="46.14788" lon="6.41911">
        <ele>640.4</ele>
        <time>2021-06-26T05:50:40Z</time>
      </trkpt>
      <trkpt lat="46.14786" lon="6.41916">
        <ele>640.6</ele>
        <time>2021-06-26T05:50:41Z</time>
      </trkpt>
      <trkpt lat="46.14783" lon="6.41922">
        <ele>641.2</ele>
        <time>2021-06-26T05:50:42Z</time>
      </trkpt>
      <trkpt lat="46.14781" lon="6.41928">
        <ele>641.6</ele>
        <time>2021-06-26T05:50:43Z</time>
      </trkpt>
      <trkpt lat="46.14778" lon="6.41934">
        <ele>641.6</ele>
        <time>2021-06-26T05:50:44Z</time>
      </trkpt>
      <trkpt lat="46.14776" lon="6.4194">
        <ele>641.6</ele>
        <time>2021-06-26T05:50:45Z</time>
      </trkpt>
      <trkpt lat="46.14774" lon="6.41946">
        <ele>641.8</ele>
        <time>2021-06-26T05:50:46Z</time>
      </trkpt>
      <trkpt lat="46.14772" lon="6.41953">
        <ele>642</ele>
        <time>2021-06-26T05:50:47Z</time>
      </trkpt>
      <trkpt lat="46.14769" lon="6.41959">
        <ele>642.4</ele>
        <time>2021-06-26T05:50:48Z</time>
      </trkpt>
      <trkpt lat="46.14767" lon="6.41966">
        <ele>642.6</ele>
        <time>2021-06-26T05:50:49Z</time>
      </trkpt>
      <trkpt lat="46.14764" lon="6.41972">
        <ele>642.8</ele>
        <time>2021-06-26T05:50:50Z</time>
      </trkpt>
      <trkpt lat="46.14761" lon="6.41979">
        <ele>643</ele>
        <time>2021-06-26T05:50:51Z</time>
      </trkpt>
      <trkpt lat="46.14759" lon="6.41985">
        <ele>643</ele>
        <time>2021-06-26T05:50:52Z</time>
      </trkpt>
      <trkpt lat="46.14756" lon="6.41991">
        <ele>643</ele>
        <time>2021-06-26T05:50:53Z</time>
      </trkpt>
      <trkpt lat="46.14754" lon="6.41998">
        <ele>643.2</ele>
        <time>2021-06-26T05:50:54Z</time>
      </trkpt>
      <trkpt lat="46.14752" lon="6.42004">
        <ele>643.2</ele>
        <time>2021-06-26T05:50:55Z</time>
      </trkpt>
      <trkpt lat="46.14749" lon="6.4201">
        <ele>643</ele>
        <time>2021-06-26T05:50:56Z</time>
      </trkpt>
      <trkpt lat="46.14747" lon="6.42015">
        <ele>643.2</ele>
        <time>2021-06-26T05:50:57Z</time>
      </trkpt>
      <trkpt lat="46.14744" lon="6.42021">
        <ele>643.2</ele>
        <time>2021-06-26T05:50:58Z</time>
      </trkpt>
      <trkpt lat="46.14742" lon="6.42027">
        <ele>643.2</ele>
        <time>2021-06-26T05:50:59Z</time>
      </trkpt>
      <trkpt lat="46.14739" lon="6.42033">
        <ele>643.4</ele>
        <time>2021-06-26T05:51:00Z</time>
      </trkpt>
      <trkpt lat="46.14737" lon="6.42039">
        <ele>643.4</ele>
        <time>2021-06-26T05:51:01Z</time>
      </trkpt>
      <trkpt lat="46.14735" lon="6.42045">
        <ele>643.4</ele>
        <time>2021-06-26T05:51:02Z</time>
      </trkpt>
      <trkpt lat="46.14732" lon="6.42051">
        <ele>643.6</ele>
        <time>2021-06-26T05:51:03Z</time>
      </trkpt>
      <trkpt lat="46.1473" lon="6.42057">
        <ele>643.6</ele>
        <time>2021-06-26T05:51:04Z</time>
      </trkpt>
      <trkpt lat="46.14728" lon="6.42063">
        <ele>643.8</ele>
        <time>2021-06-26T05:51:05Z</time>
      </trkpt>
      <trkpt lat="46.14726" lon="6.42069">
        <ele>644.2</ele>
        <time>2021-06-26T05:51:06Z</time>
      </trkpt>
      <trkpt lat="46.14724" lon="6.42075">
        <ele>644.2</ele>
        <time>2021-06-26T05:51:07Z</time>
      </trkpt>
      <trkpt lat="46.14722" lon="6.42081">
        <ele>644.4</ele>
        <time>2021-06-26T05:51:08Z</time>
      </trkpt>
      <trkpt lat="46.1472" lon="6.42087">
        <ele>644.4</ele>
        <time>2021-06-26T05:51:09Z</time>
      </trkpt>
      <trkpt lat="46.14719" lon="6.42093">
        <ele>644.6</ele>
        <time>2021-06-26T05:51:10Z</time>
      </trkpt>
      <trkpt lat="46.14717" lon="6.421">
        <ele>645</ele>
        <time>2021-06-26T05:51:11Z</time>
      </trkpt>
      <trkpt lat="46.14715" lon="6.42106">
        <ele>645.2</ele>
        <time>2021-06-26T05:51:12Z</time>
      </trkpt>
      <trkpt lat="46.14713" lon="6.42112">
        <ele>645.4</ele>
        <time>2021-06-26T05:51:13Z</time>
      </trkpt>
      <trkpt lat="46.14711" lon="6.42118">
        <ele>645.6</ele>
        <time>2021-06-26T05:51:14Z</time>
      </trkpt>
      <trkpt lat="46.14709" lon="6.42123">
        <ele>645.8</ele>
        <time>2021-06-26T05:51:15Z</time>
      </trkpt>
      <trkpt lat="46.14707" lon="6.42129">
        <ele>646</ele>
        <time>2021-06-26T05:51:16Z</time>
      </trkpt>
      <trkpt lat="46.14704" lon="6.42134">
        <ele>646</ele>
        <time>2021-06-26T05:51:17Z</time>
      </trkpt>
      <trkpt lat="46.14702" lon="6.42139">
        <ele>646.2</ele>
        <time>2021-06-26T05:51:18Z</time>
      </trkpt>
      <trkpt lat="46.147" lon="6.42144">
        <ele>646.4</ele>
        <time>2021-06-26T05:51:19Z</time>
      </trkpt>
      <trkpt lat="46.14697" lon="6.42149">
        <ele>646.8</ele>
        <time>2021-06-26T05:51:20Z</time>
      </trkpt>
      <trkpt lat="46.14695" lon="6.42153">
        <ele>646.8</ele>
        <time>2021-06-26T05:51:21Z</time>
      </trkpt>
      <trkpt lat="46.14693" lon="6.42157">
        <ele>647</ele>
        <time>2021-06-26T05:51:22Z</time>
      </trkpt>
      <trkpt lat="46.14691" lon="6.42162">
        <ele>647</ele>
        <time>2021-06-26T05:51:23Z</time>
      </trkpt>
      <trkpt lat="46.14689" lon="6.42166">
        <ele>647.2</ele>
        <time>2021-06-26T05:51:24Z</time>
      </trkpt>
      <trkpt lat="46.14687" lon="6.42169">
        <ele>647.4</ele>
        <time>2021-06-26T05:51:25Z</time>
      </trkpt>
      <trkpt lat="46.14685" lon="6.42173">
        <ele>647.6</ele>
        <time>2021-06-26T05:51:26Z</time>
      </trkpt>
      <trkpt lat="46.14682" lon="6.42177">
        <ele>647.6</ele>
        <time>2021-06-26T05:51:27Z</time>
      </trkpt>
      <trkpt lat="46.1468" lon="6.42181">
        <ele>647.6</ele>
        <time>2021-06-26T05:51:28Z</time>
      </trkpt>
      <trkpt lat="46.14677" lon="6.42184">
        <ele>647.8</ele>
        <time>2021-06-26T05:51:29Z</time>
      </trkpt>
      <trkpt lat="46.14673" lon="6.42188">
        <ele>647.8</ele>
        <time>2021-06-26T05:51:30Z</time>
      </trkpt>
      <trkpt lat="46.14669" lon="6.42191">
        <ele>647.8</ele>
        <time>2021-06-26T05:51:31Z</time>
      </trkpt>
      <trkpt lat="46.14664" lon="6.42195">
        <ele>647.8</ele>
        <time>2021-06-26T05:51:32Z</time>
      </trkpt>
      <trkpt lat="46.14653" lon="6.42204">
        <ele>647.8</ele>
        <time>2021-06-26T05:51:34Z</time>
      </trkpt>
      <trkpt lat="46.14641" lon="6.42215">
        <ele>647.8</ele>
        <time>2021-06-26T05:51:36Z</time>
      </trkpt>
      <trkpt lat="46.14629" lon="6.42226">
        <ele>647.8</ele>
        <time>2021-06-26T05:51:38Z</time>
      </trkpt>
      <trkpt lat="46.14623" lon="6.42232">
        <ele>648</ele>
        <time>2021-06-26T05:51:39Z</time>
      </trkpt>
      <trkpt lat="46.14616" lon="6.42237">
        <ele>647.8</ele>
        <time>2021-06-26T05:51:40Z</time>
      </trkpt>
      <trkpt lat="46.1461" lon="6.42244">
        <ele>647.4</ele>
        <time>2021-06-26T05:51:41Z</time>
      </trkpt>
      <trkpt lat="46.14591" lon="6.42262">
        <ele>644.8</ele>
        <time>2021-06-26T05:51:44Z</time>
      </trkpt>
      <trkpt lat="46.14579" lon="6.42274">
        <ele>643.2</ele>
        <time>2021-06-26T05:51:46Z</time>
      </trkpt>
      <trkpt lat="46.14574" lon="6.42281">
        <ele>642.4</ele>
        <time>2021-06-26T05:51:47Z</time>
      </trkpt>
      <trkpt lat="46.14569" lon="6.42288">
        <ele>641.6</ele>
        <time>2021-06-26T05:51:48Z</time>
      </trkpt>
      <trkpt lat="46.14564" lon="6.42296">
        <ele>640.8</ele>
        <time>2021-06-26T05:51:49Z</time>
      </trkpt>
      <trkpt lat="46.14556" lon="6.42313">
        <ele>639.2</ele>
        <time>2021-06-26T05:51:51Z</time>
      </trkpt>
      <trkpt lat="46.14548" lon="6.4233">
        <ele>638.4</ele>
        <time>2021-06-26T05:51:53Z</time>
      </trkpt>
      <trkpt lat="46.14543" lon="6.42337">
        <ele>638</ele>
        <time>2021-06-26T05:51:54Z</time>
      </trkpt>
      <trkpt lat="46.14536" lon="6.42341">
        <ele>637.6</ele>
        <time>2021-06-26T05:51:55Z</time>
      </trkpt>
      <trkpt lat="46.14529" lon="6.42342">
        <ele>637.4</ele>
        <time>2021-06-26T05:51:56Z</time>
      </trkpt>
      <trkpt lat="46.14521" lon="6.42343">
        <ele>637.2</ele>
        <time>2021-06-26T05:51:57Z</time>
      </trkpt>
      <trkpt lat="46.14513" lon="6.42343">
        <ele>637</ele>
        <time>2021-06-26T05:51:58Z</time>
      </trkpt>
      <trkpt lat="46.14505" lon="6.42342">
        <ele>636.4</ele>
        <time>2021-06-26T05:51:59Z</time>
      </trkpt>
      <trkpt lat="46.14497" lon="6.4234">
        <ele>635.8</ele>
        <time>2021-06-26T05:52:00Z</time>
      </trkpt>
      <trkpt lat="46.14472" lon="6.42332">
        <ele>634.4</ele>
        <time>2021-06-26T05:52:03Z</time>
      </trkpt>
      <trkpt lat="46.14448" lon="6.42324">
        <ele>633</ele>
        <time>2021-06-26T05:52:06Z</time>
      </trkpt>
      <trkpt lat="46.1444" lon="6.42322">
        <ele>632.4</ele>
        <time>2021-06-26T05:52:07Z</time>
      </trkpt>
      <trkpt lat="46.14432" lon="6.42322">
        <ele>631.8</ele>
        <time>2021-06-26T05:52:08Z</time>
      </trkpt>
      <trkpt lat="46.14425" lon="6.42324">
        <ele>631</ele>
        <time>2021-06-26T05:52:09Z</time>
      </trkpt>
      <trkpt lat="46.14418" lon="6.42328">
        <ele>630.6</ele>
        <time>2021-06-26T05:52:10Z</time>
      </trkpt>
      <trkpt lat="46.14411" lon="6.42332">
        <ele>630</ele>
        <time>2021-06-26T05:52:11Z</time>
      </trkpt>
      <trkpt lat="46.14405" lon="6.42338">
        <ele>629.6</ele>
        <time>2021-06-26T05:52:12Z</time>
      </trkpt>
      <trkpt lat="46.14399" lon="6.42346">
        <ele>629.4</ele>
        <time>2021-06-26T05:52:13Z</time>
      </trkpt>
      <trkpt lat="46.14395" lon="6.42353">
        <ele>629.2</ele>
        <time>2021-06-26T05:52:14Z</time>
      </trkpt>
      <trkpt lat="46.1439" lon="6.42361">
        <ele>629.2</ele>
        <time>2021-06-26T05:52:15Z</time>
      </trkpt>
      <trkpt lat="46.14386" lon="6.4237">
        <ele>629.2</ele>
        <time>2021-06-26T05:52:16Z</time>
      </trkpt>
      <trkpt lat="46.14366" lon="6.42415">
        <ele>629.2</ele>
        <time>2021-06-26T05:52:21Z</time>
      </trkpt>
      <trkpt lat="46.14363" lon="6.42424">
        <ele>629</ele>
        <time>2021-06-26T05:52:22Z</time>
      </trkpt>
      <trkpt lat="46.14354" lon="6.42444">
        <ele>629</ele>
        <time>2021-06-26T05:52:24Z</time>
      </trkpt>
      <trkpt lat="46.14349" lon="6.42453">
        <ele>628.8</ele>
        <time>2021-06-26T05:52:25Z</time>
      </trkpt>
      <trkpt lat="46.14343" lon="6.42463">
        <ele>629</ele>
        <time>2021-06-26T05:52:26Z</time>
      </trkpt>
      <trkpt lat="46.14336" lon="6.42473">
        <ele>628.8</ele>
        <time>2021-06-26T05:52:27Z</time>
      </trkpt>
      <trkpt lat="46.14328" lon="6.42483">
        <ele>629</ele>
        <time>2021-06-26T05:52:28Z</time>
      </trkpt>
      <trkpt lat="46.14321" lon="6.42495">
        <ele>628.8</ele>
        <time>2021-06-26T05:52:29Z</time>
      </trkpt>
      <trkpt lat="46.14314" lon="6.42507">
        <ele>628.6</ele>
        <time>2021-06-26T05:52:30Z</time>
      </trkpt>
      <trkpt lat="46.14307" lon="6.42521">
        <ele>628.2</ele>
        <time>2021-06-26T05:52:31Z</time>
      </trkpt>
      <trkpt lat="46.143" lon="6.42535">
        <ele>627.8</ele>
        <time>2021-06-26T05:52:32Z</time>
      </trkpt>
      <trkpt lat="46.14293" lon="6.4255">
        <ele>627</ele>
        <time>2021-06-26T05:52:33Z</time>
      </trkpt>
      <trkpt lat="46.14278" lon="6.4258">
        <ele>625</ele>
        <time>2021-06-26T05:52:35Z</time>
      </trkpt>
      <trkpt lat="46.14271" lon="6.42594">
        <ele>623.8</ele>
        <time>2021-06-26T05:52:36Z</time>
      </trkpt>
      <trkpt lat="46.14264" lon="6.42608">
        <ele>623.8</ele>
        <time>2021-06-26T05:52:37Z</time>
      </trkpt>
      <trkpt lat="46.14255" lon="6.42621">
        <ele>622.4</ele>
        <time>2021-06-26T05:52:38Z</time>
      </trkpt>
      <trkpt lat="46.14238" lon="6.42643">
        <ele>619</ele>
        <time>2021-06-26T05:52:40Z</time>
      </trkpt>
      <trkpt lat="46.14229" lon="6.42653">
        <ele>617.2</ele>
        <time>2021-06-26T05:52:41Z</time>
      </trkpt>
      <trkpt lat="46.1422" lon="6.42662">
        <ele>615.4</ele>
        <time>2021-06-26T05:52:42Z</time>
      </trkpt>
      <trkpt lat="46.14212" lon="6.42671">
        <ele>613.8</ele>
        <time>2021-06-26T05:52:43Z</time>
      </trkpt>
      <trkpt lat="46.14204" lon="6.4268">
        <ele>612.6</ele>
        <time>2021-06-26T05:52:44Z</time>
      </trkpt>
      <trkpt lat="46.14197" lon="6.42688">
        <ele>611.8</ele>
        <time>2021-06-26T05:52:45Z</time>
      </trkpt>
      <trkpt lat="46.1419" lon="6.42697">
        <ele>611</ele>
        <time>2021-06-26T05:52:46Z</time>
      </trkpt>
      <trkpt lat="46.14184" lon="6.42706">
        <ele>610.6</ele>
        <time>2021-06-26T05:52:47Z</time>
      </trkpt>
      <trkpt lat="46.14177" lon="6.42715">
        <ele>610.6</ele>
        <time>2021-06-26T05:52:48Z</time>
      </trkpt>
      <trkpt lat="46.1417" lon="6.42723">
        <ele>610.4</ele>
        <time>2021-06-26T05:52:49Z</time>
      </trkpt>
      <trkpt lat="46.14164" lon="6.42731">
        <ele>610.2</ele>
        <time>2021-06-26T05:52:50Z</time>
      </trkpt>
      <trkpt lat="46.14157" lon="6.42738">
        <ele>610.2</ele>
        <time>2021-06-26T05:52:51Z</time>
      </trkpt>
      <trkpt lat="46.1415" lon="6.42744">
        <ele>610.2</ele>
        <time>2021-06-26T05:52:52Z</time>
      </trkpt>
      <trkpt lat="46.14143" lon="6.42749">
        <ele>610.2</ele>
        <time>2021-06-26T05:52:53Z</time>
      </trkpt>
      <trkpt lat="46.14136" lon="6.42755">
        <ele>610</ele>
        <time>2021-06-26T05:52:54Z</time>
      </trkpt>
      <trkpt lat="46.14129" lon="6.4276">
        <ele>610</ele>
        <time>2021-06-26T05:52:55Z</time>
      </trkpt>
      <trkpt lat="46.14123" lon="6.42766">
        <ele>610.2</ele>
        <time>2021-06-26T05:52:56Z</time>
      </trkpt>
      <trkpt lat="46.14116" lon="6.42772">
        <ele>610.2</ele>
        <time>2021-06-26T05:52:57Z</time>
      </trkpt>
      <trkpt lat="46.14111" lon="6.42778">
        <ele>610.2</ele>
        <time>2021-06-26T05:52:58Z</time>
      </trkpt>
      <trkpt lat="46.14106" lon="6.42784">
        <ele>610.2</ele>
        <time>2021-06-26T05:52:59Z</time>
      </trkpt>
      <trkpt lat="46.14102" lon="6.42789">
        <ele>610.2</ele>
        <time>2021-06-26T05:53:00Z</time>
      </trkpt>
      <trkpt lat="46.14098" lon="6.42792">
        <ele>610.4</ele>
        <time>2021-06-26T05:53:01Z</time>
      </trkpt>
      <trkpt lat="46.14095" lon="6.42794">
        <ele>610.4</ele>
        <time>2021-06-26T05:53:02Z</time>
      </trkpt>
      <trkpt lat="46.14092" lon="6.42797">
        <ele>610.4</ele>
        <time>2021-06-26T05:53:03Z</time>
      </trkpt>
      <trkpt lat="46.1409" lon="6.42801">
        <ele>610.4</ele>
        <time>2021-06-26T05:53:04Z</time>
      </trkpt>
      <trkpt lat="46.14083" lon="6.42811">
        <ele>610.4</ele>
        <time>2021-06-26T05:53:06Z</time>
      </trkpt>
      <trkpt lat="46.1408" lon="6.42816">
        <ele>610.6</ele>
        <time>2021-06-26T05:53:07Z</time>
      </trkpt>
      <trkpt lat="46.14077" lon="6.42821">
        <ele>610.8</ele>
        <time>2021-06-26T05:53:08Z</time>
      </trkpt>
      <trkpt lat="46.14062" lon="6.42842">
        <ele>611.8</ele>
        <time>2021-06-26T05:53:12Z</time>
      </trkpt>
      <trkpt lat="46.14058" lon="6.42847">
        <ele>611.8</ele>
        <time>2021-06-26T05:53:13Z</time>
      </trkpt>
      <trkpt lat="46.14052" lon="6.42858">
        <ele>611.8</ele>
        <time>2021-06-26T05:53:15Z</time>
      </trkpt>
      <trkpt lat="46.14054" lon="6.42863">
        <ele>611.8</ele>
        <time>2021-06-26T05:53:16Z</time>
      </trkpt>
      <trkpt lat="46.14051" lon="6.42867">
        <ele>612</ele>
        <time>2021-06-26T05:53:17Z</time>
      </trkpt>
      <trkpt lat="46.14049" lon="6.42871">
        <ele>612</ele>
        <time>2021-06-26T05:53:18Z</time>
      </trkpt>
      <trkpt lat="46.14045" lon="6.42875">
        <ele>612</ele>
        <time>2021-06-26T05:53:19Z</time>
      </trkpt>
      <trkpt lat="46.14042" lon="6.42878">
        <ele>612</ele>
        <time>2021-06-26T05:53:20Z</time>
      </trkpt>
      <trkpt lat="46.14039" lon="6.4288">
        <ele>612</ele>
        <time>2021-06-26T05:53:21Z</time>
      </trkpt>
      <trkpt lat="46.14035" lon="6.42883">
        <ele>612</ele>
        <time>2021-06-26T05:53:22Z</time>
      </trkpt>
      <trkpt lat="46.14023" lon="6.42888">
        <ele>612.2</ele>
        <time>2021-06-26T05:53:25Z</time>
      </trkpt>
      <trkpt lat="46.14018" lon="6.42891">
        <ele>612.6</ele>
        <time>2021-06-26T05:53:26Z</time>
      </trkpt>
      <trkpt lat="46.14013" lon="6.42893">
        <ele>612.8</ele>
        <time>2021-06-26T05:53:27Z</time>
      </trkpt>
      <trkpt lat="46.14007" lon="6.42895">
        <ele>613.2</ele>
        <time>2021-06-26T05:53:28Z</time>
      </trkpt>
      <trkpt lat="46.14002" lon="6.42897">
        <ele>613.4</ele>
        <time>2021-06-26T05:53:29Z</time>
      </trkpt>
      <trkpt lat="46.13996" lon="6.42898">
        <ele>614</ele>
        <time>2021-06-26T05:53:30Z</time>
      </trkpt>
      <trkpt lat="46.1399" lon="6.429">
        <ele>614</ele>
        <time>2021-06-26T05:53:31Z</time>
      </trkpt>
      <trkpt lat="46.13984" lon="6.42901">
        <ele>614.2</ele>
        <time>2021-06-26T05:53:32Z</time>
      </trkpt>
      <trkpt lat="46.13978" lon="6.42903">
        <ele>614.4</ele>
        <time>2021-06-26T05:53:33Z</time>
      </trkpt>
      <trkpt lat="46.13972" lon="6.42905">
        <ele>614.4</ele>
        <time>2021-06-26T05:53:34Z</time>
      </trkpt>
      <trkpt lat="46.13967" lon="6.42906">
        <ele>614.4</ele>
        <time>2021-06-26T05:53:35Z</time>
      </trkpt>
      <trkpt lat="46.13961" lon="6.42908">
        <ele>614.4</ele>
        <time>2021-06-26T05:53:36Z</time>
      </trkpt>
      <trkpt lat="46.13956" lon="6.42909">
        <ele>614.6</ele>
        <time>2021-06-26T05:53:37Z</time>
      </trkpt>
      <trkpt lat="46.1395" lon="6.4291">
        <ele>614.6</ele>
        <time>2021-06-26T05:53:38Z</time>
      </trkpt>
      <trkpt lat="46.13934" lon="6.42914">
        <ele>614.6</ele>
        <time>2021-06-26T05:53:41Z</time>
      </trkpt>
      <trkpt lat="46.1393" lon="6.42915">
        <ele>614.6</ele>
        <time>2021-06-26T05:53:42Z</time>
      </trkpt>
      <trkpt lat="46.13926" lon="6.42916">
        <ele>614.6</ele>
        <time>2021-06-26T05:53:43Z</time>
      </trkpt>
      <trkpt lat="46.13922" lon="6.42916">
        <ele>614.4</ele>
        <time>2021-06-26T05:53:44Z</time>
      </trkpt>
      <trkpt lat="46.13919" lon="6.42914">
        <ele>614.6</ele>
        <time>2021-06-26T05:53:45Z</time>
      </trkpt>
      <trkpt lat="46.13916" lon="6.42911">
        <ele>614.6</ele>
        <time>2021-06-26T05:53:46Z</time>
      </trkpt>
      <trkpt lat="46.13914" lon="6.42909">
        <ele>614.8</ele>
        <time>2021-06-26T05:53:47Z</time>
      </trkpt>
      <trkpt lat="46.13913" lon="6.42908">
        <ele>614.6</ele>
        <time>2021-06-26T05:53:48Z</time>
      </trkpt>
      <trkpt lat="46.13912" lon="6.42908">
        <ele>614.8</ele>
        <time>2021-06-26T05:53:49Z</time>
      </trkpt>
      <trkpt lat="46.13912" lon="6.42908">
        <ele>614.8</ele>
        <time>2021-06-26T05:53:51Z</time>
      </trkpt>
      <trkpt lat="46.13909" lon="6.42904">
        <ele>615</ele>
        <time>2021-06-26T05:54:02Z</time>
      </trkpt>
      <trkpt lat="46.13907" lon="6.42905">
        <ele>615</ele>
        <time>2021-06-26T05:54:03Z</time>
      </trkpt>
      <trkpt lat="46.13902" lon="6.42912">
        <ele>615</ele>
        <time>2021-06-26T05:54:05Z</time>
      </trkpt>
      <trkpt lat="46.13882" lon="6.42951">
        <ele>615</ele>
        <time>2021-06-26T05:54:12Z</time>
      </trkpt>
      <trkpt lat="46.13873" lon="6.42969">
        <ele>615</ele>
        <time>2021-06-26T05:54:15Z</time>
      </trkpt>
      <trkpt lat="46.13858" lon="6.43003">
        <ele>615</ele>
        <time>2021-06-26T05:54:20Z</time>
      </trkpt>
      <trkpt lat="46.13845" lon="6.43052">
        <ele>614.8</ele>
        <time>2021-06-26T05:54:26Z</time>
      </trkpt>
      <trkpt lat="46.13843" lon="6.43091">
        <ele>615</ele>
        <time>2021-06-26T05:54:30Z</time>
      </trkpt>
      <trkpt lat="46.13843" lon="6.43102">
        <ele>614.8</ele>
        <time>2021-06-26T05:54:31Z</time>
      </trkpt>
      <trkpt lat="46.13843" lon="6.43124">
        <ele>614.8</ele>
        <time>2021-06-26T05:54:33Z</time>
      </trkpt>
      <trkpt lat="46.13844" lon="6.43146">
        <ele>614.6</ele>
        <time>2021-06-26T05:54:35Z</time>
      </trkpt>
      <trkpt lat="46.13844" lon="6.43193">
        <ele>614.2</ele>
        <time>2021-06-26T05:54:39Z</time>
      </trkpt>
      <trkpt lat="46.13845" lon="6.43252">
        <ele>612.2</ele>
        <time>2021-06-26T05:54:44Z</time>
      </trkpt>
      <trkpt lat="46.13845" lon="6.43264">
        <ele>611.8</ele>
        <time>2021-06-26T05:54:45Z</time>
      </trkpt>
      <trkpt lat="46.13846" lon="6.4331">
        <ele>610.6</ele>
        <time>2021-06-26T05:54:49Z</time>
      </trkpt>
      <trkpt lat="46.13847" lon="6.43321">
        <ele>610.4</ele>
        <time>2021-06-26T05:54:50Z</time>
      </trkpt>
      <trkpt lat="46.13847" lon="6.43331">
        <ele>610.2</ele>
        <time>2021-06-26T05:54:51Z</time>
      </trkpt>
      <trkpt lat="46.13847" lon="6.43342">
        <ele>610</ele>
        <time>2021-06-26T05:54:52Z</time>
      </trkpt>
      <trkpt lat="46.13847" lon="6.43353">
        <ele>609.8</ele>
        <time>2021-06-26T05:54:53Z</time>
      </trkpt>
      <trkpt lat="46.13846" lon="6.43363">
        <ele>609.6</ele>
        <time>2021-06-26T05:54:54Z</time>
      </trkpt>
      <trkpt lat="46.13846" lon="6.43374">
        <ele>609.6</ele>
        <time>2021-06-26T05:54:55Z</time>
      </trkpt>
      <trkpt lat="46.13846" lon="6.43384">
        <ele>609.6</ele>
        <time>2021-06-26T05:54:56Z</time>
      </trkpt>
      <trkpt lat="46.13846" lon="6.43394">
        <ele>609.6</ele>
        <time>2021-06-26T05:54:57Z</time>
      </trkpt>
      <trkpt lat="46.13846" lon="6.43404">
        <ele>609.6</ele>
        <time>2021-06-26T05:54:58Z</time>
      </trkpt>
      <trkpt lat="46.13845" lon="6.43424">
        <ele>609.6</ele>
        <time>2021-06-26T05:55:00Z</time>
      </trkpt>
      <trkpt lat="46.13843" lon="6.43434">
        <ele>609.6</ele>
        <time>2021-06-26T05:55:01Z</time>
      </trkpt>
      <trkpt lat="46.13841" lon="6.43444">
        <ele>609.6</ele>
        <time>2021-06-26T05:55:02Z</time>
      </trkpt>
      <trkpt lat="46.13839" lon="6.43453">
        <ele>609.6</ele>
        <time>2021-06-26T05:55:03Z</time>
      </trkpt>
      <trkpt lat="46.13836" lon="6.43461">
        <ele>609.6</ele>
        <time>2021-06-26T05:55:04Z</time>
      </trkpt>
      <trkpt lat="46.13833" lon="6.4347">
        <ele>610</ele>
        <time>2021-06-26T05:55:05Z</time>
      </trkpt>
      <trkpt lat="46.1383" lon="6.43477">
        <ele>610.2</ele>
        <time>2021-06-26T05:55:06Z</time>
      </trkpt>
      <trkpt lat="46.13827" lon="6.43485">
        <ele>610.2</ele>
        <time>2021-06-26T05:55:07Z</time>
      </trkpt>
      <trkpt lat="46.13824" lon="6.43492">
        <ele>610.4</ele>
        <time>2021-06-26T05:55:08Z</time>
      </trkpt>
      <trkpt lat="46.1382" lon="6.43499">
        <ele>610.4</ele>
        <time>2021-06-26T05:55:09Z</time>
      </trkpt>
      <trkpt lat="46.13816" lon="6.43505">
        <ele>610.6</ele>
        <time>2021-06-26T05:55:10Z</time>
      </trkpt>
      <trkpt lat="46.13812" lon="6.43511">
        <ele>611</ele>
        <time>2021-06-26T05:55:11Z</time>
      </trkpt>
      <trkpt lat="46.13808" lon="6.43517">
        <ele>611.2</ele>
        <time>2021-06-26T05:55:12Z</time>
      </trkpt>
      <trkpt lat="46.13804" lon="6.43523">
        <ele>611.4</ele>
        <time>2021-06-26T05:55:13Z</time>
      </trkpt>
      <trkpt lat="46.13799" lon="6.43529">
        <ele>611.4</ele>
        <time>2021-06-26T05:55:14Z</time>
      </trkpt>
      <trkpt lat="46.13795" lon="6.43535">
        <ele>611.6</ele>
        <time>2021-06-26T05:55:15Z</time>
      </trkpt>
      <trkpt lat="46.13791" lon="6.43541">
        <ele>611.8</ele>
        <time>2021-06-26T05:55:16Z</time>
      </trkpt>
      <trkpt lat="46.13786" lon="6.43547">
        <ele>612.2</ele>
        <time>2021-06-26T05:55:17Z</time>
      </trkpt>
      <trkpt lat="46.13782" lon="6.43553">
        <ele>612.4</ele>
        <time>2021-06-26T05:55:18Z</time>
      </trkpt>
      <trkpt lat="46.13778" lon="6.43559">
        <ele>612.8</ele>
        <time>2021-06-26T05:55:19Z</time>
      </trkpt>
      <trkpt lat="46.13773" lon="6.43565">
        <ele>613.2</ele>
        <time>2021-06-26T05:55:20Z</time>
      </trkpt>
      <trkpt lat="46.13769" lon="6.43571">
        <ele>613.6</ele>
        <time>2021-06-26T05:55:21Z</time>
      </trkpt>
      <trkpt lat="46.13764" lon="6.43577">
        <ele>613.6</ele>
        <time>2021-06-26T05:55:22Z</time>
      </trkpt>
      <trkpt lat="46.1376" lon="6.43583">
        <ele>614</ele>
        <time>2021-06-26T05:55:23Z</time>
      </trkpt>
      <trkpt lat="46.13755" lon="6.4359">
        <ele>614</ele>
        <time>2021-06-26T05:55:24Z</time>
      </trkpt>
      <trkpt lat="46.13751" lon="6.43596">
        <ele>614</ele>
        <time>2021-06-26T05:55:25Z</time>
      </trkpt>
      <trkpt lat="46.13747" lon="6.43603">
        <ele>614</ele>
        <time>2021-06-26T05:55:26Z</time>
      </trkpt>
      <trkpt lat="46.13742" lon="6.4361">
        <ele>614</ele>
        <time>2021-06-26T05:55:27Z</time>
      </trkpt>
      <trkpt lat="46.13737" lon="6.43617">
        <ele>614</ele>
        <time>2021-06-26T05:55:28Z</time>
      </trkpt>
      <trkpt lat="46.13732" lon="6.43624">
        <ele>614</ele>
        <time>2021-06-26T05:55:29Z</time>
      </trkpt>
      <trkpt lat="46.1371" lon="6.43653">
        <ele>614</ele>
        <time>2021-06-26T05:55:33Z</time>
      </trkpt>
      <trkpt lat="46.13688" lon="6.43684">
        <ele>613.2</ele>
        <time>2021-06-26T05:55:37Z</time>
      </trkpt>
      <trkpt lat="46.13682" lon="6.43691">
        <ele>613</ele>
        <time>2021-06-26T05:55:38Z</time>
      </trkpt>
      <trkpt lat="46.1366" lon="6.43722">
        <ele>612.2</ele>
        <time>2021-06-26T05:55:42Z</time>
      </trkpt>
      <trkpt lat="46.13648" lon="6.43737">
        <ele>611.8</ele>
        <time>2021-06-26T05:55:44Z</time>
      </trkpt>
      <trkpt lat="46.13642" lon="6.43745">
        <ele>611.4</ele>
        <time>2021-06-26T05:55:45Z</time>
      </trkpt>
      <trkpt lat="46.13625" lon="6.43771">
        <ele>611</ele>
        <time>2021-06-26T05:55:48Z</time>
      </trkpt>
      <trkpt lat="46.1362" lon="6.43779">
        <ele>610.6</ele>
        <time>2021-06-26T05:55:49Z</time>
      </trkpt>
      <trkpt lat="46.13615" lon="6.43788">
        <ele>610.6</ele>
        <time>2021-06-26T05:55:50Z</time>
      </trkpt>
      <trkpt lat="46.1361" lon="6.43798">
        <ele>610.4</ele>
        <time>2021-06-26T05:55:51Z</time>
      </trkpt>
      <trkpt lat="46.13598" lon="6.43826">
        <ele>610.2</ele>
        <time>2021-06-26T05:55:54Z</time>
      </trkpt>
      <trkpt lat="46.13589" lon="6.43857">
        <ele>609.6</ele>
        <time>2021-06-26T05:55:57Z</time>
      </trkpt>
      <trkpt lat="46.13586" lon="6.43868">
        <ele>609.6</ele>
        <time>2021-06-26T05:55:58Z</time>
      </trkpt>
      <trkpt lat="46.13571" lon="6.43932">
        <ele>608.4</ele>
        <time>2021-06-26T05:56:04Z</time>
      </trkpt>
      <trkpt lat="46.13566" lon="6.43954">
        <ele>608.4</ele>
        <time>2021-06-26T05:56:06Z</time>
      </trkpt>
      <trkpt lat="46.1356" lon="6.43986">
        <ele>607.2</ele>
        <time>2021-06-26T05:56:09Z</time>
      </trkpt>
      <trkpt lat="46.13558" lon="6.43997">
        <ele>607</ele>
        <time>2021-06-26T05:56:10Z</time>
      </trkpt>
      <trkpt lat="46.13556" lon="6.44007">
        <ele>607</ele>
        <time>2021-06-26T05:56:11Z</time>
      </trkpt>
      <trkpt lat="46.13554" lon="6.44018">
        <ele>607</ele>
        <time>2021-06-26T05:56:12Z</time>
      </trkpt>
      <trkpt lat="46.13552" lon="6.44028">
        <ele>606.6</ele>
        <time>2021-06-26T05:56:13Z</time>
      </trkpt>
      <trkpt lat="46.13547" lon="6.44049">
        <ele>606.2</ele>
        <time>2021-06-26T05:56:15Z</time>
      </trkpt>
      <trkpt lat="46.13532" lon="6.44123">
        <ele>605.2</ele>
        <time>2021-06-26T05:56:22Z</time>
      </trkpt>
      <trkpt lat="46.13528" lon="6.44144">
        <ele>605</ele>
        <time>2021-06-26T05:56:24Z</time>
      </trkpt>
      <trkpt lat="46.1352" lon="6.44186">
        <ele>604.4</ele>
        <time>2021-06-26T05:56:28Z</time>
      </trkpt>
      <trkpt lat="46.13511" lon="6.44227">
        <ele>603.8</ele>
        <time>2021-06-26T05:56:32Z</time>
      </trkpt>
      <trkpt lat="46.13508" lon="6.44237">
        <ele>603.6</ele>
        <time>2021-06-26T05:56:33Z</time>
      </trkpt>
      <trkpt lat="46.13505" lon="6.44246">
        <ele>603.4</ele>
        <time>2021-06-26T05:56:34Z</time>
      </trkpt>
      <trkpt lat="46.13484" lon="6.44279">
        <ele>603</ele>
        <time>2021-06-26T05:56:38Z</time>
      </trkpt>
      <trkpt lat="46.13472" lon="6.44295">
        <ele>603</ele>
        <time>2021-06-26T05:56:40Z</time>
      </trkpt>
      <trkpt lat="46.13461" lon="6.44314">
        <ele>602.8</ele>
        <time>2021-06-26T05:56:42Z</time>
      </trkpt>
      <trkpt lat="46.13458" lon="6.44337">
        <ele>602.6</ele>
        <time>2021-06-26T05:56:44Z</time>
      </trkpt>
      <trkpt lat="46.1346" lon="6.44349">
        <ele>602.6</ele>
        <time>2021-06-26T05:56:45Z</time>
      </trkpt>
      <trkpt lat="46.13464" lon="6.4436">
        <ele>602.4</ele>
        <time>2021-06-26T05:56:46Z</time>
      </trkpt>
      <trkpt lat="46.13474" lon="6.44381">
        <ele>601.6</ele>
        <time>2021-06-26T05:56:48Z</time>
      </trkpt>
      <trkpt lat="46.13497" lon="6.44422">
        <ele>599.8</ele>
        <time>2021-06-26T05:56:52Z</time>
      </trkpt>
      <trkpt lat="46.13499" lon="6.44434">
        <ele>599.2</ele>
        <time>2021-06-26T05:56:53Z</time>
      </trkpt>
      <trkpt lat="46.135" lon="6.44446">
        <ele>598.4</ele>
        <time>2021-06-26T05:56:54Z</time>
      </trkpt>
      <trkpt lat="46.13501" lon="6.44457">
        <ele>597.4</ele>
        <time>2021-06-26T05:56:55Z</time>
      </trkpt>
      <trkpt lat="46.13501" lon="6.44468">
        <ele>597</ele>
        <time>2021-06-26T05:56:56Z</time>
      </trkpt>
      <trkpt lat="46.13501" lon="6.44478">
        <ele>597</ele>
        <time>2021-06-26T05:56:57Z</time>
      </trkpt>
      <trkpt lat="46.13504" lon="6.44487">
        <ele>596.8</ele>
        <time>2021-06-26T05:56:58Z</time>
      </trkpt>
      <trkpt lat="46.13508" lon="6.44495">
        <ele>596.6</ele>
        <time>2021-06-26T05:56:59Z</time>
      </trkpt>
      <trkpt lat="46.13513" lon="6.44501">
        <ele>596.6</ele>
        <time>2021-06-26T05:57:00Z</time>
      </trkpt>
      <trkpt lat="46.13518" lon="6.44507">
        <ele>596.4</ele>
        <time>2021-06-26T05:57:01Z</time>
      </trkpt>
      <trkpt lat="46.13523" lon="6.44512">
        <ele>596.6</ele>
        <time>2021-06-26T05:57:02Z</time>
      </trkpt>
      <trkpt lat="46.13528" lon="6.44518">
        <ele>596.4</ele>
        <time>2021-06-26T05:57:03Z</time>
      </trkpt>
      <trkpt lat="46.13533" lon="6.44524">
        <ele>596.6</ele>
        <time>2021-06-26T05:57:04Z</time>
      </trkpt>
      <trkpt lat="46.13542" lon="6.44538">
        <ele>596.6</ele>
        <time>2021-06-26T05:57:06Z</time>
      </trkpt>
      <trkpt lat="46.13545" lon="6.44547">
        <ele>596.6</ele>
        <time>2021-06-26T05:57:07Z</time>
      </trkpt>
      <trkpt lat="46.13549" lon="6.44556">
        <ele>596.8</ele>
        <time>2021-06-26T05:57:08Z</time>
      </trkpt>
      <trkpt lat="46.13554" lon="6.44576">
        <ele>596.8</ele>
        <time>2021-06-26T05:57:10Z</time>
      </trkpt>
      <trkpt lat="46.13558" lon="6.44597">
        <ele>596.8</ele>
        <time>2021-06-26T05:57:12Z</time>
      </trkpt>
      <trkpt lat="46.13562" lon="6.44618">
        <ele>596.6</ele>
        <time>2021-06-26T05:57:14Z</time>
      </trkpt>
      <trkpt lat="46.13574" lon="6.44684">
        <ele>595.8</ele>
        <time>2021-06-26T05:57:20Z</time>
      </trkpt>
      <trkpt lat="46.13581" lon="6.44731">
        <ele>594.8</ele>
        <time>2021-06-26T05:57:24Z</time>
      </trkpt>
      <trkpt lat="46.13583" lon="6.44743">
        <ele>594.4</ele>
        <time>2021-06-26T05:57:25Z</time>
      </trkpt>
      <trkpt lat="46.13584" lon="6.44755">
        <ele>594.2</ele>
        <time>2021-06-26T05:57:26Z</time>
      </trkpt>
      <trkpt lat="46.13587" lon="6.44766">
        <ele>594.2</ele>
        <time>2021-06-26T05:57:27Z</time>
      </trkpt>
      <trkpt lat="46.13605" lon="6.44825">
        <ele>592.6</ele>
        <time>2021-06-26T05:57:32Z</time>
      </trkpt>
      <trkpt lat="46.13609" lon="6.44837">
        <ele>592.6</ele>
        <time>2021-06-26T05:57:33Z</time>
      </trkpt>
      <trkpt lat="46.13613" lon="6.44849">
        <ele>592.2</ele>
        <time>2021-06-26T05:57:34Z</time>
      </trkpt>
      <trkpt lat="46.13621" lon="6.44872">
        <ele>591.4</ele>
        <time>2021-06-26T05:57:36Z</time>
      </trkpt>
      <trkpt lat="46.13629" lon="6.44896">
        <ele>590.6</ele>
        <time>2021-06-26T05:57:38Z</time>
      </trkpt>
      <trkpt lat="46.13632" lon="6.44907">
        <ele>590.6</ele>
        <time>2021-06-26T05:57:39Z</time>
      </trkpt>
      <trkpt lat="46.13637" lon="6.44919">
        <ele>590.4</ele>
        <time>2021-06-26T05:57:40Z</time>
      </trkpt>
      <trkpt lat="46.13644" lon="6.44942">
        <ele>590</ele>
        <time>2021-06-26T05:57:42Z</time>
      </trkpt>
      <trkpt lat="46.13648" lon="6.44953">
        <ele>589.2</ele>
        <time>2021-06-26T05:57:43Z</time>
      </trkpt>
      <trkpt lat="46.13653" lon="6.44965">
        <ele>588.8</ele>
        <time>2021-06-26T05:57:44Z</time>
      </trkpt>
      <trkpt lat="46.13661" lon="6.44989">
        <ele>588</ele>
        <time>2021-06-26T05:57:46Z</time>
      </trkpt>
      <trkpt lat="46.13682" lon="6.45046">
        <ele>586.4</ele>
        <time>2021-06-26T05:57:51Z</time>
      </trkpt>
      <trkpt lat="46.13686" lon="6.45058">
        <ele>586</ele>
        <time>2021-06-26T05:57:52Z</time>
      </trkpt>
      <trkpt lat="46.1369" lon="6.45069">
        <ele>585.8</ele>
        <time>2021-06-26T05:57:53Z</time>
      </trkpt>
      <trkpt lat="46.13693" lon="6.4508">
        <ele>585.4</ele>
        <time>2021-06-26T05:57:54Z</time>
      </trkpt>
      <trkpt lat="46.13697" lon="6.45091">
        <ele>585</ele>
        <time>2021-06-26T05:57:55Z</time>
      </trkpt>
      <trkpt lat="46.13701" lon="6.45102">
        <ele>584.4</ele>
        <time>2021-06-26T05:57:56Z</time>
      </trkpt>
      <trkpt lat="46.13709" lon="6.45123">
        <ele>583.8</ele>
        <time>2021-06-26T05:57:58Z</time>
      </trkpt>
      <trkpt lat="46.13713" lon="6.45134">
        <ele>583.8</ele>
        <time>2021-06-26T05:57:59Z</time>
      </trkpt>
      <trkpt lat="46.13717" lon="6.45144">
        <ele>583.4</ele>
        <time>2021-06-26T05:58:00Z</time>
      </trkpt>
      <trkpt lat="46.1372" lon="6.45154">
        <ele>583.4</ele>
        <time>2021-06-26T05:58:01Z</time>
      </trkpt>
      <trkpt lat="46.13724" lon="6.45163">
        <ele>583.4</ele>
        <time>2021-06-26T05:58:02Z</time>
      </trkpt>
      <trkpt lat="46.13727" lon="6.45173">
        <ele>583</ele>
        <time>2021-06-26T05:58:03Z</time>
      </trkpt>
      <trkpt lat="46.13731" lon="6.45183">
        <ele>582.6</ele>
        <time>2021-06-26T05:58:04Z</time>
      </trkpt>
      <trkpt lat="46.13735" lon="6.45193">
        <ele>582.4</ele>
        <time>2021-06-26T05:58:05Z</time>
      </trkpt>
      <trkpt lat="46.13742" lon="6.45213">
        <ele>582</ele>
        <time>2021-06-26T05:58:07Z</time>
      </trkpt>
      <trkpt lat="46.13759" lon="6.45267">
        <ele>581</ele>
        <time>2021-06-26T05:58:12Z</time>
      </trkpt>
      <trkpt lat="46.1377" lon="6.45299">
        <ele>580.6</ele>
        <time>2021-06-26T05:58:15Z</time>
      </trkpt>
      <trkpt lat="46.13784" lon="6.45343">
        <ele>579.2</ele>
        <time>2021-06-26T05:58:19Z</time>
      </trkpt>
      <trkpt lat="46.13791" lon="6.45365">
        <ele>578.8</ele>
        <time>2021-06-26T05:58:21Z</time>
      </trkpt>
      <trkpt lat="46.13802" lon="6.45397">
        <ele>578.2</ele>
        <time>2021-06-26T05:58:24Z</time>
      </trkpt>
      <trkpt lat="46.13809" lon="6.45419">
        <ele>578.2</ele>
        <time>2021-06-26T05:58:26Z</time>
      </trkpt>
      <trkpt lat="46.13813" lon="6.45429">
        <ele>578.2</ele>
        <time>2021-06-26T05:58:27Z</time>
      </trkpt>
      <trkpt lat="46.13816" lon="6.45439">
        <ele>578</ele>
        <time>2021-06-26T05:58:28Z</time>
      </trkpt>
      <trkpt lat="46.13819" lon="6.45449">
        <ele>578</ele>
        <time>2021-06-26T05:58:29Z</time>
      </trkpt>
      <trkpt lat="46.13822" lon="6.45459">
        <ele>578</ele>
        <time>2021-06-26T05:58:30Z</time>
      </trkpt>
      <trkpt lat="46.13825" lon="6.45469">
        <ele>578</ele>
        <time>2021-06-26T05:58:31Z</time>
      </trkpt>
      <trkpt lat="46.13828" lon="6.45479">
        <ele>578.2</ele>
        <time>2021-06-26T05:58:32Z</time>
      </trkpt>
      <trkpt lat="46.13833" lon="6.455">
        <ele>578</ele>
        <time>2021-06-26T05:58:34Z</time>
      </trkpt>
      <trkpt lat="46.13835" lon="6.45509">
        <ele>578</ele>
        <time>2021-06-26T05:58:35Z</time>
      </trkpt>
      <trkpt lat="46.13838" lon="6.45518">
        <ele>578</ele>
        <time>2021-06-26T05:58:36Z</time>
      </trkpt>
      <trkpt lat="46.13839" lon="6.45529">
        <ele>578</ele>
        <time>2021-06-26T05:58:37Z</time>
      </trkpt>
      <trkpt lat="46.1384" lon="6.45538">
        <ele>577.8</ele>
        <time>2021-06-26T05:58:38Z</time>
      </trkpt>
      <trkpt lat="46.13841" lon="6.45547">
        <ele>578.2</ele>
        <time>2021-06-26T05:58:39Z</time>
      </trkpt>
      <trkpt lat="46.13842" lon="6.45556">
        <ele>578.2</ele>
        <time>2021-06-26T05:58:40Z</time>
      </trkpt>
      <trkpt lat="46.13844" lon="6.45565">
        <ele>578.2</ele>
        <time>2021-06-26T05:58:41Z</time>
      </trkpt>
      <trkpt lat="46.13843" lon="6.45574">
        <ele>578.4</ele>
        <time>2021-06-26T05:58:42Z</time>
      </trkpt>
      <trkpt lat="46.13844" lon="6.45584">
        <ele>578.8</ele>
        <time>2021-06-26T05:58:43Z</time>
      </trkpt>
      <trkpt lat="46.13844" lon="6.45601">
        <ele>578.8</ele>
        <time>2021-06-26T05:58:45Z</time>
      </trkpt>
      <trkpt lat="46.13844" lon="6.45609">
        <ele>579</ele>
        <time>2021-06-26T05:58:46Z</time>
      </trkpt>
      <trkpt lat="46.13845" lon="6.45618">
        <ele>579.2</ele>
        <time>2021-06-26T05:58:47Z</time>
      </trkpt>
      <trkpt lat="46.13845" lon="6.45626">
        <ele>579.4</ele>
        <time>2021-06-26T05:58:48Z</time>
      </trkpt>
      <trkpt lat="46.13845" lon="6.45635">
        <ele>579.8</ele>
        <time>2021-06-26T05:58:49Z</time>
      </trkpt>
      <trkpt lat="46.13845" lon="6.45644">
        <ele>580</ele>
        <time>2021-06-26T05:58:50Z</time>
      </trkpt>
      <trkpt lat="46.13845" lon="6.45652">
        <ele>580.6</ele>
        <time>2021-06-26T05:58:51Z</time>
      </trkpt>
      <trkpt lat="46.13845" lon="6.45661">
        <ele>580.8</ele>
        <time>2021-06-26T05:58:52Z</time>
      </trkpt>
      <trkpt lat="46.13844" lon="6.45669">
        <ele>581</ele>
        <time>2021-06-26T05:58:53Z</time>
      </trkpt>
      <trkpt lat="46.13844" lon="6.45678">
        <ele>581.2</ele>
        <time>2021-06-26T05:58:54Z</time>
      </trkpt>
      <trkpt lat="46.13844" lon="6.45686">
        <ele>581.6</ele>
        <time>2021-06-26T05:58:55Z</time>
      </trkpt>
      <trkpt lat="46.13843" lon="6.45695">
        <ele>581.6</ele>
        <time>2021-06-26T05:58:56Z</time>
      </trkpt>
      <trkpt lat="46.13843" lon="6.45704">
        <ele>581.8</ele>
        <time>2021-06-26T05:58:57Z</time>
      </trkpt>
      <trkpt lat="46.13842" lon="6.45712">
        <ele>581.8</ele>
        <time>2021-06-26T05:58:58Z</time>
      </trkpt>
      <trkpt lat="46.13841" lon="6.45721">
        <ele>582.2</ele>
        <time>2021-06-26T05:58:59Z</time>
      </trkpt>
      <trkpt lat="46.1384" lon="6.45729">
        <ele>582.4</ele>
        <time>2021-06-26T05:59:00Z</time>
      </trkpt>
      <trkpt lat="46.13841" lon="6.45735">
        <ele>582.2</ele>
        <time>2021-06-26T05:59:01Z</time>
      </trkpt>
      <trkpt lat="46.13841" lon="6.45742">
        <ele>582.4</ele>
        <time>2021-06-26T05:59:02Z</time>
      </trkpt>
      <trkpt lat="46.13841" lon="6.4575">
        <ele>582.4</ele>
        <time>2021-06-26T05:59:03Z</time>
      </trkpt>
      <trkpt lat="46.1384" lon="6.45758">
        <ele>582.4</ele>
        <time>2021-06-26T05:59:04Z</time>
      </trkpt>
      <trkpt lat="46.13839" lon="6.45764">
        <ele>582.6</ele>
        <time>2021-06-26T05:59:05Z</time>
      </trkpt>
      <trkpt lat="46.13838" lon="6.45771">
        <ele>582.6</ele>
        <time>2021-06-26T05:59:06Z</time>
      </trkpt>
      <trkpt lat="46.13837" lon="6.45778">
        <ele>582.6</ele>
        <time>2021-06-26T05:59:07Z</time>
      </trkpt>
      <trkpt lat="46.13835" lon="6.45785">
        <ele>582.8</ele>
        <time>2021-06-26T05:59:08Z</time>
      </trkpt>
      <trkpt lat="46.13833" lon="6.45793">
        <ele>582.8</ele>
        <time>2021-06-26T05:59:09Z</time>
      </trkpt>
      <trkpt lat="46.13819" lon="6.45842">
        <ele>583</ele>
        <time>2021-06-26T05:59:15Z</time>
      </trkpt>
      <trkpt lat="46.13817" lon="6.45851">
        <ele>583</ele>
        <time>2021-06-26T05:59:16Z</time>
      </trkpt>
      <trkpt lat="46.13811" lon="6.45879">
        <ele>582.8</ele>
        <time>2021-06-26T05:59:19Z</time>
      </trkpt>
      <trkpt lat="46.13809" lon="6.45908">
        <ele>582.6</ele>
        <time>2021-06-26T05:59:22Z</time>
      </trkpt>
      <trkpt lat="46.13809" lon="6.45918">
        <ele>582.6</ele>
        <time>2021-06-26T05:59:23Z</time>
      </trkpt>
      <trkpt lat="46.13807" lon="6.45937">
        <ele>582.2</ele>
        <time>2021-06-26T05:59:25Z</time>
      </trkpt>
      <trkpt lat="46.13804" lon="6.45966">
        <ele>581.8</ele>
        <time>2021-06-26T05:59:28Z</time>
      </trkpt>
      <trkpt lat="46.13802" lon="6.45975">
        <ele>581.8</ele>
        <time>2021-06-26T05:59:29Z</time>
      </trkpt>
      <trkpt lat="46.13799" lon="6.45983">
        <ele>581.8</ele>
        <time>2021-06-26T05:59:30Z</time>
      </trkpt>
      <trkpt lat="46.13796" lon="6.45991">
        <ele>581.6</ele>
        <time>2021-06-26T05:59:31Z</time>
      </trkpt>
      <trkpt lat="46.13794" lon="6.45999">
        <ele>581.4</ele>
        <time>2021-06-26T05:59:32Z</time>
      </trkpt>
      <trkpt lat="46.13792" lon="6.46008">
        <ele>581.2</ele>
        <time>2021-06-26T05:59:33Z</time>
      </trkpt>
      <trkpt lat="46.13789" lon="6.46016">
        <ele>581</ele>
        <time>2021-06-26T05:59:34Z</time>
      </trkpt>
      <trkpt lat="46.13776" lon="6.46047">
        <ele>580.4</ele>
        <time>2021-06-26T05:59:37Z</time>
      </trkpt>
      <trkpt lat="46.13769" lon="6.46068">
        <ele>579.6</ele>
        <time>2021-06-26T05:59:39Z</time>
      </trkpt>
      <trkpt lat="46.13766" lon="6.46079">
        <ele>579</ele>
        <time>2021-06-26T05:59:40Z</time>
      </trkpt>
      <trkpt lat="46.13759" lon="6.46123">
        <ele>577.8</ele>
        <time>2021-06-26T05:59:44Z</time>
      </trkpt>
      <trkpt lat="46.13756" lon="6.46135">
        <ele>577.4</ele>
        <time>2021-06-26T05:59:45Z</time>
      </trkpt>
      <trkpt lat="46.13744" lon="6.46203">
        <ele>575.2</ele>
        <time>2021-06-26T05:59:51Z</time>
      </trkpt>
      <trkpt lat="46.13736" lon="6.46251">
        <ele>573.8</ele>
        <time>2021-06-26T05:59:55Z</time>
      </trkpt>
      <trkpt lat="46.13733" lon="6.46275">
        <ele>573.4</ele>
        <time>2021-06-26T05:59:57Z</time>
      </trkpt>
      <trkpt lat="46.1373" lon="6.46287">
        <ele>573.2</ele>
        <time>2021-06-26T05:59:58Z</time>
      </trkpt>
      <trkpt lat="46.13724" lon="6.46323">
        <ele>572.2</ele>
        <time>2021-06-26T06:00:01Z</time>
      </trkpt>
      <trkpt lat="46.13723" lon="6.46334">
        <ele>572</ele>
        <time>2021-06-26T06:00:02Z</time>
      </trkpt>
      <trkpt lat="46.13721" lon="6.46345">
        <ele>571.8</ele>
        <time>2021-06-26T06:00:03Z</time>
      </trkpt>
      <trkpt lat="46.13719" lon="6.46357">
        <ele>571.4</ele>
        <time>2021-06-26T06:00:04Z</time>
      </trkpt>
      <trkpt lat="46.13718" lon="6.46368">
        <ele>570.8</ele>
        <time>2021-06-26T06:00:05Z</time>
      </trkpt>
      <trkpt lat="46.1371" lon="6.46415">
        <ele>569.6</ele>
        <time>2021-06-26T06:00:09Z</time>
      </trkpt>
      <trkpt lat="46.13698" lon="6.46474">
        <ele>569</ele>
        <time>2021-06-26T06:00:14Z</time>
      </trkpt>
      <trkpt lat="46.13691" lon="6.46509">
        <ele>568.4</ele>
        <time>2021-06-26T06:00:17Z</time>
      </trkpt>
      <trkpt lat="46.13682" lon="6.46544">
        <ele>567.6</ele>
        <time>2021-06-26T06:00:20Z</time>
      </trkpt>
      <trkpt lat="46.13678" lon="6.46556">
        <ele>567.4</ele>
        <time>2021-06-26T06:00:21Z</time>
      </trkpt>
      <trkpt lat="46.1367" lon="6.46579">
        <ele>567</ele>
        <time>2021-06-26T06:00:23Z</time>
      </trkpt>
      <trkpt lat="46.13666" lon="6.4659">
        <ele>567</ele>
        <time>2021-06-26T06:00:24Z</time>
      </trkpt>
      <trkpt lat="46.13662" lon="6.466">
        <ele>566.8</ele>
        <time>2021-06-26T06:00:25Z</time>
      </trkpt>
      <trkpt lat="46.13658" lon="6.46609">
        <ele>566.4</ele>
        <time>2021-06-26T06:00:26Z</time>
      </trkpt>
      <trkpt lat="46.13655" lon="6.46616">
        <ele>566</ele>
        <time>2021-06-26T06:00:27Z</time>
      </trkpt>
      <trkpt lat="46.13652" lon="6.4662">
        <ele>565.8</ele>
        <time>2021-06-26T06:00:28Z</time>
      </trkpt>
      <trkpt lat="46.13649" lon="6.46623">
        <ele>565.2</ele>
        <time>2021-06-26T06:00:29Z</time>
      </trkpt>
      <trkpt lat="46.13646" lon="6.46625">
        <ele>564.8</ele>
        <time>2021-06-26T06:00:30Z</time>
      </trkpt>
      <trkpt lat="46.13642" lon="6.46627">
        <ele>564.2</ele>
        <time>2021-06-26T06:00:31Z</time>
      </trkpt>
      <trkpt lat="46.13638" lon="6.46631">
        <ele>564</ele>
        <time>2021-06-26T06:00:32Z</time>
      </trkpt>
      <trkpt lat="46.13635" lon="6.46637">
        <ele>563.8</ele>
        <time>2021-06-26T06:00:33Z</time>
      </trkpt>
      <trkpt lat="46.13632" lon="6.46645">
        <ele>563.8</ele>
        <time>2021-06-26T06:00:34Z</time>
      </trkpt>
      <trkpt lat="46.13631" lon="6.46653">
        <ele>563.6</ele>
        <time>2021-06-26T06:00:35Z</time>
      </trkpt>
      <trkpt lat="46.1363" lon="6.46661">
        <ele>563.4</ele>
        <time>2021-06-26T06:00:36Z</time>
      </trkpt>
      <trkpt lat="46.13629" lon="6.4667">
        <ele>563.2</ele>
        <time>2021-06-26T06:00:37Z</time>
      </trkpt>
      <trkpt lat="46.13628" lon="6.46679">
        <ele>563.2</ele>
        <time>2021-06-26T06:00:38Z</time>
      </trkpt>
      <trkpt lat="46.13626" lon="6.46688">
        <ele>562.8</ele>
        <time>2021-06-26T06:00:39Z</time>
      </trkpt>
      <trkpt lat="46.13619" lon="6.46717">
        <ele>562.2</ele>
        <time>2021-06-26T06:00:42Z</time>
      </trkpt>
      <trkpt lat="46.13605" lon="6.46757">
        <ele>561.2</ele>
        <time>2021-06-26T06:00:46Z</time>
      </trkpt>
      <trkpt lat="46.13594" lon="6.46787">
        <ele>560.6</ele>
        <time>2021-06-26T06:00:49Z</time>
      </trkpt>
      <trkpt lat="46.13591" lon="6.46797">
        <ele>560.2</ele>
        <time>2021-06-26T06:00:50Z</time>
      </trkpt>
      <trkpt lat="46.13574" lon="6.46835">
        <ele>558.6</ele>
        <time>2021-06-26T06:00:54Z</time>
      </trkpt>
      <trkpt lat="46.13569" lon="6.46844">
        <ele>558.2</ele>
        <time>2021-06-26T06:00:55Z</time>
      </trkpt>
      <trkpt lat="46.13563" lon="6.46853">
        <ele>558.2</ele>
        <time>2021-06-26T06:00:56Z</time>
      </trkpt>
      <trkpt lat="46.13556" lon="6.46861">
        <ele>557.8</ele>
        <time>2021-06-26T06:00:57Z</time>
      </trkpt>
      <trkpt lat="46.13549" lon="6.46868">
        <ele>557.4</ele>
        <time>2021-06-26T06:00:58Z</time>
      </trkpt>
      <trkpt lat="46.13532" lon="6.46882">
        <ele>556.8</ele>
        <time>2021-06-26T06:01:00Z</time>
      </trkpt>
      <trkpt lat="46.13506" lon="6.46895">
        <ele>555.8</ele>
        <time>2021-06-26T06:01:03Z</time>
      </trkpt>
      <trkpt lat="46.13497" lon="6.46898">
        <ele>555.4</ele>
        <time>2021-06-26T06:01:04Z</time>
      </trkpt>
      <trkpt lat="46.13489" lon="6.469">
        <ele>555</ele>
        <time>2021-06-26T06:01:05Z</time>
      </trkpt>
      <trkpt lat="46.1348" lon="6.469">
        <ele>554.4</ele>
        <time>2021-06-26T06:01:06Z</time>
      </trkpt>
      <trkpt lat="46.13473" lon="6.469">
        <ele>553.4</ele>
        <time>2021-06-26T06:01:07Z</time>
      </trkpt>
      <trkpt lat="46.13465" lon="6.46897">
        <ele>552.8</ele>
        <time>2021-06-26T06:01:08Z</time>
      </trkpt>
      <trkpt lat="46.13458" lon="6.46895">
        <ele>552.4</ele>
        <time>2021-06-26T06:01:09Z</time>
      </trkpt>
      <trkpt lat="46.13451" lon="6.46894">
        <ele>552.2</ele>
        <time>2021-06-26T06:01:10Z</time>
      </trkpt>
      <trkpt lat="46.13445" lon="6.46897">
        <ele>552</ele>
        <time>2021-06-26T06:01:11Z</time>
      </trkpt>
      <trkpt lat="46.13439" lon="6.46902">
        <ele>552</ele>
        <time>2021-06-26T06:01:12Z</time>
      </trkpt>
      <trkpt lat="46.13437" lon="6.4691">
        <ele>552.2</ele>
        <time>2021-06-26T06:01:13Z</time>
      </trkpt>
      <trkpt lat="46.13437" lon="6.46919">
        <ele>552</ele>
        <time>2021-06-26T06:01:14Z</time>
      </trkpt>
      <trkpt lat="46.13439" lon="6.46927">
        <ele>552</ele>
        <time>2021-06-26T06:01:15Z</time>
      </trkpt>
      <trkpt lat="46.13442" lon="6.46934">
        <ele>552.2</ele>
        <time>2021-06-26T06:01:16Z</time>
      </trkpt>
      <trkpt lat="46.13447" lon="6.46951">
        <ele>552</ele>
        <time>2021-06-26T06:01:18Z</time>
      </trkpt>
      <trkpt lat="46.1345" lon="6.46971">
        <ele>552</ele>
        <time>2021-06-26T06:01:20Z</time>
      </trkpt>
      <trkpt lat="46.13455" lon="6.47002">
        <ele>551.8</ele>
        <time>2021-06-26T06:01:23Z</time>
      </trkpt>
      <trkpt lat="46.1346" lon="6.47035">
        <ele>551.8</ele>
        <time>2021-06-26T06:01:26Z</time>
      </trkpt>
      <trkpt lat="46.13463" lon="6.47046">
        <ele>551.8</ele>
        <time>2021-06-26T06:01:27Z</time>
      </trkpt>
      <trkpt lat="46.13471" lon="6.4708">
        <ele>551.2</ele>
        <time>2021-06-26T06:01:30Z</time>
      </trkpt>
      <trkpt lat="46.1348" lon="6.47114">
        <ele>549.8</ele>
        <time>2021-06-26T06:01:33Z</time>
      </trkpt>
      <trkpt lat="46.13483" lon="6.47126">
        <ele>549.4</ele>
        <time>2021-06-26T06:01:34Z</time>
      </trkpt>
      <trkpt lat="46.13486" lon="6.47137">
        <ele>549.2</ele>
        <time>2021-06-26T06:01:35Z</time>
      </trkpt>
      <trkpt lat="46.13497" lon="6.47171">
        <ele>548.2</ele>
        <time>2021-06-26T06:01:38Z</time>
      </trkpt>
      <trkpt lat="46.13509" lon="6.47205">
        <ele>547.6</ele>
        <time>2021-06-26T06:01:41Z</time>
      </trkpt>
      <trkpt lat="46.13513" lon="6.47216">
        <ele>547.2</ele>
        <time>2021-06-26T06:01:42Z</time>
      </trkpt>
      <trkpt lat="46.13517" lon="6.47227">
        <ele>546.8</ele>
        <time>2021-06-26T06:01:43Z</time>
      </trkpt>
      <trkpt lat="46.13531" lon="6.47259">
        <ele>545</ele>
        <time>2021-06-26T06:01:46Z</time>
      </trkpt>
      <trkpt lat="46.13548" lon="6.47302">
        <ele>543.2</ele>
        <time>2021-06-26T06:01:50Z</time>
      </trkpt>
      <trkpt lat="46.13557" lon="6.47322">
        <ele>542.6</ele>
        <time>2021-06-26T06:01:52Z</time>
      </trkpt>
      <trkpt lat="46.13561" lon="6.47333">
        <ele>542.2</ele>
        <time>2021-06-26T06:01:53Z</time>
      </trkpt>
      <trkpt lat="46.1357" lon="6.47354">
        <ele>541.6</ele>
        <time>2021-06-26T06:01:55Z</time>
      </trkpt>
      <trkpt lat="46.13578" lon="6.47375">
        <ele>541.2</ele>
        <time>2021-06-26T06:01:57Z</time>
      </trkpt>
      <trkpt lat="46.13588" lon="6.47395">
        <ele>540.8</ele>
        <time>2021-06-26T06:01:59Z</time>
      </trkpt>
      <trkpt lat="46.13597" lon="6.47416">
        <ele>540.6</ele>
        <time>2021-06-26T06:02:01Z</time>
      </trkpt>
      <trkpt lat="46.13613" lon="6.47458">
        <ele>539.8</ele>
        <time>2021-06-26T06:02:05Z</time>
      </trkpt>
      <trkpt lat="46.1362" lon="6.47479">
        <ele>539.6</ele>
        <time>2021-06-26T06:02:07Z</time>
      </trkpt>
      <trkpt lat="46.13636" lon="6.47535">
        <ele>539</ele>
        <time>2021-06-26T06:02:12Z</time>
      </trkpt>
      <trkpt lat="46.13638" lon="6.47546">
        <ele>538.8</ele>
        <time>2021-06-26T06:02:13Z</time>
      </trkpt>
      <trkpt lat="46.1364" lon="6.47557">
        <ele>538.6</ele>
        <time>2021-06-26T06:02:14Z</time>
      </trkpt>
      <trkpt lat="46.13642" lon="6.47568">
        <ele>538.4</ele>
        <time>2021-06-26T06:02:15Z</time>
      </trkpt>
      <trkpt lat="46.13645" lon="6.47578">
        <ele>538.4</ele>
        <time>2021-06-26T06:02:16Z</time>
      </trkpt>
      <trkpt lat="46.13649" lon="6.476">
        <ele>538</ele>
        <time>2021-06-26T06:02:18Z</time>
      </trkpt>
      <trkpt lat="46.13651" lon="6.47611">
        <ele>538.2</ele>
        <time>2021-06-26T06:02:19Z</time>
      </trkpt>
      <trkpt lat="46.13653" lon="6.47621">
        <ele>538</ele>
        <time>2021-06-26T06:02:20Z</time>
      </trkpt>
      <trkpt lat="46.13654" lon="6.47632">
        <ele>538</ele>
        <time>2021-06-26T06:02:21Z</time>
      </trkpt>
      <trkpt lat="46.13656" lon="6.47664">
        <ele>538</ele>
        <time>2021-06-26T06:02:24Z</time>
      </trkpt>
      <trkpt lat="46.13656" lon="6.47676">
        <ele>538</ele>
        <time>2021-06-26T06:02:25Z</time>
      </trkpt>
      <trkpt lat="46.1365" lon="6.47709">
        <ele>537.6</ele>
        <time>2021-06-26T06:02:28Z</time>
      </trkpt>
      <trkpt lat="46.13631" lon="6.47771">
        <ele>537.4</ele>
        <time>2021-06-26T06:02:34Z</time>
      </trkpt>
      <trkpt lat="46.13618" lon="6.478">
        <ele>536.8</ele>
        <time>2021-06-26T06:02:37Z</time>
      </trkpt>
      <trkpt lat="46.13613" lon="6.47808">
        <ele>536.8</ele>
        <time>2021-06-26T06:02:38Z</time>
      </trkpt>
      <trkpt lat="46.13607" lon="6.47816">
        <ele>536.6</ele>
        <time>2021-06-26T06:02:39Z</time>
      </trkpt>
      <trkpt lat="46.13601" lon="6.47823">
        <ele>536.6</ele>
        <time>2021-06-26T06:02:40Z</time>
      </trkpt>
      <trkpt lat="46.13596" lon="6.47832">
        <ele>536.6</ele>
        <time>2021-06-26T06:02:41Z</time>
      </trkpt>
      <trkpt lat="46.13593" lon="6.47842">
        <ele>536.6</ele>
        <time>2021-06-26T06:02:42Z</time>
      </trkpt>
      <trkpt lat="46.13592" lon="6.47853">
        <ele>536.4</ele>
        <time>2021-06-26T06:02:43Z</time>
      </trkpt>
      <trkpt lat="46.13592" lon="6.47863">
        <ele>536.4</ele>
        <time>2021-06-26T06:02:44Z</time>
      </trkpt>
      <trkpt lat="46.13592" lon="6.47873">
        <ele>536.4</ele>
        <time>2021-06-26T06:02:45Z</time>
      </trkpt>
      <trkpt lat="46.1359" lon="6.47883">
        <ele>536.2</ele>
        <time>2021-06-26T06:02:46Z</time>
      </trkpt>
      <trkpt lat="46.13588" lon="6.47893">
        <ele>536.4</ele>
        <time>2021-06-26T06:02:47Z</time>
      </trkpt>
      <trkpt lat="46.13585" lon="6.47901">
        <ele>536.2</ele>
        <time>2021-06-26T06:02:48Z</time>
      </trkpt>
      <trkpt lat="46.13582" lon="6.47909">
        <ele>536.2</ele>
        <time>2021-06-26T06:02:49Z</time>
      </trkpt>
      <trkpt lat="46.13578" lon="6.47915">
        <ele>536.2</ele>
        <time>2021-06-26T06:02:50Z</time>
      </trkpt>
      <trkpt lat="46.13573" lon="6.47919">
        <ele>536.2</ele>
        <time>2021-06-26T06:02:51Z</time>
      </trkpt>
      <trkpt lat="46.13569" lon="6.47924">
        <ele>536.2</ele>
        <time>2021-06-26T06:02:52Z</time>
      </trkpt>
      <trkpt lat="46.13565" lon="6.47928">
        <ele>536.2</ele>
        <time>2021-06-26T06:02:53Z</time>
      </trkpt>
      <trkpt lat="46.13561" lon="6.47931">
        <ele>536.2</ele>
        <time>2021-06-26T06:02:54Z</time>
      </trkpt>
      <trkpt lat="46.13557" lon="6.47934">
        <ele>536.2</ele>
        <time>2021-06-26T06:02:55Z</time>
      </trkpt>
      <trkpt lat="46.13552" lon="6.47938">
        <ele>536.2</ele>
        <time>2021-06-26T06:02:56Z</time>
      </trkpt>
      <trkpt lat="46.13548" lon="6.47942">
        <ele>536.6</ele>
        <time>2021-06-26T06:02:57Z</time>
      </trkpt>
      <trkpt lat="46.13544" lon="6.47945">
        <ele>536.8</ele>
        <time>2021-06-26T06:02:58Z</time>
      </trkpt>
      <trkpt lat="46.1354" lon="6.47948">
        <ele>537.4</ele>
        <time>2021-06-26T06:02:59Z</time>
      </trkpt>
      <trkpt lat="46.13536" lon="6.47952">
        <ele>537.8</ele>
        <time>2021-06-26T06:03:00Z</time>
      </trkpt>
      <trkpt lat="46.13532" lon="6.47955">
        <ele>538.2</ele>
        <time>2021-06-26T06:03:01Z</time>
      </trkpt>
      <trkpt lat="46.13528" lon="6.47959">
        <ele>538.6</ele>
        <time>2021-06-26T06:03:02Z</time>
      </trkpt>
      <trkpt lat="46.13524" lon="6.47963">
        <ele>538.8</ele>
        <time>2021-06-26T06:03:03Z</time>
      </trkpt>
      <trkpt lat="46.13521" lon="6.47968">
        <ele>539.2</ele>
        <time>2021-06-26T06:03:04Z</time>
      </trkpt>
      <trkpt lat="46.13517" lon="6.47972">
        <ele>539.4</ele>
        <time>2021-06-26T06:03:05Z</time>
      </trkpt>
      <trkpt lat="46.13513" lon="6.47976">
        <ele>539.8</ele>
        <time>2021-06-26T06:03:06Z</time>
      </trkpt>
      <trkpt lat="46.13509" lon="6.47981">
        <ele>539.8</ele>
        <time>2021-06-26T06:03:07Z</time>
      </trkpt>
      <trkpt lat="46.13506" lon="6.47986">
        <ele>540.2</ele>
        <time>2021-06-26T06:03:08Z</time>
      </trkpt>
      <trkpt lat="46.13502" lon="6.47991">
        <ele>540.4</ele>
        <time>2021-06-26T06:03:09Z</time>
      </trkpt>
      <trkpt lat="46.13499" lon="6.47996">
        <ele>540.8</ele>
        <time>2021-06-26T06:03:10Z</time>
      </trkpt>
      <trkpt lat="46.13496" lon="6.48002">
        <ele>540.6</ele>
        <time>2021-06-26T06:03:11Z</time>
      </trkpt>
      <trkpt lat="46.13492" lon="6.48007">
        <ele>541</ele>
        <time>2021-06-26T06:03:12Z</time>
      </trkpt>
      <trkpt lat="46.13489" lon="6.48013">
        <ele>541.4</ele>
        <time>2021-06-26T06:03:13Z</time>
      </trkpt>
      <trkpt lat="46.13486" lon="6.48019">
        <ele>541.6</ele>
        <time>2021-06-26T06:03:14Z</time>
      </trkpt>
      <trkpt lat="46.13483" lon="6.48026">
        <ele>541.6</ele>
        <time>2021-06-26T06:03:15Z</time>
      </trkpt>
      <trkpt lat="46.1348" lon="6.48032">
        <ele>542</ele>
        <time>2021-06-26T06:03:16Z</time>
      </trkpt>
      <trkpt lat="46.13477" lon="6.48039">
        <ele>541.8</ele>
        <time>2021-06-26T06:03:17Z</time>
      </trkpt>
      <trkpt lat="46.13474" lon="6.48046">
        <ele>542.2</ele>
        <time>2021-06-26T06:03:18Z</time>
      </trkpt>
      <trkpt lat="46.13471" lon="6.48053">
        <ele>542.2</ele>
        <time>2021-06-26T06:03:19Z</time>
      </trkpt>
      <trkpt lat="46.13468" lon="6.4806">
        <ele>542.6</ele>
        <time>2021-06-26T06:03:20Z</time>
      </trkpt>
      <trkpt lat="46.13465" lon="6.48067">
        <ele>542.8</ele>
        <time>2021-06-26T06:03:21Z</time>
      </trkpt>
      <trkpt lat="46.13461" lon="6.48073">
        <ele>543</ele>
        <time>2021-06-26T06:03:22Z</time>
      </trkpt>
      <trkpt lat="46.13457" lon="6.4808">
        <ele>543</ele>
        <time>2021-06-26T06:03:23Z</time>
      </trkpt>
      <trkpt lat="46.13452" lon="6.48085">
        <ele>543.2</ele>
        <time>2021-06-26T06:03:24Z</time>
      </trkpt>
      <trkpt lat="46.13447" lon="6.48091">
        <ele>543.2</ele>
        <time>2021-06-26T06:03:25Z</time>
      </trkpt>
      <trkpt lat="46.13442" lon="6.48096">
        <ele>543.2</ele>
        <time>2021-06-26T06:03:26Z</time>
      </trkpt>
      <trkpt lat="46.13437" lon="6.48101">
        <ele>543.2</ele>
        <time>2021-06-26T06:03:27Z</time>
      </trkpt>
      <trkpt lat="46.13432" lon="6.48105">
        <ele>543.2</ele>
        <time>2021-06-26T06:03:28Z</time>
      </trkpt>
      <trkpt lat="46.13426" lon="6.4811">
        <ele>543.2</ele>
        <time>2021-06-26T06:03:29Z</time>
      </trkpt>
      <trkpt lat="46.13411" lon="6.48123">
        <ele>543.2</ele>
        <time>2021-06-26T06:03:32Z</time>
      </trkpt>
      <trkpt lat="46.13401" lon="6.48131">
        <ele>543.2</ele>
        <time>2021-06-26T06:03:34Z</time>
      </trkpt>
      <trkpt lat="46.13396" lon="6.48136">
        <ele>543.2</ele>
        <time>2021-06-26T06:03:35Z</time>
      </trkpt>
      <trkpt lat="46.13391" lon="6.4814">
        <ele>543.4</ele>
        <time>2021-06-26T06:03:36Z</time>
      </trkpt>
      <trkpt lat="46.13376" lon="6.48153">
        <ele>543.2</ele>
        <time>2021-06-26T06:03:39Z</time>
      </trkpt>
      <trkpt lat="46.13371" lon="6.48157">
        <ele>543.2</ele>
        <time>2021-06-26T06:03:40Z</time>
      </trkpt>
      <trkpt lat="46.13366" lon="6.48162">
        <ele>543.2</ele>
        <time>2021-06-26T06:03:41Z</time>
      </trkpt>
      <trkpt lat="46.13361" lon="6.48167">
        <ele>543.2</ele>
        <time>2021-06-26T06:03:42Z</time>
      </trkpt>
      <trkpt lat="46.13344" lon="6.4818">
        <ele>543.4</ele>
        <time>2021-06-26T06:03:45Z</time>
      </trkpt>
      <trkpt lat="46.13333" lon="6.48189">
        <ele>543.4</ele>
        <time>2021-06-26T06:03:47Z</time>
      </trkpt>
      <trkpt lat="46.13321" lon="6.48198">
        <ele>543.2</ele>
        <time>2021-06-26T06:03:49Z</time>
      </trkpt>
      <trkpt lat="46.13315" lon="6.48202">
        <ele>543.2</ele>
        <time>2021-06-26T06:03:50Z</time>
      </trkpt>
      <trkpt lat="46.1331" lon="6.48206">
        <ele>543.4</ele>
        <time>2021-06-26T06:03:51Z</time>
      </trkpt>
      <trkpt lat="46.13304" lon="6.4821">
        <ele>543.4</ele>
        <time>2021-06-26T06:03:52Z</time>
      </trkpt>
      <trkpt lat="46.13298" lon="6.48214">
        <ele>543.6</ele>
        <time>2021-06-26T06:03:53Z</time>
      </trkpt>
      <trkpt lat="46.13293" lon="6.48218">
        <ele>543.4</ele>
        <time>2021-06-26T06:03:54Z</time>
      </trkpt>
      <trkpt lat="46.13288" lon="6.48223">
        <ele>543.4</ele>
        <time>2021-06-26T06:03:55Z</time>
      </trkpt>
      <trkpt lat="46.13283" lon="6.48227">
        <ele>543.4</ele>
        <time>2021-06-26T06:03:56Z</time>
      </trkpt>
      <trkpt lat="46.13279" lon="6.48232">
        <ele>543.4</ele>
        <time>2021-06-26T06:03:57Z</time>
      </trkpt>
      <trkpt lat="46.13267" lon="6.48252">
        <ele>544</ele>
        <time>2021-06-26T06:04:00Z</time>
      </trkpt>
      <trkpt lat="46.13264" lon="6.48259">
        <ele>544</ele>
        <time>2021-06-26T06:04:01Z</time>
      </trkpt>
      <trkpt lat="46.13262" lon="6.48266">
        <ele>544</ele>
        <time>2021-06-26T06:04:02Z</time>
      </trkpt>
      <trkpt lat="46.13252" lon="6.48298">
        <ele>544.6</ele>
        <time>2021-06-26T06:04:06Z</time>
      </trkpt>
      <trkpt lat="46.13247" lon="6.48313">
        <ele>545</ele>
        <time>2021-06-26T06:04:08Z</time>
      </trkpt>
      <trkpt lat="46.13245" lon="6.4832">
        <ele>544.8</ele>
        <time>2021-06-26T06:04:09Z</time>
      </trkpt>
      <trkpt lat="46.13243" lon="6.48326">
        <ele>545.2</ele>
        <time>2021-06-26T06:04:10Z</time>
      </trkpt>
      <trkpt lat="46.1324" lon="6.48332">
        <ele>545.2</ele>
        <time>2021-06-26T06:04:11Z</time>
      </trkpt>
      <trkpt lat="46.13238" lon="6.48338">
        <ele>545</ele>
        <time>2021-06-26T06:04:12Z</time>
      </trkpt>
      <trkpt lat="46.13235" lon="6.48344">
        <ele>545</ele>
        <time>2021-06-26T06:04:13Z</time>
      </trkpt>
      <trkpt lat="46.13233" lon="6.48349">
        <ele>545.2</ele>
        <time>2021-06-26T06:04:14Z</time>
      </trkpt>
      <trkpt lat="46.1323" lon="6.48355">
        <ele>545.2</ele>
        <time>2021-06-26T06:04:15Z</time>
      </trkpt>
      <trkpt lat="46.13228" lon="6.4836">
        <ele>545.4</ele>
        <time>2021-06-26T06:04:16Z</time>
      </trkpt>
      <trkpt lat="46.13225" lon="6.48365">
        <ele>545.4</ele>
        <time>2021-06-26T06:04:17Z</time>
      </trkpt>
      <trkpt lat="46.13222" lon="6.48371">
        <ele>545.8</ele>
        <time>2021-06-26T06:04:18Z</time>
      </trkpt>
      <trkpt lat="46.13219" lon="6.48376">
        <ele>545.8</ele>
        <time>2021-06-26T06:04:19Z</time>
      </trkpt>
      <trkpt lat="46.13217" lon="6.48382">
        <ele>546.2</ele>
        <time>2021-06-26T06:04:20Z</time>
      </trkpt>
      <trkpt lat="46.13214" lon="6.48387">
        <ele>546.2</ele>
        <time>2021-06-26T06:04:21Z</time>
      </trkpt>
      <trkpt lat="46.13211" lon="6.48393">
        <ele>546.6</ele>
        <time>2021-06-26T06:04:22Z</time>
      </trkpt>
      <trkpt lat="46.13208" lon="6.48398">
        <ele>546.8</ele>
        <time>2021-06-26T06:04:23Z</time>
      </trkpt>
      <trkpt lat="46.13205" lon="6.48403">
        <ele>547.2</ele>
        <time>2021-06-26T06:04:24Z</time>
      </trkpt>
      <trkpt lat="46.13202" lon="6.48409">
        <ele>547.4</ele>
        <time>2021-06-26T06:04:25Z</time>
      </trkpt>
      <trkpt lat="46.13199" lon="6.48414">
        <ele>547.6</ele>
        <time>2021-06-26T06:04:26Z</time>
      </trkpt>
      <trkpt lat="46.13195" lon="6.4842">
        <ele>548</ele>
        <time>2021-06-26T06:04:27Z</time>
      </trkpt>
      <trkpt lat="46.13192" lon="6.48426">
        <ele>548</ele>
        <time>2021-06-26T06:04:28Z</time>
      </trkpt>
      <trkpt lat="46.13188" lon="6.48431">
        <ele>548.4</ele>
        <time>2021-06-26T06:04:29Z</time>
      </trkpt>
      <trkpt lat="46.13184" lon="6.48436">
        <ele>548.6</ele>
        <time>2021-06-26T06:04:30Z</time>
      </trkpt>
      <trkpt lat="46.13181" lon="6.48441">
        <ele>548.6</ele>
        <time>2021-06-26T06:04:31Z</time>
      </trkpt>
      <trkpt lat="46.13177" lon="6.48445">
        <ele>548.6</ele>
        <time>2021-06-26T06:04:32Z</time>
      </trkpt>
      <trkpt lat="46.13173" lon="6.48449">
        <ele>548.8</ele>
        <time>2021-06-26T06:04:33Z</time>
      </trkpt>
      <trkpt lat="46.13169" lon="6.48453">
        <ele>549.2</ele>
        <time>2021-06-26T06:04:34Z</time>
      </trkpt>
      <trkpt lat="46.13165" lon="6.48457">
        <ele>549.4</ele>
        <time>2021-06-26T06:04:35Z</time>
      </trkpt>
      <trkpt lat="46.13162" lon="6.4846">
        <ele>549.4</ele>
        <time>2021-06-26T06:04:36Z</time>
      </trkpt>
      <trkpt lat="46.13158" lon="6.48464">
        <ele>549.8</ele>
        <time>2021-06-26T06:04:37Z</time>
      </trkpt>
      <trkpt lat="46.13154" lon="6.48468">
        <ele>549.8</ele>
        <time>2021-06-26T06:04:38Z</time>
      </trkpt>
      <trkpt lat="46.1315" lon="6.48471">
        <ele>550</ele>
        <time>2021-06-26T06:04:39Z</time>
      </trkpt>
      <trkpt lat="46.13146" lon="6.48474">
        <ele>550.4</ele>
        <time>2021-06-26T06:04:40Z</time>
      </trkpt>
      <trkpt lat="46.13142" lon="6.48478">
        <ele>550.6</ele>
        <time>2021-06-26T06:04:41Z</time>
      </trkpt>
      <trkpt lat="46.13139" lon="6.48481">
        <ele>551</ele>
        <time>2021-06-26T06:04:42Z</time>
      </trkpt>
      <trkpt lat="46.13135" lon="6.48484">
        <ele>551</ele>
        <time>2021-06-26T06:04:43Z</time>
      </trkpt>
      <trkpt lat="46.13132" lon="6.48488">
        <ele>551.4</ele>
        <time>2021-06-26T06:04:44Z</time>
      </trkpt>
      <trkpt lat="46.13128" lon="6.48491">
        <ele>551.6</ele>
        <time>2021-06-26T06:04:45Z</time>
      </trkpt>
      <trkpt lat="46.13125" lon="6.48495">
        <ele>551.6</ele>
        <time>2021-06-26T06:04:46Z</time>
      </trkpt>
      <trkpt lat="46.13122" lon="6.48499">
        <ele>552</ele>
        <time>2021-06-26T06:04:47Z</time>
      </trkpt>
      <trkpt lat="46.13119" lon="6.48503">
        <ele>552.2</ele>
        <time>2021-06-26T06:04:48Z</time>
      </trkpt>
      <trkpt lat="46.13116" lon="6.48507">
        <ele>552.2</ele>
        <time>2021-06-26T06:04:49Z</time>
      </trkpt>
      <trkpt lat="46.13113" lon="6.48512">
        <ele>552.6</ele>
        <time>2021-06-26T06:04:50Z</time>
      </trkpt>
      <trkpt lat="46.1311" lon="6.48517">
        <ele>553</ele>
        <time>2021-06-26T06:04:51Z</time>
      </trkpt>
      <trkpt lat="46.13107" lon="6.48522">
        <ele>553.2</ele>
        <time>2021-06-26T06:04:52Z</time>
      </trkpt>
      <trkpt lat="46.13104" lon="6.48527">
        <ele>553.4</ele>
        <time>2021-06-26T06:04:53Z</time>
      </trkpt>
      <trkpt lat="46.13101" lon="6.48532">
        <ele>553.4</ele>
        <time>2021-06-26T06:04:54Z</time>
      </trkpt>
      <trkpt lat="46.13098" lon="6.48537">
        <ele>553.8</ele>
        <time>2021-06-26T06:04:55Z</time>
      </trkpt>
      <trkpt lat="46.13095" lon="6.48542">
        <ele>554.2</ele>
        <time>2021-06-26T06:04:56Z</time>
      </trkpt>
      <trkpt lat="46.13093" lon="6.48547">
        <ele>554.4</ele>
        <time>2021-06-26T06:04:57Z</time>
      </trkpt>
      <trkpt lat="46.1309" lon="6.48552">
        <ele>554.6</ele>
        <time>2021-06-26T06:04:58Z</time>
      </trkpt>
      <trkpt lat="46.13087" lon="6.48557">
        <ele>554.8</ele>
        <time>2021-06-26T06:04:59Z</time>
      </trkpt>
      <trkpt lat="46.13084" lon="6.48562">
        <ele>554.8</ele>
        <time>2021-06-26T06:05:00Z</time>
      </trkpt>
      <trkpt lat="46.13081" lon="6.48567">
        <ele>555.2</ele>
        <time>2021-06-26T06:05:01Z</time>
      </trkpt>
      <trkpt lat="46.13079" lon="6.48571">
        <ele>555.2</ele>
        <time>2021-06-26T06:05:02Z</time>
      </trkpt>
      <trkpt lat="46.13076" lon="6.48576">
        <ele>555.4</ele>
        <time>2021-06-26T06:05:03Z</time>
      </trkpt>
      <trkpt lat="46.13074" lon="6.48581">
        <ele>555.6</ele>
        <time>2021-06-26T06:05:04Z</time>
      </trkpt>
      <trkpt lat="46.13071" lon="6.48585">
        <ele>556</ele>
        <time>2021-06-26T06:05:05Z</time>
      </trkpt>
      <trkpt lat="46.13069" lon="6.4859">
        <ele>556.2</ele>
        <time>2021-06-26T06:05:06Z</time>
      </trkpt>
      <trkpt lat="46.13066" lon="6.48595">
        <ele>556.2</ele>
        <time>2021-06-26T06:05:07Z</time>
      </trkpt>
      <trkpt lat="46.13064" lon="6.48599">
        <ele>556.6</ele>
        <time>2021-06-26T06:05:08Z</time>
      </trkpt>
      <trkpt lat="46.13061" lon="6.48604">
        <ele>556.8</ele>
        <time>2021-06-26T06:05:09Z</time>
      </trkpt>
      <trkpt lat="46.13059" lon="6.48609">
        <ele>556.8</ele>
        <time>2021-06-26T06:05:10Z</time>
      </trkpt>
      <trkpt lat="46.13057" lon="6.48614">
        <ele>557</ele>
        <time>2021-06-26T06:05:11Z</time>
      </trkpt>
      <trkpt lat="46.13055" lon="6.48619">
        <ele>557.4</ele>
        <time>2021-06-26T06:05:12Z</time>
      </trkpt>
      <trkpt lat="46.13053" lon="6.48624">
        <ele>557.6</ele>
        <time>2021-06-26T06:05:13Z</time>
      </trkpt>
      <trkpt lat="46.13051" lon="6.48629">
        <ele>557.8</ele>
        <time>2021-06-26T06:05:14Z</time>
      </trkpt>
      <trkpt lat="46.13049" lon="6.48634">
        <ele>557.8</ele>
        <time>2021-06-26T06:05:15Z</time>
      </trkpt>
      <trkpt lat="46.13048" lon="6.48639">
        <ele>558</ele>
        <time>2021-06-26T06:05:16Z</time>
      </trkpt>
      <trkpt lat="46.13046" lon="6.48645">
        <ele>558.2</ele>
        <time>2021-06-26T06:05:17Z</time>
      </trkpt>
      <trkpt lat="46.13044" lon="6.4865">
        <ele>558.4</ele>
        <time>2021-06-26T06:05:18Z</time>
      </trkpt>
      <trkpt lat="46.13043" lon="6.48656">
        <ele>558.8</ele>
        <time>2021-06-26T06:05:19Z</time>
      </trkpt>
      <trkpt lat="46.13041" lon="6.48661">
        <ele>558.8</ele>
        <time>2021-06-26T06:05:20Z</time>
      </trkpt>
      <trkpt lat="46.1304" lon="6.48667">
        <ele>559</ele>
        <time>2021-06-26T06:05:21Z</time>
      </trkpt>
      <trkpt lat="46.13038" lon="6.48672">
        <ele>559.2</ele>
        <time>2021-06-26T06:05:22Z</time>
      </trkpt>
      <trkpt lat="46.13037" lon="6.48677">
        <ele>559.4</ele>
        <time>2021-06-26T06:05:23Z</time>
      </trkpt>
      <trkpt lat="46.13036" lon="6.48683">
        <ele>559.6</ele>
        <time>2021-06-26T06:05:24Z</time>
      </trkpt>
      <trkpt lat="46.13035" lon="6.48688">
        <ele>559.8</ele>
        <time>2021-06-26T06:05:25Z</time>
      </trkpt>
      <trkpt lat="46.13034" lon="6.48694">
        <ele>560</ele>
        <time>2021-06-26T06:05:26Z</time>
      </trkpt>
      <trkpt lat="46.13033" lon="6.48699">
        <ele>560</ele>
        <time>2021-06-26T06:05:27Z</time>
      </trkpt>
      <trkpt lat="46.13032" lon="6.48705">
        <ele>560.4</ele>
        <time>2021-06-26T06:05:28Z</time>
      </trkpt>
      <trkpt lat="46.13031" lon="6.4871">
        <ele>560.8</ele>
        <time>2021-06-26T06:05:29Z</time>
      </trkpt>
      <trkpt lat="46.1303" lon="6.48716">
        <ele>561</ele>
        <time>2021-06-26T06:05:30Z</time>
      </trkpt>
      <trkpt lat="46.13029" lon="6.48722">
        <ele>561.2</ele>
        <time>2021-06-26T06:05:31Z</time>
      </trkpt>
      <trkpt lat="46.13028" lon="6.48727">
        <ele>561</ele>
        <time>2021-06-26T06:05:32Z</time>
      </trkpt>
      <trkpt lat="46.13027" lon="6.48733">
        <ele>561.2</ele>
        <time>2021-06-26T06:05:33Z</time>
      </trkpt>
      <trkpt lat="46.13026" lon="6.48738">
        <ele>561.4</ele>
        <time>2021-06-26T06:05:34Z</time>
      </trkpt>
      <trkpt lat="46.13025" lon="6.48744">
        <ele>561.8</ele>
        <time>2021-06-26T06:05:35Z</time>
      </trkpt>
      <trkpt lat="46.13023" lon="6.4875">
        <ele>561.8</ele>
        <time>2021-06-26T06:05:36Z</time>
      </trkpt>
      <trkpt lat="46.13022" lon="6.48755">
        <ele>562</ele>
        <time>2021-06-26T06:05:37Z</time>
      </trkpt>
      <trkpt lat="46.13021" lon="6.48761">
        <ele>562</ele>
        <time>2021-06-26T06:05:38Z</time>
      </trkpt>
      <trkpt lat="46.13019" lon="6.48767">
        <ele>562.2</ele>
        <time>2021-06-26T06:05:39Z</time>
      </trkpt>
      <trkpt lat="46.13018" lon="6.48772">
        <ele>562.6</ele>
        <time>2021-06-26T06:05:40Z</time>
      </trkpt>
      <trkpt lat="46.13017" lon="6.48778">
        <ele>562.6</ele>
        <time>2021-06-26T06:05:41Z</time>
      </trkpt>
      <trkpt lat="46.13016" lon="6.48784">
        <ele>562.8</ele>
        <time>2021-06-26T06:05:42Z</time>
      </trkpt>
      <trkpt lat="46.13015" lon="6.48789">
        <ele>563.2</ele>
        <time>2021-06-26T06:05:43Z</time>
      </trkpt>
      <trkpt lat="46.13013" lon="6.48794">
        <ele>563.4</ele>
        <time>2021-06-26T06:05:44Z</time>
      </trkpt>
      <trkpt lat="46.13012" lon="6.488">
        <ele>563.4</ele>
        <time>2021-06-26T06:05:45Z</time>
      </trkpt>
      <trkpt lat="46.13011" lon="6.48805">
        <ele>563.4</ele>
        <time>2021-06-26T06:05:46Z</time>
      </trkpt>
      <trkpt lat="46.1301" lon="6.4881">
        <ele>563.6</ele>
        <time>2021-06-26T06:05:47Z</time>
      </trkpt>
      <trkpt lat="46.13008" lon="6.48816">
        <ele>563.8</ele>
        <time>2021-06-26T06:05:48Z</time>
      </trkpt>
      <trkpt lat="46.13007" lon="6.48822">
        <ele>564.2</ele>
        <time>2021-06-26T06:05:49Z</time>
      </trkpt>
      <trkpt lat="46.13006" lon="6.48827">
        <ele>564.4</ele>
        <time>2021-06-26T06:05:50Z</time>
      </trkpt>
      <trkpt lat="46.13004" lon="6.48832">
        <ele>564.6</ele>
        <time>2021-06-26T06:05:51Z</time>
      </trkpt>
      <trkpt lat="46.13003" lon="6.48837">
        <ele>565</ele>
        <time>2021-06-26T06:05:52Z</time>
      </trkpt>
      <trkpt lat="46.13001" lon="6.48843">
        <ele>565.2</ele>
        <time>2021-06-26T06:05:53Z</time>
      </trkpt>
      <trkpt lat="46.13" lon="6.48848">
        <ele>565.4</ele>
        <time>2021-06-26T06:05:54Z</time>
      </trkpt>
      <trkpt lat="46.12998" lon="6.48853">
        <ele>565.8</ele>
        <time>2021-06-26T06:05:55Z</time>
      </trkpt>
      <trkpt lat="46.12997" lon="6.48859">
        <ele>566.2</ele>
        <time>2021-06-26T06:05:56Z</time>
      </trkpt>
      <trkpt lat="46.12995" lon="6.48864">
        <ele>566.2</ele>
        <time>2021-06-26T06:05:57Z</time>
      </trkpt>
      <trkpt lat="46.12994" lon="6.48869">
        <ele>566.4</ele>
        <time>2021-06-26T06:05:58Z</time>
      </trkpt>
      <trkpt lat="46.12993" lon="6.48875">
        <ele>566.4</ele>
        <time>2021-06-26T06:05:59Z</time>
      </trkpt>
      <trkpt lat="46.12991" lon="6.4888">
        <ele>566.6</ele>
        <time>2021-06-26T06:06:00Z</time>
      </trkpt>
      <trkpt lat="46.1299" lon="6.48885">
        <ele>566.8</ele>
        <time>2021-06-26T06:06:01Z</time>
      </trkpt>
      <trkpt lat="46.12989" lon="6.48891">
        <ele>567.2</ele>
        <time>2021-06-26T06:06:02Z</time>
      </trkpt>
      <trkpt lat="46.12987" lon="6.48897">
        <ele>567.2</ele>
        <time>2021-06-26T06:06:03Z</time>
      </trkpt>
      <trkpt lat="46.12986" lon="6.48903">
        <ele>567.6</ele>
        <time>2021-06-26T06:06:04Z</time>
      </trkpt>
      <trkpt lat="46.12984" lon="6.48908">
        <ele>567.8</ele>
        <time>2021-06-26T06:06:05Z</time>
      </trkpt>
      <trkpt lat="46.12983" lon="6.48914">
        <ele>568.2</ele>
        <time>2021-06-26T06:06:06Z</time>
      </trkpt>
      <trkpt lat="46.12982" lon="6.4892">
        <ele>568.4</ele>
        <time>2021-06-26T06:06:07Z</time>
      </trkpt>
      <trkpt lat="46.1298" lon="6.48926">
        <ele>568.4</ele>
        <time>2021-06-26T06:06:08Z</time>
      </trkpt>
      <trkpt lat="46.12979" lon="6.48931">
        <ele>568.6</ele>
        <time>2021-06-26T06:06:09Z</time>
      </trkpt>
      <trkpt lat="46.12978" lon="6.48936">
        <ele>568.8</ele>
        <time>2021-06-26T06:06:10Z</time>
      </trkpt>
      <trkpt lat="46.12977" lon="6.48942">
        <ele>569</ele>
        <time>2021-06-26T06:06:11Z</time>
      </trkpt>
      <trkpt lat="46.12976" lon="6.48947">
        <ele>569.2</ele>
        <time>2021-06-26T06:06:12Z</time>
      </trkpt>
      <trkpt lat="46.12974" lon="6.48953">
        <ele>569.2</ele>
        <time>2021-06-26T06:06:13Z</time>
      </trkpt>
      <trkpt lat="46.12973" lon="6.48958">
        <ele>569.6</ele>
        <time>2021-06-26T06:06:14Z</time>
      </trkpt>
      <trkpt lat="46.12971" lon="6.48964">
        <ele>569.6</ele>
        <time>2021-06-26T06:06:15Z</time>
      </trkpt>
      <trkpt lat="46.1297" lon="6.48969">
        <ele>569.8</ele>
        <time>2021-06-26T06:06:16Z</time>
      </trkpt>
      <trkpt lat="46.12968" lon="6.48975">
        <ele>570.2</ele>
        <time>2021-06-26T06:06:17Z</time>
      </trkpt>
      <trkpt lat="46.12966" lon="6.4898">
        <ele>570.4</ele>
        <time>2021-06-26T06:06:18Z</time>
      </trkpt>
      <trkpt lat="46.12964" lon="6.48985">
        <ele>570.4</ele>
        <time>2021-06-26T06:06:19Z</time>
      </trkpt>
      <trkpt lat="46.12961" lon="6.48989">
        <ele>570.4</ele>
        <time>2021-06-26T06:06:20Z</time>
      </trkpt>
      <trkpt lat="46.12959" lon="6.48994">
        <ele>570.8</ele>
        <time>2021-06-26T06:06:21Z</time>
      </trkpt>
      <trkpt lat="46.12956" lon="6.48999">
        <ele>571</ele>
        <time>2021-06-26T06:06:22Z</time>
      </trkpt>
      <trkpt lat="46.12953" lon="6.49003">
        <ele>571.2</ele>
        <time>2021-06-26T06:06:23Z</time>
      </trkpt>
      <trkpt lat="46.12951" lon="6.49007">
        <ele>571.2</ele>
        <time>2021-06-26T06:06:24Z</time>
      </trkpt>
      <trkpt lat="46.12948" lon="6.49012">
        <ele>571.4</ele>
        <time>2021-06-26T06:06:25Z</time>
      </trkpt>
      <trkpt lat="46.12944" lon="6.49016">
        <ele>571.8</ele>
        <time>2021-06-26T06:06:26Z</time>
      </trkpt>
      <trkpt lat="46.12941" lon="6.4902">
        <ele>572</ele>
        <time>2021-06-26T06:06:27Z</time>
      </trkpt>
      <trkpt lat="46.12938" lon="6.49024">
        <ele>572</ele>
        <time>2021-06-26T06:06:28Z</time>
      </trkpt>
      <trkpt lat="46.12935" lon="6.49029">
        <ele>572.2</ele>
        <time>2021-06-26T06:06:29Z</time>
      </trkpt>
      <trkpt lat="46.12933" lon="6.49033">
        <ele>572.4</ele>
        <time>2021-06-26T06:06:30Z</time>
      </trkpt>
      <trkpt lat="46.1293" lon="6.49037">
        <ele>572.6</ele>
        <time>2021-06-26T06:06:31Z</time>
      </trkpt>
      <trkpt lat="46.12927" lon="6.49041">
        <ele>572.8</ele>
        <time>2021-06-26T06:06:32Z</time>
      </trkpt>
      <trkpt lat="46.12924" lon="6.49045">
        <ele>572.8</ele>
        <time>2021-06-26T06:06:33Z</time>
      </trkpt>
      <trkpt lat="46.12921" lon="6.4905">
        <ele>573</ele>
        <time>2021-06-26T06:06:34Z</time>
      </trkpt>
      <trkpt lat="46.12919" lon="6.49054">
        <ele>573.4</ele>
        <time>2021-06-26T06:06:35Z</time>
      </trkpt>
      <trkpt lat="46.12916" lon="6.49059">
        <ele>573.6</ele>
        <time>2021-06-26T06:06:36Z</time>
      </trkpt>
      <trkpt lat="46.12914" lon="6.49064">
        <ele>573.6</ele>
        <time>2021-06-26T06:06:37Z</time>
      </trkpt>
      <trkpt lat="46.12911" lon="6.49069">
        <ele>574</ele>
        <time>2021-06-26T06:06:38Z</time>
      </trkpt>
      <trkpt lat="46.12909" lon="6.49074">
        <ele>574.2</ele>
        <time>2021-06-26T06:06:39Z</time>
      </trkpt>
      <trkpt lat="46.12907" lon="6.49079">
        <ele>574.6</ele>
        <time>2021-06-26T06:06:40Z</time>
      </trkpt>
      <trkpt lat="46.12905" lon="6.49084">
        <ele>574.6</ele>
        <time>2021-06-26T06:06:41Z</time>
      </trkpt>
      <trkpt lat="46.12903" lon="6.49089">
        <ele>574.8</ele>
        <time>2021-06-26T06:06:42Z</time>
      </trkpt>
      <trkpt lat="46.129" lon="6.49095">
        <ele>575</ele>
        <time>2021-06-26T06:06:43Z</time>
      </trkpt>
      <trkpt lat="46.12898" lon="6.49099">
        <ele>575.2</ele>
        <time>2021-06-26T06:06:44Z</time>
      </trkpt>
      <trkpt lat="46.12896" lon="6.49104">
        <ele>575.4</ele>
        <time>2021-06-26T06:06:45Z</time>
      </trkpt>
      <trkpt lat="46.12894" lon="6.49109">
        <ele>575.6</ele>
        <time>2021-06-26T06:06:46Z</time>
      </trkpt>
      <trkpt lat="46.12892" lon="6.49114">
        <ele>575.8</ele>
        <time>2021-06-26T06:06:47Z</time>
      </trkpt>
      <trkpt lat="46.1289" lon="6.49119">
        <ele>576.2</ele>
        <time>2021-06-26T06:06:48Z</time>
      </trkpt>
      <trkpt lat="46.12887" lon="6.49125">
        <ele>576.4</ele>
        <time>2021-06-26T06:06:49Z</time>
      </trkpt>
      <trkpt lat="46.12885" lon="6.4913">
        <ele>576.8</ele>
        <time>2021-06-26T06:06:50Z</time>
      </trkpt>
      <trkpt lat="46.12883" lon="6.49135">
        <ele>577</ele>
        <time>2021-06-26T06:06:51Z</time>
      </trkpt>
      <trkpt lat="46.12881" lon="6.4914">
        <ele>577.2</ele>
        <time>2021-06-26T06:06:52Z</time>
      </trkpt>
      <trkpt lat="46.12879" lon="6.49145">
        <ele>577.4</ele>
        <time>2021-06-26T06:06:53Z</time>
      </trkpt>
      <trkpt lat="46.12877" lon="6.4915">
        <ele>577.6</ele>
        <time>2021-06-26T06:06:54Z</time>
      </trkpt>
      <trkpt lat="46.12875" lon="6.49155">
        <ele>577.8</ele>
        <time>2021-06-26T06:06:55Z</time>
      </trkpt>
      <trkpt lat="46.12873" lon="6.49159">
        <ele>578</ele>
        <time>2021-06-26T06:06:56Z</time>
      </trkpt>
      <trkpt lat="46.12871" lon="6.49164">
        <ele>578.2</ele>
        <time>2021-06-26T06:06:57Z</time>
      </trkpt>
      <trkpt lat="46.1287" lon="6.49169">
        <ele>578.2</ele>
        <time>2021-06-26T06:06:58Z</time>
      </trkpt>
      <trkpt lat="46.12867" lon="6.49173">
        <ele>578.4</ele>
        <time>2021-06-26T06:06:59Z</time>
      </trkpt>
      <trkpt lat="46.12865" lon="6.49179">
        <ele>578.8</ele>
        <time>2021-06-26T06:07:00Z</time>
      </trkpt>
      <trkpt lat="46.12863" lon="6.49184">
        <ele>578.8</ele>
        <time>2021-06-26T06:07:01Z</time>
      </trkpt>
      <trkpt lat="46.12861" lon="6.49189">
        <ele>579</ele>
        <time>2021-06-26T06:07:02Z</time>
      </trkpt>
      <trkpt lat="46.12858" lon="6.49195">
        <ele>579</ele>
        <time>2021-06-26T06:07:03Z</time>
      </trkpt>
      <trkpt lat="46.12856" lon="6.492">
        <ele>579.4</ele>
        <time>2021-06-26T06:07:04Z</time>
      </trkpt>
      <trkpt lat="46.12854" lon="6.49205">
        <ele>579.4</ele>
        <time>2021-06-26T06:07:05Z</time>
      </trkpt>
      <trkpt lat="46.12851" lon="6.4921">
        <ele>579.6</ele>
        <time>2021-06-26T06:07:06Z</time>
      </trkpt>
      <trkpt lat="46.12849" lon="6.49215">
        <ele>579.6</ele>
        <time>2021-06-26T06:07:07Z</time>
      </trkpt>
      <trkpt lat="46.12847" lon="6.4922">
        <ele>579.8</ele>
        <time>2021-06-26T06:07:08Z</time>
      </trkpt>
      <trkpt lat="46.12845" lon="6.49225">
        <ele>580.2</ele>
        <time>2021-06-26T06:07:09Z</time>
      </trkpt>
      <trkpt lat="46.12843" lon="6.4923">
        <ele>580.2</ele>
        <time>2021-06-26T06:07:10Z</time>
      </trkpt>
      <trkpt lat="46.12841" lon="6.49235">
        <ele>580.4</ele>
        <time>2021-06-26T06:07:11Z</time>
      </trkpt>
      <trkpt lat="46.12839" lon="6.4924">
        <ele>580.6</ele>
        <time>2021-06-26T06:07:12Z</time>
      </trkpt>
      <trkpt lat="46.12836" lon="6.49245">
        <ele>581</ele>
        <time>2021-06-26T06:07:13Z</time>
      </trkpt>
      <trkpt lat="46.12834" lon="6.4925">
        <ele>581</ele>
        <time>2021-06-26T06:07:14Z</time>
      </trkpt>
      <trkpt lat="46.12832" lon="6.49254">
        <ele>581.4</ele>
        <time>2021-06-26T06:07:15Z</time>
      </trkpt>
      <trkpt lat="46.1283" lon="6.49259">
        <ele>581.8</ele>
        <time>2021-06-26T06:07:16Z</time>
      </trkpt>
      <trkpt lat="46.12827" lon="6.49264">
        <ele>582</ele>
        <time>2021-06-26T06:07:17Z</time>
      </trkpt>
      <trkpt lat="46.12825" lon="6.4927">
        <ele>582</ele>
        <time>2021-06-26T06:07:18Z</time>
      </trkpt>
      <trkpt lat="46.12822" lon="6.49275">
        <ele>582.2</ele>
        <time>2021-06-26T06:07:19Z</time>
      </trkpt>
      <trkpt lat="46.12819" lon="6.4928">
        <ele>582.4</ele>
        <time>2021-06-26T06:07:20Z</time>
      </trkpt>
      <trkpt lat="46.12816" lon="6.49285">
        <ele>582.6</ele>
        <time>2021-06-26T06:07:21Z</time>
      </trkpt>
      <trkpt lat="46.12813" lon="6.4929">
        <ele>582.6</ele>
        <time>2021-06-26T06:07:22Z</time>
      </trkpt>
      <trkpt lat="46.12811" lon="6.49295">
        <ele>582.8</ele>
        <time>2021-06-26T06:07:23Z</time>
      </trkpt>
      <trkpt lat="46.12808" lon="6.493">
        <ele>583</ele>
        <time>2021-06-26T06:07:24Z</time>
      </trkpt>
      <trkpt lat="46.12805" lon="6.49304">
        <ele>583.2</ele>
        <time>2021-06-26T06:07:25Z</time>
      </trkpt>
      <trkpt lat="46.12802" lon="6.49309">
        <ele>583.4</ele>
        <time>2021-06-26T06:07:26Z</time>
      </trkpt>
      <trkpt lat="46.12799" lon="6.49313">
        <ele>583.4</ele>
        <time>2021-06-26T06:07:27Z</time>
      </trkpt>
      <trkpt lat="46.12796" lon="6.49318">
        <ele>583.6</ele>
        <time>2021-06-26T06:07:28Z</time>
      </trkpt>
      <trkpt lat="46.12793" lon="6.49323">
        <ele>584</ele>
        <time>2021-06-26T06:07:29Z</time>
      </trkpt>
      <trkpt lat="46.12791" lon="6.49327">
        <ele>584</ele>
        <time>2021-06-26T06:07:30Z</time>
      </trkpt>
      <trkpt lat="46.12788" lon="6.49331">
        <ele>584</ele>
        <time>2021-06-26T06:07:31Z</time>
      </trkpt>
      <trkpt lat="46.12786" lon="6.49336">
        <ele>584.4</ele>
        <time>2021-06-26T06:07:32Z</time>
      </trkpt>
      <trkpt lat="46.12783" lon="6.4934">
        <ele>584.4</ele>
        <time>2021-06-26T06:07:33Z</time>
      </trkpt>
      <trkpt lat="46.1278" lon="6.49345">
        <ele>584.8</ele>
        <time>2021-06-26T06:07:34Z</time>
      </trkpt>
      <trkpt lat="46.12777" lon="6.49349">
        <ele>585</ele>
        <time>2021-06-26T06:07:35Z</time>
      </trkpt>
      <trkpt lat="46.12774" lon="6.49354">
        <ele>585.2</ele>
        <time>2021-06-26T06:07:36Z</time>
      </trkpt>
      <trkpt lat="46.12771" lon="6.49358">
        <ele>585.4</ele>
        <time>2021-06-26T06:07:37Z</time>
      </trkpt>
      <trkpt lat="46.12768" lon="6.49363">
        <ele>585.4</ele>
        <time>2021-06-26T06:07:38Z</time>
      </trkpt>
      <trkpt lat="46.12765" lon="6.49368">
        <ele>585.6</ele>
        <time>2021-06-26T06:07:39Z</time>
      </trkpt>
      <trkpt lat="46.12762" lon="6.49373">
        <ele>585.8</ele>
        <time>2021-06-26T06:07:40Z</time>
      </trkpt>
      <trkpt lat="46.12759" lon="6.49377">
        <ele>586</ele>
        <time>2021-06-26T06:07:41Z</time>
      </trkpt>
      <trkpt lat="46.12756" lon="6.49382">
        <ele>586.2</ele>
        <time>2021-06-26T06:07:42Z</time>
      </trkpt>
      <trkpt lat="46.12753" lon="6.49387">
        <ele>586.4</ele>
        <time>2021-06-26T06:07:43Z</time>
      </trkpt>
      <trkpt lat="46.1275" lon="6.49392">
        <ele>586.4</ele>
        <time>2021-06-26T06:07:44Z</time>
      </trkpt>
      <trkpt lat="46.12747" lon="6.49396">
        <ele>586.4</ele>
        <time>2021-06-26T06:07:45Z</time>
      </trkpt>
      <trkpt lat="46.12744" lon="6.49401">
        <ele>586.8</ele>
        <time>2021-06-26T06:07:46Z</time>
      </trkpt>
      <trkpt lat="46.12741" lon="6.49405">
        <ele>586.8</ele>
        <time>2021-06-26T06:07:47Z</time>
      </trkpt>
      <trkpt lat="46.12738" lon="6.4941">
        <ele>587.2</ele>
        <time>2021-06-26T06:07:48Z</time>
      </trkpt>
      <trkpt lat="46.12735" lon="6.49414">
        <ele>587.4</ele>
        <time>2021-06-26T06:07:49Z</time>
      </trkpt>
      <trkpt lat="46.12732" lon="6.49419">
        <ele>587.8</ele>
        <time>2021-06-26T06:07:50Z</time>
      </trkpt>
      <trkpt lat="46.12729" lon="6.49423">
        <ele>588</ele>
        <time>2021-06-26T06:07:51Z</time>
      </trkpt>
      <trkpt lat="46.12726" lon="6.49428">
        <ele>588.2</ele>
        <time>2021-06-26T06:07:52Z</time>
      </trkpt>
      <trkpt lat="46.12723" lon="6.49432">
        <ele>588.2</ele>
        <time>2021-06-26T06:07:53Z</time>
      </trkpt>
      <trkpt lat="46.1272" lon="6.49437">
        <ele>588.4</ele>
        <time>2021-06-26T06:07:54Z</time>
      </trkpt>
      <trkpt lat="46.12717" lon="6.49441">
        <ele>588.8</ele>
        <time>2021-06-26T06:07:55Z</time>
      </trkpt>
      <trkpt lat="46.12714" lon="6.49446">
        <ele>589</ele>
        <time>2021-06-26T06:07:56Z</time>
      </trkpt>
      <trkpt lat="46.12711" lon="6.49451">
        <ele>589</ele>
        <time>2021-06-26T06:07:57Z</time>
      </trkpt>
      <trkpt lat="46.12708" lon="6.49455">
        <ele>589</ele>
        <time>2021-06-26T06:07:58Z</time>
      </trkpt>
      <trkpt lat="46.12705" lon="6.4946">
        <ele>589.2</ele>
        <time>2021-06-26T06:07:59Z</time>
      </trkpt>
      <trkpt lat="46.12702" lon="6.49464">
        <ele>589.4</ele>
        <time>2021-06-26T06:08:00Z</time>
      </trkpt>
      <trkpt lat="46.12699" lon="6.49469">
        <ele>589.6</ele>
        <time>2021-06-26T06:08:01Z</time>
      </trkpt>
      <trkpt lat="46.12696" lon="6.49474">
        <ele>589.6</ele>
        <time>2021-06-26T06:08:02Z</time>
      </trkpt>
      <trkpt lat="46.12694" lon="6.49479">
        <ele>589.8</ele>
        <time>2021-06-26T06:08:03Z</time>
      </trkpt>
      <trkpt lat="46.12691" lon="6.49484">
        <ele>590</ele>
        <time>2021-06-26T06:08:04Z</time>
      </trkpt>
      <trkpt lat="46.12688" lon="6.49489">
        <ele>590</ele>
        <time>2021-06-26T06:08:05Z</time>
      </trkpt>
      <trkpt lat="46.12685" lon="6.49494">
        <ele>590</ele>
        <time>2021-06-26T06:08:06Z</time>
      </trkpt>
      <trkpt lat="46.12683" lon="6.49499">
        <ele>590.4</ele>
        <time>2021-06-26T06:08:07Z</time>
      </trkpt>
      <trkpt lat="46.1268" lon="6.49504">
        <ele>590.4</ele>
        <time>2021-06-26T06:08:08Z</time>
      </trkpt>
      <trkpt lat="46.12677" lon="6.4951">
        <ele>590.6</ele>
        <time>2021-06-26T06:08:09Z</time>
      </trkpt>
      <trkpt lat="46.12675" lon="6.49515">
        <ele>590.8</ele>
        <time>2021-06-26T06:08:10Z</time>
      </trkpt>
      <trkpt lat="46.12672" lon="6.4952">
        <ele>591</ele>
        <time>2021-06-26T06:08:11Z</time>
      </trkpt>
      <trkpt lat="46.1267" lon="6.49526">
        <ele>591</ele>
        <time>2021-06-26T06:08:12Z</time>
      </trkpt>
      <trkpt lat="46.12667" lon="6.49531">
        <ele>591.4</ele>
        <time>2021-06-26T06:08:13Z</time>
      </trkpt>
      <trkpt lat="46.12665" lon="6.49536">
        <ele>591.4</ele>
        <time>2021-06-26T06:08:14Z</time>
      </trkpt>
      <trkpt lat="46.12662" lon="6.49541">
        <ele>591.4</ele>
        <time>2021-06-26T06:08:15Z</time>
      </trkpt>
      <trkpt lat="46.12659" lon="6.49547">
        <ele>591.4</ele>
        <time>2021-06-26T06:08:16Z</time>
      </trkpt>
      <trkpt lat="46.12657" lon="6.49552">
        <ele>591.6</ele>
        <time>2021-06-26T06:08:17Z</time>
      </trkpt>
      <trkpt lat="46.12654" lon="6.49557">
        <ele>591.6</ele>
        <time>2021-06-26T06:08:18Z</time>
      </trkpt>
      <trkpt lat="46.12652" lon="6.49562">
        <ele>591.6</ele>
        <time>2021-06-26T06:08:19Z</time>
      </trkpt>
      <trkpt lat="46.1265" lon="6.49568">
        <ele>591.6</ele>
        <time>2021-06-26T06:08:20Z</time>
      </trkpt>
      <trkpt lat="46.12648" lon="6.49573">
        <ele>591.8</ele>
        <time>2021-06-26T06:08:21Z</time>
      </trkpt>
      <trkpt lat="46.12645" lon="6.49579">
        <ele>591.8</ele>
        <time>2021-06-26T06:08:22Z</time>
      </trkpt>
      <trkpt lat="46.12643" lon="6.49583">
        <ele>591.8</ele>
        <time>2021-06-26T06:08:23Z</time>
      </trkpt>
      <trkpt lat="46.12641" lon="6.49588">
        <ele>591.8</ele>
        <time>2021-06-26T06:08:24Z</time>
      </trkpt>
      <trkpt lat="46.12638" lon="6.49594">
        <ele>592</ele>
        <time>2021-06-26T06:08:25Z</time>
      </trkpt>
      <trkpt lat="46.12636" lon="6.49599">
        <ele>592</ele>
        <time>2021-06-26T06:08:26Z</time>
      </trkpt>
      <trkpt lat="46.12633" lon="6.49605">
        <ele>592</ele>
        <time>2021-06-26T06:08:27Z</time>
      </trkpt>
      <trkpt lat="46.12631" lon="6.49611">
        <ele>592.2</ele>
        <time>2021-06-26T06:08:28Z</time>
      </trkpt>
      <trkpt lat="46.12629" lon="6.49617">
        <ele>592.2</ele>
        <time>2021-06-26T06:08:29Z</time>
      </trkpt>
      <trkpt lat="46.12627" lon="6.49623">
        <ele>592.4</ele>
        <time>2021-06-26T06:08:30Z</time>
      </trkpt>
      <trkpt lat="46.12624" lon="6.4963">
        <ele>592.6</ele>
        <time>2021-06-26T06:08:31Z</time>
      </trkpt>
      <trkpt lat="46.12622" lon="6.49636">
        <ele>592.6</ele>
        <time>2021-06-26T06:08:32Z</time>
      </trkpt>
      <trkpt lat="46.12621" lon="6.49642">
        <ele>593</ele>
        <time>2021-06-26T06:08:33Z</time>
      </trkpt>
      <trkpt lat="46.12619" lon="6.49649">
        <ele>593.2</ele>
        <time>2021-06-26T06:08:34Z</time>
      </trkpt>
      <trkpt lat="46.12617" lon="6.49655">
        <ele>593.6</ele>
        <time>2021-06-26T06:08:35Z</time>
      </trkpt>
      <trkpt lat="46.12615" lon="6.49661">
        <ele>593.8</ele>
        <time>2021-06-26T06:08:36Z</time>
      </trkpt>
      <trkpt lat="46.12613" lon="6.49667">
        <ele>594</ele>
        <time>2021-06-26T06:08:37Z</time>
      </trkpt>
      <trkpt lat="46.12612" lon="6.49674">
        <ele>594.2</ele>
        <time>2021-06-26T06:08:38Z</time>
      </trkpt>
      <trkpt lat="46.1261" lon="6.49679">
        <ele>594.4</ele>
        <time>2021-06-26T06:08:39Z</time>
      </trkpt>
      <trkpt lat="46.12609" lon="6.49686">
        <ele>594.6</ele>
        <time>2021-06-26T06:08:40Z</time>
      </trkpt>
      <trkpt lat="46.12608" lon="6.49691">
        <ele>594.8</ele>
        <time>2021-06-26T06:08:41Z</time>
      </trkpt>
      <trkpt lat="46.12606" lon="6.49697">
        <ele>595.2</ele>
        <time>2021-06-26T06:08:42Z</time>
      </trkpt>
      <trkpt lat="46.12605" lon="6.49703">
        <ele>595.2</ele>
        <time>2021-06-26T06:08:43Z</time>
      </trkpt>
      <trkpt lat="46.12603" lon="6.49708">
        <ele>595.2</ele>
        <time>2021-06-26T06:08:44Z</time>
      </trkpt>
      <trkpt lat="46.12602" lon="6.49714">
        <ele>595.4</ele>
        <time>2021-06-26T06:08:45Z</time>
      </trkpt>
      <trkpt lat="46.12601" lon="6.49719">
        <ele>595.6</ele>
        <time>2021-06-26T06:08:46Z</time>
      </trkpt>
      <trkpt lat="46.126" lon="6.49725">
        <ele>595.8</ele>
        <time>2021-06-26T06:08:47Z</time>
      </trkpt>
      <trkpt lat="46.12599" lon="6.49731">
        <ele>595.8</ele>
        <time>2021-06-26T06:08:48Z</time>
      </trkpt>
      <trkpt lat="46.12598" lon="6.49736">
        <ele>596</ele>
        <time>2021-06-26T06:08:49Z</time>
      </trkpt>
      <trkpt lat="46.12598" lon="6.49742">
        <ele>596.2</ele>
        <time>2021-06-26T06:08:50Z</time>
      </trkpt>
      <trkpt lat="46.12597" lon="6.49748">
        <ele>596.2</ele>
        <time>2021-06-26T06:08:51Z</time>
      </trkpt>
      <trkpt lat="46.12597" lon="6.49754">
        <ele>596.4</ele>
        <time>2021-06-26T06:08:52Z</time>
      </trkpt>
      <trkpt lat="46.12596" lon="6.4976">
        <ele>596.8</ele>
        <time>2021-06-26T06:08:53Z</time>
      </trkpt>
      <trkpt lat="46.12596" lon="6.49766">
        <ele>597</ele>
        <time>2021-06-26T06:08:54Z</time>
      </trkpt>
      <trkpt lat="46.12596" lon="6.49772">
        <ele>596.8</ele>
        <time>2021-06-26T06:08:55Z</time>
      </trkpt>
      <trkpt lat="46.12596" lon="6.49778">
        <ele>597</ele>
        <time>2021-06-26T06:08:56Z</time>
      </trkpt>
      <trkpt lat="46.12596" lon="6.49784">
        <ele>597.2</ele>
        <time>2021-06-26T06:08:57Z</time>
      </trkpt>
      <trkpt lat="46.12596" lon="6.4979">
        <ele>597.4</ele>
        <time>2021-06-26T06:08:58Z</time>
      </trkpt>
      <trkpt lat="46.12596" lon="6.49796">
        <ele>597.4</ele>
        <time>2021-06-26T06:08:59Z</time>
      </trkpt>
      <trkpt lat="46.12596" lon="6.49802">
        <ele>597.8</ele>
        <time>2021-06-26T06:09:00Z</time>
      </trkpt>
      <trkpt lat="46.12596" lon="6.49808">
        <ele>597.8</ele>
        <time>2021-06-26T06:09:01Z</time>
      </trkpt>
      <trkpt lat="46.12596" lon="6.49814">
        <ele>598.2</ele>
        <time>2021-06-26T06:09:02Z</time>
      </trkpt>
      <trkpt lat="46.12597" lon="6.4982">
        <ele>598.4</ele>
        <time>2021-06-26T06:09:03Z</time>
      </trkpt>
      <trkpt lat="46.12597" lon="6.49826">
        <ele>598.8</ele>
        <time>2021-06-26T06:09:04Z</time>
      </trkpt>
      <trkpt lat="46.12597" lon="6.49832">
        <ele>599</ele>
        <time>2021-06-26T06:09:05Z</time>
      </trkpt>
      <trkpt lat="46.12597" lon="6.49838">
        <ele>599</ele>
        <time>2021-06-26T06:09:06Z</time>
      </trkpt>
      <trkpt lat="46.12597" lon="6.49844">
        <ele>599.4</ele>
        <time>2021-06-26T06:09:07Z</time>
      </trkpt>
      <trkpt lat="46.12597" lon="6.4985">
        <ele>599.8</ele>
        <time>2021-06-26T06:09:08Z</time>
      </trkpt>
      <trkpt lat="46.12597" lon="6.49856">
        <ele>599.8</ele>
        <time>2021-06-26T06:09:09Z</time>
      </trkpt>
      <trkpt lat="46.12597" lon="6.49862">
        <ele>599.8</ele>
        <time>2021-06-26T06:09:10Z</time>
      </trkpt>
      <trkpt lat="46.12597" lon="6.49868">
        <ele>600.2</ele>
        <time>2021-06-26T06:09:11Z</time>
      </trkpt>
      <trkpt lat="46.12597" lon="6.49875">
        <ele>600.4</ele>
        <time>2021-06-26T06:09:12Z</time>
      </trkpt>
      <trkpt lat="46.12597" lon="6.49881">
        <ele>600.6</ele>
        <time>2021-06-26T06:09:13Z</time>
      </trkpt>
      <trkpt lat="46.12597" lon="6.49887">
        <ele>601</ele>
        <time>2021-06-26T06:09:14Z</time>
      </trkpt>
      <trkpt lat="46.12597" lon="6.49893">
        <ele>601.2</ele>
        <time>2021-06-26T06:09:15Z</time>
      </trkpt>
      <trkpt lat="46.12597" lon="6.49899">
        <ele>601.2</ele>
        <time>2021-06-26T06:09:16Z</time>
      </trkpt>
      <trkpt lat="46.12597" lon="6.49905">
        <ele>601.6</ele>
        <time>2021-06-26T06:09:17Z</time>
      </trkpt>
      <trkpt lat="46.12597" lon="6.49911">
        <ele>601.8</ele>
        <time>2021-06-26T06:09:18Z</time>
      </trkpt>
      <trkpt lat="46.12597" lon="6.49917">
        <ele>602</ele>
        <time>2021-06-26T06:09:19Z</time>
      </trkpt>
      <trkpt lat="46.12597" lon="6.49923">
        <ele>602</ele>
        <time>2021-06-26T06:09:20Z</time>
      </trkpt>
      <trkpt lat="46.12597" lon="6.49929">
        <ele>602.2</ele>
        <time>2021-06-26T06:09:21Z</time>
      </trkpt>
      <trkpt lat="46.12598" lon="6.49935">
        <ele>602.4</ele>
        <time>2021-06-26T06:09:22Z</time>
      </trkpt>
      <trkpt lat="46.12598" lon="6.49941">
        <ele>602.4</ele>
        <time>2021-06-26T06:09:23Z</time>
      </trkpt>
      <trkpt lat="46.12599" lon="6.49948">
        <ele>602.8</ele>
        <time>2021-06-26T06:09:24Z</time>
      </trkpt>
      <trkpt lat="46.12599" lon="6.49954">
        <ele>603</ele>
        <time>2021-06-26T06:09:25Z</time>
      </trkpt>
      <trkpt lat="46.126" lon="6.4996">
        <ele>603.4</ele>
        <time>2021-06-26T06:09:26Z</time>
      </trkpt>
      <trkpt lat="46.12601" lon="6.49966">
        <ele>603.6</ele>
        <time>2021-06-26T06:09:27Z</time>
      </trkpt>
      <trkpt lat="46.12603" lon="6.49972">
        <ele>603.8</ele>
        <time>2021-06-26T06:09:28Z</time>
      </trkpt>
      <trkpt lat="46.12605" lon="6.49977">
        <ele>604</ele>
        <time>2021-06-26T06:09:29Z</time>
      </trkpt>
      <trkpt lat="46.12607" lon="6.49983">
        <ele>604</ele>
        <time>2021-06-26T06:09:30Z</time>
      </trkpt>
      <trkpt lat="46.12609" lon="6.49988">
        <ele>604</ele>
        <time>2021-06-26T06:09:31Z</time>
      </trkpt>
      <trkpt lat="46.12611" lon="6.49994">
        <ele>604.4</ele>
        <time>2021-06-26T06:09:32Z</time>
      </trkpt>
      <trkpt lat="46.12613" lon="6.49999">
        <ele>604.4</ele>
        <time>2021-06-26T06:09:33Z</time>
      </trkpt>
      <trkpt lat="46.12616" lon="6.50004">
        <ele>604.6</ele>
        <time>2021-06-26T06:09:34Z</time>
      </trkpt>
      <trkpt lat="46.12619" lon="6.50009">
        <ele>604.8</ele>
        <time>2021-06-26T06:09:35Z</time>
      </trkpt>
      <trkpt lat="46.12622" lon="6.50014">
        <ele>604.8</ele>
        <time>2021-06-26T06:09:36Z</time>
      </trkpt>
      <trkpt lat="46.12624" lon="6.50019">
        <ele>605</ele>
        <time>2021-06-26T06:09:37Z</time>
      </trkpt>
      <trkpt lat="46.12627" lon="6.50024">
        <ele>605</ele>
        <time>2021-06-26T06:09:38Z</time>
      </trkpt>
      <trkpt lat="46.12629" lon="6.50029">
        <ele>605.2</ele>
        <time>2021-06-26T06:09:39Z</time>
      </trkpt>
      <trkpt lat="46.12633" lon="6.50033">
        <ele>605.2</ele>
        <time>2021-06-26T06:09:40Z</time>
      </trkpt>
      <trkpt lat="46.12635" lon="6.50037">
        <ele>605.2</ele>
        <time>2021-06-26T06:09:41Z</time>
      </trkpt>
      <trkpt lat="46.12639" lon="6.50042">
        <ele>605.4</ele>
        <time>2021-06-26T06:09:42Z</time>
      </trkpt>
      <trkpt lat="46.12642" lon="6.50046">
        <ele>605.2</ele>
        <time>2021-06-26T06:09:43Z</time>
      </trkpt>
      <trkpt lat="46.12645" lon="6.5005">
        <ele>605.4</ele>
        <time>2021-06-26T06:09:44Z</time>
      </trkpt>
      <trkpt lat="46.12649" lon="6.50054">
        <ele>605.6</ele>
        <time>2021-06-26T06:09:45Z</time>
      </trkpt>
      <trkpt lat="46.12652" lon="6.50058">
        <ele>605.6</ele>
        <time>2021-06-26T06:09:46Z</time>
      </trkpt>
      <trkpt lat="46.12655" lon="6.50062">
        <ele>605.8</ele>
        <time>2021-06-26T06:09:47Z</time>
      </trkpt>
      <trkpt lat="46.12657" lon="6.50067">
        <ele>606</ele>
        <time>2021-06-26T06:09:48Z</time>
      </trkpt>
      <trkpt lat="46.12659" lon="6.50071">
        <ele>606</ele>
        <time>2021-06-26T06:09:49Z</time>
      </trkpt>
      <trkpt lat="46.12662" lon="6.50076">
        <ele>606.2</ele>
        <time>2021-06-26T06:09:50Z</time>
      </trkpt>
      <trkpt lat="46.12665" lon="6.50081">
        <ele>606.2</ele>
        <time>2021-06-26T06:09:51Z</time>
      </trkpt>
      <trkpt lat="46.12668" lon="6.50085">
        <ele>606.2</ele>
        <time>2021-06-26T06:09:52Z</time>
      </trkpt>
      <trkpt lat="46.12671" lon="6.5009">
        <ele>606.4</ele>
        <time>2021-06-26T06:09:53Z</time>
      </trkpt>
      <trkpt lat="46.12674" lon="6.50095">
        <ele>606.4</ele>
        <time>2021-06-26T06:09:54Z</time>
      </trkpt>
      <trkpt lat="46.12676" lon="6.501">
        <ele>606.4</ele>
        <time>2021-06-26T06:09:55Z</time>
      </trkpt>
      <trkpt lat="46.12679" lon="6.50104">
        <ele>606.6</ele>
        <time>2021-06-26T06:09:56Z</time>
      </trkpt>
      <trkpt lat="46.12682" lon="6.50109">
        <ele>606.8</ele>
        <time>2021-06-26T06:09:57Z</time>
      </trkpt>
      <trkpt lat="46.12685" lon="6.50113">
        <ele>607</ele>
        <time>2021-06-26T06:09:58Z</time>
      </trkpt>
      <trkpt lat="46.12687" lon="6.50118">
        <ele>607.2</ele>
        <time>2021-06-26T06:09:59Z</time>
      </trkpt>
      <trkpt lat="46.1269" lon="6.50123">
        <ele>607.2</ele>
        <time>2021-06-26T06:10:00Z</time>
      </trkpt>
      <trkpt lat="46.12693" lon="6.50127">
        <ele>607.4</ele>
        <time>2021-06-26T06:10:01Z</time>
      </trkpt>
      <trkpt lat="46.12696" lon="6.50132">
        <ele>607.6</ele>
        <time>2021-06-26T06:10:02Z</time>
      </trkpt>
      <trkpt lat="46.12699" lon="6.50137">
        <ele>607.8</ele>
        <time>2021-06-26T06:10:03Z</time>
      </trkpt>
      <trkpt lat="46.12701" lon="6.50142">
        <ele>608</ele>
        <time>2021-06-26T06:10:04Z</time>
      </trkpt>
      <trkpt lat="46.12704" lon="6.50147">
        <ele>608.2</ele>
        <time>2021-06-26T06:10:05Z</time>
      </trkpt>
      <trkpt lat="46.12705" lon="6.50153">
        <ele>608.2</ele>
        <time>2021-06-26T06:10:06Z</time>
      </trkpt>
      <trkpt lat="46.12707" lon="6.5016">
        <ele>608.2</ele>
        <time>2021-06-26T06:10:07Z</time>
      </trkpt>
      <trkpt lat="46.12708" lon="6.50166">
        <ele>608.4</ele>
        <time>2021-06-26T06:10:08Z</time>
      </trkpt>
      <trkpt lat="46.12709" lon="6.50172">
        <ele>608.6</ele>
        <time>2021-06-26T06:10:09Z</time>
      </trkpt>
      <trkpt lat="46.12711" lon="6.50179">
        <ele>608.8</ele>
        <time>2021-06-26T06:10:10Z</time>
      </trkpt>
      <trkpt lat="46.12711" lon="6.50185">
        <ele>608.8</ele>
        <time>2021-06-26T06:10:11Z</time>
      </trkpt>
      <trkpt lat="46.12712" lon="6.50192">
        <ele>609</ele>
        <time>2021-06-26T06:10:12Z</time>
      </trkpt>
      <trkpt lat="46.12712" lon="6.50198">
        <ele>609</ele>
        <time>2021-06-26T06:10:13Z</time>
      </trkpt>
      <trkpt lat="46.12713" lon="6.50204">
        <ele>609.2</ele>
        <time>2021-06-26T06:10:14Z</time>
      </trkpt>
      <trkpt lat="46.12714" lon="6.50209">
        <ele>609.4</ele>
        <time>2021-06-26T06:10:15Z</time>
      </trkpt>
      <trkpt lat="46.12715" lon="6.50215">
        <ele>609.6</ele>
        <time>2021-06-26T06:10:16Z</time>
      </trkpt>
      <trkpt lat="46.12716" lon="6.50221">
        <ele>610</ele>
        <time>2021-06-26T06:10:17Z</time>
      </trkpt>
      <trkpt lat="46.12717" lon="6.50227">
        <ele>610.2</ele>
        <time>2021-06-26T06:10:18Z</time>
      </trkpt>
      <trkpt lat="46.12718" lon="6.50233">
        <ele>610.2</ele>
        <time>2021-06-26T06:10:19Z</time>
      </trkpt>
      <trkpt lat="46.12719" lon="6.5024">
        <ele>610.4</ele>
        <time>2021-06-26T06:10:20Z</time>
      </trkpt>
      <trkpt lat="46.1272" lon="6.50245">
        <ele>610.4</ele>
        <time>2021-06-26T06:10:21Z</time>
      </trkpt>
      <trkpt lat="46.12722" lon="6.50251">
        <ele>610.4</ele>
        <time>2021-06-26T06:10:22Z</time>
      </trkpt>
      <trkpt lat="46.12723" lon="6.50256">
        <ele>610.6</ele>
        <time>2021-06-26T06:10:23Z</time>
      </trkpt>
      <trkpt lat="46.12725" lon="6.50262">
        <ele>610.6</ele>
        <time>2021-06-26T06:10:24Z</time>
      </trkpt>
      <trkpt lat="46.12727" lon="6.50267">
        <ele>610.6</ele>
        <time>2021-06-26T06:10:25Z</time>
      </trkpt>
      <trkpt lat="46.12729" lon="6.50273">
        <ele>611</ele>
        <time>2021-06-26T06:10:26Z</time>
      </trkpt>
      <trkpt lat="46.12731" lon="6.50278">
        <ele>611.4</ele>
        <time>2021-06-26T06:10:27Z</time>
      </trkpt>
      <trkpt lat="46.12733" lon="6.50284">
        <ele>611.4</ele>
        <time>2021-06-26T06:10:28Z</time>
      </trkpt>
      <trkpt lat="46.12736" lon="6.5029">
        <ele>611.6</ele>
        <time>2021-06-26T06:10:29Z</time>
      </trkpt>
      <trkpt lat="46.12738" lon="6.50295">
        <ele>612</ele>
        <time>2021-06-26T06:10:30Z</time>
      </trkpt>
      <trkpt lat="46.1274" lon="6.50301">
        <ele>612.4</ele>
        <time>2021-06-26T06:10:31Z</time>
      </trkpt>
      <trkpt lat="46.12742" lon="6.50307">
        <ele>612.8</ele>
        <time>2021-06-26T06:10:32Z</time>
      </trkpt>
      <trkpt lat="46.12743" lon="6.50313">
        <ele>613</ele>
        <time>2021-06-26T06:10:33Z</time>
      </trkpt>
      <trkpt lat="46.12745" lon="6.50319">
        <ele>613</ele>
        <time>2021-06-26T06:10:34Z</time>
      </trkpt>
      <trkpt lat="46.12746" lon="6.50325">
        <ele>613</ele>
        <time>2021-06-26T06:10:35Z</time>
      </trkpt>
      <trkpt lat="46.12747" lon="6.50332">
        <ele>613.2</ele>
        <time>2021-06-26T06:10:36Z</time>
      </trkpt>
      <trkpt lat="46.12749" lon="6.50338">
        <ele>613.4</ele>
        <time>2021-06-26T06:10:37Z</time>
      </trkpt>
      <trkpt lat="46.1275" lon="6.50345">
        <ele>613.6</ele>
        <time>2021-06-26T06:10:38Z</time>
      </trkpt>
      <trkpt lat="46.12751" lon="6.50351">
        <ele>613.8</ele>
        <time>2021-06-26T06:10:39Z</time>
      </trkpt>
      <trkpt lat="46.12752" lon="6.50358">
        <ele>613.8</ele>
        <time>2021-06-26T06:10:40Z</time>
      </trkpt>
      <trkpt lat="46.12753" lon="6.50365">
        <ele>614</ele>
        <time>2021-06-26T06:10:41Z</time>
      </trkpt>
      <trkpt lat="46.12753" lon="6.50372">
        <ele>614</ele>
        <time>2021-06-26T06:10:42Z</time>
      </trkpt>
      <trkpt lat="46.12754" lon="6.50379">
        <ele>614</ele>
        <time>2021-06-26T06:10:43Z</time>
      </trkpt>
      <trkpt lat="46.12755" lon="6.50385">
        <ele>614</ele>
        <time>2021-06-26T06:10:44Z</time>
      </trkpt>
      <trkpt lat="46.12757" lon="6.50392">
        <ele>614.2</ele>
        <time>2021-06-26T06:10:45Z</time>
      </trkpt>
      <trkpt lat="46.12758" lon="6.50398">
        <ele>614</ele>
        <time>2021-06-26T06:10:46Z</time>
      </trkpt>
      <trkpt lat="46.12759" lon="6.50405">
        <ele>614</ele>
        <time>2021-06-26T06:10:47Z</time>
      </trkpt>
      <trkpt lat="46.1276" lon="6.50412">
        <ele>614.2</ele>
        <time>2021-06-26T06:10:48Z</time>
      </trkpt>
      <trkpt lat="46.12761" lon="6.50418">
        <ele>614.2</ele>
        <time>2021-06-26T06:10:49Z</time>
      </trkpt>
      <trkpt lat="46.12772" lon="6.50448">
        <ele>614.8</ele>
        <time>2021-06-26T06:10:54Z</time>
      </trkpt>
      <trkpt lat="46.12777" lon="6.50458">
        <ele>614.8</ele>
        <time>2021-06-26T06:10:56Z</time>
      </trkpt>
      <trkpt lat="46.12791" lon="6.50477">
        <ele>615.4</ele>
        <time>2021-06-26T06:11:00Z</time>
      </trkpt>
      <trkpt lat="46.12802" lon="6.50492">
        <ele>615.6</ele>
        <time>2021-06-26T06:11:03Z</time>
      </trkpt>
      <trkpt lat="46.12809" lon="6.50501">
        <ele>615.6</ele>
        <time>2021-06-26T06:11:05Z</time>
      </trkpt>
      <trkpt lat="46.1282" lon="6.50514">
        <ele>615.6</ele>
        <time>2021-06-26T06:11:08Z</time>
      </trkpt>
      <trkpt lat="46.12824" lon="6.50519">
        <ele>615.8</ele>
        <time>2021-06-26T06:11:09Z</time>
      </trkpt>
      <trkpt lat="46.12827" lon="6.50523">
        <ele>615.8</ele>
        <time>2021-06-26T06:11:10Z</time>
      </trkpt>
      <trkpt lat="46.1283" lon="6.50528">
        <ele>615.8</ele>
        <time>2021-06-26T06:11:11Z</time>
      </trkpt>
      <trkpt lat="46.12838" lon="6.50545">
        <ele>615.8</ele>
        <time>2021-06-26T06:11:14Z</time>
      </trkpt>
      <trkpt lat="46.12856" lon="6.5058">
        <ele>615.8</ele>
        <time>2021-06-26T06:11:20Z</time>
      </trkpt>
      <trkpt lat="46.12866" lon="6.50597">
        <ele>616</ele>
        <time>2021-06-26T06:11:23Z</time>
      </trkpt>
      <trkpt lat="46.12876" lon="6.50616">
        <ele>616.2</ele>
        <time>2021-06-26T06:11:26Z</time>
      </trkpt>
      <trkpt lat="46.12898" lon="6.50654">
        <ele>616.6</ele>
        <time>2021-06-26T06:11:32Z</time>
      </trkpt>
      <trkpt lat="46.12928" lon="6.50707">
        <ele>616.8</ele>
        <time>2021-06-26T06:11:40Z</time>
      </trkpt>
      <trkpt lat="46.12935" lon="6.50721">
        <ele>617</ele>
        <time>2021-06-26T06:11:42Z</time>
      </trkpt>
      <trkpt lat="46.12941" lon="6.50735">
        <ele>617</ele>
        <time>2021-06-26T06:11:44Z</time>
      </trkpt>
      <trkpt lat="46.12944" lon="6.50743">
        <ele>617.2</ele>
        <time>2021-06-26T06:11:45Z</time>
      </trkpt>
      <trkpt lat="46.12946" lon="6.5075">
        <ele>617</ele>
        <time>2021-06-26T06:11:46Z</time>
      </trkpt>
      <trkpt lat="46.12947" lon="6.50758">
        <ele>616.8</ele>
        <time>2021-06-26T06:11:47Z</time>
      </trkpt>
      <trkpt lat="46.1295" lon="6.50765">
        <ele>617</ele>
        <time>2021-06-26T06:11:48Z</time>
      </trkpt>
      <trkpt lat="46.12952" lon="6.50773">
        <ele>617</ele>
        <time>2021-06-26T06:11:49Z</time>
      </trkpt>
      <trkpt lat="46.12962" lon="6.50814">
        <ele>617</ele>
        <time>2021-06-26T06:11:54Z</time>
      </trkpt>
      <trkpt lat="46.12965" lon="6.50821">
        <ele>617</ele>
        <time>2021-06-26T06:11:55Z</time>
      </trkpt>
      <trkpt lat="46.12968" lon="6.50829">
        <ele>617.2</ele>
        <time>2021-06-26T06:11:56Z</time>
      </trkpt>
      <trkpt lat="46.1297" lon="6.50836">
        <ele>617.2</ele>
        <time>2021-06-26T06:11:57Z</time>
      </trkpt>
      <trkpt lat="46.12971" lon="6.50844">
        <ele>617</ele>
        <time>2021-06-26T06:11:58Z</time>
      </trkpt>
      <trkpt lat="46.12974" lon="6.50868">
        <ele>617.4</ele>
        <time>2021-06-26T06:12:01Z</time>
      </trkpt>
      <trkpt lat="46.12975" lon="6.50876">
        <ele>617.4</ele>
        <time>2021-06-26T06:12:02Z</time>
      </trkpt>
      <trkpt lat="46.12975" lon="6.50883">
        <ele>617.4</ele>
        <time>2021-06-26T06:12:03Z</time>
      </trkpt>
      <trkpt lat="46.12976" lon="6.50891">
        <ele>617.4</ele>
        <time>2021-06-26T06:12:04Z</time>
      </trkpt>
      <trkpt lat="46.12978" lon="6.50898">
        <ele>617.6</ele>
        <time>2021-06-26T06:12:05Z</time>
      </trkpt>
      <trkpt lat="46.12979" lon="6.50904">
        <ele>617.8</ele>
        <time>2021-06-26T06:12:06Z</time>
      </trkpt>
      <trkpt lat="46.1298" lon="6.50911">
        <ele>617.8</ele>
        <time>2021-06-26T06:12:07Z</time>
      </trkpt>
      <trkpt lat="46.12982" lon="6.50926">
        <ele>618</ele>
        <time>2021-06-26T06:12:09Z</time>
      </trkpt>
      <trkpt lat="46.12984" lon="6.50948">
        <ele>618.4</ele>
        <time>2021-06-26T06:12:12Z</time>
      </trkpt>
      <trkpt lat="46.12984" lon="6.50956">
        <ele>618.6</ele>
        <time>2021-06-26T06:12:13Z</time>
      </trkpt>
      <trkpt lat="46.12985" lon="6.50971">
        <ele>619.2</ele>
        <time>2021-06-26T06:12:15Z</time>
      </trkpt>
      <trkpt lat="46.12985" lon="6.50979">
        <ele>619.2</ele>
        <time>2021-06-26T06:12:16Z</time>
      </trkpt>
      <trkpt lat="46.12985" lon="6.50986">
        <ele>619.2</ele>
        <time>2021-06-26T06:12:17Z</time>
      </trkpt>
      <trkpt lat="46.12984" lon="6.50994">
        <ele>619.6</ele>
        <time>2021-06-26T06:12:18Z</time>
      </trkpt>
      <trkpt lat="46.12983" lon="6.51001">
        <ele>619.6</ele>
        <time>2021-06-26T06:12:19Z</time>
      </trkpt>
      <trkpt lat="46.12982" lon="6.51009">
        <ele>619.6</ele>
        <time>2021-06-26T06:12:20Z</time>
      </trkpt>
      <trkpt lat="46.1298" lon="6.51016">
        <ele>619.8</ele>
        <time>2021-06-26T06:12:21Z</time>
      </trkpt>
      <trkpt lat="46.12978" lon="6.51022">
        <ele>619.8</ele>
        <time>2021-06-26T06:12:22Z</time>
      </trkpt>
      <trkpt lat="46.12976" lon="6.5103">
        <ele>620</ele>
        <time>2021-06-26T06:12:23Z</time>
      </trkpt>
      <trkpt lat="46.12974" lon="6.51037">
        <ele>620</ele>
        <time>2021-06-26T06:12:24Z</time>
      </trkpt>
      <trkpt lat="46.12973" lon="6.51044">
        <ele>620</ele>
        <time>2021-06-26T06:12:25Z</time>
      </trkpt>
      <trkpt lat="46.12971" lon="6.51051">
        <ele>620.2</ele>
        <time>2021-06-26T06:12:26Z</time>
      </trkpt>
      <trkpt lat="46.1297" lon="6.51058">
        <ele>620.4</ele>
        <time>2021-06-26T06:12:27Z</time>
      </trkpt>
      <trkpt lat="46.12968" lon="6.51065">
        <ele>620.6</ele>
        <time>2021-06-26T06:12:28Z</time>
      </trkpt>
      <trkpt lat="46.12967" lon="6.51073">
        <ele>620.8</ele>
        <time>2021-06-26T06:12:29Z</time>
      </trkpt>
      <trkpt lat="46.12967" lon="6.51081">
        <ele>620.8</ele>
        <time>2021-06-26T06:12:30Z</time>
      </trkpt>
      <trkpt lat="46.12966" lon="6.51089">
        <ele>620.8</ele>
        <time>2021-06-26T06:12:31Z</time>
      </trkpt>
      <trkpt lat="46.12966" lon="6.51097">
        <ele>621</ele>
        <time>2021-06-26T06:12:32Z</time>
      </trkpt>
      <trkpt lat="46.12966" lon="6.51105">
        <ele>621.2</ele>
        <time>2021-06-26T06:12:33Z</time>
      </trkpt>
      <trkpt lat="46.12966" lon="6.51113">
        <ele>621</ele>
        <time>2021-06-26T06:12:34Z</time>
      </trkpt>
      <trkpt lat="46.12966" lon="6.51121">
        <ele>621.2</ele>
        <time>2021-06-26T06:12:35Z</time>
      </trkpt>
      <trkpt lat="46.12967" lon="6.51129">
        <ele>621.6</ele>
        <time>2021-06-26T06:12:36Z</time>
      </trkpt>
      <trkpt lat="46.12968" lon="6.51138">
        <ele>621.8</ele>
        <time>2021-06-26T06:12:37Z</time>
      </trkpt>
      <trkpt lat="46.12969" lon="6.51146">
        <ele>621.8</ele>
        <time>2021-06-26T06:12:38Z</time>
      </trkpt>
      <trkpt lat="46.1297" lon="6.51155">
        <ele>621.8</ele>
        <time>2021-06-26T06:12:39Z</time>
      </trkpt>
      <trkpt lat="46.12976" lon="6.51198">
        <ele>622</ele>
        <time>2021-06-26T06:12:44Z</time>
      </trkpt>
      <trkpt lat="46.1298" lon="6.51234">
        <ele>621.8</ele>
        <time>2021-06-26T06:12:48Z</time>
      </trkpt>
      <trkpt lat="46.12985" lon="6.51269">
        <ele>621.8</ele>
        <time>2021-06-26T06:12:52Z</time>
      </trkpt>
      <trkpt lat="46.12986" lon="6.51278">
        <ele>621.8</ele>
        <time>2021-06-26T06:12:53Z</time>
      </trkpt>
      <trkpt lat="46.12987" lon="6.51287">
        <ele>621.8</ele>
        <time>2021-06-26T06:12:54Z</time>
      </trkpt>
      <trkpt lat="46.12988" lon="6.51295">
        <ele>621.6</ele>
        <time>2021-06-26T06:12:55Z</time>
      </trkpt>
      <trkpt lat="46.1299" lon="6.51303">
        <ele>621.6</ele>
        <time>2021-06-26T06:12:56Z</time>
      </trkpt>
      <trkpt lat="46.12991" lon="6.51311">
        <ele>621.6</ele>
        <time>2021-06-26T06:12:57Z</time>
      </trkpt>
      <trkpt lat="46.12992" lon="6.51318">
        <ele>621.4</ele>
        <time>2021-06-26T06:12:58Z</time>
      </trkpt>
      <trkpt lat="46.12993" lon="6.51326">
        <ele>621.4</ele>
        <time>2021-06-26T06:12:59Z</time>
      </trkpt>
      <trkpt lat="46.12994" lon="6.51333">
        <ele>621.6</ele>
        <time>2021-06-26T06:13:00Z</time>
      </trkpt>
      <trkpt lat="46.12995" lon="6.5134">
        <ele>621.4</ele>
        <time>2021-06-26T06:13:01Z</time>
      </trkpt>
      <trkpt lat="46.12998" lon="6.51355">
        <ele>621.6</ele>
        <time>2021-06-26T06:13:03Z</time>
      </trkpt>
      <trkpt lat="46.13" lon="6.51372">
        <ele>621.4</ele>
        <time>2021-06-26T06:13:05Z</time>
      </trkpt>
      <trkpt lat="46.13005" lon="6.51423">
        <ele>621.6</ele>
        <time>2021-06-26T06:13:11Z</time>
      </trkpt>
      <trkpt lat="46.13007" lon="6.51459">
        <ele>621.6</ele>
        <time>2021-06-26T06:13:15Z</time>
      </trkpt>
      <trkpt lat="46.13007" lon="6.51477">
        <ele>621.6</ele>
        <time>2021-06-26T06:13:17Z</time>
      </trkpt>
      <trkpt lat="46.13008" lon="6.51494">
        <ele>621.4</ele>
        <time>2021-06-26T06:13:19Z</time>
      </trkpt>
      <trkpt lat="46.13009" lon="6.51503">
        <ele>621.6</ele>
        <time>2021-06-26T06:13:20Z</time>
      </trkpt>
      <trkpt lat="46.13009" lon="6.51512">
        <ele>621.4</ele>
        <time>2021-06-26T06:13:21Z</time>
      </trkpt>
      <trkpt lat="46.13012" lon="6.51555">
        <ele>621.4</ele>
        <time>2021-06-26T06:13:26Z</time>
      </trkpt>
      <trkpt lat="46.13012" lon="6.51564">
        <ele>621.2</ele>
        <time>2021-06-26T06:13:27Z</time>
      </trkpt>
      <trkpt lat="46.13015" lon="6.51591">
        <ele>621.2</ele>
        <time>2021-06-26T06:13:30Z</time>
      </trkpt>
      <trkpt lat="46.13016" lon="6.51599">
        <ele>621.2</ele>
        <time>2021-06-26T06:13:31Z</time>
      </trkpt>
      <trkpt lat="46.13021" lon="6.51626">
        <ele>621.4</ele>
        <time>2021-06-26T06:13:34Z</time>
      </trkpt>
      <trkpt lat="46.13031" lon="6.5167">
        <ele>621.2</ele>
        <time>2021-06-26T06:13:39Z</time>
      </trkpt>
      <trkpt lat="46.13035" lon="6.51687">
        <ele>621.4</ele>
        <time>2021-06-26T06:13:41Z</time>
      </trkpt>
      <trkpt lat="46.13038" lon="6.51696">
        <ele>621.4</ele>
        <time>2021-06-26T06:13:42Z</time>
      </trkpt>
      <trkpt lat="46.13039" lon="6.51705">
        <ele>621.6</ele>
        <time>2021-06-26T06:13:43Z</time>
      </trkpt>
      <trkpt lat="46.13049" lon="6.5174">
        <ele>621.4</ele>
        <time>2021-06-26T06:13:47Z</time>
      </trkpt>
      <trkpt lat="46.13056" lon="6.51755">
        <ele>621.6</ele>
        <time>2021-06-26T06:13:49Z</time>
      </trkpt>
      <trkpt lat="46.13064" lon="6.5177">
        <ele>621.6</ele>
        <time>2021-06-26T06:13:51Z</time>
      </trkpt>
      <trkpt lat="46.13083" lon="6.51795">
        <ele>621.8</ele>
        <time>2021-06-26T06:13:55Z</time>
      </trkpt>
      <trkpt lat="46.13088" lon="6.51801">
        <ele>621.6</ele>
        <time>2021-06-26T06:13:56Z</time>
      </trkpt>
      <trkpt lat="46.1311" lon="6.5182">
        <ele>621.8</ele>
        <time>2021-06-26T06:14:00Z</time>
      </trkpt>
      <trkpt lat="46.13129" lon="6.51829">
        <ele>621.6</ele>
        <time>2021-06-26T06:14:03Z</time>
      </trkpt>
      <trkpt lat="46.13136" lon="6.51831">
        <ele>621.8</ele>
        <time>2021-06-26T06:14:04Z</time>
      </trkpt>
      <trkpt lat="46.13172" lon="6.51835">
        <ele>621.8</ele>
        <time>2021-06-26T06:14:09Z</time>
      </trkpt>
      <trkpt lat="46.13216" lon="6.51843">
        <ele>621.8</ele>
        <time>2021-06-26T06:14:15Z</time>
      </trkpt>
      <trkpt lat="46.13223" lon="6.51846">
        <ele>621.6</ele>
        <time>2021-06-26T06:14:16Z</time>
      </trkpt>
      <trkpt lat="46.13236" lon="6.51853">
        <ele>621.6</ele>
        <time>2021-06-26T06:14:18Z</time>
      </trkpt>
      <trkpt lat="46.13256" lon="6.51863">
        <ele>621.6</ele>
        <time>2021-06-26T06:14:21Z</time>
      </trkpt>
      <trkpt lat="46.13263" lon="6.51867">
        <ele>621.6</ele>
        <time>2021-06-26T06:14:22Z</time>
      </trkpt>
      <trkpt lat="46.13276" lon="6.51874">
        <ele>621.6</ele>
        <time>2021-06-26T06:14:24Z</time>
      </trkpt>
      <trkpt lat="46.13282" lon="6.51877">
        <ele>621.8</ele>
        <time>2021-06-26T06:14:25Z</time>
      </trkpt>
      <trkpt lat="46.13289" lon="6.5188">
        <ele>621.8</ele>
        <time>2021-06-26T06:14:26Z</time>
      </trkpt>
      <trkpt lat="46.13296" lon="6.51883">
        <ele>621.8</ele>
        <time>2021-06-26T06:14:27Z</time>
      </trkpt>
      <trkpt lat="46.13302" lon="6.51886">
        <ele>622</ele>
        <time>2021-06-26T06:14:28Z</time>
      </trkpt>
      <trkpt lat="46.13308" lon="6.51889">
        <ele>622</ele>
        <time>2021-06-26T06:14:29Z</time>
      </trkpt>
      <trkpt lat="46.13315" lon="6.51892">
        <ele>622</ele>
        <time>2021-06-26T06:14:30Z</time>
      </trkpt>
      <trkpt lat="46.13321" lon="6.51895">
        <ele>622.2</ele>
        <time>2021-06-26T06:14:31Z</time>
      </trkpt>
      <trkpt lat="46.13327" lon="6.51898">
        <ele>622.2</ele>
        <time>2021-06-26T06:14:32Z</time>
      </trkpt>
      <trkpt lat="46.13333" lon="6.51901">
        <ele>622.4</ele>
        <time>2021-06-26T06:14:33Z</time>
      </trkpt>
      <trkpt lat="46.13339" lon="6.51904">
        <ele>622.4</ele>
        <time>2021-06-26T06:14:34Z</time>
      </trkpt>
      <trkpt lat="46.13351" lon="6.5191">
        <ele>622.4</ele>
        <time>2021-06-26T06:14:36Z</time>
      </trkpt>
      <trkpt lat="46.13368" lon="6.51919">
        <ele>622.8</ele>
        <time>2021-06-26T06:14:39Z</time>
      </trkpt>
      <trkpt lat="46.13397" lon="6.51934">
        <ele>623.4</ele>
        <time>2021-06-26T06:14:44Z</time>
      </trkpt>
      <trkpt lat="46.13403" lon="6.51936">
        <ele>623.6</ele>
        <time>2021-06-26T06:14:45Z</time>
      </trkpt>
      <trkpt lat="46.13408" lon="6.51939">
        <ele>624</ele>
        <time>2021-06-26T06:14:46Z</time>
      </trkpt>
      <trkpt lat="46.13413" lon="6.51942">
        <ele>624</ele>
        <time>2021-06-26T06:14:47Z</time>
      </trkpt>
      <trkpt lat="46.13418" lon="6.51947">
        <ele>624.2</ele>
        <time>2021-06-26T06:14:48Z</time>
      </trkpt>
      <trkpt lat="46.13422" lon="6.51954">
        <ele>624.2</ele>
        <time>2021-06-26T06:14:49Z</time>
      </trkpt>
      <trkpt lat="46.13425" lon="6.51961">
        <ele>624.4</ele>
        <time>2021-06-26T06:14:50Z</time>
      </trkpt>
      <trkpt lat="46.13428" lon="6.51969">
        <ele>624.4</ele>
        <time>2021-06-26T06:14:51Z</time>
      </trkpt>
      <trkpt lat="46.13429" lon="6.51977">
        <ele>624.4</ele>
        <time>2021-06-26T06:14:52Z</time>
      </trkpt>
      <trkpt lat="46.1343" lon="6.51986">
        <ele>624.6</ele>
        <time>2021-06-26T06:14:53Z</time>
      </trkpt>
      <trkpt lat="46.1343" lon="6.51994">
        <ele>624.6</ele>
        <time>2021-06-26T06:14:54Z</time>
      </trkpt>
      <trkpt lat="46.13429" lon="6.52003">
        <ele>624.6</ele>
        <time>2021-06-26T06:14:55Z</time>
      </trkpt>
      <trkpt lat="46.13427" lon="6.52011">
        <ele>624.8</ele>
        <time>2021-06-26T06:14:56Z</time>
      </trkpt>
      <trkpt lat="46.13425" lon="6.5202">
        <ele>624.8</ele>
        <time>2021-06-26T06:14:57Z</time>
      </trkpt>
      <trkpt lat="46.13423" lon="6.52027">
        <ele>624.8</ele>
        <time>2021-06-26T06:14:58Z</time>
      </trkpt>
      <trkpt lat="46.1342" lon="6.52035">
        <ele>624.8</ele>
        <time>2021-06-26T06:14:59Z</time>
      </trkpt>
      <trkpt lat="46.13418" lon="6.52042">
        <ele>624.8</ele>
        <time>2021-06-26T06:15:00Z</time>
      </trkpt>
      <trkpt lat="46.13415" lon="6.52049">
        <ele>625</ele>
        <time>2021-06-26T06:15:01Z</time>
      </trkpt>
      <trkpt lat="46.13413" lon="6.52056">
        <ele>624.8</ele>
        <time>2021-06-26T06:15:02Z</time>
      </trkpt>
      <trkpt lat="46.13411" lon="6.52062">
        <ele>624.8</ele>
        <time>2021-06-26T06:15:03Z</time>
      </trkpt>
      <trkpt lat="46.13409" lon="6.52069">
        <ele>625</ele>
        <time>2021-06-26T06:15:04Z</time>
      </trkpt>
      <trkpt lat="46.13407" lon="6.52076">
        <ele>625</ele>
        <time>2021-06-26T06:15:05Z</time>
      </trkpt>
      <trkpt lat="46.13406" lon="6.52083">
        <ele>625.4</ele>
        <time>2021-06-26T06:15:06Z</time>
      </trkpt>
      <trkpt lat="46.13404" lon="6.52089">
        <ele>625.8</ele>
        <time>2021-06-26T06:15:07Z</time>
      </trkpt>
      <trkpt lat="46.13403" lon="6.52095">
        <ele>626</ele>
        <time>2021-06-26T06:15:08Z</time>
      </trkpt>
      <trkpt lat="46.13401" lon="6.52102">
        <ele>626.2</ele>
        <time>2021-06-26T06:15:09Z</time>
      </trkpt>
      <trkpt lat="46.134" lon="6.52108">
        <ele>626.4</ele>
        <time>2021-06-26T06:15:10Z</time>
      </trkpt>
      <trkpt lat="46.13399" lon="6.52114">
        <ele>626.8</ele>
        <time>2021-06-26T06:15:11Z</time>
      </trkpt>
      <trkpt lat="46.13398" lon="6.52121">
        <ele>627</ele>
        <time>2021-06-26T06:15:12Z</time>
      </trkpt>
      <trkpt lat="46.13397" lon="6.52127">
        <ele>627.4</ele>
        <time>2021-06-26T06:15:13Z</time>
      </trkpt>
      <trkpt lat="46.13396" lon="6.52133">
        <ele>627.6</ele>
        <time>2021-06-26T06:15:14Z</time>
      </trkpt>
      <trkpt lat="46.13395" lon="6.5214">
        <ele>628</ele>
        <time>2021-06-26T06:15:15Z</time>
      </trkpt>
      <trkpt lat="46.13393" lon="6.52146">
        <ele>628.4</ele>
        <time>2021-06-26T06:15:16Z</time>
      </trkpt>
      <trkpt lat="46.13392" lon="6.52152">
        <ele>628.8</ele>
        <time>2021-06-26T06:15:17Z</time>
      </trkpt>
      <trkpt lat="46.13391" lon="6.52159">
        <ele>629.2</ele>
        <time>2021-06-26T06:15:18Z</time>
      </trkpt>
      <trkpt lat="46.1339" lon="6.52166">
        <ele>629.2</ele>
        <time>2021-06-26T06:15:19Z</time>
      </trkpt>
      <trkpt lat="46.13389" lon="6.52172">
        <ele>629.2</ele>
        <time>2021-06-26T06:15:20Z</time>
      </trkpt>
      <trkpt lat="46.13387" lon="6.52178">
        <ele>629.4</ele>
        <time>2021-06-26T06:15:21Z</time>
      </trkpt>
      <trkpt lat="46.13384" lon="6.52184">
        <ele>629.8</ele>
        <time>2021-06-26T06:15:22Z</time>
      </trkpt>
      <trkpt lat="46.13382" lon="6.5219">
        <ele>630.2</ele>
        <time>2021-06-26T06:15:23Z</time>
      </trkpt>
      <trkpt lat="46.13381" lon="6.52196">
        <ele>630.4</ele>
        <time>2021-06-26T06:15:24Z</time>
      </trkpt>
      <trkpt lat="46.1338" lon="6.52202">
        <ele>630.8</ele>
        <time>2021-06-26T06:15:25Z</time>
      </trkpt>
      <trkpt lat="46.13379" lon="6.52209">
        <ele>631</ele>
        <time>2021-06-26T06:15:26Z</time>
      </trkpt>
      <trkpt lat="46.13378" lon="6.52215">
        <ele>631</ele>
        <time>2021-06-26T06:15:27Z</time>
      </trkpt>
      <trkpt lat="46.13377" lon="6.52222">
        <ele>631.2</ele>
        <time>2021-06-26T06:15:28Z</time>
      </trkpt>
      <trkpt lat="46.13376" lon="6.52229">
        <ele>631.4</ele>
        <time>2021-06-26T06:15:29Z</time>
      </trkpt>
      <trkpt lat="46.13375" lon="6.52235">
        <ele>631.6</ele>
        <time>2021-06-26T06:15:30Z</time>
      </trkpt>
      <trkpt lat="46.13374" lon="6.52242">
        <ele>631.8</ele>
        <time>2021-06-26T06:15:31Z</time>
      </trkpt>
      <trkpt lat="46.13374" lon="6.52248">
        <ele>632.2</ele>
        <time>2021-06-26T06:15:32Z</time>
      </trkpt>
      <trkpt lat="46.13375" lon="6.52254">
        <ele>632.4</ele>
        <time>2021-06-26T06:15:33Z</time>
      </trkpt>
      <trkpt lat="46.13373" lon="6.5226">
        <ele>632.6</ele>
        <time>2021-06-26T06:15:34Z</time>
      </trkpt>
      <trkpt lat="46.13372" lon="6.52266">
        <ele>632.6</ele>
        <time>2021-06-26T06:15:35Z</time>
      </trkpt>
      <trkpt lat="46.13371" lon="6.52273">
        <ele>632.8</ele>
        <time>2021-06-26T06:15:36Z</time>
      </trkpt>
      <trkpt lat="46.1337" lon="6.5228">
        <ele>633</ele>
        <time>2021-06-26T06:15:37Z</time>
      </trkpt>
      <trkpt lat="46.13369" lon="6.52287">
        <ele>633.2</ele>
        <time>2021-06-26T06:15:38Z</time>
      </trkpt>
      <trkpt lat="46.13368" lon="6.52294">
        <ele>633.4</ele>
        <time>2021-06-26T06:15:39Z</time>
      </trkpt>
      <trkpt lat="46.13368" lon="6.523">
        <ele>633.6</ele>
        <time>2021-06-26T06:15:40Z</time>
      </trkpt>
      <trkpt lat="46.13368" lon="6.52307">
        <ele>633.6</ele>
        <time>2021-06-26T06:15:41Z</time>
      </trkpt>
      <trkpt lat="46.13368" lon="6.52314">
        <ele>633.6</ele>
        <time>2021-06-26T06:15:42Z</time>
      </trkpt>
      <trkpt lat="46.13367" lon="6.52321">
        <ele>633.6</ele>
        <time>2021-06-26T06:15:43Z</time>
      </trkpt>
      <trkpt lat="46.13367" lon="6.52328">
        <ele>633.8</ele>
        <time>2021-06-26T06:15:44Z</time>
      </trkpt>
      <trkpt lat="46.13366" lon="6.52336">
        <ele>634</ele>
        <time>2021-06-26T06:15:45Z</time>
      </trkpt>
      <trkpt lat="46.13365" lon="6.52343">
        <ele>634.4</ele>
        <time>2021-06-26T06:15:46Z</time>
      </trkpt>
      <trkpt lat="46.13364" lon="6.52351">
        <ele>634.8</ele>
        <time>2021-06-26T06:15:47Z</time>
      </trkpt>
      <trkpt lat="46.13362" lon="6.52358">
        <ele>635</ele>
        <time>2021-06-26T06:15:48Z</time>
      </trkpt>
      <trkpt lat="46.1336" lon="6.52365">
        <ele>635</ele>
        <time>2021-06-26T06:15:49Z</time>
      </trkpt>
      <trkpt lat="46.13358" lon="6.52373">
        <ele>635</ele>
        <time>2021-06-26T06:15:50Z</time>
      </trkpt>
      <trkpt lat="46.13355" lon="6.52381">
        <ele>635.2</ele>
        <time>2021-06-26T06:15:51Z</time>
      </trkpt>
      <trkpt lat="46.13353" lon="6.52388">
        <ele>635.2</ele>
        <time>2021-06-26T06:15:52Z</time>
      </trkpt>
      <trkpt lat="46.13351" lon="6.52396">
        <ele>635.2</ele>
        <time>2021-06-26T06:15:53Z</time>
      </trkpt>
      <trkpt lat="46.1335" lon="6.52405">
        <ele>635.2</ele>
        <time>2021-06-26T06:15:54Z</time>
      </trkpt>
      <trkpt lat="46.13348" lon="6.52413">
        <ele>635.2</ele>
        <time>2021-06-26T06:15:55Z</time>
      </trkpt>
      <trkpt lat="46.13346" lon="6.52421">
        <ele>635.4</ele>
        <time>2021-06-26T06:15:56Z</time>
      </trkpt>
      <trkpt lat="46.13343" lon="6.52436">
        <ele>635.2</ele>
        <time>2021-06-26T06:15:58Z</time>
      </trkpt>
      <trkpt lat="46.13342" lon="6.52444">
        <ele>635</ele>
        <time>2021-06-26T06:15:59Z</time>
      </trkpt>
      <trkpt lat="46.13339" lon="6.52461">
        <ele>635</ele>
        <time>2021-06-26T06:16:01Z</time>
      </trkpt>
      <trkpt lat="46.13324" lon="6.52529">
        <ele>634.8</ele>
        <time>2021-06-26T06:16:09Z</time>
      </trkpt>
      <trkpt lat="46.13321" lon="6.52538">
        <ele>634.8</ele>
        <time>2021-06-26T06:16:10Z</time>
      </trkpt>
      <trkpt lat="46.13319" lon="6.52547">
        <ele>634.4</ele>
        <time>2021-06-26T06:16:11Z</time>
      </trkpt>
      <trkpt lat="46.13306" lon="6.5259">
        <ele>634</ele>
        <time>2021-06-26T06:16:16Z</time>
      </trkpt>
      <trkpt lat="46.13304" lon="6.52599">
        <ele>634</ele>
        <time>2021-06-26T06:16:17Z</time>
      </trkpt>
      <trkpt lat="46.13299" lon="6.52616">
        <ele>633.8</ele>
        <time>2021-06-26T06:16:19Z</time>
      </trkpt>
      <trkpt lat="46.13296" lon="6.52624">
        <ele>633.8</ele>
        <time>2021-06-26T06:16:20Z</time>
      </trkpt>
      <trkpt lat="46.13287" lon="6.52649">
        <ele>633.6</ele>
        <time>2021-06-26T06:16:23Z</time>
      </trkpt>
      <trkpt lat="46.13284" lon="6.52657">
        <ele>633.6</ele>
        <time>2021-06-26T06:16:24Z</time>
      </trkpt>
      <trkpt lat="46.13281" lon="6.52665">
        <ele>633.6</ele>
        <time>2021-06-26T06:16:25Z</time>
      </trkpt>
      <trkpt lat="46.13277" lon="6.52671">
        <ele>633.4</ele>
        <time>2021-06-26T06:16:26Z</time>
      </trkpt>
      <trkpt lat="46.13273" lon="6.52677">
        <ele>633.4</ele>
        <time>2021-06-26T06:16:27Z</time>
      </trkpt>
      <trkpt lat="46.13269" lon="6.5268">
        <ele>633.6</ele>
        <time>2021-06-26T06:16:28Z</time>
      </trkpt>
      <trkpt lat="46.13265" lon="6.52684">
        <ele>633.2</ele>
        <time>2021-06-26T06:16:29Z</time>
      </trkpt>
      <trkpt lat="46.13261" lon="6.52688">
        <ele>633.4</ele>
        <time>2021-06-26T06:16:30Z</time>
      </trkpt>
      <trkpt lat="46.13259" lon="6.52694">
        <ele>633.2</ele>
        <time>2021-06-26T06:16:31Z</time>
      </trkpt>
      <trkpt lat="46.13258" lon="6.527">
        <ele>633</ele>
        <time>2021-06-26T06:16:32Z</time>
      </trkpt>
      <trkpt lat="46.13259" lon="6.52707">
        <ele>633.2</ele>
        <time>2021-06-26T06:16:33Z</time>
      </trkpt>
      <trkpt lat="46.13266" lon="6.52717">
        <ele>633</ele>
        <time>2021-06-26T06:16:35Z</time>
      </trkpt>
      <trkpt lat="46.1327" lon="6.52718">
        <ele>632.8</ele>
        <time>2021-06-26T06:16:36Z</time>
      </trkpt>
      <trkpt lat="46.13275" lon="6.52718">
        <ele>632.8</ele>
        <time>2021-06-26T06:16:37Z</time>
      </trkpt>
      <trkpt lat="46.13279" lon="6.52717">
        <ele>632.8</ele>
        <time>2021-06-26T06:16:38Z</time>
      </trkpt>
      <trkpt lat="46.13283" lon="6.52716">
        <ele>633</ele>
        <time>2021-06-26T06:16:39Z</time>
      </trkpt>
      <trkpt lat="46.13292" lon="6.52718">
        <ele>632.8</ele>
        <time>2021-06-26T06:16:41Z</time>
      </trkpt>
      <trkpt lat="46.13296" lon="6.5272">
        <ele>633</ele>
        <time>2021-06-26T06:16:42Z</time>
      </trkpt>
      <trkpt lat="46.133" lon="6.52721">
        <ele>632.8</ele>
        <time>2021-06-26T06:16:43Z</time>
      </trkpt>
      <trkpt lat="46.13303" lon="6.52723">
        <ele>633</ele>
        <time>2021-06-26T06:16:44Z</time>
      </trkpt>
      <trkpt lat="46.13306" lon="6.52725">
        <ele>633</ele>
        <time>2021-06-26T06:16:45Z</time>
      </trkpt>
      <trkpt lat="46.13307" lon="6.52726">
        <ele>633</ele>
        <time>2021-06-26T06:16:46Z</time>
      </trkpt>
      <trkpt lat="46.13308" lon="6.52726">
        <ele>633.2</ele>
        <time>2021-06-26T06:16:47Z</time>
      </trkpt>
      <trkpt lat="46.13308" lon="6.52726">
        <ele>633.2</ele>
        <time>2021-06-26T06:16:48Z</time>
      </trkpt>
      <trkpt lat="46.13308" lon="6.52725">
        <ele>635.2</ele>
        <time>2021-06-26T06:17:00Z</time>
      </trkpt>
      <trkpt lat="46.1331" lon="6.52727">
        <ele>635.4</ele>
        <time>2021-06-26T06:17:05Z</time>
      </trkpt>
      <trkpt lat="46.1331" lon="6.52727">
        <ele>635.4</ele>
        <time>2021-06-26T06:17:10Z</time>
      </trkpt>
      <trkpt lat="46.1331" lon="6.52724">
        <ele>635.4</ele>
        <time>2021-06-26T06:17:29Z</time>
      </trkpt>
      <trkpt lat="46.13309" lon="6.52722">
        <ele>635.2</ele>
        <time>2021-06-26T06:17:43Z</time>
      </trkpt>
      <trkpt lat="46.13309" lon="6.52721">
        <ele>635.4</ele>
        <time>2021-06-26T06:18:03Z</time>
      </trkpt>
      <trkpt lat="46.1331" lon="6.52724">
        <ele>635.4</ele>
        <time>2021-06-26T06:18:21Z</time>
      </trkpt>
      <trkpt lat="46.13307" lon="6.52712">
        <ele>635.4</ele>
        <time>2021-06-26T06:18:28Z</time>
      </trkpt>
      <trkpt lat="46.13307" lon="6.52712">
        <ele>635.2</ele>
        <time>2021-06-26T06:18:29Z</time>
      </trkpt>
      <trkpt lat="46.13307" lon="6.52713">
        <ele>635.4</ele>
        <time>2021-06-26T06:18:31Z</time>
      </trkpt>
      <trkpt lat="46.13309" lon="6.52714">
        <ele>635.4</ele>
        <time>2021-06-26T06:18:43Z</time>
      </trkpt>
      <trkpt lat="46.13319" lon="6.52711">
        <ele>635.4</ele>
        <time>2021-06-26T06:18:50Z</time>
      </trkpt>
      <trkpt lat="46.13321" lon="6.5271">
        <ele>635.4</ele>
        <time>2021-06-26T06:18:51Z</time>
      </trkpt>
      <trkpt lat="46.13324" lon="6.52708">
        <ele>635.2</ele>
        <time>2021-06-26T06:18:52Z</time>
      </trkpt>
      <trkpt lat="46.13335" lon="6.52697">
        <ele>635.6</ele>
        <time>2021-06-26T06:18:57Z</time>
      </trkpt>
      <trkpt lat="46.13342" lon="6.52689">
        <ele>635.6</ele>
        <time>2021-06-26T06:19:00Z</time>
      </trkpt>
      <trkpt lat="46.13347" lon="6.52684">
        <ele>635.8</ele>
        <time>2021-06-26T06:19:02Z</time>
      </trkpt>
      <trkpt lat="46.1335" lon="6.52681">
        <ele>636</ele>
        <time>2021-06-26T06:19:03Z</time>
      </trkpt>
      <trkpt lat="46.13352" lon="6.52678">
        <ele>636</ele>
        <time>2021-06-26T06:19:04Z</time>
      </trkpt>
      <trkpt lat="46.13354" lon="6.52675">
        <ele>636.4</ele>
        <time>2021-06-26T06:19:05Z</time>
      </trkpt>
      <trkpt lat="46.13356" lon="6.52672">
        <ele>636.4</ele>
        <time>2021-06-26T06:19:06Z</time>
      </trkpt>
      <trkpt lat="46.13358" lon="6.52669">
        <ele>636.6</ele>
        <time>2021-06-26T06:19:07Z</time>
      </trkpt>
      <trkpt lat="46.1336" lon="6.52666">
        <ele>636.8</ele>
        <time>2021-06-26T06:19:08Z</time>
      </trkpt>
      <trkpt lat="46.13362" lon="6.52662">
        <ele>637.2</ele>
        <time>2021-06-26T06:19:09Z</time>
      </trkpt>
      <trkpt lat="46.13364" lon="6.52659">
        <ele>637.8</ele>
        <time>2021-06-26T06:19:10Z</time>
      </trkpt>
      <trkpt lat="46.13366" lon="6.52656">
        <ele>638</ele>
        <time>2021-06-26T06:19:11Z</time>
      </trkpt>
      <trkpt lat="46.13368" lon="6.52652">
        <ele>638.2</ele>
        <time>2021-06-26T06:19:12Z</time>
      </trkpt>
      <trkpt lat="46.1337" lon="6.52649">
        <ele>638.4</ele>
        <time>2021-06-26T06:19:13Z</time>
      </trkpt>
      <trkpt lat="46.13372" lon="6.52645">
        <ele>638.8</ele>
        <time>2021-06-26T06:19:14Z</time>
      </trkpt>
      <trkpt lat="46.13374" lon="6.52642">
        <ele>639.2</ele>
        <time>2021-06-26T06:19:15Z</time>
      </trkpt>
      <trkpt lat="46.13375" lon="6.52638">
        <ele>639.4</ele>
        <time>2021-06-26T06:19:16Z</time>
      </trkpt>
      <trkpt lat="46.13377" lon="6.52635">
        <ele>639.6</ele>
        <time>2021-06-26T06:19:17Z</time>
      </trkpt>
      <trkpt lat="46.13379" lon="6.52632">
        <ele>640</ele>
        <time>2021-06-26T06:19:18Z</time>
      </trkpt>
      <trkpt lat="46.13381" lon="6.52628">
        <ele>640.2</ele>
        <time>2021-06-26T06:19:19Z</time>
      </trkpt>
      <trkpt lat="46.13382" lon="6.52625">
        <ele>640.6</ele>
        <time>2021-06-26T06:19:20Z</time>
      </trkpt>
      <trkpt lat="46.13384" lon="6.52622">
        <ele>641</ele>
        <time>2021-06-26T06:19:21Z</time>
      </trkpt>
      <trkpt lat="46.13386" lon="6.52618">
        <ele>641</ele>
        <time>2021-06-26T06:19:22Z</time>
      </trkpt>
      <trkpt lat="46.13387" lon="6.52615">
        <ele>641</ele>
        <time>2021-06-26T06:19:23Z</time>
      </trkpt>
      <trkpt lat="46.13389" lon="6.52612">
        <ele>641.4</ele>
        <time>2021-06-26T06:19:24Z</time>
      </trkpt>
      <trkpt lat="46.1339" lon="6.52608">
        <ele>641.6</ele>
        <time>2021-06-26T06:19:25Z</time>
      </trkpt>
      <trkpt lat="46.13392" lon="6.52605">
        <ele>641.8</ele>
        <time>2021-06-26T06:19:26Z</time>
      </trkpt>
      <trkpt lat="46.13393" lon="6.52602">
        <ele>642</ele>
        <time>2021-06-26T06:19:27Z</time>
      </trkpt>
      <trkpt lat="46.13395" lon="6.52599">
        <ele>642.2</ele>
        <time>2021-06-26T06:19:28Z</time>
      </trkpt>
      <trkpt lat="46.13396" lon="6.52595">
        <ele>642.4</ele>
        <time>2021-06-26T06:19:29Z</time>
      </trkpt>
      <trkpt lat="46.13398" lon="6.52592">
        <ele>642.8</ele>
        <time>2021-06-26T06:19:30Z</time>
      </trkpt>
      <trkpt lat="46.13399" lon="6.52589">
        <ele>643.2</ele>
        <time>2021-06-26T06:19:31Z</time>
      </trkpt>
      <trkpt lat="46.13401" lon="6.52586">
        <ele>643.6</ele>
        <time>2021-06-26T06:19:32Z</time>
      </trkpt>
      <trkpt lat="46.13402" lon="6.52582">
        <ele>643.8</ele>
        <time>2021-06-26T06:19:33Z</time>
      </trkpt>
      <trkpt lat="46.13404" lon="6.52579">
        <ele>644</ele>
        <time>2021-06-26T06:19:34Z</time>
      </trkpt>
      <trkpt lat="46.13405" lon="6.52576">
        <ele>644.4</ele>
        <time>2021-06-26T06:19:35Z</time>
      </trkpt>
      <trkpt lat="46.13407" lon="6.52572">
        <ele>644.8</ele>
        <time>2021-06-26T06:19:36Z</time>
      </trkpt>
      <trkpt lat="46.13408" lon="6.52569">
        <ele>644.8</ele>
        <time>2021-06-26T06:19:37Z</time>
      </trkpt>
      <trkpt lat="46.1341" lon="6.52566">
        <ele>645</ele>
        <time>2021-06-26T06:19:38Z</time>
      </trkpt>
      <trkpt lat="46.13411" lon="6.52562">
        <ele>645.2</ele>
        <time>2021-06-26T06:19:39Z</time>
      </trkpt>
      <trkpt lat="46.13412" lon="6.52559">
        <ele>645.6</ele>
        <time>2021-06-26T06:19:40Z</time>
      </trkpt>
      <trkpt lat="46.13413" lon="6.52556">
        <ele>646</ele>
        <time>2021-06-26T06:19:41Z</time>
      </trkpt>
      <trkpt lat="46.13415" lon="6.52553">
        <ele>646.4</ele>
        <time>2021-06-26T06:19:42Z</time>
      </trkpt>
      <trkpt lat="46.13416" lon="6.52549">
        <ele>646.4</ele>
        <time>2021-06-26T06:19:43Z</time>
      </trkpt>
      <trkpt lat="46.13418" lon="6.52546">
        <ele>646.8</ele>
        <time>2021-06-26T06:19:44Z</time>
      </trkpt>
      <trkpt lat="46.1342" lon="6.52543">
        <ele>646.8</ele>
        <time>2021-06-26T06:19:45Z</time>
      </trkpt>
      <trkpt lat="46.13421" lon="6.5254">
        <ele>647.2</ele>
        <time>2021-06-26T06:19:46Z</time>
      </trkpt>
      <trkpt lat="46.13423" lon="6.52536">
        <ele>647.4</ele>
        <time>2021-06-26T06:19:47Z</time>
      </trkpt>
      <trkpt lat="46.13425" lon="6.52533">
        <ele>647.8</ele>
        <time>2021-06-26T06:19:48Z</time>
      </trkpt>
      <trkpt lat="46.13427" lon="6.5253">
        <ele>648</ele>
        <time>2021-06-26T06:19:49Z</time>
      </trkpt>
      <trkpt lat="46.13428" lon="6.52527">
        <ele>648.2</ele>
        <time>2021-06-26T06:19:50Z</time>
      </trkpt>
      <trkpt lat="46.1343" lon="6.52524">
        <ele>648.8</ele>
        <time>2021-06-26T06:19:51Z</time>
      </trkpt>
      <trkpt lat="46.13432" lon="6.52522">
        <ele>649.2</ele>
        <time>2021-06-26T06:19:52Z</time>
      </trkpt>
      <trkpt lat="46.13434" lon="6.52519">
        <ele>649.2</ele>
        <time>2021-06-26T06:19:53Z</time>
      </trkpt>
      <trkpt lat="46.13436" lon="6.52517">
        <ele>649.6</ele>
        <time>2021-06-26T06:19:54Z</time>
      </trkpt>
      <trkpt lat="46.13438" lon="6.52515">
        <ele>649.8</ele>
        <time>2021-06-26T06:19:55Z</time>
      </trkpt>
      <trkpt lat="46.1344" lon="6.52513">
        <ele>650</ele>
        <time>2021-06-26T06:19:56Z</time>
      </trkpt>
      <trkpt lat="46.13442" lon="6.52511">
        <ele>650.4</ele>
        <time>2021-06-26T06:19:57Z</time>
      </trkpt>
      <trkpt lat="46.13444" lon="6.52509">
        <ele>650.6</ele>
        <time>2021-06-26T06:19:58Z</time>
      </trkpt>
      <trkpt lat="46.13446" lon="6.52508">
        <ele>650.8</ele>
        <time>2021-06-26T06:19:59Z</time>
      </trkpt>
      <trkpt lat="46.13449" lon="6.52507">
        <ele>651</ele>
        <time>2021-06-26T06:20:00Z</time>
      </trkpt>
      <trkpt lat="46.13451" lon="6.52506">
        <ele>651.2</ele>
        <time>2021-06-26T06:20:01Z</time>
      </trkpt>
      <trkpt lat="46.13453" lon="6.52505">
        <ele>651.4</ele>
        <time>2021-06-26T06:20:02Z</time>
      </trkpt>
      <trkpt lat="46.13455" lon="6.52504">
        <ele>651.8</ele>
        <time>2021-06-26T06:20:03Z</time>
      </trkpt>
      <trkpt lat="46.13458" lon="6.52503">
        <ele>652</ele>
        <time>2021-06-26T06:20:04Z</time>
      </trkpt>
      <trkpt lat="46.1346" lon="6.52502">
        <ele>652.2</ele>
        <time>2021-06-26T06:20:05Z</time>
      </trkpt>
      <trkpt lat="46.13463" lon="6.52501">
        <ele>652.6</ele>
        <time>2021-06-26T06:20:06Z</time>
      </trkpt>
      <trkpt lat="46.13465" lon="6.525">
        <ele>652.8</ele>
        <time>2021-06-26T06:20:07Z</time>
      </trkpt>
      <trkpt lat="46.13468" lon="6.525">
        <ele>652.8</ele>
        <time>2021-06-26T06:20:08Z</time>
      </trkpt>
      <trkpt lat="46.1347" lon="6.52499">
        <ele>653</ele>
        <time>2021-06-26T06:20:09Z</time>
      </trkpt>
      <trkpt lat="46.13472" lon="6.52498">
        <ele>653.4</ele>
        <time>2021-06-26T06:20:10Z</time>
      </trkpt>
      <trkpt lat="46.13475" lon="6.52497">
        <ele>653.4</ele>
        <time>2021-06-26T06:20:11Z</time>
      </trkpt>
      <trkpt lat="46.13477" lon="6.52496">
        <ele>653.8</ele>
        <time>2021-06-26T06:20:12Z</time>
      </trkpt>
      <trkpt lat="46.1348" lon="6.52495">
        <ele>654</ele>
        <time>2021-06-26T06:20:13Z</time>
      </trkpt>
      <trkpt lat="46.13482" lon="6.52493">
        <ele>654.2</ele>
        <time>2021-06-26T06:20:14Z</time>
      </trkpt>
      <trkpt lat="46.13484" lon="6.52492">
        <ele>654.6</ele>
        <time>2021-06-26T06:20:15Z</time>
      </trkpt>
      <trkpt lat="46.13486" lon="6.5249">
        <ele>655</ele>
        <time>2021-06-26T06:20:16Z</time>
      </trkpt>
      <trkpt lat="46.13488" lon="6.52488">
        <ele>655.2</ele>
        <time>2021-06-26T06:20:17Z</time>
      </trkpt>
      <trkpt lat="46.1349" lon="6.52486">
        <ele>655.6</ele>
        <time>2021-06-26T06:20:18Z</time>
      </trkpt>
      <trkpt lat="46.13492" lon="6.52483">
        <ele>655.8</ele>
        <time>2021-06-26T06:20:19Z</time>
      </trkpt>
      <trkpt lat="46.13494" lon="6.5248">
        <ele>656</ele>
        <time>2021-06-26T06:20:20Z</time>
      </trkpt>
      <trkpt lat="46.13496" lon="6.52477">
        <ele>656.2</ele>
        <time>2021-06-26T06:20:21Z</time>
      </trkpt>
      <trkpt lat="46.13498" lon="6.52474">
        <ele>656.6</ele>
        <time>2021-06-26T06:20:22Z</time>
      </trkpt>
      <trkpt lat="46.13499" lon="6.5247">
        <ele>656.8</ele>
        <time>2021-06-26T06:20:23Z</time>
      </trkpt>
      <trkpt lat="46.13501" lon="6.52467">
        <ele>657.2</ele>
        <time>2021-06-26T06:20:24Z</time>
      </trkpt>
      <trkpt lat="46.13503" lon="6.52464">
        <ele>657.6</ele>
        <time>2021-06-26T06:20:25Z</time>
      </trkpt>
      <trkpt lat="46.13504" lon="6.5246">
        <ele>657.8</ele>
        <time>2021-06-26T06:20:26Z</time>
      </trkpt>
      <trkpt lat="46.13505" lon="6.52457">
        <ele>658.2</ele>
        <time>2021-06-26T06:20:27Z</time>
      </trkpt>
      <trkpt lat="46.13506" lon="6.52454">
        <ele>658.4</ele>
        <time>2021-06-26T06:20:28Z</time>
      </trkpt>
      <trkpt lat="46.13508" lon="6.5245">
        <ele>658.6</ele>
        <time>2021-06-26T06:20:29Z</time>
      </trkpt>
      <trkpt lat="46.13509" lon="6.52447">
        <ele>658.6</ele>
        <time>2021-06-26T06:20:30Z</time>
      </trkpt>
      <trkpt lat="46.1351" lon="6.52443">
        <ele>658.8</ele>
        <time>2021-06-26T06:20:31Z</time>
      </trkpt>
      <trkpt lat="46.13511" lon="6.5244">
        <ele>659</ele>
        <time>2021-06-26T06:20:32Z</time>
      </trkpt>
      <trkpt lat="46.13512" lon="6.52436">
        <ele>659.2</ele>
        <time>2021-06-26T06:20:33Z</time>
      </trkpt>
      <trkpt lat="46.13513" lon="6.52433">
        <ele>659.6</ele>
        <time>2021-06-26T06:20:34Z</time>
      </trkpt>
      <trkpt lat="46.13514" lon="6.52429">
        <ele>660</ele>
        <time>2021-06-26T06:20:35Z</time>
      </trkpt>
      <trkpt lat="46.13516" lon="6.52426">
        <ele>660</ele>
        <time>2021-06-26T06:20:36Z</time>
      </trkpt>
      <trkpt lat="46.13517" lon="6.52422">
        <ele>660.2</ele>
        <time>2021-06-26T06:20:37Z</time>
      </trkpt>
      <trkpt lat="46.13518" lon="6.52419">
        <ele>660.6</ele>
        <time>2021-06-26T06:20:38Z</time>
      </trkpt>
      <trkpt lat="46.13519" lon="6.52415">
        <ele>660.8</ele>
        <time>2021-06-26T06:20:39Z</time>
      </trkpt>
      <trkpt lat="46.1352" lon="6.52412">
        <ele>661.2</ele>
        <time>2021-06-26T06:20:40Z</time>
      </trkpt>
      <trkpt lat="46.13521" lon="6.52408">
        <ele>661.4</ele>
        <time>2021-06-26T06:20:41Z</time>
      </trkpt>
      <trkpt lat="46.13522" lon="6.52405">
        <ele>661.8</ele>
        <time>2021-06-26T06:20:42Z</time>
      </trkpt>
      <trkpt lat="46.13523" lon="6.52401">
        <ele>661.8</ele>
        <time>2021-06-26T06:20:43Z</time>
      </trkpt>
      <trkpt lat="46.13524" lon="6.52397">
        <ele>662.2</ele>
        <time>2021-06-26T06:20:44Z</time>
      </trkpt>
      <trkpt lat="46.13525" lon="6.52393">
        <ele>662.4</ele>
        <time>2021-06-26T06:20:45Z</time>
      </trkpt>
      <trkpt lat="46.13526" lon="6.52389">
        <ele>662.6</ele>
        <time>2021-06-26T06:20:46Z</time>
      </trkpt>
      <trkpt lat="46.13527" lon="6.52385">
        <ele>662.8</ele>
        <time>2021-06-26T06:20:47Z</time>
      </trkpt>
      <trkpt lat="46.13527" lon="6.52382">
        <ele>663</ele>
        <time>2021-06-26T06:20:48Z</time>
      </trkpt>
      <trkpt lat="46.13528" lon="6.52378">
        <ele>663.4</ele>
        <time>2021-06-26T06:20:49Z</time>
      </trkpt>
      <trkpt lat="46.13529" lon="6.52374">
        <ele>663.6</ele>
        <time>2021-06-26T06:20:50Z</time>
      </trkpt>
      <trkpt lat="46.1353" lon="6.5237">
        <ele>664</ele>
        <time>2021-06-26T06:20:51Z</time>
      </trkpt>
      <trkpt lat="46.13531" lon="6.52366">
        <ele>664.2</ele>
        <time>2021-06-26T06:20:52Z</time>
      </trkpt>
      <trkpt lat="46.13532" lon="6.52361">
        <ele>664.2</ele>
        <time>2021-06-26T06:20:53Z</time>
      </trkpt>
      <trkpt lat="46.13534" lon="6.52357">
        <ele>664.2</ele>
        <time>2021-06-26T06:20:54Z</time>
      </trkpt>
      <trkpt lat="46.13536" lon="6.52352">
        <ele>664.6</ele>
        <time>2021-06-26T06:20:55Z</time>
      </trkpt>
      <trkpt lat="46.13538" lon="6.52348">
        <ele>664.6</ele>
        <time>2021-06-26T06:20:56Z</time>
      </trkpt>
      <trkpt lat="46.1354" lon="6.52344">
        <ele>664.8</ele>
        <time>2021-06-26T06:20:57Z</time>
      </trkpt>
      <trkpt lat="46.13542" lon="6.5234">
        <ele>665</ele>
        <time>2021-06-26T06:20:58Z</time>
      </trkpt>
      <trkpt lat="46.13545" lon="6.52336">
        <ele>665.2</ele>
        <time>2021-06-26T06:20:59Z</time>
      </trkpt>
      <trkpt lat="46.13548" lon="6.52333">
        <ele>665.4</ele>
        <time>2021-06-26T06:21:00Z</time>
      </trkpt>
      <trkpt lat="46.1355" lon="6.52331">
        <ele>665.2</ele>
        <time>2021-06-26T06:21:01Z</time>
      </trkpt>
      <trkpt lat="46.13553" lon="6.52328">
        <ele>665.4</ele>
        <time>2021-06-26T06:21:02Z</time>
      </trkpt>
      <trkpt lat="46.13556" lon="6.52325">
        <ele>665.4</ele>
        <time>2021-06-26T06:21:03Z</time>
      </trkpt>
      <trkpt lat="46.13558" lon="6.52323">
        <ele>665.4</ele>
        <time>2021-06-26T06:21:04Z</time>
      </trkpt>
      <trkpt lat="46.13561" lon="6.5232">
        <ele>665.4</ele>
        <time>2021-06-26T06:21:05Z</time>
      </trkpt>
      <trkpt lat="46.13563" lon="6.52317">
        <ele>665.6</ele>
        <time>2021-06-26T06:21:06Z</time>
      </trkpt>
      <trkpt lat="46.13566" lon="6.52315">
        <ele>665.6</ele>
        <time>2021-06-26T06:21:07Z</time>
      </trkpt>
      <trkpt lat="46.13568" lon="6.52313">
        <ele>666</ele>
        <time>2021-06-26T06:21:08Z</time>
      </trkpt>
      <trkpt lat="46.1357" lon="6.52311">
        <ele>666</ele>
        <time>2021-06-26T06:21:09Z</time>
      </trkpt>
      <trkpt lat="46.13573" lon="6.5231">
        <ele>666.4</ele>
        <time>2021-06-26T06:21:10Z</time>
      </trkpt>
      <trkpt lat="46.13575" lon="6.52308">
        <ele>666.4</ele>
        <time>2021-06-26T06:21:11Z</time>
      </trkpt>
      <trkpt lat="46.13578" lon="6.52306">
        <ele>666.8</ele>
        <time>2021-06-26T06:21:12Z</time>
      </trkpt>
      <trkpt lat="46.13581" lon="6.52305">
        <ele>667.2</ele>
        <time>2021-06-26T06:21:13Z</time>
      </trkpt>
      <trkpt lat="46.13583" lon="6.52303">
        <ele>667.4</ele>
        <time>2021-06-26T06:21:14Z</time>
      </trkpt>
      <trkpt lat="46.13586" lon="6.52301">
        <ele>667.6</ele>
        <time>2021-06-26T06:21:15Z</time>
      </trkpt>
      <trkpt lat="46.13588" lon="6.52299">
        <ele>667.6</ele>
        <time>2021-06-26T06:21:16Z</time>
      </trkpt>
      <trkpt lat="46.13591" lon="6.52297">
        <ele>668</ele>
        <time>2021-06-26T06:21:17Z</time>
      </trkpt>
      <trkpt lat="46.13594" lon="6.52296">
        <ele>668.2</ele>
        <time>2021-06-26T06:21:18Z</time>
      </trkpt>
      <trkpt lat="46.13596" lon="6.52294">
        <ele>668.4</ele>
        <time>2021-06-26T06:21:19Z</time>
      </trkpt>
      <trkpt lat="46.13599" lon="6.52292">
        <ele>668.6</ele>
        <time>2021-06-26T06:21:20Z</time>
      </trkpt>
      <trkpt lat="46.13601" lon="6.5229">
        <ele>669</ele>
        <time>2021-06-26T06:21:21Z</time>
      </trkpt>
      <trkpt lat="46.13604" lon="6.52289">
        <ele>669.2</ele>
        <time>2021-06-26T06:21:22Z</time>
      </trkpt>
      <trkpt lat="46.13606" lon="6.52286">
        <ele>669.4</ele>
        <time>2021-06-26T06:21:23Z</time>
      </trkpt>
      <trkpt lat="46.13609" lon="6.52284">
        <ele>669.8</ele>
        <time>2021-06-26T06:21:24Z</time>
      </trkpt>
      <trkpt lat="46.13612" lon="6.52283">
        <ele>670</ele>
        <time>2021-06-26T06:21:25Z</time>
      </trkpt>
      <trkpt lat="46.13614" lon="6.52281">
        <ele>670.2</ele>
        <time>2021-06-26T06:21:26Z</time>
      </trkpt>
      <trkpt lat="46.13617" lon="6.5228">
        <ele>670.6</ele>
        <time>2021-06-26T06:21:27Z</time>
      </trkpt>
      <trkpt lat="46.1362" lon="6.52279">
        <ele>670.8</ele>
        <time>2021-06-26T06:21:28Z</time>
      </trkpt>
      <trkpt lat="46.13622" lon="6.52278">
        <ele>671</ele>
        <time>2021-06-26T06:21:29Z</time>
      </trkpt>
      <trkpt lat="46.13625" lon="6.52277">
        <ele>671.2</ele>
        <time>2021-06-26T06:21:30Z</time>
      </trkpt>
      <trkpt lat="46.13628" lon="6.52277">
        <ele>671.6</ele>
        <time>2021-06-26T06:21:31Z</time>
      </trkpt>
      <trkpt lat="46.13631" lon="6.52276">
        <ele>672</ele>
        <time>2021-06-26T06:21:32Z</time>
      </trkpt>
      <trkpt lat="46.13633" lon="6.52275">
        <ele>672.2</ele>
        <time>2021-06-26T06:21:33Z</time>
      </trkpt>
      <trkpt lat="46.13635" lon="6.52275">
        <ele>672.4</ele>
        <time>2021-06-26T06:21:34Z</time>
      </trkpt>
      <trkpt lat="46.13638" lon="6.52274">
        <ele>672.8</ele>
        <time>2021-06-26T06:21:35Z</time>
      </trkpt>
      <trkpt lat="46.1364" lon="6.52274">
        <ele>672.8</ele>
        <time>2021-06-26T06:21:36Z</time>
      </trkpt>
      <trkpt lat="46.13643" lon="6.52274">
        <ele>673.4</ele>
        <time>2021-06-26T06:21:37Z</time>
      </trkpt>
      <trkpt lat="46.13645" lon="6.52274">
        <ele>673.4</ele>
        <time>2021-06-26T06:21:38Z</time>
      </trkpt>
      <trkpt lat="46.13648" lon="6.52274">
        <ele>673.4</ele>
        <time>2021-06-26T06:21:39Z</time>
      </trkpt>
      <trkpt lat="46.13651" lon="6.52274">
        <ele>673.6</ele>
        <time>2021-06-26T06:21:40Z</time>
      </trkpt>
      <trkpt lat="46.13654" lon="6.52274">
        <ele>673.8</ele>
        <time>2021-06-26T06:21:41Z</time>
      </trkpt>
      <trkpt lat="46.13657" lon="6.52273">
        <ele>674.2</ele>
        <time>2021-06-26T06:21:42Z</time>
      </trkpt>
      <trkpt lat="46.13659" lon="6.52273">
        <ele>674.6</ele>
        <time>2021-06-26T06:21:43Z</time>
      </trkpt>
      <trkpt lat="46.13662" lon="6.52273">
        <ele>675</ele>
        <time>2021-06-26T06:21:44Z</time>
      </trkpt>
      <trkpt lat="46.13665" lon="6.52273">
        <ele>675.4</ele>
        <time>2021-06-26T06:21:45Z</time>
      </trkpt>
      <trkpt lat="46.13667" lon="6.52272">
        <ele>675.6</ele>
        <time>2021-06-26T06:21:46Z</time>
      </trkpt>
      <trkpt lat="46.1367" lon="6.52271">
        <ele>675.6</ele>
        <time>2021-06-26T06:21:47Z</time>
      </trkpt>
      <trkpt lat="46.13673" lon="6.5227">
        <ele>675.8</ele>
        <time>2021-06-26T06:21:48Z</time>
      </trkpt>
      <trkpt lat="46.13675" lon="6.52268">
        <ele>676.2</ele>
        <time>2021-06-26T06:21:49Z</time>
      </trkpt>
      <trkpt lat="46.13678" lon="6.52267">
        <ele>676.2</ele>
        <time>2021-06-26T06:21:50Z</time>
      </trkpt>
      <trkpt lat="46.1368" lon="6.52266">
        <ele>676.6</ele>
        <time>2021-06-26T06:21:51Z</time>
      </trkpt>
      <trkpt lat="46.13683" lon="6.52264">
        <ele>676.8</ele>
        <time>2021-06-26T06:21:52Z</time>
      </trkpt>
      <trkpt lat="46.13685" lon="6.52262">
        <ele>677</ele>
        <time>2021-06-26T06:21:53Z</time>
      </trkpt>
      <trkpt lat="46.13688" lon="6.52259">
        <ele>677.2</ele>
        <time>2021-06-26T06:21:54Z</time>
      </trkpt>
      <trkpt lat="46.1369" lon="6.52257">
        <ele>677.4</ele>
        <time>2021-06-26T06:21:55Z</time>
      </trkpt>
      <trkpt lat="46.13692" lon="6.52255">
        <ele>677.8</ele>
        <time>2021-06-26T06:21:56Z</time>
      </trkpt>
      <trkpt lat="46.13695" lon="6.52253">
        <ele>678.2</ele>
        <time>2021-06-26T06:21:57Z</time>
      </trkpt>
      <trkpt lat="46.13697" lon="6.5225">
        <ele>678.4</ele>
        <time>2021-06-26T06:21:58Z</time>
      </trkpt>
      <trkpt lat="46.13699" lon="6.52248">
        <ele>678.6</ele>
        <time>2021-06-26T06:21:59Z</time>
      </trkpt>
      <trkpt lat="46.13701" lon="6.52245">
        <ele>678.8</ele>
        <time>2021-06-26T06:22:00Z</time>
      </trkpt>
      <trkpt lat="46.13703" lon="6.52242">
        <ele>678.8</ele>
        <time>2021-06-26T06:22:01Z</time>
      </trkpt>
      <trkpt lat="46.13705" lon="6.52239">
        <ele>679.2</ele>
        <time>2021-06-26T06:22:02Z</time>
      </trkpt>
      <trkpt lat="46.13707" lon="6.52236">
        <ele>679.6</ele>
        <time>2021-06-26T06:22:03Z</time>
      </trkpt>
      <trkpt lat="46.13709" lon="6.52233">
        <ele>679.6</ele>
        <time>2021-06-26T06:22:04Z</time>
      </trkpt>
      <trkpt lat="46.13711" lon="6.5223">
        <ele>679.8</ele>
        <time>2021-06-26T06:22:05Z</time>
      </trkpt>
      <trkpt lat="46.13713" lon="6.52228">
        <ele>680.2</ele>
        <time>2021-06-26T06:22:06Z</time>
      </trkpt>
      <trkpt lat="46.13715" lon="6.52225">
        <ele>680.4</ele>
        <time>2021-06-26T06:22:07Z</time>
      </trkpt>
      <trkpt lat="46.13717" lon="6.52222">
        <ele>680.4</ele>
        <time>2021-06-26T06:22:08Z</time>
      </trkpt>
      <trkpt lat="46.13719" lon="6.52219">
        <ele>680.8</ele>
        <time>2021-06-26T06:22:09Z</time>
      </trkpt>
      <trkpt lat="46.13721" lon="6.52216">
        <ele>681</ele>
        <time>2021-06-26T06:22:10Z</time>
      </trkpt>
      <trkpt lat="46.13723" lon="6.52213">
        <ele>681.2</ele>
        <time>2021-06-26T06:22:11Z</time>
      </trkpt>
      <trkpt lat="46.13725" lon="6.52211">
        <ele>681.6</ele>
        <time>2021-06-26T06:22:12Z</time>
      </trkpt>
      <trkpt lat="46.13727" lon="6.52207">
        <ele>681.8</ele>
        <time>2021-06-26T06:22:13Z</time>
      </trkpt>
      <trkpt lat="46.13729" lon="6.52204">
        <ele>682</ele>
        <time>2021-06-26T06:22:14Z</time>
      </trkpt>
      <trkpt lat="46.1373" lon="6.52201">
        <ele>682.2</ele>
        <time>2021-06-26T06:22:15Z</time>
      </trkpt>
      <trkpt lat="46.13732" lon="6.52198">
        <ele>682.6</ele>
        <time>2021-06-26T06:22:16Z</time>
      </trkpt>
      <trkpt lat="46.13734" lon="6.52195">
        <ele>682.8</ele>
        <time>2021-06-26T06:22:17Z</time>
      </trkpt>
      <trkpt lat="46.13736" lon="6.52192">
        <ele>683</ele>
        <time>2021-06-26T06:22:18Z</time>
      </trkpt>
      <trkpt lat="46.13737" lon="6.52189">
        <ele>683.4</ele>
        <time>2021-06-26T06:22:19Z</time>
      </trkpt>
      <trkpt lat="46.13739" lon="6.52186">
        <ele>683.4</ele>
        <time>2021-06-26T06:22:20Z</time>
      </trkpt>
      <trkpt lat="46.1374" lon="6.52183">
        <ele>684</ele>
        <time>2021-06-26T06:22:21Z</time>
      </trkpt>
      <trkpt lat="46.13742" lon="6.5218">
        <ele>684.2</ele>
        <time>2021-06-26T06:22:22Z</time>
      </trkpt>
      <trkpt lat="46.13744" lon="6.52177">
        <ele>684.2</ele>
        <time>2021-06-26T06:22:23Z</time>
      </trkpt>
      <trkpt lat="46.13745" lon="6.52174">
        <ele>684.4</ele>
        <time>2021-06-26T06:22:24Z</time>
      </trkpt>
      <trkpt lat="46.13747" lon="6.52171">
        <ele>684.6</ele>
        <time>2021-06-26T06:22:25Z</time>
      </trkpt>
      <trkpt lat="46.13749" lon="6.52168">
        <ele>684.8</ele>
        <time>2021-06-26T06:22:26Z</time>
      </trkpt>
      <trkpt lat="46.1375" lon="6.52165">
        <ele>685.2</ele>
        <time>2021-06-26T06:22:27Z</time>
      </trkpt>
      <trkpt lat="46.13752" lon="6.52162">
        <ele>685.6</ele>
        <time>2021-06-26T06:22:28Z</time>
      </trkpt>
      <trkpt lat="46.13754" lon="6.52159">
        <ele>685.6</ele>
        <time>2021-06-26T06:22:29Z</time>
      </trkpt>
      <trkpt lat="46.13755" lon="6.52156">
        <ele>685.6</ele>
        <time>2021-06-26T06:22:30Z</time>
      </trkpt>
      <trkpt lat="46.13757" lon="6.52153">
        <ele>686</ele>
        <time>2021-06-26T06:22:31Z</time>
      </trkpt>
      <trkpt lat="46.13759" lon="6.5215">
        <ele>686.2</ele>
        <time>2021-06-26T06:22:32Z</time>
      </trkpt>
      <trkpt lat="46.13761" lon="6.52147">
        <ele>686.6</ele>
        <time>2021-06-26T06:22:33Z</time>
      </trkpt>
      <trkpt lat="46.13762" lon="6.52145">
        <ele>686.6</ele>
        <time>2021-06-26T06:22:34Z</time>
      </trkpt>
      <trkpt lat="46.13764" lon="6.52142">
        <ele>687</ele>
        <time>2021-06-26T06:22:35Z</time>
      </trkpt>
      <trkpt lat="46.13766" lon="6.5214">
        <ele>687.2</ele>
        <time>2021-06-26T06:22:36Z</time>
      </trkpt>
      <trkpt lat="46.13768" lon="6.52137">
        <ele>687.4</ele>
        <time>2021-06-26T06:22:37Z</time>
      </trkpt>
      <trkpt lat="46.1377" lon="6.52135">
        <ele>687.6</ele>
        <time>2021-06-26T06:22:38Z</time>
      </trkpt>
      <trkpt lat="46.13771" lon="6.52132">
        <ele>688</ele>
        <time>2021-06-26T06:22:39Z</time>
      </trkpt>
      <trkpt lat="46.13773" lon="6.5213">
        <ele>688.2</ele>
        <time>2021-06-26T06:22:40Z</time>
      </trkpt>
      <trkpt lat="46.13775" lon="6.52127">
        <ele>688.4</ele>
        <time>2021-06-26T06:22:41Z</time>
      </trkpt>
      <trkpt lat="46.13777" lon="6.52125">
        <ele>688.6</ele>
        <time>2021-06-26T06:22:42Z</time>
      </trkpt>
      <trkpt lat="46.13779" lon="6.52123">
        <ele>689</ele>
        <time>2021-06-26T06:22:43Z</time>
      </trkpt>
      <trkpt lat="46.13781" lon="6.52121">
        <ele>689.2</ele>
        <time>2021-06-26T06:22:44Z</time>
      </trkpt>
      <trkpt lat="46.13782" lon="6.52118">
        <ele>689.4</ele>
        <time>2021-06-26T06:22:45Z</time>
      </trkpt>
      <trkpt lat="46.13784" lon="6.52116">
        <ele>689.4</ele>
        <time>2021-06-26T06:22:46Z</time>
      </trkpt>
      <trkpt lat="46.13786" lon="6.52114">
        <ele>689.6</ele>
        <time>2021-06-26T06:22:47Z</time>
      </trkpt>
      <trkpt lat="46.13788" lon="6.52111">
        <ele>690</ele>
        <time>2021-06-26T06:22:48Z</time>
      </trkpt>
      <trkpt lat="46.13789" lon="6.52109">
        <ele>690.2</ele>
        <time>2021-06-26T06:22:49Z</time>
      </trkpt>
      <trkpt lat="46.13791" lon="6.52107">
        <ele>690.4</ele>
        <time>2021-06-26T06:22:50Z</time>
      </trkpt>
      <trkpt lat="46.13792" lon="6.52104">
        <ele>690.8</ele>
        <time>2021-06-26T06:22:51Z</time>
      </trkpt>
      <trkpt lat="46.13794" lon="6.52101">
        <ele>691</ele>
        <time>2021-06-26T06:22:52Z</time>
      </trkpt>
      <trkpt lat="46.13796" lon="6.52098">
        <ele>691.2</ele>
        <time>2021-06-26T06:22:53Z</time>
      </trkpt>
      <trkpt lat="46.13797" lon="6.52095">
        <ele>691.6</ele>
        <time>2021-06-26T06:22:54Z</time>
      </trkpt>
      <trkpt lat="46.13798" lon="6.52092">
        <ele>691.8</ele>
        <time>2021-06-26T06:22:55Z</time>
      </trkpt>
      <trkpt lat="46.138" lon="6.52089">
        <ele>692</ele>
        <time>2021-06-26T06:22:56Z</time>
      </trkpt>
      <trkpt lat="46.13801" lon="6.52085">
        <ele>692.2</ele>
        <time>2021-06-26T06:22:57Z</time>
      </trkpt>
      <trkpt lat="46.13803" lon="6.52082">
        <ele>692.6</ele>
        <time>2021-06-26T06:22:58Z</time>
      </trkpt>
      <trkpt lat="46.13805" lon="6.52079">
        <ele>692.8</ele>
        <time>2021-06-26T06:22:59Z</time>
      </trkpt>
      <trkpt lat="46.13806" lon="6.52075">
        <ele>693</ele>
        <time>2021-06-26T06:23:00Z</time>
      </trkpt>
      <trkpt lat="46.13807" lon="6.52072">
        <ele>693.4</ele>
        <time>2021-06-26T06:23:01Z</time>
      </trkpt>
      <trkpt lat="46.13809" lon="6.52068">
        <ele>693.6</ele>
        <time>2021-06-26T06:23:02Z</time>
      </trkpt>
      <trkpt lat="46.1381" lon="6.52065">
        <ele>693.8</ele>
        <time>2021-06-26T06:23:03Z</time>
      </trkpt>
      <trkpt lat="46.13811" lon="6.52062">
        <ele>694.4</ele>
        <time>2021-06-26T06:23:04Z</time>
      </trkpt>
      <trkpt lat="46.13812" lon="6.52059">
        <ele>694.4</ele>
        <time>2021-06-26T06:23:05Z</time>
      </trkpt>
      <trkpt lat="46.13814" lon="6.52055">
        <ele>694.8</ele>
        <time>2021-06-26T06:23:06Z</time>
      </trkpt>
      <trkpt lat="46.13815" lon="6.52052">
        <ele>694.8</ele>
        <time>2021-06-26T06:23:07Z</time>
      </trkpt>
      <trkpt lat="46.13816" lon="6.52048">
        <ele>694.8</ele>
        <time>2021-06-26T06:23:08Z</time>
      </trkpt>
      <trkpt lat="46.13817" lon="6.52045">
        <ele>695.2</ele>
        <time>2021-06-26T06:23:09Z</time>
      </trkpt>
      <trkpt lat="46.13818" lon="6.52041">
        <ele>695.2</ele>
        <time>2021-06-26T06:23:10Z</time>
      </trkpt>
      <trkpt lat="46.13819" lon="6.52038">
        <ele>695.4</ele>
        <time>2021-06-26T06:23:11Z</time>
      </trkpt>
      <trkpt lat="46.1382" lon="6.52035">
        <ele>695.8</ele>
        <time>2021-06-26T06:23:12Z</time>
      </trkpt>
      <trkpt lat="46.13821" lon="6.52031">
        <ele>696</ele>
        <time>2021-06-26T06:23:13Z</time>
      </trkpt>
      <trkpt lat="46.13823" lon="6.52028">
        <ele>696.2</ele>
        <time>2021-06-26T06:23:14Z</time>
      </trkpt>
      <trkpt lat="46.13824" lon="6.52025">
        <ele>696.6</ele>
        <time>2021-06-26T06:23:15Z</time>
      </trkpt>
      <trkpt lat="46.13826" lon="6.52022">
        <ele>696.8</ele>
        <time>2021-06-26T06:23:16Z</time>
      </trkpt>
      <trkpt lat="46.13827" lon="6.52019">
        <ele>697</ele>
        <time>2021-06-26T06:23:17Z</time>
      </trkpt>
      <trkpt lat="46.13829" lon="6.52017">
        <ele>697.2</ele>
        <time>2021-06-26T06:23:18Z</time>
      </trkpt>
      <trkpt lat="46.1383" lon="6.52014">
        <ele>697.4</ele>
        <time>2021-06-26T06:23:19Z</time>
      </trkpt>
      <trkpt lat="46.13832" lon="6.52012">
        <ele>697.6</ele>
        <time>2021-06-26T06:23:20Z</time>
      </trkpt>
      <trkpt lat="46.13834" lon="6.5201">
        <ele>697.8</ele>
        <time>2021-06-26T06:23:21Z</time>
      </trkpt>
      <trkpt lat="46.13836" lon="6.52008">
        <ele>698</ele>
        <time>2021-06-26T06:23:22Z</time>
      </trkpt>
      <trkpt lat="46.13838" lon="6.52006">
        <ele>698.4</ele>
        <time>2021-06-26T06:23:23Z</time>
      </trkpt>
      <trkpt lat="46.1384" lon="6.52004">
        <ele>698.6</ele>
        <time>2021-06-26T06:23:24Z</time>
      </trkpt>
      <trkpt lat="46.13842" lon="6.52003">
        <ele>698.6</ele>
        <time>2021-06-26T06:23:25Z</time>
      </trkpt>
      <trkpt lat="46.13844" lon="6.52001">
        <ele>699</ele>
        <time>2021-06-26T06:23:26Z</time>
      </trkpt>
      <trkpt lat="46.13847" lon="6.52">
        <ele>699.2</ele>
        <time>2021-06-26T06:23:27Z</time>
      </trkpt>
      <trkpt lat="46.13849" lon="6.51999">
        <ele>699.6</ele>
        <time>2021-06-26T06:23:28Z</time>
      </trkpt>
      <trkpt lat="46.13851" lon="6.51997">
        <ele>699.8</ele>
        <time>2021-06-26T06:23:29Z</time>
      </trkpt>
      <trkpt lat="46.13853" lon="6.51996">
        <ele>699.8</ele>
        <time>2021-06-26T06:23:30Z</time>
      </trkpt>
      <trkpt lat="46.13855" lon="6.51995">
        <ele>700</ele>
        <time>2021-06-26T06:23:31Z</time>
      </trkpt>
      <trkpt lat="46.13857" lon="6.51994">
        <ele>700.2</ele>
        <time>2021-06-26T06:23:32Z</time>
      </trkpt>
      <trkpt lat="46.1386" lon="6.51993">
        <ele>700.2</ele>
        <time>2021-06-26T06:23:33Z</time>
      </trkpt>
      <trkpt lat="46.13862" lon="6.51992">
        <ele>700.6</ele>
        <time>2021-06-26T06:23:34Z</time>
      </trkpt>
      <trkpt lat="46.13864" lon="6.51991">
        <ele>701</ele>
        <time>2021-06-26T06:23:35Z</time>
      </trkpt>
      <trkpt lat="46.13866" lon="6.5199">
        <ele>701.4</ele>
        <time>2021-06-26T06:23:36Z</time>
      </trkpt>
      <trkpt lat="46.13868" lon="6.51989">
        <ele>701.6</ele>
        <time>2021-06-26T06:23:37Z</time>
      </trkpt>
      <trkpt lat="46.1387" lon="6.51987">
        <ele>701.8</ele>
        <time>2021-06-26T06:23:38Z</time>
      </trkpt>
      <trkpt lat="46.13873" lon="6.51985">
        <ele>702</ele>
        <time>2021-06-26T06:23:39Z</time>
      </trkpt>
      <trkpt lat="46.13875" lon="6.51984">
        <ele>702.4</ele>
        <time>2021-06-26T06:23:40Z</time>
      </trkpt>
      <trkpt lat="46.13876" lon="6.51982">
        <ele>702.6</ele>
        <time>2021-06-26T06:23:41Z</time>
      </trkpt>
      <trkpt lat="46.13878" lon="6.5198">
        <ele>702.8</ele>
        <time>2021-06-26T06:23:42Z</time>
      </trkpt>
      <trkpt lat="46.1388" lon="6.51978">
        <ele>703.2</ele>
        <time>2021-06-26T06:23:43Z</time>
      </trkpt>
      <trkpt lat="46.13882" lon="6.51975">
        <ele>703.4</ele>
        <time>2021-06-26T06:23:44Z</time>
      </trkpt>
      <trkpt lat="46.13884" lon="6.51973">
        <ele>703.6</ele>
        <time>2021-06-26T06:23:45Z</time>
      </trkpt>
      <trkpt lat="46.13886" lon="6.5197">
        <ele>703.8</ele>
        <time>2021-06-26T06:23:46Z</time>
      </trkpt>
      <trkpt lat="46.13887" lon="6.51967">
        <ele>704.2</ele>
        <time>2021-06-26T06:23:47Z</time>
      </trkpt>
      <trkpt lat="46.13889" lon="6.51964">
        <ele>704.6</ele>
        <time>2021-06-26T06:23:48Z</time>
      </trkpt>
      <trkpt lat="46.13891" lon="6.5196">
        <ele>704.6</ele>
        <time>2021-06-26T06:23:49Z</time>
      </trkpt>
      <trkpt lat="46.13893" lon="6.51956">
        <ele>705</ele>
        <time>2021-06-26T06:23:50Z</time>
      </trkpt>
      <trkpt lat="46.13894" lon="6.51953">
        <ele>705</ele>
        <time>2021-06-26T06:23:51Z</time>
      </trkpt>
      <trkpt lat="46.13896" lon="6.51949">
        <ele>705.6</ele>
        <time>2021-06-26T06:23:52Z</time>
      </trkpt>
      <trkpt lat="46.13898" lon="6.51946">
        <ele>705.8</ele>
        <time>2021-06-26T06:23:53Z</time>
      </trkpt>
      <trkpt lat="46.13899" lon="6.51942">
        <ele>706</ele>
        <time>2021-06-26T06:23:54Z</time>
      </trkpt>
      <trkpt lat="46.13901" lon="6.51938">
        <ele>706.2</ele>
        <time>2021-06-26T06:23:55Z</time>
      </trkpt>
      <trkpt lat="46.13902" lon="6.51934">
        <ele>706.4</ele>
        <time>2021-06-26T06:23:56Z</time>
      </trkpt>
      <trkpt lat="46.13903" lon="6.5193">
        <ele>706.8</ele>
        <time>2021-06-26T06:23:57Z</time>
      </trkpt>
      <trkpt lat="46.13905" lon="6.51927">
        <ele>707</ele>
        <time>2021-06-26T06:23:58Z</time>
      </trkpt>
      <trkpt lat="46.13906" lon="6.51923">
        <ele>707.2</ele>
        <time>2021-06-26T06:23:59Z</time>
      </trkpt>
      <trkpt lat="46.13907" lon="6.51919">
        <ele>707.6</ele>
        <time>2021-06-26T06:24:00Z</time>
      </trkpt>
      <trkpt lat="46.13908" lon="6.51915">
        <ele>707.8</ele>
        <time>2021-06-26T06:24:01Z</time>
      </trkpt>
      <trkpt lat="46.13909" lon="6.51911">
        <ele>708</ele>
        <time>2021-06-26T06:24:02Z</time>
      </trkpt>
      <trkpt lat="46.1391" lon="6.51907">
        <ele>708.2</ele>
        <time>2021-06-26T06:24:03Z</time>
      </trkpt>
      <trkpt lat="46.13911" lon="6.51903">
        <ele>708.6</ele>
        <time>2021-06-26T06:24:04Z</time>
      </trkpt>
      <trkpt lat="46.13912" lon="6.51899">
        <ele>708.8</ele>
        <time>2021-06-26T06:24:05Z</time>
      </trkpt>
      <trkpt lat="46.13913" lon="6.51895">
        <ele>709</ele>
        <time>2021-06-26T06:24:06Z</time>
      </trkpt>
      <trkpt lat="46.13914" lon="6.51892">
        <ele>709</ele>
        <time>2021-06-26T06:24:07Z</time>
      </trkpt>
      <trkpt lat="46.13915" lon="6.51888">
        <ele>709.2</ele>
        <time>2021-06-26T06:24:08Z</time>
      </trkpt>
      <trkpt lat="46.13916" lon="6.51884">
        <ele>709.4</ele>
        <time>2021-06-26T06:24:09Z</time>
      </trkpt>
      <trkpt lat="46.13918" lon="6.51881">
        <ele>709.6</ele>
        <time>2021-06-26T06:24:10Z</time>
      </trkpt>
      <trkpt lat="46.13919" lon="6.51878">
        <ele>709.6</ele>
        <time>2021-06-26T06:24:11Z</time>
      </trkpt>
      <trkpt lat="46.13921" lon="6.51875">
        <ele>710</ele>
        <time>2021-06-26T06:24:12Z</time>
      </trkpt>
      <trkpt lat="46.13923" lon="6.51873">
        <ele>710</ele>
        <time>2021-06-26T06:24:13Z</time>
      </trkpt>
      <trkpt lat="46.13925" lon="6.51871">
        <ele>710</ele>
        <time>2021-06-26T06:24:14Z</time>
      </trkpt>
      <trkpt lat="46.13928" lon="6.51869">
        <ele>710.4</ele>
        <time>2021-06-26T06:24:15Z</time>
      </trkpt>
      <trkpt lat="46.1393" lon="6.51868">
        <ele>710.4</ele>
        <time>2021-06-26T06:24:16Z</time>
      </trkpt>
      <trkpt lat="46.13933" lon="6.51868">
        <ele>710.6</ele>
        <time>2021-06-26T06:24:17Z</time>
      </trkpt>
      <trkpt lat="46.13936" lon="6.51869">
        <ele>710.8</ele>
        <time>2021-06-26T06:24:18Z</time>
      </trkpt>
      <trkpt lat="46.13938" lon="6.5187">
        <ele>711.2</ele>
        <time>2021-06-26T06:24:19Z</time>
      </trkpt>
      <trkpt lat="46.13941" lon="6.51872">
        <ele>711.2</ele>
        <time>2021-06-26T06:24:20Z</time>
      </trkpt>
      <trkpt lat="46.13943" lon="6.51875">
        <ele>711.4</ele>
        <time>2021-06-26T06:24:21Z</time>
      </trkpt>
      <trkpt lat="46.13945" lon="6.51877">
        <ele>711.6</ele>
        <time>2021-06-26T06:24:22Z</time>
      </trkpt>
      <trkpt lat="46.13946" lon="6.51881">
        <ele>711.6</ele>
        <time>2021-06-26T06:24:23Z</time>
      </trkpt>
      <trkpt lat="46.13947" lon="6.51884">
        <ele>712</ele>
        <time>2021-06-26T06:24:24Z</time>
      </trkpt>
      <trkpt lat="46.13948" lon="6.51888">
        <ele>712.4</ele>
        <time>2021-06-26T06:24:25Z</time>
      </trkpt>
      <trkpt lat="46.13948" lon="6.51892">
        <ele>712.4</ele>
        <time>2021-06-26T06:24:26Z</time>
      </trkpt>
      <trkpt lat="46.13948" lon="6.51896">
        <ele>712.6</ele>
        <time>2021-06-26T06:24:27Z</time>
      </trkpt>
      <trkpt lat="46.13948" lon="6.519">
        <ele>713</ele>
        <time>2021-06-26T06:24:28Z</time>
      </trkpt>
      <trkpt lat="46.13947" lon="6.51904">
        <ele>713</ele>
        <time>2021-06-26T06:24:29Z</time>
      </trkpt>
      <trkpt lat="46.13947" lon="6.51907">
        <ele>713.4</ele>
        <time>2021-06-26T06:24:30Z</time>
      </trkpt>
      <trkpt lat="46.13946" lon="6.51911">
        <ele>713.6</ele>
        <time>2021-06-26T06:24:31Z</time>
      </trkpt>
      <trkpt lat="46.13946" lon="6.51915">
        <ele>714</ele>
        <time>2021-06-26T06:24:32Z</time>
      </trkpt>
      <trkpt lat="46.13945" lon="6.51919">
        <ele>714.2</ele>
        <time>2021-06-26T06:24:33Z</time>
      </trkpt>
      <trkpt lat="46.13944" lon="6.51923">
        <ele>714.2</ele>
        <time>2021-06-26T06:24:34Z</time>
      </trkpt>
      <trkpt lat="46.13944" lon="6.51927">
        <ele>714.4</ele>
        <time>2021-06-26T06:24:35Z</time>
      </trkpt>
      <trkpt lat="46.13943" lon="6.51931">
        <ele>714.4</ele>
        <time>2021-06-26T06:24:36Z</time>
      </trkpt>
      <trkpt lat="46.13943" lon="6.51935">
        <ele>714.8</ele>
        <time>2021-06-26T06:24:37Z</time>
      </trkpt>
      <trkpt lat="46.13943" lon="6.51938">
        <ele>715</ele>
        <time>2021-06-26T06:24:38Z</time>
      </trkpt>
      <trkpt lat="46.13943" lon="6.51942">
        <ele>715.2</ele>
        <time>2021-06-26T06:24:39Z</time>
      </trkpt>
      <trkpt lat="46.13943" lon="6.51946">
        <ele>715.4</ele>
        <time>2021-06-26T06:24:40Z</time>
      </trkpt>
      <trkpt lat="46.13943" lon="6.5195">
        <ele>715.6</ele>
        <time>2021-06-26T06:24:41Z</time>
      </trkpt>
      <trkpt lat="46.13944" lon="6.51954">
        <ele>715.6</ele>
        <time>2021-06-26T06:24:42Z</time>
      </trkpt>
      <trkpt lat="46.13944" lon="6.51958">
        <ele>716</ele>
        <time>2021-06-26T06:24:43Z</time>
      </trkpt>
      <trkpt lat="46.13945" lon="6.51962">
        <ele>716.4</ele>
        <time>2021-06-26T06:24:44Z</time>
      </trkpt>
      <trkpt lat="46.13946" lon="6.51965">
        <ele>716.4</ele>
        <time>2021-06-26T06:24:45Z</time>
      </trkpt>
      <trkpt lat="46.13946" lon="6.51969">
        <ele>716.8</ele>
        <time>2021-06-26T06:24:46Z</time>
      </trkpt>
      <trkpt lat="46.13947" lon="6.51973">
        <ele>716.8</ele>
        <time>2021-06-26T06:24:47Z</time>
      </trkpt>
      <trkpt lat="46.13947" lon="6.51977">
        <ele>717.2</ele>
        <time>2021-06-26T06:24:48Z</time>
      </trkpt>
      <trkpt lat="46.13948" lon="6.51981">
        <ele>717.4</ele>
        <time>2021-06-26T06:24:49Z</time>
      </trkpt>
      <trkpt lat="46.13948" lon="6.51985">
        <ele>717.6</ele>
        <time>2021-06-26T06:24:50Z</time>
      </trkpt>
      <trkpt lat="46.13949" lon="6.51988">
        <ele>717.6</ele>
        <time>2021-06-26T06:24:51Z</time>
      </trkpt>
      <trkpt lat="46.13949" lon="6.51992">
        <ele>718</ele>
        <time>2021-06-26T06:24:52Z</time>
      </trkpt>
      <trkpt lat="46.1395" lon="6.51996">
        <ele>718.2</ele>
        <time>2021-06-26T06:24:53Z</time>
      </trkpt>
      <trkpt lat="46.1395" lon="6.52">
        <ele>718.4</ele>
        <time>2021-06-26T06:24:54Z</time>
      </trkpt>
      <trkpt lat="46.1395" lon="6.52004">
        <ele>718.8</ele>
        <time>2021-06-26T06:24:55Z</time>
      </trkpt>
      <trkpt lat="46.1395" lon="6.52008">
        <ele>718.8</ele>
        <time>2021-06-26T06:24:56Z</time>
      </trkpt>
      <trkpt lat="46.13949" lon="6.52011">
        <ele>719</ele>
        <time>2021-06-26T06:24:57Z</time>
      </trkpt>
      <trkpt lat="46.13949" lon="6.52015">
        <ele>719.2</ele>
        <time>2021-06-26T06:24:58Z</time>
      </trkpt>
      <trkpt lat="46.13949" lon="6.52019">
        <ele>719.4</ele>
        <time>2021-06-26T06:24:59Z</time>
      </trkpt>
      <trkpt lat="46.13948" lon="6.52023">
        <ele>719.6</ele>
        <time>2021-06-26T06:25:00Z</time>
      </trkpt>
      <trkpt lat="46.13948" lon="6.52026">
        <ele>719.8</ele>
        <time>2021-06-26T06:25:01Z</time>
      </trkpt>
      <trkpt lat="46.13947" lon="6.5203">
        <ele>720</ele>
        <time>2021-06-26T06:25:02Z</time>
      </trkpt>
      <trkpt lat="46.13946" lon="6.52034">
        <ele>720.4</ele>
        <time>2021-06-26T06:25:03Z</time>
      </trkpt>
      <trkpt lat="46.13945" lon="6.52037">
        <ele>720.6</ele>
        <time>2021-06-26T06:25:04Z</time>
      </trkpt>
      <trkpt lat="46.13944" lon="6.52041">
        <ele>720.8</ele>
        <time>2021-06-26T06:25:05Z</time>
      </trkpt>
      <trkpt lat="46.13943" lon="6.52044">
        <ele>721</ele>
        <time>2021-06-26T06:25:06Z</time>
      </trkpt>
      <trkpt lat="46.13942" lon="6.52047">
        <ele>721.2</ele>
        <time>2021-06-26T06:25:07Z</time>
      </trkpt>
      <trkpt lat="46.1394" lon="6.52051">
        <ele>721.6</ele>
        <time>2021-06-26T06:25:08Z</time>
      </trkpt>
      <trkpt lat="46.13939" lon="6.52054">
        <ele>721.8</ele>
        <time>2021-06-26T06:25:09Z</time>
      </trkpt>
      <trkpt lat="46.13938" lon="6.52057">
        <ele>722</ele>
        <time>2021-06-26T06:25:10Z</time>
      </trkpt>
      <trkpt lat="46.13937" lon="6.52061">
        <ele>722.4</ele>
        <time>2021-06-26T06:25:11Z</time>
      </trkpt>
      <trkpt lat="46.13936" lon="6.52064">
        <ele>722.8</ele>
        <time>2021-06-26T06:25:12Z</time>
      </trkpt>
      <trkpt lat="46.13935" lon="6.52068">
        <ele>723</ele>
        <time>2021-06-26T06:25:13Z</time>
      </trkpt>
      <trkpt lat="46.13934" lon="6.52071">
        <ele>723.4</ele>
        <time>2021-06-26T06:25:14Z</time>
      </trkpt>
      <trkpt lat="46.13933" lon="6.52074">
        <ele>723.4</ele>
        <time>2021-06-26T06:25:15Z</time>
      </trkpt>
      <trkpt lat="46.13933" lon="6.52077">
        <ele>723.8</ele>
        <time>2021-06-26T06:25:16Z</time>
      </trkpt>
      <trkpt lat="46.13932" lon="6.5208">
        <ele>723.8</ele>
        <time>2021-06-26T06:25:17Z</time>
      </trkpt>
      <trkpt lat="46.13931" lon="6.52084">
        <ele>724</ele>
        <time>2021-06-26T06:25:18Z</time>
      </trkpt>
      <trkpt lat="46.1393" lon="6.52087">
        <ele>724.4</ele>
        <time>2021-06-26T06:25:19Z</time>
      </trkpt>
      <trkpt lat="46.13929" lon="6.5209">
        <ele>724.6</ele>
        <time>2021-06-26T06:25:20Z</time>
      </trkpt>
      <trkpt lat="46.13928" lon="6.52093">
        <ele>724.6</ele>
        <time>2021-06-26T06:25:21Z</time>
      </trkpt>
      <trkpt lat="46.13927" lon="6.52097">
        <ele>725</ele>
        <time>2021-06-26T06:25:22Z</time>
      </trkpt>
      <trkpt lat="46.13926" lon="6.521">
        <ele>725.2</ele>
        <time>2021-06-26T06:25:23Z</time>
      </trkpt>
      <trkpt lat="46.13925" lon="6.52104">
        <ele>725.4</ele>
        <time>2021-06-26T06:25:24Z</time>
      </trkpt>
      <trkpt lat="46.13924" lon="6.52107">
        <ele>725.8</ele>
        <time>2021-06-26T06:25:25Z</time>
      </trkpt>
      <trkpt lat="46.13923" lon="6.5211">
        <ele>726</ele>
        <time>2021-06-26T06:25:26Z</time>
      </trkpt>
      <trkpt lat="46.13922" lon="6.52114">
        <ele>726</ele>
        <time>2021-06-26T06:25:27Z</time>
      </trkpt>
      <trkpt lat="46.13921" lon="6.52117">
        <ele>726.4</ele>
        <time>2021-06-26T06:25:28Z</time>
      </trkpt>
      <trkpt lat="46.1392" lon="6.5212">
        <ele>726.8</ele>
        <time>2021-06-26T06:25:29Z</time>
      </trkpt>
      <trkpt lat="46.13919" lon="6.52123">
        <ele>727</ele>
        <time>2021-06-26T06:25:30Z</time>
      </trkpt>
      <trkpt lat="46.13917" lon="6.52126">
        <ele>727.2</ele>
        <time>2021-06-26T06:25:31Z</time>
      </trkpt>
      <trkpt lat="46.13916" lon="6.52129">
        <ele>727.4</ele>
        <time>2021-06-26T06:25:32Z</time>
      </trkpt>
      <trkpt lat="46.13915" lon="6.52132">
        <ele>727.6</ele>
        <time>2021-06-26T06:25:33Z</time>
      </trkpt>
      <trkpt lat="46.13913" lon="6.52135">
        <ele>727.8</ele>
        <time>2021-06-26T06:25:34Z</time>
      </trkpt>
      <trkpt lat="46.13912" lon="6.52138">
        <ele>728</ele>
        <time>2021-06-26T06:25:35Z</time>
      </trkpt>
      <trkpt lat="46.13911" lon="6.52141">
        <ele>728.4</ele>
        <time>2021-06-26T06:25:36Z</time>
      </trkpt>
      <trkpt lat="46.13909" lon="6.52144">
        <ele>728.4</ele>
        <time>2021-06-26T06:25:37Z</time>
      </trkpt>
      <trkpt lat="46.13908" lon="6.52148">
        <ele>728.6</ele>
        <time>2021-06-26T06:25:38Z</time>
      </trkpt>
      <trkpt lat="46.13906" lon="6.52151">
        <ele>728.6</ele>
        <time>2021-06-26T06:25:39Z</time>
      </trkpt>
      <trkpt lat="46.13904" lon="6.52154">
        <ele>729</ele>
        <time>2021-06-26T06:25:40Z</time>
      </trkpt>
      <trkpt lat="46.13903" lon="6.52156">
        <ele>729.4</ele>
        <time>2021-06-26T06:25:41Z</time>
      </trkpt>
      <trkpt lat="46.13901" lon="6.52159">
        <ele>729.4</ele>
        <time>2021-06-26T06:25:42Z</time>
      </trkpt>
      <trkpt lat="46.13899" lon="6.52162">
        <ele>729.8</ele>
        <time>2021-06-26T06:25:43Z</time>
      </trkpt>
      <trkpt lat="46.13898" lon="6.52165">
        <ele>730</ele>
        <time>2021-06-26T06:25:44Z</time>
      </trkpt>
      <trkpt lat="46.13896" lon="6.52168">
        <ele>730.4</ele>
        <time>2021-06-26T06:25:45Z</time>
      </trkpt>
      <trkpt lat="46.13894" lon="6.52171">
        <ele>730.6</ele>
        <time>2021-06-26T06:25:46Z</time>
      </trkpt>
      <trkpt lat="46.13892" lon="6.52174">
        <ele>730.8</ele>
        <time>2021-06-26T06:25:47Z</time>
      </trkpt>
      <trkpt lat="46.13891" lon="6.52177">
        <ele>731</ele>
        <time>2021-06-26T06:25:48Z</time>
      </trkpt>
      <trkpt lat="46.13889" lon="6.5218">
        <ele>731.4</ele>
        <time>2021-06-26T06:25:49Z</time>
      </trkpt>
      <trkpt lat="46.13887" lon="6.52183">
        <ele>731.6</ele>
        <time>2021-06-26T06:25:50Z</time>
      </trkpt>
      <trkpt lat="46.13886" lon="6.52185">
        <ele>731.8</ele>
        <time>2021-06-26T06:25:51Z</time>
      </trkpt>
      <trkpt lat="46.13884" lon="6.52188">
        <ele>732</ele>
        <time>2021-06-26T06:25:52Z</time>
      </trkpt>
      <trkpt lat="46.13883" lon="6.52191">
        <ele>732.2</ele>
        <time>2021-06-26T06:25:53Z</time>
      </trkpt>
      <trkpt lat="46.13882" lon="6.52194">
        <ele>732.6</ele>
        <time>2021-06-26T06:25:54Z</time>
      </trkpt>
      <trkpt lat="46.1388" lon="6.52197">
        <ele>732.8</ele>
        <time>2021-06-26T06:25:55Z</time>
      </trkpt>
      <trkpt lat="46.13879" lon="6.522">
        <ele>733</ele>
        <time>2021-06-26T06:25:56Z</time>
      </trkpt>
      <trkpt lat="46.13878" lon="6.52203">
        <ele>733.4</ele>
        <time>2021-06-26T06:25:57Z</time>
      </trkpt>
      <trkpt lat="46.13877" lon="6.52206">
        <ele>733.6</ele>
        <time>2021-06-26T06:25:58Z</time>
      </trkpt>
      <trkpt lat="46.13876" lon="6.52209">
        <ele>733.6</ele>
        <time>2021-06-26T06:25:59Z</time>
      </trkpt>
      <trkpt lat="46.13875" lon="6.52213">
        <ele>733.8</ele>
        <time>2021-06-26T06:26:00Z</time>
      </trkpt>
      <trkpt lat="46.13874" lon="6.52216">
        <ele>733.8</ele>
        <time>2021-06-26T06:26:01Z</time>
      </trkpt>
      <trkpt lat="46.13873" lon="6.5222">
        <ele>734</ele>
        <time>2021-06-26T06:26:02Z</time>
      </trkpt>
      <trkpt lat="46.13873" lon="6.52225">
        <ele>734.2</ele>
        <time>2021-06-26T06:26:03Z</time>
      </trkpt>
      <trkpt lat="46.13872" lon="6.52229">
        <ele>734.6</ele>
        <time>2021-06-26T06:26:04Z</time>
      </trkpt>
      <trkpt lat="46.13872" lon="6.52232">
        <ele>734.8</ele>
        <time>2021-06-26T06:26:05Z</time>
      </trkpt>
      <trkpt lat="46.13872" lon="6.52236">
        <ele>735</ele>
        <time>2021-06-26T06:26:06Z</time>
      </trkpt>
      <trkpt lat="46.13873" lon="6.52239">
        <ele>735.4</ele>
        <time>2021-06-26T06:26:07Z</time>
      </trkpt>
      <trkpt lat="46.13874" lon="6.52243">
        <ele>735.6</ele>
        <time>2021-06-26T06:26:08Z</time>
      </trkpt>
      <trkpt lat="46.13875" lon="6.52246">
        <ele>735.6</ele>
        <time>2021-06-26T06:26:09Z</time>
      </trkpt>
      <trkpt lat="46.13877" lon="6.52249">
        <ele>736.2</ele>
        <time>2021-06-26T06:26:10Z</time>
      </trkpt>
      <trkpt lat="46.13879" lon="6.52252">
        <ele>736.4</ele>
        <time>2021-06-26T06:26:11Z</time>
      </trkpt>
      <trkpt lat="46.1388" lon="6.52254">
        <ele>736.6</ele>
        <time>2021-06-26T06:26:12Z</time>
      </trkpt>
      <trkpt lat="46.13883" lon="6.52255">
        <ele>736.8</ele>
        <time>2021-06-26T06:26:13Z</time>
      </trkpt>
      <trkpt lat="46.13885" lon="6.52256">
        <ele>737</ele>
        <time>2021-06-26T06:26:14Z</time>
      </trkpt>
      <trkpt lat="46.13888" lon="6.52257">
        <ele>737.2</ele>
        <time>2021-06-26T06:26:15Z</time>
      </trkpt>
      <trkpt lat="46.13891" lon="6.52257">
        <ele>737.4</ele>
        <time>2021-06-26T06:26:16Z</time>
      </trkpt>
      <trkpt lat="46.13893" lon="6.52257">
        <ele>737.8</ele>
        <time>2021-06-26T06:26:17Z</time>
      </trkpt>
      <trkpt lat="46.13896" lon="6.52257">
        <ele>738</ele>
        <time>2021-06-26T06:26:18Z</time>
      </trkpt>
      <trkpt lat="46.13899" lon="6.52256">
        <ele>738</ele>
        <time>2021-06-26T06:26:19Z</time>
      </trkpt>
      <trkpt lat="46.13902" lon="6.52256">
        <ele>738.2</ele>
        <time>2021-06-26T06:26:20Z</time>
      </trkpt>
      <trkpt lat="46.13904" lon="6.52255">
        <ele>738.4</ele>
        <time>2021-06-26T06:26:21Z</time>
      </trkpt>
      <trkpt lat="46.13908" lon="6.52254">
        <ele>738.4</ele>
        <time>2021-06-26T06:26:22Z</time>
      </trkpt>
      <trkpt lat="46.1391" lon="6.52253">
        <ele>738.6</ele>
        <time>2021-06-26T06:26:23Z</time>
      </trkpt>
      <trkpt lat="46.13913" lon="6.52252">
        <ele>739</ele>
        <time>2021-06-26T06:26:24Z</time>
      </trkpt>
      <trkpt lat="46.13916" lon="6.52251">
        <ele>739.2</ele>
        <time>2021-06-26T06:26:25Z</time>
      </trkpt>
      <trkpt lat="46.13918" lon="6.52251">
        <ele>739.4</ele>
        <time>2021-06-26T06:26:26Z</time>
      </trkpt>
      <trkpt lat="46.13921" lon="6.5225">
        <ele>739.6</ele>
        <time>2021-06-26T06:26:27Z</time>
      </trkpt>
      <trkpt lat="46.13924" lon="6.5225">
        <ele>739.8</ele>
        <time>2021-06-26T06:26:28Z</time>
      </trkpt>
      <trkpt lat="46.13926" lon="6.52249">
        <ele>740</ele>
        <time>2021-06-26T06:26:29Z</time>
      </trkpt>
      <trkpt lat="46.13929" lon="6.52248">
        <ele>740.2</ele>
        <time>2021-06-26T06:26:30Z</time>
      </trkpt>
      <trkpt lat="46.13931" lon="6.52248">
        <ele>740.4</ele>
        <time>2021-06-26T06:26:31Z</time>
      </trkpt>
      <trkpt lat="46.13934" lon="6.52247">
        <ele>740.6</ele>
        <time>2021-06-26T06:26:32Z</time>
      </trkpt>
      <trkpt lat="46.13937" lon="6.52247">
        <ele>740.8</ele>
        <time>2021-06-26T06:26:33Z</time>
      </trkpt>
      <trkpt lat="46.13939" lon="6.52247">
        <ele>741</ele>
        <time>2021-06-26T06:26:34Z</time>
      </trkpt>
      <trkpt lat="46.13942" lon="6.52246">
        <ele>741.2</ele>
        <time>2021-06-26T06:26:35Z</time>
      </trkpt>
      <trkpt lat="46.13945" lon="6.52246">
        <ele>741.2</ele>
        <time>2021-06-26T06:26:36Z</time>
      </trkpt>
      <trkpt lat="46.13948" lon="6.52245">
        <ele>741.6</ele>
        <time>2021-06-26T06:26:37Z</time>
      </trkpt>
      <trkpt lat="46.1395" lon="6.52245">
        <ele>741.8</ele>
        <time>2021-06-26T06:26:38Z</time>
      </trkpt>
      <trkpt lat="46.13953" lon="6.52245">
        <ele>742</ele>
        <time>2021-06-26T06:26:39Z</time>
      </trkpt>
      <trkpt lat="46.13955" lon="6.52244">
        <ele>742.2</ele>
        <time>2021-06-26T06:26:40Z</time>
      </trkpt>
      <trkpt lat="46.13958" lon="6.52243">
        <ele>742.2</ele>
        <time>2021-06-26T06:26:41Z</time>
      </trkpt>
      <trkpt lat="46.13961" lon="6.52242">
        <ele>742.4</ele>
        <time>2021-06-26T06:26:42Z</time>
      </trkpt>
      <trkpt lat="46.13963" lon="6.52241">
        <ele>742.6</ele>
        <time>2021-06-26T06:26:43Z</time>
      </trkpt>
      <trkpt lat="46.13966" lon="6.5224">
        <ele>742.8</ele>
        <time>2021-06-26T06:26:44Z</time>
      </trkpt>
      <trkpt lat="46.13968" lon="6.52239">
        <ele>742.8</ele>
        <time>2021-06-26T06:26:45Z</time>
      </trkpt>
      <trkpt lat="46.13971" lon="6.52238">
        <ele>743.2</ele>
        <time>2021-06-26T06:26:46Z</time>
      </trkpt>
      <trkpt lat="46.13973" lon="6.52237">
        <ele>743.4</ele>
        <time>2021-06-26T06:26:47Z</time>
      </trkpt>
      <trkpt lat="46.13976" lon="6.52236">
        <ele>743.4</ele>
        <time>2021-06-26T06:26:48Z</time>
      </trkpt>
      <trkpt lat="46.13978" lon="6.52235">
        <ele>743.8</ele>
        <time>2021-06-26T06:26:49Z</time>
      </trkpt>
      <trkpt lat="46.13981" lon="6.52233">
        <ele>744</ele>
        <time>2021-06-26T06:26:50Z</time>
      </trkpt>
      <trkpt lat="46.13983" lon="6.52232">
        <ele>744.4</ele>
        <time>2021-06-26T06:26:51Z</time>
      </trkpt>
      <trkpt lat="46.13986" lon="6.52231">
        <ele>744.4</ele>
        <time>2021-06-26T06:26:52Z</time>
      </trkpt>
      <trkpt lat="46.13988" lon="6.52229">
        <ele>744.6</ele>
        <time>2021-06-26T06:26:53Z</time>
      </trkpt>
      <trkpt lat="46.13991" lon="6.52228">
        <ele>744.8</ele>
        <time>2021-06-26T06:26:54Z</time>
      </trkpt>
      <trkpt lat="46.13993" lon="6.52227">
        <ele>745.2</ele>
        <time>2021-06-26T06:26:55Z</time>
      </trkpt>
      <trkpt lat="46.13995" lon="6.52226">
        <ele>745.4</ele>
        <time>2021-06-26T06:26:56Z</time>
      </trkpt>
      <trkpt lat="46.13998" lon="6.52225">
        <ele>745.6</ele>
        <time>2021-06-26T06:26:57Z</time>
      </trkpt>
      <trkpt lat="46.14" lon="6.52224">
        <ele>745.8</ele>
        <time>2021-06-26T06:26:58Z</time>
      </trkpt>
      <trkpt lat="46.14002" lon="6.52223">
        <ele>746.2</ele>
        <time>2021-06-26T06:26:59Z</time>
      </trkpt>
      <trkpt lat="46.14005" lon="6.52223">
        <ele>746.4</ele>
        <time>2021-06-26T06:27:00Z</time>
      </trkpt>
      <trkpt lat="46.14007" lon="6.52222">
        <ele>746.6</ele>
        <time>2021-06-26T06:27:01Z</time>
      </trkpt>
      <trkpt lat="46.1401" lon="6.52221">
        <ele>746.8</ele>
        <time>2021-06-26T06:27:02Z</time>
      </trkpt>
      <trkpt lat="46.14012" lon="6.5222">
        <ele>747.2</ele>
        <time>2021-06-26T06:27:03Z</time>
      </trkpt>
      <trkpt lat="46.14015" lon="6.52219">
        <ele>747.6</ele>
        <time>2021-06-26T06:27:04Z</time>
      </trkpt>
      <trkpt lat="46.14017" lon="6.52219">
        <ele>747.8</ele>
        <time>2021-06-26T06:27:05Z</time>
      </trkpt>
      <trkpt lat="46.1402" lon="6.52218">
        <ele>747.8</ele>
        <time>2021-06-26T06:27:06Z</time>
      </trkpt>
      <trkpt lat="46.14022" lon="6.52218">
        <ele>748.2</ele>
        <time>2021-06-26T06:27:07Z</time>
      </trkpt>
      <trkpt lat="46.14024" lon="6.52218">
        <ele>748.4</ele>
        <time>2021-06-26T06:27:08Z</time>
      </trkpt>
      <trkpt lat="46.14026" lon="6.52217">
        <ele>748.8</ele>
        <time>2021-06-26T06:27:09Z</time>
      </trkpt>
      <trkpt lat="46.14029" lon="6.52217">
        <ele>749</ele>
        <time>2021-06-26T06:27:10Z</time>
      </trkpt>
      <trkpt lat="46.14031" lon="6.52216">
        <ele>749.2</ele>
        <time>2021-06-26T06:27:11Z</time>
      </trkpt>
      <trkpt lat="46.14033" lon="6.52216">
        <ele>749.4</ele>
        <time>2021-06-26T06:27:12Z</time>
      </trkpt>
      <trkpt lat="46.14035" lon="6.52216">
        <ele>749.6</ele>
        <time>2021-06-26T06:27:13Z</time>
      </trkpt>
      <trkpt lat="46.14037" lon="6.52217">
        <ele>749.8</ele>
        <time>2021-06-26T06:27:14Z</time>
      </trkpt>
      <trkpt lat="46.1404" lon="6.52217">
        <ele>750</ele>
        <time>2021-06-26T06:27:15Z</time>
      </trkpt>
      <trkpt lat="46.14042" lon="6.52219">
        <ele>750.4</ele>
        <time>2021-06-26T06:27:16Z</time>
      </trkpt>
      <trkpt lat="46.14044" lon="6.5222">
        <ele>750.6</ele>
        <time>2021-06-26T06:27:17Z</time>
      </trkpt>
      <trkpt lat="46.14047" lon="6.52221">
        <ele>751</ele>
        <time>2021-06-26T06:27:18Z</time>
      </trkpt>
      <trkpt lat="46.14049" lon="6.52222">
        <ele>751</ele>
        <time>2021-06-26T06:27:19Z</time>
      </trkpt>
      <trkpt lat="46.14052" lon="6.52223">
        <ele>751.4</ele>
        <time>2021-06-26T06:27:20Z</time>
      </trkpt>
      <trkpt lat="46.14054" lon="6.52225">
        <ele>751.4</ele>
        <time>2021-06-26T06:27:21Z</time>
      </trkpt>
      <trkpt lat="46.14057" lon="6.52227">
        <ele>751.6</ele>
        <time>2021-06-26T06:27:22Z</time>
      </trkpt>
      <trkpt lat="46.14059" lon="6.52228">
        <ele>751.6</ele>
        <time>2021-06-26T06:27:23Z</time>
      </trkpt>
      <trkpt lat="46.14062" lon="6.5223">
        <ele>752</ele>
        <time>2021-06-26T06:27:24Z</time>
      </trkpt>
      <trkpt lat="46.14064" lon="6.52231">
        <ele>752.4</ele>
        <time>2021-06-26T06:27:25Z</time>
      </trkpt>
      <trkpt lat="46.14067" lon="6.52233">
        <ele>752.6</ele>
        <time>2021-06-26T06:27:26Z</time>
      </trkpt>
      <trkpt lat="46.1407" lon="6.52234">
        <ele>752.6</ele>
        <time>2021-06-26T06:27:27Z</time>
      </trkpt>
      <trkpt lat="46.14072" lon="6.52235">
        <ele>752.8</ele>
        <time>2021-06-26T06:27:28Z</time>
      </trkpt>
      <trkpt lat="46.14075" lon="6.52235">
        <ele>752.8</ele>
        <time>2021-06-26T06:27:29Z</time>
      </trkpt>
      <trkpt lat="46.14078" lon="6.52236">
        <ele>753.2</ele>
        <time>2021-06-26T06:27:30Z</time>
      </trkpt>
      <trkpt lat="46.14081" lon="6.52237">
        <ele>753.4</ele>
        <time>2021-06-26T06:27:31Z</time>
      </trkpt>
      <trkpt lat="46.14084" lon="6.52237">
        <ele>753.6</ele>
        <time>2021-06-26T06:27:32Z</time>
      </trkpt>
      <trkpt lat="46.14087" lon="6.52237">
        <ele>753.8</ele>
        <time>2021-06-26T06:27:33Z</time>
      </trkpt>
      <trkpt lat="46.14089" lon="6.52237">
        <ele>754</ele>
        <time>2021-06-26T06:27:34Z</time>
      </trkpt>
      <trkpt lat="46.14092" lon="6.52236">
        <ele>754.2</ele>
        <time>2021-06-26T06:27:35Z</time>
      </trkpt>
      <trkpt lat="46.14094" lon="6.52236">
        <ele>754.6</ele>
        <time>2021-06-26T06:27:36Z</time>
      </trkpt>
      <trkpt lat="46.14097" lon="6.52235">
        <ele>754.8</ele>
        <time>2021-06-26T06:27:37Z</time>
      </trkpt>
      <trkpt lat="46.14099" lon="6.52234">
        <ele>755</ele>
        <time>2021-06-26T06:27:38Z</time>
      </trkpt>
      <trkpt lat="46.14102" lon="6.52233">
        <ele>755.4</ele>
        <time>2021-06-26T06:27:39Z</time>
      </trkpt>
      <trkpt lat="46.14104" lon="6.52232">
        <ele>755.6</ele>
        <time>2021-06-26T06:27:40Z</time>
      </trkpt>
      <trkpt lat="46.14107" lon="6.52231">
        <ele>755.8</ele>
        <time>2021-06-26T06:27:41Z</time>
      </trkpt>
      <trkpt lat="46.14109" lon="6.52229">
        <ele>756</ele>
        <time>2021-06-26T06:27:42Z</time>
      </trkpt>
      <trkpt lat="46.14111" lon="6.52227">
        <ele>756.2</ele>
        <time>2021-06-26T06:27:43Z</time>
      </trkpt>
      <trkpt lat="46.14113" lon="6.52226">
        <ele>756.4</ele>
        <time>2021-06-26T06:27:44Z</time>
      </trkpt>
      <trkpt lat="46.14115" lon="6.52224">
        <ele>756.6</ele>
        <time>2021-06-26T06:27:45Z</time>
      </trkpt>
      <trkpt lat="46.14118" lon="6.52222">
        <ele>756.8</ele>
        <time>2021-06-26T06:27:46Z</time>
      </trkpt>
      <trkpt lat="46.1412" lon="6.52219">
        <ele>757</ele>
        <time>2021-06-26T06:27:47Z</time>
      </trkpt>
      <trkpt lat="46.14123" lon="6.52216">
        <ele>757.2</ele>
        <time>2021-06-26T06:27:48Z</time>
      </trkpt>
      <trkpt lat="46.14125" lon="6.52214">
        <ele>757.4</ele>
        <time>2021-06-26T06:27:49Z</time>
      </trkpt>
      <trkpt lat="46.14127" lon="6.52212">
        <ele>757.6</ele>
        <time>2021-06-26T06:27:50Z</time>
      </trkpt>
      <trkpt lat="46.14129" lon="6.5221">
        <ele>757.6</ele>
        <time>2021-06-26T06:27:51Z</time>
      </trkpt>
      <trkpt lat="46.14131" lon="6.52207">
        <ele>757.8</ele>
        <time>2021-06-26T06:27:52Z</time>
      </trkpt>
      <trkpt lat="46.14134" lon="6.52205">
        <ele>758.2</ele>
        <time>2021-06-26T06:27:53Z</time>
      </trkpt>
      <trkpt lat="46.14136" lon="6.52202">
        <ele>758.4</ele>
        <time>2021-06-26T06:27:54Z</time>
      </trkpt>
      <trkpt lat="46.14138" lon="6.522">
        <ele>758.8</ele>
        <time>2021-06-26T06:27:55Z</time>
      </trkpt>
      <trkpt lat="46.1414" lon="6.52197">
        <ele>759</ele>
        <time>2021-06-26T06:27:56Z</time>
      </trkpt>
      <trkpt lat="46.14142" lon="6.52195">
        <ele>759</ele>
        <time>2021-06-26T06:27:57Z</time>
      </trkpt>
      <trkpt lat="46.14144" lon="6.52193">
        <ele>759.2</ele>
        <time>2021-06-26T06:27:58Z</time>
      </trkpt>
      <trkpt lat="46.14146" lon="6.52191">
        <ele>759.4</ele>
        <time>2021-06-26T06:27:59Z</time>
      </trkpt>
      <trkpt lat="46.14149" lon="6.52189">
        <ele>759.6</ele>
        <time>2021-06-26T06:28:00Z</time>
      </trkpt>
      <trkpt lat="46.14151" lon="6.52186">
        <ele>759.8</ele>
        <time>2021-06-26T06:28:01Z</time>
      </trkpt>
      <trkpt lat="46.14153" lon="6.52184">
        <ele>760.2</ele>
        <time>2021-06-26T06:28:02Z</time>
      </trkpt>
      <trkpt lat="46.14155" lon="6.52182">
        <ele>760.4</ele>
        <time>2021-06-26T06:28:03Z</time>
      </trkpt>
      <trkpt lat="46.14157" lon="6.5218">
        <ele>760.6</ele>
        <time>2021-06-26T06:28:04Z</time>
      </trkpt>
      <trkpt lat="46.1416" lon="6.52178">
        <ele>761</ele>
        <time>2021-06-26T06:28:05Z</time>
      </trkpt>
      <trkpt lat="46.14162" lon="6.52175">
        <ele>761</ele>
        <time>2021-06-26T06:28:06Z</time>
      </trkpt>
      <trkpt lat="46.14164" lon="6.52173">
        <ele>761.2</ele>
        <time>2021-06-26T06:28:07Z</time>
      </trkpt>
      <trkpt lat="46.14166" lon="6.52171">
        <ele>761.4</ele>
        <time>2021-06-26T06:28:08Z</time>
      </trkpt>
      <trkpt lat="46.14168" lon="6.52169">
        <ele>761.6</ele>
        <time>2021-06-26T06:28:09Z</time>
      </trkpt>
      <trkpt lat="46.14171" lon="6.52166">
        <ele>761.8</ele>
        <time>2021-06-26T06:28:10Z</time>
      </trkpt>
      <trkpt lat="46.14173" lon="6.52164">
        <ele>761.8</ele>
        <time>2021-06-26T06:28:11Z</time>
      </trkpt>
      <trkpt lat="46.14175" lon="6.52162">
        <ele>762.2</ele>
        <time>2021-06-26T06:28:12Z</time>
      </trkpt>
      <trkpt lat="46.14177" lon="6.5216">
        <ele>762.2</ele>
        <time>2021-06-26T06:28:13Z</time>
      </trkpt>
      <trkpt lat="46.14179" lon="6.52158">
        <ele>762.4</ele>
        <time>2021-06-26T06:28:14Z</time>
      </trkpt>
      <trkpt lat="46.14182" lon="6.52156">
        <ele>762.6</ele>
        <time>2021-06-26T06:28:15Z</time>
      </trkpt>
      <trkpt lat="46.14184" lon="6.52155">
        <ele>762.8</ele>
        <time>2021-06-26T06:28:16Z</time>
      </trkpt>
      <trkpt lat="46.14186" lon="6.52153">
        <ele>763.2</ele>
        <time>2021-06-26T06:28:17Z</time>
      </trkpt>
      <trkpt lat="46.14188" lon="6.52151">
        <ele>763.2</ele>
        <time>2021-06-26T06:28:18Z</time>
      </trkpt>
      <trkpt lat="46.1419" lon="6.52149">
        <ele>763.4</ele>
        <time>2021-06-26T06:28:19Z</time>
      </trkpt>
      <trkpt lat="46.14193" lon="6.52148">
        <ele>763.8</ele>
        <time>2021-06-26T06:28:20Z</time>
      </trkpt>
      <trkpt lat="46.14195" lon="6.52147">
        <ele>764</ele>
        <time>2021-06-26T06:28:21Z</time>
      </trkpt>
      <trkpt lat="46.14197" lon="6.52145">
        <ele>764.2</ele>
        <time>2021-06-26T06:28:22Z</time>
      </trkpt>
      <trkpt lat="46.142" lon="6.52144">
        <ele>764.4</ele>
        <time>2021-06-26T06:28:23Z</time>
      </trkpt>
      <trkpt lat="46.14202" lon="6.52142">
        <ele>764.6</ele>
        <time>2021-06-26T06:28:24Z</time>
      </trkpt>
      <trkpt lat="46.14204" lon="6.52141">
        <ele>764.8</ele>
        <time>2021-06-26T06:28:25Z</time>
      </trkpt>
      <trkpt lat="46.14207" lon="6.52139">
        <ele>765.2</ele>
        <time>2021-06-26T06:28:26Z</time>
      </trkpt>
      <trkpt lat="46.14209" lon="6.52137">
        <ele>765.4</ele>
        <time>2021-06-26T06:28:27Z</time>
      </trkpt>
      <trkpt lat="46.14211" lon="6.52136">
        <ele>765.8</ele>
        <time>2021-06-26T06:28:28Z</time>
      </trkpt>
      <trkpt lat="46.14214" lon="6.52134">
        <ele>766</ele>
        <time>2021-06-26T06:28:29Z</time>
      </trkpt>
      <trkpt lat="46.14216" lon="6.52132">
        <ele>766.2</ele>
        <time>2021-06-26T06:28:30Z</time>
      </trkpt>
      <trkpt lat="46.14219" lon="6.52131">
        <ele>766.4</ele>
        <time>2021-06-26T06:28:31Z</time>
      </trkpt>
      <trkpt lat="46.14221" lon="6.52129">
        <ele>766.6</ele>
        <time>2021-06-26T06:28:32Z</time>
      </trkpt>
      <trkpt lat="46.14223" lon="6.52127">
        <ele>766.8</ele>
        <time>2021-06-26T06:28:33Z</time>
      </trkpt>
      <trkpt lat="46.14226" lon="6.52126">
        <ele>766.8</ele>
        <time>2021-06-26T06:28:34Z</time>
      </trkpt>
      <trkpt lat="46.14228" lon="6.52124">
        <ele>767</ele>
        <time>2021-06-26T06:28:35Z</time>
      </trkpt>
      <trkpt lat="46.1423" lon="6.52122">
        <ele>767.4</ele>
        <time>2021-06-26T06:28:36Z</time>
      </trkpt>
      <trkpt lat="46.14232" lon="6.5212">
        <ele>767.4</ele>
        <time>2021-06-26T06:28:37Z</time>
      </trkpt>
      <trkpt lat="46.14235" lon="6.52118">
        <ele>767.6</ele>
        <time>2021-06-26T06:28:38Z</time>
      </trkpt>
      <trkpt lat="46.14237" lon="6.52116">
        <ele>768</ele>
        <time>2021-06-26T06:28:39Z</time>
      </trkpt>
      <trkpt lat="46.14239" lon="6.52114">
        <ele>768.2</ele>
        <time>2021-06-26T06:28:40Z</time>
      </trkpt>
      <trkpt lat="46.14241" lon="6.52111">
        <ele>768.2</ele>
        <time>2021-06-26T06:28:41Z</time>
      </trkpt>
      <trkpt lat="46.14243" lon="6.52109">
        <ele>768.8</ele>
        <time>2021-06-26T06:28:42Z</time>
      </trkpt>
      <trkpt lat="46.14245" lon="6.52107">
        <ele>769</ele>
        <time>2021-06-26T06:28:43Z</time>
      </trkpt>
      <trkpt lat="46.14247" lon="6.52104">
        <ele>769.2</ele>
        <time>2021-06-26T06:28:44Z</time>
      </trkpt>
      <trkpt lat="46.14249" lon="6.52102">
        <ele>769.4</ele>
        <time>2021-06-26T06:28:45Z</time>
      </trkpt>
      <trkpt lat="46.14251" lon="6.52099">
        <ele>769.6</ele>
        <time>2021-06-26T06:28:46Z</time>
      </trkpt>
      <trkpt lat="46.14253" lon="6.52096">
        <ele>770</ele>
        <time>2021-06-26T06:28:47Z</time>
      </trkpt>
      <trkpt lat="46.14254" lon="6.52094">
        <ele>770</ele>
        <time>2021-06-26T06:28:48Z</time>
      </trkpt>
      <trkpt lat="46.14256" lon="6.52091">
        <ele>770.2</ele>
        <time>2021-06-26T06:28:49Z</time>
      </trkpt>
      <trkpt lat="46.14258" lon="6.52088">
        <ele>770.4</ele>
        <time>2021-06-26T06:28:50Z</time>
      </trkpt>
      <trkpt lat="46.1426" lon="6.52085">
        <ele>770.8</ele>
        <time>2021-06-26T06:28:51Z</time>
      </trkpt>
      <trkpt lat="46.14262" lon="6.52082">
        <ele>770.8</ele>
        <time>2021-06-26T06:28:52Z</time>
      </trkpt>
      <trkpt lat="46.14263" lon="6.52079">
        <ele>771</ele>
        <time>2021-06-26T06:28:53Z</time>
      </trkpt>
      <trkpt lat="46.14265" lon="6.52075">
        <ele>771.4</ele>
        <time>2021-06-26T06:28:54Z</time>
      </trkpt>
      <trkpt lat="46.14267" lon="6.52072">
        <ele>771.4</ele>
        <time>2021-06-26T06:28:55Z</time>
      </trkpt>
      <trkpt lat="46.14268" lon="6.52069">
        <ele>771.4</ele>
        <time>2021-06-26T06:28:56Z</time>
      </trkpt>
      <trkpt lat="46.1427" lon="6.52066">
        <ele>771.6</ele>
        <time>2021-06-26T06:28:57Z</time>
      </trkpt>
      <trkpt lat="46.14272" lon="6.52064">
        <ele>771.8</ele>
        <time>2021-06-26T06:28:58Z</time>
      </trkpt>
      <trkpt lat="46.14273" lon="6.52062">
        <ele>772.2</ele>
        <time>2021-06-26T06:28:59Z</time>
      </trkpt>
      <trkpt lat="46.14275" lon="6.52059">
        <ele>772.2</ele>
        <time>2021-06-26T06:29:00Z</time>
      </trkpt>
      <trkpt lat="46.14277" lon="6.52057">
        <ele>772.6</ele>
        <time>2021-06-26T06:29:01Z</time>
      </trkpt>
      <trkpt lat="46.14279" lon="6.52055">
        <ele>772.8</ele>
        <time>2021-06-26T06:29:02Z</time>
      </trkpt>
      <trkpt lat="46.14281" lon="6.52053">
        <ele>773.2</ele>
        <time>2021-06-26T06:29:03Z</time>
      </trkpt>
      <trkpt lat="46.14283" lon="6.52051">
        <ele>773.2</ele>
        <time>2021-06-26T06:29:04Z</time>
      </trkpt>
      <trkpt lat="46.14284" lon="6.5205">
        <ele>773.4</ele>
        <time>2021-06-26T06:29:05Z</time>
      </trkpt>
      <trkpt lat="46.14286" lon="6.52048">
        <ele>773.6</ele>
        <time>2021-06-26T06:29:06Z</time>
      </trkpt>
      <trkpt lat="46.14289" lon="6.52047">
        <ele>773.6</ele>
        <time>2021-06-26T06:29:07Z</time>
      </trkpt>
      <trkpt lat="46.14291" lon="6.52045">
        <ele>773.8</ele>
        <time>2021-06-26T06:29:08Z</time>
      </trkpt>
      <trkpt lat="46.14293" lon="6.52044">
        <ele>774.2</ele>
        <time>2021-06-26T06:29:09Z</time>
      </trkpt>
      <trkpt lat="46.14295" lon="6.52043">
        <ele>774.6</ele>
        <time>2021-06-26T06:29:10Z</time>
      </trkpt>
      <trkpt lat="46.14297" lon="6.52042">
        <ele>774.8</ele>
        <time>2021-06-26T06:29:11Z</time>
      </trkpt>
      <trkpt lat="46.143" lon="6.52041">
        <ele>775</ele>
        <time>2021-06-26T06:29:12Z</time>
      </trkpt>
      <trkpt lat="46.14303" lon="6.52041">
        <ele>775.2</ele>
        <time>2021-06-26T06:29:13Z</time>
      </trkpt>
      <trkpt lat="46.14305" lon="6.5204">
        <ele>775.4</ele>
        <time>2021-06-26T06:29:14Z</time>
      </trkpt>
      <trkpt lat="46.14308" lon="6.5204">
        <ele>775.6</ele>
        <time>2021-06-26T06:29:15Z</time>
      </trkpt>
      <trkpt lat="46.14311" lon="6.5204">
        <ele>775.8</ele>
        <time>2021-06-26T06:29:16Z</time>
      </trkpt>
      <trkpt lat="46.14313" lon="6.52039">
        <ele>775.8</ele>
        <time>2021-06-26T06:29:17Z</time>
      </trkpt>
      <trkpt lat="46.14316" lon="6.52039">
        <ele>776</ele>
        <time>2021-06-26T06:29:18Z</time>
      </trkpt>
      <trkpt lat="46.14319" lon="6.52039">
        <ele>776.4</ele>
        <time>2021-06-26T06:29:19Z</time>
      </trkpt>
      <trkpt lat="46.14322" lon="6.52039">
        <ele>776.8</ele>
        <time>2021-06-26T06:29:20Z</time>
      </trkpt>
      <trkpt lat="46.14325" lon="6.52039">
        <ele>776.8</ele>
        <time>2021-06-26T06:29:21Z</time>
      </trkpt>
      <trkpt lat="46.14327" lon="6.52039">
        <ele>777.2</ele>
        <time>2021-06-26T06:29:22Z</time>
      </trkpt>
      <trkpt lat="46.1433" lon="6.52039">
        <ele>777.4</ele>
        <time>2021-06-26T06:29:23Z</time>
      </trkpt>
      <trkpt lat="46.14333" lon="6.5204">
        <ele>777.6</ele>
        <time>2021-06-26T06:29:24Z</time>
      </trkpt>
      <trkpt lat="46.14336" lon="6.5204">
        <ele>777.8</ele>
        <time>2021-06-26T06:29:25Z</time>
      </trkpt>
      <trkpt lat="46.14338" lon="6.5204">
        <ele>778</ele>
        <time>2021-06-26T06:29:26Z</time>
      </trkpt>
      <trkpt lat="46.14341" lon="6.5204">
        <ele>778</ele>
        <time>2021-06-26T06:29:27Z</time>
      </trkpt>
      <trkpt lat="46.14344" lon="6.5204">
        <ele>778.2</ele>
        <time>2021-06-26T06:29:28Z</time>
      </trkpt>
      <trkpt lat="46.14347" lon="6.5204">
        <ele>778.4</ele>
        <time>2021-06-26T06:29:29Z</time>
      </trkpt>
      <trkpt lat="46.1435" lon="6.5204">
        <ele>778.8</ele>
        <time>2021-06-26T06:29:30Z</time>
      </trkpt>
      <trkpt lat="46.14353" lon="6.5204">
        <ele>779</ele>
        <time>2021-06-26T06:29:31Z</time>
      </trkpt>
      <trkpt lat="46.14355" lon="6.5204">
        <ele>779.2</ele>
        <time>2021-06-26T06:29:32Z</time>
      </trkpt>
      <trkpt lat="46.14358" lon="6.5204">
        <ele>779.4</ele>
        <time>2021-06-26T06:29:33Z</time>
      </trkpt>
      <trkpt lat="46.1436" lon="6.5204">
        <ele>779.8</ele>
        <time>2021-06-26T06:29:34Z</time>
      </trkpt>
      <trkpt lat="46.14363" lon="6.5204">
        <ele>780</ele>
        <time>2021-06-26T06:29:35Z</time>
      </trkpt>
      <trkpt lat="46.14366" lon="6.5204">
        <ele>780.4</ele>
        <time>2021-06-26T06:29:36Z</time>
      </trkpt>
      <trkpt lat="46.14368" lon="6.5204">
        <ele>780.6</ele>
        <time>2021-06-26T06:29:37Z</time>
      </trkpt>
      <trkpt lat="46.1437" lon="6.5204">
        <ele>781</ele>
        <time>2021-06-26T06:29:38Z</time>
      </trkpt>
      <trkpt lat="46.14373" lon="6.52039">
        <ele>781</ele>
        <time>2021-06-26T06:29:39Z</time>
      </trkpt>
      <trkpt lat="46.14375" lon="6.52038">
        <ele>781</ele>
        <time>2021-06-26T06:29:40Z</time>
      </trkpt>
      <trkpt lat="46.14377" lon="6.52038">
        <ele>781.2</ele>
        <time>2021-06-26T06:29:41Z</time>
      </trkpt>
      <trkpt lat="46.1438" lon="6.52036">
        <ele>781.6</ele>
        <time>2021-06-26T06:29:42Z</time>
      </trkpt>
      <trkpt lat="46.14382" lon="6.52035">
        <ele>781.8</ele>
        <time>2021-06-26T06:29:43Z</time>
      </trkpt>
      <trkpt lat="46.14385" lon="6.52033">
        <ele>782.2</ele>
        <time>2021-06-26T06:29:44Z</time>
      </trkpt>
      <trkpt lat="46.14387" lon="6.52031">
        <ele>782.4</ele>
        <time>2021-06-26T06:29:45Z</time>
      </trkpt>
      <trkpt lat="46.14389" lon="6.52028">
        <ele>782.6</ele>
        <time>2021-06-26T06:29:46Z</time>
      </trkpt>
      <trkpt lat="46.14391" lon="6.52025">
        <ele>783</ele>
        <time>2021-06-26T06:29:47Z</time>
      </trkpt>
      <trkpt lat="46.14394" lon="6.52022">
        <ele>783</ele>
        <time>2021-06-26T06:29:48Z</time>
      </trkpt>
      <trkpt lat="46.14396" lon="6.52019">
        <ele>783.4</ele>
        <time>2021-06-26T06:29:49Z</time>
      </trkpt>
      <trkpt lat="46.14398" lon="6.52016">
        <ele>783.6</ele>
        <time>2021-06-26T06:29:50Z</time>
      </trkpt>
      <trkpt lat="46.144" lon="6.52013">
        <ele>783.8</ele>
        <time>2021-06-26T06:29:51Z</time>
      </trkpt>
      <trkpt lat="46.14401" lon="6.52009">
        <ele>784</ele>
        <time>2021-06-26T06:29:52Z</time>
      </trkpt>
      <trkpt lat="46.14403" lon="6.52006">
        <ele>784.2</ele>
        <time>2021-06-26T06:29:53Z</time>
      </trkpt>
      <trkpt lat="46.14405" lon="6.52002">
        <ele>784.4</ele>
        <time>2021-06-26T06:29:54Z</time>
      </trkpt>
      <trkpt lat="46.14407" lon="6.51999">
        <ele>784.6</ele>
        <time>2021-06-26T06:29:55Z</time>
      </trkpt>
      <trkpt lat="46.14408" lon="6.51997">
        <ele>784.8</ele>
        <time>2021-06-26T06:29:56Z</time>
      </trkpt>
      <trkpt lat="46.14411" lon="6.51994">
        <ele>784.8</ele>
        <time>2021-06-26T06:29:57Z</time>
      </trkpt>
      <trkpt lat="46.14413" lon="6.51992">
        <ele>785.2</ele>
        <time>2021-06-26T06:29:58Z</time>
      </trkpt>
      <trkpt lat="46.14415" lon="6.5199">
        <ele>785.2</ele>
        <time>2021-06-26T06:29:59Z</time>
      </trkpt>
      <trkpt lat="46.14417" lon="6.51989">
        <ele>785.6</ele>
        <time>2021-06-26T06:30:00Z</time>
      </trkpt>
      <trkpt lat="46.14419" lon="6.51989">
        <ele>785.6</ele>
        <time>2021-06-26T06:30:01Z</time>
      </trkpt>
      <trkpt lat="46.14422" lon="6.51989">
        <ele>785.8</ele>
        <time>2021-06-26T06:30:02Z</time>
      </trkpt>
      <trkpt lat="46.14424" lon="6.5199">
        <ele>786</ele>
        <time>2021-06-26T06:30:03Z</time>
      </trkpt>
      <trkpt lat="46.14426" lon="6.51991">
        <ele>786</ele>
        <time>2021-06-26T06:30:04Z</time>
      </trkpt>
      <trkpt lat="46.14428" lon="6.51992">
        <ele>786.4</ele>
        <time>2021-06-26T06:30:05Z</time>
      </trkpt>
      <trkpt lat="46.14431" lon="6.51993">
        <ele>786.4</ele>
        <time>2021-06-26T06:30:06Z</time>
      </trkpt>
      <trkpt lat="46.14432" lon="6.51995">
        <ele>786.6</ele>
        <time>2021-06-26T06:30:07Z</time>
      </trkpt>
      <trkpt lat="46.14434" lon="6.51996">
        <ele>786.8</ele>
        <time>2021-06-26T06:30:08Z</time>
      </trkpt>
      <trkpt lat="46.14436" lon="6.51998">
        <ele>787</ele>
        <time>2021-06-26T06:30:09Z</time>
      </trkpt>
      <trkpt lat="46.14438" lon="6.52">
        <ele>787.2</ele>
        <time>2021-06-26T06:30:10Z</time>
      </trkpt>
      <trkpt lat="46.1444" lon="6.52002">
        <ele>787.6</ele>
        <time>2021-06-26T06:30:11Z</time>
      </trkpt>
      <trkpt lat="46.14442" lon="6.52004">
        <ele>788</ele>
        <time>2021-06-26T06:30:12Z</time>
      </trkpt>
      <trkpt lat="46.14444" lon="6.52006">
        <ele>788.4</ele>
        <time>2021-06-26T06:30:13Z</time>
      </trkpt>
      <trkpt lat="46.14447" lon="6.52008">
        <ele>788.6</ele>
        <time>2021-06-26T06:30:14Z</time>
      </trkpt>
      <trkpt lat="46.14449" lon="6.5201">
        <ele>788.8</ele>
        <time>2021-06-26T06:30:15Z</time>
      </trkpt>
      <trkpt lat="46.14451" lon="6.52012">
        <ele>789.2</ele>
        <time>2021-06-26T06:30:16Z</time>
      </trkpt>
      <trkpt lat="46.14454" lon="6.52013">
        <ele>789.8</ele>
        <time>2021-06-26T06:30:17Z</time>
      </trkpt>
      <trkpt lat="46.14456" lon="6.52015">
        <ele>790</ele>
        <time>2021-06-26T06:30:18Z</time>
      </trkpt>
      <trkpt lat="46.14459" lon="6.52016">
        <ele>790.2</ele>
        <time>2021-06-26T06:30:19Z</time>
      </trkpt>
      <trkpt lat="46.14461" lon="6.52017">
        <ele>790.4</ele>
        <time>2021-06-26T06:30:20Z</time>
      </trkpt>
      <trkpt lat="46.14464" lon="6.52019">
        <ele>790.6</ele>
        <time>2021-06-26T06:30:21Z</time>
      </trkpt>
      <trkpt lat="46.14467" lon="6.5202">
        <ele>790.8</ele>
        <time>2021-06-26T06:30:22Z</time>
      </trkpt>
      <trkpt lat="46.1447" lon="6.52021">
        <ele>790.8</ele>
        <time>2021-06-26T06:30:23Z</time>
      </trkpt>
      <trkpt lat="46.14473" lon="6.52022">
        <ele>791</ele>
        <time>2021-06-26T06:30:24Z</time>
      </trkpt>
      <trkpt lat="46.14476" lon="6.52023">
        <ele>791.2</ele>
        <time>2021-06-26T06:30:25Z</time>
      </trkpt>
      <trkpt lat="46.1448" lon="6.52023">
        <ele>791.4</ele>
        <time>2021-06-26T06:30:26Z</time>
      </trkpt>
      <trkpt lat="46.14484" lon="6.52023">
        <ele>791.6</ele>
        <time>2021-06-26T06:30:27Z</time>
      </trkpt>
      <trkpt lat="46.14488" lon="6.52022">
        <ele>791.6</ele>
        <time>2021-06-26T06:30:28Z</time>
      </trkpt>
      <trkpt lat="46.14492" lon="6.52021">
        <ele>791.8</ele>
        <time>2021-06-26T06:30:29Z</time>
      </trkpt>
      <trkpt lat="46.14496" lon="6.52019">
        <ele>791.6</ele>
        <time>2021-06-26T06:30:30Z</time>
      </trkpt>
      <trkpt lat="46.14501" lon="6.52018">
        <ele>791.6</ele>
        <time>2021-06-26T06:30:31Z</time>
      </trkpt>
      <trkpt lat="46.14505" lon="6.52017">
        <ele>791.8</ele>
        <time>2021-06-26T06:30:32Z</time>
      </trkpt>
      <trkpt lat="46.14509" lon="6.52016">
        <ele>791.8</ele>
        <time>2021-06-26T06:30:33Z</time>
      </trkpt>
      <trkpt lat="46.14513" lon="6.52016">
        <ele>791.8</ele>
        <time>2021-06-26T06:30:34Z</time>
      </trkpt>
      <trkpt lat="46.14517" lon="6.52014">
        <ele>791.8</ele>
        <time>2021-06-26T06:30:35Z</time>
      </trkpt>
      <trkpt lat="46.14527" lon="6.52012">
        <ele>791.6</ele>
        <time>2021-06-26T06:30:37Z</time>
      </trkpt>
      <trkpt lat="46.14538" lon="6.52012">
        <ele>791.4</ele>
        <time>2021-06-26T06:30:39Z</time>
      </trkpt>
      <trkpt lat="46.1455" lon="6.52014">
        <ele>791.2</ele>
        <time>2021-06-26T06:30:41Z</time>
      </trkpt>
      <trkpt lat="46.14576" lon="6.52016">
        <ele>790.6</ele>
        <time>2021-06-26T06:30:45Z</time>
      </trkpt>
      <trkpt lat="46.14583" lon="6.52016">
        <ele>790</ele>
        <time>2021-06-26T06:30:46Z</time>
      </trkpt>
      <trkpt lat="46.1459" lon="6.52016">
        <ele>789.6</ele>
        <time>2021-06-26T06:30:47Z</time>
      </trkpt>
      <trkpt lat="46.14597" lon="6.52018">
        <ele>789</ele>
        <time>2021-06-26T06:30:48Z</time>
      </trkpt>
      <trkpt lat="46.14605" lon="6.5202">
        <ele>788.6</ele>
        <time>2021-06-26T06:30:49Z</time>
      </trkpt>
      <trkpt lat="46.14613" lon="6.5202">
        <ele>788.4</ele>
        <time>2021-06-26T06:30:50Z</time>
      </trkpt>
      <trkpt lat="46.14621" lon="6.52021">
        <ele>788</ele>
        <time>2021-06-26T06:30:51Z</time>
      </trkpt>
      <trkpt lat="46.1463" lon="6.52021">
        <ele>787.6</ele>
        <time>2021-06-26T06:30:52Z</time>
      </trkpt>
      <trkpt lat="46.14638" lon="6.52019">
        <ele>787.4</ele>
        <time>2021-06-26T06:30:53Z</time>
      </trkpt>
      <trkpt lat="46.14646" lon="6.52014">
        <ele>786.8</ele>
        <time>2021-06-26T06:30:54Z</time>
      </trkpt>
      <trkpt lat="46.14654" lon="6.52007">
        <ele>786.2</ele>
        <time>2021-06-26T06:30:55Z</time>
      </trkpt>
      <trkpt lat="46.14662" lon="6.51987">
        <ele>785.4</ele>
        <time>2021-06-26T06:30:57Z</time>
      </trkpt>
      <trkpt lat="46.14663" lon="6.51982">
        <ele>784.6</ele>
        <time>2021-06-26T06:30:58Z</time>
      </trkpt>
      <trkpt lat="46.14661" lon="6.51972">
        <ele>784.2</ele>
        <time>2021-06-26T06:30:59Z</time>
      </trkpt>
      <trkpt lat="46.14657" lon="6.51963">
        <ele>783.8</ele>
        <time>2021-06-26T06:31:00Z</time>
      </trkpt>
      <trkpt lat="46.14652" lon="6.51954">
        <ele>783</ele>
        <time>2021-06-26T06:31:01Z</time>
      </trkpt>
      <trkpt lat="46.14647" lon="6.51944">
        <ele>782.8</ele>
        <time>2021-06-26T06:31:02Z</time>
      </trkpt>
      <trkpt lat="46.14638" lon="6.51923">
        <ele>781.4</ele>
        <time>2021-06-26T06:31:04Z</time>
      </trkpt>
      <trkpt lat="46.14635" lon="6.51913">
        <ele>780.6</ele>
        <time>2021-06-26T06:31:05Z</time>
      </trkpt>
      <trkpt lat="46.14632" lon="6.51904">
        <ele>780.6</ele>
        <time>2021-06-26T06:31:06Z</time>
      </trkpt>
      <trkpt lat="46.14629" lon="6.51896">
        <ele>780.2</ele>
        <time>2021-06-26T06:31:07Z</time>
      </trkpt>
      <trkpt lat="46.14627" lon="6.51889">
        <ele>780.2</ele>
        <time>2021-06-26T06:31:08Z</time>
      </trkpt>
      <trkpt lat="46.14626" lon="6.51883">
        <ele>780</ele>
        <time>2021-06-26T06:31:09Z</time>
      </trkpt>
      <trkpt lat="46.14625" lon="6.51879">
        <ele>780</ele>
        <time>2021-06-26T06:31:10Z</time>
      </trkpt>
      <trkpt lat="46.14624" lon="6.51873">
        <ele>779.8</ele>
        <time>2021-06-26T06:31:11Z</time>
      </trkpt>
      <trkpt lat="46.14624" lon="6.51867">
        <ele>779.8</ele>
        <time>2021-06-26T06:31:12Z</time>
      </trkpt>
      <trkpt lat="46.14624" lon="6.51861">
        <ele>779.8</ele>
        <time>2021-06-26T06:31:13Z</time>
      </trkpt>
      <trkpt lat="46.14625" lon="6.51856">
        <ele>780</ele>
        <time>2021-06-26T06:31:14Z</time>
      </trkpt>
      <trkpt lat="46.14625" lon="6.51849">
        <ele>779.8</ele>
        <time>2021-06-26T06:31:15Z</time>
      </trkpt>
      <trkpt lat="46.14626" lon="6.51843">
        <ele>780.4</ele>
        <time>2021-06-26T06:31:16Z</time>
      </trkpt>
      <trkpt lat="46.14628" lon="6.51837">
        <ele>780.8</ele>
        <time>2021-06-26T06:31:17Z</time>
      </trkpt>
      <trkpt lat="46.1463" lon="6.51832">
        <ele>781.4</ele>
        <time>2021-06-26T06:31:18Z</time>
      </trkpt>
      <trkpt lat="46.14631" lon="6.51827">
        <ele>781.8</ele>
        <time>2021-06-26T06:31:19Z</time>
      </trkpt>
      <trkpt lat="46.14633" lon="6.51822">
        <ele>782.4</ele>
        <time>2021-06-26T06:31:20Z</time>
      </trkpt>
      <trkpt lat="46.14635" lon="6.51817">
        <ele>782.8</ele>
        <time>2021-06-26T06:31:21Z</time>
      </trkpt>
      <trkpt lat="46.14637" lon="6.51811">
        <ele>783.2</ele>
        <time>2021-06-26T06:31:22Z</time>
      </trkpt>
      <trkpt lat="46.14638" lon="6.51807">
        <ele>783.8</ele>
        <time>2021-06-26T06:31:23Z</time>
      </trkpt>
      <trkpt lat="46.1464" lon="6.51803">
        <ele>784.4</ele>
        <time>2021-06-26T06:31:24Z</time>
      </trkpt>
      <trkpt lat="46.14643" lon="6.51799">
        <ele>784.6</ele>
        <time>2021-06-26T06:31:25Z</time>
      </trkpt>
      <trkpt lat="46.14646" lon="6.51794">
        <ele>785</ele>
        <time>2021-06-26T06:31:26Z</time>
      </trkpt>
      <trkpt lat="46.14649" lon="6.51789">
        <ele>785</ele>
        <time>2021-06-26T06:31:27Z</time>
      </trkpt>
      <trkpt lat="46.14651" lon="6.51785">
        <ele>785.6</ele>
        <time>2021-06-26T06:31:28Z</time>
      </trkpt>
      <trkpt lat="46.14654" lon="6.51781">
        <ele>785.6</ele>
        <time>2021-06-26T06:31:29Z</time>
      </trkpt>
      <trkpt lat="46.14657" lon="6.51777">
        <ele>786.2</ele>
        <time>2021-06-26T06:31:30Z</time>
      </trkpt>
      <trkpt lat="46.14659" lon="6.51774">
        <ele>786.6</ele>
        <time>2021-06-26T06:31:31Z</time>
      </trkpt>
      <trkpt lat="46.14662" lon="6.5177">
        <ele>787</ele>
        <time>2021-06-26T06:31:32Z</time>
      </trkpt>
      <trkpt lat="46.14664" lon="6.51766">
        <ele>787</ele>
        <time>2021-06-26T06:31:33Z</time>
      </trkpt>
      <trkpt lat="46.14667" lon="6.51762">
        <ele>787.2</ele>
        <time>2021-06-26T06:31:34Z</time>
      </trkpt>
      <trkpt lat="46.14669" lon="6.51758">
        <ele>787.6</ele>
        <time>2021-06-26T06:31:35Z</time>
      </trkpt>
      <trkpt lat="46.14671" lon="6.51754">
        <ele>787.8</ele>
        <time>2021-06-26T06:31:36Z</time>
      </trkpt>
      <trkpt lat="46.14673" lon="6.5175">
        <ele>788.2</ele>
        <time>2021-06-26T06:31:37Z</time>
      </trkpt>
      <trkpt lat="46.14674" lon="6.51745">
        <ele>788.4</ele>
        <time>2021-06-26T06:31:38Z</time>
      </trkpt>
      <trkpt lat="46.14675" lon="6.51741">
        <ele>788.6</ele>
        <time>2021-06-26T06:31:39Z</time>
      </trkpt>
      <trkpt lat="46.14676" lon="6.51736">
        <ele>788.8</ele>
        <time>2021-06-26T06:31:40Z</time>
      </trkpt>
      <trkpt lat="46.14677" lon="6.51731">
        <ele>789.2</ele>
        <time>2021-06-26T06:31:41Z</time>
      </trkpt>
      <trkpt lat="46.14677" lon="6.51727">
        <ele>789.2</ele>
        <time>2021-06-26T06:31:42Z</time>
      </trkpt>
      <trkpt lat="46.14678" lon="6.51722">
        <ele>789.6</ele>
        <time>2021-06-26T06:31:43Z</time>
      </trkpt>
      <trkpt lat="46.14678" lon="6.51718">
        <ele>789.6</ele>
        <time>2021-06-26T06:31:44Z</time>
      </trkpt>
      <trkpt lat="46.14678" lon="6.51713">
        <ele>790</ele>
        <time>2021-06-26T06:31:45Z</time>
      </trkpt>
      <trkpt lat="46.14678" lon="6.51708">
        <ele>790.4</ele>
        <time>2021-06-26T06:31:46Z</time>
      </trkpt>
      <trkpt lat="46.14677" lon="6.51703">
        <ele>790.6</ele>
        <time>2021-06-26T06:31:47Z</time>
      </trkpt>
      <trkpt lat="46.14677" lon="6.51698">
        <ele>790.8</ele>
        <time>2021-06-26T06:31:48Z</time>
      </trkpt>
      <trkpt lat="46.14677" lon="6.51693">
        <ele>790.8</ele>
        <time>2021-06-26T06:31:49Z</time>
      </trkpt>
      <trkpt lat="46.14677" lon="6.51689">
        <ele>791</ele>
        <time>2021-06-26T06:31:50Z</time>
      </trkpt>
      <trkpt lat="46.14676" lon="6.51684">
        <ele>791.4</ele>
        <time>2021-06-26T06:31:51Z</time>
      </trkpt>
      <trkpt lat="46.14675" lon="6.51679">
        <ele>791.8</ele>
        <time>2021-06-26T06:31:52Z</time>
      </trkpt>
      <trkpt lat="46.14675" lon="6.51674">
        <ele>791.8</ele>
        <time>2021-06-26T06:31:53Z</time>
      </trkpt>
      <trkpt lat="46.14674" lon="6.5167">
        <ele>792.2</ele>
        <time>2021-06-26T06:31:54Z</time>
      </trkpt>
      <trkpt lat="46.14674" lon="6.51666">
        <ele>792.4</ele>
        <time>2021-06-26T06:31:55Z</time>
      </trkpt>
      <trkpt lat="46.14673" lon="6.51661">
        <ele>792.6</ele>
        <time>2021-06-26T06:31:56Z</time>
      </trkpt>
      <trkpt lat="46.14672" lon="6.51657">
        <ele>792.8</ele>
        <time>2021-06-26T06:31:57Z</time>
      </trkpt>
      <trkpt lat="46.14672" lon="6.51653">
        <ele>793</ele>
        <time>2021-06-26T06:31:58Z</time>
      </trkpt>
      <trkpt lat="46.1467" lon="6.51649">
        <ele>793.2</ele>
        <time>2021-06-26T06:31:59Z</time>
      </trkpt>
      <trkpt lat="46.14669" lon="6.51645">
        <ele>793.6</ele>
        <time>2021-06-26T06:32:00Z</time>
      </trkpt>
      <trkpt lat="46.14667" lon="6.51641">
        <ele>793.6</ele>
        <time>2021-06-26T06:32:01Z</time>
      </trkpt>
      <trkpt lat="46.14665" lon="6.51638">
        <ele>793.8</ele>
        <time>2021-06-26T06:32:02Z</time>
      </trkpt>
      <trkpt lat="46.14662" lon="6.51635">
        <ele>794.2</ele>
        <time>2021-06-26T06:32:03Z</time>
      </trkpt>
      <trkpt lat="46.1466" lon="6.51632">
        <ele>794.6</ele>
        <time>2021-06-26T06:32:04Z</time>
      </trkpt>
      <trkpt lat="46.14658" lon="6.51629">
        <ele>794.8</ele>
        <time>2021-06-26T06:32:05Z</time>
      </trkpt>
      <trkpt lat="46.14655" lon="6.51627">
        <ele>795.2</ele>
        <time>2021-06-26T06:32:06Z</time>
      </trkpt>
      <trkpt lat="46.14653" lon="6.51625">
        <ele>795.4</ele>
        <time>2021-06-26T06:32:07Z</time>
      </trkpt>
      <trkpt lat="46.1465" lon="6.51622">
        <ele>795.6</ele>
        <time>2021-06-26T06:32:08Z</time>
      </trkpt>
      <trkpt lat="46.14647" lon="6.5162">
        <ele>796</ele>
        <time>2021-06-26T06:32:09Z</time>
      </trkpt>
      <trkpt lat="46.14644" lon="6.51618">
        <ele>796</ele>
        <time>2021-06-26T06:32:10Z</time>
      </trkpt>
      <trkpt lat="46.14641" lon="6.51617">
        <ele>796</ele>
        <time>2021-06-26T06:32:11Z</time>
      </trkpt>
      <trkpt lat="46.14638" lon="6.51617">
        <ele>796.2</ele>
        <time>2021-06-26T06:32:12Z</time>
      </trkpt>
      <trkpt lat="46.14635" lon="6.51616">
        <ele>796.6</ele>
        <time>2021-06-26T06:32:13Z</time>
      </trkpt>
      <trkpt lat="46.14632" lon="6.51614">
        <ele>796.8</ele>
        <time>2021-06-26T06:32:14Z</time>
      </trkpt>
      <trkpt lat="46.14629" lon="6.51613">
        <ele>797</ele>
        <time>2021-06-26T06:32:15Z</time>
      </trkpt>
      <trkpt lat="46.14626" lon="6.51611">
        <ele>797.2</ele>
        <time>2021-06-26T06:32:16Z</time>
      </trkpt>
      <trkpt lat="46.14622" lon="6.5161">
        <ele>797.4</ele>
        <time>2021-06-26T06:32:17Z</time>
      </trkpt>
      <trkpt lat="46.14619" lon="6.51609">
        <ele>797.6</ele>
        <time>2021-06-26T06:32:18Z</time>
      </trkpt>
      <trkpt lat="46.14616" lon="6.51608">
        <ele>797.8</ele>
        <time>2021-06-26T06:32:19Z</time>
      </trkpt>
      <trkpt lat="46.14613" lon="6.51608">
        <ele>797.8</ele>
        <time>2021-06-26T06:32:20Z</time>
      </trkpt>
      <trkpt lat="46.14609" lon="6.51606">
        <ele>798.2</ele>
        <time>2021-06-26T06:32:21Z</time>
      </trkpt>
      <trkpt lat="46.14606" lon="6.51605">
        <ele>798.2</ele>
        <time>2021-06-26T06:32:22Z</time>
      </trkpt>
      <trkpt lat="46.14603" lon="6.51603">
        <ele>798.6</ele>
        <time>2021-06-26T06:32:23Z</time>
      </trkpt>
      <trkpt lat="46.14601" lon="6.516">
        <ele>798.8</ele>
        <time>2021-06-26T06:32:24Z</time>
      </trkpt>
      <trkpt lat="46.14598" lon="6.51597">
        <ele>799</ele>
        <time>2021-06-26T06:32:25Z</time>
      </trkpt>
      <trkpt lat="46.14596" lon="6.51594">
        <ele>799.2</ele>
        <time>2021-06-26T06:32:26Z</time>
      </trkpt>
      <trkpt lat="46.14594" lon="6.51591">
        <ele>799.4</ele>
        <time>2021-06-26T06:32:27Z</time>
      </trkpt>
      <trkpt lat="46.14592" lon="6.51588">
        <ele>799.4</ele>
        <time>2021-06-26T06:32:28Z</time>
      </trkpt>
      <trkpt lat="46.1459" lon="6.51584">
        <ele>799.6</ele>
        <time>2021-06-26T06:32:29Z</time>
      </trkpt>
      <trkpt lat="46.14588" lon="6.51581">
        <ele>799.8</ele>
        <time>2021-06-26T06:32:30Z</time>
      </trkpt>
      <trkpt lat="46.14586" lon="6.51578">
        <ele>800</ele>
        <time>2021-06-26T06:32:31Z</time>
      </trkpt>
      <trkpt lat="46.14584" lon="6.51574">
        <ele>800.2</ele>
        <time>2021-06-26T06:32:32Z</time>
      </trkpt>
      <trkpt lat="46.14583" lon="6.5157">
        <ele>800.2</ele>
        <time>2021-06-26T06:32:33Z</time>
      </trkpt>
      <trkpt lat="46.14582" lon="6.51565">
        <ele>800.6</ele>
        <time>2021-06-26T06:32:34Z</time>
      </trkpt>
      <trkpt lat="46.14581" lon="6.51561">
        <ele>800.8</ele>
        <time>2021-06-26T06:32:35Z</time>
      </trkpt>
      <trkpt lat="46.1458" lon="6.51557">
        <ele>801</ele>
        <time>2021-06-26T06:32:36Z</time>
      </trkpt>
      <trkpt lat="46.14579" lon="6.51553">
        <ele>801.2</ele>
        <time>2021-06-26T06:32:37Z</time>
      </trkpt>
      <trkpt lat="46.14579" lon="6.51549">
        <ele>801.6</ele>
        <time>2021-06-26T06:32:38Z</time>
      </trkpt>
      <trkpt lat="46.14578" lon="6.51544">
        <ele>801.8</ele>
        <time>2021-06-26T06:32:39Z</time>
      </trkpt>
      <trkpt lat="46.14579" lon="6.5154">
        <ele>802.2</ele>
        <time>2021-06-26T06:32:40Z</time>
      </trkpt>
      <trkpt lat="46.14579" lon="6.51535">
        <ele>802.2</ele>
        <time>2021-06-26T06:32:41Z</time>
      </trkpt>
      <trkpt lat="46.14579" lon="6.5153">
        <ele>802.6</ele>
        <time>2021-06-26T06:32:42Z</time>
      </trkpt>
      <trkpt lat="46.1458" lon="6.51525">
        <ele>802.8</ele>
        <time>2021-06-26T06:32:43Z</time>
      </trkpt>
      <trkpt lat="46.1458" lon="6.5152">
        <ele>803</ele>
        <time>2021-06-26T06:32:44Z</time>
      </trkpt>
      <trkpt lat="46.1458" lon="6.51514">
        <ele>803.4</ele>
        <time>2021-06-26T06:32:45Z</time>
      </trkpt>
      <trkpt lat="46.14581" lon="6.51509">
        <ele>803.6</ele>
        <time>2021-06-26T06:32:46Z</time>
      </trkpt>
      <trkpt lat="46.14581" lon="6.51504">
        <ele>804</ele>
        <time>2021-06-26T06:32:47Z</time>
      </trkpt>
      <trkpt lat="46.14582" lon="6.51498">
        <ele>804.2</ele>
        <time>2021-06-26T06:32:48Z</time>
      </trkpt>
      <trkpt lat="46.14583" lon="6.51492">
        <ele>804</ele>
        <time>2021-06-26T06:32:49Z</time>
      </trkpt>
      <trkpt lat="46.14583" lon="6.51487">
        <ele>804.2</ele>
        <time>2021-06-26T06:32:50Z</time>
      </trkpt>
      <trkpt lat="46.14583" lon="6.51481">
        <ele>804.4</ele>
        <time>2021-06-26T06:32:51Z</time>
      </trkpt>
      <trkpt lat="46.14583" lon="6.51475">
        <ele>804.4</ele>
        <time>2021-06-26T06:32:52Z</time>
      </trkpt>
      <trkpt lat="46.14583" lon="6.51469">
        <ele>804.8</ele>
        <time>2021-06-26T06:32:53Z</time>
      </trkpt>
      <trkpt lat="46.14583" lon="6.51463">
        <ele>804.8</ele>
        <time>2021-06-26T06:32:54Z</time>
      </trkpt>
      <trkpt lat="46.14582" lon="6.51457">
        <ele>804.8</ele>
        <time>2021-06-26T06:32:55Z</time>
      </trkpt>
      <trkpt lat="46.14581" lon="6.51451">
        <ele>804.8</ele>
        <time>2021-06-26T06:32:56Z</time>
      </trkpt>
      <trkpt lat="46.14579" lon="6.51445">
        <ele>804.8</ele>
        <time>2021-06-26T06:32:57Z</time>
      </trkpt>
      <trkpt lat="46.14578" lon="6.5144">
        <ele>805</ele>
        <time>2021-06-26T06:32:58Z</time>
      </trkpt>
      <trkpt lat="46.14576" lon="6.51434">
        <ele>805</ele>
        <time>2021-06-26T06:32:59Z</time>
      </trkpt>
      <trkpt lat="46.14573" lon="6.51429">
        <ele>805</ele>
        <time>2021-06-26T06:33:00Z</time>
      </trkpt>
      <trkpt lat="46.14571" lon="6.51424">
        <ele>805.2</ele>
        <time>2021-06-26T06:33:01Z</time>
      </trkpt>
      <trkpt lat="46.14569" lon="6.51419">
        <ele>805.4</ele>
        <time>2021-06-26T06:33:02Z</time>
      </trkpt>
      <trkpt lat="46.14566" lon="6.51415">
        <ele>805.4</ele>
        <time>2021-06-26T06:33:03Z</time>
      </trkpt>
      <trkpt lat="46.14563" lon="6.51411">
        <ele>805.6</ele>
        <time>2021-06-26T06:33:04Z</time>
      </trkpt>
      <trkpt lat="46.1456" lon="6.51407">
        <ele>805.8</ele>
        <time>2021-06-26T06:33:05Z</time>
      </trkpt>
      <trkpt lat="46.14558" lon="6.51403">
        <ele>805.6</ele>
        <time>2021-06-26T06:33:06Z</time>
      </trkpt>
      <trkpt lat="46.14555" lon="6.51399">
        <ele>805.8</ele>
        <time>2021-06-26T06:33:07Z</time>
      </trkpt>
      <trkpt lat="46.14552" lon="6.51395">
        <ele>805.8</ele>
        <time>2021-06-26T06:33:08Z</time>
      </trkpt>
      <trkpt lat="46.1455" lon="6.5139">
        <ele>806</ele>
        <time>2021-06-26T06:33:09Z</time>
      </trkpt>
      <trkpt lat="46.14547" lon="6.51385">
        <ele>805.8</ele>
        <time>2021-06-26T06:33:10Z</time>
      </trkpt>
      <trkpt lat="46.14545" lon="6.5138">
        <ele>806.2</ele>
        <time>2021-06-26T06:33:11Z</time>
      </trkpt>
      <trkpt lat="46.14545" lon="6.51375">
        <ele>806.2</ele>
        <time>2021-06-26T06:33:12Z</time>
      </trkpt>
      <trkpt lat="46.14545" lon="6.51369">
        <ele>806.2</ele>
        <time>2021-06-26T06:33:13Z</time>
      </trkpt>
      <trkpt lat="46.14546" lon="6.51364">
        <ele>806.6</ele>
        <time>2021-06-26T06:33:14Z</time>
      </trkpt>
      <trkpt lat="46.14548" lon="6.51359">
        <ele>807</ele>
        <time>2021-06-26T06:33:15Z</time>
      </trkpt>
      <trkpt lat="46.14551" lon="6.51355">
        <ele>807</ele>
        <time>2021-06-26T06:33:16Z</time>
      </trkpt>
      <trkpt lat="46.14554" lon="6.5135">
        <ele>807.2</ele>
        <time>2021-06-26T06:33:17Z</time>
      </trkpt>
      <trkpt lat="46.14557" lon="6.51345">
        <ele>807</ele>
        <time>2021-06-26T06:33:18Z</time>
      </trkpt>
      <trkpt lat="46.1456" lon="6.51341">
        <ele>807.2</ele>
        <time>2021-06-26T06:33:19Z</time>
      </trkpt>
      <trkpt lat="46.14563" lon="6.51337">
        <ele>807.2</ele>
        <time>2021-06-26T06:33:20Z</time>
      </trkpt>
      <trkpt lat="46.14567" lon="6.51333">
        <ele>807.6</ele>
        <time>2021-06-26T06:33:21Z</time>
      </trkpt>
      <trkpt lat="46.1457" lon="6.51329">
        <ele>807.8</ele>
        <time>2021-06-26T06:33:22Z</time>
      </trkpt>
      <trkpt lat="46.14573" lon="6.51324">
        <ele>808</ele>
        <time>2021-06-26T06:33:23Z</time>
      </trkpt>
      <trkpt lat="46.14577" lon="6.51319">
        <ele>808.2</ele>
        <time>2021-06-26T06:33:24Z</time>
      </trkpt>
      <trkpt lat="46.1458" lon="6.51315">
        <ele>808.4</ele>
        <time>2021-06-26T06:33:25Z</time>
      </trkpt>
      <trkpt lat="46.14583" lon="6.51309">
        <ele>808.6</ele>
        <time>2021-06-26T06:33:26Z</time>
      </trkpt>
      <trkpt lat="46.14585" lon="6.51304">
        <ele>808.8</ele>
        <time>2021-06-26T06:33:27Z</time>
      </trkpt>
      <trkpt lat="46.14588" lon="6.51298">
        <ele>808.6</ele>
        <time>2021-06-26T06:33:28Z</time>
      </trkpt>
      <trkpt lat="46.14591" lon="6.51293">
        <ele>808.8</ele>
        <time>2021-06-26T06:33:29Z</time>
      </trkpt>
      <trkpt lat="46.14594" lon="6.51288">
        <ele>809</ele>
        <time>2021-06-26T06:33:30Z</time>
      </trkpt>
      <trkpt lat="46.14596" lon="6.51282">
        <ele>809</ele>
        <time>2021-06-26T06:33:31Z</time>
      </trkpt>
      <trkpt lat="46.14606" lon="6.51268">
        <ele>809</ele>
        <time>2021-06-26T06:33:34Z</time>
      </trkpt>
      <trkpt lat="46.1461" lon="6.51264">
        <ele>809</ele>
        <time>2021-06-26T06:33:35Z</time>
      </trkpt>
      <trkpt lat="46.14627" lon="6.51252">
        <ele>809</ele>
        <time>2021-06-26T06:33:39Z</time>
      </trkpt>
      <trkpt lat="46.14631" lon="6.51249">
        <ele>809.2</ele>
        <time>2021-06-26T06:33:40Z</time>
      </trkpt>
      <trkpt lat="46.14636" lon="6.51247">
        <ele>809.2</ele>
        <time>2021-06-26T06:33:41Z</time>
      </trkpt>
      <trkpt lat="46.1464" lon="6.51244">
        <ele>809.2</ele>
        <time>2021-06-26T06:33:42Z</time>
      </trkpt>
      <trkpt lat="46.14644" lon="6.51242">
        <ele>809.2</ele>
        <time>2021-06-26T06:33:43Z</time>
      </trkpt>
      <trkpt lat="46.14648" lon="6.51241">
        <ele>809.2</ele>
        <time>2021-06-26T06:33:44Z</time>
      </trkpt>
      <trkpt lat="46.14653" lon="6.51241">
        <ele>809.4</ele>
        <time>2021-06-26T06:33:45Z</time>
      </trkpt>
      <trkpt lat="46.14657" lon="6.51241">
        <ele>809.4</ele>
        <time>2021-06-26T06:33:46Z</time>
      </trkpt>
      <trkpt lat="46.14661" lon="6.51242">
        <ele>809.4</ele>
        <time>2021-06-26T06:33:47Z</time>
      </trkpt>
      <trkpt lat="46.14666" lon="6.51244">
        <ele>809.2</ele>
        <time>2021-06-26T06:33:48Z</time>
      </trkpt>
      <trkpt lat="46.1467" lon="6.51246">
        <ele>809.4</ele>
        <time>2021-06-26T06:33:49Z</time>
      </trkpt>
      <trkpt lat="46.14674" lon="6.51248">
        <ele>809.4</ele>
        <time>2021-06-26T06:33:50Z</time>
      </trkpt>
      <trkpt lat="46.14677" lon="6.51253">
        <ele>809.6</ele>
        <time>2021-06-26T06:33:51Z</time>
      </trkpt>
      <trkpt lat="46.14681" lon="6.51257">
        <ele>809.6</ele>
        <time>2021-06-26T06:33:52Z</time>
      </trkpt>
      <trkpt lat="46.14684" lon="6.51262">
        <ele>810</ele>
        <time>2021-06-26T06:33:53Z</time>
      </trkpt>
      <trkpt lat="46.14688" lon="6.51267">
        <ele>810.2</ele>
        <time>2021-06-26T06:33:54Z</time>
      </trkpt>
      <trkpt lat="46.14692" lon="6.51271">
        <ele>810.4</ele>
        <time>2021-06-26T06:33:55Z</time>
      </trkpt>
      <trkpt lat="46.14695" lon="6.51276">
        <ele>810.4</ele>
        <time>2021-06-26T06:33:56Z</time>
      </trkpt>
      <trkpt lat="46.14699" lon="6.51281">
        <ele>810.4</ele>
        <time>2021-06-26T06:33:57Z</time>
      </trkpt>
      <trkpt lat="46.14702" lon="6.51285">
        <ele>810.8</ele>
        <time>2021-06-26T06:33:58Z</time>
      </trkpt>
      <trkpt lat="46.14704" lon="6.5129">
        <ele>810.8</ele>
        <time>2021-06-26T06:33:59Z</time>
      </trkpt>
      <trkpt lat="46.14707" lon="6.51295">
        <ele>810.6</ele>
        <time>2021-06-26T06:34:00Z</time>
      </trkpt>
      <trkpt lat="46.14709" lon="6.51299">
        <ele>810.8</ele>
        <time>2021-06-26T06:34:01Z</time>
      </trkpt>
      <trkpt lat="46.14711" lon="6.51303">
        <ele>811</ele>
        <time>2021-06-26T06:34:02Z</time>
      </trkpt>
      <trkpt lat="46.14712" lon="6.51307">
        <ele>810.8</ele>
        <time>2021-06-26T06:34:03Z</time>
      </trkpt>
      <trkpt lat="46.14713" lon="6.51311">
        <ele>811</ele>
        <time>2021-06-26T06:34:04Z</time>
      </trkpt>
      <trkpt lat="46.14715" lon="6.51315">
        <ele>811.4</ele>
        <time>2021-06-26T06:34:05Z</time>
      </trkpt>
      <trkpt lat="46.14716" lon="6.51319">
        <ele>811.8</ele>
        <time>2021-06-26T06:34:06Z</time>
      </trkpt>
      <trkpt lat="46.14718" lon="6.51323">
        <ele>812.2</ele>
        <time>2021-06-26T06:34:07Z</time>
      </trkpt>
      <trkpt lat="46.14719" lon="6.51327">
        <ele>812.6</ele>
        <time>2021-06-26T06:34:08Z</time>
      </trkpt>
      <trkpt lat="46.14721" lon="6.51331">
        <ele>812.8</ele>
        <time>2021-06-26T06:34:09Z</time>
      </trkpt>
      <trkpt lat="46.14723" lon="6.51335">
        <ele>813</ele>
        <time>2021-06-26T06:34:10Z</time>
      </trkpt>
      <trkpt lat="46.14724" lon="6.51339">
        <ele>813.4</ele>
        <time>2021-06-26T06:34:11Z</time>
      </trkpt>
      <trkpt lat="46.14725" lon="6.51343">
        <ele>813.8</ele>
        <time>2021-06-26T06:34:12Z</time>
      </trkpt>
      <trkpt lat="46.14727" lon="6.51346">
        <ele>814.2</ele>
        <time>2021-06-26T06:34:13Z</time>
      </trkpt>
      <trkpt lat="46.14728" lon="6.5135">
        <ele>814.6</ele>
        <time>2021-06-26T06:34:14Z</time>
      </trkpt>
      <trkpt lat="46.14729" lon="6.51354">
        <ele>814.8</ele>
        <time>2021-06-26T06:34:15Z</time>
      </trkpt>
      <trkpt lat="46.1473" lon="6.51358">
        <ele>815</ele>
        <time>2021-06-26T06:34:16Z</time>
      </trkpt>
      <trkpt lat="46.14731" lon="6.51363">
        <ele>815.4</ele>
        <time>2021-06-26T06:34:17Z</time>
      </trkpt>
      <trkpt lat="46.14732" lon="6.51366">
        <ele>815.6</ele>
        <time>2021-06-26T06:34:18Z</time>
      </trkpt>
      <trkpt lat="46.14733" lon="6.51371">
        <ele>815.8</ele>
        <time>2021-06-26T06:34:19Z</time>
      </trkpt>
      <trkpt lat="46.14733" lon="6.51375">
        <ele>815.8</ele>
        <time>2021-06-26T06:34:20Z</time>
      </trkpt>
      <trkpt lat="46.14734" lon="6.51379">
        <ele>816</ele>
        <time>2021-06-26T06:34:21Z</time>
      </trkpt>
      <trkpt lat="46.14735" lon="6.51382">
        <ele>816.4</ele>
        <time>2021-06-26T06:34:22Z</time>
      </trkpt>
      <trkpt lat="46.14736" lon="6.51386">
        <ele>816.6</ele>
        <time>2021-06-26T06:34:23Z</time>
      </trkpt>
      <trkpt lat="46.14736" lon="6.5139">
        <ele>816.6</ele>
        <time>2021-06-26T06:34:24Z</time>
      </trkpt>
      <trkpt lat="46.14737" lon="6.51394">
        <ele>817</ele>
        <time>2021-06-26T06:34:25Z</time>
      </trkpt>
      <trkpt lat="46.14738" lon="6.51397">
        <ele>817.4</ele>
        <time>2021-06-26T06:34:26Z</time>
      </trkpt>
      <trkpt lat="46.14739" lon="6.51401">
        <ele>817.6</ele>
        <time>2021-06-26T06:34:27Z</time>
      </trkpt>
      <trkpt lat="46.1474" lon="6.51405">
        <ele>818</ele>
        <time>2021-06-26T06:34:28Z</time>
      </trkpt>
      <trkpt lat="46.14741" lon="6.51408">
        <ele>818.2</ele>
        <time>2021-06-26T06:34:29Z</time>
      </trkpt>
      <trkpt lat="46.14741" lon="6.51412">
        <ele>818.4</ele>
        <time>2021-06-26T06:34:30Z</time>
      </trkpt>
      <trkpt lat="46.14742" lon="6.51416">
        <ele>819</ele>
        <time>2021-06-26T06:34:31Z</time>
      </trkpt>
      <trkpt lat="46.14742" lon="6.5142">
        <ele>819.4</ele>
        <time>2021-06-26T06:34:32Z</time>
      </trkpt>
      <trkpt lat="46.14743" lon="6.51424">
        <ele>819.8</ele>
        <time>2021-06-26T06:34:33Z</time>
      </trkpt>
      <trkpt lat="46.14744" lon="6.51427">
        <ele>820</ele>
        <time>2021-06-26T06:34:34Z</time>
      </trkpt>
      <trkpt lat="46.14745" lon="6.51431">
        <ele>820.4</ele>
        <time>2021-06-26T06:34:35Z</time>
      </trkpt>
      <trkpt lat="46.14745" lon="6.51435">
        <ele>820.4</ele>
        <time>2021-06-26T06:34:36Z</time>
      </trkpt>
      <trkpt lat="46.14746" lon="6.51439">
        <ele>820.8</ele>
        <time>2021-06-26T06:34:37Z</time>
      </trkpt>
      <trkpt lat="46.14746" lon="6.51442">
        <ele>821</ele>
        <time>2021-06-26T06:34:38Z</time>
      </trkpt>
      <trkpt lat="46.14747" lon="6.51446">
        <ele>821.2</ele>
        <time>2021-06-26T06:34:39Z</time>
      </trkpt>
      <trkpt lat="46.14748" lon="6.5145">
        <ele>821.4</ele>
        <time>2021-06-26T06:34:40Z</time>
      </trkpt>
      <trkpt lat="46.14748" lon="6.51454">
        <ele>822</ele>
        <time>2021-06-26T06:34:41Z</time>
      </trkpt>
      <trkpt lat="46.14749" lon="6.51457">
        <ele>822</ele>
        <time>2021-06-26T06:34:42Z</time>
      </trkpt>
      <trkpt lat="46.1475" lon="6.51461">
        <ele>822</ele>
        <time>2021-06-26T06:34:43Z</time>
      </trkpt>
      <trkpt lat="46.14751" lon="6.51465">
        <ele>822.2</ele>
        <time>2021-06-26T06:34:44Z</time>
      </trkpt>
      <trkpt lat="46.14752" lon="6.51469">
        <ele>822.4</ele>
        <time>2021-06-26T06:34:45Z</time>
      </trkpt>
      <trkpt lat="46.14753" lon="6.51473">
        <ele>822.6</ele>
        <time>2021-06-26T06:34:46Z</time>
      </trkpt>
      <trkpt lat="46.14754" lon="6.51476">
        <ele>822.8</ele>
        <time>2021-06-26T06:34:47Z</time>
      </trkpt>
      <trkpt lat="46.14754" lon="6.5148">
        <ele>823</ele>
        <time>2021-06-26T06:34:48Z</time>
      </trkpt>
      <trkpt lat="46.14755" lon="6.51484">
        <ele>823.2</ele>
        <time>2021-06-26T06:34:49Z</time>
      </trkpt>
      <trkpt lat="46.14756" lon="6.51487">
        <ele>823.6</ele>
        <time>2021-06-26T06:34:50Z</time>
      </trkpt>
      <trkpt lat="46.14757" lon="6.51491">
        <ele>824</ele>
        <time>2021-06-26T06:34:51Z</time>
      </trkpt>
      <trkpt lat="46.14758" lon="6.51495">
        <ele>824.2</ele>
        <time>2021-06-26T06:34:52Z</time>
      </trkpt>
      <trkpt lat="46.14759" lon="6.51498">
        <ele>824.6</ele>
        <time>2021-06-26T06:34:53Z</time>
      </trkpt>
      <trkpt lat="46.1476" lon="6.51502">
        <ele>824.8</ele>
        <time>2021-06-26T06:34:54Z</time>
      </trkpt>
      <trkpt lat="46.14761" lon="6.51505">
        <ele>824.8</ele>
        <time>2021-06-26T06:34:55Z</time>
      </trkpt>
      <trkpt lat="46.14762" lon="6.51508">
        <ele>825.2</ele>
        <time>2021-06-26T06:34:56Z</time>
      </trkpt>
      <trkpt lat="46.14763" lon="6.51511">
        <ele>825.4</ele>
        <time>2021-06-26T06:34:57Z</time>
      </trkpt>
      <trkpt lat="46.14764" lon="6.51515">
        <ele>825.4</ele>
        <time>2021-06-26T06:34:58Z</time>
      </trkpt>
      <trkpt lat="46.14765" lon="6.51518">
        <ele>825.6</ele>
        <time>2021-06-26T06:34:59Z</time>
      </trkpt>
      <trkpt lat="46.14766" lon="6.51521">
        <ele>825.8</ele>
        <time>2021-06-26T06:35:00Z</time>
      </trkpt>
      <trkpt lat="46.14767" lon="6.51524">
        <ele>826</ele>
        <time>2021-06-26T06:35:01Z</time>
      </trkpt>
      <trkpt lat="46.14769" lon="6.51527">
        <ele>826.2</ele>
        <time>2021-06-26T06:35:02Z</time>
      </trkpt>
      <trkpt lat="46.1477" lon="6.5153">
        <ele>826.2</ele>
        <time>2021-06-26T06:35:03Z</time>
      </trkpt>
      <trkpt lat="46.14772" lon="6.51532">
        <ele>826.4</ele>
        <time>2021-06-26T06:35:04Z</time>
      </trkpt>
      <trkpt lat="46.14774" lon="6.51535">
        <ele>826.8</ele>
        <time>2021-06-26T06:35:05Z</time>
      </trkpt>
      <trkpt lat="46.14776" lon="6.51537">
        <ele>826.8</ele>
        <time>2021-06-26T06:35:06Z</time>
      </trkpt>
      <trkpt lat="46.14778" lon="6.5154">
        <ele>827</ele>
        <time>2021-06-26T06:35:07Z</time>
      </trkpt>
      <trkpt lat="46.14779" lon="6.51543">
        <ele>827.4</ele>
        <time>2021-06-26T06:35:08Z</time>
      </trkpt>
      <trkpt lat="46.14781" lon="6.51545">
        <ele>827.8</ele>
        <time>2021-06-26T06:35:09Z</time>
      </trkpt>
      <trkpt lat="46.14784" lon="6.51548">
        <ele>828</ele>
        <time>2021-06-26T06:35:10Z</time>
      </trkpt>
      <trkpt lat="46.14786" lon="6.5155">
        <ele>828</ele>
        <time>2021-06-26T06:35:11Z</time>
      </trkpt>
      <trkpt lat="46.14788" lon="6.51552">
        <ele>828.4</ele>
        <time>2021-06-26T06:35:12Z</time>
      </trkpt>
      <trkpt lat="46.1479" lon="6.51554">
        <ele>828.6</ele>
        <time>2021-06-26T06:35:13Z</time>
      </trkpt>
      <trkpt lat="46.14792" lon="6.51556">
        <ele>828.8</ele>
        <time>2021-06-26T06:35:14Z</time>
      </trkpt>
      <trkpt lat="46.14794" lon="6.51558">
        <ele>829</ele>
        <time>2021-06-26T06:35:15Z</time>
      </trkpt>
      <trkpt lat="46.14796" lon="6.5156">
        <ele>829.2</ele>
        <time>2021-06-26T06:35:16Z</time>
      </trkpt>
      <trkpt lat="46.14799" lon="6.51562">
        <ele>829.4</ele>
        <time>2021-06-26T06:35:17Z</time>
      </trkpt>
      <trkpt lat="46.14801" lon="6.51563">
        <ele>829.8</ele>
        <time>2021-06-26T06:35:18Z</time>
      </trkpt>
      <trkpt lat="46.14803" lon="6.51564">
        <ele>830</ele>
        <time>2021-06-26T06:35:19Z</time>
      </trkpt>
      <trkpt lat="46.14806" lon="6.51564">
        <ele>830.2</ele>
        <time>2021-06-26T06:35:20Z</time>
      </trkpt>
      <trkpt lat="46.14808" lon="6.51563">
        <ele>830.6</ele>
        <time>2021-06-26T06:35:21Z</time>
      </trkpt>
      <trkpt lat="46.1481" lon="6.51561">
        <ele>830.8</ele>
        <time>2021-06-26T06:35:22Z</time>
      </trkpt>
      <trkpt lat="46.14813" lon="6.51559">
        <ele>831</ele>
        <time>2021-06-26T06:35:23Z</time>
      </trkpt>
      <trkpt lat="46.14815" lon="6.51557">
        <ele>831.2</ele>
        <time>2021-06-26T06:35:24Z</time>
      </trkpt>
      <trkpt lat="46.14816" lon="6.51554">
        <ele>831.2</ele>
        <time>2021-06-26T06:35:25Z</time>
      </trkpt>
      <trkpt lat="46.14818" lon="6.51551">
        <ele>831.4</ele>
        <time>2021-06-26T06:35:26Z</time>
      </trkpt>
      <trkpt lat="46.14819" lon="6.51548">
        <ele>831.6</ele>
        <time>2021-06-26T06:35:27Z</time>
      </trkpt>
      <trkpt lat="46.1482" lon="6.51544">
        <ele>831.8</ele>
        <time>2021-06-26T06:35:28Z</time>
      </trkpt>
      <trkpt lat="46.1482" lon="6.5154">
        <ele>832</ele>
        <time>2021-06-26T06:35:29Z</time>
      </trkpt>
      <trkpt lat="46.1482" lon="6.51536">
        <ele>832.2</ele>
        <time>2021-06-26T06:35:30Z</time>
      </trkpt>
      <trkpt lat="46.1482" lon="6.51532">
        <ele>832.6</ele>
        <time>2021-06-26T06:35:31Z</time>
      </trkpt>
      <trkpt lat="46.14819" lon="6.51528">
        <ele>832.6</ele>
        <time>2021-06-26T06:35:32Z</time>
      </trkpt>
      <trkpt lat="46.14818" lon="6.51524">
        <ele>832.6</ele>
        <time>2021-06-26T06:35:33Z</time>
      </trkpt>
      <trkpt lat="46.14816" lon="6.5152">
        <ele>832.8</ele>
        <time>2021-06-26T06:35:34Z</time>
      </trkpt>
      <trkpt lat="46.14814" lon="6.51517">
        <ele>833</ele>
        <time>2021-06-26T06:35:35Z</time>
      </trkpt>
      <trkpt lat="46.14813" lon="6.51513">
        <ele>833</ele>
        <time>2021-06-26T06:35:36Z</time>
      </trkpt>
      <trkpt lat="46.14811" lon="6.51509">
        <ele>833.2</ele>
        <time>2021-06-26T06:35:37Z</time>
      </trkpt>
      <trkpt lat="46.14809" lon="6.51506">
        <ele>833.4</ele>
        <time>2021-06-26T06:35:38Z</time>
      </trkpt>
      <trkpt lat="46.14807" lon="6.51503">
        <ele>833.6</ele>
        <time>2021-06-26T06:35:39Z</time>
      </trkpt>
      <trkpt lat="46.14806" lon="6.51499">
        <ele>833.8</ele>
        <time>2021-06-26T06:35:40Z</time>
      </trkpt>
      <trkpt lat="46.14805" lon="6.51496">
        <ele>833.8</ele>
        <time>2021-06-26T06:35:41Z</time>
      </trkpt>
      <trkpt lat="46.14803" lon="6.51492">
        <ele>834</ele>
        <time>2021-06-26T06:35:42Z</time>
      </trkpt>
      <trkpt lat="46.14801" lon="6.51488">
        <ele>834</ele>
        <time>2021-06-26T06:35:43Z</time>
      </trkpt>
      <trkpt lat="46.148" lon="6.51484">
        <ele>834.2</ele>
        <time>2021-06-26T06:35:44Z</time>
      </trkpt>
      <trkpt lat="46.14798" lon="6.5148">
        <ele>834.6</ele>
        <time>2021-06-26T06:35:45Z</time>
      </trkpt>
      <trkpt lat="46.14797" lon="6.51477">
        <ele>834.8</ele>
        <time>2021-06-26T06:35:46Z</time>
      </trkpt>
      <trkpt lat="46.14795" lon="6.51473">
        <ele>834.8</ele>
        <time>2021-06-26T06:35:47Z</time>
      </trkpt>
      <trkpt lat="46.14794" lon="6.51469">
        <ele>834.8</ele>
        <time>2021-06-26T06:35:48Z</time>
      </trkpt>
      <trkpt lat="46.14793" lon="6.51465">
        <ele>835</ele>
        <time>2021-06-26T06:35:49Z</time>
      </trkpt>
      <trkpt lat="46.14792" lon="6.51461">
        <ele>835.2</ele>
        <time>2021-06-26T06:35:50Z</time>
      </trkpt>
      <trkpt lat="46.1479" lon="6.51456">
        <ele>835.2</ele>
        <time>2021-06-26T06:35:51Z</time>
      </trkpt>
      <trkpt lat="46.14789" lon="6.51452">
        <ele>835.2</ele>
        <time>2021-06-26T06:35:52Z</time>
      </trkpt>
      <trkpt lat="46.14788" lon="6.51448">
        <ele>835.4</ele>
        <time>2021-06-26T06:35:53Z</time>
      </trkpt>
      <trkpt lat="46.14787" lon="6.51444">
        <ele>835.6</ele>
        <time>2021-06-26T06:35:54Z</time>
      </trkpt>
      <trkpt lat="46.14787" lon="6.5144">
        <ele>835.8</ele>
        <time>2021-06-26T06:35:55Z</time>
      </trkpt>
      <trkpt lat="46.14787" lon="6.51436">
        <ele>836</ele>
        <time>2021-06-26T06:35:56Z</time>
      </trkpt>
      <trkpt lat="46.14786" lon="6.51431">
        <ele>836.2</ele>
        <time>2021-06-26T06:35:57Z</time>
      </trkpt>
      <trkpt lat="46.14786" lon="6.51427">
        <ele>836.6</ele>
        <time>2021-06-26T06:35:58Z</time>
      </trkpt>
      <trkpt lat="46.14786" lon="6.51422">
        <ele>837</ele>
        <time>2021-06-26T06:35:59Z</time>
      </trkpt>
      <trkpt lat="46.14787" lon="6.51418">
        <ele>837.2</ele>
        <time>2021-06-26T06:36:00Z</time>
      </trkpt>
      <trkpt lat="46.14787" lon="6.51413">
        <ele>837.4</ele>
        <time>2021-06-26T06:36:01Z</time>
      </trkpt>
      <trkpt lat="46.14787" lon="6.51409">
        <ele>837.8</ele>
        <time>2021-06-26T06:36:02Z</time>
      </trkpt>
      <trkpt lat="46.14788" lon="6.51405">
        <ele>838</ele>
        <time>2021-06-26T06:36:03Z</time>
      </trkpt>
      <trkpt lat="46.14789" lon="6.514">
        <ele>838</ele>
        <time>2021-06-26T06:36:04Z</time>
      </trkpt>
      <trkpt lat="46.14789" lon="6.51396">
        <ele>838.4</ele>
        <time>2021-06-26T06:36:05Z</time>
      </trkpt>
      <trkpt lat="46.14789" lon="6.51392">
        <ele>838.6</ele>
        <time>2021-06-26T06:36:06Z</time>
      </trkpt>
      <trkpt lat="46.1479" lon="6.51388">
        <ele>838.8</ele>
        <time>2021-06-26T06:36:07Z</time>
      </trkpt>
      <trkpt lat="46.1479" lon="6.51384">
        <ele>838.8</ele>
        <time>2021-06-26T06:36:08Z</time>
      </trkpt>
      <trkpt lat="46.14791" lon="6.5138">
        <ele>839</ele>
        <time>2021-06-26T06:36:09Z</time>
      </trkpt>
      <trkpt lat="46.14792" lon="6.51376">
        <ele>839.6</ele>
        <time>2021-06-26T06:36:10Z</time>
      </trkpt>
      <trkpt lat="46.14792" lon="6.51372">
        <ele>839.8</ele>
        <time>2021-06-26T06:36:11Z</time>
      </trkpt>
      <trkpt lat="46.14793" lon="6.51368">
        <ele>840</ele>
        <time>2021-06-26T06:36:12Z</time>
      </trkpt>
      <trkpt lat="46.14794" lon="6.51363">
        <ele>840.2</ele>
        <time>2021-06-26T06:36:13Z</time>
      </trkpt>
      <trkpt lat="46.14794" lon="6.51359">
        <ele>840.6</ele>
        <time>2021-06-26T06:36:14Z</time>
      </trkpt>
      <trkpt lat="46.14794" lon="6.51355">
        <ele>840.8</ele>
        <time>2021-06-26T06:36:15Z</time>
      </trkpt>
      <trkpt lat="46.14795" lon="6.51351">
        <ele>840.8</ele>
        <time>2021-06-26T06:36:16Z</time>
      </trkpt>
      <trkpt lat="46.14795" lon="6.51348">
        <ele>841.2</ele>
        <time>2021-06-26T06:36:17Z</time>
      </trkpt>
      <trkpt lat="46.14795" lon="6.51344">
        <ele>841.4</ele>
        <time>2021-06-26T06:36:18Z</time>
      </trkpt>
      <trkpt lat="46.14796" lon="6.5134">
        <ele>841.6</ele>
        <time>2021-06-26T06:36:19Z</time>
      </trkpt>
      <trkpt lat="46.14796" lon="6.51336">
        <ele>841.8</ele>
        <time>2021-06-26T06:36:20Z</time>
      </trkpt>
      <trkpt lat="46.14796" lon="6.51332">
        <ele>842.2</ele>
        <time>2021-06-26T06:36:21Z</time>
      </trkpt>
      <trkpt lat="46.14796" lon="6.51328">
        <ele>842.6</ele>
        <time>2021-06-26T06:36:22Z</time>
      </trkpt>
      <trkpt lat="46.14796" lon="6.51325">
        <ele>843</ele>
        <time>2021-06-26T06:36:23Z</time>
      </trkpt>
      <trkpt lat="46.14795" lon="6.51321">
        <ele>843.2</ele>
        <time>2021-06-26T06:36:24Z</time>
      </trkpt>
      <trkpt lat="46.14795" lon="6.51317">
        <ele>843.2</ele>
        <time>2021-06-26T06:36:25Z</time>
      </trkpt>
      <trkpt lat="46.14795" lon="6.51314">
        <ele>843.6</ele>
        <time>2021-06-26T06:36:26Z</time>
      </trkpt>
      <trkpt lat="46.14794" lon="6.5131">
        <ele>843.8</ele>
        <time>2021-06-26T06:36:27Z</time>
      </trkpt>
      <trkpt lat="46.14794" lon="6.51307">
        <ele>844</ele>
        <time>2021-06-26T06:36:28Z</time>
      </trkpt>
      <trkpt lat="46.14794" lon="6.51303">
        <ele>844</ele>
        <time>2021-06-26T06:36:29Z</time>
      </trkpt>
      <trkpt lat="46.14794" lon="6.51299">
        <ele>844.2</ele>
        <time>2021-06-26T06:36:30Z</time>
      </trkpt>
      <trkpt lat="46.14793" lon="6.51295">
        <ele>844.4</ele>
        <time>2021-06-26T06:36:31Z</time>
      </trkpt>
      <trkpt lat="46.14793" lon="6.51292">
        <ele>844.6</ele>
        <time>2021-06-26T06:36:32Z</time>
      </trkpt>
      <trkpt lat="46.14793" lon="6.51288">
        <ele>844.8</ele>
        <time>2021-06-26T06:36:33Z</time>
      </trkpt>
      <trkpt lat="46.14792" lon="6.51284">
        <ele>845</ele>
        <time>2021-06-26T06:36:34Z</time>
      </trkpt>
      <trkpt lat="46.14792" lon="6.51281">
        <ele>845.4</ele>
        <time>2021-06-26T06:36:35Z</time>
      </trkpt>
      <trkpt lat="46.14791" lon="6.51277">
        <ele>845.8</ele>
        <time>2021-06-26T06:36:36Z</time>
      </trkpt>
      <trkpt lat="46.14791" lon="6.51273">
        <ele>845.8</ele>
        <time>2021-06-26T06:36:37Z</time>
      </trkpt>
      <trkpt lat="46.1479" lon="6.51269">
        <ele>845.8</ele>
        <time>2021-06-26T06:36:38Z</time>
      </trkpt>
      <trkpt lat="46.1479" lon="6.51266">
        <ele>846.2</ele>
        <time>2021-06-26T06:36:39Z</time>
      </trkpt>
      <trkpt lat="46.14789" lon="6.51262">
        <ele>846.4</ele>
        <time>2021-06-26T06:36:40Z</time>
      </trkpt>
      <trkpt lat="46.14789" lon="6.51258">
        <ele>846.8</ele>
        <time>2021-06-26T06:36:41Z</time>
      </trkpt>
      <trkpt lat="46.14788" lon="6.51254">
        <ele>847.2</ele>
        <time>2021-06-26T06:36:42Z</time>
      </trkpt>
      <trkpt lat="46.14788" lon="6.51251">
        <ele>847.2</ele>
        <time>2021-06-26T06:36:43Z</time>
      </trkpt>
      <trkpt lat="46.14788" lon="6.51247">
        <ele>847.6</ele>
        <time>2021-06-26T06:36:44Z</time>
      </trkpt>
      <trkpt lat="46.14788" lon="6.51243">
        <ele>847.8</ele>
        <time>2021-06-26T06:36:45Z</time>
      </trkpt>
      <trkpt lat="46.14787" lon="6.51239">
        <ele>848</ele>
        <time>2021-06-26T06:36:46Z</time>
      </trkpt>
      <trkpt lat="46.14787" lon="6.51235">
        <ele>848.2</ele>
        <time>2021-06-26T06:36:47Z</time>
      </trkpt>
      <trkpt lat="46.14787" lon="6.51232">
        <ele>848.6</ele>
        <time>2021-06-26T06:36:48Z</time>
      </trkpt>
      <trkpt lat="46.14787" lon="6.51228">
        <ele>848.8</ele>
        <time>2021-06-26T06:36:49Z</time>
      </trkpt>
      <trkpt lat="46.14787" lon="6.51224">
        <ele>849.2</ele>
        <time>2021-06-26T06:36:50Z</time>
      </trkpt>
      <trkpt lat="46.14787" lon="6.5122">
        <ele>849.2</ele>
        <time>2021-06-26T06:36:51Z</time>
      </trkpt>
      <trkpt lat="46.14788" lon="6.51217">
        <ele>849.4</ele>
        <time>2021-06-26T06:36:52Z</time>
      </trkpt>
      <trkpt lat="46.14788" lon="6.51213">
        <ele>849.6</ele>
        <time>2021-06-26T06:36:53Z</time>
      </trkpt>
      <trkpt lat="46.14788" lon="6.51209">
        <ele>849.8</ele>
        <time>2021-06-26T06:36:54Z</time>
      </trkpt>
      <trkpt lat="46.14789" lon="6.51205">
        <ele>850</ele>
        <time>2021-06-26T06:36:55Z</time>
      </trkpt>
      <trkpt lat="46.1479" lon="6.51202">
        <ele>850</ele>
        <time>2021-06-26T06:36:56Z</time>
      </trkpt>
      <trkpt lat="46.1479" lon="6.51198">
        <ele>850.4</ele>
        <time>2021-06-26T06:36:57Z</time>
      </trkpt>
      <trkpt lat="46.14791" lon="6.51194">
        <ele>850.8</ele>
        <time>2021-06-26T06:36:58Z</time>
      </trkpt>
      <trkpt lat="46.14792" lon="6.51191">
        <ele>851</ele>
        <time>2021-06-26T06:36:59Z</time>
      </trkpt>
      <trkpt lat="46.14793" lon="6.51187">
        <ele>851.2</ele>
        <time>2021-06-26T06:37:00Z</time>
      </trkpt>
      <trkpt lat="46.14795" lon="6.51184">
        <ele>851.4</ele>
        <time>2021-06-26T06:37:01Z</time>
      </trkpt>
      <trkpt lat="46.14796" lon="6.5118">
        <ele>851.6</ele>
        <time>2021-06-26T06:37:02Z</time>
      </trkpt>
      <trkpt lat="46.14797" lon="6.51177">
        <ele>851.8</ele>
        <time>2021-06-26T06:37:03Z</time>
      </trkpt>
      <trkpt lat="46.14799" lon="6.51174">
        <ele>851.8</ele>
        <time>2021-06-26T06:37:04Z</time>
      </trkpt>
      <trkpt lat="46.148" lon="6.51171">
        <ele>852.2</ele>
        <time>2021-06-26T06:37:05Z</time>
      </trkpt>
      <trkpt lat="46.14802" lon="6.51168">
        <ele>852.2</ele>
        <time>2021-06-26T06:37:06Z</time>
      </trkpt>
      <trkpt lat="46.14804" lon="6.51166">
        <ele>852.6</ele>
        <time>2021-06-26T06:37:07Z</time>
      </trkpt>
      <trkpt lat="46.14805" lon="6.51164">
        <ele>853</ele>
        <time>2021-06-26T06:37:08Z</time>
      </trkpt>
      <trkpt lat="46.14807" lon="6.51161">
        <ele>853</ele>
        <time>2021-06-26T06:37:09Z</time>
      </trkpt>
      <trkpt lat="46.14809" lon="6.51159">
        <ele>853.4</ele>
        <time>2021-06-26T06:37:10Z</time>
      </trkpt>
      <trkpt lat="46.14811" lon="6.51157">
        <ele>853.4</ele>
        <time>2021-06-26T06:37:11Z</time>
      </trkpt>
      <trkpt lat="46.14813" lon="6.51156">
        <ele>853.4</ele>
        <time>2021-06-26T06:37:12Z</time>
      </trkpt>
      <trkpt lat="46.14815" lon="6.51154">
        <ele>853.6</ele>
        <time>2021-06-26T06:37:13Z</time>
      </trkpt>
      <trkpt lat="46.14817" lon="6.51153">
        <ele>854</ele>
        <time>2021-06-26T06:37:14Z</time>
      </trkpt>
      <trkpt lat="46.14819" lon="6.51152">
        <ele>854.2</ele>
        <time>2021-06-26T06:37:15Z</time>
      </trkpt>
      <trkpt lat="46.14821" lon="6.51151">
        <ele>854.4</ele>
        <time>2021-06-26T06:37:16Z</time>
      </trkpt>
      <trkpt lat="46.14823" lon="6.5115">
        <ele>854.8</ele>
        <time>2021-06-26T06:37:17Z</time>
      </trkpt>
      <trkpt lat="46.14825" lon="6.51148">
        <ele>855</ele>
        <time>2021-06-26T06:37:18Z</time>
      </trkpt>
      <trkpt lat="46.14827" lon="6.51147">
        <ele>855.4</ele>
        <time>2021-06-26T06:37:19Z</time>
      </trkpt>
      <trkpt lat="46.14829" lon="6.51145">
        <ele>855.8</ele>
        <time>2021-06-26T06:37:20Z</time>
      </trkpt>
      <trkpt lat="46.14831" lon="6.51144">
        <ele>856</ele>
        <time>2021-06-26T06:37:21Z</time>
      </trkpt>
      <trkpt lat="46.14833" lon="6.51142">
        <ele>856.4</ele>
        <time>2021-06-26T06:37:22Z</time>
      </trkpt>
      <trkpt lat="46.14835" lon="6.51141">
        <ele>856.8</ele>
        <time>2021-06-26T06:37:23Z</time>
      </trkpt>
      <trkpt lat="46.14837" lon="6.51138">
        <ele>857</ele>
        <time>2021-06-26T06:37:24Z</time>
      </trkpt>
      <trkpt lat="46.14839" lon="6.51135">
        <ele>857.2</ele>
        <time>2021-06-26T06:37:25Z</time>
      </trkpt>
      <trkpt lat="46.14841" lon="6.51132">
        <ele>857.6</ele>
        <time>2021-06-26T06:37:26Z</time>
      </trkpt>
      <trkpt lat="46.14843" lon="6.51129">
        <ele>858</ele>
        <time>2021-06-26T06:37:27Z</time>
      </trkpt>
      <trkpt lat="46.14844" lon="6.51126">
        <ele>858.2</ele>
        <time>2021-06-26T06:37:28Z</time>
      </trkpt>
      <trkpt lat="46.14846" lon="6.51122">
        <ele>858.4</ele>
        <time>2021-06-26T06:37:29Z</time>
      </trkpt>
      <trkpt lat="46.14847" lon="6.51119">
        <ele>858.8</ele>
        <time>2021-06-26T06:37:30Z</time>
      </trkpt>
      <trkpt lat="46.14849" lon="6.51116">
        <ele>859</ele>
        <time>2021-06-26T06:37:31Z</time>
      </trkpt>
      <trkpt lat="46.14849" lon="6.51112">
        <ele>859</ele>
        <time>2021-06-26T06:37:32Z</time>
      </trkpt>
      <trkpt lat="46.1485" lon="6.51109">
        <ele>859.2</ele>
        <time>2021-06-26T06:37:33Z</time>
      </trkpt>
      <trkpt lat="46.14851" lon="6.51106">
        <ele>859.2</ele>
        <time>2021-06-26T06:37:34Z</time>
      </trkpt>
      <trkpt lat="46.14851" lon="6.51102">
        <ele>859.4</ele>
        <time>2021-06-26T06:37:35Z</time>
      </trkpt>
      <trkpt lat="46.14851" lon="6.51098">
        <ele>859.6</ele>
        <time>2021-06-26T06:37:36Z</time>
      </trkpt>
      <trkpt lat="46.14851" lon="6.51094">
        <ele>859.8</ele>
        <time>2021-06-26T06:37:37Z</time>
      </trkpt>
      <trkpt lat="46.14851" lon="6.51091">
        <ele>860</ele>
        <time>2021-06-26T06:37:38Z</time>
      </trkpt>
      <trkpt lat="46.14851" lon="6.51087">
        <ele>860.4</ele>
        <time>2021-06-26T06:37:39Z</time>
      </trkpt>
      <trkpt lat="46.1485" lon="6.51083">
        <ele>860.8</ele>
        <time>2021-06-26T06:37:40Z</time>
      </trkpt>
      <trkpt lat="46.14851" lon="6.51079">
        <ele>861</ele>
        <time>2021-06-26T06:37:41Z</time>
      </trkpt>
      <trkpt lat="46.14851" lon="6.51076">
        <ele>861.2</ele>
        <time>2021-06-26T06:37:42Z</time>
      </trkpt>
      <trkpt lat="46.14851" lon="6.51072">
        <ele>861.6</ele>
        <time>2021-06-26T06:37:43Z</time>
      </trkpt>
      <trkpt lat="46.14851" lon="6.51068">
        <ele>861.8</ele>
        <time>2021-06-26T06:37:44Z</time>
      </trkpt>
      <trkpt lat="46.14851" lon="6.51064">
        <ele>862</ele>
        <time>2021-06-26T06:37:45Z</time>
      </trkpt>
      <trkpt lat="46.14851" lon="6.51061">
        <ele>862.2</ele>
        <time>2021-06-26T06:37:46Z</time>
      </trkpt>
      <trkpt lat="46.14851" lon="6.51057">
        <ele>862.4</ele>
        <time>2021-06-26T06:37:47Z</time>
      </trkpt>
      <trkpt lat="46.14852" lon="6.51053">
        <ele>862.6</ele>
        <time>2021-06-26T06:37:48Z</time>
      </trkpt>
      <trkpt lat="46.14852" lon="6.5105">
        <ele>862.8</ele>
        <time>2021-06-26T06:37:49Z</time>
      </trkpt>
      <trkpt lat="46.14852" lon="6.51046">
        <ele>863</ele>
        <time>2021-06-26T06:37:50Z</time>
      </trkpt>
      <trkpt lat="46.14853" lon="6.51042">
        <ele>863.4</ele>
        <time>2021-06-26T06:37:51Z</time>
      </trkpt>
      <trkpt lat="46.14853" lon="6.51039">
        <ele>863.6</ele>
        <time>2021-06-26T06:37:52Z</time>
      </trkpt>
      <trkpt lat="46.14854" lon="6.51035">
        <ele>863.8</ele>
        <time>2021-06-26T06:37:53Z</time>
      </trkpt>
      <trkpt lat="46.14854" lon="6.51032">
        <ele>864</ele>
        <time>2021-06-26T06:37:54Z</time>
      </trkpt>
      <trkpt lat="46.14855" lon="6.51029">
        <ele>864.2</ele>
        <time>2021-06-26T06:37:55Z</time>
      </trkpt>
      <trkpt lat="46.14856" lon="6.51025">
        <ele>864.2</ele>
        <time>2021-06-26T06:37:56Z</time>
      </trkpt>
      <trkpt lat="46.14858" lon="6.51022">
        <ele>864.6</ele>
        <time>2021-06-26T06:37:57Z</time>
      </trkpt>
      <trkpt lat="46.14859" lon="6.51019">
        <ele>864.6</ele>
        <time>2021-06-26T06:37:58Z</time>
      </trkpt>
      <trkpt lat="46.1486" lon="6.51016">
        <ele>865</ele>
        <time>2021-06-26T06:37:59Z</time>
      </trkpt>
      <trkpt lat="46.14862" lon="6.51013">
        <ele>865</ele>
        <time>2021-06-26T06:38:00Z</time>
      </trkpt>
      <trkpt lat="46.14864" lon="6.51011">
        <ele>865.2</ele>
        <time>2021-06-26T06:38:01Z</time>
      </trkpt>
      <trkpt lat="46.14865" lon="6.51008">
        <ele>865.4</ele>
        <time>2021-06-26T06:38:02Z</time>
      </trkpt>
      <trkpt lat="46.14867" lon="6.51005">
        <ele>865.6</ele>
        <time>2021-06-26T06:38:03Z</time>
      </trkpt>
      <trkpt lat="46.14869" lon="6.51003">
        <ele>865.8</ele>
        <time>2021-06-26T06:38:04Z</time>
      </trkpt>
      <trkpt lat="46.1487" lon="6.51">
        <ele>866.2</ele>
        <time>2021-06-26T06:38:05Z</time>
      </trkpt>
      <trkpt lat="46.14872" lon="6.50997">
        <ele>866.4</ele>
        <time>2021-06-26T06:38:06Z</time>
      </trkpt>
      <trkpt lat="46.14874" lon="6.50995">
        <ele>866.4</ele>
        <time>2021-06-26T06:38:07Z</time>
      </trkpt>
      <trkpt lat="46.14876" lon="6.50992">
        <ele>866.8</ele>
        <time>2021-06-26T06:38:08Z</time>
      </trkpt>
      <trkpt lat="46.14878" lon="6.50989">
        <ele>867</ele>
        <time>2021-06-26T06:38:09Z</time>
      </trkpt>
      <trkpt lat="46.14879" lon="6.50986">
        <ele>867.4</ele>
        <time>2021-06-26T06:38:10Z</time>
      </trkpt>
      <trkpt lat="46.14881" lon="6.50983">
        <ele>867.6</ele>
        <time>2021-06-26T06:38:11Z</time>
      </trkpt>
      <trkpt lat="46.14883" lon="6.50981">
        <ele>868</ele>
        <time>2021-06-26T06:38:12Z</time>
      </trkpt>
      <trkpt lat="46.14884" lon="6.50978">
        <ele>867.8</ele>
        <time>2021-06-26T06:38:13Z</time>
      </trkpt>
      <trkpt lat="46.14886" lon="6.50975">
        <ele>868.2</ele>
        <time>2021-06-26T06:38:14Z</time>
      </trkpt>
      <trkpt lat="46.14888" lon="6.50972">
        <ele>868.4</ele>
        <time>2021-06-26T06:38:15Z</time>
      </trkpt>
      <trkpt lat="46.1489" lon="6.5097">
        <ele>868.6</ele>
        <time>2021-06-26T06:38:16Z</time>
      </trkpt>
      <trkpt lat="46.14892" lon="6.50967">
        <ele>868.6</ele>
        <time>2021-06-26T06:38:17Z</time>
      </trkpt>
      <trkpt lat="46.14893" lon="6.50964">
        <ele>868.8</ele>
        <time>2021-06-26T06:38:18Z</time>
      </trkpt>
      <trkpt lat="46.14895" lon="6.50961">
        <ele>869</ele>
        <time>2021-06-26T06:38:19Z</time>
      </trkpt>
      <trkpt lat="46.14897" lon="6.50959">
        <ele>869.2</ele>
        <time>2021-06-26T06:38:20Z</time>
      </trkpt>
      <trkpt lat="46.14899" lon="6.50956">
        <ele>869.4</ele>
        <time>2021-06-26T06:38:21Z</time>
      </trkpt>
      <trkpt lat="46.14901" lon="6.50953">
        <ele>869.6</ele>
        <time>2021-06-26T06:38:22Z</time>
      </trkpt>
      <trkpt lat="46.14903" lon="6.5095">
        <ele>869.6</ele>
        <time>2021-06-26T06:38:23Z</time>
      </trkpt>
      <trkpt lat="46.14904" lon="6.50947">
        <ele>870</ele>
        <time>2021-06-26T06:38:24Z</time>
      </trkpt>
      <trkpt lat="46.14906" lon="6.50945">
        <ele>870</ele>
        <time>2021-06-26T06:38:25Z</time>
      </trkpt>
      <trkpt lat="46.14908" lon="6.50942">
        <ele>870.6</ele>
        <time>2021-06-26T06:38:26Z</time>
      </trkpt>
      <trkpt lat="46.1491" lon="6.5094">
        <ele>870.6</ele>
        <time>2021-06-26T06:38:27Z</time>
      </trkpt>
      <trkpt lat="46.14911" lon="6.50937">
        <ele>871</ele>
        <time>2021-06-26T06:38:28Z</time>
      </trkpt>
      <trkpt lat="46.14913" lon="6.50934">
        <ele>871.2</ele>
        <time>2021-06-26T06:38:29Z</time>
      </trkpt>
      <trkpt lat="46.14915" lon="6.50932">
        <ele>871.4</ele>
        <time>2021-06-26T06:38:30Z</time>
      </trkpt>
      <trkpt lat="46.14917" lon="6.50929">
        <ele>871.4</ele>
        <time>2021-06-26T06:38:31Z</time>
      </trkpt>
      <trkpt lat="46.14918" lon="6.50926">
        <ele>871.8</ele>
        <time>2021-06-26T06:38:32Z</time>
      </trkpt>
      <trkpt lat="46.1492" lon="6.50923">
        <ele>872</ele>
        <time>2021-06-26T06:38:33Z</time>
      </trkpt>
      <trkpt lat="46.14921" lon="6.50919">
        <ele>872.2</ele>
        <time>2021-06-26T06:38:34Z</time>
      </trkpt>
      <trkpt lat="46.14923" lon="6.50916">
        <ele>872.6</ele>
        <time>2021-06-26T06:38:35Z</time>
      </trkpt>
      <trkpt lat="46.14924" lon="6.50913">
        <ele>872.8</ele>
        <time>2021-06-26T06:38:36Z</time>
      </trkpt>
      <trkpt lat="46.14925" lon="6.50909">
        <ele>873</ele>
        <time>2021-06-26T06:38:37Z</time>
      </trkpt>
      <trkpt lat="46.14926" lon="6.50906">
        <ele>873.2</ele>
        <time>2021-06-26T06:38:38Z</time>
      </trkpt>
      <trkpt lat="46.14927" lon="6.50902">
        <ele>873.2</ele>
        <time>2021-06-26T06:38:39Z</time>
      </trkpt>
      <trkpt lat="46.14928" lon="6.50898">
        <ele>873.4</ele>
        <time>2021-06-26T06:38:40Z</time>
      </trkpt>
      <trkpt lat="46.14929" lon="6.50895">
        <ele>873.8</ele>
        <time>2021-06-26T06:38:41Z</time>
      </trkpt>
      <trkpt lat="46.14929" lon="6.50891">
        <ele>873.8</ele>
        <time>2021-06-26T06:38:42Z</time>
      </trkpt>
      <trkpt lat="46.1493" lon="6.50887">
        <ele>874.2</ele>
        <time>2021-06-26T06:38:43Z</time>
      </trkpt>
      <trkpt lat="46.1493" lon="6.50884">
        <ele>874.2</ele>
        <time>2021-06-26T06:38:44Z</time>
      </trkpt>
      <trkpt lat="46.14931" lon="6.5088">
        <ele>874.4</ele>
        <time>2021-06-26T06:38:45Z</time>
      </trkpt>
      <trkpt lat="46.14932" lon="6.50877">
        <ele>874.6</ele>
        <time>2021-06-26T06:38:46Z</time>
      </trkpt>
      <trkpt lat="46.14932" lon="6.50873">
        <ele>874.8</ele>
        <time>2021-06-26T06:38:47Z</time>
      </trkpt>
      <trkpt lat="46.14932" lon="6.5087">
        <ele>875</ele>
        <time>2021-06-26T06:38:48Z</time>
      </trkpt>
      <trkpt lat="46.14933" lon="6.50866">
        <ele>875</ele>
        <time>2021-06-26T06:38:49Z</time>
      </trkpt>
      <trkpt lat="46.14933" lon="6.50862">
        <ele>875.2</ele>
        <time>2021-06-26T06:38:50Z</time>
      </trkpt>
      <trkpt lat="46.14934" lon="6.50859">
        <ele>875.4</ele>
        <time>2021-06-26T06:38:51Z</time>
      </trkpt>
      <trkpt lat="46.14935" lon="6.50855">
        <ele>875.6</ele>
        <time>2021-06-26T06:38:52Z</time>
      </trkpt>
      <trkpt lat="46.14935" lon="6.50851">
        <ele>876</ele>
        <time>2021-06-26T06:38:53Z</time>
      </trkpt>
      <trkpt lat="46.14936" lon="6.50847">
        <ele>876.2</ele>
        <time>2021-06-26T06:38:54Z</time>
      </trkpt>
      <trkpt lat="46.14936" lon="6.50843">
        <ele>876.2</ele>
        <time>2021-06-26T06:38:55Z</time>
      </trkpt>
      <trkpt lat="46.14936" lon="6.5084">
        <ele>876.4</ele>
        <time>2021-06-26T06:38:56Z</time>
      </trkpt>
      <trkpt lat="46.14937" lon="6.50836">
        <ele>876.6</ele>
        <time>2021-06-26T06:38:57Z</time>
      </trkpt>
      <trkpt lat="46.14938" lon="6.50832">
        <ele>877</ele>
        <time>2021-06-26T06:38:58Z</time>
      </trkpt>
      <trkpt lat="46.14939" lon="6.50829">
        <ele>877.2</ele>
        <time>2021-06-26T06:38:59Z</time>
      </trkpt>
      <trkpt lat="46.1494" lon="6.50825">
        <ele>877.6</ele>
        <time>2021-06-26T06:39:00Z</time>
      </trkpt>
      <trkpt lat="46.14941" lon="6.50822">
        <ele>877.6</ele>
        <time>2021-06-26T06:39:01Z</time>
      </trkpt>
      <trkpt lat="46.14943" lon="6.50819">
        <ele>877.8</ele>
        <time>2021-06-26T06:39:02Z</time>
      </trkpt>
      <trkpt lat="46.14944" lon="6.50816">
        <ele>877.8</ele>
        <time>2021-06-26T06:39:03Z</time>
      </trkpt>
      <trkpt lat="46.14945" lon="6.50813">
        <ele>878.2</ele>
        <time>2021-06-26T06:39:04Z</time>
      </trkpt>
      <trkpt lat="46.14947" lon="6.5081">
        <ele>878.4</ele>
        <time>2021-06-26T06:39:05Z</time>
      </trkpt>
      <trkpt lat="46.14949" lon="6.50808">
        <ele>878.6</ele>
        <time>2021-06-26T06:39:06Z</time>
      </trkpt>
      <trkpt lat="46.14951" lon="6.50805">
        <ele>878.6</ele>
        <time>2021-06-26T06:39:07Z</time>
      </trkpt>
      <trkpt lat="46.14952" lon="6.50803">
        <ele>879</ele>
        <time>2021-06-26T06:39:08Z</time>
      </trkpt>
      <trkpt lat="46.14954" lon="6.50801">
        <ele>879</ele>
        <time>2021-06-26T06:39:09Z</time>
      </trkpt>
      <trkpt lat="46.14956" lon="6.50799">
        <ele>879.4</ele>
        <time>2021-06-26T06:39:10Z</time>
      </trkpt>
      <trkpt lat="46.14958" lon="6.50797">
        <ele>879.4</ele>
        <time>2021-06-26T06:39:11Z</time>
      </trkpt>
      <trkpt lat="46.1496" lon="6.50795">
        <ele>879.6</ele>
        <time>2021-06-26T06:39:12Z</time>
      </trkpt>
      <trkpt lat="46.14962" lon="6.50794">
        <ele>880</ele>
        <time>2021-06-26T06:39:13Z</time>
      </trkpt>
      <trkpt lat="46.14965" lon="6.50792">
        <ele>880.2</ele>
        <time>2021-06-26T06:39:14Z</time>
      </trkpt>
      <trkpt lat="46.14967" lon="6.5079">
        <ele>880.4</ele>
        <time>2021-06-26T06:39:15Z</time>
      </trkpt>
      <trkpt lat="46.14969" lon="6.50788">
        <ele>880.8</ele>
        <time>2021-06-26T06:39:16Z</time>
      </trkpt>
      <trkpt lat="46.14971" lon="6.50787">
        <ele>881.2</ele>
        <time>2021-06-26T06:39:17Z</time>
      </trkpt>
      <trkpt lat="46.14974" lon="6.50785">
        <ele>881.4</ele>
        <time>2021-06-26T06:39:18Z</time>
      </trkpt>
      <trkpt lat="46.14976" lon="6.50783">
        <ele>881.8</ele>
        <time>2021-06-26T06:39:19Z</time>
      </trkpt>
      <trkpt lat="46.14978" lon="6.50782">
        <ele>882</ele>
        <time>2021-06-26T06:39:20Z</time>
      </trkpt>
      <trkpt lat="46.14981" lon="6.5078">
        <ele>882.2</ele>
        <time>2021-06-26T06:39:21Z</time>
      </trkpt>
      <trkpt lat="46.14983" lon="6.50778">
        <ele>882.4</ele>
        <time>2021-06-26T06:39:22Z</time>
      </trkpt>
      <trkpt lat="46.14986" lon="6.50775">
        <ele>882.4</ele>
        <time>2021-06-26T06:39:23Z</time>
      </trkpt>
      <trkpt lat="46.14988" lon="6.50773">
        <ele>882.4</ele>
        <time>2021-06-26T06:39:24Z</time>
      </trkpt>
      <trkpt lat="46.1499" lon="6.50772">
        <ele>883</ele>
        <time>2021-06-26T06:39:25Z</time>
      </trkpt>
      <trkpt lat="46.14993" lon="6.5077">
        <ele>883.2</ele>
        <time>2021-06-26T06:39:26Z</time>
      </trkpt>
      <trkpt lat="46.14995" lon="6.50768">
        <ele>883.4</ele>
        <time>2021-06-26T06:39:27Z</time>
      </trkpt>
      <trkpt lat="46.14997" lon="6.50766">
        <ele>883.6</ele>
        <time>2021-06-26T06:39:28Z</time>
      </trkpt>
      <trkpt lat="46.14999" lon="6.50764">
        <ele>883.6</ele>
        <time>2021-06-26T06:39:29Z</time>
      </trkpt>
      <trkpt lat="46.15001" lon="6.50762">
        <ele>883.8</ele>
        <time>2021-06-26T06:39:30Z</time>
      </trkpt>
      <trkpt lat="46.15004" lon="6.5076">
        <ele>884</ele>
        <time>2021-06-26T06:39:31Z</time>
      </trkpt>
      <trkpt lat="46.15006" lon="6.50759">
        <ele>884.4</ele>
        <time>2021-06-26T06:39:32Z</time>
      </trkpt>
      <trkpt lat="46.15009" lon="6.50758">
        <ele>884.4</ele>
        <time>2021-06-26T06:39:33Z</time>
      </trkpt>
      <trkpt lat="46.15012" lon="6.50758">
        <ele>884.8</ele>
        <time>2021-06-26T06:39:34Z</time>
      </trkpt>
      <trkpt lat="46.15014" lon="6.50759">
        <ele>884.8</ele>
        <time>2021-06-26T06:39:35Z</time>
      </trkpt>
      <trkpt lat="46.15017" lon="6.5076">
        <ele>885</ele>
        <time>2021-06-26T06:39:36Z</time>
      </trkpt>
      <trkpt lat="46.15018" lon="6.50762">
        <ele>885.2</ele>
        <time>2021-06-26T06:39:37Z</time>
      </trkpt>
      <trkpt lat="46.1502" lon="6.50764">
        <ele>885.6</ele>
        <time>2021-06-26T06:39:38Z</time>
      </trkpt>
      <trkpt lat="46.15021" lon="6.50766">
        <ele>885.6</ele>
        <time>2021-06-26T06:39:39Z</time>
      </trkpt>
      <trkpt lat="46.15022" lon="6.50769">
        <ele>885.8</ele>
        <time>2021-06-26T06:39:40Z</time>
      </trkpt>
      <trkpt lat="46.15022" lon="6.50772">
        <ele>886.2</ele>
        <time>2021-06-26T06:39:41Z</time>
      </trkpt>
      <trkpt lat="46.15022" lon="6.50775">
        <ele>886.2</ele>
        <time>2021-06-26T06:39:42Z</time>
      </trkpt>
      <trkpt lat="46.15021" lon="6.50778">
        <ele>886.6</ele>
        <time>2021-06-26T06:39:43Z</time>
      </trkpt>
      <trkpt lat="46.15021" lon="6.50782">
        <ele>886.8</ele>
        <time>2021-06-26T06:39:44Z</time>
      </trkpt>
      <trkpt lat="46.15019" lon="6.50785">
        <ele>886.8</ele>
        <time>2021-06-26T06:39:45Z</time>
      </trkpt>
      <trkpt lat="46.15018" lon="6.50789">
        <ele>887</ele>
        <time>2021-06-26T06:39:46Z</time>
      </trkpt>
      <trkpt lat="46.15016" lon="6.50792">
        <ele>887.2</ele>
        <time>2021-06-26T06:39:47Z</time>
      </trkpt>
      <trkpt lat="46.15014" lon="6.50796">
        <ele>887.6</ele>
        <time>2021-06-26T06:39:48Z</time>
      </trkpt>
      <trkpt lat="46.15012" lon="6.50799">
        <ele>887.8</ele>
        <time>2021-06-26T06:39:49Z</time>
      </trkpt>
      <trkpt lat="46.1501" lon="6.50803">
        <ele>888</ele>
        <time>2021-06-26T06:39:50Z</time>
      </trkpt>
      <trkpt lat="46.15009" lon="6.50807">
        <ele>888</ele>
        <time>2021-06-26T06:39:51Z</time>
      </trkpt>
      <trkpt lat="46.15007" lon="6.50811">
        <ele>888.2</ele>
        <time>2021-06-26T06:39:52Z</time>
      </trkpt>
      <trkpt lat="46.15005" lon="6.50815">
        <ele>888.4</ele>
        <time>2021-06-26T06:39:53Z</time>
      </trkpt>
      <trkpt lat="46.15004" lon="6.50819">
        <ele>888.4</ele>
        <time>2021-06-26T06:39:54Z</time>
      </trkpt>
      <trkpt lat="46.15002" lon="6.50823">
        <ele>888.6</ele>
        <time>2021-06-26T06:39:55Z</time>
      </trkpt>
      <trkpt lat="46.15001" lon="6.50828">
        <ele>888.6</ele>
        <time>2021-06-26T06:39:56Z</time>
      </trkpt>
      <trkpt lat="46.15" lon="6.50832">
        <ele>888.6</ele>
        <time>2021-06-26T06:39:57Z</time>
      </trkpt>
      <trkpt lat="46.14999" lon="6.50836">
        <ele>888.8</ele>
        <time>2021-06-26T06:39:58Z</time>
      </trkpt>
      <trkpt lat="46.14998" lon="6.50841">
        <ele>889.2</ele>
        <time>2021-06-26T06:39:59Z</time>
      </trkpt>
      <trkpt lat="46.14997" lon="6.50845">
        <ele>889.4</ele>
        <time>2021-06-26T06:40:00Z</time>
      </trkpt>
      <trkpt lat="46.14997" lon="6.5085">
        <ele>889.6</ele>
        <time>2021-06-26T06:40:01Z</time>
      </trkpt>
      <trkpt lat="46.14997" lon="6.50855">
        <ele>889.6</ele>
        <time>2021-06-26T06:40:02Z</time>
      </trkpt>
      <trkpt lat="46.14997" lon="6.50859">
        <ele>889.6</ele>
        <time>2021-06-26T06:40:03Z</time>
      </trkpt>
      <trkpt lat="46.14997" lon="6.50864">
        <ele>890</ele>
        <time>2021-06-26T06:40:04Z</time>
      </trkpt>
      <trkpt lat="46.14997" lon="6.50868">
        <ele>890</ele>
        <time>2021-06-26T06:40:05Z</time>
      </trkpt>
      <trkpt lat="46.14998" lon="6.50873">
        <ele>890.2</ele>
        <time>2021-06-26T06:40:06Z</time>
      </trkpt>
      <trkpt lat="46.14998" lon="6.50877">
        <ele>890.2</ele>
        <time>2021-06-26T06:40:07Z</time>
      </trkpt>
      <trkpt lat="46.14998" lon="6.50882">
        <ele>890.4</ele>
        <time>2021-06-26T06:40:08Z</time>
      </trkpt>
      <trkpt lat="46.14998" lon="6.50887">
        <ele>890.8</ele>
        <time>2021-06-26T06:40:09Z</time>
      </trkpt>
      <trkpt lat="46.14999" lon="6.50891">
        <ele>891</ele>
        <time>2021-06-26T06:40:10Z</time>
      </trkpt>
      <trkpt lat="46.14999" lon="6.50895">
        <ele>891.2</ele>
        <time>2021-06-26T06:40:11Z</time>
      </trkpt>
      <trkpt lat="46.14999" lon="6.509">
        <ele>891.4</ele>
        <time>2021-06-26T06:40:12Z</time>
      </trkpt>
      <trkpt lat="46.15" lon="6.50904">
        <ele>891.2</ele>
        <time>2021-06-26T06:40:13Z</time>
      </trkpt>
      <trkpt lat="46.15" lon="6.50909">
        <ele>891.4</ele>
        <time>2021-06-26T06:40:14Z</time>
      </trkpt>
      <trkpt lat="46.15" lon="6.50913">
        <ele>891.6</ele>
        <time>2021-06-26T06:40:15Z</time>
      </trkpt>
      <trkpt lat="46.15" lon="6.50918">
        <ele>891.8</ele>
        <time>2021-06-26T06:40:16Z</time>
      </trkpt>
      <trkpt lat="46.15" lon="6.50922">
        <ele>892</ele>
        <time>2021-06-26T06:40:17Z</time>
      </trkpt>
      <trkpt lat="46.15" lon="6.50927">
        <ele>892.2</ele>
        <time>2021-06-26T06:40:18Z</time>
      </trkpt>
      <trkpt lat="46.15001" lon="6.50931">
        <ele>892.4</ele>
        <time>2021-06-26T06:40:19Z</time>
      </trkpt>
      <trkpt lat="46.15001" lon="6.50936">
        <ele>892.4</ele>
        <time>2021-06-26T06:40:20Z</time>
      </trkpt>
      <trkpt lat="46.15001" lon="6.5094">
        <ele>892.6</ele>
        <time>2021-06-26T06:40:21Z</time>
      </trkpt>
      <trkpt lat="46.15001" lon="6.50945">
        <ele>892.8</ele>
        <time>2021-06-26T06:40:22Z</time>
      </trkpt>
      <trkpt lat="46.15001" lon="6.50949">
        <ele>893</ele>
        <time>2021-06-26T06:40:23Z</time>
      </trkpt>
      <trkpt lat="46.15002" lon="6.50954">
        <ele>893</ele>
        <time>2021-06-26T06:40:24Z</time>
      </trkpt>
      <trkpt lat="46.15002" lon="6.50958">
        <ele>893.4</ele>
        <time>2021-06-26T06:40:25Z</time>
      </trkpt>
      <trkpt lat="46.15002" lon="6.50962">
        <ele>893.6</ele>
        <time>2021-06-26T06:40:26Z</time>
      </trkpt>
      <trkpt lat="46.15002" lon="6.50967">
        <ele>893.8</ele>
        <time>2021-06-26T06:40:27Z</time>
      </trkpt>
      <trkpt lat="46.15002" lon="6.50971">
        <ele>894</ele>
        <time>2021-06-26T06:40:28Z</time>
      </trkpt>
      <trkpt lat="46.15003" lon="6.50975">
        <ele>894</ele>
        <time>2021-06-26T06:40:29Z</time>
      </trkpt>
      <trkpt lat="46.15003" lon="6.50979">
        <ele>894.4</ele>
        <time>2021-06-26T06:40:30Z</time>
      </trkpt>
      <trkpt lat="46.15004" lon="6.50984">
        <ele>894.8</ele>
        <time>2021-06-26T06:40:31Z</time>
      </trkpt>
      <trkpt lat="46.15005" lon="6.50988">
        <ele>895</ele>
        <time>2021-06-26T06:40:32Z</time>
      </trkpt>
      <trkpt lat="46.15005" lon="6.50992">
        <ele>895.4</ele>
        <time>2021-06-26T06:40:33Z</time>
      </trkpt>
      <trkpt lat="46.15006" lon="6.50996">
        <ele>895.6</ele>
        <time>2021-06-26T06:40:34Z</time>
      </trkpt>
      <trkpt lat="46.15006" lon="6.50999">
        <ele>896</ele>
        <time>2021-06-26T06:40:35Z</time>
      </trkpt>
      <trkpt lat="46.15008" lon="6.51003">
        <ele>896</ele>
        <time>2021-06-26T06:40:36Z</time>
      </trkpt>
      <trkpt lat="46.15009" lon="6.51006">
        <ele>896.4</ele>
        <time>2021-06-26T06:40:37Z</time>
      </trkpt>
      <trkpt lat="46.1501" lon="6.51009">
        <ele>896.6</ele>
        <time>2021-06-26T06:40:38Z</time>
      </trkpt>
      <trkpt lat="46.15011" lon="6.51013">
        <ele>896.8</ele>
        <time>2021-06-26T06:40:39Z</time>
      </trkpt>
      <trkpt lat="46.15012" lon="6.51016">
        <ele>897.2</ele>
        <time>2021-06-26T06:40:40Z</time>
      </trkpt>
      <trkpt lat="46.15014" lon="6.51019">
        <ele>897.4</ele>
        <time>2021-06-26T06:40:41Z</time>
      </trkpt>
      <trkpt lat="46.15015" lon="6.51023">
        <ele>897.8</ele>
        <time>2021-06-26T06:40:42Z</time>
      </trkpt>
      <trkpt lat="46.15017" lon="6.51026">
        <ele>898</ele>
        <time>2021-06-26T06:40:43Z</time>
      </trkpt>
      <trkpt lat="46.15018" lon="6.51029">
        <ele>898.2</ele>
        <time>2021-06-26T06:40:44Z</time>
      </trkpt>
      <trkpt lat="46.1502" lon="6.51032">
        <ele>898.6</ele>
        <time>2021-06-26T06:40:45Z</time>
      </trkpt>
      <trkpt lat="46.15022" lon="6.51034">
        <ele>898.8</ele>
        <time>2021-06-26T06:40:46Z</time>
      </trkpt>
      <trkpt lat="46.15023" lon="6.51038">
        <ele>899.2</ele>
        <time>2021-06-26T06:40:47Z</time>
      </trkpt>
      <trkpt lat="46.15025" lon="6.51041">
        <ele>899.4</ele>
        <time>2021-06-26T06:40:48Z</time>
      </trkpt>
      <trkpt lat="46.15027" lon="6.51044">
        <ele>899.4</ele>
        <time>2021-06-26T06:40:49Z</time>
      </trkpt>
      <trkpt lat="46.15028" lon="6.51046">
        <ele>899.4</ele>
        <time>2021-06-26T06:40:50Z</time>
      </trkpt>
      <trkpt lat="46.1503" lon="6.51049">
        <ele>899.8</ele>
        <time>2021-06-26T06:40:51Z</time>
      </trkpt>
      <trkpt lat="46.15032" lon="6.51052">
        <ele>900</ele>
        <time>2021-06-26T06:40:52Z</time>
      </trkpt>
      <trkpt lat="46.15034" lon="6.51054">
        <ele>900.2</ele>
        <time>2021-06-26T06:40:53Z</time>
      </trkpt>
      <trkpt lat="46.15036" lon="6.51057">
        <ele>900.4</ele>
        <time>2021-06-26T06:40:54Z</time>
      </trkpt>
      <trkpt lat="46.15038" lon="6.5106">
        <ele>900.6</ele>
        <time>2021-06-26T06:40:55Z</time>
      </trkpt>
      <trkpt lat="46.1504" lon="6.51063">
        <ele>900.8</ele>
        <time>2021-06-26T06:40:56Z</time>
      </trkpt>
      <trkpt lat="46.15042" lon="6.51065">
        <ele>901</ele>
        <time>2021-06-26T06:40:57Z</time>
      </trkpt>
      <trkpt lat="46.15044" lon="6.51067">
        <ele>901.4</ele>
        <time>2021-06-26T06:40:58Z</time>
      </trkpt>
      <trkpt lat="46.15047" lon="6.51069">
        <ele>901.6</ele>
        <time>2021-06-26T06:40:59Z</time>
      </trkpt>
      <trkpt lat="46.15049" lon="6.51071">
        <ele>901.8</ele>
        <time>2021-06-26T06:41:00Z</time>
      </trkpt>
      <trkpt lat="46.15051" lon="6.51073">
        <ele>902</ele>
        <time>2021-06-26T06:41:01Z</time>
      </trkpt>
      <trkpt lat="46.15054" lon="6.51075">
        <ele>902.2</ele>
        <time>2021-06-26T06:41:02Z</time>
      </trkpt>
      <trkpt lat="46.15056" lon="6.51077">
        <ele>902.6</ele>
        <time>2021-06-26T06:41:03Z</time>
      </trkpt>
      <trkpt lat="46.15058" lon="6.51079">
        <ele>902.8</ele>
        <time>2021-06-26T06:41:04Z</time>
      </trkpt>
      <trkpt lat="46.1506" lon="6.51081">
        <ele>902.8</ele>
        <time>2021-06-26T06:41:05Z</time>
      </trkpt>
      <trkpt lat="46.15063" lon="6.51083">
        <ele>903.2</ele>
        <time>2021-06-26T06:41:06Z</time>
      </trkpt>
      <trkpt lat="46.15065" lon="6.51085">
        <ele>903.2</ele>
        <time>2021-06-26T06:41:07Z</time>
      </trkpt>
      <trkpt lat="46.15068" lon="6.51087">
        <ele>903.6</ele>
        <time>2021-06-26T06:41:08Z</time>
      </trkpt>
      <trkpt lat="46.15071" lon="6.51089">
        <ele>904</ele>
        <time>2021-06-26T06:41:09Z</time>
      </trkpt>
      <trkpt lat="46.15074" lon="6.5109">
        <ele>904.2</ele>
        <time>2021-06-26T06:41:10Z</time>
      </trkpt>
      <trkpt lat="46.15076" lon="6.51092">
        <ele>904.2</ele>
        <time>2021-06-26T06:41:11Z</time>
      </trkpt>
      <trkpt lat="46.15079" lon="6.51094">
        <ele>904.2</ele>
        <time>2021-06-26T06:41:12Z</time>
      </trkpt>
      <trkpt lat="46.15081" lon="6.51097">
        <ele>904.6</ele>
        <time>2021-06-26T06:41:13Z</time>
      </trkpt>
      <trkpt lat="46.15083" lon="6.51099">
        <ele>904.6</ele>
        <time>2021-06-26T06:41:14Z</time>
      </trkpt>
      <trkpt lat="46.15085" lon="6.51102">
        <ele>904.8</ele>
        <time>2021-06-26T06:41:15Z</time>
      </trkpt>
      <trkpt lat="46.15087" lon="6.51105">
        <ele>905.2</ele>
        <time>2021-06-26T06:41:16Z</time>
      </trkpt>
      <trkpt lat="46.15088" lon="6.51108">
        <ele>905.2</ele>
        <time>2021-06-26T06:41:17Z</time>
      </trkpt>
      <trkpt lat="46.1509" lon="6.51111">
        <ele>905.6</ele>
        <time>2021-06-26T06:41:18Z</time>
      </trkpt>
      <trkpt lat="46.15091" lon="6.51114">
        <ele>905.6</ele>
        <time>2021-06-26T06:41:19Z</time>
      </trkpt>
      <trkpt lat="46.15092" lon="6.51117">
        <ele>906</ele>
        <time>2021-06-26T06:41:20Z</time>
      </trkpt>
      <trkpt lat="46.15093" lon="6.51121">
        <ele>906.2</ele>
        <time>2021-06-26T06:41:21Z</time>
      </trkpt>
      <trkpt lat="46.15094" lon="6.51125">
        <ele>906.6</ele>
        <time>2021-06-26T06:41:22Z</time>
      </trkpt>
      <trkpt lat="46.15095" lon="6.51128">
        <ele>906.8</ele>
        <time>2021-06-26T06:41:23Z</time>
      </trkpt>
      <trkpt lat="46.15095" lon="6.51132">
        <ele>906.8</ele>
        <time>2021-06-26T06:41:24Z</time>
      </trkpt>
      <trkpt lat="46.15096" lon="6.51136">
        <ele>907</ele>
        <time>2021-06-26T06:41:25Z</time>
      </trkpt>
      <trkpt lat="46.15096" lon="6.5114">
        <ele>907.4</ele>
        <time>2021-06-26T06:41:26Z</time>
      </trkpt>
      <trkpt lat="46.15096" lon="6.51143">
        <ele>907.4</ele>
        <time>2021-06-26T06:41:27Z</time>
      </trkpt>
      <trkpt lat="46.15097" lon="6.51147">
        <ele>907.6</ele>
        <time>2021-06-26T06:41:28Z</time>
      </trkpt>
      <trkpt lat="46.15097" lon="6.51151">
        <ele>907.8</ele>
        <time>2021-06-26T06:41:29Z</time>
      </trkpt>
      <trkpt lat="46.15097" lon="6.51154">
        <ele>908</ele>
        <time>2021-06-26T06:41:30Z</time>
      </trkpt>
      <trkpt lat="46.15098" lon="6.51157">
        <ele>908</ele>
        <time>2021-06-26T06:41:31Z</time>
      </trkpt>
      <trkpt lat="46.15099" lon="6.51161">
        <ele>908.4</ele>
        <time>2021-06-26T06:41:32Z</time>
      </trkpt>
      <trkpt lat="46.15099" lon="6.51164">
        <ele>908.4</ele>
        <time>2021-06-26T06:41:33Z</time>
      </trkpt>
      <trkpt lat="46.15099" lon="6.51168">
        <ele>908.6</ele>
        <time>2021-06-26T06:41:34Z</time>
      </trkpt>
      <trkpt lat="46.151" lon="6.51172">
        <ele>908.8</ele>
        <time>2021-06-26T06:41:35Z</time>
      </trkpt>
      <trkpt lat="46.151" lon="6.51175">
        <ele>909</ele>
        <time>2021-06-26T06:41:36Z</time>
      </trkpt>
      <trkpt lat="46.15101" lon="6.51179">
        <ele>909.4</ele>
        <time>2021-06-26T06:41:37Z</time>
      </trkpt>
      <trkpt lat="46.15101" lon="6.51182">
        <ele>909.6</ele>
        <time>2021-06-26T06:41:38Z</time>
      </trkpt>
      <trkpt lat="46.15101" lon="6.51186">
        <ele>909.8</ele>
        <time>2021-06-26T06:41:39Z</time>
      </trkpt>
      <trkpt lat="46.15102" lon="6.5119">
        <ele>909.8</ele>
        <time>2021-06-26T06:41:40Z</time>
      </trkpt>
      <trkpt lat="46.15103" lon="6.51193">
        <ele>910.2</ele>
        <time>2021-06-26T06:41:41Z</time>
      </trkpt>
      <trkpt lat="46.15104" lon="6.51197">
        <ele>910.4</ele>
        <time>2021-06-26T06:41:42Z</time>
      </trkpt>
      <trkpt lat="46.15105" lon="6.512">
        <ele>910.8</ele>
        <time>2021-06-26T06:41:43Z</time>
      </trkpt>
      <trkpt lat="46.15106" lon="6.51204">
        <ele>911</ele>
        <time>2021-06-26T06:41:44Z</time>
      </trkpt>
      <trkpt lat="46.15106" lon="6.51207">
        <ele>911.2</ele>
        <time>2021-06-26T06:41:45Z</time>
      </trkpt>
      <trkpt lat="46.15107" lon="6.51211">
        <ele>911.4</ele>
        <time>2021-06-26T06:41:46Z</time>
      </trkpt>
      <trkpt lat="46.15108" lon="6.51215">
        <ele>911.6</ele>
        <time>2021-06-26T06:41:47Z</time>
      </trkpt>
      <trkpt lat="46.1511" lon="6.51218">
        <ele>912</ele>
        <time>2021-06-26T06:41:48Z</time>
      </trkpt>
      <trkpt lat="46.15111" lon="6.51221">
        <ele>912.2</ele>
        <time>2021-06-26T06:41:49Z</time>
      </trkpt>
      <trkpt lat="46.15112" lon="6.51224">
        <ele>912.6</ele>
        <time>2021-06-26T06:41:50Z</time>
      </trkpt>
      <trkpt lat="46.15114" lon="6.51227">
        <ele>912.8</ele>
        <time>2021-06-26T06:41:51Z</time>
      </trkpt>
      <trkpt lat="46.15116" lon="6.5123">
        <ele>913</ele>
        <time>2021-06-26T06:41:52Z</time>
      </trkpt>
      <trkpt lat="46.15118" lon="6.51232">
        <ele>913.4</ele>
        <time>2021-06-26T06:41:53Z</time>
      </trkpt>
      <trkpt lat="46.1512" lon="6.51235">
        <ele>913.4</ele>
        <time>2021-06-26T06:41:54Z</time>
      </trkpt>
      <trkpt lat="46.15123" lon="6.51237">
        <ele>913.6</ele>
        <time>2021-06-26T06:41:55Z</time>
      </trkpt>
      <trkpt lat="46.15125" lon="6.51239">
        <ele>913.6</ele>
        <time>2021-06-26T06:41:56Z</time>
      </trkpt>
      <trkpt lat="46.15127" lon="6.51241">
        <ele>914</ele>
        <time>2021-06-26T06:41:57Z</time>
      </trkpt>
      <trkpt lat="46.15129" lon="6.51242">
        <ele>914.4</ele>
        <time>2021-06-26T06:41:58Z</time>
      </trkpt>
      <trkpt lat="46.15132" lon="6.51244">
        <ele>914.4</ele>
        <time>2021-06-26T06:41:59Z</time>
      </trkpt>
      <trkpt lat="46.15134" lon="6.51246">
        <ele>914.6</ele>
        <time>2021-06-26T06:42:00Z</time>
      </trkpt>
      <trkpt lat="46.15137" lon="6.51247">
        <ele>914.8</ele>
        <time>2021-06-26T06:42:01Z</time>
      </trkpt>
      <trkpt lat="46.15139" lon="6.51248">
        <ele>915</ele>
        <time>2021-06-26T06:42:02Z</time>
      </trkpt>
      <trkpt lat="46.15142" lon="6.5125">
        <ele>915.2</ele>
        <time>2021-06-26T06:42:03Z</time>
      </trkpt>
      <trkpt lat="46.15145" lon="6.51251">
        <ele>915.4</ele>
        <time>2021-06-26T06:42:04Z</time>
      </trkpt>
      <trkpt lat="46.15147" lon="6.51252">
        <ele>915.6</ele>
        <time>2021-06-26T06:42:05Z</time>
      </trkpt>
      <trkpt lat="46.1515" lon="6.51253">
        <ele>916</ele>
        <time>2021-06-26T06:42:06Z</time>
      </trkpt>
      <trkpt lat="46.15153" lon="6.51253">
        <ele>916.2</ele>
        <time>2021-06-26T06:42:07Z</time>
      </trkpt>
      <trkpt lat="46.15155" lon="6.51254">
        <ele>916.4</ele>
        <time>2021-06-26T06:42:08Z</time>
      </trkpt>
      <trkpt lat="46.15158" lon="6.51254">
        <ele>916.6</ele>
        <time>2021-06-26T06:42:09Z</time>
      </trkpt>
      <trkpt lat="46.15161" lon="6.51254">
        <ele>916.8</ele>
        <time>2021-06-26T06:42:10Z</time>
      </trkpt>
      <trkpt lat="46.15164" lon="6.51254">
        <ele>917</ele>
        <time>2021-06-26T06:42:11Z</time>
      </trkpt>
      <trkpt lat="46.15166" lon="6.51253">
        <ele>917.2</ele>
        <time>2021-06-26T06:42:12Z</time>
      </trkpt>
      <trkpt lat="46.15169" lon="6.51252">
        <ele>917.4</ele>
        <time>2021-06-26T06:42:13Z</time>
      </trkpt>
      <trkpt lat="46.15172" lon="6.51251">
        <ele>917.4</ele>
        <time>2021-06-26T06:42:14Z</time>
      </trkpt>
      <trkpt lat="46.15174" lon="6.51249">
        <ele>917.6</ele>
        <time>2021-06-26T06:42:15Z</time>
      </trkpt>
      <trkpt lat="46.15177" lon="6.51247">
        <ele>917.6</ele>
        <time>2021-06-26T06:42:16Z</time>
      </trkpt>
      <trkpt lat="46.15179" lon="6.51246">
        <ele>917.8</ele>
        <time>2021-06-26T06:42:17Z</time>
      </trkpt>
      <trkpt lat="46.15182" lon="6.51243">
        <ele>918</ele>
        <time>2021-06-26T06:42:18Z</time>
      </trkpt>
      <trkpt lat="46.15184" lon="6.51241">
        <ele>918.2</ele>
        <time>2021-06-26T06:42:19Z</time>
      </trkpt>
      <trkpt lat="46.15187" lon="6.51238">
        <ele>918.2</ele>
        <time>2021-06-26T06:42:20Z</time>
      </trkpt>
      <trkpt lat="46.15189" lon="6.51236">
        <ele>918.4</ele>
        <time>2021-06-26T06:42:21Z</time>
      </trkpt>
      <trkpt lat="46.15191" lon="6.51233">
        <ele>918.6</ele>
        <time>2021-06-26T06:42:22Z</time>
      </trkpt>
      <trkpt lat="46.15193" lon="6.51231">
        <ele>919</ele>
        <time>2021-06-26T06:42:23Z</time>
      </trkpt>
      <trkpt lat="46.15195" lon="6.51228">
        <ele>919.2</ele>
        <time>2021-06-26T06:42:24Z</time>
      </trkpt>
      <trkpt lat="46.15198" lon="6.51226">
        <ele>919.4</ele>
        <time>2021-06-26T06:42:25Z</time>
      </trkpt>
      <trkpt lat="46.152" lon="6.51224">
        <ele>919.8</ele>
        <time>2021-06-26T06:42:26Z</time>
      </trkpt>
      <trkpt lat="46.15202" lon="6.51221">
        <ele>919.8</ele>
        <time>2021-06-26T06:42:27Z</time>
      </trkpt>
      <trkpt lat="46.15204" lon="6.51218">
        <ele>920</ele>
        <time>2021-06-26T06:42:28Z</time>
      </trkpt>
      <trkpt lat="46.15207" lon="6.51216">
        <ele>920</ele>
        <time>2021-06-26T06:42:29Z</time>
      </trkpt>
      <trkpt lat="46.15209" lon="6.51213">
        <ele>920.4</ele>
        <time>2021-06-26T06:42:30Z</time>
      </trkpt>
      <trkpt lat="46.15211" lon="6.5121">
        <ele>920.6</ele>
        <time>2021-06-26T06:42:31Z</time>
      </trkpt>
      <trkpt lat="46.15213" lon="6.51208">
        <ele>920.8</ele>
        <time>2021-06-26T06:42:32Z</time>
      </trkpt>
      <trkpt lat="46.15215" lon="6.51205">
        <ele>921</ele>
        <time>2021-06-26T06:42:33Z</time>
      </trkpt>
      <trkpt lat="46.15217" lon="6.51203">
        <ele>921.4</ele>
        <time>2021-06-26T06:42:34Z</time>
      </trkpt>
      <trkpt lat="46.15219" lon="6.512">
        <ele>921.4</ele>
        <time>2021-06-26T06:42:35Z</time>
      </trkpt>
      <trkpt lat="46.15221" lon="6.51198">
        <ele>921.6</ele>
        <time>2021-06-26T06:42:36Z</time>
      </trkpt>
      <trkpt lat="46.15223" lon="6.51195">
        <ele>921.6</ele>
        <time>2021-06-26T06:42:37Z</time>
      </trkpt>
      <trkpt lat="46.15225" lon="6.51193">
        <ele>921.8</ele>
        <time>2021-06-26T06:42:38Z</time>
      </trkpt>
      <trkpt lat="46.15227" lon="6.5119">
        <ele>921.8</ele>
        <time>2021-06-26T06:42:39Z</time>
      </trkpt>
      <trkpt lat="46.15229" lon="6.51188">
        <ele>922</ele>
        <time>2021-06-26T06:42:40Z</time>
      </trkpt>
      <trkpt lat="46.1523" lon="6.51186">
        <ele>922.2</ele>
        <time>2021-06-26T06:42:41Z</time>
      </trkpt>
      <trkpt lat="46.15232" lon="6.51183">
        <ele>922.4</ele>
        <time>2021-06-26T06:42:42Z</time>
      </trkpt>
      <trkpt lat="46.15234" lon="6.51181">
        <ele>922.6</ele>
        <time>2021-06-26T06:42:43Z</time>
      </trkpt>
      <trkpt lat="46.15236" lon="6.51178">
        <ele>923</ele>
        <time>2021-06-26T06:42:44Z</time>
      </trkpt>
      <trkpt lat="46.15238" lon="6.51176">
        <ele>923.2</ele>
        <time>2021-06-26T06:42:45Z</time>
      </trkpt>
      <trkpt lat="46.1524" lon="6.51173">
        <ele>923.6</ele>
        <time>2021-06-26T06:42:46Z</time>
      </trkpt>
      <trkpt lat="46.15242" lon="6.5117">
        <ele>923.6</ele>
        <time>2021-06-26T06:42:47Z</time>
      </trkpt>
      <trkpt lat="46.15244" lon="6.51168">
        <ele>924</ele>
        <time>2021-06-26T06:42:48Z</time>
      </trkpt>
      <trkpt lat="46.15246" lon="6.51165">
        <ele>924.4</ele>
        <time>2021-06-26T06:42:49Z</time>
      </trkpt>
      <trkpt lat="46.15248" lon="6.51162">
        <ele>924.6</ele>
        <time>2021-06-26T06:42:50Z</time>
      </trkpt>
      <trkpt lat="46.1525" lon="6.51159">
        <ele>924.8</ele>
        <time>2021-06-26T06:42:51Z</time>
      </trkpt>
      <trkpt lat="46.15252" lon="6.51157">
        <ele>925</ele>
        <time>2021-06-26T06:42:52Z</time>
      </trkpt>
      <trkpt lat="46.15254" lon="6.51154">
        <ele>925.2</ele>
        <time>2021-06-26T06:42:53Z</time>
      </trkpt>
      <trkpt lat="46.15256" lon="6.51151">
        <ele>925.6</ele>
        <time>2021-06-26T06:42:54Z</time>
      </trkpt>
      <trkpt lat="46.15258" lon="6.51148">
        <ele>925.6</ele>
        <time>2021-06-26T06:42:55Z</time>
      </trkpt>
      <trkpt lat="46.15259" lon="6.51145">
        <ele>925.8</ele>
        <time>2021-06-26T06:42:56Z</time>
      </trkpt>
      <trkpt lat="46.15261" lon="6.51142">
        <ele>926</ele>
        <time>2021-06-26T06:42:57Z</time>
      </trkpt>
      <trkpt lat="46.15263" lon="6.51139">
        <ele>926.2</ele>
        <time>2021-06-26T06:42:58Z</time>
      </trkpt>
      <trkpt lat="46.15265" lon="6.51136">
        <ele>926.2</ele>
        <time>2021-06-26T06:42:59Z</time>
      </trkpt>
      <trkpt lat="46.15266" lon="6.51133">
        <ele>926.4</ele>
        <time>2021-06-26T06:43:00Z</time>
      </trkpt>
      <trkpt lat="46.15268" lon="6.5113">
        <ele>926.6</ele>
        <time>2021-06-26T06:43:01Z</time>
      </trkpt>
      <trkpt lat="46.1527" lon="6.51127">
        <ele>926.8</ele>
        <time>2021-06-26T06:43:02Z</time>
      </trkpt>
      <trkpt lat="46.15271" lon="6.51124">
        <ele>926.8</ele>
        <time>2021-06-26T06:43:03Z</time>
      </trkpt>
      <trkpt lat="46.15273" lon="6.51121">
        <ele>927.2</ele>
        <time>2021-06-26T06:43:04Z</time>
      </trkpt>
      <trkpt lat="46.15275" lon="6.51118">
        <ele>927.4</ele>
        <time>2021-06-26T06:43:05Z</time>
      </trkpt>
      <trkpt lat="46.15277" lon="6.51115">
        <ele>927.6</ele>
        <time>2021-06-26T06:43:06Z</time>
      </trkpt>
      <trkpt lat="46.15278" lon="6.51112">
        <ele>927.8</ele>
        <time>2021-06-26T06:43:07Z</time>
      </trkpt>
      <trkpt lat="46.1528" lon="6.51108">
        <ele>928</ele>
        <time>2021-06-26T06:43:08Z</time>
      </trkpt>
      <trkpt lat="46.15282" lon="6.51105">
        <ele>928.4</ele>
        <time>2021-06-26T06:43:09Z</time>
      </trkpt>
      <trkpt lat="46.15284" lon="6.51102">
        <ele>928.4</ele>
        <time>2021-06-26T06:43:10Z</time>
      </trkpt>
      <trkpt lat="46.15286" lon="6.51099">
        <ele>928.6</ele>
        <time>2021-06-26T06:43:11Z</time>
      </trkpt>
      <trkpt lat="46.15288" lon="6.51096">
        <ele>928.8</ele>
        <time>2021-06-26T06:43:12Z</time>
      </trkpt>
      <trkpt lat="46.1529" lon="6.51093">
        <ele>929</ele>
        <time>2021-06-26T06:43:13Z</time>
      </trkpt>
      <trkpt lat="46.15292" lon="6.5109">
        <ele>929</ele>
        <time>2021-06-26T06:43:14Z</time>
      </trkpt>
      <trkpt lat="46.15294" lon="6.51088">
        <ele>929</ele>
        <time>2021-06-26T06:43:15Z</time>
      </trkpt>
      <trkpt lat="46.15296" lon="6.51085">
        <ele>929.4</ele>
        <time>2021-06-26T06:43:16Z</time>
      </trkpt>
      <trkpt lat="46.15298" lon="6.51083">
        <ele>929.6</ele>
        <time>2021-06-26T06:43:17Z</time>
      </trkpt>
      <trkpt lat="46.153" lon="6.51081">
        <ele>929.8</ele>
        <time>2021-06-26T06:43:18Z</time>
      </trkpt>
      <trkpt lat="46.15302" lon="6.51079">
        <ele>929.8</ele>
        <time>2021-06-26T06:43:19Z</time>
      </trkpt>
      <trkpt lat="46.15304" lon="6.51077">
        <ele>930</ele>
        <time>2021-06-26T06:43:20Z</time>
      </trkpt>
      <trkpt lat="46.15307" lon="6.51075">
        <ele>930</ele>
        <time>2021-06-26T06:43:21Z</time>
      </trkpt>
      <trkpt lat="46.15309" lon="6.51074">
        <ele>930</ele>
        <time>2021-06-26T06:43:22Z</time>
      </trkpt>
      <trkpt lat="46.15312" lon="6.51073">
        <ele>930.2</ele>
        <time>2021-06-26T06:43:23Z</time>
      </trkpt>
      <trkpt lat="46.15315" lon="6.51072">
        <ele>930.4</ele>
        <time>2021-06-26T06:43:24Z</time>
      </trkpt>
      <trkpt lat="46.15317" lon="6.51071">
        <ele>930.6</ele>
        <time>2021-06-26T06:43:25Z</time>
      </trkpt>
      <trkpt lat="46.1532" lon="6.51071">
        <ele>930.8</ele>
        <time>2021-06-26T06:43:26Z</time>
      </trkpt>
      <trkpt lat="46.15322" lon="6.5107">
        <ele>931</ele>
        <time>2021-06-26T06:43:27Z</time>
      </trkpt>
      <trkpt lat="46.15325" lon="6.5107">
        <ele>931.4</ele>
        <time>2021-06-26T06:43:28Z</time>
      </trkpt>
      <trkpt lat="46.15327" lon="6.5107">
        <ele>931.6</ele>
        <time>2021-06-26T06:43:29Z</time>
      </trkpt>
      <trkpt lat="46.1533" lon="6.5107">
        <ele>931.8</ele>
        <time>2021-06-26T06:43:30Z</time>
      </trkpt>
      <trkpt lat="46.15332" lon="6.51071">
        <ele>932</ele>
        <time>2021-06-26T06:43:31Z</time>
      </trkpt>
      <trkpt lat="46.15335" lon="6.51071">
        <ele>932.2</ele>
        <time>2021-06-26T06:43:32Z</time>
      </trkpt>
      <trkpt lat="46.15338" lon="6.51071">
        <ele>932.4</ele>
        <time>2021-06-26T06:43:33Z</time>
      </trkpt>
      <trkpt lat="46.1534" lon="6.51072">
        <ele>932.6</ele>
        <time>2021-06-26T06:43:34Z</time>
      </trkpt>
      <trkpt lat="46.15343" lon="6.51072">
        <ele>932.8</ele>
        <time>2021-06-26T06:43:35Z</time>
      </trkpt>
      <trkpt lat="46.15346" lon="6.51073">
        <ele>933.2</ele>
        <time>2021-06-26T06:43:36Z</time>
      </trkpt>
      <trkpt lat="46.15348" lon="6.51074">
        <ele>933.4</ele>
        <time>2021-06-26T06:43:37Z</time>
      </trkpt>
      <trkpt lat="46.15351" lon="6.51075">
        <ele>933.6</ele>
        <time>2021-06-26T06:43:38Z</time>
      </trkpt>
      <trkpt lat="46.15354" lon="6.51075">
        <ele>934</ele>
        <time>2021-06-26T06:43:39Z</time>
      </trkpt>
      <trkpt lat="46.15357" lon="6.51075">
        <ele>934.2</ele>
        <time>2021-06-26T06:43:40Z</time>
      </trkpt>
      <trkpt lat="46.15359" lon="6.51075">
        <ele>934.6</ele>
        <time>2021-06-26T06:43:41Z</time>
      </trkpt>
      <trkpt lat="46.15362" lon="6.51076">
        <ele>934.8</ele>
        <time>2021-06-26T06:43:42Z</time>
      </trkpt>
      <trkpt lat="46.15364" lon="6.51076">
        <ele>934.8</ele>
        <time>2021-06-26T06:43:43Z</time>
      </trkpt>
      <trkpt lat="46.15367" lon="6.51077">
        <ele>935.4</ele>
        <time>2021-06-26T06:43:44Z</time>
      </trkpt>
      <trkpt lat="46.15369" lon="6.51077">
        <ele>935.4</ele>
        <time>2021-06-26T06:43:45Z</time>
      </trkpt>
      <trkpt lat="46.15372" lon="6.51077">
        <ele>935.8</ele>
        <time>2021-06-26T06:43:46Z</time>
      </trkpt>
      <trkpt lat="46.15374" lon="6.51077">
        <ele>935.8</ele>
        <time>2021-06-26T06:43:47Z</time>
      </trkpt>
      <trkpt lat="46.15377" lon="6.51077">
        <ele>936.2</ele>
        <time>2021-06-26T06:43:48Z</time>
      </trkpt>
      <trkpt lat="46.1538" lon="6.51077">
        <ele>936.2</ele>
        <time>2021-06-26T06:43:49Z</time>
      </trkpt>
      <trkpt lat="46.15383" lon="6.51077">
        <ele>936.4</ele>
        <time>2021-06-26T06:43:50Z</time>
      </trkpt>
      <trkpt lat="46.15385" lon="6.51076">
        <ele>936.6</ele>
        <time>2021-06-26T06:43:51Z</time>
      </trkpt>
      <trkpt lat="46.15388" lon="6.51076">
        <ele>936.8</ele>
        <time>2021-06-26T06:43:52Z</time>
      </trkpt>
      <trkpt lat="46.15391" lon="6.51076">
        <ele>937</ele>
        <time>2021-06-26T06:43:53Z</time>
      </trkpt>
      <trkpt lat="46.15393" lon="6.51075">
        <ele>937.2</ele>
        <time>2021-06-26T06:43:54Z</time>
      </trkpt>
      <trkpt lat="46.15396" lon="6.51075">
        <ele>937.2</ele>
        <time>2021-06-26T06:43:55Z</time>
      </trkpt>
      <trkpt lat="46.15398" lon="6.51074">
        <ele>937.4</ele>
        <time>2021-06-26T06:43:56Z</time>
      </trkpt>
      <trkpt lat="46.15401" lon="6.51073">
        <ele>937.8</ele>
        <time>2021-06-26T06:43:57Z</time>
      </trkpt>
      <trkpt lat="46.15403" lon="6.51072">
        <ele>938</ele>
        <time>2021-06-26T06:43:58Z</time>
      </trkpt>
      <trkpt lat="46.15406" lon="6.51071">
        <ele>938.2</ele>
        <time>2021-06-26T06:43:59Z</time>
      </trkpt>
      <trkpt lat="46.15408" lon="6.51069">
        <ele>938.4</ele>
        <time>2021-06-26T06:44:00Z</time>
      </trkpt>
      <trkpt lat="46.15411" lon="6.51068">
        <ele>938.4</ele>
        <time>2021-06-26T06:44:01Z</time>
      </trkpt>
      <trkpt lat="46.15413" lon="6.51066">
        <ele>938.4</ele>
        <time>2021-06-26T06:44:02Z</time>
      </trkpt>
      <trkpt lat="46.15415" lon="6.51064">
        <ele>938.8</ele>
        <time>2021-06-26T06:44:03Z</time>
      </trkpt>
      <trkpt lat="46.15418" lon="6.51063">
        <ele>938.8</ele>
        <time>2021-06-26T06:44:04Z</time>
      </trkpt>
      <trkpt lat="46.1542" lon="6.51061">
        <ele>938.8</ele>
        <time>2021-06-26T06:44:05Z</time>
      </trkpt>
      <trkpt lat="46.15422" lon="6.51059">
        <ele>939.2</ele>
        <time>2021-06-26T06:44:06Z</time>
      </trkpt>
      <trkpt lat="46.15425" lon="6.51057">
        <ele>939.4</ele>
        <time>2021-06-26T06:44:07Z</time>
      </trkpt>
      <trkpt lat="46.15427" lon="6.51056">
        <ele>939.4</ele>
        <time>2021-06-26T06:44:08Z</time>
      </trkpt>
      <trkpt lat="46.15429" lon="6.51054">
        <ele>939.6</ele>
        <time>2021-06-26T06:44:09Z</time>
      </trkpt>
      <trkpt lat="46.15431" lon="6.51052">
        <ele>940</ele>
        <time>2021-06-26T06:44:10Z</time>
      </trkpt>
      <trkpt lat="46.15433" lon="6.5105">
        <ele>940.4</ele>
        <time>2021-06-26T06:44:11Z</time>
      </trkpt>
      <trkpt lat="46.15435" lon="6.51048">
        <ele>940.4</ele>
        <time>2021-06-26T06:44:12Z</time>
      </trkpt>
      <trkpt lat="46.15437" lon="6.51046">
        <ele>940.6</ele>
        <time>2021-06-26T06:44:13Z</time>
      </trkpt>
      <trkpt lat="46.15439" lon="6.51043">
        <ele>940.8</ele>
        <time>2021-06-26T06:44:14Z</time>
      </trkpt>
      <trkpt lat="46.15441" lon="6.51039">
        <ele>941</ele>
        <time>2021-06-26T06:44:15Z</time>
      </trkpt>
      <trkpt lat="46.15442" lon="6.51036">
        <ele>941.4</ele>
        <time>2021-06-26T06:44:16Z</time>
      </trkpt>
      <trkpt lat="46.15444" lon="6.51033">
        <ele>941.4</ele>
        <time>2021-06-26T06:44:17Z</time>
      </trkpt>
      <trkpt lat="46.15446" lon="6.5103">
        <ele>941.8</ele>
        <time>2021-06-26T06:44:18Z</time>
      </trkpt>
      <trkpt lat="46.15447" lon="6.51026">
        <ele>942</ele>
        <time>2021-06-26T06:44:19Z</time>
      </trkpt>
      <trkpt lat="46.15448" lon="6.51023">
        <ele>942</ele>
        <time>2021-06-26T06:44:20Z</time>
      </trkpt>
      <trkpt lat="46.1545" lon="6.5102">
        <ele>942.2</ele>
        <time>2021-06-26T06:44:21Z</time>
      </trkpt>
      <trkpt lat="46.15451" lon="6.51016">
        <ele>942.6</ele>
        <time>2021-06-26T06:44:22Z</time>
      </trkpt>
      <trkpt lat="46.15452" lon="6.51013">
        <ele>943</ele>
        <time>2021-06-26T06:44:23Z</time>
      </trkpt>
      <trkpt lat="46.15454" lon="6.5101">
        <ele>943.2</ele>
        <time>2021-06-26T06:44:24Z</time>
      </trkpt>
      <trkpt lat="46.15455" lon="6.51008">
        <ele>943.4</ele>
        <time>2021-06-26T06:44:25Z</time>
      </trkpt>
      <trkpt lat="46.15457" lon="6.51005">
        <ele>943.6</ele>
        <time>2021-06-26T06:44:26Z</time>
      </trkpt>
      <trkpt lat="46.15459" lon="6.51003">
        <ele>943.6</ele>
        <time>2021-06-26T06:44:27Z</time>
      </trkpt>
      <trkpt lat="46.15461" lon="6.51">
        <ele>943.8</ele>
        <time>2021-06-26T06:44:28Z</time>
      </trkpt>
      <trkpt lat="46.15462" lon="6.50997">
        <ele>944</ele>
        <time>2021-06-26T06:44:29Z</time>
      </trkpt>
      <trkpt lat="46.15464" lon="6.50994">
        <ele>944.2</ele>
        <time>2021-06-26T06:44:30Z</time>
      </trkpt>
      <trkpt lat="46.15466" lon="6.50992">
        <ele>944.4</ele>
        <time>2021-06-26T06:44:31Z</time>
      </trkpt>
      <trkpt lat="46.15467" lon="6.50989">
        <ele>944.4</ele>
        <time>2021-06-26T06:44:32Z</time>
      </trkpt>
      <trkpt lat="46.15469" lon="6.50986">
        <ele>944.6</ele>
        <time>2021-06-26T06:44:33Z</time>
      </trkpt>
      <trkpt lat="46.1547" lon="6.50983">
        <ele>944.8</ele>
        <time>2021-06-26T06:44:34Z</time>
      </trkpt>
      <trkpt lat="46.15472" lon="6.5098">
        <ele>945</ele>
        <time>2021-06-26T06:44:35Z</time>
      </trkpt>
      <trkpt lat="46.15474" lon="6.50977">
        <ele>945.2</ele>
        <time>2021-06-26T06:44:36Z</time>
      </trkpt>
      <trkpt lat="46.15475" lon="6.50975">
        <ele>945.4</ele>
        <time>2021-06-26T06:44:37Z</time>
      </trkpt>
      <trkpt lat="46.15477" lon="6.50972">
        <ele>945.4</ele>
        <time>2021-06-26T06:44:38Z</time>
      </trkpt>
      <trkpt lat="46.15479" lon="6.50969">
        <ele>945.8</ele>
        <time>2021-06-26T06:44:39Z</time>
      </trkpt>
      <trkpt lat="46.1548" lon="6.50966">
        <ele>946</ele>
        <time>2021-06-26T06:44:40Z</time>
      </trkpt>
      <trkpt lat="46.15482" lon="6.50963">
        <ele>946.2</ele>
        <time>2021-06-26T06:44:41Z</time>
      </trkpt>
      <trkpt lat="46.15483" lon="6.5096">
        <ele>946.4</ele>
        <time>2021-06-26T06:44:42Z</time>
      </trkpt>
      <trkpt lat="46.15485" lon="6.50957">
        <ele>946.6</ele>
        <time>2021-06-26T06:44:43Z</time>
      </trkpt>
      <trkpt lat="46.15487" lon="6.50954">
        <ele>946.8</ele>
        <time>2021-06-26T06:44:44Z</time>
      </trkpt>
      <trkpt lat="46.15489" lon="6.5095">
        <ele>947</ele>
        <time>2021-06-26T06:44:45Z</time>
      </trkpt>
      <trkpt lat="46.15491" lon="6.50948">
        <ele>947.2</ele>
        <time>2021-06-26T06:44:46Z</time>
      </trkpt>
      <trkpt lat="46.15493" lon="6.50945">
        <ele>947.4</ele>
        <time>2021-06-26T06:44:47Z</time>
      </trkpt>
      <trkpt lat="46.15496" lon="6.50943">
        <ele>947.6</ele>
        <time>2021-06-26T06:44:48Z</time>
      </trkpt>
      <trkpt lat="46.15499" lon="6.50941">
        <ele>947.6</ele>
        <time>2021-06-26T06:44:49Z</time>
      </trkpt>
      <trkpt lat="46.15501" lon="6.5094">
        <ele>947.8</ele>
        <time>2021-06-26T06:44:50Z</time>
      </trkpt>
      <trkpt lat="46.15503" lon="6.5094">
        <ele>947.8</ele>
        <time>2021-06-26T06:44:51Z</time>
      </trkpt>
      <trkpt lat="46.15506" lon="6.5094">
        <ele>948</ele>
        <time>2021-06-26T06:44:52Z</time>
      </trkpt>
      <trkpt lat="46.15508" lon="6.50942">
        <ele>948</ele>
        <time>2021-06-26T06:44:53Z</time>
      </trkpt>
      <trkpt lat="46.15509" lon="6.50945">
        <ele>948.4</ele>
        <time>2021-06-26T06:44:54Z</time>
      </trkpt>
      <trkpt lat="46.15511" lon="6.50948">
        <ele>948.4</ele>
        <time>2021-06-26T06:44:55Z</time>
      </trkpt>
      <trkpt lat="46.15512" lon="6.50951">
        <ele>948.6</ele>
        <time>2021-06-26T06:44:56Z</time>
      </trkpt>
      <trkpt lat="46.15513" lon="6.50954">
        <ele>949</ele>
        <time>2021-06-26T06:44:57Z</time>
      </trkpt>
      <trkpt lat="46.15513" lon="6.50958">
        <ele>949.4</ele>
        <time>2021-06-26T06:44:58Z</time>
      </trkpt>
      <trkpt lat="46.15513" lon="6.50961">
        <ele>949.4</ele>
        <time>2021-06-26T06:44:59Z</time>
      </trkpt>
      <trkpt lat="46.15512" lon="6.50965">
        <ele>949.6</ele>
        <time>2021-06-26T06:45:00Z</time>
      </trkpt>
      <trkpt lat="46.15511" lon="6.50968">
        <ele>950</ele>
        <time>2021-06-26T06:45:01Z</time>
      </trkpt>
      <trkpt lat="46.1551" lon="6.50971">
        <ele>950.4</ele>
        <time>2021-06-26T06:45:02Z</time>
      </trkpt>
      <trkpt lat="46.15509" lon="6.50975">
        <ele>950.8</ele>
        <time>2021-06-26T06:45:03Z</time>
      </trkpt>
      <trkpt lat="46.15508" lon="6.50978">
        <ele>951</ele>
        <time>2021-06-26T06:45:04Z</time>
      </trkpt>
      <trkpt lat="46.15506" lon="6.50981">
        <ele>951</ele>
        <time>2021-06-26T06:45:05Z</time>
      </trkpt>
      <trkpt lat="46.15504" lon="6.50985">
        <ele>951.4</ele>
        <time>2021-06-26T06:45:06Z</time>
      </trkpt>
      <trkpt lat="46.15503" lon="6.50988">
        <ele>951.4</ele>
        <time>2021-06-26T06:45:07Z</time>
      </trkpt>
      <trkpt lat="46.15501" lon="6.50992">
        <ele>951.6</ele>
        <time>2021-06-26T06:45:08Z</time>
      </trkpt>
      <trkpt lat="46.155" lon="6.50996">
        <ele>951.8</ele>
        <time>2021-06-26T06:45:09Z</time>
      </trkpt>
      <trkpt lat="46.15499" lon="6.51">
        <ele>952</ele>
        <time>2021-06-26T06:45:10Z</time>
      </trkpt>
      <trkpt lat="46.15498" lon="6.51004">
        <ele>952.2</ele>
        <time>2021-06-26T06:45:11Z</time>
      </trkpt>
      <trkpt lat="46.15496" lon="6.51008">
        <ele>952.2</ele>
        <time>2021-06-26T06:45:12Z</time>
      </trkpt>
      <trkpt lat="46.15495" lon="6.51012">
        <ele>952.2</ele>
        <time>2021-06-26T06:45:13Z</time>
      </trkpt>
      <trkpt lat="46.15494" lon="6.51015">
        <ele>952.6</ele>
        <time>2021-06-26T06:45:14Z</time>
      </trkpt>
      <trkpt lat="46.15494" lon="6.51019">
        <ele>952.8</ele>
        <time>2021-06-26T06:45:15Z</time>
      </trkpt>
      <trkpt lat="46.15493" lon="6.51023">
        <ele>953.2</ele>
        <time>2021-06-26T06:45:16Z</time>
      </trkpt>
      <trkpt lat="46.15493" lon="6.51027">
        <ele>953.4</ele>
        <time>2021-06-26T06:45:17Z</time>
      </trkpt>
      <trkpt lat="46.15492" lon="6.51031">
        <ele>953.6</ele>
        <time>2021-06-26T06:45:18Z</time>
      </trkpt>
      <trkpt lat="46.15492" lon="6.51035">
        <ele>954</ele>
        <time>2021-06-26T06:45:19Z</time>
      </trkpt>
      <trkpt lat="46.15492" lon="6.51039">
        <ele>954</ele>
        <time>2021-06-26T06:45:20Z</time>
      </trkpt>
      <trkpt lat="46.15491" lon="6.51043">
        <ele>954.4</ele>
        <time>2021-06-26T06:45:21Z</time>
      </trkpt>
      <trkpt lat="46.15491" lon="6.51047">
        <ele>954.6</ele>
        <time>2021-06-26T06:45:22Z</time>
      </trkpt>
      <trkpt lat="46.15491" lon="6.51051">
        <ele>954.8</ele>
        <time>2021-06-26T06:45:23Z</time>
      </trkpt>
      <trkpt lat="46.15492" lon="6.51054">
        <ele>955.2</ele>
        <time>2021-06-26T06:45:24Z</time>
      </trkpt>
      <trkpt lat="46.15492" lon="6.51058">
        <ele>955.4</ele>
        <time>2021-06-26T06:45:25Z</time>
      </trkpt>
      <trkpt lat="46.15492" lon="6.51062">
        <ele>955.6</ele>
        <time>2021-06-26T06:45:26Z</time>
      </trkpt>
      <trkpt lat="46.15493" lon="6.51066">
        <ele>956</ele>
        <time>2021-06-26T06:45:27Z</time>
      </trkpt>
      <trkpt lat="46.15493" lon="6.5107">
        <ele>956</ele>
        <time>2021-06-26T06:45:28Z</time>
      </trkpt>
      <trkpt lat="46.15494" lon="6.51073">
        <ele>956.2</ele>
        <time>2021-06-26T06:45:29Z</time>
      </trkpt>
      <trkpt lat="46.15494" lon="6.51077">
        <ele>956.6</ele>
        <time>2021-06-26T06:45:30Z</time>
      </trkpt>
      <trkpt lat="46.15494" lon="6.5108">
        <ele>956.6</ele>
        <time>2021-06-26T06:45:31Z</time>
      </trkpt>
      <trkpt lat="46.15494" lon="6.51083">
        <ele>956.6</ele>
        <time>2021-06-26T06:45:32Z</time>
      </trkpt>
      <trkpt lat="46.15494" lon="6.51086">
        <ele>957</ele>
        <time>2021-06-26T06:45:33Z</time>
      </trkpt>
      <trkpt lat="46.15494" lon="6.51089">
        <ele>957</ele>
        <time>2021-06-26T06:45:34Z</time>
      </trkpt>
      <trkpt lat="46.15495" lon="6.51093">
        <ele>957.2</ele>
        <time>2021-06-26T06:45:35Z</time>
      </trkpt>
      <trkpt lat="46.15495" lon="6.51096">
        <ele>957.2</ele>
        <time>2021-06-26T06:45:36Z</time>
      </trkpt>
      <trkpt lat="46.15495" lon="6.511">
        <ele>957.6</ele>
        <time>2021-06-26T06:45:37Z</time>
      </trkpt>
      <trkpt lat="46.15495" lon="6.51104">
        <ele>957.8</ele>
        <time>2021-06-26T06:45:38Z</time>
      </trkpt>
      <trkpt lat="46.15495" lon="6.51107">
        <ele>958</ele>
        <time>2021-06-26T06:45:39Z</time>
      </trkpt>
      <trkpt lat="46.15496" lon="6.51111">
        <ele>958.2</ele>
        <time>2021-06-26T06:45:40Z</time>
      </trkpt>
      <trkpt lat="46.15496" lon="6.51114">
        <ele>958.4</ele>
        <time>2021-06-26T06:45:41Z</time>
      </trkpt>
      <trkpt lat="46.15496" lon="6.51118">
        <ele>958.6</ele>
        <time>2021-06-26T06:45:42Z</time>
      </trkpt>
      <trkpt lat="46.15497" lon="6.51122">
        <ele>958.8</ele>
        <time>2021-06-26T06:45:43Z</time>
      </trkpt>
      <trkpt lat="46.15497" lon="6.51125">
        <ele>959</ele>
        <time>2021-06-26T06:45:44Z</time>
      </trkpt>
      <trkpt lat="46.15498" lon="6.51129">
        <ele>959.2</ele>
        <time>2021-06-26T06:45:45Z</time>
      </trkpt>
      <trkpt lat="46.15499" lon="6.51133">
        <ele>959.4</ele>
        <time>2021-06-26T06:45:46Z</time>
      </trkpt>
      <trkpt lat="46.155" lon="6.51137">
        <ele>959.6</ele>
        <time>2021-06-26T06:45:47Z</time>
      </trkpt>
      <trkpt lat="46.15501" lon="6.51141">
        <ele>960</ele>
        <time>2021-06-26T06:45:48Z</time>
      </trkpt>
      <trkpt lat="46.15501" lon="6.51145">
        <ele>960</ele>
        <time>2021-06-26T06:45:49Z</time>
      </trkpt>
      <trkpt lat="46.15502" lon="6.51149">
        <ele>960.2</ele>
        <time>2021-06-26T06:45:50Z</time>
      </trkpt>
      <trkpt lat="46.15503" lon="6.51153">
        <ele>960.6</ele>
        <time>2021-06-26T06:45:51Z</time>
      </trkpt>
      <trkpt lat="46.15504" lon="6.51157">
        <ele>960.8</ele>
        <time>2021-06-26T06:45:52Z</time>
      </trkpt>
      <trkpt lat="46.15505" lon="6.51161">
        <ele>961</ele>
        <time>2021-06-26T06:45:53Z</time>
      </trkpt>
      <trkpt lat="46.15506" lon="6.51165">
        <ele>961.2</ele>
        <time>2021-06-26T06:45:54Z</time>
      </trkpt>
      <trkpt lat="46.15507" lon="6.51169">
        <ele>961.4</ele>
        <time>2021-06-26T06:45:55Z</time>
      </trkpt>
      <trkpt lat="46.15509" lon="6.51173">
        <ele>961.4</ele>
        <time>2021-06-26T06:45:56Z</time>
      </trkpt>
      <trkpt lat="46.1551" lon="6.51177">
        <ele>961.6</ele>
        <time>2021-06-26T06:45:57Z</time>
      </trkpt>
      <trkpt lat="46.15511" lon="6.51181">
        <ele>961.8</ele>
        <time>2021-06-26T06:45:58Z</time>
      </trkpt>
      <trkpt lat="46.15512" lon="6.51185">
        <ele>962</ele>
        <time>2021-06-26T06:45:59Z</time>
      </trkpt>
      <trkpt lat="46.15513" lon="6.51189">
        <ele>962.2</ele>
        <time>2021-06-26T06:46:00Z</time>
      </trkpt>
      <trkpt lat="46.15515" lon="6.51194">
        <ele>962.2</ele>
        <time>2021-06-26T06:46:01Z</time>
      </trkpt>
      <trkpt lat="46.15516" lon="6.51198">
        <ele>962.4</ele>
        <time>2021-06-26T06:46:02Z</time>
      </trkpt>
      <trkpt lat="46.15517" lon="6.51202">
        <ele>962.8</ele>
        <time>2021-06-26T06:46:03Z</time>
      </trkpt>
      <trkpt lat="46.15519" lon="6.51206">
        <ele>963</ele>
        <time>2021-06-26T06:46:04Z</time>
      </trkpt>
      <trkpt lat="46.1552" lon="6.5121">
        <ele>963.2</ele>
        <time>2021-06-26T06:46:05Z</time>
      </trkpt>
      <trkpt lat="46.15521" lon="6.51215">
        <ele>963.2</ele>
        <time>2021-06-26T06:46:06Z</time>
      </trkpt>
      <trkpt lat="46.15523" lon="6.51219">
        <ele>963.4</ele>
        <time>2021-06-26T06:46:07Z</time>
      </trkpt>
      <trkpt lat="46.15524" lon="6.51224">
        <ele>963.4</ele>
        <time>2021-06-26T06:46:08Z</time>
      </trkpt>
      <trkpt lat="46.15525" lon="6.51228">
        <ele>963.6</ele>
        <time>2021-06-26T06:46:09Z</time>
      </trkpt>
      <trkpt lat="46.15526" lon="6.51233">
        <ele>963.8</ele>
        <time>2021-06-26T06:46:10Z</time>
      </trkpt>
      <trkpt lat="46.15528" lon="6.51237">
        <ele>963.8</ele>
        <time>2021-06-26T06:46:11Z</time>
      </trkpt>
      <trkpt lat="46.15529" lon="6.51241">
        <ele>964</ele>
        <time>2021-06-26T06:46:12Z</time>
      </trkpt>
      <trkpt lat="46.1553" lon="6.51246">
        <ele>964.2</ele>
        <time>2021-06-26T06:46:13Z</time>
      </trkpt>
      <trkpt lat="46.15531" lon="6.5125">
        <ele>964.2</ele>
        <time>2021-06-26T06:46:14Z</time>
      </trkpt>
      <trkpt lat="46.15532" lon="6.51254">
        <ele>964.4</ele>
        <time>2021-06-26T06:46:15Z</time>
      </trkpt>
      <trkpt lat="46.15533" lon="6.51259">
        <ele>964.6</ele>
        <time>2021-06-26T06:46:16Z</time>
      </trkpt>
      <trkpt lat="46.15534" lon="6.51263">
        <ele>964.6</ele>
        <time>2021-06-26T06:46:17Z</time>
      </trkpt>
      <trkpt lat="46.15535" lon="6.51268">
        <ele>964.6</ele>
        <time>2021-06-26T06:46:18Z</time>
      </trkpt>
      <trkpt lat="46.15536" lon="6.51272">
        <ele>965</ele>
        <time>2021-06-26T06:46:19Z</time>
      </trkpt>
      <trkpt lat="46.15537" lon="6.51276">
        <ele>965</ele>
        <time>2021-06-26T06:46:20Z</time>
      </trkpt>
      <trkpt lat="46.15539" lon="6.51281">
        <ele>965.2</ele>
        <time>2021-06-26T06:46:21Z</time>
      </trkpt>
      <trkpt lat="46.1554" lon="6.51285">
        <ele>965.4</ele>
        <time>2021-06-26T06:46:22Z</time>
      </trkpt>
      <trkpt lat="46.15541" lon="6.51289">
        <ele>965.4</ele>
        <time>2021-06-26T06:46:23Z</time>
      </trkpt>
      <trkpt lat="46.15543" lon="6.51294">
        <ele>965.6</ele>
        <time>2021-06-26T06:46:24Z</time>
      </trkpt>
      <trkpt lat="46.15544" lon="6.51298">
        <ele>965.8</ele>
        <time>2021-06-26T06:46:25Z</time>
      </trkpt>
      <trkpt lat="46.15545" lon="6.51303">
        <ele>965.8</ele>
        <time>2021-06-26T06:46:26Z</time>
      </trkpt>
      <trkpt lat="46.15546" lon="6.51307">
        <ele>965.8</ele>
        <time>2021-06-26T06:46:27Z</time>
      </trkpt>
      <trkpt lat="46.15547" lon="6.51312">
        <ele>966.2</ele>
        <time>2021-06-26T06:46:28Z</time>
      </trkpt>
      <trkpt lat="46.15548" lon="6.51316">
        <ele>966.4</ele>
        <time>2021-06-26T06:46:29Z</time>
      </trkpt>
      <trkpt lat="46.15548" lon="6.5132">
        <ele>966.4</ele>
        <time>2021-06-26T06:46:30Z</time>
      </trkpt>
      <trkpt lat="46.15548" lon="6.51324">
        <ele>966.6</ele>
        <time>2021-06-26T06:46:31Z</time>
      </trkpt>
      <trkpt lat="46.15547" lon="6.51328">
        <ele>967</ele>
        <time>2021-06-26T06:46:32Z</time>
      </trkpt>
      <trkpt lat="46.15547" lon="6.51332">
        <ele>967.2</ele>
        <time>2021-06-26T06:46:33Z</time>
      </trkpt>
      <trkpt lat="46.15547" lon="6.51336">
        <ele>967.2</ele>
        <time>2021-06-26T06:46:34Z</time>
      </trkpt>
      <trkpt lat="46.15546" lon="6.5134">
        <ele>967.4</ele>
        <time>2021-06-26T06:46:35Z</time>
      </trkpt>
      <trkpt lat="46.15546" lon="6.51343">
        <ele>967.6</ele>
        <time>2021-06-26T06:46:36Z</time>
      </trkpt>
      <trkpt lat="46.15546" lon="6.51347">
        <ele>967.8</ele>
        <time>2021-06-26T06:46:37Z</time>
      </trkpt>
      <trkpt lat="46.15545" lon="6.51351">
        <ele>968.2</ele>
        <time>2021-06-26T06:46:38Z</time>
      </trkpt>
      <trkpt lat="46.15545" lon="6.51355">
        <ele>968.2</ele>
        <time>2021-06-26T06:46:39Z</time>
      </trkpt>
      <trkpt lat="46.15545" lon="6.51359">
        <ele>968.4</ele>
        <time>2021-06-26T06:46:40Z</time>
      </trkpt>
      <trkpt lat="46.15544" lon="6.51363">
        <ele>968.4</ele>
        <time>2021-06-26T06:46:41Z</time>
      </trkpt>
      <trkpt lat="46.15544" lon="6.51366">
        <ele>968.4</ele>
        <time>2021-06-26T06:46:42Z</time>
      </trkpt>
      <trkpt lat="46.15544" lon="6.5137">
        <ele>968.6</ele>
        <time>2021-06-26T06:46:43Z</time>
      </trkpt>
      <trkpt lat="46.15544" lon="6.51375">
        <ele>968.6</ele>
        <time>2021-06-26T06:46:44Z</time>
      </trkpt>
      <trkpt lat="46.15544" lon="6.51379">
        <ele>969</ele>
        <time>2021-06-26T06:46:45Z</time>
      </trkpt>
      <trkpt lat="46.15544" lon="6.51383">
        <ele>969</ele>
        <time>2021-06-26T06:46:46Z</time>
      </trkpt>
      <trkpt lat="46.15544" lon="6.51387">
        <ele>969.4</ele>
        <time>2021-06-26T06:46:47Z</time>
      </trkpt>
      <trkpt lat="46.15544" lon="6.51391">
        <ele>969.8</ele>
        <time>2021-06-26T06:46:48Z</time>
      </trkpt>
      <trkpt lat="46.15545" lon="6.51395">
        <ele>970</ele>
        <time>2021-06-26T06:46:49Z</time>
      </trkpt>
      <trkpt lat="46.15545" lon="6.51398">
        <ele>970.2</ele>
        <time>2021-06-26T06:46:50Z</time>
      </trkpt>
      <trkpt lat="46.15545" lon="6.51402">
        <ele>970.6</ele>
        <time>2021-06-26T06:46:51Z</time>
      </trkpt>
      <trkpt lat="46.15546" lon="6.51406">
        <ele>970.8</ele>
        <time>2021-06-26T06:46:52Z</time>
      </trkpt>
      <trkpt lat="46.15546" lon="6.5141">
        <ele>971.2</ele>
        <time>2021-06-26T06:46:53Z</time>
      </trkpt>
      <trkpt lat="46.15546" lon="6.51414">
        <ele>971.4</ele>
        <time>2021-06-26T06:46:54Z</time>
      </trkpt>
      <trkpt lat="46.15547" lon="6.51417">
        <ele>971.6</ele>
        <time>2021-06-26T06:46:55Z</time>
      </trkpt>
      <trkpt lat="46.15547" lon="6.51421">
        <ele>971.8</ele>
        <time>2021-06-26T06:46:56Z</time>
      </trkpt>
      <trkpt lat="46.15547" lon="6.51425">
        <ele>972.2</ele>
        <time>2021-06-26T06:46:57Z</time>
      </trkpt>
      <trkpt lat="46.15547" lon="6.51429">
        <ele>972.2</ele>
        <time>2021-06-26T06:46:58Z</time>
      </trkpt>
      <trkpt lat="46.15547" lon="6.51433">
        <ele>972.4</ele>
        <time>2021-06-26T06:46:59Z</time>
      </trkpt>
      <trkpt lat="46.15546" lon="6.51437">
        <ele>972.8</ele>
        <time>2021-06-26T06:47:00Z</time>
      </trkpt>
      <trkpt lat="46.15546" lon="6.51441">
        <ele>973</ele>
        <time>2021-06-26T06:47:01Z</time>
      </trkpt>
      <trkpt lat="46.15546" lon="6.51446">
        <ele>973.2</ele>
        <time>2021-06-26T06:47:02Z</time>
      </trkpt>
      <trkpt lat="46.15546" lon="6.5145">
        <ele>973.4</ele>
        <time>2021-06-26T06:47:03Z</time>
      </trkpt>
      <trkpt lat="46.15545" lon="6.51453">
        <ele>973.4</ele>
        <time>2021-06-26T06:47:04Z</time>
      </trkpt>
      <trkpt lat="46.15545" lon="6.51457">
        <ele>973.8</ele>
        <time>2021-06-26T06:47:05Z</time>
      </trkpt>
      <trkpt lat="46.15544" lon="6.51461">
        <ele>974.2</ele>
        <time>2021-06-26T06:47:06Z</time>
      </trkpt>
      <trkpt lat="46.15543" lon="6.51464">
        <ele>974.4</ele>
        <time>2021-06-26T06:47:07Z</time>
      </trkpt>
      <trkpt lat="46.15542" lon="6.51468">
        <ele>974.6</ele>
        <time>2021-06-26T06:47:08Z</time>
      </trkpt>
      <trkpt lat="46.15541" lon="6.51472">
        <ele>975</ele>
        <time>2021-06-26T06:47:09Z</time>
      </trkpt>
      <trkpt lat="46.1554" lon="6.51475">
        <ele>975.2</ele>
        <time>2021-06-26T06:47:10Z</time>
      </trkpt>
      <trkpt lat="46.1554" lon="6.51478">
        <ele>975.4</ele>
        <time>2021-06-26T06:47:11Z</time>
      </trkpt>
      <trkpt lat="46.15539" lon="6.51482">
        <ele>975.4</ele>
        <time>2021-06-26T06:47:12Z</time>
      </trkpt>
      <trkpt lat="46.15538" lon="6.51485">
        <ele>975.6</ele>
        <time>2021-06-26T06:47:13Z</time>
      </trkpt>
      <trkpt lat="46.15537" lon="6.51489">
        <ele>976</ele>
        <time>2021-06-26T06:47:14Z</time>
      </trkpt>
      <trkpt lat="46.15537" lon="6.51492">
        <ele>976.2</ele>
        <time>2021-06-26T06:47:15Z</time>
      </trkpt>
      <trkpt lat="46.15536" lon="6.51496">
        <ele>976.2</ele>
        <time>2021-06-26T06:47:16Z</time>
      </trkpt>
      <trkpt lat="46.15536" lon="6.51499">
        <ele>976.8</ele>
        <time>2021-06-26T06:47:17Z</time>
      </trkpt>
      <trkpt lat="46.15535" lon="6.51503">
        <ele>976.8</ele>
        <time>2021-06-26T06:47:18Z</time>
      </trkpt>
      <trkpt lat="46.15535" lon="6.51507">
        <ele>977</ele>
        <time>2021-06-26T06:47:19Z</time>
      </trkpt>
      <trkpt lat="46.15535" lon="6.51511">
        <ele>977.2</ele>
        <time>2021-06-26T06:47:20Z</time>
      </trkpt>
      <trkpt lat="46.15535" lon="6.51515">
        <ele>977.4</ele>
        <time>2021-06-26T06:47:21Z</time>
      </trkpt>
      <trkpt lat="46.15536" lon="6.51519">
        <ele>977.4</ele>
        <time>2021-06-26T06:47:22Z</time>
      </trkpt>
      <trkpt lat="46.15538" lon="6.51523">
        <ele>977.6</ele>
        <time>2021-06-26T06:47:23Z</time>
      </trkpt>
      <trkpt lat="46.15539" lon="6.51526">
        <ele>978</ele>
        <time>2021-06-26T06:47:24Z</time>
      </trkpt>
      <trkpt lat="46.15542" lon="6.51529">
        <ele>978</ele>
        <time>2021-06-26T06:47:25Z</time>
      </trkpt>
      <trkpt lat="46.15544" lon="6.51532">
        <ele>978.2</ele>
        <time>2021-06-26T06:47:26Z</time>
      </trkpt>
      <trkpt lat="46.15547" lon="6.51533">
        <ele>978.4</ele>
        <time>2021-06-26T06:47:27Z</time>
      </trkpt>
      <trkpt lat="46.1555" lon="6.51534">
        <ele>978.4</ele>
        <time>2021-06-26T06:47:28Z</time>
      </trkpt>
      <trkpt lat="46.15553" lon="6.51534">
        <ele>978.6</ele>
        <time>2021-06-26T06:47:29Z</time>
      </trkpt>
      <trkpt lat="46.15556" lon="6.51533">
        <ele>979</ele>
        <time>2021-06-26T06:47:30Z</time>
      </trkpt>
      <trkpt lat="46.15559" lon="6.51532">
        <ele>979</ele>
        <time>2021-06-26T06:47:31Z</time>
      </trkpt>
      <trkpt lat="46.15562" lon="6.51529">
        <ele>979.2</ele>
        <time>2021-06-26T06:47:32Z</time>
      </trkpt>
      <trkpt lat="46.15564" lon="6.51525">
        <ele>979.4</ele>
        <time>2021-06-26T06:47:33Z</time>
      </trkpt>
      <trkpt lat="46.15565" lon="6.51522">
        <ele>979.8</ele>
        <time>2021-06-26T06:47:34Z</time>
      </trkpt>
      <trkpt lat="46.15567" lon="6.51518">
        <ele>979.8</ele>
        <time>2021-06-26T06:47:35Z</time>
      </trkpt>
      <trkpt lat="46.15568" lon="6.51513">
        <ele>979.8</ele>
        <time>2021-06-26T06:47:36Z</time>
      </trkpt>
      <trkpt lat="46.15568" lon="6.51509">
        <ele>979.8</ele>
        <time>2021-06-26T06:47:37Z</time>
      </trkpt>
      <trkpt lat="46.15568" lon="6.51505">
        <ele>980.2</ele>
        <time>2021-06-26T06:47:38Z</time>
      </trkpt>
      <trkpt lat="46.15569" lon="6.51501">
        <ele>980</ele>
        <time>2021-06-26T06:47:39Z</time>
      </trkpt>
      <trkpt lat="46.15571" lon="6.51497">
        <ele>980</ele>
        <time>2021-06-26T06:47:40Z</time>
      </trkpt>
      <trkpt lat="46.15572" lon="6.51493">
        <ele>980</ele>
        <time>2021-06-26T06:47:41Z</time>
      </trkpt>
      <trkpt lat="46.15573" lon="6.5149">
        <ele>980.2</ele>
        <time>2021-06-26T06:47:42Z</time>
      </trkpt>
      <trkpt lat="46.15575" lon="6.51487">
        <ele>980.4</ele>
        <time>2021-06-26T06:47:43Z</time>
      </trkpt>
      <trkpt lat="46.15577" lon="6.51483">
        <ele>980.4</ele>
        <time>2021-06-26T06:47:44Z</time>
      </trkpt>
      <trkpt lat="46.15578" lon="6.51481">
        <ele>980.6</ele>
        <time>2021-06-26T06:47:45Z</time>
      </trkpt>
      <trkpt lat="46.1558" lon="6.51478">
        <ele>980.8</ele>
        <time>2021-06-26T06:47:46Z</time>
      </trkpt>
      <trkpt lat="46.15582" lon="6.51476">
        <ele>980.8</ele>
        <time>2021-06-26T06:47:47Z</time>
      </trkpt>
      <trkpt lat="46.15584" lon="6.51473">
        <ele>980.8</ele>
        <time>2021-06-26T06:47:48Z</time>
      </trkpt>
      <trkpt lat="46.15586" lon="6.51471">
        <ele>981</ele>
        <time>2021-06-26T06:47:49Z</time>
      </trkpt>
      <trkpt lat="46.15588" lon="6.51468">
        <ele>981.2</ele>
        <time>2021-06-26T06:47:50Z</time>
      </trkpt>
      <trkpt lat="46.1559" lon="6.51466">
        <ele>981.4</ele>
        <time>2021-06-26T06:47:51Z</time>
      </trkpt>
      <trkpt lat="46.15592" lon="6.51464">
        <ele>981.8</ele>
        <time>2021-06-26T06:47:52Z</time>
      </trkpt>
      <trkpt lat="46.15595" lon="6.51463">
        <ele>982</ele>
        <time>2021-06-26T06:47:53Z</time>
      </trkpt>
      <trkpt lat="46.15597" lon="6.51461">
        <ele>982.4</ele>
        <time>2021-06-26T06:47:54Z</time>
      </trkpt>
      <trkpt lat="46.15599" lon="6.51459">
        <ele>982.6</ele>
        <time>2021-06-26T06:47:55Z</time>
      </trkpt>
      <trkpt lat="46.15601" lon="6.51457">
        <ele>983</ele>
        <time>2021-06-26T06:47:56Z</time>
      </trkpt>
      <trkpt lat="46.15604" lon="6.51455">
        <ele>983.2</ele>
        <time>2021-06-26T06:47:57Z</time>
      </trkpt>
      <trkpt lat="46.15606" lon="6.51454">
        <ele>983.4</ele>
        <time>2021-06-26T06:47:58Z</time>
      </trkpt>
      <trkpt lat="46.15609" lon="6.51451">
        <ele>983.6</ele>
        <time>2021-06-26T06:47:59Z</time>
      </trkpt>
      <trkpt lat="46.15611" lon="6.5145">
        <ele>984</ele>
        <time>2021-06-26T06:48:00Z</time>
      </trkpt>
      <trkpt lat="46.15613" lon="6.51448">
        <ele>984.2</ele>
        <time>2021-06-26T06:48:01Z</time>
      </trkpt>
      <trkpt lat="46.15615" lon="6.51447">
        <ele>984.6</ele>
        <time>2021-06-26T06:48:02Z</time>
      </trkpt>
      <trkpt lat="46.15617" lon="6.51445">
        <ele>984.8</ele>
        <time>2021-06-26T06:48:03Z</time>
      </trkpt>
      <trkpt lat="46.15619" lon="6.51444">
        <ele>985</ele>
        <time>2021-06-26T06:48:04Z</time>
      </trkpt>
      <trkpt lat="46.15621" lon="6.51443">
        <ele>985.4</ele>
        <time>2021-06-26T06:48:05Z</time>
      </trkpt>
      <trkpt lat="46.15623" lon="6.51441">
        <ele>985.8</ele>
        <time>2021-06-26T06:48:06Z</time>
      </trkpt>
      <trkpt lat="46.15626" lon="6.5144">
        <ele>986</ele>
        <time>2021-06-26T06:48:07Z</time>
      </trkpt>
      <trkpt lat="46.15628" lon="6.51439">
        <ele>986.2</ele>
        <time>2021-06-26T06:48:08Z</time>
      </trkpt>
      <trkpt lat="46.1563" lon="6.51439">
        <ele>986.6</ele>
        <time>2021-06-26T06:48:09Z</time>
      </trkpt>
      <trkpt lat="46.15632" lon="6.51438">
        <ele>986.8</ele>
        <time>2021-06-26T06:48:10Z</time>
      </trkpt>
      <trkpt lat="46.15634" lon="6.51437">
        <ele>986.8</ele>
        <time>2021-06-26T06:48:11Z</time>
      </trkpt>
      <trkpt lat="46.15636" lon="6.51436">
        <ele>987</ele>
        <time>2021-06-26T06:48:12Z</time>
      </trkpt>
      <trkpt lat="46.15638" lon="6.51436">
        <ele>987</ele>
        <time>2021-06-26T06:48:13Z</time>
      </trkpt>
      <trkpt lat="46.15641" lon="6.51435">
        <ele>987.4</ele>
        <time>2021-06-26T06:48:14Z</time>
      </trkpt>
      <trkpt lat="46.15643" lon="6.51435">
        <ele>987.6</ele>
        <time>2021-06-26T06:48:15Z</time>
      </trkpt>
      <trkpt lat="46.15645" lon="6.51435">
        <ele>987.8</ele>
        <time>2021-06-26T06:48:16Z</time>
      </trkpt>
      <trkpt lat="46.15647" lon="6.51434">
        <ele>988</ele>
        <time>2021-06-26T06:48:17Z</time>
      </trkpt>
      <trkpt lat="46.15649" lon="6.51434">
        <ele>988.2</ele>
        <time>2021-06-26T06:48:18Z</time>
      </trkpt>
      <trkpt lat="46.15651" lon="6.51434">
        <ele>988.4</ele>
        <time>2021-06-26T06:48:19Z</time>
      </trkpt>
      <trkpt lat="46.15653" lon="6.51434">
        <ele>988.8</ele>
        <time>2021-06-26T06:48:20Z</time>
      </trkpt>
      <trkpt lat="46.15656" lon="6.51434">
        <ele>989</ele>
        <time>2021-06-26T06:48:21Z</time>
      </trkpt>
      <trkpt lat="46.15658" lon="6.51433">
        <ele>989.2</ele>
        <time>2021-06-26T06:48:22Z</time>
      </trkpt>
      <trkpt lat="46.15661" lon="6.51433">
        <ele>989.4</ele>
        <time>2021-06-26T06:48:23Z</time>
      </trkpt>
      <trkpt lat="46.15663" lon="6.51433">
        <ele>989.6</ele>
        <time>2021-06-26T06:48:24Z</time>
      </trkpt>
      <trkpt lat="46.15666" lon="6.51432">
        <ele>990</ele>
        <time>2021-06-26T06:48:25Z</time>
      </trkpt>
      <trkpt lat="46.15668" lon="6.51431">
        <ele>990.2</ele>
        <time>2021-06-26T06:48:26Z</time>
      </trkpt>
      <trkpt lat="46.15669" lon="6.5143">
        <ele>990.6</ele>
        <time>2021-06-26T06:48:27Z</time>
      </trkpt>
      <trkpt lat="46.15671" lon="6.51428">
        <ele>990.8</ele>
        <time>2021-06-26T06:48:28Z</time>
      </trkpt>
      <trkpt lat="46.15673" lon="6.51426">
        <ele>991</ele>
        <time>2021-06-26T06:48:29Z</time>
      </trkpt>
      <trkpt lat="46.15675" lon="6.51423">
        <ele>991</ele>
        <time>2021-06-26T06:48:30Z</time>
      </trkpt>
      <trkpt lat="46.15678" lon="6.51421">
        <ele>991.2</ele>
        <time>2021-06-26T06:48:31Z</time>
      </trkpt>
      <trkpt lat="46.15679" lon="6.51417">
        <ele>991.2</ele>
        <time>2021-06-26T06:48:32Z</time>
      </trkpt>
      <trkpt lat="46.15682" lon="6.51415">
        <ele>991.6</ele>
        <time>2021-06-26T06:48:33Z</time>
      </trkpt>
      <trkpt lat="46.15683" lon="6.51412">
        <ele>991.8</ele>
        <time>2021-06-26T06:48:34Z</time>
      </trkpt>
      <trkpt lat="46.15685" lon="6.51409">
        <ele>992</ele>
        <time>2021-06-26T06:48:35Z</time>
      </trkpt>
      <trkpt lat="46.15686" lon="6.51406">
        <ele>992.2</ele>
        <time>2021-06-26T06:48:36Z</time>
      </trkpt>
      <trkpt lat="46.15688" lon="6.51402">
        <ele>992.4</ele>
        <time>2021-06-26T06:48:37Z</time>
      </trkpt>
      <trkpt lat="46.15689" lon="6.514">
        <ele>992.6</ele>
        <time>2021-06-26T06:48:38Z</time>
      </trkpt>
      <trkpt lat="46.15689" lon="6.51396">
        <ele>992.8</ele>
        <time>2021-06-26T06:48:39Z</time>
      </trkpt>
      <trkpt lat="46.1569" lon="6.51394">
        <ele>993</ele>
        <time>2021-06-26T06:48:40Z</time>
      </trkpt>
      <trkpt lat="46.1569" lon="6.5139">
        <ele>993.4</ele>
        <time>2021-06-26T06:48:41Z</time>
      </trkpt>
      <trkpt lat="46.1569" lon="6.51387">
        <ele>993.4</ele>
        <time>2021-06-26T06:48:42Z</time>
      </trkpt>
      <trkpt lat="46.15691" lon="6.51384">
        <ele>993.6</ele>
        <time>2021-06-26T06:48:43Z</time>
      </trkpt>
      <trkpt lat="46.15692" lon="6.5138">
        <ele>994</ele>
        <time>2021-06-26T06:48:44Z</time>
      </trkpt>
      <trkpt lat="46.15692" lon="6.51377">
        <ele>994.2</ele>
        <time>2021-06-26T06:48:45Z</time>
      </trkpt>
      <trkpt lat="46.15692" lon="6.51373">
        <ele>994.4</ele>
        <time>2021-06-26T06:48:46Z</time>
      </trkpt>
      <trkpt lat="46.15692" lon="6.51369">
        <ele>994.6</ele>
        <time>2021-06-26T06:48:47Z</time>
      </trkpt>
      <trkpt lat="46.15692" lon="6.51365">
        <ele>995</ele>
        <time>2021-06-26T06:48:48Z</time>
      </trkpt>
      <trkpt lat="46.15693" lon="6.51361">
        <ele>995</ele>
        <time>2021-06-26T06:48:49Z</time>
      </trkpt>
      <trkpt lat="46.15693" lon="6.51358">
        <ele>995.4</ele>
        <time>2021-06-26T06:48:50Z</time>
      </trkpt>
      <trkpt lat="46.15695" lon="6.51355">
        <ele>995.4</ele>
        <time>2021-06-26T06:48:51Z</time>
      </trkpt>
      <trkpt lat="46.15696" lon="6.51352">
        <ele>995.4</ele>
        <time>2021-06-26T06:48:52Z</time>
      </trkpt>
      <trkpt lat="46.15697" lon="6.5135">
        <ele>995.6</ele>
        <time>2021-06-26T06:48:53Z</time>
      </trkpt>
      <trkpt lat="46.15699" lon="6.51348">
        <ele>995.6</ele>
        <time>2021-06-26T06:48:54Z</time>
      </trkpt>
      <trkpt lat="46.15701" lon="6.51348">
        <ele>995.6</ele>
        <time>2021-06-26T06:48:55Z</time>
      </trkpt>
      <trkpt lat="46.15703" lon="6.51348">
        <ele>995.8</ele>
        <time>2021-06-26T06:48:56Z</time>
      </trkpt>
      <trkpt lat="46.15705" lon="6.51348">
        <ele>995.8</ele>
        <time>2021-06-26T06:48:57Z</time>
      </trkpt>
      <trkpt lat="46.15707" lon="6.5135">
        <ele>996</ele>
        <time>2021-06-26T06:48:58Z</time>
      </trkpt>
      <trkpt lat="46.15709" lon="6.51352">
        <ele>996.2</ele>
        <time>2021-06-26T06:48:59Z</time>
      </trkpt>
      <trkpt lat="46.1571" lon="6.51354">
        <ele>996.6</ele>
        <time>2021-06-26T06:49:00Z</time>
      </trkpt>
      <trkpt lat="46.15711" lon="6.51356">
        <ele>996.6</ele>
        <time>2021-06-26T06:49:01Z</time>
      </trkpt>
      <trkpt lat="46.15712" lon="6.51359">
        <ele>997</ele>
        <time>2021-06-26T06:49:02Z</time>
      </trkpt>
      <trkpt lat="46.15713" lon="6.51363">
        <ele>997.2</ele>
        <time>2021-06-26T06:49:03Z</time>
      </trkpt>
      <trkpt lat="46.15714" lon="6.51366">
        <ele>997.6</ele>
        <time>2021-06-26T06:49:04Z</time>
      </trkpt>
      <trkpt lat="46.15715" lon="6.51369">
        <ele>997.8</ele>
        <time>2021-06-26T06:49:05Z</time>
      </trkpt>
      <trkpt lat="46.15715" lon="6.51374">
        <ele>998.2</ele>
        <time>2021-06-26T06:49:06Z</time>
      </trkpt>
      <trkpt lat="46.15715" lon="6.51378">
        <ele>998.6</ele>
        <time>2021-06-26T06:49:07Z</time>
      </trkpt>
      <trkpt lat="46.15715" lon="6.51381">
        <ele>998.8</ele>
        <time>2021-06-26T06:49:08Z</time>
      </trkpt>
      <trkpt lat="46.15715" lon="6.51385">
        <ele>999</ele>
        <time>2021-06-26T06:49:09Z</time>
      </trkpt>
      <trkpt lat="46.15715" lon="6.51388">
        <ele>999.4</ele>
        <time>2021-06-26T06:49:10Z</time>
      </trkpt>
      <trkpt lat="46.15715" lon="6.51393">
        <ele>999.6</ele>
        <time>2021-06-26T06:49:11Z</time>
      </trkpt>
      <trkpt lat="46.15715" lon="6.51397">
        <ele>1000</ele>
        <time>2021-06-26T06:49:12Z</time>
      </trkpt>
      <trkpt lat="46.15715" lon="6.51401">
        <ele>1000.2</ele>
        <time>2021-06-26T06:49:13Z</time>
      </trkpt>
      <trkpt lat="46.15716" lon="6.51405">
        <ele>1000.4</ele>
        <time>2021-06-26T06:49:14Z</time>
      </trkpt>
      <trkpt lat="46.15716" lon="6.51409">
        <ele>1000.8</ele>
        <time>2021-06-26T06:49:15Z</time>
      </trkpt>
      <trkpt lat="46.15716" lon="6.51412">
        <ele>1000.8</ele>
        <time>2021-06-26T06:49:16Z</time>
      </trkpt>
      <trkpt lat="46.15716" lon="6.51417">
        <ele>1000.8</ele>
        <time>2021-06-26T06:49:17Z</time>
      </trkpt>
      <trkpt lat="46.15716" lon="6.5142">
        <ele>1001</ele>
        <time>2021-06-26T06:49:18Z</time>
      </trkpt>
      <trkpt lat="46.15717" lon="6.51424">
        <ele>1001</ele>
        <time>2021-06-26T06:49:19Z</time>
      </trkpt>
      <trkpt lat="46.15717" lon="6.51428">
        <ele>1001</ele>
        <time>2021-06-26T06:49:20Z</time>
      </trkpt>
      <trkpt lat="46.15717" lon="6.51432">
        <ele>1001.2</ele>
        <time>2021-06-26T06:49:21Z</time>
      </trkpt>
      <trkpt lat="46.15718" lon="6.51436">
        <ele>1001.4</ele>
        <time>2021-06-26T06:49:22Z</time>
      </trkpt>
      <trkpt lat="46.15718" lon="6.51439">
        <ele>1001.6</ele>
        <time>2021-06-26T06:49:23Z</time>
      </trkpt>
      <trkpt lat="46.15719" lon="6.51443">
        <ele>1001.6</ele>
        <time>2021-06-26T06:49:24Z</time>
      </trkpt>
      <trkpt lat="46.15719" lon="6.51447">
        <ele>1001.8</ele>
        <time>2021-06-26T06:49:25Z</time>
      </trkpt>
      <trkpt lat="46.1572" lon="6.5145">
        <ele>1002</ele>
        <time>2021-06-26T06:49:26Z</time>
      </trkpt>
      <trkpt lat="46.1572" lon="6.51454">
        <ele>1002.2</ele>
        <time>2021-06-26T06:49:27Z</time>
      </trkpt>
      <trkpt lat="46.15721" lon="6.51458">
        <ele>1002.2</ele>
        <time>2021-06-26T06:49:28Z</time>
      </trkpt>
      <trkpt lat="46.15721" lon="6.51461">
        <ele>1002.6</ele>
        <time>2021-06-26T06:49:29Z</time>
      </trkpt>
      <trkpt lat="46.15721" lon="6.51465">
        <ele>1002.6</ele>
        <time>2021-06-26T06:49:30Z</time>
      </trkpt>
      <trkpt lat="46.15722" lon="6.51468">
        <ele>1003</ele>
        <time>2021-06-26T06:49:31Z</time>
      </trkpt>
      <trkpt lat="46.15722" lon="6.51472">
        <ele>1003</ele>
        <time>2021-06-26T06:49:32Z</time>
      </trkpt>
      <trkpt lat="46.15723" lon="6.51475">
        <ele>1003.4</ele>
        <time>2021-06-26T06:49:33Z</time>
      </trkpt>
      <trkpt lat="46.15724" lon="6.51479">
        <ele>1003.4</ele>
        <time>2021-06-26T06:49:34Z</time>
      </trkpt>
      <trkpt lat="46.15724" lon="6.51482">
        <ele>1003.8</ele>
        <time>2021-06-26T06:49:35Z</time>
      </trkpt>
      <trkpt lat="46.15724" lon="6.51486">
        <ele>1004</ele>
        <time>2021-06-26T06:49:36Z</time>
      </trkpt>
      <trkpt lat="46.15725" lon="6.51489">
        <ele>1004.2</ele>
        <time>2021-06-26T06:49:37Z</time>
      </trkpt>
      <trkpt lat="46.15725" lon="6.51493">
        <ele>1004.2</ele>
        <time>2021-06-26T06:49:38Z</time>
      </trkpt>
      <trkpt lat="46.15726" lon="6.51496">
        <ele>1004.2</ele>
        <time>2021-06-26T06:49:39Z</time>
      </trkpt>
      <trkpt lat="46.15726" lon="6.515">
        <ele>1004.6</ele>
        <time>2021-06-26T06:49:40Z</time>
      </trkpt>
      <trkpt lat="46.15726" lon="6.51503">
        <ele>1004.8</ele>
        <time>2021-06-26T06:49:41Z</time>
      </trkpt>
      <trkpt lat="46.15726" lon="6.51506">
        <ele>1005</ele>
        <time>2021-06-26T06:49:42Z</time>
      </trkpt>
      <trkpt lat="46.15727" lon="6.51509">
        <ele>1005.2</ele>
        <time>2021-06-26T06:49:43Z</time>
      </trkpt>
      <trkpt lat="46.15728" lon="6.51513">
        <ele>1005.6</ele>
        <time>2021-06-26T06:49:44Z</time>
      </trkpt>
      <trkpt lat="46.15728" lon="6.51516">
        <ele>1005.6</ele>
        <time>2021-06-26T06:49:45Z</time>
      </trkpt>
      <trkpt lat="46.15729" lon="6.5152">
        <ele>1006</ele>
        <time>2021-06-26T06:49:46Z</time>
      </trkpt>
      <trkpt lat="46.15729" lon="6.51524">
        <ele>1006.4</ele>
        <time>2021-06-26T06:49:47Z</time>
      </trkpt>
      <trkpt lat="46.15729" lon="6.51528">
        <ele>1006.4</ele>
        <time>2021-06-26T06:49:48Z</time>
      </trkpt>
      <trkpt lat="46.15729" lon="6.51532">
        <ele>1006.8</ele>
        <time>2021-06-26T06:49:49Z</time>
      </trkpt>
      <trkpt lat="46.15729" lon="6.51536">
        <ele>1006.8</ele>
        <time>2021-06-26T06:49:50Z</time>
      </trkpt>
      <trkpt lat="46.15729" lon="6.5154">
        <ele>1007.2</ele>
        <time>2021-06-26T06:49:51Z</time>
      </trkpt>
      <trkpt lat="46.15728" lon="6.51543">
        <ele>1007.4</ele>
        <time>2021-06-26T06:49:52Z</time>
      </trkpt>
      <trkpt lat="46.15727" lon="6.51547">
        <ele>1007.6</ele>
        <time>2021-06-26T06:49:53Z</time>
      </trkpt>
      <trkpt lat="46.15727" lon="6.5155">
        <ele>1008</ele>
        <time>2021-06-26T06:49:54Z</time>
      </trkpt>
      <trkpt lat="46.15726" lon="6.51554">
        <ele>1008</ele>
        <time>2021-06-26T06:49:55Z</time>
      </trkpt>
      <trkpt lat="46.15724" lon="6.51557">
        <ele>1008.2</ele>
        <time>2021-06-26T06:49:56Z</time>
      </trkpt>
      <trkpt lat="46.15723" lon="6.5156">
        <ele>1008.6</ele>
        <time>2021-06-26T06:49:57Z</time>
      </trkpt>
      <trkpt lat="46.15722" lon="6.51564">
        <ele>1008.6</ele>
        <time>2021-06-26T06:49:58Z</time>
      </trkpt>
      <trkpt lat="46.15721" lon="6.51568">
        <ele>1008.8</ele>
        <time>2021-06-26T06:49:59Z</time>
      </trkpt>
      <trkpt lat="46.1572" lon="6.51572">
        <ele>1008.8</ele>
        <time>2021-06-26T06:50:00Z</time>
      </trkpt>
      <trkpt lat="46.15719" lon="6.51576">
        <ele>1009</ele>
        <time>2021-06-26T06:50:01Z</time>
      </trkpt>
      <trkpt lat="46.15718" lon="6.51579">
        <ele>1009.2</ele>
        <time>2021-06-26T06:50:02Z</time>
      </trkpt>
      <trkpt lat="46.15717" lon="6.51583">
        <ele>1009.4</ele>
        <time>2021-06-26T06:50:03Z</time>
      </trkpt>
      <trkpt lat="46.15716" lon="6.51586">
        <ele>1009.6</ele>
        <time>2021-06-26T06:50:04Z</time>
      </trkpt>
      <trkpt lat="46.15715" lon="6.5159">
        <ele>1010</ele>
        <time>2021-06-26T06:50:05Z</time>
      </trkpt>
      <trkpt lat="46.15714" lon="6.51593">
        <ele>1010</ele>
        <time>2021-06-26T06:50:06Z</time>
      </trkpt>
      <trkpt lat="46.15713" lon="6.51597">
        <ele>1010.2</ele>
        <time>2021-06-26T06:50:07Z</time>
      </trkpt>
      <trkpt lat="46.15712" lon="6.516">
        <ele>1010.4</ele>
        <time>2021-06-26T06:50:08Z</time>
      </trkpt>
      <trkpt lat="46.15711" lon="6.51603">
        <ele>1010.4</ele>
        <time>2021-06-26T06:50:09Z</time>
      </trkpt>
      <trkpt lat="46.1571" lon="6.51607">
        <ele>1010.8</ele>
        <time>2021-06-26T06:50:10Z</time>
      </trkpt>
      <trkpt lat="46.15709" lon="6.5161">
        <ele>1010.8</ele>
        <time>2021-06-26T06:50:11Z</time>
      </trkpt>
      <trkpt lat="46.15708" lon="6.51614">
        <ele>1011</ele>
        <time>2021-06-26T06:50:12Z</time>
      </trkpt>
      <trkpt lat="46.15707" lon="6.51617">
        <ele>1011.4</ele>
        <time>2021-06-26T06:50:13Z</time>
      </trkpt>
      <trkpt lat="46.15706" lon="6.5162">
        <ele>1011.6</ele>
        <time>2021-06-26T06:50:14Z</time>
      </trkpt>
      <trkpt lat="46.15705" lon="6.51623">
        <ele>1011.8</ele>
        <time>2021-06-26T06:50:15Z</time>
      </trkpt>
      <trkpt lat="46.15704" lon="6.51627">
        <ele>1012</ele>
        <time>2021-06-26T06:50:16Z</time>
      </trkpt>
      <trkpt lat="46.15703" lon="6.5163">
        <ele>1012.2</ele>
        <time>2021-06-26T06:50:17Z</time>
      </trkpt>
      <trkpt lat="46.15702" lon="6.51633">
        <ele>1012.4</ele>
        <time>2021-06-26T06:50:18Z</time>
      </trkpt>
      <trkpt lat="46.15701" lon="6.51637">
        <ele>1012.6</ele>
        <time>2021-06-26T06:50:19Z</time>
      </trkpt>
      <trkpt lat="46.157" lon="6.5164">
        <ele>1012.8</ele>
        <time>2021-06-26T06:50:20Z</time>
      </trkpt>
      <trkpt lat="46.15699" lon="6.51643">
        <ele>1012.8</ele>
        <time>2021-06-26T06:50:21Z</time>
      </trkpt>
      <trkpt lat="46.15698" lon="6.51647">
        <ele>1013.2</ele>
        <time>2021-06-26T06:50:22Z</time>
      </trkpt>
      <trkpt lat="46.15697" lon="6.5165">
        <ele>1013.6</ele>
        <time>2021-06-26T06:50:23Z</time>
      </trkpt>
      <trkpt lat="46.15697" lon="6.51654">
        <ele>1013.8</ele>
        <time>2021-06-26T06:50:24Z</time>
      </trkpt>
      <trkpt lat="46.15696" lon="6.51658">
        <ele>1014</ele>
        <time>2021-06-26T06:50:25Z</time>
      </trkpt>
      <trkpt lat="46.15696" lon="6.51662">
        <ele>1014.4</ele>
        <time>2021-06-26T06:50:26Z</time>
      </trkpt>
      <trkpt lat="46.15697" lon="6.51666">
        <ele>1014.4</ele>
        <time>2021-06-26T06:50:27Z</time>
      </trkpt>
      <trkpt lat="46.15697" lon="6.51669">
        <ele>1014.6</ele>
        <time>2021-06-26T06:50:28Z</time>
      </trkpt>
      <trkpt lat="46.15698" lon="6.51673">
        <ele>1014.8</ele>
        <time>2021-06-26T06:50:29Z</time>
      </trkpt>
      <trkpt lat="46.15698" lon="6.51676">
        <ele>1015.2</ele>
        <time>2021-06-26T06:50:30Z</time>
      </trkpt>
      <trkpt lat="46.15699" lon="6.5168">
        <ele>1015.2</ele>
        <time>2021-06-26T06:50:31Z</time>
      </trkpt>
      <trkpt lat="46.157" lon="6.51684">
        <ele>1015.4</ele>
        <time>2021-06-26T06:50:32Z</time>
      </trkpt>
      <trkpt lat="46.157" lon="6.51687">
        <ele>1015.6</ele>
        <time>2021-06-26T06:50:33Z</time>
      </trkpt>
      <trkpt lat="46.15701" lon="6.51691">
        <ele>1015.6</ele>
        <time>2021-06-26T06:50:34Z</time>
      </trkpt>
      <trkpt lat="46.15702" lon="6.51694">
        <ele>1016</ele>
        <time>2021-06-26T06:50:35Z</time>
      </trkpt>
      <trkpt lat="46.15702" lon="6.51698">
        <ele>1016</ele>
        <time>2021-06-26T06:50:36Z</time>
      </trkpt>
      <trkpt lat="46.15703" lon="6.51702">
        <ele>1016.4</ele>
        <time>2021-06-26T06:50:37Z</time>
      </trkpt>
      <trkpt lat="46.15703" lon="6.51706">
        <ele>1016.4</ele>
        <time>2021-06-26T06:50:38Z</time>
      </trkpt>
      <trkpt lat="46.15704" lon="6.51709">
        <ele>1016.6</ele>
        <time>2021-06-26T06:50:39Z</time>
      </trkpt>
      <trkpt lat="46.15704" lon="6.51713">
        <ele>1016.8</ele>
        <time>2021-06-26T06:50:40Z</time>
      </trkpt>
      <trkpt lat="46.15704" lon="6.51717">
        <ele>1017</ele>
        <time>2021-06-26T06:50:41Z</time>
      </trkpt>
      <trkpt lat="46.15704" lon="6.51721">
        <ele>1017.4</ele>
        <time>2021-06-26T06:50:42Z</time>
      </trkpt>
      <trkpt lat="46.15703" lon="6.51725">
        <ele>1017.4</ele>
        <time>2021-06-26T06:50:43Z</time>
      </trkpt>
      <trkpt lat="46.15703" lon="6.51728">
        <ele>1017.4</ele>
        <time>2021-06-26T06:50:44Z</time>
      </trkpt>
      <trkpt lat="46.15702" lon="6.51732">
        <ele>1017.6</ele>
        <time>2021-06-26T06:50:45Z</time>
      </trkpt>
      <trkpt lat="46.15701" lon="6.51735">
        <ele>1017.8</ele>
        <time>2021-06-26T06:50:46Z</time>
      </trkpt>
      <trkpt lat="46.157" lon="6.51738">
        <ele>1018</ele>
        <time>2021-06-26T06:50:47Z</time>
      </trkpt>
      <trkpt lat="46.15699" lon="6.51741">
        <ele>1018.2</ele>
        <time>2021-06-26T06:50:48Z</time>
      </trkpt>
      <trkpt lat="46.15698" lon="6.51744">
        <ele>1018.4</ele>
        <time>2021-06-26T06:50:49Z</time>
      </trkpt>
      <trkpt lat="46.15697" lon="6.51746">
        <ele>1018.6</ele>
        <time>2021-06-26T06:50:50Z</time>
      </trkpt>
      <trkpt lat="46.15696" lon="6.51748">
        <ele>1018.8</ele>
        <time>2021-06-26T06:50:51Z</time>
      </trkpt>
      <trkpt lat="46.15695" lon="6.51751">
        <ele>1019</ele>
        <time>2021-06-26T06:50:52Z</time>
      </trkpt>
      <trkpt lat="46.15694" lon="6.51753">
        <ele>1019.2</ele>
        <time>2021-06-26T06:50:53Z</time>
      </trkpt>
      <trkpt lat="46.15692" lon="6.51756">
        <ele>1019.4</ele>
        <time>2021-06-26T06:50:54Z</time>
      </trkpt>
      <trkpt lat="46.15691" lon="6.51758">
        <ele>1019.6</ele>
        <time>2021-06-26T06:50:55Z</time>
      </trkpt>
      <trkpt lat="46.1569" lon="6.5176">
        <ele>1019.8</ele>
        <time>2021-06-26T06:50:56Z</time>
      </trkpt>
      <trkpt lat="46.15688" lon="6.51763">
        <ele>1020.2</ele>
        <time>2021-06-26T06:50:57Z</time>
      </trkpt>
      <trkpt lat="46.15687" lon="6.51765">
        <ele>1020.6</ele>
        <time>2021-06-26T06:50:58Z</time>
      </trkpt>
      <trkpt lat="46.15686" lon="6.51767">
        <ele>1020.8</ele>
        <time>2021-06-26T06:50:59Z</time>
      </trkpt>
      <trkpt lat="46.15684" lon="6.51769">
        <ele>1021</ele>
        <time>2021-06-26T06:51:00Z</time>
      </trkpt>
      <trkpt lat="46.15682" lon="6.51772">
        <ele>1021.4</ele>
        <time>2021-06-26T06:51:01Z</time>
      </trkpt>
      <trkpt lat="46.15681" lon="6.51774">
        <ele>1021.6</ele>
        <time>2021-06-26T06:51:02Z</time>
      </trkpt>
      <trkpt lat="46.15679" lon="6.51777">
        <ele>1022</ele>
        <time>2021-06-26T06:51:03Z</time>
      </trkpt>
      <trkpt lat="46.15677" lon="6.5178">
        <ele>1022.2</ele>
        <time>2021-06-26T06:51:04Z</time>
      </trkpt>
      <trkpt lat="46.15676" lon="6.51783">
        <ele>1022.4</ele>
        <time>2021-06-26T06:51:05Z</time>
      </trkpt>
      <trkpt lat="46.15675" lon="6.51786">
        <ele>1022.6</ele>
        <time>2021-06-26T06:51:06Z</time>
      </trkpt>
      <trkpt lat="46.15674" lon="6.51789">
        <ele>1022.6</ele>
        <time>2021-06-26T06:51:07Z</time>
      </trkpt>
      <trkpt lat="46.15673" lon="6.51792">
        <ele>1023</ele>
        <time>2021-06-26T06:51:08Z</time>
      </trkpt>
      <trkpt lat="46.15672" lon="6.51794">
        <ele>1023.4</ele>
        <time>2021-06-26T06:51:09Z</time>
      </trkpt>
      <trkpt lat="46.15671" lon="6.51796">
        <ele>1023.2</ele>
        <time>2021-06-26T06:51:10Z</time>
      </trkpt>
      <trkpt lat="46.1567" lon="6.518">
        <ele>1023.8</ele>
        <time>2021-06-26T06:51:11Z</time>
      </trkpt>
      <trkpt lat="46.15669" lon="6.51803">
        <ele>1023.8</ele>
        <time>2021-06-26T06:51:12Z</time>
      </trkpt>
      <trkpt lat="46.15669" lon="6.51806">
        <ele>1024</ele>
        <time>2021-06-26T06:51:13Z</time>
      </trkpt>
      <trkpt lat="46.15668" lon="6.51809">
        <ele>1024.2</ele>
        <time>2021-06-26T06:51:14Z</time>
      </trkpt>
      <trkpt lat="46.15668" lon="6.51813">
        <ele>1024.6</ele>
        <time>2021-06-26T06:51:15Z</time>
      </trkpt>
      <trkpt lat="46.15668" lon="6.51816">
        <ele>1025</ele>
        <time>2021-06-26T06:51:16Z</time>
      </trkpt>
      <trkpt lat="46.15667" lon="6.51819">
        <ele>1025.2</ele>
        <time>2021-06-26T06:51:17Z</time>
      </trkpt>
      <trkpt lat="46.15667" lon="6.51823">
        <ele>1025.2</ele>
        <time>2021-06-26T06:51:18Z</time>
      </trkpt>
      <trkpt lat="46.15667" lon="6.51826">
        <ele>1025.4</ele>
        <time>2021-06-26T06:51:19Z</time>
      </trkpt>
      <trkpt lat="46.15666" lon="6.5183">
        <ele>1025.8</ele>
        <time>2021-06-26T06:51:20Z</time>
      </trkpt>
      <trkpt lat="46.15666" lon="6.51833">
        <ele>1025.8</ele>
        <time>2021-06-26T06:51:21Z</time>
      </trkpt>
      <trkpt lat="46.15666" lon="6.51836">
        <ele>1026</ele>
        <time>2021-06-26T06:51:22Z</time>
      </trkpt>
      <trkpt lat="46.15666" lon="6.5184">
        <ele>1026.2</ele>
        <time>2021-06-26T06:51:23Z</time>
      </trkpt>
      <trkpt lat="46.15666" lon="6.51843">
        <ele>1026.6</ele>
        <time>2021-06-26T06:51:24Z</time>
      </trkpt>
      <trkpt lat="46.15665" lon="6.51847">
        <ele>1026.6</ele>
        <time>2021-06-26T06:51:25Z</time>
      </trkpt>
      <trkpt lat="46.15665" lon="6.5185">
        <ele>1026.8</ele>
        <time>2021-06-26T06:51:26Z</time>
      </trkpt>
      <trkpt lat="46.15665" lon="6.51854">
        <ele>1026.8</ele>
        <time>2021-06-26T06:51:27Z</time>
      </trkpt>
      <trkpt lat="46.15665" lon="6.51858">
        <ele>1027</ele>
        <time>2021-06-26T06:51:28Z</time>
      </trkpt>
      <trkpt lat="46.15665" lon="6.51861">
        <ele>1027</ele>
        <time>2021-06-26T06:51:29Z</time>
      </trkpt>
      <trkpt lat="46.15665" lon="6.51865">
        <ele>1027.2</ele>
        <time>2021-06-26T06:51:30Z</time>
      </trkpt>
      <trkpt lat="46.15666" lon="6.51869">
        <ele>1027.4</ele>
        <time>2021-06-26T06:51:31Z</time>
      </trkpt>
      <trkpt lat="46.15666" lon="6.51873">
        <ele>1027.6</ele>
        <time>2021-06-26T06:51:32Z</time>
      </trkpt>
      <trkpt lat="46.15666" lon="6.51876">
        <ele>1028</ele>
        <time>2021-06-26T06:51:33Z</time>
      </trkpt>
      <trkpt lat="46.15666" lon="6.5188">
        <ele>1028</ele>
        <time>2021-06-26T06:51:34Z</time>
      </trkpt>
      <trkpt lat="46.15666" lon="6.51884">
        <ele>1028.2</ele>
        <time>2021-06-26T06:51:35Z</time>
      </trkpt>
      <trkpt lat="46.15666" lon="6.51887">
        <ele>1028.4</ele>
        <time>2021-06-26T06:51:36Z</time>
      </trkpt>
      <trkpt lat="46.15667" lon="6.51891">
        <ele>1028.8</ele>
        <time>2021-06-26T06:51:37Z</time>
      </trkpt>
      <trkpt lat="46.15667" lon="6.51894">
        <ele>1028.8</ele>
        <time>2021-06-26T06:51:38Z</time>
      </trkpt>
      <trkpt lat="46.15667" lon="6.51898">
        <ele>1029.2</ele>
        <time>2021-06-26T06:51:39Z</time>
      </trkpt>
      <trkpt lat="46.15667" lon="6.51902">
        <ele>1029.4</ele>
        <time>2021-06-26T06:51:40Z</time>
      </trkpt>
      <trkpt lat="46.15667" lon="6.51905">
        <ele>1029.6</ele>
        <time>2021-06-26T06:51:41Z</time>
      </trkpt>
      <trkpt lat="46.15666" lon="6.51909">
        <ele>1029.8</ele>
        <time>2021-06-26T06:51:42Z</time>
      </trkpt>
      <trkpt lat="46.15666" lon="6.51913">
        <ele>1030</ele>
        <time>2021-06-26T06:51:43Z</time>
      </trkpt>
      <trkpt lat="46.15666" lon="6.51916">
        <ele>1030.2</ele>
        <time>2021-06-26T06:51:44Z</time>
      </trkpt>
      <trkpt lat="46.15666" lon="6.5192">
        <ele>1030.4</ele>
        <time>2021-06-26T06:51:45Z</time>
      </trkpt>
      <trkpt lat="46.15666" lon="6.51923">
        <ele>1030.4</ele>
        <time>2021-06-26T06:51:46Z</time>
      </trkpt>
      <trkpt lat="46.15665" lon="6.51927">
        <ele>1030.8</ele>
        <time>2021-06-26T06:51:47Z</time>
      </trkpt>
      <trkpt lat="46.15665" lon="6.5193">
        <ele>1031</ele>
        <time>2021-06-26T06:51:48Z</time>
      </trkpt>
      <trkpt lat="46.15665" lon="6.51934">
        <ele>1031.2</ele>
        <time>2021-06-26T06:51:49Z</time>
      </trkpt>
      <trkpt lat="46.15664" lon="6.51937">
        <ele>1031.4</ele>
        <time>2021-06-26T06:51:50Z</time>
      </trkpt>
      <trkpt lat="46.15664" lon="6.51941">
        <ele>1031.4</ele>
        <time>2021-06-26T06:51:51Z</time>
      </trkpt>
      <trkpt lat="46.15663" lon="6.51944">
        <ele>1031.6</ele>
        <time>2021-06-26T06:51:52Z</time>
      </trkpt>
      <trkpt lat="46.15662" lon="6.51947">
        <ele>1031.6</ele>
        <time>2021-06-26T06:51:53Z</time>
      </trkpt>
      <trkpt lat="46.15661" lon="6.51951">
        <ele>1031.8</ele>
        <time>2021-06-26T06:51:54Z</time>
      </trkpt>
      <trkpt lat="46.1566" lon="6.51954">
        <ele>1032.2</ele>
        <time>2021-06-26T06:51:55Z</time>
      </trkpt>
      <trkpt lat="46.15659" lon="6.51957">
        <ele>1032.4</ele>
        <time>2021-06-26T06:51:56Z</time>
      </trkpt>
      <trkpt lat="46.15658" lon="6.5196">
        <ele>1032.8</ele>
        <time>2021-06-26T06:51:57Z</time>
      </trkpt>
      <trkpt lat="46.15657" lon="6.51963">
        <ele>1033</ele>
        <time>2021-06-26T06:51:58Z</time>
      </trkpt>
      <trkpt lat="46.15656" lon="6.51966">
        <ele>1033.2</ele>
        <time>2021-06-26T06:51:59Z</time>
      </trkpt>
      <trkpt lat="46.15655" lon="6.51968">
        <ele>1033.2</ele>
        <time>2021-06-26T06:52:00Z</time>
      </trkpt>
      <trkpt lat="46.15653" lon="6.51971">
        <ele>1033.4</ele>
        <time>2021-06-26T06:52:01Z</time>
      </trkpt>
      <trkpt lat="46.15652" lon="6.51974">
        <ele>1033.8</ele>
        <time>2021-06-26T06:52:02Z</time>
      </trkpt>
      <trkpt lat="46.15651" lon="6.51977">
        <ele>1034</ele>
        <time>2021-06-26T06:52:03Z</time>
      </trkpt>
      <trkpt lat="46.1565" lon="6.5198">
        <ele>1034.2</ele>
        <time>2021-06-26T06:52:04Z</time>
      </trkpt>
      <trkpt lat="46.15649" lon="6.51982">
        <ele>1034.4</ele>
        <time>2021-06-26T06:52:05Z</time>
      </trkpt>
      <trkpt lat="46.15648" lon="6.51985">
        <ele>1034.8</ele>
        <time>2021-06-26T06:52:06Z</time>
      </trkpt>
      <trkpt lat="46.15647" lon="6.51988">
        <ele>1035</ele>
        <time>2021-06-26T06:52:07Z</time>
      </trkpt>
      <trkpt lat="46.15646" lon="6.51991">
        <ele>1035</ele>
        <time>2021-06-26T06:52:08Z</time>
      </trkpt>
      <trkpt lat="46.15645" lon="6.51994">
        <ele>1035.4</ele>
        <time>2021-06-26T06:52:09Z</time>
      </trkpt>
      <trkpt lat="46.15643" lon="6.51997">
        <ele>1035.6</ele>
        <time>2021-06-26T06:52:10Z</time>
      </trkpt>
      <trkpt lat="46.15642" lon="6.52">
        <ele>1035.8</ele>
        <time>2021-06-26T06:52:11Z</time>
      </trkpt>
      <trkpt lat="46.15641" lon="6.52003">
        <ele>1035.8</ele>
        <time>2021-06-26T06:52:12Z</time>
      </trkpt>
      <trkpt lat="46.1564" lon="6.52006">
        <ele>1035.8</ele>
        <time>2021-06-26T06:52:13Z</time>
      </trkpt>
      <trkpt lat="46.15639" lon="6.52009">
        <ele>1036.2</ele>
        <time>2021-06-26T06:52:14Z</time>
      </trkpt>
      <trkpt lat="46.15638" lon="6.52013">
        <ele>1036.4</ele>
        <time>2021-06-26T06:52:15Z</time>
      </trkpt>
      <trkpt lat="46.15637" lon="6.52016">
        <ele>1036.8</ele>
        <time>2021-06-26T06:52:16Z</time>
      </trkpt>
      <trkpt lat="46.15636" lon="6.52019">
        <ele>1037.2</ele>
        <time>2021-06-26T06:52:17Z</time>
      </trkpt>
      <trkpt lat="46.15635" lon="6.52022">
        <ele>1037.4</ele>
        <time>2021-06-26T06:52:18Z</time>
      </trkpt>
      <trkpt lat="46.15634" lon="6.52026">
        <ele>1037.6</ele>
        <time>2021-06-26T06:52:19Z</time>
      </trkpt>
      <trkpt lat="46.15633" lon="6.52029">
        <ele>1037.6</ele>
        <time>2021-06-26T06:52:20Z</time>
      </trkpt>
      <trkpt lat="46.15632" lon="6.52032">
        <ele>1037.8</ele>
        <time>2021-06-26T06:52:21Z</time>
      </trkpt>
      <trkpt lat="46.15631" lon="6.52035">
        <ele>1038</ele>
        <time>2021-06-26T06:52:22Z</time>
      </trkpt>
      <trkpt lat="46.1563" lon="6.52039">
        <ele>1038.2</ele>
        <time>2021-06-26T06:52:23Z</time>
      </trkpt>
      <trkpt lat="46.15629" lon="6.52042">
        <ele>1038.4</ele>
        <time>2021-06-26T06:52:24Z</time>
      </trkpt>
      <trkpt lat="46.15629" lon="6.52046">
        <ele>1038.8</ele>
        <time>2021-06-26T06:52:25Z</time>
      </trkpt>
      <trkpt lat="46.15628" lon="6.5205">
        <ele>1038.8</ele>
        <time>2021-06-26T06:52:26Z</time>
      </trkpt>
      <trkpt lat="46.15627" lon="6.52053">
        <ele>1039.2</ele>
        <time>2021-06-26T06:52:27Z</time>
      </trkpt>
      <trkpt lat="46.15627" lon="6.52056">
        <ele>1039.6</ele>
        <time>2021-06-26T06:52:28Z</time>
      </trkpt>
      <trkpt lat="46.15626" lon="6.5206">
        <ele>1040</ele>
        <time>2021-06-26T06:52:29Z</time>
      </trkpt>
      <trkpt lat="46.15625" lon="6.52063">
        <ele>1040.2</ele>
        <time>2021-06-26T06:52:30Z</time>
      </trkpt>
      <trkpt lat="46.15625" lon="6.52067">
        <ele>1040.2</ele>
        <time>2021-06-26T06:52:31Z</time>
      </trkpt>
      <trkpt lat="46.15624" lon="6.52071">
        <ele>1040.2</ele>
        <time>2021-06-26T06:52:32Z</time>
      </trkpt>
      <trkpt lat="46.15623" lon="6.52074">
        <ele>1040.4</ele>
        <time>2021-06-26T06:52:33Z</time>
      </trkpt>
      <trkpt lat="46.15623" lon="6.52078">
        <ele>1040.8</ele>
        <time>2021-06-26T06:52:34Z</time>
      </trkpt>
      <trkpt lat="46.15623" lon="6.52081">
        <ele>1040.8</ele>
        <time>2021-06-26T06:52:35Z</time>
      </trkpt>
      <trkpt lat="46.15622" lon="6.52084">
        <ele>1041.2</ele>
        <time>2021-06-26T06:52:36Z</time>
      </trkpt>
      <trkpt lat="46.15622" lon="6.52088">
        <ele>1041.2</ele>
        <time>2021-06-26T06:52:37Z</time>
      </trkpt>
      <trkpt lat="46.15621" lon="6.52092">
        <ele>1041.6</ele>
        <time>2021-06-26T06:52:38Z</time>
      </trkpt>
      <trkpt lat="46.15621" lon="6.52096">
        <ele>1041.8</ele>
        <time>2021-06-26T06:52:39Z</time>
      </trkpt>
      <trkpt lat="46.1562" lon="6.52099">
        <ele>1042</ele>
        <time>2021-06-26T06:52:40Z</time>
      </trkpt>
      <trkpt lat="46.1562" lon="6.52103">
        <ele>1042.4</ele>
        <time>2021-06-26T06:52:41Z</time>
      </trkpt>
      <trkpt lat="46.15619" lon="6.52106">
        <ele>1042.6</ele>
        <time>2021-06-26T06:52:42Z</time>
      </trkpt>
      <trkpt lat="46.15619" lon="6.52109">
        <ele>1042.8</ele>
        <time>2021-06-26T06:52:43Z</time>
      </trkpt>
      <trkpt lat="46.15619" lon="6.52113">
        <ele>1043.2</ele>
        <time>2021-06-26T06:52:44Z</time>
      </trkpt>
      <trkpt lat="46.15618" lon="6.52116">
        <ele>1043.2</ele>
        <time>2021-06-26T06:52:45Z</time>
      </trkpt>
      <trkpt lat="46.15617" lon="6.5212">
        <ele>1043.4</ele>
        <time>2021-06-26T06:52:46Z</time>
      </trkpt>
      <trkpt lat="46.15617" lon="6.52123">
        <ele>1043.6</ele>
        <time>2021-06-26T06:52:47Z</time>
      </trkpt>
      <trkpt lat="46.15616" lon="6.52127">
        <ele>1044</ele>
        <time>2021-06-26T06:52:48Z</time>
      </trkpt>
      <trkpt lat="46.15616" lon="6.5213">
        <ele>1044.2</ele>
        <time>2021-06-26T06:52:49Z</time>
      </trkpt>
      <trkpt lat="46.15615" lon="6.52134">
        <ele>1044.4</ele>
        <time>2021-06-26T06:52:50Z</time>
      </trkpt>
      <trkpt lat="46.15615" lon="6.52137">
        <ele>1044.8</ele>
        <time>2021-06-26T06:52:51Z</time>
      </trkpt>
      <trkpt lat="46.15614" lon="6.52141">
        <ele>1045</ele>
        <time>2021-06-26T06:52:52Z</time>
      </trkpt>
      <trkpt lat="46.15614" lon="6.52144">
        <ele>1045.4</ele>
        <time>2021-06-26T06:52:53Z</time>
      </trkpt>
      <trkpt lat="46.15613" lon="6.52148">
        <ele>1045.4</ele>
        <time>2021-06-26T06:52:54Z</time>
      </trkpt>
      <trkpt lat="46.15613" lon="6.52152">
        <ele>1045.4</ele>
        <time>2021-06-26T06:52:55Z</time>
      </trkpt>
      <trkpt lat="46.15613" lon="6.52155">
        <ele>1045.6</ele>
        <time>2021-06-26T06:52:56Z</time>
      </trkpt>
      <trkpt lat="46.15612" lon="6.52159">
        <ele>1045.6</ele>
        <time>2021-06-26T06:52:57Z</time>
      </trkpt>
      <trkpt lat="46.15612" lon="6.52162">
        <ele>1046</ele>
        <time>2021-06-26T06:52:58Z</time>
      </trkpt>
      <trkpt lat="46.15611" lon="6.52166">
        <ele>1046.2</ele>
        <time>2021-06-26T06:52:59Z</time>
      </trkpt>
      <trkpt lat="46.15611" lon="6.5217">
        <ele>1046.6</ele>
        <time>2021-06-26T06:53:00Z</time>
      </trkpt>
      <trkpt lat="46.1561" lon="6.52173">
        <ele>1046.6</ele>
        <time>2021-06-26T06:53:01Z</time>
      </trkpt>
      <trkpt lat="46.1561" lon="6.52177">
        <ele>1046.8</ele>
        <time>2021-06-26T06:53:02Z</time>
      </trkpt>
      <trkpt lat="46.15609" lon="6.5218">
        <ele>1047</ele>
        <time>2021-06-26T06:53:03Z</time>
      </trkpt>
      <trkpt lat="46.15609" lon="6.52184">
        <ele>1047.2</ele>
        <time>2021-06-26T06:53:04Z</time>
      </trkpt>
      <trkpt lat="46.15608" lon="6.52187">
        <ele>1047.4</ele>
        <time>2021-06-26T06:53:05Z</time>
      </trkpt>
      <trkpt lat="46.15608" lon="6.52191">
        <ele>1047.6</ele>
        <time>2021-06-26T06:53:06Z</time>
      </trkpt>
      <trkpt lat="46.15607" lon="6.52194">
        <ele>1047.6</ele>
        <time>2021-06-26T06:53:07Z</time>
      </trkpt>
      <trkpt lat="46.15607" lon="6.52198">
        <ele>1047.8</ele>
        <time>2021-06-26T06:53:08Z</time>
      </trkpt>
      <trkpt lat="46.15606" lon="6.52201">
        <ele>1048</ele>
        <time>2021-06-26T06:53:09Z</time>
      </trkpt>
      <trkpt lat="46.15606" lon="6.52205">
        <ele>1048.2</ele>
        <time>2021-06-26T06:53:10Z</time>
      </trkpt>
      <trkpt lat="46.15605" lon="6.52208">
        <ele>1048.4</ele>
        <time>2021-06-26T06:53:11Z</time>
      </trkpt>
      <trkpt lat="46.15605" lon="6.52212">
        <ele>1048.8</ele>
        <time>2021-06-26T06:53:12Z</time>
      </trkpt>
      <trkpt lat="46.15605" lon="6.52215">
        <ele>1049.2</ele>
        <time>2021-06-26T06:53:13Z</time>
      </trkpt>
      <trkpt lat="46.15604" lon="6.52219">
        <ele>1049.2</ele>
        <time>2021-06-26T06:53:14Z</time>
      </trkpt>
      <trkpt lat="46.15603" lon="6.52222">
        <ele>1049.4</ele>
        <time>2021-06-26T06:53:15Z</time>
      </trkpt>
      <trkpt lat="46.15602" lon="6.52226">
        <ele>1049.6</ele>
        <time>2021-06-26T06:53:16Z</time>
      </trkpt>
      <trkpt lat="46.15601" lon="6.52229">
        <ele>1050</ele>
        <time>2021-06-26T06:53:17Z</time>
      </trkpt>
      <trkpt lat="46.156" lon="6.52232">
        <ele>1050.2</ele>
        <time>2021-06-26T06:53:18Z</time>
      </trkpt>
      <trkpt lat="46.156" lon="6.52235">
        <ele>1050.4</ele>
        <time>2021-06-26T06:53:19Z</time>
      </trkpt>
      <trkpt lat="46.15599" lon="6.52239">
        <ele>1050.4</ele>
        <time>2021-06-26T06:53:20Z</time>
      </trkpt>
      <trkpt lat="46.15599" lon="6.52242">
        <ele>1050.6</ele>
        <time>2021-06-26T06:53:21Z</time>
      </trkpt>
      <trkpt lat="46.15598" lon="6.52245">
        <ele>1051</ele>
        <time>2021-06-26T06:53:22Z</time>
      </trkpt>
      <trkpt lat="46.15597" lon="6.52248">
        <ele>1051.4</ele>
        <time>2021-06-26T06:53:23Z</time>
      </trkpt>
      <trkpt lat="46.15596" lon="6.52251">
        <ele>1051.6</ele>
        <time>2021-06-26T06:53:24Z</time>
      </trkpt>
      <trkpt lat="46.15595" lon="6.52254">
        <ele>1051.8</ele>
        <time>2021-06-26T06:53:25Z</time>
      </trkpt>
      <trkpt lat="46.15594" lon="6.52258">
        <ele>1052</ele>
        <time>2021-06-26T06:53:26Z</time>
      </trkpt>
      <trkpt lat="46.15594" lon="6.52261">
        <ele>1052</ele>
        <time>2021-06-26T06:53:27Z</time>
      </trkpt>
      <trkpt lat="46.15593" lon="6.52264">
        <ele>1052.4</ele>
        <time>2021-06-26T06:53:28Z</time>
      </trkpt>
      <trkpt lat="46.15593" lon="6.52268">
        <ele>1052.4</ele>
        <time>2021-06-26T06:53:29Z</time>
      </trkpt>
      <trkpt lat="46.15592" lon="6.52271">
        <ele>1052.8</ele>
        <time>2021-06-26T06:53:30Z</time>
      </trkpt>
      <trkpt lat="46.15592" lon="6.52274">
        <ele>1053</ele>
        <time>2021-06-26T06:53:31Z</time>
      </trkpt>
      <trkpt lat="46.15591" lon="6.52278">
        <ele>1053.4</ele>
        <time>2021-06-26T06:53:32Z</time>
      </trkpt>
      <trkpt lat="46.1559" lon="6.52281">
        <ele>1053.4</ele>
        <time>2021-06-26T06:53:33Z</time>
      </trkpt>
      <trkpt lat="46.1559" lon="6.52284">
        <ele>1053.8</ele>
        <time>2021-06-26T06:53:34Z</time>
      </trkpt>
      <trkpt lat="46.1559" lon="6.52288">
        <ele>1054</ele>
        <time>2021-06-26T06:53:35Z</time>
      </trkpt>
      <trkpt lat="46.1559" lon="6.52291">
        <ele>1054.2</ele>
        <time>2021-06-26T06:53:36Z</time>
      </trkpt>
      <trkpt lat="46.15589" lon="6.52295">
        <ele>1054.4</ele>
        <time>2021-06-26T06:53:37Z</time>
      </trkpt>
      <trkpt lat="46.15589" lon="6.52298">
        <ele>1054.6</ele>
        <time>2021-06-26T06:53:38Z</time>
      </trkpt>
      <trkpt lat="46.15589" lon="6.52301">
        <ele>1055</ele>
        <time>2021-06-26T06:53:39Z</time>
      </trkpt>
      <trkpt lat="46.15589" lon="6.52305">
        <ele>1055</ele>
        <time>2021-06-26T06:53:40Z</time>
      </trkpt>
      <trkpt lat="46.15589" lon="6.52308">
        <ele>1055.2</ele>
        <time>2021-06-26T06:53:41Z</time>
      </trkpt>
      <trkpt lat="46.15589" lon="6.52311">
        <ele>1055.2</ele>
        <time>2021-06-26T06:53:42Z</time>
      </trkpt>
      <trkpt lat="46.15589" lon="6.52315">
        <ele>1055.4</ele>
        <time>2021-06-26T06:53:43Z</time>
      </trkpt>
      <trkpt lat="46.15589" lon="6.52318">
        <ele>1055.6</ele>
        <time>2021-06-26T06:53:44Z</time>
      </trkpt>
      <trkpt lat="46.15589" lon="6.52322">
        <ele>1056</ele>
        <time>2021-06-26T06:53:45Z</time>
      </trkpt>
      <trkpt lat="46.15589" lon="6.52325">
        <ele>1056</ele>
        <time>2021-06-26T06:53:46Z</time>
      </trkpt>
      <trkpt lat="46.15589" lon="6.52329">
        <ele>1056.4</ele>
        <time>2021-06-26T06:53:47Z</time>
      </trkpt>
      <trkpt lat="46.1559" lon="6.52332">
        <ele>1056.6</ele>
        <time>2021-06-26T06:53:48Z</time>
      </trkpt>
      <trkpt lat="46.15589" lon="6.52335">
        <ele>1056.8</ele>
        <time>2021-06-26T06:53:49Z</time>
      </trkpt>
      <trkpt lat="46.15588" lon="6.52339">
        <ele>1057</ele>
        <time>2021-06-26T06:53:50Z</time>
      </trkpt>
      <trkpt lat="46.15588" lon="6.52342">
        <ele>1057.2</ele>
        <time>2021-06-26T06:53:51Z</time>
      </trkpt>
      <trkpt lat="46.15587" lon="6.52346">
        <ele>1057.4</ele>
        <time>2021-06-26T06:53:52Z</time>
      </trkpt>
      <trkpt lat="46.15587" lon="6.52349">
        <ele>1057.6</ele>
        <time>2021-06-26T06:53:53Z</time>
      </trkpt>
      <trkpt lat="46.15586" lon="6.52353">
        <ele>1057.8</ele>
        <time>2021-06-26T06:53:54Z</time>
      </trkpt>
      <trkpt lat="46.15585" lon="6.52356">
        <ele>1057.8</ele>
        <time>2021-06-26T06:53:55Z</time>
      </trkpt>
      <trkpt lat="46.15584" lon="6.5236">
        <ele>1058.2</ele>
        <time>2021-06-26T06:53:56Z</time>
      </trkpt>
      <trkpt lat="46.15584" lon="6.52363">
        <ele>1058.4</ele>
        <time>2021-06-26T06:53:57Z</time>
      </trkpt>
      <trkpt lat="46.15583" lon="6.52367">
        <ele>1058.6</ele>
        <time>2021-06-26T06:53:58Z</time>
      </trkpt>
      <trkpt lat="46.15583" lon="6.52371">
        <ele>1058.8</ele>
        <time>2021-06-26T06:53:59Z</time>
      </trkpt>
      <trkpt lat="46.15582" lon="6.52374">
        <ele>1059.2</ele>
        <time>2021-06-26T06:54:00Z</time>
      </trkpt>
      <trkpt lat="46.15581" lon="6.52377">
        <ele>1059.4</ele>
        <time>2021-06-26T06:54:01Z</time>
      </trkpt>
      <trkpt lat="46.1558" lon="6.52381">
        <ele>1059.6</ele>
        <time>2021-06-26T06:54:02Z</time>
      </trkpt>
      <trkpt lat="46.15579" lon="6.52384">
        <ele>1059.6</ele>
        <time>2021-06-26T06:54:03Z</time>
      </trkpt>
      <trkpt lat="46.15579" lon="6.52387">
        <ele>1059.6</ele>
        <time>2021-06-26T06:54:04Z</time>
      </trkpt>
      <trkpt lat="46.15578" lon="6.52391">
        <ele>1060</ele>
        <time>2021-06-26T06:54:05Z</time>
      </trkpt>
      <trkpt lat="46.15577" lon="6.52394">
        <ele>1060.2</ele>
        <time>2021-06-26T06:54:06Z</time>
      </trkpt>
      <trkpt lat="46.15576" lon="6.52398">
        <ele>1060.4</ele>
        <time>2021-06-26T06:54:07Z</time>
      </trkpt>
      <trkpt lat="46.15576" lon="6.52401">
        <ele>1060.8</ele>
        <time>2021-06-26T06:54:08Z</time>
      </trkpt>
      <trkpt lat="46.15575" lon="6.52405">
        <ele>1061.2</ele>
        <time>2021-06-26T06:54:09Z</time>
      </trkpt>
      <trkpt lat="46.15575" lon="6.52408">
        <ele>1061.4</ele>
        <time>2021-06-26T06:54:10Z</time>
      </trkpt>
      <trkpt lat="46.15574" lon="6.52412">
        <ele>1061.6</ele>
        <time>2021-06-26T06:54:11Z</time>
      </trkpt>
      <trkpt lat="46.15574" lon="6.52415">
        <ele>1062</ele>
        <time>2021-06-26T06:54:12Z</time>
      </trkpt>
      <trkpt lat="46.15574" lon="6.52419">
        <ele>1062.2</ele>
        <time>2021-06-26T06:54:13Z</time>
      </trkpt>
      <trkpt lat="46.15573" lon="6.52422">
        <ele>1062.4</ele>
        <time>2021-06-26T06:54:14Z</time>
      </trkpt>
      <trkpt lat="46.15573" lon="6.52426">
        <ele>1062.6</ele>
        <time>2021-06-26T06:54:15Z</time>
      </trkpt>
      <trkpt lat="46.15573" lon="6.5243">
        <ele>1062.8</ele>
        <time>2021-06-26T06:54:16Z</time>
      </trkpt>
      <trkpt lat="46.15573" lon="6.52433">
        <ele>1063.2</ele>
        <time>2021-06-26T06:54:17Z</time>
      </trkpt>
      <trkpt lat="46.15573" lon="6.52437">
        <ele>1063.4</ele>
        <time>2021-06-26T06:54:18Z</time>
      </trkpt>
      <trkpt lat="46.15573" lon="6.5244">
        <ele>1063.6</ele>
        <time>2021-06-26T06:54:19Z</time>
      </trkpt>
      <trkpt lat="46.15574" lon="6.52444">
        <ele>1064</ele>
        <time>2021-06-26T06:54:20Z</time>
      </trkpt>
      <trkpt lat="46.15574" lon="6.52447">
        <ele>1064</ele>
        <time>2021-06-26T06:54:21Z</time>
      </trkpt>
      <trkpt lat="46.15575" lon="6.52451">
        <ele>1064.6</ele>
        <time>2021-06-26T06:54:22Z</time>
      </trkpt>
      <trkpt lat="46.15575" lon="6.52455">
        <ele>1064.6</ele>
        <time>2021-06-26T06:54:23Z</time>
      </trkpt>
      <trkpt lat="46.15576" lon="6.52459">
        <ele>1065</ele>
        <time>2021-06-26T06:54:24Z</time>
      </trkpt>
      <trkpt lat="46.15576" lon="6.52463">
        <ele>1065.2</ele>
        <time>2021-06-26T06:54:25Z</time>
      </trkpt>
      <trkpt lat="46.15577" lon="6.52466">
        <ele>1065.2</ele>
        <time>2021-06-26T06:54:26Z</time>
      </trkpt>
      <trkpt lat="46.15577" lon="6.5247">
        <ele>1065.4</ele>
        <time>2021-06-26T06:54:27Z</time>
      </trkpt>
      <trkpt lat="46.15577" lon="6.52474">
        <ele>1065.6</ele>
        <time>2021-06-26T06:54:28Z</time>
      </trkpt>
      <trkpt lat="46.15578" lon="6.52477">
        <ele>1066</ele>
        <time>2021-06-26T06:54:29Z</time>
      </trkpt>
      <trkpt lat="46.15578" lon="6.52481">
        <ele>1066</ele>
        <time>2021-06-26T06:54:30Z</time>
      </trkpt>
      <trkpt lat="46.15579" lon="6.52484">
        <ele>1066.4</ele>
        <time>2021-06-26T06:54:31Z</time>
      </trkpt>
      <trkpt lat="46.15579" lon="6.52488">
        <ele>1066.6</ele>
        <time>2021-06-26T06:54:32Z</time>
      </trkpt>
      <trkpt lat="46.15579" lon="6.52491">
        <ele>1066.8</ele>
        <time>2021-06-26T06:54:33Z</time>
      </trkpt>
      <trkpt lat="46.1558" lon="6.52495">
        <ele>1067.2</ele>
        <time>2021-06-26T06:54:34Z</time>
      </trkpt>
      <trkpt lat="46.1558" lon="6.52498">
        <ele>1067.2</ele>
        <time>2021-06-26T06:54:35Z</time>
      </trkpt>
      <trkpt lat="46.15581" lon="6.52502">
        <ele>1067.6</ele>
        <time>2021-06-26T06:54:36Z</time>
      </trkpt>
      <trkpt lat="46.15581" lon="6.52505">
        <ele>1067.6</ele>
        <time>2021-06-26T06:54:37Z</time>
      </trkpt>
      <trkpt lat="46.15582" lon="6.52508">
        <ele>1068</ele>
        <time>2021-06-26T06:54:38Z</time>
      </trkpt>
      <trkpt lat="46.15582" lon="6.52512">
        <ele>1068.2</ele>
        <time>2021-06-26T06:54:39Z</time>
      </trkpt>
      <trkpt lat="46.15583" lon="6.52515">
        <ele>1068.2</ele>
        <time>2021-06-26T06:54:40Z</time>
      </trkpt>
      <trkpt lat="46.15583" lon="6.52519">
        <ele>1068.6</ele>
        <time>2021-06-26T06:54:41Z</time>
      </trkpt>
      <trkpt lat="46.15584" lon="6.52522">
        <ele>1068.8</ele>
        <time>2021-06-26T06:54:42Z</time>
      </trkpt>
      <trkpt lat="46.15584" lon="6.52526">
        <ele>1069</ele>
        <time>2021-06-26T06:54:43Z</time>
      </trkpt>
      <trkpt lat="46.15584" lon="6.5253">
        <ele>1069</ele>
        <time>2021-06-26T06:54:44Z</time>
      </trkpt>
      <trkpt lat="46.15585" lon="6.52533">
        <ele>1069.2</ele>
        <time>2021-06-26T06:54:45Z</time>
      </trkpt>
      <trkpt lat="46.15585" lon="6.52536">
        <ele>1069.6</ele>
        <time>2021-06-26T06:54:46Z</time>
      </trkpt>
      <trkpt lat="46.15586" lon="6.5254">
        <ele>1069.6</ele>
        <time>2021-06-26T06:54:47Z</time>
      </trkpt>
      <trkpt lat="46.15587" lon="6.52543">
        <ele>1069.6</ele>
        <time>2021-06-26T06:54:48Z</time>
      </trkpt>
      <trkpt lat="46.15587" lon="6.52547">
        <ele>1070</ele>
        <time>2021-06-26T06:54:49Z</time>
      </trkpt>
      <trkpt lat="46.15588" lon="6.5255">
        <ele>1070.2</ele>
        <time>2021-06-26T06:54:50Z</time>
      </trkpt>
      <trkpt lat="46.15589" lon="6.52553">
        <ele>1070.2</ele>
        <time>2021-06-26T06:54:51Z</time>
      </trkpt>
      <trkpt lat="46.15589" lon="6.52557">
        <ele>1070.4</ele>
        <time>2021-06-26T06:54:52Z</time>
      </trkpt>
      <trkpt lat="46.1559" lon="6.5256">
        <ele>1070.6</ele>
        <time>2021-06-26T06:54:53Z</time>
      </trkpt>
      <trkpt lat="46.15591" lon="6.52563">
        <ele>1070.8</ele>
        <time>2021-06-26T06:54:54Z</time>
      </trkpt>
      <trkpt lat="46.15593" lon="6.52566">
        <ele>1071</ele>
        <time>2021-06-26T06:54:55Z</time>
      </trkpt>
      <trkpt lat="46.15594" lon="6.5257">
        <ele>1071.4</ele>
        <time>2021-06-26T06:54:56Z</time>
      </trkpt>
      <trkpt lat="46.15595" lon="6.52573">
        <ele>1071.6</ele>
        <time>2021-06-26T06:54:57Z</time>
      </trkpt>
      <trkpt lat="46.15596" lon="6.52576">
        <ele>1072</ele>
        <time>2021-06-26T06:54:58Z</time>
      </trkpt>
      <trkpt lat="46.15598" lon="6.52579">
        <ele>1072.2</ele>
        <time>2021-06-26T06:54:59Z</time>
      </trkpt>
      <trkpt lat="46.15599" lon="6.52582">
        <ele>1072.4</ele>
        <time>2021-06-26T06:55:00Z</time>
      </trkpt>
      <trkpt lat="46.156" lon="6.52586">
        <ele>1072.6</ele>
        <time>2021-06-26T06:55:01Z</time>
      </trkpt>
      <trkpt lat="46.15601" lon="6.52589">
        <ele>1072.8</ele>
        <time>2021-06-26T06:55:02Z</time>
      </trkpt>
      <trkpt lat="46.15603" lon="6.52592">
        <ele>1073</ele>
        <time>2021-06-26T06:55:03Z</time>
      </trkpt>
      <trkpt lat="46.15604" lon="6.52595">
        <ele>1073.2</ele>
        <time>2021-06-26T06:55:04Z</time>
      </trkpt>
      <trkpt lat="46.15605" lon="6.52598">
        <ele>1073.4</ele>
        <time>2021-06-26T06:55:05Z</time>
      </trkpt>
      <trkpt lat="46.15607" lon="6.52601">
        <ele>1073.6</ele>
        <time>2021-06-26T06:55:06Z</time>
      </trkpt>
      <trkpt lat="46.15608" lon="6.52605">
        <ele>1073.8</ele>
        <time>2021-06-26T06:55:07Z</time>
      </trkpt>
      <trkpt lat="46.15609" lon="6.52608">
        <ele>1074</ele>
        <time>2021-06-26T06:55:08Z</time>
      </trkpt>
      <trkpt lat="46.1561" lon="6.52611">
        <ele>1074.2</ele>
        <time>2021-06-26T06:55:09Z</time>
      </trkpt>
      <trkpt lat="46.15612" lon="6.52614">
        <ele>1074.2</ele>
        <time>2021-06-26T06:55:10Z</time>
      </trkpt>
      <trkpt lat="46.15613" lon="6.52617">
        <ele>1074.2</ele>
        <time>2021-06-26T06:55:11Z</time>
      </trkpt>
      <trkpt lat="46.15615" lon="6.52619">
        <ele>1074.4</ele>
        <time>2021-06-26T06:55:12Z</time>
      </trkpt>
      <trkpt lat="46.15616" lon="6.52622">
        <ele>1074.8</ele>
        <time>2021-06-26T06:55:13Z</time>
      </trkpt>
      <trkpt lat="46.15617" lon="6.52625">
        <ele>1075</ele>
        <time>2021-06-26T06:55:14Z</time>
      </trkpt>
      <trkpt lat="46.15619" lon="6.52628">
        <ele>1075.4</ele>
        <time>2021-06-26T06:55:15Z</time>
      </trkpt>
      <trkpt lat="46.15621" lon="6.52631">
        <ele>1075.6</ele>
        <time>2021-06-26T06:55:16Z</time>
      </trkpt>
      <trkpt lat="46.15622" lon="6.52633">
        <ele>1075.6</ele>
        <time>2021-06-26T06:55:17Z</time>
      </trkpt>
      <trkpt lat="46.15624" lon="6.52635">
        <ele>1075.8</ele>
        <time>2021-06-26T06:55:18Z</time>
      </trkpt>
      <trkpt lat="46.15625" lon="6.52638">
        <ele>1076</ele>
        <time>2021-06-26T06:55:19Z</time>
      </trkpt>
      <trkpt lat="46.15627" lon="6.5264">
        <ele>1076.2</ele>
        <time>2021-06-26T06:55:20Z</time>
      </trkpt>
      <trkpt lat="46.15629" lon="6.52642">
        <ele>1076.4</ele>
        <time>2021-06-26T06:55:21Z</time>
      </trkpt>
      <trkpt lat="46.15631" lon="6.52643">
        <ele>1076.6</ele>
        <time>2021-06-26T06:55:22Z</time>
      </trkpt>
      <trkpt lat="46.15633" lon="6.52644">
        <ele>1077</ele>
        <time>2021-06-26T06:55:23Z</time>
      </trkpt>
      <trkpt lat="46.15636" lon="6.52643">
        <ele>1077.2</ele>
        <time>2021-06-26T06:55:24Z</time>
      </trkpt>
      <trkpt lat="46.15638" lon="6.52643">
        <ele>1077.6</ele>
        <time>2021-06-26T06:55:25Z</time>
      </trkpt>
      <trkpt lat="46.1564" lon="6.52642">
        <ele>1077.8</ele>
        <time>2021-06-26T06:55:26Z</time>
      </trkpt>
      <trkpt lat="46.15642" lon="6.5264">
        <ele>1078</ele>
        <time>2021-06-26T06:55:27Z</time>
      </trkpt>
      <trkpt lat="46.15644" lon="6.52637">
        <ele>1078.4</ele>
        <time>2021-06-26T06:55:28Z</time>
      </trkpt>
      <trkpt lat="46.15646" lon="6.52634">
        <ele>1078.4</ele>
        <time>2021-06-26T06:55:29Z</time>
      </trkpt>
      <trkpt lat="46.15647" lon="6.52631">
        <ele>1078.8</ele>
        <time>2021-06-26T06:55:30Z</time>
      </trkpt>
      <trkpt lat="46.15648" lon="6.52627">
        <ele>1079</ele>
        <time>2021-06-26T06:55:31Z</time>
      </trkpt>
      <trkpt lat="46.15649" lon="6.52624">
        <ele>1079</ele>
        <time>2021-06-26T06:55:32Z</time>
      </trkpt>
      <trkpt lat="46.15649" lon="6.5262">
        <ele>1079.2</ele>
        <time>2021-06-26T06:55:33Z</time>
      </trkpt>
      <trkpt lat="46.15649" lon="6.52616">
        <ele>1079.4</ele>
        <time>2021-06-26T06:55:34Z</time>
      </trkpt>
      <trkpt lat="46.15648" lon="6.52612">
        <ele>1079.6</ele>
        <time>2021-06-26T06:55:35Z</time>
      </trkpt>
      <trkpt lat="46.15647" lon="6.52608">
        <ele>1079.8</ele>
        <time>2021-06-26T06:55:36Z</time>
      </trkpt>
      <trkpt lat="46.15646" lon="6.52604">
        <ele>1080</ele>
        <time>2021-06-26T06:55:37Z</time>
      </trkpt>
      <trkpt lat="46.15646" lon="6.526">
        <ele>1080</ele>
        <time>2021-06-26T06:55:38Z</time>
      </trkpt>
      <trkpt lat="46.15645" lon="6.52596">
        <ele>1080.4</ele>
        <time>2021-06-26T06:55:39Z</time>
      </trkpt>
      <trkpt lat="46.15644" lon="6.52592">
        <ele>1080.6</ele>
        <time>2021-06-26T06:55:40Z</time>
      </trkpt>
      <trkpt lat="46.15643" lon="6.52588">
        <ele>1080.8</ele>
        <time>2021-06-26T06:55:41Z</time>
      </trkpt>
      <trkpt lat="46.15643" lon="6.52584">
        <ele>1080.8</ele>
        <time>2021-06-26T06:55:42Z</time>
      </trkpt>
      <trkpt lat="46.15642" lon="6.5258">
        <ele>1080.8</ele>
        <time>2021-06-26T06:55:43Z</time>
      </trkpt>
      <trkpt lat="46.15642" lon="6.52576">
        <ele>1081</ele>
        <time>2021-06-26T06:55:44Z</time>
      </trkpt>
      <trkpt lat="46.15641" lon="6.52573">
        <ele>1081.2</ele>
        <time>2021-06-26T06:55:45Z</time>
      </trkpt>
      <trkpt lat="46.15641" lon="6.52569">
        <ele>1081.4</ele>
        <time>2021-06-26T06:55:46Z</time>
      </trkpt>
      <trkpt lat="46.15641" lon="6.52566">
        <ele>1081.4</ele>
        <time>2021-06-26T06:55:47Z</time>
      </trkpt>
      <trkpt lat="46.15641" lon="6.52562">
        <ele>1081.6</ele>
        <time>2021-06-26T06:55:48Z</time>
      </trkpt>
      <trkpt lat="46.15641" lon="6.52559">
        <ele>1081.6</ele>
        <time>2021-06-26T06:55:49Z</time>
      </trkpt>
      <trkpt lat="46.15642" lon="6.52555">
        <ele>1081.8</ele>
        <time>2021-06-26T06:55:50Z</time>
      </trkpt>
      <trkpt lat="46.15642" lon="6.52552">
        <ele>1081.6</ele>
        <time>2021-06-26T06:55:51Z</time>
      </trkpt>
      <trkpt lat="46.15643" lon="6.52549">
        <ele>1081.8</ele>
        <time>2021-06-26T06:55:52Z</time>
      </trkpt>
      <trkpt lat="46.15644" lon="6.52546">
        <ele>1082</ele>
        <time>2021-06-26T06:55:53Z</time>
      </trkpt>
      <trkpt lat="46.15645" lon="6.52542">
        <ele>1082</ele>
        <time>2021-06-26T06:55:54Z</time>
      </trkpt>
      <trkpt lat="46.15646" lon="6.52539">
        <ele>1082</ele>
        <time>2021-06-26T06:55:55Z</time>
      </trkpt>
      <trkpt lat="46.15647" lon="6.52536">
        <ele>1082.4</ele>
        <time>2021-06-26T06:55:56Z</time>
      </trkpt>
      <trkpt lat="46.15648" lon="6.52533">
        <ele>1082.6</ele>
        <time>2021-06-26T06:55:57Z</time>
      </trkpt>
      <trkpt lat="46.15649" lon="6.5253">
        <ele>1083</ele>
        <time>2021-06-26T06:55:58Z</time>
      </trkpt>
      <trkpt lat="46.1565" lon="6.52527">
        <ele>1083.2</ele>
        <time>2021-06-26T06:55:59Z</time>
      </trkpt>
      <trkpt lat="46.15652" lon="6.52524">
        <ele>1083.4</ele>
        <time>2021-06-26T06:56:00Z</time>
      </trkpt>
      <trkpt lat="46.15653" lon="6.52521">
        <ele>1083.8</ele>
        <time>2021-06-26T06:56:01Z</time>
      </trkpt>
      <trkpt lat="46.15655" lon="6.52519">
        <ele>1084.2</ele>
        <time>2021-06-26T06:56:02Z</time>
      </trkpt>
      <trkpt lat="46.15657" lon="6.52516">
        <ele>1084.2</ele>
        <time>2021-06-26T06:56:03Z</time>
      </trkpt>
      <trkpt lat="46.15658" lon="6.52514">
        <ele>1084.4</ele>
        <time>2021-06-26T06:56:04Z</time>
      </trkpt>
      <trkpt lat="46.1566" lon="6.52511">
        <ele>1084.8</ele>
        <time>2021-06-26T06:56:05Z</time>
      </trkpt>
      <trkpt lat="46.15662" lon="6.52509">
        <ele>1085</ele>
        <time>2021-06-26T06:56:06Z</time>
      </trkpt>
      <trkpt lat="46.15663" lon="6.52506">
        <ele>1085.4</ele>
        <time>2021-06-26T06:56:07Z</time>
      </trkpt>
      <trkpt lat="46.15665" lon="6.52504">
        <ele>1085.6</ele>
        <time>2021-06-26T06:56:08Z</time>
      </trkpt>
      <trkpt lat="46.15667" lon="6.52502">
        <ele>1085.8</ele>
        <time>2021-06-26T06:56:09Z</time>
      </trkpt>
      <trkpt lat="46.15669" lon="6.525">
        <ele>1086</ele>
        <time>2021-06-26T06:56:10Z</time>
      </trkpt>
      <trkpt lat="46.15671" lon="6.52498">
        <ele>1086.2</ele>
        <time>2021-06-26T06:56:11Z</time>
      </trkpt>
      <trkpt lat="46.15673" lon="6.52496">
        <ele>1086.4</ele>
        <time>2021-06-26T06:56:12Z</time>
      </trkpt>
      <trkpt lat="46.15675" lon="6.52494">
        <ele>1086.8</ele>
        <time>2021-06-26T06:56:13Z</time>
      </trkpt>
      <trkpt lat="46.15677" lon="6.52491">
        <ele>1087.2</ele>
        <time>2021-06-26T06:56:14Z</time>
      </trkpt>
      <trkpt lat="46.15679" lon="6.52489">
        <ele>1087.4</ele>
        <time>2021-06-26T06:56:15Z</time>
      </trkpt>
      <trkpt lat="46.15681" lon="6.52487">
        <ele>1087.4</ele>
        <time>2021-06-26T06:56:16Z</time>
      </trkpt>
      <trkpt lat="46.15683" lon="6.52485">
        <ele>1087.8</ele>
        <time>2021-06-26T06:56:17Z</time>
      </trkpt>
      <trkpt lat="46.15685" lon="6.52483">
        <ele>1088</ele>
        <time>2021-06-26T06:56:18Z</time>
      </trkpt>
      <trkpt lat="46.15687" lon="6.52481">
        <ele>1088.2</ele>
        <time>2021-06-26T06:56:19Z</time>
      </trkpt>
      <trkpt lat="46.15688" lon="6.52479">
        <ele>1088.4</ele>
        <time>2021-06-26T06:56:20Z</time>
      </trkpt>
      <trkpt lat="46.1569" lon="6.52477">
        <ele>1088.4</ele>
        <time>2021-06-26T06:56:21Z</time>
      </trkpt>
      <trkpt lat="46.15692" lon="6.52475">
        <ele>1088.8</ele>
        <time>2021-06-26T06:56:22Z</time>
      </trkpt>
      <trkpt lat="46.15694" lon="6.52473">
        <ele>1089</ele>
        <time>2021-06-26T06:56:23Z</time>
      </trkpt>
      <trkpt lat="46.15696" lon="6.52471">
        <ele>1089.2</ele>
        <time>2021-06-26T06:56:24Z</time>
      </trkpt>
      <trkpt lat="46.15698" lon="6.52469">
        <ele>1089.4</ele>
        <time>2021-06-26T06:56:25Z</time>
      </trkpt>
      <trkpt lat="46.157" lon="6.52466">
        <ele>1089.8</ele>
        <time>2021-06-26T06:56:26Z</time>
      </trkpt>
      <trkpt lat="46.15702" lon="6.52464">
        <ele>1090</ele>
        <time>2021-06-26T06:56:27Z</time>
      </trkpt>
      <trkpt lat="46.15704" lon="6.52462">
        <ele>1090.2</ele>
        <time>2021-06-26T06:56:28Z</time>
      </trkpt>
      <trkpt lat="46.15706" lon="6.5246">
        <ele>1090.2</ele>
        <time>2021-06-26T06:56:29Z</time>
      </trkpt>
      <trkpt lat="46.15708" lon="6.52458">
        <ele>1090.4</ele>
        <time>2021-06-26T06:56:30Z</time>
      </trkpt>
      <trkpt lat="46.1571" lon="6.52456">
        <ele>1090.6</ele>
        <time>2021-06-26T06:56:31Z</time>
      </trkpt>
      <trkpt lat="46.15712" lon="6.52454">
        <ele>1091</ele>
        <time>2021-06-26T06:56:32Z</time>
      </trkpt>
      <trkpt lat="46.15713" lon="6.52452">
        <ele>1091.4</ele>
        <time>2021-06-26T06:56:33Z</time>
      </trkpt>
      <trkpt lat="46.15715" lon="6.5245">
        <ele>1091.6</ele>
        <time>2021-06-26T06:56:34Z</time>
      </trkpt>
      <trkpt lat="46.15717" lon="6.52448">
        <ele>1091.8</ele>
        <time>2021-06-26T06:56:35Z</time>
      </trkpt>
      <trkpt lat="46.15719" lon="6.52445">
        <ele>1092</ele>
        <time>2021-06-26T06:56:36Z</time>
      </trkpt>
      <trkpt lat="46.15721" lon="6.52443">
        <ele>1092.2</ele>
        <time>2021-06-26T06:56:37Z</time>
      </trkpt>
      <trkpt lat="46.15723" lon="6.52441">
        <ele>1092.2</ele>
        <time>2021-06-26T06:56:38Z</time>
      </trkpt>
      <trkpt lat="46.15725" lon="6.52439">
        <ele>1092.2</ele>
        <time>2021-06-26T06:56:39Z</time>
      </trkpt>
      <trkpt lat="46.15727" lon="6.52437">
        <ele>1092.4</ele>
        <time>2021-06-26T06:56:40Z</time>
      </trkpt>
      <trkpt lat="46.15729" lon="6.52435">
        <ele>1092.8</ele>
        <time>2021-06-26T06:56:41Z</time>
      </trkpt>
      <trkpt lat="46.1573" lon="6.52433">
        <ele>1093</ele>
        <time>2021-06-26T06:56:42Z</time>
      </trkpt>
      <trkpt lat="46.15732" lon="6.52431">
        <ele>1093.2</ele>
        <time>2021-06-26T06:56:43Z</time>
      </trkpt>
      <trkpt lat="46.15734" lon="6.52429">
        <ele>1093.4</ele>
        <time>2021-06-26T06:56:44Z</time>
      </trkpt>
      <trkpt lat="46.15736" lon="6.52427">
        <ele>1093.4</ele>
        <time>2021-06-26T06:56:45Z</time>
      </trkpt>
      <trkpt lat="46.15738" lon="6.52425">
        <ele>1093.6</ele>
        <time>2021-06-26T06:56:46Z</time>
      </trkpt>
      <trkpt lat="46.1574" lon="6.52423">
        <ele>1094</ele>
        <time>2021-06-26T06:56:47Z</time>
      </trkpt>
      <trkpt lat="46.15742" lon="6.5242">
        <ele>1094.4</ele>
        <time>2021-06-26T06:56:48Z</time>
      </trkpt>
      <trkpt lat="46.15744" lon="6.52418">
        <ele>1094.4</ele>
        <time>2021-06-26T06:56:49Z</time>
      </trkpt>
      <trkpt lat="46.15746" lon="6.52416">
        <ele>1095</ele>
        <time>2021-06-26T06:56:50Z</time>
      </trkpt>
      <trkpt lat="46.15748" lon="6.52414">
        <ele>1095.2</ele>
        <time>2021-06-26T06:56:51Z</time>
      </trkpt>
      <trkpt lat="46.1575" lon="6.52412">
        <ele>1095.2</ele>
        <time>2021-06-26T06:56:52Z</time>
      </trkpt>
      <trkpt lat="46.15752" lon="6.5241">
        <ele>1095.6</ele>
        <time>2021-06-26T06:56:53Z</time>
      </trkpt>
      <trkpt lat="46.15754" lon="6.52408">
        <ele>1095.6</ele>
        <time>2021-06-26T06:56:54Z</time>
      </trkpt>
      <trkpt lat="46.15756" lon="6.52406">
        <ele>1096</ele>
        <time>2021-06-26T06:56:55Z</time>
      </trkpt>
      <trkpt lat="46.15758" lon="6.52404">
        <ele>1096.4</ele>
        <time>2021-06-26T06:56:56Z</time>
      </trkpt>
      <trkpt lat="46.1576" lon="6.52402">
        <ele>1096.6</ele>
        <time>2021-06-26T06:56:57Z</time>
      </trkpt>
      <trkpt lat="46.15762" lon="6.524">
        <ele>1097</ele>
        <time>2021-06-26T06:56:58Z</time>
      </trkpt>
      <trkpt lat="46.15764" lon="6.52399">
        <ele>1097</ele>
        <time>2021-06-26T06:56:59Z</time>
      </trkpt>
      <trkpt lat="46.15765" lon="6.52397">
        <ele>1097</ele>
        <time>2021-06-26T06:57:00Z</time>
      </trkpt>
      <trkpt lat="46.15767" lon="6.52395">
        <ele>1097.2</ele>
        <time>2021-06-26T06:57:01Z</time>
      </trkpt>
      <trkpt lat="46.1577" lon="6.52393">
        <ele>1097.6</ele>
        <time>2021-06-26T06:57:02Z</time>
      </trkpt>
      <trkpt lat="46.15772" lon="6.52392">
        <ele>1097.8</ele>
        <time>2021-06-26T06:57:03Z</time>
      </trkpt>
      <trkpt lat="46.15774" lon="6.5239">
        <ele>1098</ele>
        <time>2021-06-26T06:57:04Z</time>
      </trkpt>
      <trkpt lat="46.15776" lon="6.52388">
        <ele>1098.2</ele>
        <time>2021-06-26T06:57:05Z</time>
      </trkpt>
      <trkpt lat="46.15778" lon="6.52386">
        <ele>1098.2</ele>
        <time>2021-06-26T06:57:06Z</time>
      </trkpt>
      <trkpt lat="46.1578" lon="6.52384">
        <ele>1098.6</ele>
        <time>2021-06-26T06:57:07Z</time>
      </trkpt>
      <trkpt lat="46.15782" lon="6.52383">
        <ele>1099</ele>
        <time>2021-06-26T06:57:08Z</time>
      </trkpt>
      <trkpt lat="46.15784" lon="6.52381">
        <ele>1099</ele>
        <time>2021-06-26T06:57:09Z</time>
      </trkpt>
      <trkpt lat="46.15786" lon="6.52379">
        <ele>1099.2</ele>
        <time>2021-06-26T06:57:10Z</time>
      </trkpt>
      <trkpt lat="46.15788" lon="6.52378">
        <ele>1099.4</ele>
        <time>2021-06-26T06:57:11Z</time>
      </trkpt>
      <trkpt lat="46.1579" lon="6.52376">
        <ele>1099.6</ele>
        <time>2021-06-26T06:57:12Z</time>
      </trkpt>
      <trkpt lat="46.15792" lon="6.52374">
        <ele>1099.8</ele>
        <time>2021-06-26T06:57:13Z</time>
      </trkpt>
      <trkpt lat="46.15794" lon="6.52373">
        <ele>1100</ele>
        <time>2021-06-26T06:57:14Z</time>
      </trkpt>
      <trkpt lat="46.15796" lon="6.52371">
        <ele>1100.4</ele>
        <time>2021-06-26T06:57:15Z</time>
      </trkpt>
      <trkpt lat="46.15799" lon="6.52369">
        <ele>1100.6</ele>
        <time>2021-06-26T06:57:16Z</time>
      </trkpt>
      <trkpt lat="46.15801" lon="6.52368">
        <ele>1100.8</ele>
        <time>2021-06-26T06:57:17Z</time>
      </trkpt>
      <trkpt lat="46.15803" lon="6.52366">
        <ele>1101</ele>
        <time>2021-06-26T06:57:18Z</time>
      </trkpt>
      <trkpt lat="46.15805" lon="6.52365">
        <ele>1101.4</ele>
        <time>2021-06-26T06:57:19Z</time>
      </trkpt>
      <trkpt lat="46.15807" lon="6.52363">
        <ele>1101.6</ele>
        <time>2021-06-26T06:57:20Z</time>
      </trkpt>
      <trkpt lat="46.15809" lon="6.52362">
        <ele>1101.6</ele>
        <time>2021-06-26T06:57:21Z</time>
      </trkpt>
      <trkpt lat="46.15811" lon="6.5236">
        <ele>1101.6</ele>
        <time>2021-06-26T06:57:22Z</time>
      </trkpt>
      <trkpt lat="46.15814" lon="6.52359">
        <ele>1102</ele>
        <time>2021-06-26T06:57:23Z</time>
      </trkpt>
      <trkpt lat="46.15816" lon="6.52357">
        <ele>1102.2</ele>
        <time>2021-06-26T06:57:24Z</time>
      </trkpt>
      <trkpt lat="46.15818" lon="6.52356">
        <ele>1102.4</ele>
        <time>2021-06-26T06:57:25Z</time>
      </trkpt>
      <trkpt lat="46.1582" lon="6.52354">
        <ele>1102.6</ele>
        <time>2021-06-26T06:57:26Z</time>
      </trkpt>
      <trkpt lat="46.15822" lon="6.52353">
        <ele>1102.8</ele>
        <time>2021-06-26T06:57:27Z</time>
      </trkpt>
      <trkpt lat="46.15824" lon="6.52351">
        <ele>1103.2</ele>
        <time>2021-06-26T06:57:28Z</time>
      </trkpt>
      <trkpt lat="46.15827" lon="6.5235">
        <ele>1103.6</ele>
        <time>2021-06-26T06:57:29Z</time>
      </trkpt>
      <trkpt lat="46.15829" lon="6.52349">
        <ele>1103.6</ele>
        <time>2021-06-26T06:57:30Z</time>
      </trkpt>
      <trkpt lat="46.15831" lon="6.52347">
        <ele>1104</ele>
        <time>2021-06-26T06:57:31Z</time>
      </trkpt>
      <trkpt lat="46.15833" lon="6.52346">
        <ele>1104.2</ele>
        <time>2021-06-26T06:57:32Z</time>
      </trkpt>
      <trkpt lat="46.15835" lon="6.52344">
        <ele>1104.4</ele>
        <time>2021-06-26T06:57:33Z</time>
      </trkpt>
      <trkpt lat="46.15838" lon="6.52343">
        <ele>1104.6</ele>
        <time>2021-06-26T06:57:34Z</time>
      </trkpt>
      <trkpt lat="46.1584" lon="6.52341">
        <ele>1105</ele>
        <time>2021-06-26T06:57:35Z</time>
      </trkpt>
      <trkpt lat="46.15842" lon="6.5234">
        <ele>1105.2</ele>
        <time>2021-06-26T06:57:36Z</time>
      </trkpt>
      <trkpt lat="46.15844" lon="6.52339">
        <ele>1105.4</ele>
        <time>2021-06-26T06:57:37Z</time>
      </trkpt>
      <trkpt lat="46.15846" lon="6.52337">
        <ele>1105.4</ele>
        <time>2021-06-26T06:57:38Z</time>
      </trkpt>
      <trkpt lat="46.15848" lon="6.52336">
        <ele>1105.8</ele>
        <time>2021-06-26T06:57:39Z</time>
      </trkpt>
      <trkpt lat="46.15851" lon="6.52335">
        <ele>1106</ele>
        <time>2021-06-26T06:57:40Z</time>
      </trkpt>
      <trkpt lat="46.15853" lon="6.52333">
        <ele>1106.4</ele>
        <time>2021-06-26T06:57:41Z</time>
      </trkpt>
      <trkpt lat="46.15855" lon="6.52332">
        <ele>1106.4</ele>
        <time>2021-06-26T06:57:42Z</time>
      </trkpt>
      <trkpt lat="46.15857" lon="6.5233">
        <ele>1106.8</ele>
        <time>2021-06-26T06:57:43Z</time>
      </trkpt>
      <trkpt lat="46.15859" lon="6.52329">
        <ele>1106.8</ele>
        <time>2021-06-26T06:57:44Z</time>
      </trkpt>
      <trkpt lat="46.15862" lon="6.52328">
        <ele>1107</ele>
        <time>2021-06-26T06:57:45Z</time>
      </trkpt>
      <trkpt lat="46.15864" lon="6.52326">
        <ele>1107.2</ele>
        <time>2021-06-26T06:57:46Z</time>
      </trkpt>
      <trkpt lat="46.15866" lon="6.52325">
        <ele>1107.6</ele>
        <time>2021-06-26T06:57:47Z</time>
      </trkpt>
      <trkpt lat="46.15869" lon="6.52324">
        <ele>1107.6</ele>
        <time>2021-06-26T06:57:48Z</time>
      </trkpt>
      <trkpt lat="46.15871" lon="6.52323">
        <ele>1107.6</ele>
        <time>2021-06-26T06:57:49Z</time>
      </trkpt>
      <trkpt lat="46.15873" lon="6.52321">
        <ele>1108</ele>
        <time>2021-06-26T06:57:50Z</time>
      </trkpt>
      <trkpt lat="46.15876" lon="6.5232">
        <ele>1108.2</ele>
        <time>2021-06-26T06:57:51Z</time>
      </trkpt>
      <trkpt lat="46.15878" lon="6.52318">
        <ele>1108.6</ele>
        <time>2021-06-26T06:57:52Z</time>
      </trkpt>
      <trkpt lat="46.1588" lon="6.52317">
        <ele>1108.8</ele>
        <time>2021-06-26T06:57:53Z</time>
      </trkpt>
      <trkpt lat="46.15882" lon="6.52315">
        <ele>1109</ele>
        <time>2021-06-26T06:57:54Z</time>
      </trkpt>
      <trkpt lat="46.15884" lon="6.52314">
        <ele>1109</ele>
        <time>2021-06-26T06:57:55Z</time>
      </trkpt>
      <trkpt lat="46.15886" lon="6.52313">
        <ele>1109.2</ele>
        <time>2021-06-26T06:57:56Z</time>
      </trkpt>
      <trkpt lat="46.15889" lon="6.52312">
        <ele>1109.4</ele>
        <time>2021-06-26T06:57:57Z</time>
      </trkpt>
      <trkpt lat="46.15891" lon="6.5231">
        <ele>1109.8</ele>
        <time>2021-06-26T06:57:58Z</time>
      </trkpt>
      <trkpt lat="46.15893" lon="6.52309">
        <ele>1110</ele>
        <time>2021-06-26T06:57:59Z</time>
      </trkpt>
      <trkpt lat="46.15895" lon="6.52308">
        <ele>1110.2</ele>
        <time>2021-06-26T06:58:00Z</time>
      </trkpt>
      <trkpt lat="46.15897" lon="6.52306">
        <ele>1110.4</ele>
        <time>2021-06-26T06:58:01Z</time>
      </trkpt>
      <trkpt lat="46.159" lon="6.52305">
        <ele>1110.6</ele>
        <time>2021-06-26T06:58:02Z</time>
      </trkpt>
      <trkpt lat="46.15902" lon="6.52304">
        <ele>1110.8</ele>
        <time>2021-06-26T06:58:03Z</time>
      </trkpt>
      <trkpt lat="46.15904" lon="6.52303">
        <ele>1111</ele>
        <time>2021-06-26T06:58:04Z</time>
      </trkpt>
      <trkpt lat="46.15907" lon="6.52302">
        <ele>1111.4</ele>
        <time>2021-06-26T06:58:05Z</time>
      </trkpt>
      <trkpt lat="46.15909" lon="6.523">
        <ele>1111.6</ele>
        <time>2021-06-26T06:58:06Z</time>
      </trkpt>
      <trkpt lat="46.15911" lon="6.52299">
        <ele>1111.6</ele>
        <time>2021-06-26T06:58:07Z</time>
      </trkpt>
      <trkpt lat="46.15914" lon="6.52298">
        <ele>1111.8</ele>
        <time>2021-06-26T06:58:08Z</time>
      </trkpt>
      <trkpt lat="46.15916" lon="6.52297">
        <ele>1111.8</ele>
        <time>2021-06-26T06:58:09Z</time>
      </trkpt>
      <trkpt lat="46.15918" lon="6.52297">
        <ele>1112</ele>
        <time>2021-06-26T06:58:10Z</time>
      </trkpt>
      <trkpt lat="46.15921" lon="6.52297">
        <ele>1112.2</ele>
        <time>2021-06-26T06:58:11Z</time>
      </trkpt>
      <trkpt lat="46.15923" lon="6.52297">
        <ele>1112.2</ele>
        <time>2021-06-26T06:58:12Z</time>
      </trkpt>
      <trkpt lat="46.15926" lon="6.52297">
        <ele>1112.4</ele>
        <time>2021-06-26T06:58:13Z</time>
      </trkpt>
      <trkpt lat="46.15928" lon="6.52298">
        <ele>1112.6</ele>
        <time>2021-06-26T06:58:14Z</time>
      </trkpt>
      <trkpt lat="46.1593" lon="6.52299">
        <ele>1112.8</ele>
        <time>2021-06-26T06:58:15Z</time>
      </trkpt>
      <trkpt lat="46.15932" lon="6.52301">
        <ele>1113.2</ele>
        <time>2021-06-26T06:58:16Z</time>
      </trkpt>
      <trkpt lat="46.15933" lon="6.52303">
        <ele>1113.4</ele>
        <time>2021-06-26T06:58:17Z</time>
      </trkpt>
      <trkpt lat="46.15934" lon="6.52306">
        <ele>1113.4</ele>
        <time>2021-06-26T06:58:18Z</time>
      </trkpt>
      <trkpt lat="46.15935" lon="6.52309">
        <ele>1113.8</ele>
        <time>2021-06-26T06:58:19Z</time>
      </trkpt>
      <trkpt lat="46.15935" lon="6.52312">
        <ele>1114</ele>
        <time>2021-06-26T06:58:20Z</time>
      </trkpt>
      <trkpt lat="46.15934" lon="6.52314">
        <ele>1114.2</ele>
        <time>2021-06-26T06:58:21Z</time>
      </trkpt>
      <trkpt lat="46.15933" lon="6.52317">
        <ele>1114.4</ele>
        <time>2021-06-26T06:58:22Z</time>
      </trkpt>
      <trkpt lat="46.15932" lon="6.52319">
        <ele>1114.6</ele>
        <time>2021-06-26T06:58:23Z</time>
      </trkpt>
      <trkpt lat="46.1593" lon="6.52321">
        <ele>1114.8</ele>
        <time>2021-06-26T06:58:24Z</time>
      </trkpt>
      <trkpt lat="46.15929" lon="6.52323">
        <ele>1115.4</ele>
        <time>2021-06-26T06:58:25Z</time>
      </trkpt>
      <trkpt lat="46.15926" lon="6.52325">
        <ele>1116</ele>
        <time>2021-06-26T06:58:26Z</time>
      </trkpt>
      <trkpt lat="46.15924" lon="6.52326">
        <ele>1116.2</ele>
        <time>2021-06-26T06:58:27Z</time>
      </trkpt>
      <trkpt lat="46.15922" lon="6.52328">
        <ele>1116.8</ele>
        <time>2021-06-26T06:58:28Z</time>
      </trkpt>
      <trkpt lat="46.15919" lon="6.52329">
        <ele>1116.8</ele>
        <time>2021-06-26T06:58:29Z</time>
      </trkpt>
      <trkpt lat="46.15917" lon="6.52331">
        <ele>1117</ele>
        <time>2021-06-26T06:58:30Z</time>
      </trkpt>
      <trkpt lat="46.15914" lon="6.52332">
        <ele>1117.4</ele>
        <time>2021-06-26T06:58:31Z</time>
      </trkpt>
      <trkpt lat="46.15912" lon="6.52334">
        <ele>1118</ele>
        <time>2021-06-26T06:58:32Z</time>
      </trkpt>
      <trkpt lat="46.15909" lon="6.52336">
        <ele>1118.2</ele>
        <time>2021-06-26T06:58:33Z</time>
      </trkpt>
      <trkpt lat="46.15907" lon="6.52338">
        <ele>1118.4</ele>
        <time>2021-06-26T06:58:34Z</time>
      </trkpt>
      <trkpt lat="46.15904" lon="6.5234">
        <ele>1118.6</ele>
        <time>2021-06-26T06:58:35Z</time>
      </trkpt>
      <trkpt lat="46.15902" lon="6.52342">
        <ele>1118.8</ele>
        <time>2021-06-26T06:58:36Z</time>
      </trkpt>
      <trkpt lat="46.15899" lon="6.52344">
        <ele>1119</ele>
        <time>2021-06-26T06:58:37Z</time>
      </trkpt>
      <trkpt lat="46.15897" lon="6.52346">
        <ele>1118.8</ele>
        <time>2021-06-26T06:58:38Z</time>
      </trkpt>
      <trkpt lat="46.15894" lon="6.52349">
        <ele>1119</ele>
        <time>2021-06-26T06:58:39Z</time>
      </trkpt>
      <trkpt lat="46.15892" lon="6.52351">
        <ele>1119</ele>
        <time>2021-06-26T06:58:40Z</time>
      </trkpt>
      <trkpt lat="46.1589" lon="6.52353">
        <ele>1119.2</ele>
        <time>2021-06-26T06:58:41Z</time>
      </trkpt>
      <trkpt lat="46.15888" lon="6.52356">
        <ele>1119.4</ele>
        <time>2021-06-26T06:58:42Z</time>
      </trkpt>
      <trkpt lat="46.15887" lon="6.52359">
        <ele>1119.6</ele>
        <time>2021-06-26T06:58:43Z</time>
      </trkpt>
      <trkpt lat="46.15885" lon="6.52362">
        <ele>1119.8</ele>
        <time>2021-06-26T06:58:44Z</time>
      </trkpt>
      <trkpt lat="46.15883" lon="6.52365">
        <ele>1120</ele>
        <time>2021-06-26T06:58:45Z</time>
      </trkpt>
      <trkpt lat="46.15881" lon="6.52367">
        <ele>1120</ele>
        <time>2021-06-26T06:58:46Z</time>
      </trkpt>
      <trkpt lat="46.15879" lon="6.5237">
        <ele>1120.4</ele>
        <time>2021-06-26T06:58:47Z</time>
      </trkpt>
      <trkpt lat="46.15878" lon="6.52373">
        <ele>1120.4</ele>
        <time>2021-06-26T06:58:48Z</time>
      </trkpt>
      <trkpt lat="46.15876" lon="6.52375">
        <ele>1120.6</ele>
        <time>2021-06-26T06:58:49Z</time>
      </trkpt>
      <trkpt lat="46.15875" lon="6.52378">
        <ele>1120.8</ele>
        <time>2021-06-26T06:58:50Z</time>
      </trkpt>
      <trkpt lat="46.15873" lon="6.52381">
        <ele>1120.8</ele>
        <time>2021-06-26T06:58:51Z</time>
      </trkpt>
      <trkpt lat="46.15872" lon="6.52384">
        <ele>1121</ele>
        <time>2021-06-26T06:58:52Z</time>
      </trkpt>
      <trkpt lat="46.1587" lon="6.52387">
        <ele>1121.2</ele>
        <time>2021-06-26T06:58:53Z</time>
      </trkpt>
      <trkpt lat="46.15869" lon="6.5239">
        <ele>1121.2</ele>
        <time>2021-06-26T06:58:54Z</time>
      </trkpt>
      <trkpt lat="46.15868" lon="6.52394">
        <ele>1121.6</ele>
        <time>2021-06-26T06:58:55Z</time>
      </trkpt>
      <trkpt lat="46.15867" lon="6.52397">
        <ele>1121.8</ele>
        <time>2021-06-26T06:58:56Z</time>
      </trkpt>
      <trkpt lat="46.15865" lon="6.524">
        <ele>1121.8</ele>
        <time>2021-06-26T06:58:57Z</time>
      </trkpt>
      <trkpt lat="46.15864" lon="6.52404">
        <ele>1122.2</ele>
        <time>2021-06-26T06:58:58Z</time>
      </trkpt>
      <trkpt lat="46.15863" lon="6.52407">
        <ele>1122.2</ele>
        <time>2021-06-26T06:58:59Z</time>
      </trkpt>
      <trkpt lat="46.15862" lon="6.52411">
        <ele>1122.6</ele>
        <time>2021-06-26T06:59:00Z</time>
      </trkpt>
      <trkpt lat="46.15862" lon="6.52414">
        <ele>1122.8</ele>
        <time>2021-06-26T06:59:01Z</time>
      </trkpt>
      <trkpt lat="46.15861" lon="6.52418">
        <ele>1123</ele>
        <time>2021-06-26T06:59:02Z</time>
      </trkpt>
      <trkpt lat="46.1586" lon="6.52422">
        <ele>1123.2</ele>
        <time>2021-06-26T06:59:03Z</time>
      </trkpt>
      <trkpt lat="46.15859" lon="6.52426">
        <ele>1123.4</ele>
        <time>2021-06-26T06:59:04Z</time>
      </trkpt>
      <trkpt lat="46.15858" lon="6.52429">
        <ele>1123.6</ele>
        <time>2021-06-26T06:59:05Z</time>
      </trkpt>
      <trkpt lat="46.15857" lon="6.52433">
        <ele>1123.8</ele>
        <time>2021-06-26T06:59:06Z</time>
      </trkpt>
      <trkpt lat="46.15856" lon="6.52436">
        <ele>1124.2</ele>
        <time>2021-06-26T06:59:07Z</time>
      </trkpt>
      <trkpt lat="46.15855" lon="6.5244">
        <ele>1124.4</ele>
        <time>2021-06-26T06:59:08Z</time>
      </trkpt>
      <trkpt lat="46.15854" lon="6.52444">
        <ele>1124.6</ele>
        <time>2021-06-26T06:59:09Z</time>
      </trkpt>
      <trkpt lat="46.15853" lon="6.52447">
        <ele>1124.6</ele>
        <time>2021-06-26T06:59:10Z</time>
      </trkpt>
      <trkpt lat="46.15852" lon="6.52451">
        <ele>1125</ele>
        <time>2021-06-26T06:59:11Z</time>
      </trkpt>
      <trkpt lat="46.15852" lon="6.52454">
        <ele>1124.8</ele>
        <time>2021-06-26T06:59:12Z</time>
      </trkpt>
      <trkpt lat="46.15851" lon="6.52458">
        <ele>1124.8</ele>
        <time>2021-06-26T06:59:13Z</time>
      </trkpt>
      <trkpt lat="46.1585" lon="6.52461">
        <ele>1125</ele>
        <time>2021-06-26T06:59:14Z</time>
      </trkpt>
      <trkpt lat="46.15849" lon="6.52465">
        <ele>1125.2</ele>
        <time>2021-06-26T06:59:15Z</time>
      </trkpt>
      <trkpt lat="46.15848" lon="6.52468">
        <ele>1125.2</ele>
        <time>2021-06-26T06:59:16Z</time>
      </trkpt>
      <trkpt lat="46.15847" lon="6.52472">
        <ele>1125.4</ele>
        <time>2021-06-26T06:59:17Z</time>
      </trkpt>
      <trkpt lat="46.15846" lon="6.52475">
        <ele>1125.8</ele>
        <time>2021-06-26T06:59:18Z</time>
      </trkpt>
      <trkpt lat="46.15846" lon="6.52479">
        <ele>1125.8</ele>
        <time>2021-06-26T06:59:19Z</time>
      </trkpt>
      <trkpt lat="46.15845" lon="6.52483">
        <ele>1126.2</ele>
        <time>2021-06-26T06:59:20Z</time>
      </trkpt>
      <trkpt lat="46.15844" lon="6.52486">
        <ele>1126.4</ele>
        <time>2021-06-26T06:59:21Z</time>
      </trkpt>
      <trkpt lat="46.15843" lon="6.5249">
        <ele>1126.6</ele>
        <time>2021-06-26T06:59:22Z</time>
      </trkpt>
      <trkpt lat="46.15842" lon="6.52493">
        <ele>1126.6</ele>
        <time>2021-06-26T06:59:23Z</time>
      </trkpt>
      <trkpt lat="46.15841" lon="6.52497">
        <ele>1126.6</ele>
        <time>2021-06-26T06:59:24Z</time>
      </trkpt>
      <trkpt lat="46.1584" lon="6.525">
        <ele>1127</ele>
        <time>2021-06-26T06:59:25Z</time>
      </trkpt>
      <trkpt lat="46.15839" lon="6.52504">
        <ele>1127.2</ele>
        <time>2021-06-26T06:59:26Z</time>
      </trkpt>
      <trkpt lat="46.15838" lon="6.52507">
        <ele>1127.2</ele>
        <time>2021-06-26T06:59:27Z</time>
      </trkpt>
      <trkpt lat="46.15837" lon="6.52511">
        <ele>1127.4</ele>
        <time>2021-06-26T06:59:28Z</time>
      </trkpt>
      <trkpt lat="46.15836" lon="6.52514">
        <ele>1127.8</ele>
        <time>2021-06-26T06:59:29Z</time>
      </trkpt>
      <trkpt lat="46.15836" lon="6.52517">
        <ele>1128</ele>
        <time>2021-06-26T06:59:30Z</time>
      </trkpt>
      <trkpt lat="46.15835" lon="6.52521">
        <ele>1128.2</ele>
        <time>2021-06-26T06:59:31Z</time>
      </trkpt>
      <trkpt lat="46.15834" lon="6.52524">
        <ele>1128.2</ele>
        <time>2021-06-26T06:59:32Z</time>
      </trkpt>
      <trkpt lat="46.15833" lon="6.52527">
        <ele>1128.6</ele>
        <time>2021-06-26T06:59:33Z</time>
      </trkpt>
      <trkpt lat="46.15832" lon="6.52531">
        <ele>1128.8</ele>
        <time>2021-06-26T06:59:34Z</time>
      </trkpt>
      <trkpt lat="46.15832" lon="6.52534">
        <ele>1129</ele>
        <time>2021-06-26T06:59:35Z</time>
      </trkpt>
      <trkpt lat="46.15831" lon="6.52538">
        <ele>1129</ele>
        <time>2021-06-26T06:59:36Z</time>
      </trkpt>
      <trkpt lat="46.1583" lon="6.52541">
        <ele>1129.4</ele>
        <time>2021-06-26T06:59:37Z</time>
      </trkpt>
      <trkpt lat="46.15829" lon="6.52544">
        <ele>1129.4</ele>
        <time>2021-06-26T06:59:38Z</time>
      </trkpt>
      <trkpt lat="46.15828" lon="6.52547">
        <ele>1129.8</ele>
        <time>2021-06-26T06:59:39Z</time>
      </trkpt>
      <trkpt lat="46.15827" lon="6.52551">
        <ele>1130</ele>
        <time>2021-06-26T06:59:40Z</time>
      </trkpt>
      <trkpt lat="46.15826" lon="6.52554">
        <ele>1130.2</ele>
        <time>2021-06-26T06:59:41Z</time>
      </trkpt>
      <trkpt lat="46.15825" lon="6.52557">
        <ele>1130.4</ele>
        <time>2021-06-26T06:59:42Z</time>
      </trkpt>
      <trkpt lat="46.15825" lon="6.52561">
        <ele>1130.8</ele>
        <time>2021-06-26T06:59:43Z</time>
      </trkpt>
      <trkpt lat="46.15824" lon="6.52564">
        <ele>1131</ele>
        <time>2021-06-26T06:59:44Z</time>
      </trkpt>
      <trkpt lat="46.15823" lon="6.52567">
        <ele>1131</ele>
        <time>2021-06-26T06:59:45Z</time>
      </trkpt>
      <trkpt lat="46.15822" lon="6.52571">
        <ele>1131.4</ele>
        <time>2021-06-26T06:59:46Z</time>
      </trkpt>
      <trkpt lat="46.15821" lon="6.52574">
        <ele>1131.6</ele>
        <time>2021-06-26T06:59:47Z</time>
      </trkpt>
      <trkpt lat="46.15821" lon="6.52578">
        <ele>1131.8</ele>
        <time>2021-06-26T06:59:48Z</time>
      </trkpt>
      <trkpt lat="46.1582" lon="6.52581">
        <ele>1132</ele>
        <time>2021-06-26T06:59:49Z</time>
      </trkpt>
      <trkpt lat="46.1582" lon="6.52585">
        <ele>1132.4</ele>
        <time>2021-06-26T06:59:50Z</time>
      </trkpt>
      <trkpt lat="46.1582" lon="6.52589">
        <ele>1132.6</ele>
        <time>2021-06-26T06:59:51Z</time>
      </trkpt>
      <trkpt lat="46.15821" lon="6.52592">
        <ele>1132.6</ele>
        <time>2021-06-26T06:59:52Z</time>
      </trkpt>
      <trkpt lat="46.15821" lon="6.52596">
        <ele>1133</ele>
        <time>2021-06-26T06:59:53Z</time>
      </trkpt>
      <trkpt lat="46.15822" lon="6.52599">
        <ele>1133.2</ele>
        <time>2021-06-26T06:59:54Z</time>
      </trkpt>
      <trkpt lat="46.15822" lon="6.52602">
        <ele>1133.4</ele>
        <time>2021-06-26T06:59:55Z</time>
      </trkpt>
      <trkpt lat="46.15824" lon="6.52605">
        <ele>1133.6</ele>
        <time>2021-06-26T06:59:56Z</time>
      </trkpt>
      <trkpt lat="46.15825" lon="6.52607">
        <ele>1133.8</ele>
        <time>2021-06-26T06:59:57Z</time>
      </trkpt>
      <trkpt lat="46.15827" lon="6.52608">
        <ele>1133.8</ele>
        <time>2021-06-26T06:59:58Z</time>
      </trkpt>
      <trkpt lat="46.15829" lon="6.5261">
        <ele>1134</ele>
        <time>2021-06-26T06:59:59Z</time>
      </trkpt>
      <trkpt lat="46.15832" lon="6.5261">
        <ele>1134</ele>
        <time>2021-06-26T07:00:00Z</time>
      </trkpt>
      <trkpt lat="46.15835" lon="6.52611">
        <ele>1134.2</ele>
        <time>2021-06-26T07:00:01Z</time>
      </trkpt>
      <trkpt lat="46.15837" lon="6.52611">
        <ele>1134.4</ele>
        <time>2021-06-26T07:00:02Z</time>
      </trkpt>
      <trkpt lat="46.1584" lon="6.5261">
        <ele>1134.6</ele>
        <time>2021-06-26T07:00:03Z</time>
      </trkpt>
      <trkpt lat="46.15842" lon="6.52608">
        <ele>1134.8</ele>
        <time>2021-06-26T07:00:04Z</time>
      </trkpt>
      <trkpt lat="46.15844" lon="6.52605">
        <ele>1135</ele>
        <time>2021-06-26T07:00:05Z</time>
      </trkpt>
      <trkpt lat="46.15846" lon="6.52602">
        <ele>1135.2</ele>
        <time>2021-06-26T07:00:06Z</time>
      </trkpt>
      <trkpt lat="46.15848" lon="6.526">
        <ele>1135.4</ele>
        <time>2021-06-26T07:00:07Z</time>
      </trkpt>
      <trkpt lat="46.15849" lon="6.52597">
        <ele>1135.6</ele>
        <time>2021-06-26T07:00:08Z</time>
      </trkpt>
      <trkpt lat="46.15851" lon="6.52594">
        <ele>1135.8</ele>
        <time>2021-06-26T07:00:09Z</time>
      </trkpt>
      <trkpt lat="46.15853" lon="6.5259">
        <ele>1135.8</ele>
        <time>2021-06-26T07:00:10Z</time>
      </trkpt>
      <trkpt lat="46.15854" lon="6.52587">
        <ele>1136.4</ele>
        <time>2021-06-26T07:00:11Z</time>
      </trkpt>
      <trkpt lat="46.15856" lon="6.52584">
        <ele>1136.4</ele>
        <time>2021-06-26T07:00:12Z</time>
      </trkpt>
      <trkpt lat="46.15858" lon="6.52581">
        <ele>1136.8</ele>
        <time>2021-06-26T07:00:13Z</time>
      </trkpt>
      <trkpt lat="46.15859" lon="6.52578">
        <ele>1137.2</ele>
        <time>2021-06-26T07:00:14Z</time>
      </trkpt>
      <trkpt lat="46.15861" lon="6.52575">
        <ele>1137.2</ele>
        <time>2021-06-26T07:00:15Z</time>
      </trkpt>
      <trkpt lat="46.15863" lon="6.52572">
        <ele>1137.4</ele>
        <time>2021-06-26T07:00:16Z</time>
      </trkpt>
      <trkpt lat="46.15864" lon="6.52569">
        <ele>1137.6</ele>
        <time>2021-06-26T07:00:17Z</time>
      </trkpt>
      <trkpt lat="46.15866" lon="6.52566">
        <ele>1137.6</ele>
        <time>2021-06-26T07:00:18Z</time>
      </trkpt>
      <trkpt lat="46.15868" lon="6.52563">
        <ele>1137.8</ele>
        <time>2021-06-26T07:00:19Z</time>
      </trkpt>
      <trkpt lat="46.1587" lon="6.5256">
        <ele>1137.8</ele>
        <time>2021-06-26T07:00:20Z</time>
      </trkpt>
      <trkpt lat="46.15871" lon="6.52558">
        <ele>1138</ele>
        <time>2021-06-26T07:00:21Z</time>
      </trkpt>
      <trkpt lat="46.15873" lon="6.52555">
        <ele>1138.2</ele>
        <time>2021-06-26T07:00:22Z</time>
      </trkpt>
      <trkpt lat="46.15875" lon="6.52553">
        <ele>1138.4</ele>
        <time>2021-06-26T07:00:23Z</time>
      </trkpt>
      <trkpt lat="46.15877" lon="6.5255">
        <ele>1138.4</ele>
        <time>2021-06-26T07:00:24Z</time>
      </trkpt>
      <trkpt lat="46.15879" lon="6.52549">
        <ele>1138.6</ele>
        <time>2021-06-26T07:00:25Z</time>
      </trkpt>
      <trkpt lat="46.15881" lon="6.52547">
        <ele>1138.8</ele>
        <time>2021-06-26T07:00:26Z</time>
      </trkpt>
      <trkpt lat="46.15883" lon="6.52544">
        <ele>1139</ele>
        <time>2021-06-26T07:00:27Z</time>
      </trkpt>
      <trkpt lat="46.15885" lon="6.52543">
        <ele>1139.2</ele>
        <time>2021-06-26T07:00:28Z</time>
      </trkpt>
      <trkpt lat="46.15887" lon="6.52541">
        <ele>1139.4</ele>
        <time>2021-06-26T07:00:29Z</time>
      </trkpt>
      <trkpt lat="46.15889" lon="6.52539">
        <ele>1139.6</ele>
        <time>2021-06-26T07:00:30Z</time>
      </trkpt>
      <trkpt lat="46.15891" lon="6.52538">
        <ele>1139.8</ele>
        <time>2021-06-26T07:00:31Z</time>
      </trkpt>
      <trkpt lat="46.15893" lon="6.52537">
        <ele>1140.2</ele>
        <time>2021-06-26T07:00:32Z</time>
      </trkpt>
      <trkpt lat="46.15895" lon="6.52535">
        <ele>1140.4</ele>
        <time>2021-06-26T07:00:33Z</time>
      </trkpt>
      <trkpt lat="46.15897" lon="6.52534">
        <ele>1140.6</ele>
        <time>2021-06-26T07:00:34Z</time>
      </trkpt>
      <trkpt lat="46.15899" lon="6.52533">
        <ele>1140.8</ele>
        <time>2021-06-26T07:00:35Z</time>
      </trkpt>
      <trkpt lat="46.15901" lon="6.52531">
        <ele>1141.2</ele>
        <time>2021-06-26T07:00:36Z</time>
      </trkpt>
      <trkpt lat="46.15904" lon="6.5253">
        <ele>1141.4</ele>
        <time>2021-06-26T07:00:37Z</time>
      </trkpt>
      <trkpt lat="46.15906" lon="6.52528">
        <ele>1141.8</ele>
        <time>2021-06-26T07:00:38Z</time>
      </trkpt>
      <trkpt lat="46.15908" lon="6.52527">
        <ele>1142</ele>
        <time>2021-06-26T07:00:39Z</time>
      </trkpt>
      <trkpt lat="46.1591" lon="6.52525">
        <ele>1142.4</ele>
        <time>2021-06-26T07:00:40Z</time>
      </trkpt>
      <trkpt lat="46.15912" lon="6.52524">
        <ele>1142.4</ele>
        <time>2021-06-26T07:00:41Z</time>
      </trkpt>
      <trkpt lat="46.15915" lon="6.52522">
        <ele>1142.8</ele>
        <time>2021-06-26T07:00:42Z</time>
      </trkpt>
      <trkpt lat="46.15917" lon="6.5252">
        <ele>1142.8</ele>
        <time>2021-06-26T07:00:43Z</time>
      </trkpt>
      <trkpt lat="46.15919" lon="6.52518">
        <ele>1143</ele>
        <time>2021-06-26T07:00:44Z</time>
      </trkpt>
      <trkpt lat="46.15921" lon="6.52516">
        <ele>1143</ele>
        <time>2021-06-26T07:00:45Z</time>
      </trkpt>
      <trkpt lat="46.15923" lon="6.52514">
        <ele>1143.4</ele>
        <time>2021-06-26T07:00:46Z</time>
      </trkpt>
      <trkpt lat="46.15925" lon="6.52512">
        <ele>1143.6</ele>
        <time>2021-06-26T07:00:47Z</time>
      </trkpt>
      <trkpt lat="46.15927" lon="6.52512">
        <ele>1143.8</ele>
        <time>2021-06-26T07:00:48Z</time>
      </trkpt>
      <trkpt lat="46.1593" lon="6.52511">
        <ele>1144.2</ele>
        <time>2021-06-26T07:00:49Z</time>
      </trkpt>
      <trkpt lat="46.15932" lon="6.5251">
        <ele>1144.6</ele>
        <time>2021-06-26T07:00:50Z</time>
      </trkpt>
      <trkpt lat="46.15934" lon="6.52509">
        <ele>1144.8</ele>
        <time>2021-06-26T07:00:51Z</time>
      </trkpt>
      <trkpt lat="46.15936" lon="6.52507">
        <ele>1145.2</ele>
        <time>2021-06-26T07:00:52Z</time>
      </trkpt>
      <trkpt lat="46.15939" lon="6.52506">
        <ele>1145.4</ele>
        <time>2021-06-26T07:00:53Z</time>
      </trkpt>
      <trkpt lat="46.15941" lon="6.52504">
        <ele>1145.6</ele>
        <time>2021-06-26T07:00:54Z</time>
      </trkpt>
      <trkpt lat="46.15943" lon="6.52503">
        <ele>1145.8</ele>
        <time>2021-06-26T07:00:55Z</time>
      </trkpt>
      <trkpt lat="46.15945" lon="6.52501">
        <ele>1146.2</ele>
        <time>2021-06-26T07:00:56Z</time>
      </trkpt>
      <trkpt lat="46.15947" lon="6.52499">
        <ele>1146.4</ele>
        <time>2021-06-26T07:00:57Z</time>
      </trkpt>
      <trkpt lat="46.15949" lon="6.52497">
        <ele>1146.6</ele>
        <time>2021-06-26T07:00:58Z</time>
      </trkpt>
      <trkpt lat="46.15951" lon="6.52496">
        <ele>1146.8</ele>
        <time>2021-06-26T07:00:59Z</time>
      </trkpt>
      <trkpt lat="46.15953" lon="6.52495">
        <ele>1147</ele>
        <time>2021-06-26T07:01:00Z</time>
      </trkpt>
      <trkpt lat="46.15955" lon="6.52493">
        <ele>1147.4</ele>
        <time>2021-06-26T07:01:01Z</time>
      </trkpt>
      <trkpt lat="46.15957" lon="6.52492">
        <ele>1147.4</ele>
        <time>2021-06-26T07:01:02Z</time>
      </trkpt>
      <trkpt lat="46.15959" lon="6.5249">
        <ele>1147.8</ele>
        <time>2021-06-26T07:01:03Z</time>
      </trkpt>
      <trkpt lat="46.15962" lon="6.52489">
        <ele>1148.2</ele>
        <time>2021-06-26T07:01:04Z</time>
      </trkpt>
      <trkpt lat="46.15964" lon="6.52487">
        <ele>1148.4</ele>
        <time>2021-06-26T07:01:05Z</time>
      </trkpt>
      <trkpt lat="46.15966" lon="6.52485">
        <ele>1148.4</ele>
        <time>2021-06-26T07:01:06Z</time>
      </trkpt>
      <trkpt lat="46.15968" lon="6.52484">
        <ele>1148.4</ele>
        <time>2021-06-26T07:01:07Z</time>
      </trkpt>
      <trkpt lat="46.1597" lon="6.52482">
        <ele>1148.8</ele>
        <time>2021-06-26T07:01:08Z</time>
      </trkpt>
      <trkpt lat="46.15972" lon="6.52481">
        <ele>1149</ele>
        <time>2021-06-26T07:01:09Z</time>
      </trkpt>
      <trkpt lat="46.15974" lon="6.52479">
        <ele>1149.4</ele>
        <time>2021-06-26T07:01:10Z</time>
      </trkpt>
      <trkpt lat="46.15976" lon="6.52478">
        <ele>1149.4</ele>
        <time>2021-06-26T07:01:11Z</time>
      </trkpt>
      <trkpt lat="46.15978" lon="6.52477">
        <ele>1149.8</ele>
        <time>2021-06-26T07:01:12Z</time>
      </trkpt>
      <trkpt lat="46.1598" lon="6.52475">
        <ele>1150.2</ele>
        <time>2021-06-26T07:01:13Z</time>
      </trkpt>
      <trkpt lat="46.15982" lon="6.52473">
        <ele>1150.4</ele>
        <time>2021-06-26T07:01:14Z</time>
      </trkpt>
      <trkpt lat="46.15984" lon="6.52472">
        <ele>1150.6</ele>
        <time>2021-06-26T07:01:15Z</time>
      </trkpt>
      <trkpt lat="46.15986" lon="6.52469">
        <ele>1150.6</ele>
        <time>2021-06-26T07:01:16Z</time>
      </trkpt>
      <trkpt lat="46.15988" lon="6.52467">
        <ele>1150.8</ele>
        <time>2021-06-26T07:01:17Z</time>
      </trkpt>
      <trkpt lat="46.1599" lon="6.52465">
        <ele>1151</ele>
        <time>2021-06-26T07:01:18Z</time>
      </trkpt>
      <trkpt lat="46.15992" lon="6.52463">
        <ele>1151.4</ele>
        <time>2021-06-26T07:01:19Z</time>
      </trkpt>
      <trkpt lat="46.15995" lon="6.52462">
        <ele>1151.6</ele>
        <time>2021-06-26T07:01:20Z</time>
      </trkpt>
      <trkpt lat="46.15997" lon="6.5246">
        <ele>1151.8</ele>
        <time>2021-06-26T07:01:21Z</time>
      </trkpt>
      <trkpt lat="46.15999" lon="6.52459">
        <ele>1152</ele>
        <time>2021-06-26T07:01:22Z</time>
      </trkpt>
      <trkpt lat="46.16002" lon="6.52458">
        <ele>1152.2</ele>
        <time>2021-06-26T07:01:23Z</time>
      </trkpt>
      <trkpt lat="46.16004" lon="6.52457">
        <ele>1152.6</ele>
        <time>2021-06-26T07:01:24Z</time>
      </trkpt>
      <trkpt lat="46.16006" lon="6.52456">
        <ele>1152.8</ele>
        <time>2021-06-26T07:01:25Z</time>
      </trkpt>
      <trkpt lat="46.16008" lon="6.52455">
        <ele>1153</ele>
        <time>2021-06-26T07:01:26Z</time>
      </trkpt>
      <trkpt lat="46.16011" lon="6.52454">
        <ele>1153.2</ele>
        <time>2021-06-26T07:01:27Z</time>
      </trkpt>
      <trkpt lat="46.16013" lon="6.52452">
        <ele>1153.2</ele>
        <time>2021-06-26T07:01:28Z</time>
      </trkpt>
      <trkpt lat="46.16014" lon="6.52449">
        <ele>1153.6</ele>
        <time>2021-06-26T07:01:29Z</time>
      </trkpt>
      <trkpt lat="46.16016" lon="6.52447">
        <ele>1153.8</ele>
        <time>2021-06-26T07:01:30Z</time>
      </trkpt>
      <trkpt lat="46.16017" lon="6.52445">
        <ele>1153.8</ele>
        <time>2021-06-26T07:01:31Z</time>
      </trkpt>
      <trkpt lat="46.16019" lon="6.52443">
        <ele>1154.2</ele>
        <time>2021-06-26T07:01:32Z</time>
      </trkpt>
      <trkpt lat="46.16021" lon="6.5244">
        <ele>1154.8</ele>
        <time>2021-06-26T07:01:33Z</time>
      </trkpt>
      <trkpt lat="46.16022" lon="6.52437">
        <ele>1154.8</ele>
        <time>2021-06-26T07:01:34Z</time>
      </trkpt>
      <trkpt lat="46.16023" lon="6.52435">
        <ele>1155</ele>
        <time>2021-06-26T07:01:35Z</time>
      </trkpt>
      <trkpt lat="46.16025" lon="6.52432">
        <ele>1155.2</ele>
        <time>2021-06-26T07:01:36Z</time>
      </trkpt>
      <trkpt lat="46.16027" lon="6.5243">
        <ele>1155.8</ele>
        <time>2021-06-26T07:01:37Z</time>
      </trkpt>
      <trkpt lat="46.16028" lon="6.52427">
        <ele>1156.2</ele>
        <time>2021-06-26T07:01:38Z</time>
      </trkpt>
      <trkpt lat="46.16029" lon="6.52424">
        <ele>1156.4</ele>
        <time>2021-06-26T07:01:39Z</time>
      </trkpt>
      <trkpt lat="46.1603" lon="6.52421">
        <ele>1156.6</ele>
        <time>2021-06-26T07:01:40Z</time>
      </trkpt>
      <trkpt lat="46.16031" lon="6.52418">
        <ele>1157</ele>
        <time>2021-06-26T07:01:41Z</time>
      </trkpt>
      <trkpt lat="46.16032" lon="6.52415">
        <ele>1157.2</ele>
        <time>2021-06-26T07:01:42Z</time>
      </trkpt>
      <trkpt lat="46.16033" lon="6.52412">
        <ele>1157.2</ele>
        <time>2021-06-26T07:01:43Z</time>
      </trkpt>
      <trkpt lat="46.16034" lon="6.52408">
        <ele>1157.6</ele>
        <time>2021-06-26T07:01:44Z</time>
      </trkpt>
      <trkpt lat="46.16034" lon="6.52405">
        <ele>1157.6</ele>
        <time>2021-06-26T07:01:45Z</time>
      </trkpt>
      <trkpt lat="46.16034" lon="6.52402">
        <ele>1157.8</ele>
        <time>2021-06-26T07:01:46Z</time>
      </trkpt>
      <trkpt lat="46.16034" lon="6.52399">
        <ele>1158.2</ele>
        <time>2021-06-26T07:01:47Z</time>
      </trkpt>
      <trkpt lat="46.16034" lon="6.52395">
        <ele>1158.4</ele>
        <time>2021-06-26T07:01:48Z</time>
      </trkpt>
      <trkpt lat="46.16035" lon="6.52392">
        <ele>1158.8</ele>
        <time>2021-06-26T07:01:49Z</time>
      </trkpt>
      <trkpt lat="46.16035" lon="6.52389">
        <ele>1158.8</ele>
        <time>2021-06-26T07:01:50Z</time>
      </trkpt>
      <trkpt lat="46.16035" lon="6.52386">
        <ele>1159.2</ele>
        <time>2021-06-26T07:01:51Z</time>
      </trkpt>
      <trkpt lat="46.16035" lon="6.52384">
        <ele>1159.2</ele>
        <time>2021-06-26T07:01:52Z</time>
      </trkpt>
      <trkpt lat="46.16034" lon="6.52382">
        <ele>1159.4</ele>
        <time>2021-06-26T07:01:53Z</time>
      </trkpt>
      <trkpt lat="46.16034" lon="6.52379">
        <ele>1159.8</ele>
        <time>2021-06-26T07:01:54Z</time>
      </trkpt>
      <trkpt lat="46.16033" lon="6.52376">
        <ele>1159.8</ele>
        <time>2021-06-26T07:01:55Z</time>
      </trkpt>
      <trkpt lat="46.16032" lon="6.52374">
        <ele>1160.2</ele>
        <time>2021-06-26T07:01:56Z</time>
      </trkpt>
      <trkpt lat="46.1603" lon="6.52371">
        <ele>1160.2</ele>
        <time>2021-06-26T07:01:57Z</time>
      </trkpt>
      <trkpt lat="46.16029" lon="6.52368">
        <ele>1160.4</ele>
        <time>2021-06-26T07:01:58Z</time>
      </trkpt>
      <trkpt lat="46.16027" lon="6.52365">
        <ele>1160.6</ele>
        <time>2021-06-26T07:01:59Z</time>
      </trkpt>
      <trkpt lat="46.16026" lon="6.52363">
        <ele>1161</ele>
        <time>2021-06-26T07:02:00Z</time>
      </trkpt>
      <trkpt lat="46.16024" lon="6.5236">
        <ele>1161</ele>
        <time>2021-06-26T07:02:01Z</time>
      </trkpt>
      <trkpt lat="46.16023" lon="6.52357">
        <ele>1161.2</ele>
        <time>2021-06-26T07:02:02Z</time>
      </trkpt>
      <trkpt lat="46.16022" lon="6.52354">
        <ele>1161.2</ele>
        <time>2021-06-26T07:02:03Z</time>
      </trkpt>
      <trkpt lat="46.16022" lon="6.52351">
        <ele>1161.4</ele>
        <time>2021-06-26T07:02:04Z</time>
      </trkpt>
      <trkpt lat="46.16021" lon="6.52348">
        <ele>1161.6</ele>
        <time>2021-06-26T07:02:05Z</time>
      </trkpt>
      <trkpt lat="46.1602" lon="6.52345">
        <ele>1161.6</ele>
        <time>2021-06-26T07:02:06Z</time>
      </trkpt>
      <trkpt lat="46.16019" lon="6.52341">
        <ele>1161.8</ele>
        <time>2021-06-26T07:02:07Z</time>
      </trkpt>
      <trkpt lat="46.16018" lon="6.52338">
        <ele>1162</ele>
        <time>2021-06-26T07:02:08Z</time>
      </trkpt>
      <trkpt lat="46.16018" lon="6.52336">
        <ele>1162.2</ele>
        <time>2021-06-26T07:02:09Z</time>
      </trkpt>
      <trkpt lat="46.16017" lon="6.52333">
        <ele>1162.4</ele>
        <time>2021-06-26T07:02:10Z</time>
      </trkpt>
      <trkpt lat="46.16016" lon="6.5233">
        <ele>1162.8</ele>
        <time>2021-06-26T07:02:11Z</time>
      </trkpt>
      <trkpt lat="46.16015" lon="6.52327">
        <ele>1163.2</ele>
        <time>2021-06-26T07:02:12Z</time>
      </trkpt>
      <trkpt lat="46.16015" lon="6.52324">
        <ele>1163.2</ele>
        <time>2021-06-26T07:02:13Z</time>
      </trkpt>
      <trkpt lat="46.16014" lon="6.5232">
        <ele>1163.2</ele>
        <time>2021-06-26T07:02:14Z</time>
      </trkpt>
      <trkpt lat="46.16015" lon="6.52316">
        <ele>1163.4</ele>
        <time>2021-06-26T07:02:15Z</time>
      </trkpt>
      <trkpt lat="46.16017" lon="6.52311">
        <ele>1163.6</ele>
        <time>2021-06-26T07:02:16Z</time>
      </trkpt>
      <trkpt lat="46.16019" lon="6.52307">
        <ele>1164</ele>
        <time>2021-06-26T07:02:17Z</time>
      </trkpt>
      <trkpt lat="46.16019" lon="6.52303">
        <ele>1164</ele>
        <time>2021-06-26T07:02:18Z</time>
      </trkpt>
      <trkpt lat="46.1602" lon="6.52299">
        <ele>1164.4</ele>
        <time>2021-06-26T07:02:19Z</time>
      </trkpt>
      <trkpt lat="46.1602" lon="6.52295">
        <ele>1164.6</ele>
        <time>2021-06-26T07:02:20Z</time>
      </trkpt>
      <trkpt lat="46.1602" lon="6.52291">
        <ele>1164.8</ele>
        <time>2021-06-26T07:02:21Z</time>
      </trkpt>
      <trkpt lat="46.16022" lon="6.52286">
        <ele>1165.2</ele>
        <time>2021-06-26T07:02:22Z</time>
      </trkpt>
      <trkpt lat="46.16024" lon="6.52282">
        <ele>1165.4</ele>
        <time>2021-06-26T07:02:23Z</time>
      </trkpt>
      <trkpt lat="46.16026" lon="6.52277">
        <ele>1165.6</ele>
        <time>2021-06-26T07:02:24Z</time>
      </trkpt>
      <trkpt lat="46.16027" lon="6.52272">
        <ele>1166</ele>
        <time>2021-06-26T07:02:25Z</time>
      </trkpt>
      <trkpt lat="46.16029" lon="6.52269">
        <ele>1166</ele>
        <time>2021-06-26T07:02:26Z</time>
      </trkpt>
      <trkpt lat="46.1603" lon="6.52264">
        <ele>1166.2</ele>
        <time>2021-06-26T07:02:27Z</time>
      </trkpt>
      <trkpt lat="46.16032" lon="6.52261">
        <ele>1166.6</ele>
        <time>2021-06-26T07:02:28Z</time>
      </trkpt>
      <trkpt lat="46.16034" lon="6.52258">
        <ele>1166.8</ele>
        <time>2021-06-26T07:02:29Z</time>
      </trkpt>
      <trkpt lat="46.16035" lon="6.52255">
        <ele>1167</ele>
        <time>2021-06-26T07:02:30Z</time>
      </trkpt>
      <trkpt lat="46.16037" lon="6.52253">
        <ele>1167.4</ele>
        <time>2021-06-26T07:02:31Z</time>
      </trkpt>
      <trkpt lat="46.16039" lon="6.52251">
        <ele>1167.4</ele>
        <time>2021-06-26T07:02:32Z</time>
      </trkpt>
      <trkpt lat="46.16041" lon="6.52251">
        <ele>1167.6</ele>
        <time>2021-06-26T07:02:33Z</time>
      </trkpt>
      <trkpt lat="46.16044" lon="6.52251">
        <ele>1167.6</ele>
        <time>2021-06-26T07:02:34Z</time>
      </trkpt>
      <trkpt lat="46.16045" lon="6.52252">
        <ele>1167.6</ele>
        <time>2021-06-26T07:02:35Z</time>
      </trkpt>
      <trkpt lat="46.16047" lon="6.52254">
        <ele>1167.8</ele>
        <time>2021-06-26T07:02:36Z</time>
      </trkpt>
      <trkpt lat="46.16049" lon="6.52256">
        <ele>1168</ele>
        <time>2021-06-26T07:02:37Z</time>
      </trkpt>
      <trkpt lat="46.1605" lon="6.52258">
        <ele>1168.2</ele>
        <time>2021-06-26T07:02:38Z</time>
      </trkpt>
      <trkpt lat="46.16052" lon="6.5226">
        <ele>1168.2</ele>
        <time>2021-06-26T07:02:39Z</time>
      </trkpt>
      <trkpt lat="46.16053" lon="6.52263">
        <ele>1168.4</ele>
        <time>2021-06-26T07:02:40Z</time>
      </trkpt>
      <trkpt lat="46.16053" lon="6.52266">
        <ele>1168.6</ele>
        <time>2021-06-26T07:02:41Z</time>
      </trkpt>
      <trkpt lat="46.16053" lon="6.52269">
        <ele>1169</ele>
        <time>2021-06-26T07:02:42Z</time>
      </trkpt>
      <trkpt lat="46.16053" lon="6.52272">
        <ele>1169.4</ele>
        <time>2021-06-26T07:02:43Z</time>
      </trkpt>
      <trkpt lat="46.16053" lon="6.52275">
        <ele>1169.6</ele>
        <time>2021-06-26T07:02:44Z</time>
      </trkpt>
      <trkpt lat="46.16053" lon="6.52279">
        <ele>1169.8</ele>
        <time>2021-06-26T07:02:45Z</time>
      </trkpt>
      <trkpt lat="46.16053" lon="6.52283">
        <ele>1170.2</ele>
        <time>2021-06-26T07:02:46Z</time>
      </trkpt>
      <trkpt lat="46.16052" lon="6.52285">
        <ele>1170.4</ele>
        <time>2021-06-26T07:02:47Z</time>
      </trkpt>
      <trkpt lat="46.16053" lon="6.52289">
        <ele>1170.8</ele>
        <time>2021-06-26T07:02:48Z</time>
      </trkpt>
      <trkpt lat="46.16053" lon="6.52292">
        <ele>1171</ele>
        <time>2021-06-26T07:02:49Z</time>
      </trkpt>
      <trkpt lat="46.16053" lon="6.52295">
        <ele>1171.2</ele>
        <time>2021-06-26T07:02:50Z</time>
      </trkpt>
      <trkpt lat="46.16053" lon="6.52298">
        <ele>1171.4</ele>
        <time>2021-06-26T07:02:51Z</time>
      </trkpt>
      <trkpt lat="46.16054" lon="6.52301">
        <ele>1171.6</ele>
        <time>2021-06-26T07:02:52Z</time>
      </trkpt>
      <trkpt lat="46.16054" lon="6.52304">
        <ele>1172</ele>
        <time>2021-06-26T07:02:53Z</time>
      </trkpt>
      <trkpt lat="46.16055" lon="6.52307">
        <ele>1172.2</ele>
        <time>2021-06-26T07:02:54Z</time>
      </trkpt>
      <trkpt lat="46.16056" lon="6.52311">
        <ele>1172.4</ele>
        <time>2021-06-26T07:02:55Z</time>
      </trkpt>
      <trkpt lat="46.16057" lon="6.52314">
        <ele>1172.6</ele>
        <time>2021-06-26T07:02:56Z</time>
      </trkpt>
      <trkpt lat="46.16058" lon="6.52317">
        <ele>1172.8</ele>
        <time>2021-06-26T07:02:57Z</time>
      </trkpt>
      <trkpt lat="46.16059" lon="6.5232">
        <ele>1172.8</ele>
        <time>2021-06-26T07:02:58Z</time>
      </trkpt>
      <trkpt lat="46.1606" lon="6.52324">
        <ele>1173</ele>
        <time>2021-06-26T07:02:59Z</time>
      </trkpt>
      <trkpt lat="46.16061" lon="6.52327">
        <ele>1173.2</ele>
        <time>2021-06-26T07:03:00Z</time>
      </trkpt>
      <trkpt lat="46.16062" lon="6.52331">
        <ele>1173.4</ele>
        <time>2021-06-26T07:03:01Z</time>
      </trkpt>
      <trkpt lat="46.16062" lon="6.52334">
        <ele>1173.8</ele>
        <time>2021-06-26T07:03:02Z</time>
      </trkpt>
      <trkpt lat="46.16063" lon="6.52337">
        <ele>1174</ele>
        <time>2021-06-26T07:03:03Z</time>
      </trkpt>
      <trkpt lat="46.16063" lon="6.5234">
        <ele>1174.4</ele>
        <time>2021-06-26T07:03:04Z</time>
      </trkpt>
      <trkpt lat="46.16063" lon="6.52343">
        <ele>1174.6</ele>
        <time>2021-06-26T07:03:05Z</time>
      </trkpt>
      <trkpt lat="46.16063" lon="6.52347">
        <ele>1174.8</ele>
        <time>2021-06-26T07:03:06Z</time>
      </trkpt>
      <trkpt lat="46.16063" lon="6.5235">
        <ele>1175</ele>
        <time>2021-06-26T07:03:07Z</time>
      </trkpt>
      <trkpt lat="46.16064" lon="6.52354">
        <ele>1175.2</ele>
        <time>2021-06-26T07:03:08Z</time>
      </trkpt>
      <trkpt lat="46.16064" lon="6.52357">
        <ele>1175.6</ele>
        <time>2021-06-26T07:03:09Z</time>
      </trkpt>
      <trkpt lat="46.16064" lon="6.52361">
        <ele>1175.8</ele>
        <time>2021-06-26T07:03:10Z</time>
      </trkpt>
      <trkpt lat="46.16064" lon="6.52364">
        <ele>1176</ele>
        <time>2021-06-26T07:03:11Z</time>
      </trkpt>
      <trkpt lat="46.16064" lon="6.52367">
        <ele>1176.2</ele>
        <time>2021-06-26T07:03:12Z</time>
      </trkpt>
      <trkpt lat="46.16064" lon="6.52371">
        <ele>1176.4</ele>
        <time>2021-06-26T07:03:13Z</time>
      </trkpt>
      <trkpt lat="46.16064" lon="6.52374">
        <ele>1176.8</ele>
        <time>2021-06-26T07:03:14Z</time>
      </trkpt>
      <trkpt lat="46.16064" lon="6.52378">
        <ele>1177</ele>
        <time>2021-06-26T07:03:15Z</time>
      </trkpt>
      <trkpt lat="46.16064" lon="6.52381">
        <ele>1177.2</ele>
        <time>2021-06-26T07:03:16Z</time>
      </trkpt>
      <trkpt lat="46.16064" lon="6.52385">
        <ele>1177.4</ele>
        <time>2021-06-26T07:03:17Z</time>
      </trkpt>
      <trkpt lat="46.16064" lon="6.52388">
        <ele>1177.8</ele>
        <time>2021-06-26T07:03:18Z</time>
      </trkpt>
      <trkpt lat="46.16064" lon="6.52391">
        <ele>1178.2</ele>
        <time>2021-06-26T07:03:19Z</time>
      </trkpt>
      <trkpt lat="46.16064" lon="6.52394">
        <ele>1178.2</ele>
        <time>2021-06-26T07:03:20Z</time>
      </trkpt>
      <trkpt lat="46.16064" lon="6.52398">
        <ele>1178.4</ele>
        <time>2021-06-26T07:03:21Z</time>
      </trkpt>
      <trkpt lat="46.16064" lon="6.52401">
        <ele>1178.6</ele>
        <time>2021-06-26T07:03:22Z</time>
      </trkpt>
      <trkpt lat="46.16064" lon="6.52404">
        <ele>1178.8</ele>
        <time>2021-06-26T07:03:23Z</time>
      </trkpt>
      <trkpt lat="46.16064" lon="6.52407">
        <ele>1179.2</ele>
        <time>2021-06-26T07:03:24Z</time>
      </trkpt>
      <trkpt lat="46.16064" lon="6.5241">
        <ele>1179.2</ele>
        <time>2021-06-26T07:03:25Z</time>
      </trkpt>
      <trkpt lat="46.16064" lon="6.52414">
        <ele>1179.6</ele>
        <time>2021-06-26T07:03:26Z</time>
      </trkpt>
      <trkpt lat="46.16064" lon="6.52417">
        <ele>1179.6</ele>
        <time>2021-06-26T07:03:27Z</time>
      </trkpt>
      <trkpt lat="46.16064" lon="6.52421">
        <ele>1180</ele>
        <time>2021-06-26T07:03:28Z</time>
      </trkpt>
      <trkpt lat="46.16064" lon="6.52424">
        <ele>1180.4</ele>
        <time>2021-06-26T07:03:29Z</time>
      </trkpt>
      <trkpt lat="46.16065" lon="6.52427">
        <ele>1180.6</ele>
        <time>2021-06-26T07:03:30Z</time>
      </trkpt>
      <trkpt lat="46.16065" lon="6.52431">
        <ele>1180.8</ele>
        <time>2021-06-26T07:03:31Z</time>
      </trkpt>
      <trkpt lat="46.16064" lon="6.52434">
        <ele>1181.2</ele>
        <time>2021-06-26T07:03:32Z</time>
      </trkpt>
      <trkpt lat="46.16064" lon="6.52437">
        <ele>1181.4</ele>
        <time>2021-06-26T07:03:33Z</time>
      </trkpt>
      <trkpt lat="46.16064" lon="6.52441">
        <ele>1181.6</ele>
        <time>2021-06-26T07:03:34Z</time>
      </trkpt>
      <trkpt lat="46.16064" lon="6.52444">
        <ele>1181.8</ele>
        <time>2021-06-26T07:03:35Z</time>
      </trkpt>
      <trkpt lat="46.16064" lon="6.52447">
        <ele>1182</ele>
        <time>2021-06-26T07:03:36Z</time>
      </trkpt>
      <trkpt lat="46.16064" lon="6.52451">
        <ele>1182.4</ele>
        <time>2021-06-26T07:03:37Z</time>
      </trkpt>
      <trkpt lat="46.16064" lon="6.52454">
        <ele>1182.6</ele>
        <time>2021-06-26T07:03:38Z</time>
      </trkpt>
      <trkpt lat="46.16064" lon="6.52457">
        <ele>1183</ele>
        <time>2021-06-26T07:03:39Z</time>
      </trkpt>
      <trkpt lat="46.16064" lon="6.52461">
        <ele>1183.2</ele>
        <time>2021-06-26T07:03:40Z</time>
      </trkpt>
      <trkpt lat="46.16063" lon="6.52464">
        <ele>1183.4</ele>
        <time>2021-06-26T07:03:41Z</time>
      </trkpt>
      <trkpt lat="46.16063" lon="6.52467">
        <ele>1183.4</ele>
        <time>2021-06-26T07:03:42Z</time>
      </trkpt>
      <trkpt lat="46.16063" lon="6.52471">
        <ele>1183.8</ele>
        <time>2021-06-26T07:03:43Z</time>
      </trkpt>
      <trkpt lat="46.16063" lon="6.52474">
        <ele>1184</ele>
        <time>2021-06-26T07:03:44Z</time>
      </trkpt>
      <trkpt lat="46.16063" lon="6.52477">
        <ele>1184.2</ele>
        <time>2021-06-26T07:03:45Z</time>
      </trkpt>
      <trkpt lat="46.16062" lon="6.5248">
        <ele>1184.6</ele>
        <time>2021-06-26T07:03:46Z</time>
      </trkpt>
      <trkpt lat="46.16062" lon="6.52484">
        <ele>1184.8</ele>
        <time>2021-06-26T07:03:47Z</time>
      </trkpt>
      <trkpt lat="46.16062" lon="6.52487">
        <ele>1185.2</ele>
        <time>2021-06-26T07:03:48Z</time>
      </trkpt>
      <trkpt lat="46.16061" lon="6.5249">
        <ele>1185.2</ele>
        <time>2021-06-26T07:03:49Z</time>
      </trkpt>
      <trkpt lat="46.16061" lon="6.52493">
        <ele>1185.4</ele>
        <time>2021-06-26T07:03:50Z</time>
      </trkpt>
      <trkpt lat="46.16061" lon="6.52496">
        <ele>1185.6</ele>
        <time>2021-06-26T07:03:51Z</time>
      </trkpt>
      <trkpt lat="46.1606" lon="6.52499">
        <ele>1186</ele>
        <time>2021-06-26T07:03:52Z</time>
      </trkpt>
      <trkpt lat="46.1606" lon="6.52502">
        <ele>1186</ele>
        <time>2021-06-26T07:03:53Z</time>
      </trkpt>
      <trkpt lat="46.16059" lon="6.52505">
        <ele>1186.2</ele>
        <time>2021-06-26T07:03:54Z</time>
      </trkpt>
      <trkpt lat="46.16058" lon="6.52509">
        <ele>1186.4</ele>
        <time>2021-06-26T07:03:55Z</time>
      </trkpt>
      <trkpt lat="46.16057" lon="6.52512">
        <ele>1186.6</ele>
        <time>2021-06-26T07:03:56Z</time>
      </trkpt>
      <trkpt lat="46.16057" lon="6.52515">
        <ele>1187</ele>
        <time>2021-06-26T07:03:57Z</time>
      </trkpt>
      <trkpt lat="46.16056" lon="6.52518">
        <ele>1187</ele>
        <time>2021-06-26T07:03:58Z</time>
      </trkpt>
      <trkpt lat="46.16056" lon="6.52521">
        <ele>1187.4</ele>
        <time>2021-06-26T07:03:59Z</time>
      </trkpt>
      <trkpt lat="46.16055" lon="6.52524">
        <ele>1187.6</ele>
        <time>2021-06-26T07:04:00Z</time>
      </trkpt>
      <trkpt lat="46.16054" lon="6.52526">
        <ele>1187.8</ele>
        <time>2021-06-26T07:04:01Z</time>
      </trkpt>
      <trkpt lat="46.16053" lon="6.52529">
        <ele>1188</ele>
        <time>2021-06-26T07:04:02Z</time>
      </trkpt>
      <trkpt lat="46.16052" lon="6.52532">
        <ele>1188.2</ele>
        <time>2021-06-26T07:04:03Z</time>
      </trkpt>
      <trkpt lat="46.16051" lon="6.52535">
        <ele>1188.2</ele>
        <time>2021-06-26T07:04:04Z</time>
      </trkpt>
      <trkpt lat="46.16051" lon="6.52538">
        <ele>1188.4</ele>
        <time>2021-06-26T07:04:05Z</time>
      </trkpt>
      <trkpt lat="46.16049" lon="6.5254">
        <ele>1188.6</ele>
        <time>2021-06-26T07:04:06Z</time>
      </trkpt>
      <trkpt lat="46.16049" lon="6.52542">
        <ele>1189</ele>
        <time>2021-06-26T07:04:07Z</time>
      </trkpt>
      <trkpt lat="46.16048" lon="6.52545">
        <ele>1189.4</ele>
        <time>2021-06-26T07:04:08Z</time>
      </trkpt>
      <trkpt lat="46.16047" lon="6.52547">
        <ele>1189.6</ele>
        <time>2021-06-26T07:04:09Z</time>
      </trkpt>
      <trkpt lat="46.16047" lon="6.5255">
        <ele>1189.6</ele>
        <time>2021-06-26T07:04:10Z</time>
      </trkpt>
      <trkpt lat="46.16046" lon="6.52552">
        <ele>1190</ele>
        <time>2021-06-26T07:04:11Z</time>
      </trkpt>
      <trkpt lat="46.16045" lon="6.52555">
        <ele>1190.2</ele>
        <time>2021-06-26T07:04:12Z</time>
      </trkpt>
      <trkpt lat="46.16044" lon="6.52557">
        <ele>1190.8</ele>
        <time>2021-06-26T07:04:13Z</time>
      </trkpt>
      <trkpt lat="46.16043" lon="6.5256">
        <ele>1191</ele>
        <time>2021-06-26T07:04:14Z</time>
      </trkpt>
      <trkpt lat="46.16042" lon="6.52562">
        <ele>1191.2</ele>
        <time>2021-06-26T07:04:15Z</time>
      </trkpt>
      <trkpt lat="46.16041" lon="6.52565">
        <ele>1191.6</ele>
        <time>2021-06-26T07:04:16Z</time>
      </trkpt>
      <trkpt lat="46.16041" lon="6.52568">
        <ele>1192</ele>
        <time>2021-06-26T07:04:17Z</time>
      </trkpt>
      <trkpt lat="46.1604" lon="6.52571">
        <ele>1192</ele>
        <time>2021-06-26T07:04:18Z</time>
      </trkpt>
      <trkpt lat="46.16039" lon="6.52574">
        <ele>1192.4</ele>
        <time>2021-06-26T07:04:19Z</time>
      </trkpt>
      <trkpt lat="46.16038" lon="6.52577">
        <ele>1192.6</ele>
        <time>2021-06-26T07:04:20Z</time>
      </trkpt>
      <trkpt lat="46.16037" lon="6.5258">
        <ele>1193</ele>
        <time>2021-06-26T07:04:21Z</time>
      </trkpt>
      <trkpt lat="46.16036" lon="6.52583">
        <ele>1193</ele>
        <time>2021-06-26T07:04:22Z</time>
      </trkpt>
      <trkpt lat="46.16035" lon="6.52585">
        <ele>1193.4</ele>
        <time>2021-06-26T07:04:23Z</time>
      </trkpt>
      <trkpt lat="46.16033" lon="6.52588">
        <ele>1193.6</ele>
        <time>2021-06-26T07:04:24Z</time>
      </trkpt>
      <trkpt lat="46.16032" lon="6.52591">
        <ele>1194</ele>
        <time>2021-06-26T07:04:25Z</time>
      </trkpt>
      <trkpt lat="46.16031" lon="6.52593">
        <ele>1194</ele>
        <time>2021-06-26T07:04:26Z</time>
      </trkpt>
      <trkpt lat="46.1603" lon="6.52596">
        <ele>1194.4</ele>
        <time>2021-06-26T07:04:27Z</time>
      </trkpt>
      <trkpt lat="46.16029" lon="6.52599">
        <ele>1194.6</ele>
        <time>2021-06-26T07:04:28Z</time>
      </trkpt>
      <trkpt lat="46.16028" lon="6.52602">
        <ele>1194.8</ele>
        <time>2021-06-26T07:04:29Z</time>
      </trkpt>
      <trkpt lat="46.16027" lon="6.52604">
        <ele>1195.2</ele>
        <time>2021-06-26T07:04:30Z</time>
      </trkpt>
      <trkpt lat="46.16025" lon="6.52607">
        <ele>1195.2</ele>
        <time>2021-06-26T07:04:31Z</time>
      </trkpt>
      <trkpt lat="46.16024" lon="6.52609">
        <ele>1195.6</ele>
        <time>2021-06-26T07:04:32Z</time>
      </trkpt>
      <trkpt lat="46.16023" lon="6.52612">
        <ele>1195.8</ele>
        <time>2021-06-26T07:04:33Z</time>
      </trkpt>
      <trkpt lat="46.16022" lon="6.52614">
        <ele>1196</ele>
        <time>2021-06-26T07:04:34Z</time>
      </trkpt>
      <trkpt lat="46.16021" lon="6.52617">
        <ele>1196.2</ele>
        <time>2021-06-26T07:04:35Z</time>
      </trkpt>
      <trkpt lat="46.1602" lon="6.5262">
        <ele>1196.4</ele>
        <time>2021-06-26T07:04:36Z</time>
      </trkpt>
      <trkpt lat="46.16019" lon="6.52622">
        <ele>1196.8</ele>
        <time>2021-06-26T07:04:37Z</time>
      </trkpt>
      <trkpt lat="46.16018" lon="6.52624">
        <ele>1197</ele>
        <time>2021-06-26T07:04:38Z</time>
      </trkpt>
      <trkpt lat="46.16017" lon="6.52626">
        <ele>1197</ele>
        <time>2021-06-26T07:04:39Z</time>
      </trkpt>
      <trkpt lat="46.16016" lon="6.52629">
        <ele>1197.6</ele>
        <time>2021-06-26T07:04:40Z</time>
      </trkpt>
      <trkpt lat="46.16015" lon="6.52632">
        <ele>1197.8</ele>
        <time>2021-06-26T07:04:41Z</time>
      </trkpt>
      <trkpt lat="46.16015" lon="6.52634">
        <ele>1198</ele>
        <time>2021-06-26T07:04:42Z</time>
      </trkpt>
      <trkpt lat="46.16014" lon="6.52637">
        <ele>1198</ele>
        <time>2021-06-26T07:04:43Z</time>
      </trkpt>
      <trkpt lat="46.16012" lon="6.52639">
        <ele>1198.2</ele>
        <time>2021-06-26T07:04:44Z</time>
      </trkpt>
      <trkpt lat="46.16012" lon="6.52642">
        <ele>1198.6</ele>
        <time>2021-06-26T07:04:45Z</time>
      </trkpt>
      <trkpt lat="46.16011" lon="6.52644">
        <ele>1199</ele>
        <time>2021-06-26T07:04:46Z</time>
      </trkpt>
      <trkpt lat="46.1601" lon="6.52647">
        <ele>1199.2</ele>
        <time>2021-06-26T07:04:47Z</time>
      </trkpt>
      <trkpt lat="46.16009" lon="6.52649">
        <ele>1199.2</ele>
        <time>2021-06-26T07:04:48Z</time>
      </trkpt>
      <trkpt lat="46.16008" lon="6.52652">
        <ele>1199.4</ele>
        <time>2021-06-26T07:04:49Z</time>
      </trkpt>
      <trkpt lat="46.16007" lon="6.52655">
        <ele>1199.6</ele>
        <time>2021-06-26T07:04:50Z</time>
      </trkpt>
      <trkpt lat="46.16006" lon="6.52658">
        <ele>1199.8</ele>
        <time>2021-06-26T07:04:51Z</time>
      </trkpt>
      <trkpt lat="46.16005" lon="6.52662">
        <ele>1200</ele>
        <time>2021-06-26T07:04:52Z</time>
      </trkpt>
      <trkpt lat="46.16004" lon="6.52664">
        <ele>1200.4</ele>
        <time>2021-06-26T07:04:53Z</time>
      </trkpt>
      <trkpt lat="46.16004" lon="6.52668">
        <ele>1200.6</ele>
        <time>2021-06-26T07:04:54Z</time>
      </trkpt>
      <trkpt lat="46.16003" lon="6.52672">
        <ele>1200.8</ele>
        <time>2021-06-26T07:04:55Z</time>
      </trkpt>
      <trkpt lat="46.16003" lon="6.52675">
        <ele>1201</ele>
        <time>2021-06-26T07:04:56Z</time>
      </trkpt>
      <trkpt lat="46.16002" lon="6.52679">
        <ele>1201.2</ele>
        <time>2021-06-26T07:04:57Z</time>
      </trkpt>
      <trkpt lat="46.16001" lon="6.52683">
        <ele>1201.4</ele>
        <time>2021-06-26T07:04:58Z</time>
      </trkpt>
      <trkpt lat="46.16001" lon="6.52686">
        <ele>1201.6</ele>
        <time>2021-06-26T07:04:59Z</time>
      </trkpt>
      <trkpt lat="46.16" lon="6.52689">
        <ele>1202</ele>
        <time>2021-06-26T07:05:00Z</time>
      </trkpt>
      <trkpt lat="46.15999" lon="6.52692">
        <ele>1202.2</ele>
        <time>2021-06-26T07:05:01Z</time>
      </trkpt>
      <trkpt lat="46.15998" lon="6.52695">
        <ele>1202.6</ele>
        <time>2021-06-26T07:05:02Z</time>
      </trkpt>
      <trkpt lat="46.15996" lon="6.52699">
        <ele>1202.6</ele>
        <time>2021-06-26T07:05:03Z</time>
      </trkpt>
      <trkpt lat="46.15995" lon="6.52702">
        <ele>1202.8</ele>
        <time>2021-06-26T07:05:04Z</time>
      </trkpt>
      <trkpt lat="46.15995" lon="6.52706">
        <ele>1203</ele>
        <time>2021-06-26T07:05:05Z</time>
      </trkpt>
      <trkpt lat="46.15995" lon="6.52709">
        <ele>1203.2</ele>
        <time>2021-06-26T07:05:06Z</time>
      </trkpt>
      <trkpt lat="46.15994" lon="6.52712">
        <ele>1203.6</ele>
        <time>2021-06-26T07:05:07Z</time>
      </trkpt>
      <trkpt lat="46.15994" lon="6.52716">
        <ele>1203.6</ele>
        <time>2021-06-26T07:05:08Z</time>
      </trkpt>
      <trkpt lat="46.15993" lon="6.52719">
        <ele>1204</ele>
        <time>2021-06-26T07:05:09Z</time>
      </trkpt>
      <trkpt lat="46.15993" lon="6.52722">
        <ele>1204</ele>
        <time>2021-06-26T07:05:10Z</time>
      </trkpt>
      <trkpt lat="46.15993" lon="6.52726">
        <ele>1204.2</ele>
        <time>2021-06-26T07:05:11Z</time>
      </trkpt>
      <trkpt lat="46.15993" lon="6.52729">
        <ele>1204.4</ele>
        <time>2021-06-26T07:05:12Z</time>
      </trkpt>
      <trkpt lat="46.15992" lon="6.52732">
        <ele>1204.6</ele>
        <time>2021-06-26T07:05:13Z</time>
      </trkpt>
      <trkpt lat="46.15992" lon="6.52736">
        <ele>1205</ele>
        <time>2021-06-26T07:05:14Z</time>
      </trkpt>
      <trkpt lat="46.15991" lon="6.52739">
        <ele>1205.2</ele>
        <time>2021-06-26T07:05:15Z</time>
      </trkpt>
      <trkpt lat="46.15991" lon="6.52742">
        <ele>1205.4</ele>
        <time>2021-06-26T07:05:16Z</time>
      </trkpt>
      <trkpt lat="46.1599" lon="6.52746">
        <ele>1205.6</ele>
        <time>2021-06-26T07:05:17Z</time>
      </trkpt>
      <trkpt lat="46.1599" lon="6.52749">
        <ele>1205.8</ele>
        <time>2021-06-26T07:05:18Z</time>
      </trkpt>
      <trkpt lat="46.15989" lon="6.52753">
        <ele>1206.2</ele>
        <time>2021-06-26T07:05:19Z</time>
      </trkpt>
      <trkpt lat="46.15988" lon="6.52756">
        <ele>1206.4</ele>
        <time>2021-06-26T07:05:20Z</time>
      </trkpt>
      <trkpt lat="46.15987" lon="6.52759">
        <ele>1206.6</ele>
        <time>2021-06-26T07:05:21Z</time>
      </trkpt>
      <trkpt lat="46.15987" lon="6.52763">
        <ele>1207</ele>
        <time>2021-06-26T07:05:22Z</time>
      </trkpt>
      <trkpt lat="46.15986" lon="6.52766">
        <ele>1207.2</ele>
        <time>2021-06-26T07:05:23Z</time>
      </trkpt>
      <trkpt lat="46.15985" lon="6.52769">
        <ele>1207.4</ele>
        <time>2021-06-26T07:05:24Z</time>
      </trkpt>
      <trkpt lat="46.15984" lon="6.52772">
        <ele>1207.6</ele>
        <time>2021-06-26T07:05:25Z</time>
      </trkpt>
      <trkpt lat="46.15983" lon="6.52775">
        <ele>1207.8</ele>
        <time>2021-06-26T07:05:26Z</time>
      </trkpt>
      <trkpt lat="46.15982" lon="6.52778">
        <ele>1208</ele>
        <time>2021-06-26T07:05:27Z</time>
      </trkpt>
      <trkpt lat="46.15981" lon="6.52781">
        <ele>1208</ele>
        <time>2021-06-26T07:05:28Z</time>
      </trkpt>
      <trkpt lat="46.1598" lon="6.52784">
        <ele>1208.4</ele>
        <time>2021-06-26T07:05:29Z</time>
      </trkpt>
      <trkpt lat="46.1598" lon="6.52787">
        <ele>1208.4</ele>
        <time>2021-06-26T07:05:30Z</time>
      </trkpt>
      <trkpt lat="46.15979" lon="6.5279">
        <ele>1208.8</ele>
        <time>2021-06-26T07:05:31Z</time>
      </trkpt>
      <trkpt lat="46.15978" lon="6.52793">
        <ele>1208.8</ele>
        <time>2021-06-26T07:05:32Z</time>
      </trkpt>
      <trkpt lat="46.15977" lon="6.52797">
        <ele>1209</ele>
        <time>2021-06-26T07:05:33Z</time>
      </trkpt>
      <trkpt lat="46.15976" lon="6.528">
        <ele>1209.4</ele>
        <time>2021-06-26T07:05:34Z</time>
      </trkpt>
      <trkpt lat="46.15975" lon="6.52803">
        <ele>1209.6</ele>
        <time>2021-06-26T07:05:35Z</time>
      </trkpt>
      <trkpt lat="46.15974" lon="6.52806">
        <ele>1209.8</ele>
        <time>2021-06-26T07:05:36Z</time>
      </trkpt>
      <trkpt lat="46.15973" lon="6.52809">
        <ele>1210</ele>
        <time>2021-06-26T07:05:37Z</time>
      </trkpt>
      <trkpt lat="46.15972" lon="6.52812">
        <ele>1210.6</ele>
        <time>2021-06-26T07:05:38Z</time>
      </trkpt>
      <trkpt lat="46.15971" lon="6.52815">
        <ele>1210.8</ele>
        <time>2021-06-26T07:05:39Z</time>
      </trkpt>
      <trkpt lat="46.1597" lon="6.52819">
        <ele>1211</ele>
        <time>2021-06-26T07:05:40Z</time>
      </trkpt>
      <trkpt lat="46.15968" lon="6.52821">
        <ele>1211.2</ele>
        <time>2021-06-26T07:05:41Z</time>
      </trkpt>
      <trkpt lat="46.15967" lon="6.52824">
        <ele>1211.6</ele>
        <time>2021-06-26T07:05:42Z</time>
      </trkpt>
      <trkpt lat="46.15966" lon="6.52827">
        <ele>1211.8</ele>
        <time>2021-06-26T07:05:43Z</time>
      </trkpt>
      <trkpt lat="46.15965" lon="6.5283">
        <ele>1212</ele>
        <time>2021-06-26T07:05:44Z</time>
      </trkpt>
      <trkpt lat="46.15964" lon="6.52833">
        <ele>1212.4</ele>
        <time>2021-06-26T07:05:45Z</time>
      </trkpt>
      <trkpt lat="46.15962" lon="6.52836">
        <ele>1212.8</ele>
        <time>2021-06-26T07:05:46Z</time>
      </trkpt>
      <trkpt lat="46.15961" lon="6.52839">
        <ele>1213</ele>
        <time>2021-06-26T07:05:47Z</time>
      </trkpt>
      <trkpt lat="46.1596" lon="6.52841">
        <ele>1213.4</ele>
        <time>2021-06-26T07:05:48Z</time>
      </trkpt>
      <trkpt lat="46.15959" lon="6.52844">
        <ele>1213.8</ele>
        <time>2021-06-26T07:05:49Z</time>
      </trkpt>
      <trkpt lat="46.15957" lon="6.52846">
        <ele>1213.8</ele>
        <time>2021-06-26T07:05:50Z</time>
      </trkpt>
      <trkpt lat="46.15956" lon="6.52849">
        <ele>1214.2</ele>
        <time>2021-06-26T07:05:51Z</time>
      </trkpt>
      <trkpt lat="46.15955" lon="6.52851">
        <ele>1214.4</ele>
        <time>2021-06-26T07:05:52Z</time>
      </trkpt>
      <trkpt lat="46.15954" lon="6.52854">
        <ele>1214.4</ele>
        <time>2021-06-26T07:05:53Z</time>
      </trkpt>
      <trkpt lat="46.15952" lon="6.52858">
        <ele>1214.8</ele>
        <time>2021-06-26T07:05:54Z</time>
      </trkpt>
      <trkpt lat="46.15951" lon="6.5286">
        <ele>1215</ele>
        <time>2021-06-26T07:05:55Z</time>
      </trkpt>
      <trkpt lat="46.15949" lon="6.52863">
        <ele>1215.4</ele>
        <time>2021-06-26T07:05:56Z</time>
      </trkpt>
      <trkpt lat="46.15948" lon="6.52866">
        <ele>1215.6</ele>
        <time>2021-06-26T07:05:57Z</time>
      </trkpt>
      <trkpt lat="46.15947" lon="6.52869">
        <ele>1216</ele>
        <time>2021-06-26T07:05:58Z</time>
      </trkpt>
      <trkpt lat="46.15946" lon="6.52872">
        <ele>1216.2</ele>
        <time>2021-06-26T07:05:59Z</time>
      </trkpt>
      <trkpt lat="46.15945" lon="6.52875">
        <ele>1216.4</ele>
        <time>2021-06-26T07:06:00Z</time>
      </trkpt>
      <trkpt lat="46.15944" lon="6.52879">
        <ele>1216.8</ele>
        <time>2021-06-26T07:06:01Z</time>
      </trkpt>
      <trkpt lat="46.15943" lon="6.52882">
        <ele>1217.2</ele>
        <time>2021-06-26T07:06:02Z</time>
      </trkpt>
      <trkpt lat="46.15942" lon="6.52885">
        <ele>1217.4</ele>
        <time>2021-06-26T07:06:03Z</time>
      </trkpt>
      <trkpt lat="46.15941" lon="6.52888">
        <ele>1217.8</ele>
        <time>2021-06-26T07:06:04Z</time>
      </trkpt>
      <trkpt lat="46.15939" lon="6.52891">
        <ele>1218</ele>
        <time>2021-06-26T07:06:05Z</time>
      </trkpt>
      <trkpt lat="46.15938" lon="6.52894">
        <ele>1218.2</ele>
        <time>2021-06-26T07:06:06Z</time>
      </trkpt>
      <trkpt lat="46.15936" lon="6.52897">
        <ele>1218.4</ele>
        <time>2021-06-26T07:06:07Z</time>
      </trkpt>
      <trkpt lat="46.15934" lon="6.52899">
        <ele>1218.8</ele>
        <time>2021-06-26T07:06:08Z</time>
      </trkpt>
      <trkpt lat="46.15933" lon="6.52901">
        <ele>1219.2</ele>
        <time>2021-06-26T07:06:09Z</time>
      </trkpt>
      <trkpt lat="46.15931" lon="6.52903">
        <ele>1219.4</ele>
        <time>2021-06-26T07:06:10Z</time>
      </trkpt>
      <trkpt lat="46.1593" lon="6.52906">
        <ele>1219.6</ele>
        <time>2021-06-26T07:06:11Z</time>
      </trkpt>
      <trkpt lat="46.15928" lon="6.52908">
        <ele>1220</ele>
        <time>2021-06-26T07:06:12Z</time>
      </trkpt>
      <trkpt lat="46.15927" lon="6.5291">
        <ele>1220.2</ele>
        <time>2021-06-26T07:06:13Z</time>
      </trkpt>
      <trkpt lat="46.15926" lon="6.52913">
        <ele>1220.6</ele>
        <time>2021-06-26T07:06:14Z</time>
      </trkpt>
      <trkpt lat="46.15925" lon="6.52915">
        <ele>1220.6</ele>
        <time>2021-06-26T07:06:15Z</time>
      </trkpt>
      <trkpt lat="46.15924" lon="6.52917">
        <ele>1220.6</ele>
        <time>2021-06-26T07:06:16Z</time>
      </trkpt>
      <trkpt lat="46.15923" lon="6.52919">
        <ele>1221</ele>
        <time>2021-06-26T07:06:17Z</time>
      </trkpt>
      <trkpt lat="46.15921" lon="6.52921">
        <ele>1221.2</ele>
        <time>2021-06-26T07:06:18Z</time>
      </trkpt>
      <trkpt lat="46.1592" lon="6.52923">
        <ele>1221.4</ele>
        <time>2021-06-26T07:06:19Z</time>
      </trkpt>
      <trkpt lat="46.15919" lon="6.52926">
        <ele>1221.6</ele>
        <time>2021-06-26T07:06:20Z</time>
      </trkpt>
      <trkpt lat="46.15919" lon="6.52929">
        <ele>1222</ele>
        <time>2021-06-26T07:06:21Z</time>
      </trkpt>
      <trkpt lat="46.15918" lon="6.52932">
        <ele>1222.2</ele>
        <time>2021-06-26T07:06:22Z</time>
      </trkpt>
      <trkpt lat="46.15918" lon="6.52935">
        <ele>1222.4</ele>
        <time>2021-06-26T07:06:23Z</time>
      </trkpt>
      <trkpt lat="46.15917" lon="6.52938">
        <ele>1222.8</ele>
        <time>2021-06-26T07:06:24Z</time>
      </trkpt>
      <trkpt lat="46.15917" lon="6.52942">
        <ele>1223</ele>
        <time>2021-06-26T07:06:25Z</time>
      </trkpt>
      <trkpt lat="46.15917" lon="6.52945">
        <ele>1223.2</ele>
        <time>2021-06-26T07:06:26Z</time>
      </trkpt>
      <trkpt lat="46.15917" lon="6.52948">
        <ele>1223.4</ele>
        <time>2021-06-26T07:06:27Z</time>
      </trkpt>
      <trkpt lat="46.15917" lon="6.52951">
        <ele>1223.8</ele>
        <time>2021-06-26T07:06:28Z</time>
      </trkpt>
      <trkpt lat="46.15917" lon="6.52955">
        <ele>1224</ele>
        <time>2021-06-26T07:06:29Z</time>
      </trkpt>
      <trkpt lat="46.15916" lon="6.52958">
        <ele>1224.2</ele>
        <time>2021-06-26T07:06:30Z</time>
      </trkpt>
      <trkpt lat="46.15916" lon="6.52962">
        <ele>1224.4</ele>
        <time>2021-06-26T07:06:31Z</time>
      </trkpt>
      <trkpt lat="46.15916" lon="6.52965">
        <ele>1224.6</ele>
        <time>2021-06-26T07:06:32Z</time>
      </trkpt>
      <trkpt lat="46.15916" lon="6.52968">
        <ele>1224.8</ele>
        <time>2021-06-26T07:06:33Z</time>
      </trkpt>
      <trkpt lat="46.15916" lon="6.52971">
        <ele>1225.2</ele>
        <time>2021-06-26T07:06:34Z</time>
      </trkpt>
      <trkpt lat="46.15916" lon="6.52975">
        <ele>1225.6</ele>
        <time>2021-06-26T07:06:35Z</time>
      </trkpt>
      <trkpt lat="46.15917" lon="6.52978">
        <ele>1225.8</ele>
        <time>2021-06-26T07:06:36Z</time>
      </trkpt>
      <trkpt lat="46.15917" lon="6.52982">
        <ele>1225.8</ele>
        <time>2021-06-26T07:06:37Z</time>
      </trkpt>
      <trkpt lat="46.15917" lon="6.52985">
        <ele>1226</ele>
        <time>2021-06-26T07:06:38Z</time>
      </trkpt>
      <trkpt lat="46.15918" lon="6.52988">
        <ele>1226.4</ele>
        <time>2021-06-26T07:06:39Z</time>
      </trkpt>
      <trkpt lat="46.15919" lon="6.52991">
        <ele>1226.4</ele>
        <time>2021-06-26T07:06:40Z</time>
      </trkpt>
      <trkpt lat="46.15919" lon="6.52994">
        <ele>1226.6</ele>
        <time>2021-06-26T07:06:41Z</time>
      </trkpt>
      <trkpt lat="46.1592" lon="6.52997">
        <ele>1226.8</ele>
        <time>2021-06-26T07:06:42Z</time>
      </trkpt>
      <trkpt lat="46.1592" lon="6.53">
        <ele>1227</ele>
        <time>2021-06-26T07:06:43Z</time>
      </trkpt>
      <trkpt lat="46.15921" lon="6.53003">
        <ele>1227.4</ele>
        <time>2021-06-26T07:06:44Z</time>
      </trkpt>
      <trkpt lat="46.15922" lon="6.53006">
        <ele>1227.6</ele>
        <time>2021-06-26T07:06:45Z</time>
      </trkpt>
      <trkpt lat="46.15922" lon="6.53009">
        <ele>1227.8</ele>
        <time>2021-06-26T07:06:46Z</time>
      </trkpt>
      <trkpt lat="46.15923" lon="6.53012">
        <ele>1228</ele>
        <time>2021-06-26T07:06:47Z</time>
      </trkpt>
      <trkpt lat="46.15924" lon="6.53015">
        <ele>1228.2</ele>
        <time>2021-06-26T07:06:48Z</time>
      </trkpt>
      <trkpt lat="46.15925" lon="6.53018">
        <ele>1228.4</ele>
        <time>2021-06-26T07:06:49Z</time>
      </trkpt>
      <trkpt lat="46.15926" lon="6.53021">
        <ele>1228.8</ele>
        <time>2021-06-26T07:06:50Z</time>
      </trkpt>
      <trkpt lat="46.15927" lon="6.53023">
        <ele>1229</ele>
        <time>2021-06-26T07:06:51Z</time>
      </trkpt>
      <trkpt lat="46.15929" lon="6.53026">
        <ele>1229.2</ele>
        <time>2021-06-26T07:06:52Z</time>
      </trkpt>
      <trkpt lat="46.1593" lon="6.53029">
        <ele>1229.4</ele>
        <time>2021-06-26T07:06:53Z</time>
      </trkpt>
      <trkpt lat="46.15931" lon="6.53031">
        <ele>1229.8</ele>
        <time>2021-06-26T07:06:54Z</time>
      </trkpt>
      <trkpt lat="46.15933" lon="6.53034">
        <ele>1230.2</ele>
        <time>2021-06-26T07:06:55Z</time>
      </trkpt>
      <trkpt lat="46.15934" lon="6.53036">
        <ele>1230.6</ele>
        <time>2021-06-26T07:06:56Z</time>
      </trkpt>
      <trkpt lat="46.15936" lon="6.53039">
        <ele>1230.6</ele>
        <time>2021-06-26T07:06:57Z</time>
      </trkpt>
      <trkpt lat="46.15937" lon="6.53041">
        <ele>1230.8</ele>
        <time>2021-06-26T07:06:58Z</time>
      </trkpt>
      <trkpt lat="46.15939" lon="6.53043">
        <ele>1230.8</ele>
        <time>2021-06-26T07:06:59Z</time>
      </trkpt>
      <trkpt lat="46.1594" lon="6.53046">
        <ele>1231.2</ele>
        <time>2021-06-26T07:07:00Z</time>
      </trkpt>
      <trkpt lat="46.15942" lon="6.53048">
        <ele>1231.6</ele>
        <time>2021-06-26T07:07:01Z</time>
      </trkpt>
      <trkpt lat="46.15943" lon="6.53051">
        <ele>1231.8</ele>
        <time>2021-06-26T07:07:02Z</time>
      </trkpt>
      <trkpt lat="46.15944" lon="6.53053">
        <ele>1232.2</ele>
        <time>2021-06-26T07:07:03Z</time>
      </trkpt>
      <trkpt lat="46.15945" lon="6.53055">
        <ele>1232.2</ele>
        <time>2021-06-26T07:07:04Z</time>
      </trkpt>
      <trkpt lat="46.15947" lon="6.53057">
        <ele>1232.4</ele>
        <time>2021-06-26T07:07:05Z</time>
      </trkpt>
      <trkpt lat="46.15949" lon="6.5306">
        <ele>1232.8</ele>
        <time>2021-06-26T07:07:06Z</time>
      </trkpt>
      <trkpt lat="46.1595" lon="6.53062">
        <ele>1233</ele>
        <time>2021-06-26T07:07:07Z</time>
      </trkpt>
      <trkpt lat="46.15951" lon="6.53064">
        <ele>1233.2</ele>
        <time>2021-06-26T07:07:08Z</time>
      </trkpt>
      <trkpt lat="46.15952" lon="6.53066">
        <ele>1233.2</ele>
        <time>2021-06-26T07:07:09Z</time>
      </trkpt>
      <trkpt lat="46.15953" lon="6.53069">
        <ele>1233.6</ele>
        <time>2021-06-26T07:07:10Z</time>
      </trkpt>
      <trkpt lat="46.15955" lon="6.53072">
        <ele>1233.6</ele>
        <time>2021-06-26T07:07:11Z</time>
      </trkpt>
      <trkpt lat="46.15956" lon="6.53074">
        <ele>1233.8</ele>
        <time>2021-06-26T07:07:12Z</time>
      </trkpt>
      <trkpt lat="46.15958" lon="6.53077">
        <ele>1234.2</ele>
        <time>2021-06-26T07:07:13Z</time>
      </trkpt>
      <trkpt lat="46.15959" lon="6.5308">
        <ele>1234.4</ele>
        <time>2021-06-26T07:07:14Z</time>
      </trkpt>
      <trkpt lat="46.1596" lon="6.53083">
        <ele>1234.6</ele>
        <time>2021-06-26T07:07:15Z</time>
      </trkpt>
      <trkpt lat="46.15962" lon="6.53085">
        <ele>1234.8</ele>
        <time>2021-06-26T07:07:16Z</time>
      </trkpt>
      <trkpt lat="46.15963" lon="6.53088">
        <ele>1235.2</ele>
        <time>2021-06-26T07:07:17Z</time>
      </trkpt>
      <trkpt lat="46.15964" lon="6.5309">
        <ele>1235.4</ele>
        <time>2021-06-26T07:07:18Z</time>
      </trkpt>
      <trkpt lat="46.15965" lon="6.53094">
        <ele>1235.6</ele>
        <time>2021-06-26T07:07:19Z</time>
      </trkpt>
      <trkpt lat="46.15966" lon="6.53096">
        <ele>1235.8</ele>
        <time>2021-06-26T07:07:20Z</time>
      </trkpt>
      <trkpt lat="46.15967" lon="6.53099">
        <ele>1235.8</ele>
        <time>2021-06-26T07:07:21Z</time>
      </trkpt>
      <trkpt lat="46.15968" lon="6.53101">
        <ele>1236</ele>
        <time>2021-06-26T07:07:22Z</time>
      </trkpt>
      <trkpt lat="46.15969" lon="6.53103">
        <ele>1236.2</ele>
        <time>2021-06-26T07:07:23Z</time>
      </trkpt>
      <trkpt lat="46.1597" lon="6.53105">
        <ele>1236.4</ele>
        <time>2021-06-26T07:07:24Z</time>
      </trkpt>
      <trkpt lat="46.15972" lon="6.53108">
        <ele>1236.6</ele>
        <time>2021-06-26T07:07:25Z</time>
      </trkpt>
      <trkpt lat="46.15973" lon="6.5311">
        <ele>1237</ele>
        <time>2021-06-26T07:07:26Z</time>
      </trkpt>
      <trkpt lat="46.15974" lon="6.53113">
        <ele>1237.2</ele>
        <time>2021-06-26T07:07:27Z</time>
      </trkpt>
      <trkpt lat="46.15975" lon="6.53116">
        <ele>1237.4</ele>
        <time>2021-06-26T07:07:28Z</time>
      </trkpt>
      <trkpt lat="46.15976" lon="6.53119">
        <ele>1237.8</ele>
        <time>2021-06-26T07:07:29Z</time>
      </trkpt>
      <trkpt lat="46.15977" lon="6.53122">
        <ele>1238</ele>
        <time>2021-06-26T07:07:30Z</time>
      </trkpt>
      <trkpt lat="46.15978" lon="6.53124">
        <ele>1238.2</ele>
        <time>2021-06-26T07:07:31Z</time>
      </trkpt>
      <trkpt lat="46.15979" lon="6.53127">
        <ele>1238.2</ele>
        <time>2021-06-26T07:07:32Z</time>
      </trkpt>
      <trkpt lat="46.15981" lon="6.53129">
        <ele>1238.6</ele>
        <time>2021-06-26T07:07:33Z</time>
      </trkpt>
      <trkpt lat="46.15982" lon="6.53132">
        <ele>1238.6</ele>
        <time>2021-06-26T07:07:34Z</time>
      </trkpt>
      <trkpt lat="46.15983" lon="6.53134">
        <ele>1239</ele>
        <time>2021-06-26T07:07:35Z</time>
      </trkpt>
      <trkpt lat="46.15984" lon="6.53137">
        <ele>1239.2</ele>
        <time>2021-06-26T07:07:36Z</time>
      </trkpt>
      <trkpt lat="46.15985" lon="6.53139">
        <ele>1239.4</ele>
        <time>2021-06-26T07:07:37Z</time>
      </trkpt>
      <trkpt lat="46.15985" lon="6.53143">
        <ele>1239.6</ele>
        <time>2021-06-26T07:07:38Z</time>
      </trkpt>
      <trkpt lat="46.15985" lon="6.53147">
        <ele>1240.2</ele>
        <time>2021-06-26T07:07:39Z</time>
      </trkpt>
      <trkpt lat="46.15985" lon="6.53151">
        <ele>1240.4</ele>
        <time>2021-06-26T07:07:40Z</time>
      </trkpt>
      <trkpt lat="46.15985" lon="6.53155">
        <ele>1240.6</ele>
        <time>2021-06-26T07:07:41Z</time>
      </trkpt>
      <trkpt lat="46.15985" lon="6.53159">
        <ele>1241</ele>
        <time>2021-06-26T07:07:42Z</time>
      </trkpt>
      <trkpt lat="46.15985" lon="6.53162">
        <ele>1241</ele>
        <time>2021-06-26T07:07:43Z</time>
      </trkpt>
      <trkpt lat="46.15984" lon="6.53166">
        <ele>1241.2</ele>
        <time>2021-06-26T07:07:44Z</time>
      </trkpt>
      <trkpt lat="46.15984" lon="6.53169">
        <ele>1241.4</ele>
        <time>2021-06-26T07:07:45Z</time>
      </trkpt>
      <trkpt lat="46.15983" lon="6.53173">
        <ele>1241.8</ele>
        <time>2021-06-26T07:07:46Z</time>
      </trkpt>
      <trkpt lat="46.15982" lon="6.53176">
        <ele>1242.2</ele>
        <time>2021-06-26T07:07:47Z</time>
      </trkpt>
      <trkpt lat="46.15981" lon="6.5318">
        <ele>1242.4</ele>
        <time>2021-06-26T07:07:48Z</time>
      </trkpt>
      <trkpt lat="46.15978" lon="6.53184">
        <ele>1242.8</ele>
        <time>2021-06-26T07:07:49Z</time>
      </trkpt>
      <trkpt lat="46.15977" lon="6.53188">
        <ele>1242.8</ele>
        <time>2021-06-26T07:07:50Z</time>
      </trkpt>
      <trkpt lat="46.15974" lon="6.53191">
        <ele>1243.2</ele>
        <time>2021-06-26T07:07:51Z</time>
      </trkpt>
      <trkpt lat="46.15973" lon="6.53193">
        <ele>1243.4</ele>
        <time>2021-06-26T07:07:52Z</time>
      </trkpt>
      <trkpt lat="46.15971" lon="6.53195">
        <ele>1243.6</ele>
        <time>2021-06-26T07:07:53Z</time>
      </trkpt>
      <trkpt lat="46.15969" lon="6.53195">
        <ele>1243.8</ele>
        <time>2021-06-26T07:07:54Z</time>
      </trkpt>
      <trkpt lat="46.15969" lon="6.53196">
        <ele>1244.2</ele>
        <time>2021-06-26T07:07:55Z</time>
      </trkpt>
      <trkpt lat="46.15967" lon="6.53196">
        <ele>1244.4</ele>
        <time>2021-06-26T07:07:56Z</time>
      </trkpt>
      <trkpt lat="46.15965" lon="6.53196">
        <ele>1244.8</ele>
        <time>2021-06-26T07:07:57Z</time>
      </trkpt>
      <trkpt lat="46.15963" lon="6.53196">
        <ele>1245.2</ele>
        <time>2021-06-26T07:07:58Z</time>
      </trkpt>
      <trkpt lat="46.15962" lon="6.53197">
        <ele>1245.4</ele>
        <time>2021-06-26T07:07:59Z</time>
      </trkpt>
      <trkpt lat="46.1596" lon="6.53198">
        <ele>1245.8</ele>
        <time>2021-06-26T07:08:00Z</time>
      </trkpt>
      <trkpt lat="46.15958" lon="6.53198">
        <ele>1246</ele>
        <time>2021-06-26T07:08:01Z</time>
      </trkpt>
      <trkpt lat="46.15955" lon="6.53198">
        <ele>1246.2</ele>
        <time>2021-06-26T07:08:02Z</time>
      </trkpt>
      <trkpt lat="46.15953" lon="6.53199">
        <ele>1246.4</ele>
        <time>2021-06-26T07:08:03Z</time>
      </trkpt>
      <trkpt lat="46.15951" lon="6.53198">
        <ele>1246.4</ele>
        <time>2021-06-26T07:08:04Z</time>
      </trkpt>
      <trkpt lat="46.15949" lon="6.53199">
        <ele>1246.6</ele>
        <time>2021-06-26T07:08:05Z</time>
      </trkpt>
      <trkpt lat="46.15947" lon="6.532">
        <ele>1246.8</ele>
        <time>2021-06-26T07:08:06Z</time>
      </trkpt>
      <trkpt lat="46.15945" lon="6.53201">
        <ele>1247</ele>
        <time>2021-06-26T07:08:07Z</time>
      </trkpt>
      <trkpt lat="46.15943" lon="6.53202">
        <ele>1247.4</ele>
        <time>2021-06-26T07:08:08Z</time>
      </trkpt>
      <trkpt lat="46.1594" lon="6.53203">
        <ele>1247.6</ele>
        <time>2021-06-26T07:08:09Z</time>
      </trkpt>
      <trkpt lat="46.15938" lon="6.53205">
        <ele>1248</ele>
        <time>2021-06-26T07:08:10Z</time>
      </trkpt>
      <trkpt lat="46.15936" lon="6.53206">
        <ele>1248.2</ele>
        <time>2021-06-26T07:08:11Z</time>
      </trkpt>
      <trkpt lat="46.15934" lon="6.53207">
        <ele>1248.4</ele>
        <time>2021-06-26T07:08:12Z</time>
      </trkpt>
      <trkpt lat="46.15932" lon="6.53208">
        <ele>1248.6</ele>
        <time>2021-06-26T07:08:13Z</time>
      </trkpt>
      <trkpt lat="46.15931" lon="6.5321">
        <ele>1249</ele>
        <time>2021-06-26T07:08:14Z</time>
      </trkpt>
      <trkpt lat="46.15929" lon="6.53211">
        <ele>1249.2</ele>
        <time>2021-06-26T07:08:15Z</time>
      </trkpt>
      <trkpt lat="46.15927" lon="6.53213">
        <ele>1249.6</ele>
        <time>2021-06-26T07:08:16Z</time>
      </trkpt>
      <trkpt lat="46.15925" lon="6.53214">
        <ele>1250</ele>
        <time>2021-06-26T07:08:17Z</time>
      </trkpt>
      <trkpt lat="46.15923" lon="6.53215">
        <ele>1250</ele>
        <time>2021-06-26T07:08:18Z</time>
      </trkpt>
      <trkpt lat="46.15921" lon="6.53217">
        <ele>1250.6</ele>
        <time>2021-06-26T07:08:19Z</time>
      </trkpt>
      <trkpt lat="46.15919" lon="6.53218">
        <ele>1250.8</ele>
        <time>2021-06-26T07:08:20Z</time>
      </trkpt>
      <trkpt lat="46.15917" lon="6.5322">
        <ele>1251</ele>
        <time>2021-06-26T07:08:21Z</time>
      </trkpt>
      <trkpt lat="46.15916" lon="6.53221">
        <ele>1251</ele>
        <time>2021-06-26T07:08:22Z</time>
      </trkpt>
      <trkpt lat="46.15914" lon="6.53223">
        <ele>1251.4</ele>
        <time>2021-06-26T07:08:23Z</time>
      </trkpt>
      <trkpt lat="46.15912" lon="6.53225">
        <ele>1251.8</ele>
        <time>2021-06-26T07:08:24Z</time>
      </trkpt>
      <trkpt lat="46.1591" lon="6.53226">
        <ele>1251.8</ele>
        <time>2021-06-26T07:08:25Z</time>
      </trkpt>
      <trkpt lat="46.15908" lon="6.53228">
        <ele>1251.8</ele>
        <time>2021-06-26T07:08:26Z</time>
      </trkpt>
      <trkpt lat="46.15906" lon="6.5323">
        <ele>1252.2</ele>
        <time>2021-06-26T07:08:27Z</time>
      </trkpt>
      <trkpt lat="46.15904" lon="6.53232">
        <ele>1252.4</ele>
        <time>2021-06-26T07:08:28Z</time>
      </trkpt>
      <trkpt lat="46.15902" lon="6.53234">
        <ele>1252.6</ele>
        <time>2021-06-26T07:08:29Z</time>
      </trkpt>
      <trkpt lat="46.159" lon="6.53236">
        <ele>1253.2</ele>
        <time>2021-06-26T07:08:30Z</time>
      </trkpt>
      <trkpt lat="46.15899" lon="6.53239">
        <ele>1253.4</ele>
        <time>2021-06-26T07:08:31Z</time>
      </trkpt>
      <trkpt lat="46.15897" lon="6.53241">
        <ele>1253.8</ele>
        <time>2021-06-26T07:08:32Z</time>
      </trkpt>
      <trkpt lat="46.15896" lon="6.53246">
        <ele>1254.2</ele>
        <time>2021-06-26T07:08:33Z</time>
      </trkpt>
      <trkpt lat="46.15894" lon="6.53248">
        <ele>1254.4</ele>
        <time>2021-06-26T07:08:34Z</time>
      </trkpt>
      <trkpt lat="46.15893" lon="6.53251">
        <ele>1254.6</ele>
        <time>2021-06-26T07:08:35Z</time>
      </trkpt>
      <trkpt lat="46.15892" lon="6.53253">
        <ele>1255</ele>
        <time>2021-06-26T07:08:36Z</time>
      </trkpt>
      <trkpt lat="46.1589" lon="6.53256">
        <ele>1255.4</ele>
        <time>2021-06-26T07:08:37Z</time>
      </trkpt>
      <trkpt lat="46.15889" lon="6.53258">
        <ele>1255.8</ele>
        <time>2021-06-26T07:08:38Z</time>
      </trkpt>
      <trkpt lat="46.15888" lon="6.53261">
        <ele>1256</ele>
        <time>2021-06-26T07:08:39Z</time>
      </trkpt>
      <trkpt lat="46.15887" lon="6.53263">
        <ele>1256.4</ele>
        <time>2021-06-26T07:08:40Z</time>
      </trkpt>
      <trkpt lat="46.15886" lon="6.53265">
        <ele>1256.6</ele>
        <time>2021-06-26T07:08:41Z</time>
      </trkpt>
      <trkpt lat="46.15886" lon="6.53267">
        <ele>1256.8</ele>
        <time>2021-06-26T07:08:42Z</time>
      </trkpt>
      <trkpt lat="46.15885" lon="6.5327">
        <ele>1257.2</ele>
        <time>2021-06-26T07:08:43Z</time>
      </trkpt>
      <trkpt lat="46.15885" lon="6.53272">
        <ele>1257.4</ele>
        <time>2021-06-26T07:08:44Z</time>
      </trkpt>
      <trkpt lat="46.15885" lon="6.53275">
        <ele>1257.6</ele>
        <time>2021-06-26T07:08:45Z</time>
      </trkpt>
      <trkpt lat="46.15884" lon="6.53277">
        <ele>1258</ele>
        <time>2021-06-26T07:08:46Z</time>
      </trkpt>
      <trkpt lat="46.15884" lon="6.5328">
        <ele>1258</ele>
        <time>2021-06-26T07:08:47Z</time>
      </trkpt>
      <trkpt lat="46.15884" lon="6.53283">
        <ele>1258.4</ele>
        <time>2021-06-26T07:08:48Z</time>
      </trkpt>
      <trkpt lat="46.15884" lon="6.53286">
        <ele>1258.6</ele>
        <time>2021-06-26T07:08:49Z</time>
      </trkpt>
      <trkpt lat="46.15884" lon="6.53289">
        <ele>1258.8</ele>
        <time>2021-06-26T07:08:50Z</time>
      </trkpt>
      <trkpt lat="46.15884" lon="6.53292">
        <ele>1259.2</ele>
        <time>2021-06-26T07:08:51Z</time>
      </trkpt>
      <trkpt lat="46.15884" lon="6.53295">
        <ele>1259.6</ele>
        <time>2021-06-26T07:08:52Z</time>
      </trkpt>
      <trkpt lat="46.15884" lon="6.53298">
        <ele>1260</ele>
        <time>2021-06-26T07:08:53Z</time>
      </trkpt>
      <trkpt lat="46.15884" lon="6.53301">
        <ele>1260.2</ele>
        <time>2021-06-26T07:08:54Z</time>
      </trkpt>
      <trkpt lat="46.15885" lon="6.53303">
        <ele>1260.4</ele>
        <time>2021-06-26T07:08:55Z</time>
      </trkpt>
      <trkpt lat="46.15886" lon="6.53306">
        <ele>1260.8</ele>
        <time>2021-06-26T07:08:56Z</time>
      </trkpt>
      <trkpt lat="46.15886" lon="6.53308">
        <ele>1260.8</ele>
        <time>2021-06-26T07:08:57Z</time>
      </trkpt>
      <trkpt lat="46.15887" lon="6.53311">
        <ele>1261.2</ele>
        <time>2021-06-26T07:08:58Z</time>
      </trkpt>
      <trkpt lat="46.15889" lon="6.53313">
        <ele>1261.4</ele>
        <time>2021-06-26T07:08:59Z</time>
      </trkpt>
      <trkpt lat="46.1589" lon="6.53316">
        <ele>1261.8</ele>
        <time>2021-06-26T07:09:00Z</time>
      </trkpt>
      <trkpt lat="46.15892" lon="6.53318">
        <ele>1262.2</ele>
        <time>2021-06-26T07:09:01Z</time>
      </trkpt>
      <trkpt lat="46.15894" lon="6.53321">
        <ele>1262.4</ele>
        <time>2021-06-26T07:09:02Z</time>
      </trkpt>
      <trkpt lat="46.15895" lon="6.53324">
        <ele>1262.6</ele>
        <time>2021-06-26T07:09:03Z</time>
      </trkpt>
      <trkpt lat="46.15897" lon="6.53326">
        <ele>1262.8</ele>
        <time>2021-06-26T07:09:04Z</time>
      </trkpt>
      <trkpt lat="46.15899" lon="6.53329">
        <ele>1263.2</ele>
        <time>2021-06-26T07:09:05Z</time>
      </trkpt>
      <trkpt lat="46.15901" lon="6.53331">
        <ele>1263.4</ele>
        <time>2021-06-26T07:09:06Z</time>
      </trkpt>
      <trkpt lat="46.15903" lon="6.53333">
        <ele>1263.6</ele>
        <time>2021-06-26T07:09:07Z</time>
      </trkpt>
      <trkpt lat="46.15906" lon="6.53336">
        <ele>1264</ele>
        <time>2021-06-26T07:09:08Z</time>
      </trkpt>
      <trkpt lat="46.15908" lon="6.53338">
        <ele>1264</ele>
        <time>2021-06-26T07:09:09Z</time>
      </trkpt>
      <trkpt lat="46.15909" lon="6.5334">
        <ele>1264.2</ele>
        <time>2021-06-26T07:09:10Z</time>
      </trkpt>
      <trkpt lat="46.15911" lon="6.53343">
        <ele>1264.4</ele>
        <time>2021-06-26T07:09:11Z</time>
      </trkpt>
      <trkpt lat="46.15912" lon="6.53345">
        <ele>1264.4</ele>
        <time>2021-06-26T07:09:12Z</time>
      </trkpt>
      <trkpt lat="46.15913" lon="6.53348">
        <ele>1264.6</ele>
        <time>2021-06-26T07:09:13Z</time>
      </trkpt>
      <trkpt lat="46.15913" lon="6.5335">
        <ele>1265</ele>
        <time>2021-06-26T07:09:14Z</time>
      </trkpt>
      <trkpt lat="46.15914" lon="6.53353">
        <ele>1265.2</ele>
        <time>2021-06-26T07:09:15Z</time>
      </trkpt>
      <trkpt lat="46.15914" lon="6.53356">
        <ele>1265.6</ele>
        <time>2021-06-26T07:09:16Z</time>
      </trkpt>
      <trkpt lat="46.15915" lon="6.53358">
        <ele>1265.6</ele>
        <time>2021-06-26T07:09:17Z</time>
      </trkpt>
      <trkpt lat="46.15916" lon="6.53361">
        <ele>1266.2</ele>
        <time>2021-06-26T07:09:18Z</time>
      </trkpt>
      <trkpt lat="46.15917" lon="6.53364">
        <ele>1266.4</ele>
        <time>2021-06-26T07:09:19Z</time>
      </trkpt>
      <trkpt lat="46.15918" lon="6.53367">
        <ele>1266.6</ele>
        <time>2021-06-26T07:09:20Z</time>
      </trkpt>
      <trkpt lat="46.15919" lon="6.5337">
        <ele>1267</ele>
        <time>2021-06-26T07:09:21Z</time>
      </trkpt>
      <trkpt lat="46.15919" lon="6.53373">
        <ele>1267.2</ele>
        <time>2021-06-26T07:09:22Z</time>
      </trkpt>
      <trkpt lat="46.1592" lon="6.53376">
        <ele>1267.4</ele>
        <time>2021-06-26T07:09:23Z</time>
      </trkpt>
      <trkpt lat="46.15921" lon="6.53379">
        <ele>1267.8</ele>
        <time>2021-06-26T07:09:24Z</time>
      </trkpt>
      <trkpt lat="46.15922" lon="6.53382">
        <ele>1268.2</ele>
        <time>2021-06-26T07:09:25Z</time>
      </trkpt>
      <trkpt lat="46.15923" lon="6.53385">
        <ele>1268.6</ele>
        <time>2021-06-26T07:09:26Z</time>
      </trkpt>
      <trkpt lat="46.15924" lon="6.53388">
        <ele>1268.8</ele>
        <time>2021-06-26T07:09:27Z</time>
      </trkpt>
      <trkpt lat="46.15924" lon="6.53391">
        <ele>1269</ele>
        <time>2021-06-26T07:09:28Z</time>
      </trkpt>
      <trkpt lat="46.15925" lon="6.53394">
        <ele>1269.4</ele>
        <time>2021-06-26T07:09:29Z</time>
      </trkpt>
      <trkpt lat="46.15926" lon="6.53397">
        <ele>1269.6</ele>
        <time>2021-06-26T07:09:30Z</time>
      </trkpt>
      <trkpt lat="46.15926" lon="6.534">
        <ele>1269.6</ele>
        <time>2021-06-26T07:09:31Z</time>
      </trkpt>
      <trkpt lat="46.15927" lon="6.53403">
        <ele>1269.8</ele>
        <time>2021-06-26T07:09:32Z</time>
      </trkpt>
      <trkpt lat="46.15928" lon="6.53405">
        <ele>1270</ele>
        <time>2021-06-26T07:09:33Z</time>
      </trkpt>
      <trkpt lat="46.15929" lon="6.53408">
        <ele>1270.4</ele>
        <time>2021-06-26T07:09:34Z</time>
      </trkpt>
      <trkpt lat="46.15931" lon="6.53411">
        <ele>1270.6</ele>
        <time>2021-06-26T07:09:35Z</time>
      </trkpt>
      <trkpt lat="46.15932" lon="6.53414">
        <ele>1270.6</ele>
        <time>2021-06-26T07:09:36Z</time>
      </trkpt>
      <trkpt lat="46.15933" lon="6.53417">
        <ele>1271</ele>
        <time>2021-06-26T07:09:37Z</time>
      </trkpt>
      <trkpt lat="46.15934" lon="6.5342">
        <ele>1271.2</ele>
        <time>2021-06-26T07:09:38Z</time>
      </trkpt>
      <trkpt lat="46.15935" lon="6.53423">
        <ele>1271.6</ele>
        <time>2021-06-26T07:09:39Z</time>
      </trkpt>
      <trkpt lat="46.15936" lon="6.53427">
        <ele>1271.8</ele>
        <time>2021-06-26T07:09:40Z</time>
      </trkpt>
      <trkpt lat="46.15937" lon="6.5343">
        <ele>1272.2</ele>
        <time>2021-06-26T07:09:41Z</time>
      </trkpt>
      <trkpt lat="46.15938" lon="6.53433">
        <ele>1272.4</ele>
        <time>2021-06-26T07:09:42Z</time>
      </trkpt>
      <trkpt lat="46.1594" lon="6.53436">
        <ele>1272.6</ele>
        <time>2021-06-26T07:09:43Z</time>
      </trkpt>
      <trkpt lat="46.15943" lon="6.53439">
        <ele>1273</ele>
        <time>2021-06-26T07:09:44Z</time>
      </trkpt>
      <trkpt lat="46.15944" lon="6.53442">
        <ele>1273</ele>
        <time>2021-06-26T07:09:45Z</time>
      </trkpt>
      <trkpt lat="46.15945" lon="6.53445">
        <ele>1273.2</ele>
        <time>2021-06-26T07:09:46Z</time>
      </trkpt>
      <trkpt lat="46.15946" lon="6.53448">
        <ele>1273.4</ele>
        <time>2021-06-26T07:09:47Z</time>
      </trkpt>
      <trkpt lat="46.15947" lon="6.53451">
        <ele>1273.6</ele>
        <time>2021-06-26T07:09:48Z</time>
      </trkpt>
      <trkpt lat="46.15948" lon="6.53453">
        <ele>1273.8</ele>
        <time>2021-06-26T07:09:49Z</time>
      </trkpt>
      <trkpt lat="46.15949" lon="6.53456">
        <ele>1274</ele>
        <time>2021-06-26T07:09:50Z</time>
      </trkpt>
      <trkpt lat="46.15951" lon="6.53459">
        <ele>1274.2</ele>
        <time>2021-06-26T07:09:51Z</time>
      </trkpt>
      <trkpt lat="46.15952" lon="6.53462">
        <ele>1274.6</ele>
        <time>2021-06-26T07:09:52Z</time>
      </trkpt>
      <trkpt lat="46.15954" lon="6.53464">
        <ele>1274.6</ele>
        <time>2021-06-26T07:09:53Z</time>
      </trkpt>
      <trkpt lat="46.15956" lon="6.53467">
        <ele>1274.6</ele>
        <time>2021-06-26T07:09:54Z</time>
      </trkpt>
      <trkpt lat="46.15957" lon="6.5347">
        <ele>1275</ele>
        <time>2021-06-26T07:09:55Z</time>
      </trkpt>
      <trkpt lat="46.15958" lon="6.53474">
        <ele>1275</ele>
        <time>2021-06-26T07:09:56Z</time>
      </trkpt>
      <trkpt lat="46.15959" lon="6.53477">
        <ele>1275.4</ele>
        <time>2021-06-26T07:09:57Z</time>
      </trkpt>
      <trkpt lat="46.1596" lon="6.5348">
        <ele>1275.6</ele>
        <time>2021-06-26T07:09:58Z</time>
      </trkpt>
      <trkpt lat="46.15961" lon="6.53483">
        <ele>1275.6</ele>
        <time>2021-06-26T07:09:59Z</time>
      </trkpt>
      <trkpt lat="46.15962" lon="6.53487">
        <ele>1275.8</ele>
        <time>2021-06-26T07:10:00Z</time>
      </trkpt>
      <trkpt lat="46.15963" lon="6.5349">
        <ele>1276</ele>
        <time>2021-06-26T07:10:01Z</time>
      </trkpt>
      <trkpt lat="46.15964" lon="6.53493">
        <ele>1276.2</ele>
        <time>2021-06-26T07:10:02Z</time>
      </trkpt>
      <trkpt lat="46.15966" lon="6.53496">
        <ele>1276.4</ele>
        <time>2021-06-26T07:10:03Z</time>
      </trkpt>
      <trkpt lat="46.15967" lon="6.53499">
        <ele>1276.8</ele>
        <time>2021-06-26T07:10:04Z</time>
      </trkpt>
      <trkpt lat="46.15968" lon="6.53501">
        <ele>1277</ele>
        <time>2021-06-26T07:10:05Z</time>
      </trkpt>
      <trkpt lat="46.15968" lon="6.53505">
        <ele>1277.4</ele>
        <time>2021-06-26T07:10:06Z</time>
      </trkpt>
      <trkpt lat="46.15969" lon="6.53508">
        <ele>1277.6</ele>
        <time>2021-06-26T07:10:07Z</time>
      </trkpt>
      <trkpt lat="46.15969" lon="6.53511">
        <ele>1277.8</ele>
        <time>2021-06-26T07:10:08Z</time>
      </trkpt>
      <trkpt lat="46.1597" lon="6.53514">
        <ele>1278.2</ele>
        <time>2021-06-26T07:10:09Z</time>
      </trkpt>
      <trkpt lat="46.1597" lon="6.53518">
        <ele>1278.4</ele>
        <time>2021-06-26T07:10:10Z</time>
      </trkpt>
      <trkpt lat="46.15971" lon="6.53521">
        <ele>1278.8</ele>
        <time>2021-06-26T07:10:11Z</time>
      </trkpt>
      <trkpt lat="46.15972" lon="6.53524">
        <ele>1279</ele>
        <time>2021-06-26T07:10:12Z</time>
      </trkpt>
      <trkpt lat="46.15972" lon="6.53528">
        <ele>1279.4</ele>
        <time>2021-06-26T07:10:13Z</time>
      </trkpt>
      <trkpt lat="46.15973" lon="6.53531">
        <ele>1279.8</ele>
        <time>2021-06-26T07:10:14Z</time>
      </trkpt>
      <trkpt lat="46.15973" lon="6.53534">
        <ele>1279.8</ele>
        <time>2021-06-26T07:10:15Z</time>
      </trkpt>
      <trkpt lat="46.15974" lon="6.53537">
        <ele>1280</ele>
        <time>2021-06-26T07:10:16Z</time>
      </trkpt>
      <trkpt lat="46.15974" lon="6.5354">
        <ele>1280.2</ele>
        <time>2021-06-26T07:10:17Z</time>
      </trkpt>
      <trkpt lat="46.15975" lon="6.53543">
        <ele>1280.6</ele>
        <time>2021-06-26T07:10:18Z</time>
      </trkpt>
      <trkpt lat="46.15975" lon="6.53547">
        <ele>1280.8</ele>
        <time>2021-06-26T07:10:19Z</time>
      </trkpt>
      <trkpt lat="46.15976" lon="6.5355">
        <ele>1281</ele>
        <time>2021-06-26T07:10:20Z</time>
      </trkpt>
      <trkpt lat="46.15977" lon="6.53553">
        <ele>1281.2</ele>
        <time>2021-06-26T07:10:21Z</time>
      </trkpt>
      <trkpt lat="46.15978" lon="6.53556">
        <ele>1281.6</ele>
        <time>2021-06-26T07:10:22Z</time>
      </trkpt>
      <trkpt lat="46.15978" lon="6.53559">
        <ele>1281.8</ele>
        <time>2021-06-26T07:10:23Z</time>
      </trkpt>
      <trkpt lat="46.15979" lon="6.53562">
        <ele>1282</ele>
        <time>2021-06-26T07:10:24Z</time>
      </trkpt>
      <trkpt lat="46.1598" lon="6.53565">
        <ele>1282.2</ele>
        <time>2021-06-26T07:10:25Z</time>
      </trkpt>
      <trkpt lat="46.15981" lon="6.53568">
        <ele>1282.6</ele>
        <time>2021-06-26T07:10:26Z</time>
      </trkpt>
      <trkpt lat="46.15982" lon="6.53571">
        <ele>1282.8</ele>
        <time>2021-06-26T07:10:27Z</time>
      </trkpt>
      <trkpt lat="46.15983" lon="6.53574">
        <ele>1283.2</ele>
        <time>2021-06-26T07:10:28Z</time>
      </trkpt>
      <trkpt lat="46.15984" lon="6.53577">
        <ele>1283.4</ele>
        <time>2021-06-26T07:10:29Z</time>
      </trkpt>
      <trkpt lat="46.15985" lon="6.5358">
        <ele>1283.6</ele>
        <time>2021-06-26T07:10:30Z</time>
      </trkpt>
      <trkpt lat="46.15986" lon="6.53583">
        <ele>1283.8</ele>
        <time>2021-06-26T07:10:31Z</time>
      </trkpt>
      <trkpt lat="46.15986" lon="6.53586">
        <ele>1284.2</ele>
        <time>2021-06-26T07:10:32Z</time>
      </trkpt>
      <trkpt lat="46.15986" lon="6.53589">
        <ele>1284.4</ele>
        <time>2021-06-26T07:10:33Z</time>
      </trkpt>
      <trkpt lat="46.15986" lon="6.53592">
        <ele>1284.6</ele>
        <time>2021-06-26T07:10:34Z</time>
      </trkpt>
      <trkpt lat="46.15986" lon="6.53595">
        <ele>1284.8</ele>
        <time>2021-06-26T07:10:35Z</time>
      </trkpt>
      <trkpt lat="46.15986" lon="6.53598">
        <ele>1284.8</ele>
        <time>2021-06-26T07:10:36Z</time>
      </trkpt>
      <trkpt lat="46.15986" lon="6.536">
        <ele>1285</ele>
        <time>2021-06-26T07:10:37Z</time>
      </trkpt>
      <trkpt lat="46.15985" lon="6.53603">
        <ele>1285.4</ele>
        <time>2021-06-26T07:10:38Z</time>
      </trkpt>
      <trkpt lat="46.15985" lon="6.53606">
        <ele>1285.6</ele>
        <time>2021-06-26T07:10:39Z</time>
      </trkpt>
      <trkpt lat="46.15985" lon="6.53608">
        <ele>1285.8</ele>
        <time>2021-06-26T07:10:40Z</time>
      </trkpt>
      <trkpt lat="46.15984" lon="6.53611">
        <ele>1286.2</ele>
        <time>2021-06-26T07:10:41Z</time>
      </trkpt>
      <trkpt lat="46.15984" lon="6.53614">
        <ele>1286.2</ele>
        <time>2021-06-26T07:10:42Z</time>
      </trkpt>
      <trkpt lat="46.15984" lon="6.53616">
        <ele>1286.6</ele>
        <time>2021-06-26T07:10:43Z</time>
      </trkpt>
      <trkpt lat="46.15983" lon="6.53619">
        <ele>1287</ele>
        <time>2021-06-26T07:10:44Z</time>
      </trkpt>
      <trkpt lat="46.15983" lon="6.53622">
        <ele>1287.2</ele>
        <time>2021-06-26T07:10:45Z</time>
      </trkpt>
      <trkpt lat="46.15983" lon="6.53624">
        <ele>1287.6</ele>
        <time>2021-06-26T07:10:46Z</time>
      </trkpt>
      <trkpt lat="46.15983" lon="6.53627">
        <ele>1287.8</ele>
        <time>2021-06-26T07:10:47Z</time>
      </trkpt>
      <trkpt lat="46.15983" lon="6.5363">
        <ele>1288</ele>
        <time>2021-06-26T07:10:48Z</time>
      </trkpt>
      <trkpt lat="46.15984" lon="6.53633">
        <ele>1288.2</ele>
        <time>2021-06-26T07:10:49Z</time>
      </trkpt>
      <trkpt lat="46.15984" lon="6.53636">
        <ele>1288.6</ele>
        <time>2021-06-26T07:10:50Z</time>
      </trkpt>
      <trkpt lat="46.15985" lon="6.53639">
        <ele>1289</ele>
        <time>2021-06-26T07:10:51Z</time>
      </trkpt>
      <trkpt lat="46.15985" lon="6.53641">
        <ele>1289.2</ele>
        <time>2021-06-26T07:10:52Z</time>
      </trkpt>
      <trkpt lat="46.15986" lon="6.53644">
        <ele>1289.6</ele>
        <time>2021-06-26T07:10:53Z</time>
      </trkpt>
      <trkpt lat="46.15987" lon="6.53647">
        <ele>1290.2</ele>
        <time>2021-06-26T07:10:54Z</time>
      </trkpt>
      <trkpt lat="46.15988" lon="6.5365">
        <ele>1290.2</ele>
        <time>2021-06-26T07:10:55Z</time>
      </trkpt>
      <trkpt lat="46.15988" lon="6.53652">
        <ele>1290.6</ele>
        <time>2021-06-26T07:10:56Z</time>
      </trkpt>
      <trkpt lat="46.15989" lon="6.53655">
        <ele>1291</ele>
        <time>2021-06-26T07:10:57Z</time>
      </trkpt>
      <trkpt lat="46.1599" lon="6.53658">
        <ele>1291</ele>
        <time>2021-06-26T07:10:58Z</time>
      </trkpt>
      <trkpt lat="46.1599" lon="6.53661">
        <ele>1291.2</ele>
        <time>2021-06-26T07:10:59Z</time>
      </trkpt>
      <trkpt lat="46.15991" lon="6.53664">
        <ele>1291.6</ele>
        <time>2021-06-26T07:11:00Z</time>
      </trkpt>
      <trkpt lat="46.15992" lon="6.53667">
        <ele>1291.8</ele>
        <time>2021-06-26T07:11:01Z</time>
      </trkpt>
      <trkpt lat="46.15992" lon="6.53669">
        <ele>1292</ele>
        <time>2021-06-26T07:11:02Z</time>
      </trkpt>
      <trkpt lat="46.15993" lon="6.53672">
        <ele>1292.2</ele>
        <time>2021-06-26T07:11:03Z</time>
      </trkpt>
      <trkpt lat="46.15993" lon="6.53675">
        <ele>1292.6</ele>
        <time>2021-06-26T07:11:04Z</time>
      </trkpt>
      <trkpt lat="46.15994" lon="6.53678">
        <ele>1292.8</ele>
        <time>2021-06-26T07:11:05Z</time>
      </trkpt>
      <trkpt lat="46.15995" lon="6.53682">
        <ele>1293</ele>
        <time>2021-06-26T07:11:06Z</time>
      </trkpt>
      <trkpt lat="46.15995" lon="6.53685">
        <ele>1293.2</ele>
        <time>2021-06-26T07:11:07Z</time>
      </trkpt>
      <trkpt lat="46.15996" lon="6.53688">
        <ele>1293.6</ele>
        <time>2021-06-26T07:11:08Z</time>
      </trkpt>
      <trkpt lat="46.15997" lon="6.53692">
        <ele>1293.8</ele>
        <time>2021-06-26T07:11:09Z</time>
      </trkpt>
      <trkpt lat="46.15998" lon="6.53695">
        <ele>1293.8</ele>
        <time>2021-06-26T07:11:10Z</time>
      </trkpt>
      <trkpt lat="46.15998" lon="6.53698">
        <ele>1294.2</ele>
        <time>2021-06-26T07:11:11Z</time>
      </trkpt>
      <trkpt lat="46.15999" lon="6.53701">
        <ele>1294.4</ele>
        <time>2021-06-26T07:11:12Z</time>
      </trkpt>
      <trkpt lat="46.15999" lon="6.53704">
        <ele>1294.8</ele>
        <time>2021-06-26T07:11:13Z</time>
      </trkpt>
      <trkpt lat="46.16" lon="6.53707">
        <ele>1294.8</ele>
        <time>2021-06-26T07:11:14Z</time>
      </trkpt>
      <trkpt lat="46.16001" lon="6.5371">
        <ele>1295</ele>
        <time>2021-06-26T07:11:15Z</time>
      </trkpt>
      <trkpt lat="46.16002" lon="6.53713">
        <ele>1295.4</ele>
        <time>2021-06-26T07:11:16Z</time>
      </trkpt>
      <trkpt lat="46.16002" lon="6.53716">
        <ele>1295.6</ele>
        <time>2021-06-26T07:11:17Z</time>
      </trkpt>
      <trkpt lat="46.16003" lon="6.53719">
        <ele>1295.8</ele>
        <time>2021-06-26T07:11:18Z</time>
      </trkpt>
      <trkpt lat="46.16005" lon="6.53722">
        <ele>1295.8</ele>
        <time>2021-06-26T07:11:19Z</time>
      </trkpt>
      <trkpt lat="46.16005" lon="6.53725">
        <ele>1296.4</ele>
        <time>2021-06-26T07:11:20Z</time>
      </trkpt>
      <trkpt lat="46.16006" lon="6.53728">
        <ele>1296.4</ele>
        <time>2021-06-26T07:11:21Z</time>
      </trkpt>
      <trkpt lat="46.16007" lon="6.5373">
        <ele>1296.8</ele>
        <time>2021-06-26T07:11:22Z</time>
      </trkpt>
      <trkpt lat="46.16007" lon="6.53733">
        <ele>1296.8</ele>
        <time>2021-06-26T07:11:23Z</time>
      </trkpt>
      <trkpt lat="46.16008" lon="6.53735">
        <ele>1297.2</ele>
        <time>2021-06-26T07:11:24Z</time>
      </trkpt>
      <trkpt lat="46.16009" lon="6.53738">
        <ele>1297.4</ele>
        <time>2021-06-26T07:11:25Z</time>
      </trkpt>
      <trkpt lat="46.16009" lon="6.5374">
        <ele>1297.6</ele>
        <time>2021-06-26T07:11:26Z</time>
      </trkpt>
      <trkpt lat="46.1601" lon="6.53743">
        <ele>1297.8</ele>
        <time>2021-06-26T07:11:27Z</time>
      </trkpt>
      <trkpt lat="46.16012" lon="6.53745">
        <ele>1298</ele>
        <time>2021-06-26T07:11:28Z</time>
      </trkpt>
      <trkpt lat="46.16013" lon="6.53747">
        <ele>1298.2</ele>
        <time>2021-06-26T07:11:29Z</time>
      </trkpt>
      <trkpt lat="46.16014" lon="6.53748">
        <ele>1298.6</ele>
        <time>2021-06-26T07:11:30Z</time>
      </trkpt>
      <trkpt lat="46.16015" lon="6.53749">
        <ele>1298.8</ele>
        <time>2021-06-26T07:11:31Z</time>
      </trkpt>
      <trkpt lat="46.16016" lon="6.5375">
        <ele>1299</ele>
        <time>2021-06-26T07:11:32Z</time>
      </trkpt>
      <trkpt lat="46.16016" lon="6.53747">
        <ele>1299.4</ele>
        <time>2021-06-26T07:11:33Z</time>
      </trkpt>
      <trkpt lat="46.16017" lon="6.53746">
        <ele>1299.4</ele>
        <time>2021-06-26T07:11:34Z</time>
      </trkpt>
      <trkpt lat="46.16019" lon="6.53746">
        <ele>1299.6</ele>
        <time>2021-06-26T07:11:35Z</time>
      </trkpt>
      <trkpt lat="46.1602" lon="6.53749">
        <ele>1300</ele>
        <time>2021-06-26T07:11:36Z</time>
      </trkpt>
      <trkpt lat="46.1602" lon="6.5375">
        <ele>1300.2</ele>
        <time>2021-06-26T07:11:37Z</time>
      </trkpt>
      <trkpt lat="46.1602" lon="6.53754">
        <ele>1300.4</ele>
        <time>2021-06-26T07:11:38Z</time>
      </trkpt>
      <trkpt lat="46.1602" lon="6.53757">
        <ele>1300.8</ele>
        <time>2021-06-26T07:11:39Z</time>
      </trkpt>
      <trkpt lat="46.16019" lon="6.5376">
        <ele>1301</ele>
        <time>2021-06-26T07:11:40Z</time>
      </trkpt>
      <trkpt lat="46.16019" lon="6.53763">
        <ele>1301.2</ele>
        <time>2021-06-26T07:11:41Z</time>
      </trkpt>
      <trkpt lat="46.16018" lon="6.53768">
        <ele>1301.2</ele>
        <time>2021-06-26T07:11:42Z</time>
      </trkpt>
      <trkpt lat="46.16017" lon="6.53772">
        <ele>1301.4</ele>
        <time>2021-06-26T07:11:43Z</time>
      </trkpt>
      <trkpt lat="46.16017" lon="6.53777">
        <ele>1301.6</ele>
        <time>2021-06-26T07:11:44Z</time>
      </trkpt>
      <trkpt lat="46.16016" lon="6.53781">
        <ele>1301.8</ele>
        <time>2021-06-26T07:11:45Z</time>
      </trkpt>
      <trkpt lat="46.16016" lon="6.53786">
        <ele>1302</ele>
        <time>2021-06-26T07:11:46Z</time>
      </trkpt>
      <trkpt lat="46.16015" lon="6.53791">
        <ele>1302.2</ele>
        <time>2021-06-26T07:11:47Z</time>
      </trkpt>
      <trkpt lat="46.16014" lon="6.53795">
        <ele>1302.6</ele>
        <time>2021-06-26T07:11:48Z</time>
      </trkpt>
      <trkpt lat="46.16014" lon="6.53799">
        <ele>1302.8</ele>
        <time>2021-06-26T07:11:49Z</time>
      </trkpt>
      <trkpt lat="46.16014" lon="6.53802">
        <ele>1303</ele>
        <time>2021-06-26T07:11:50Z</time>
      </trkpt>
      <trkpt lat="46.16013" lon="6.53805">
        <ele>1303.2</ele>
        <time>2021-06-26T07:11:51Z</time>
      </trkpt>
      <trkpt lat="46.16011" lon="6.53808">
        <ele>1303.4</ele>
        <time>2021-06-26T07:11:52Z</time>
      </trkpt>
      <trkpt lat="46.16011" lon="6.53812">
        <ele>1303.6</ele>
        <time>2021-06-26T07:11:53Z</time>
      </trkpt>
      <trkpt lat="46.1601" lon="6.53815">
        <ele>1304</ele>
        <time>2021-06-26T07:11:54Z</time>
      </trkpt>
      <trkpt lat="46.16009" lon="6.53819">
        <ele>1304.4</ele>
        <time>2021-06-26T07:11:55Z</time>
      </trkpt>
      <trkpt lat="46.16009" lon="6.53824">
        <ele>1304.6</ele>
        <time>2021-06-26T07:11:56Z</time>
      </trkpt>
      <trkpt lat="46.16009" lon="6.53829">
        <ele>1305</ele>
        <time>2021-06-26T07:11:57Z</time>
      </trkpt>
      <trkpt lat="46.16008" lon="6.53832">
        <ele>1305.2</ele>
        <time>2021-06-26T07:11:58Z</time>
      </trkpt>
      <trkpt lat="46.16007" lon="6.53835">
        <ele>1305.4</ele>
        <time>2021-06-26T07:11:59Z</time>
      </trkpt>
      <trkpt lat="46.16005" lon="6.53837">
        <ele>1305.6</ele>
        <time>2021-06-26T07:12:00Z</time>
      </trkpt>
      <trkpt lat="46.16003" lon="6.5384">
        <ele>1306</ele>
        <time>2021-06-26T07:12:01Z</time>
      </trkpt>
      <trkpt lat="46.16002" lon="6.53844">
        <ele>1306.2</ele>
        <time>2021-06-26T07:12:02Z</time>
      </trkpt>
      <trkpt lat="46.16" lon="6.53846">
        <ele>1306.2</ele>
        <time>2021-06-26T07:12:03Z</time>
      </trkpt>
      <trkpt lat="46.15997" lon="6.53848">
        <ele>1306.2</ele>
        <time>2021-06-26T07:12:04Z</time>
      </trkpt>
      <trkpt lat="46.15996" lon="6.53852">
        <ele>1306.6</ele>
        <time>2021-06-26T07:12:05Z</time>
      </trkpt>
      <trkpt lat="46.15996" lon="6.53857">
        <ele>1306.8</ele>
        <time>2021-06-26T07:12:06Z</time>
      </trkpt>
      <trkpt lat="46.15995" lon="6.5386">
        <ele>1307</ele>
        <time>2021-06-26T07:12:07Z</time>
      </trkpt>
      <trkpt lat="46.15996" lon="6.53864">
        <ele>1307.4</ele>
        <time>2021-06-26T07:12:08Z</time>
      </trkpt>
      <trkpt lat="46.15995" lon="6.53868">
        <ele>1307.4</ele>
        <time>2021-06-26T07:12:09Z</time>
      </trkpt>
      <trkpt lat="46.15995" lon="6.53871">
        <ele>1307.6</ele>
        <time>2021-06-26T07:12:10Z</time>
      </trkpt>
      <trkpt lat="46.15993" lon="6.53874">
        <ele>1308</ele>
        <time>2021-06-26T07:12:11Z</time>
      </trkpt>
      <trkpt lat="46.15992" lon="6.53877">
        <ele>1308</ele>
        <time>2021-06-26T07:12:12Z</time>
      </trkpt>
      <trkpt lat="46.15991" lon="6.53879">
        <ele>1308.4</ele>
        <time>2021-06-26T07:12:13Z</time>
      </trkpt>
      <trkpt lat="46.15989" lon="6.53882">
        <ele>1308.8</ele>
        <time>2021-06-26T07:12:14Z</time>
      </trkpt>
      <trkpt lat="46.15988" lon="6.53884">
        <ele>1308.8</ele>
        <time>2021-06-26T07:12:15Z</time>
      </trkpt>
      <trkpt lat="46.15987" lon="6.53887">
        <ele>1309.2</ele>
        <time>2021-06-26T07:12:16Z</time>
      </trkpt>
      <trkpt lat="46.15986" lon="6.5389">
        <ele>1309.4</ele>
        <time>2021-06-26T07:12:17Z</time>
      </trkpt>
      <trkpt lat="46.15985" lon="6.53894">
        <ele>1309.8</ele>
        <time>2021-06-26T07:12:18Z</time>
      </trkpt>
      <trkpt lat="46.15984" lon="6.53897">
        <ele>1310</ele>
        <time>2021-06-26T07:12:19Z</time>
      </trkpt>
      <trkpt lat="46.15984" lon="6.539">
        <ele>1310.4</ele>
        <time>2021-06-26T07:12:20Z</time>
      </trkpt>
      <trkpt lat="46.15983" lon="6.53903">
        <ele>1310.6</ele>
        <time>2021-06-26T07:12:21Z</time>
      </trkpt>
      <trkpt lat="46.15982" lon="6.53906">
        <ele>1311</ele>
        <time>2021-06-26T07:12:22Z</time>
      </trkpt>
      <trkpt lat="46.15982" lon="6.53909">
        <ele>1311.2</ele>
        <time>2021-06-26T07:12:23Z</time>
      </trkpt>
      <trkpt lat="46.15982" lon="6.53912">
        <ele>1311.4</ele>
        <time>2021-06-26T07:12:24Z</time>
      </trkpt>
      <trkpt lat="46.15981" lon="6.53916">
        <ele>1311.4</ele>
        <time>2021-06-26T07:12:25Z</time>
      </trkpt>
      <trkpt lat="46.15981" lon="6.53919">
        <ele>1311.6</ele>
        <time>2021-06-26T07:12:26Z</time>
      </trkpt>
      <trkpt lat="46.15981" lon="6.53923">
        <ele>1311.8</ele>
        <time>2021-06-26T07:12:27Z</time>
      </trkpt>
      <trkpt lat="46.1598" lon="6.53926">
        <ele>1312</ele>
        <time>2021-06-26T07:12:28Z</time>
      </trkpt>
      <trkpt lat="46.15979" lon="6.5393">
        <ele>1312.4</ele>
        <time>2021-06-26T07:12:29Z</time>
      </trkpt>
      <trkpt lat="46.15978" lon="6.53933">
        <ele>1312.6</ele>
        <time>2021-06-26T07:12:30Z</time>
      </trkpt>
      <trkpt lat="46.15978" lon="6.53936">
        <ele>1312.8</ele>
        <time>2021-06-26T07:12:31Z</time>
      </trkpt>
      <trkpt lat="46.15977" lon="6.53938">
        <ele>1313.2</ele>
        <time>2021-06-26T07:12:32Z</time>
      </trkpt>
      <trkpt lat="46.15977" lon="6.53941">
        <ele>1313.2</ele>
        <time>2021-06-26T07:12:33Z</time>
      </trkpt>
      <trkpt lat="46.15977" lon="6.53943">
        <ele>1313.6</ele>
        <time>2021-06-26T07:12:34Z</time>
      </trkpt>
      <trkpt lat="46.15976" lon="6.53945">
        <ele>1313.8</ele>
        <time>2021-06-26T07:12:35Z</time>
      </trkpt>
      <trkpt lat="46.15976" lon="6.53948">
        <ele>1314</ele>
        <time>2021-06-26T07:12:36Z</time>
      </trkpt>
      <trkpt lat="46.15976" lon="6.5395">
        <ele>1314.2</ele>
        <time>2021-06-26T07:12:37Z</time>
      </trkpt>
      <trkpt lat="46.15975" lon="6.53954">
        <ele>1314.4</ele>
        <time>2021-06-26T07:12:38Z</time>
      </trkpt>
      <trkpt lat="46.15974" lon="6.53957">
        <ele>1314.8</ele>
        <time>2021-06-26T07:12:39Z</time>
      </trkpt>
      <trkpt lat="46.15973" lon="6.5396">
        <ele>1315.2</ele>
        <time>2021-06-26T07:12:40Z</time>
      </trkpt>
      <trkpt lat="46.15972" lon="6.53962">
        <ele>1315.4</ele>
        <time>2021-06-26T07:12:41Z</time>
      </trkpt>
      <trkpt lat="46.15971" lon="6.53966">
        <ele>1315.6</ele>
        <time>2021-06-26T07:12:42Z</time>
      </trkpt>
      <trkpt lat="46.15971" lon="6.5397">
        <ele>1316</ele>
        <time>2021-06-26T07:12:43Z</time>
      </trkpt>
      <trkpt lat="46.15971" lon="6.53974">
        <ele>1316.2</ele>
        <time>2021-06-26T07:12:44Z</time>
      </trkpt>
      <trkpt lat="46.15971" lon="6.53976">
        <ele>1316.6</ele>
        <time>2021-06-26T07:12:45Z</time>
      </trkpt>
      <trkpt lat="46.15971" lon="6.53977">
        <ele>1316.8</ele>
        <time>2021-06-26T07:12:46Z</time>
      </trkpt>
      <trkpt lat="46.1597" lon="6.53979">
        <ele>1316.8</ele>
        <time>2021-06-26T07:12:47Z</time>
      </trkpt>
      <trkpt lat="46.1597" lon="6.53981">
        <ele>1317.2</ele>
        <time>2021-06-26T07:12:48Z</time>
      </trkpt>
      <trkpt lat="46.1597" lon="6.53982">
        <ele>1317.6</ele>
        <time>2021-06-26T07:12:49Z</time>
      </trkpt>
      <trkpt lat="46.1597" lon="6.53984">
        <ele>1317.6</ele>
        <time>2021-06-26T07:12:50Z</time>
      </trkpt>
      <trkpt lat="46.1597" lon="6.53986">
        <ele>1318</ele>
        <time>2021-06-26T07:12:51Z</time>
      </trkpt>
      <trkpt lat="46.1597" lon="6.53988">
        <ele>1318.2</ele>
        <time>2021-06-26T07:12:52Z</time>
      </trkpt>
      <trkpt lat="46.15969" lon="6.53989">
        <ele>1318.2</ele>
        <time>2021-06-26T07:12:53Z</time>
      </trkpt>
      <trkpt lat="46.15969" lon="6.53991">
        <ele>1318.6</ele>
        <time>2021-06-26T07:12:54Z</time>
      </trkpt>
      <trkpt lat="46.15969" lon="6.53993">
        <ele>1319</ele>
        <time>2021-06-26T07:12:55Z</time>
      </trkpt>
      <trkpt lat="46.15967" lon="6.54012">
        <ele>1319.2</ele>
        <time>2021-06-26T07:12:56Z</time>
      </trkpt>
      <trkpt lat="46.15966" lon="6.54014">
        <ele>1319.4</ele>
        <time>2021-06-26T07:12:57Z</time>
      </trkpt>
      <trkpt lat="46.15966" lon="6.54015">
        <ele>1319.6</ele>
        <time>2021-06-26T07:12:58Z</time>
      </trkpt>
      <trkpt lat="46.15965" lon="6.54017">
        <ele>1320</ele>
        <time>2021-06-26T07:12:59Z</time>
      </trkpt>
      <trkpt lat="46.15965" lon="6.54018">
        <ele>1320.2</ele>
        <time>2021-06-26T07:13:00Z</time>
      </trkpt>
      <trkpt lat="46.15964" lon="6.54019">
        <ele>1320.6</ele>
        <time>2021-06-26T07:13:01Z</time>
      </trkpt>
      <trkpt lat="46.15964" lon="6.54021">
        <ele>1320.8</ele>
        <time>2021-06-26T07:13:02Z</time>
      </trkpt>
      <trkpt lat="46.15963" lon="6.54022">
        <ele>1320.8</ele>
        <time>2021-06-26T07:13:03Z</time>
      </trkpt>
      <trkpt lat="46.15963" lon="6.54023">
        <ele>1321.2</ele>
        <time>2021-06-26T07:13:04Z</time>
      </trkpt>
      <trkpt lat="46.15962" lon="6.54025">
        <ele>1321.4</ele>
        <time>2021-06-26T07:13:05Z</time>
      </trkpt>
      <trkpt lat="46.15962" lon="6.54026">
        <ele>1321.8</ele>
        <time>2021-06-26T07:13:06Z</time>
      </trkpt>
      <trkpt lat="46.15961" lon="6.54028">
        <ele>1322</ele>
        <time>2021-06-26T07:13:07Z</time>
      </trkpt>
      <trkpt lat="46.15961" lon="6.54029">
        <ele>1322.4</ele>
        <time>2021-06-26T07:13:08Z</time>
      </trkpt>
      <trkpt lat="46.1596" lon="6.5403">
        <ele>1322.4</ele>
        <time>2021-06-26T07:13:09Z</time>
      </trkpt>
      <trkpt lat="46.1596" lon="6.54032">
        <ele>1322.8</ele>
        <time>2021-06-26T07:13:10Z</time>
      </trkpt>
      <trkpt lat="46.15959" lon="6.54033">
        <ele>1323.2</ele>
        <time>2021-06-26T07:13:11Z</time>
      </trkpt>
      <trkpt lat="46.15959" lon="6.54034">
        <ele>1323.6</ele>
        <time>2021-06-26T07:13:12Z</time>
      </trkpt>
      <trkpt lat="46.15958" lon="6.54036">
        <ele>1323.8</ele>
        <time>2021-06-26T07:13:13Z</time>
      </trkpt>
      <trkpt lat="46.15958" lon="6.54037">
        <ele>1324.4</ele>
        <time>2021-06-26T07:13:14Z</time>
      </trkpt>
      <trkpt lat="46.15957" lon="6.54039">
        <ele>1324.8</ele>
        <time>2021-06-26T07:13:15Z</time>
      </trkpt>
      <trkpt lat="46.15957" lon="6.5404">
        <ele>1325</ele>
        <time>2021-06-26T07:13:16Z</time>
      </trkpt>
      <trkpt lat="46.15956" lon="6.54041">
        <ele>1325.2</ele>
        <time>2021-06-26T07:13:17Z</time>
      </trkpt>
      <trkpt lat="46.15956" lon="6.54043">
        <ele>1325.4</ele>
        <time>2021-06-26T07:13:18Z</time>
      </trkpt>
      <trkpt lat="46.15955" lon="6.54044">
        <ele>1325.8</ele>
        <time>2021-06-26T07:13:19Z</time>
      </trkpt>
      <trkpt lat="46.15955" lon="6.54045">
        <ele>1326</ele>
        <time>2021-06-26T07:13:20Z</time>
      </trkpt>
      <trkpt lat="46.15954" lon="6.54047">
        <ele>1326.2</ele>
        <time>2021-06-26T07:13:21Z</time>
      </trkpt>
      <trkpt lat="46.15954" lon="6.54048">
        <ele>1326.6</ele>
        <time>2021-06-26T07:13:22Z</time>
      </trkpt>
      <trkpt lat="46.15953" lon="6.54049">
        <ele>1327</ele>
        <time>2021-06-26T07:13:23Z</time>
      </trkpt>
      <trkpt lat="46.15953" lon="6.54051">
        <ele>1327.2</ele>
        <time>2021-06-26T07:13:24Z</time>
      </trkpt>
      <trkpt lat="46.15952" lon="6.54052">
        <ele>1327.4</ele>
        <time>2021-06-26T07:13:25Z</time>
      </trkpt>
      <trkpt lat="46.15952" lon="6.54054">
        <ele>1327.8</ele>
        <time>2021-06-26T07:13:26Z</time>
      </trkpt>
      <trkpt lat="46.15951" lon="6.54055">
        <ele>1328</ele>
        <time>2021-06-26T07:13:27Z</time>
      </trkpt>
      <trkpt lat="46.15951" lon="6.54056">
        <ele>1328</ele>
        <time>2021-06-26T07:13:28Z</time>
      </trkpt>
      <trkpt lat="46.1595" lon="6.54058">
        <ele>1328.2</ele>
        <time>2021-06-26T07:13:29Z</time>
      </trkpt>
      <trkpt lat="46.1595" lon="6.54059">
        <ele>1328.8</ele>
        <time>2021-06-26T07:13:30Z</time>
      </trkpt>
      <trkpt lat="46.15949" lon="6.5406">
        <ele>1328.8</ele>
        <time>2021-06-26T07:13:31Z</time>
      </trkpt>
      <trkpt lat="46.15949" lon="6.54062">
        <ele>1328.8</ele>
        <time>2021-06-26T07:13:32Z</time>
      </trkpt>
      <trkpt lat="46.15948" lon="6.54063">
        <ele>1329.2</ele>
        <time>2021-06-26T07:13:33Z</time>
      </trkpt>
      <trkpt lat="46.15948" lon="6.54065">
        <ele>1329.4</ele>
        <time>2021-06-26T07:13:34Z</time>
      </trkpt>
      <trkpt lat="46.15947" lon="6.54066">
        <ele>1329.8</ele>
        <time>2021-06-26T07:13:35Z</time>
      </trkpt>
      <trkpt lat="46.15947" lon="6.54067">
        <ele>1330.4</ele>
        <time>2021-06-26T07:13:36Z</time>
      </trkpt>
      <trkpt lat="46.15946" lon="6.54069">
        <ele>1330.6</ele>
        <time>2021-06-26T07:13:37Z</time>
      </trkpt>
      <trkpt lat="46.15946" lon="6.5407">
        <ele>1330.8</ele>
        <time>2021-06-26T07:13:38Z</time>
      </trkpt>
      <trkpt lat="46.15945" lon="6.54071">
        <ele>1331</ele>
        <time>2021-06-26T07:13:39Z</time>
      </trkpt>
      <trkpt lat="46.15945" lon="6.54073">
        <ele>1331.4</ele>
        <time>2021-06-26T07:13:40Z</time>
      </trkpt>
      <trkpt lat="46.15944" lon="6.54074">
        <ele>1331.6</ele>
        <time>2021-06-26T07:13:41Z</time>
      </trkpt>
      <trkpt lat="46.15944" lon="6.54076">
        <ele>1332</ele>
        <time>2021-06-26T07:13:42Z</time>
      </trkpt>
      <trkpt lat="46.15943" lon="6.54077">
        <ele>1332</ele>
        <time>2021-06-26T07:13:43Z</time>
      </trkpt>
      <trkpt lat="46.15943" lon="6.54078">
        <ele>1332.6</ele>
        <time>2021-06-26T07:13:44Z</time>
      </trkpt>
      <trkpt lat="46.15942" lon="6.5408">
        <ele>1332.6</ele>
        <time>2021-06-26T07:13:45Z</time>
      </trkpt>
      <trkpt lat="46.15942" lon="6.54081">
        <ele>1333</ele>
        <time>2021-06-26T07:13:46Z</time>
      </trkpt>
      <trkpt lat="46.15942" lon="6.54082">
        <ele>1333.2</ele>
        <time>2021-06-26T07:13:47Z</time>
      </trkpt>
      <trkpt lat="46.15941" lon="6.54084">
        <ele>1333.4</ele>
        <time>2021-06-26T07:13:48Z</time>
      </trkpt>
      <trkpt lat="46.15941" lon="6.54085">
        <ele>1333.6</ele>
        <time>2021-06-26T07:13:49Z</time>
      </trkpt>
      <trkpt lat="46.1594" lon="6.54087">
        <ele>1333.8</ele>
        <time>2021-06-26T07:13:50Z</time>
      </trkpt>
      <trkpt lat="46.1594" lon="6.54088">
        <ele>1334</ele>
        <time>2021-06-26T07:13:51Z</time>
      </trkpt>
      <trkpt lat="46.15939" lon="6.54089">
        <ele>1334.4</ele>
        <time>2021-06-26T07:13:52Z</time>
      </trkpt>
      <trkpt lat="46.15939" lon="6.54091">
        <ele>1334.4</ele>
        <time>2021-06-26T07:13:53Z</time>
      </trkpt>
      <trkpt lat="46.15938" lon="6.54092">
        <ele>1334.6</ele>
        <time>2021-06-26T07:13:54Z</time>
      </trkpt>
      <trkpt lat="46.15938" lon="6.54093">
        <ele>1334.8</ele>
        <time>2021-06-26T07:13:55Z</time>
      </trkpt>
      <trkpt lat="46.15937" lon="6.54095">
        <ele>1335.2</ele>
        <time>2021-06-26T07:13:56Z</time>
      </trkpt>
      <trkpt lat="46.15937" lon="6.54096">
        <ele>1335.4</ele>
        <time>2021-06-26T07:13:57Z</time>
      </trkpt>
      <trkpt lat="46.15936" lon="6.54098">
        <ele>1335.6</ele>
        <time>2021-06-26T07:13:58Z</time>
      </trkpt>
      <trkpt lat="46.15936" lon="6.54099">
        <ele>1335.8</ele>
        <time>2021-06-26T07:13:59Z</time>
      </trkpt>
      <trkpt lat="46.15935" lon="6.541">
        <ele>1336</ele>
        <time>2021-06-26T07:14:00Z</time>
      </trkpt>
      <trkpt lat="46.15935" lon="6.54102">
        <ele>1336.4</ele>
        <time>2021-06-26T07:14:01Z</time>
      </trkpt>
      <trkpt lat="46.15934" lon="6.54103">
        <ele>1336.6</ele>
        <time>2021-06-26T07:14:02Z</time>
      </trkpt>
      <trkpt lat="46.15934" lon="6.54104">
        <ele>1336.8</ele>
        <time>2021-06-26T07:14:03Z</time>
      </trkpt>
      <trkpt lat="46.15933" lon="6.54106">
        <ele>1337.2</ele>
        <time>2021-06-26T07:14:04Z</time>
      </trkpt>
      <trkpt lat="46.15933" lon="6.54107">
        <ele>1337.4</ele>
        <time>2021-06-26T07:14:05Z</time>
      </trkpt>
      <trkpt lat="46.15932" lon="6.54109">
        <ele>1337.6</ele>
        <time>2021-06-26T07:14:06Z</time>
      </trkpt>
      <trkpt lat="46.15932" lon="6.5411">
        <ele>1337.8</ele>
        <time>2021-06-26T07:14:07Z</time>
      </trkpt>
      <trkpt lat="46.15931" lon="6.54111">
        <ele>1338.2</ele>
        <time>2021-06-26T07:14:08Z</time>
      </trkpt>
      <trkpt lat="46.15931" lon="6.54113">
        <ele>1338.6</ele>
        <time>2021-06-26T07:14:09Z</time>
      </trkpt>
      <trkpt lat="46.1593" lon="6.54114">
        <ele>1338.8</ele>
        <time>2021-06-26T07:14:10Z</time>
      </trkpt>
      <trkpt lat="46.1593" lon="6.54115">
        <ele>1339</ele>
        <time>2021-06-26T07:14:11Z</time>
      </trkpt>
      <trkpt lat="46.15929" lon="6.54117">
        <ele>1339.4</ele>
        <time>2021-06-26T07:14:12Z</time>
      </trkpt>
      <trkpt lat="46.15929" lon="6.54118">
        <ele>1339.6</ele>
        <time>2021-06-26T07:14:13Z</time>
      </trkpt>
      <trkpt lat="46.15928" lon="6.5412">
        <ele>1340</ele>
        <time>2021-06-26T07:14:14Z</time>
      </trkpt>
      <trkpt lat="46.15928" lon="6.54121">
        <ele>1340</ele>
        <time>2021-06-26T07:14:15Z</time>
      </trkpt>
      <trkpt lat="46.15927" lon="6.54122">
        <ele>1340</ele>
        <time>2021-06-26T07:14:16Z</time>
      </trkpt>
      <trkpt lat="46.15927" lon="6.54124">
        <ele>1340.4</ele>
        <time>2021-06-26T07:14:17Z</time>
      </trkpt>
      <trkpt lat="46.15926" lon="6.54125">
        <ele>1341</ele>
        <time>2021-06-26T07:14:18Z</time>
      </trkpt>
      <trkpt lat="46.15926" lon="6.54126">
        <ele>1341.2</ele>
        <time>2021-06-26T07:14:19Z</time>
      </trkpt>
      <trkpt lat="46.15925" lon="6.54128">
        <ele>1341.4</ele>
        <time>2021-06-26T07:14:20Z</time>
      </trkpt>
      <trkpt lat="46.15925" lon="6.54129">
        <ele>1341.8</ele>
        <time>2021-06-26T07:14:21Z</time>
      </trkpt>
      <trkpt lat="46.15924" lon="6.5413">
        <ele>1342.2</ele>
        <time>2021-06-26T07:14:22Z</time>
      </trkpt>
      <trkpt lat="46.15924" lon="6.54132">
        <ele>1342.4</ele>
        <time>2021-06-26T07:14:23Z</time>
      </trkpt>
      <trkpt lat="46.15923" lon="6.54133">
        <ele>1342.8</ele>
        <time>2021-06-26T07:14:24Z</time>
      </trkpt>
      <trkpt lat="46.15923" lon="6.54135">
        <ele>1343</ele>
        <time>2021-06-26T07:14:25Z</time>
      </trkpt>
      <trkpt lat="46.15922" lon="6.54136">
        <ele>1343</ele>
        <time>2021-06-26T07:14:26Z</time>
      </trkpt>
      <trkpt lat="46.15922" lon="6.54137">
        <ele>1343.4</ele>
        <time>2021-06-26T07:14:27Z</time>
      </trkpt>
      <trkpt lat="46.15921" lon="6.54139">
        <ele>1343.6</ele>
        <time>2021-06-26T07:14:28Z</time>
      </trkpt>
      <trkpt lat="46.15921" lon="6.5414">
        <ele>1344</ele>
        <time>2021-06-26T07:14:29Z</time>
      </trkpt>
      <trkpt lat="46.1592" lon="6.54141">
        <ele>1344.2</ele>
        <time>2021-06-26T07:14:30Z</time>
      </trkpt>
      <trkpt lat="46.1592" lon="6.54143">
        <ele>1344.6</ele>
        <time>2021-06-26T07:14:31Z</time>
      </trkpt>
      <trkpt lat="46.15919" lon="6.54144">
        <ele>1344.8</ele>
        <time>2021-06-26T07:14:32Z</time>
      </trkpt>
      <trkpt lat="46.15919" lon="6.54146">
        <ele>1345.2</ele>
        <time>2021-06-26T07:14:33Z</time>
      </trkpt>
      <trkpt lat="46.15918" lon="6.54147">
        <ele>1345.4</ele>
        <time>2021-06-26T07:14:34Z</time>
      </trkpt>
      <trkpt lat="46.15918" lon="6.54148">
        <ele>1345.4</ele>
        <time>2021-06-26T07:14:35Z</time>
      </trkpt>
      <trkpt lat="46.15917" lon="6.5415">
        <ele>1345.8</ele>
        <time>2021-06-26T07:14:36Z</time>
      </trkpt>
      <trkpt lat="46.15917" lon="6.54151">
        <ele>1345.8</ele>
        <time>2021-06-26T07:14:37Z</time>
      </trkpt>
      <trkpt lat="46.15916" lon="6.54152">
        <ele>1346</ele>
        <time>2021-06-26T07:14:38Z</time>
      </trkpt>
      <trkpt lat="46.15916" lon="6.54154">
        <ele>1346.2</ele>
        <time>2021-06-26T07:14:39Z</time>
      </trkpt>
      <trkpt lat="46.15915" lon="6.54155">
        <ele>1346.4</ele>
        <time>2021-06-26T07:14:40Z</time>
      </trkpt>
      <trkpt lat="46.15915" lon="6.54157">
        <ele>1346.6</ele>
        <time>2021-06-26T07:14:41Z</time>
      </trkpt>
      <trkpt lat="46.15914" lon="6.54158">
        <ele>1346.8</ele>
        <time>2021-06-26T07:14:42Z</time>
      </trkpt>
      <trkpt lat="46.15914" lon="6.54159">
        <ele>1347.2</ele>
        <time>2021-06-26T07:14:43Z</time>
      </trkpt>
      <trkpt lat="46.15913" lon="6.54161">
        <ele>1347.4</ele>
        <time>2021-06-26T07:14:44Z</time>
      </trkpt>
      <trkpt lat="46.15913" lon="6.54162">
        <ele>1347.8</ele>
        <time>2021-06-26T07:14:45Z</time>
      </trkpt>
      <trkpt lat="46.15912" lon="6.54163">
        <ele>1348</ele>
        <time>2021-06-26T07:14:46Z</time>
      </trkpt>
      <trkpt lat="46.15912" lon="6.54165">
        <ele>1348.2</ele>
        <time>2021-06-26T07:14:47Z</time>
      </trkpt>
      <trkpt lat="46.15911" lon="6.54166">
        <ele>1348.6</ele>
        <time>2021-06-26T07:14:48Z</time>
      </trkpt>
      <trkpt lat="46.15911" lon="6.54168">
        <ele>1348.6</ele>
        <time>2021-06-26T07:14:49Z</time>
      </trkpt>
      <trkpt lat="46.1591" lon="6.54169">
        <ele>1348.8</ele>
        <time>2021-06-26T07:14:50Z</time>
      </trkpt>
      <trkpt lat="46.1591" lon="6.5417">
        <ele>1349.2</ele>
        <time>2021-06-26T07:14:51Z</time>
      </trkpt>
      <trkpt lat="46.15909" lon="6.54172">
        <ele>1349.4</ele>
        <time>2021-06-26T07:14:52Z</time>
      </trkpt>
      <trkpt lat="46.15909" lon="6.54173">
        <ele>1349.6</ele>
        <time>2021-06-26T07:14:53Z</time>
      </trkpt>
      <trkpt lat="46.15908" lon="6.54174">
        <ele>1349.8</ele>
        <time>2021-06-26T07:14:54Z</time>
      </trkpt>
      <trkpt lat="46.15908" lon="6.54176">
        <ele>1350.2</ele>
        <time>2021-06-26T07:14:55Z</time>
      </trkpt>
      <trkpt lat="46.15907" lon="6.54177">
        <ele>1350.4</ele>
        <time>2021-06-26T07:14:56Z</time>
      </trkpt>
      <trkpt lat="46.15907" lon="6.54179">
        <ele>1350.6</ele>
        <time>2021-06-26T07:14:57Z</time>
      </trkpt>
      <trkpt lat="46.15906" lon="6.5418">
        <ele>1350.6</ele>
        <time>2021-06-26T07:14:58Z</time>
      </trkpt>
      <trkpt lat="46.15906" lon="6.54181">
        <ele>1350.6</ele>
        <time>2021-06-26T07:14:59Z</time>
      </trkpt>
      <trkpt lat="46.15905" lon="6.54183">
        <ele>1351</ele>
        <time>2021-06-26T07:15:00Z</time>
      </trkpt>
      <trkpt lat="46.15905" lon="6.54184">
        <ele>1351.4</ele>
        <time>2021-06-26T07:15:01Z</time>
      </trkpt>
      <trkpt lat="46.15905" lon="6.54185">
        <ele>1351.6</ele>
        <time>2021-06-26T07:15:02Z</time>
      </trkpt>
      <trkpt lat="46.15904" lon="6.54187">
        <ele>1351.8</ele>
        <time>2021-06-26T07:15:03Z</time>
      </trkpt>
      <trkpt lat="46.15904" lon="6.54188">
        <ele>1352.2</ele>
        <time>2021-06-26T07:15:04Z</time>
      </trkpt>
      <trkpt lat="46.15903" lon="6.5419">
        <ele>1352.4</ele>
        <time>2021-06-26T07:15:05Z</time>
      </trkpt>
      <trkpt lat="46.15903" lon="6.54191">
        <ele>1352.8</ele>
        <time>2021-06-26T07:15:06Z</time>
      </trkpt>
      <trkpt lat="46.15902" lon="6.54192">
        <ele>1353</ele>
        <time>2021-06-26T07:15:07Z</time>
      </trkpt>
      <trkpt lat="46.15902" lon="6.54194">
        <ele>1353.2</ele>
        <time>2021-06-26T07:15:08Z</time>
      </trkpt>
      <trkpt lat="46.15839" lon="6.54376">
        <ele>1353.6</ele>
        <time>2021-06-26T07:15:09Z</time>
      </trkpt>
      <trkpt lat="46.15842" lon="6.54376">
        <ele>1353.8</ele>
        <time>2021-06-26T07:15:10Z</time>
      </trkpt>
      <trkpt lat="46.15843" lon="6.54378">
        <ele>1354</ele>
        <time>2021-06-26T07:15:11Z</time>
      </trkpt>
      <trkpt lat="46.15844" lon="6.5438">
        <ele>1354.2</ele>
        <time>2021-06-26T07:15:12Z</time>
      </trkpt>
      <trkpt lat="46.15846" lon="6.54382">
        <ele>1354.4</ele>
        <time>2021-06-26T07:15:13Z</time>
      </trkpt>
      <trkpt lat="46.15847" lon="6.54383">
        <ele>1354.8</ele>
        <time>2021-06-26T07:15:14Z</time>
      </trkpt>
      <trkpt lat="46.15847" lon="6.54386">
        <ele>1355</ele>
        <time>2021-06-26T07:15:15Z</time>
      </trkpt>
      <trkpt lat="46.15848" lon="6.54388">
        <ele>1355.2</ele>
        <time>2021-06-26T07:15:16Z</time>
      </trkpt>
      <trkpt lat="46.15848" lon="6.5439">
        <ele>1355.4</ele>
        <time>2021-06-26T07:15:17Z</time>
      </trkpt>
      <trkpt lat="46.15848" lon="6.54393">
        <ele>1355.6</ele>
        <time>2021-06-26T07:15:18Z</time>
      </trkpt>
      <trkpt lat="46.15848" lon="6.54396">
        <ele>1355.8</ele>
        <time>2021-06-26T07:15:19Z</time>
      </trkpt>
      <trkpt lat="46.15849" lon="6.54398">
        <ele>1355.8</ele>
        <time>2021-06-26T07:15:20Z</time>
      </trkpt>
      <trkpt lat="46.1585" lon="6.544">
        <ele>1356.4</ele>
        <time>2021-06-26T07:15:21Z</time>
      </trkpt>
      <trkpt lat="46.15849" lon="6.54406">
        <ele>1356.6</ele>
        <time>2021-06-26T07:15:23Z</time>
      </trkpt>
      <trkpt lat="46.15848" lon="6.54409">
        <ele>1357</ele>
        <time>2021-06-26T07:15:24Z</time>
      </trkpt>
      <trkpt lat="46.15848" lon="6.54411">
        <ele>1357.4</ele>
        <time>2021-06-26T07:15:25Z</time>
      </trkpt>
      <trkpt lat="46.15848" lon="6.54416">
        <ele>1357.8</ele>
        <time>2021-06-26T07:15:27Z</time>
      </trkpt>
      <trkpt lat="46.15848" lon="6.54419">
        <ele>1358</ele>
        <time>2021-06-26T07:15:28Z</time>
      </trkpt>
      <trkpt lat="46.15849" lon="6.54424">
        <ele>1358.6</ele>
        <time>2021-06-26T07:15:30Z</time>
      </trkpt>
      <trkpt lat="46.15849" lon="6.54427">
        <ele>1358.8</ele>
        <time>2021-06-26T07:15:31Z</time>
      </trkpt>
      <trkpt lat="46.15849" lon="6.5443">
        <ele>1359</ele>
        <time>2021-06-26T07:15:32Z</time>
      </trkpt>
      <trkpt lat="46.1585" lon="6.54432">
        <ele>1359.2</ele>
        <time>2021-06-26T07:15:33Z</time>
      </trkpt>
      <trkpt lat="46.1585" lon="6.54435">
        <ele>1359.6</ele>
        <time>2021-06-26T07:15:34Z</time>
      </trkpt>
      <trkpt lat="46.15851" lon="6.54438">
        <ele>1359.8</ele>
        <time>2021-06-26T07:15:35Z</time>
      </trkpt>
      <trkpt lat="46.15852" lon="6.54441">
        <ele>1360.2</ele>
        <time>2021-06-26T07:15:36Z</time>
      </trkpt>
      <trkpt lat="46.15853" lon="6.54444">
        <ele>1360.6</ele>
        <time>2021-06-26T07:15:37Z</time>
      </trkpt>
      <trkpt lat="46.15854" lon="6.54447">
        <ele>1360.8</ele>
        <time>2021-06-26T07:15:38Z</time>
      </trkpt>
      <trkpt lat="46.15855" lon="6.5445">
        <ele>1361.2</ele>
        <time>2021-06-26T07:15:39Z</time>
      </trkpt>
      <trkpt lat="46.15856" lon="6.54452">
        <ele>1361.4</ele>
        <time>2021-06-26T07:15:40Z</time>
      </trkpt>
      <trkpt lat="46.15856" lon="6.54455">
        <ele>1361.4</ele>
        <time>2021-06-26T07:15:41Z</time>
      </trkpt>
      <trkpt lat="46.15857" lon="6.54457">
        <ele>1361.6</ele>
        <time>2021-06-26T07:15:42Z</time>
      </trkpt>
      <trkpt lat="46.15858" lon="6.5446">
        <ele>1361.8</ele>
        <time>2021-06-26T07:15:43Z</time>
      </trkpt>
      <trkpt lat="46.1586" lon="6.54462">
        <ele>1362</ele>
        <time>2021-06-26T07:15:44Z</time>
      </trkpt>
      <trkpt lat="46.15861" lon="6.54464">
        <ele>1362</ele>
        <time>2021-06-26T07:15:45Z</time>
      </trkpt>
      <trkpt lat="46.15862" lon="6.54467">
        <ele>1362.4</ele>
        <time>2021-06-26T07:15:46Z</time>
      </trkpt>
      <trkpt lat="46.15863" lon="6.54469">
        <ele>1362.6</ele>
        <time>2021-06-26T07:15:47Z</time>
      </trkpt>
      <trkpt lat="46.15865" lon="6.54471">
        <ele>1362.8</ele>
        <time>2021-06-26T07:15:48Z</time>
      </trkpt>
      <trkpt lat="46.15866" lon="6.54473">
        <ele>1363</ele>
        <time>2021-06-26T07:15:49Z</time>
      </trkpt>
      <trkpt lat="46.15868" lon="6.54475">
        <ele>1363.4</ele>
        <time>2021-06-26T07:15:50Z</time>
      </trkpt>
      <trkpt lat="46.15869" lon="6.54478">
        <ele>1363.6</ele>
        <time>2021-06-26T07:15:51Z</time>
      </trkpt>
      <trkpt lat="46.15871" lon="6.5448">
        <ele>1363.8</ele>
        <time>2021-06-26T07:15:52Z</time>
      </trkpt>
      <trkpt lat="46.15873" lon="6.54482">
        <ele>1364</ele>
        <time>2021-06-26T07:15:53Z</time>
      </trkpt>
      <trkpt lat="46.15875" lon="6.54484">
        <ele>1364.4</ele>
        <time>2021-06-26T07:15:54Z</time>
      </trkpt>
      <trkpt lat="46.15876" lon="6.54486">
        <ele>1364.6</ele>
        <time>2021-06-26T07:15:55Z</time>
      </trkpt>
      <trkpt lat="46.15878" lon="6.54488">
        <ele>1364.8</ele>
        <time>2021-06-26T07:15:56Z</time>
      </trkpt>
      <trkpt lat="46.1588" lon="6.5449">
        <ele>1365.2</ele>
        <time>2021-06-26T07:15:57Z</time>
      </trkpt>
      <trkpt lat="46.15882" lon="6.54492">
        <ele>1365.4</ele>
        <time>2021-06-26T07:15:58Z</time>
      </trkpt>
      <trkpt lat="46.15884" lon="6.54494">
        <ele>1365.6</ele>
        <time>2021-06-26T07:15:59Z</time>
      </trkpt>
      <trkpt lat="46.15886" lon="6.54496">
        <ele>1366</ele>
        <time>2021-06-26T07:16:00Z</time>
      </trkpt>
      <trkpt lat="46.15888" lon="6.54497">
        <ele>1366.4</ele>
        <time>2021-06-26T07:16:01Z</time>
      </trkpt>
      <trkpt lat="46.1589" lon="6.54499">
        <ele>1366.6</ele>
        <time>2021-06-26T07:16:02Z</time>
      </trkpt>
      <trkpt lat="46.15892" lon="6.54501">
        <ele>1367</ele>
        <time>2021-06-26T07:16:03Z</time>
      </trkpt>
      <trkpt lat="46.15894" lon="6.54503">
        <ele>1367</ele>
        <time>2021-06-26T07:16:04Z</time>
      </trkpt>
      <trkpt lat="46.15896" lon="6.54505">
        <ele>1367</ele>
        <time>2021-06-26T07:16:05Z</time>
      </trkpt>
      <trkpt lat="46.15898" lon="6.54506">
        <ele>1367.2</ele>
        <time>2021-06-26T07:16:06Z</time>
      </trkpt>
      <trkpt lat="46.159" lon="6.54507">
        <ele>1367.4</ele>
        <time>2021-06-26T07:16:07Z</time>
      </trkpt>
      <trkpt lat="46.15902" lon="6.54509">
        <ele>1367.8</ele>
        <time>2021-06-26T07:16:08Z</time>
      </trkpt>
      <trkpt lat="46.15903" lon="6.5451">
        <ele>1368</ele>
        <time>2021-06-26T07:16:09Z</time>
      </trkpt>
      <trkpt lat="46.15905" lon="6.54511">
        <ele>1368.4</ele>
        <time>2021-06-26T07:16:10Z</time>
      </trkpt>
      <trkpt lat="46.15907" lon="6.54513">
        <ele>1368.6</ele>
        <time>2021-06-26T07:16:11Z</time>
      </trkpt>
      <trkpt lat="46.15908" lon="6.54515">
        <ele>1368.8</ele>
        <time>2021-06-26T07:16:12Z</time>
      </trkpt>
      <trkpt lat="46.15909" lon="6.54518">
        <ele>1369.2</ele>
        <time>2021-06-26T07:16:13Z</time>
      </trkpt>
      <trkpt lat="46.1591" lon="6.5452">
        <ele>1369.2</ele>
        <time>2021-06-26T07:16:14Z</time>
      </trkpt>
      <trkpt lat="46.1591" lon="6.54523">
        <ele>1369.8</ele>
        <time>2021-06-26T07:16:15Z</time>
      </trkpt>
      <trkpt lat="46.15911" lon="6.54525">
        <ele>1370</ele>
        <time>2021-06-26T07:16:16Z</time>
      </trkpt>
      <trkpt lat="46.15912" lon="6.54528">
        <ele>1370.2</ele>
        <time>2021-06-26T07:16:17Z</time>
      </trkpt>
      <trkpt lat="46.15913" lon="6.5453">
        <ele>1370.6</ele>
        <time>2021-06-26T07:16:18Z</time>
      </trkpt>
      <trkpt lat="46.15913" lon="6.54532">
        <ele>1370.6</ele>
        <time>2021-06-26T07:16:19Z</time>
      </trkpt>
      <trkpt lat="46.15914" lon="6.54535">
        <ele>1370.8</ele>
        <time>2021-06-26T07:16:20Z</time>
      </trkpt>
      <trkpt lat="46.15912" lon="6.5454">
        <ele>1371.2</ele>
        <time>2021-06-26T07:16:21Z</time>
      </trkpt>
      <trkpt lat="46.15912" lon="6.54544">
        <ele>1371.6</ele>
        <time>2021-06-26T07:16:22Z</time>
      </trkpt>
      <trkpt lat="46.15911" lon="6.54548">
        <ele>1371.8</ele>
        <time>2021-06-26T07:16:23Z</time>
      </trkpt>
      <trkpt lat="46.15912" lon="6.54551">
        <ele>1372</ele>
        <time>2021-06-26T07:16:24Z</time>
      </trkpt>
      <trkpt lat="46.15913" lon="6.54554">
        <ele>1372.2</ele>
        <time>2021-06-26T07:16:25Z</time>
      </trkpt>
      <trkpt lat="46.15914" lon="6.54558">
        <ele>1372.2</ele>
        <time>2021-06-26T07:16:26Z</time>
      </trkpt>
      <trkpt lat="46.15915" lon="6.5456">
        <ele>1372.6</ele>
        <time>2021-06-26T07:16:27Z</time>
      </trkpt>
      <trkpt lat="46.15916" lon="6.54563">
        <ele>1372.6</ele>
        <time>2021-06-26T07:16:28Z</time>
      </trkpt>
      <trkpt lat="46.15917" lon="6.54565">
        <ele>1373</ele>
        <time>2021-06-26T07:16:29Z</time>
      </trkpt>
      <trkpt lat="46.15919" lon="6.54568">
        <ele>1373.2</ele>
        <time>2021-06-26T07:16:30Z</time>
      </trkpt>
      <trkpt lat="46.15921" lon="6.5457">
        <ele>1373.4</ele>
        <time>2021-06-26T07:16:31Z</time>
      </trkpt>
      <trkpt lat="46.15922" lon="6.54573">
        <ele>1374</ele>
        <time>2021-06-26T07:16:32Z</time>
      </trkpt>
      <trkpt lat="46.15923" lon="6.54575">
        <ele>1374.2</ele>
        <time>2021-06-26T07:16:33Z</time>
      </trkpt>
      <trkpt lat="46.15924" lon="6.54578">
        <ele>1374.6</ele>
        <time>2021-06-26T07:16:34Z</time>
      </trkpt>
      <trkpt lat="46.15925" lon="6.5458">
        <ele>1374.8</ele>
        <time>2021-06-26T07:16:35Z</time>
      </trkpt>
      <trkpt lat="46.15926" lon="6.54583">
        <ele>1375</ele>
        <time>2021-06-26T07:16:36Z</time>
      </trkpt>
      <trkpt lat="46.15927" lon="6.54585">
        <ele>1375.4</ele>
        <time>2021-06-26T07:16:37Z</time>
      </trkpt>
      <trkpt lat="46.15928" lon="6.54588">
        <ele>1375.8</ele>
        <time>2021-06-26T07:16:38Z</time>
      </trkpt>
      <trkpt lat="46.15929" lon="6.54591">
        <ele>1376</ele>
        <time>2021-06-26T07:16:39Z</time>
      </trkpt>
      <trkpt lat="46.1593" lon="6.54593">
        <ele>1376.4</ele>
        <time>2021-06-26T07:16:40Z</time>
      </trkpt>
      <trkpt lat="46.15931" lon="6.54596">
        <ele>1376.8</ele>
        <time>2021-06-26T07:16:41Z</time>
      </trkpt>
      <trkpt lat="46.15932" lon="6.54599">
        <ele>1377</ele>
        <time>2021-06-26T07:16:42Z</time>
      </trkpt>
      <trkpt lat="46.15933" lon="6.54601">
        <ele>1377</ele>
        <time>2021-06-26T07:16:43Z</time>
      </trkpt>
      <trkpt lat="46.15934" lon="6.54604">
        <ele>1377.4</ele>
        <time>2021-06-26T07:16:44Z</time>
      </trkpt>
      <trkpt lat="46.15936" lon="6.54606">
        <ele>1377.8</ele>
        <time>2021-06-26T07:16:45Z</time>
      </trkpt>
      <trkpt lat="46.15937" lon="6.54608">
        <ele>1378</ele>
        <time>2021-06-26T07:16:46Z</time>
      </trkpt>
      <trkpt lat="46.15938" lon="6.5461">
        <ele>1378</ele>
        <time>2021-06-26T07:16:47Z</time>
      </trkpt>
      <trkpt lat="46.15939" lon="6.54612">
        <ele>1378.2</ele>
        <time>2021-06-26T07:16:48Z</time>
      </trkpt>
      <trkpt lat="46.15941" lon="6.54615">
        <ele>1378.4</ele>
        <time>2021-06-26T07:16:49Z</time>
      </trkpt>
      <trkpt lat="46.15942" lon="6.54617">
        <ele>1378.6</ele>
        <time>2021-06-26T07:16:50Z</time>
      </trkpt>
      <trkpt lat="46.15944" lon="6.54619">
        <ele>1378.8</ele>
        <time>2021-06-26T07:16:51Z</time>
      </trkpt>
      <trkpt lat="46.15945" lon="6.54622">
        <ele>1379.2</ele>
        <time>2021-06-26T07:16:52Z</time>
      </trkpt>
      <trkpt lat="46.15947" lon="6.54624">
        <ele>1379.4</ele>
        <time>2021-06-26T07:16:53Z</time>
      </trkpt>
      <trkpt lat="46.15948" lon="6.54626">
        <ele>1379.6</ele>
        <time>2021-06-26T07:16:54Z</time>
      </trkpt>
      <trkpt lat="46.1595" lon="6.54628">
        <ele>1379.8</ele>
        <time>2021-06-26T07:16:55Z</time>
      </trkpt>
      <trkpt lat="46.15951" lon="6.54631">
        <ele>1380</ele>
        <time>2021-06-26T07:16:56Z</time>
      </trkpt>
      <trkpt lat="46.15953" lon="6.54633">
        <ele>1380.2</ele>
        <time>2021-06-26T07:16:57Z</time>
      </trkpt>
      <trkpt lat="46.15954" lon="6.54636">
        <ele>1380.4</ele>
        <time>2021-06-26T07:16:58Z</time>
      </trkpt>
      <trkpt lat="46.15955" lon="6.54638">
        <ele>1380.8</ele>
        <time>2021-06-26T07:16:59Z</time>
      </trkpt>
      <trkpt lat="46.15956" lon="6.5464">
        <ele>1381</ele>
        <time>2021-06-26T07:17:00Z</time>
      </trkpt>
      <trkpt lat="46.15958" lon="6.54642">
        <ele>1381.4</ele>
        <time>2021-06-26T07:17:01Z</time>
      </trkpt>
      <trkpt lat="46.15959" lon="6.54644">
        <ele>1381.6</ele>
        <time>2021-06-26T07:17:02Z</time>
      </trkpt>
      <trkpt lat="46.1596" lon="6.54647">
        <ele>1381.8</ele>
        <time>2021-06-26T07:17:03Z</time>
      </trkpt>
      <trkpt lat="46.15961" lon="6.54649">
        <ele>1382.2</ele>
        <time>2021-06-26T07:17:04Z</time>
      </trkpt>
      <trkpt lat="46.15962" lon="6.54651">
        <ele>1382.6</ele>
        <time>2021-06-26T07:17:05Z</time>
      </trkpt>
      <trkpt lat="46.15963" lon="6.54653">
        <ele>1383</ele>
        <time>2021-06-26T07:17:06Z</time>
      </trkpt>
      <trkpt lat="46.15964" lon="6.54656">
        <ele>1383</ele>
        <time>2021-06-26T07:17:07Z</time>
      </trkpt>
      <trkpt lat="46.15964" lon="6.54658">
        <ele>1383.4</ele>
        <time>2021-06-26T07:17:08Z</time>
      </trkpt>
      <trkpt lat="46.15965" lon="6.54661">
        <ele>1383.4</ele>
        <time>2021-06-26T07:17:09Z</time>
      </trkpt>
      <trkpt lat="46.15966" lon="6.54663">
        <ele>1383.6</ele>
        <time>2021-06-26T07:17:10Z</time>
      </trkpt>
      <trkpt lat="46.15967" lon="6.54666">
        <ele>1384</ele>
        <time>2021-06-26T07:17:11Z</time>
      </trkpt>
      <trkpt lat="46.15968" lon="6.54669">
        <ele>1384.2</ele>
        <time>2021-06-26T07:17:12Z</time>
      </trkpt>
      <trkpt lat="46.15968" lon="6.54671">
        <ele>1384.4</ele>
        <time>2021-06-26T07:17:13Z</time>
      </trkpt>
      <trkpt lat="46.15969" lon="6.54674">
        <ele>1384.6</ele>
        <time>2021-06-26T07:17:14Z</time>
      </trkpt>
      <trkpt lat="46.1597" lon="6.54677">
        <ele>1384.8</ele>
        <time>2021-06-26T07:17:15Z</time>
      </trkpt>
      <trkpt lat="46.15971" lon="6.5468">
        <ele>1384.8</ele>
        <time>2021-06-26T07:17:16Z</time>
      </trkpt>
      <trkpt lat="46.15972" lon="6.54682">
        <ele>1385.2</ele>
        <time>2021-06-26T07:17:17Z</time>
      </trkpt>
      <trkpt lat="46.15973" lon="6.54685">
        <ele>1385.6</ele>
        <time>2021-06-26T07:17:18Z</time>
      </trkpt>
      <trkpt lat="46.15974" lon="6.54688">
        <ele>1385.6</ele>
        <time>2021-06-26T07:17:19Z</time>
      </trkpt>
      <trkpt lat="46.15974" lon="6.54691">
        <ele>1385.8</ele>
        <time>2021-06-26T07:17:20Z</time>
      </trkpt>
      <trkpt lat="46.15975" lon="6.54694">
        <ele>1386.4</ele>
        <time>2021-06-26T07:17:21Z</time>
      </trkpt>
      <trkpt lat="46.15976" lon="6.54697">
        <ele>1386.6</ele>
        <time>2021-06-26T07:17:22Z</time>
      </trkpt>
      <trkpt lat="46.15976" lon="6.547">
        <ele>1386.8</ele>
        <time>2021-06-26T07:17:23Z</time>
      </trkpt>
      <trkpt lat="46.15977" lon="6.54704">
        <ele>1387</ele>
        <time>2021-06-26T07:17:24Z</time>
      </trkpt>
      <trkpt lat="46.15978" lon="6.54707">
        <ele>1387.2</ele>
        <time>2021-06-26T07:17:25Z</time>
      </trkpt>
      <trkpt lat="46.15978" lon="6.5471">
        <ele>1387.4</ele>
        <time>2021-06-26T07:17:26Z</time>
      </trkpt>
      <trkpt lat="46.15979" lon="6.54713">
        <ele>1388</ele>
        <time>2021-06-26T07:17:27Z</time>
      </trkpt>
      <trkpt lat="46.15979" lon="6.54716">
        <ele>1388</ele>
        <time>2021-06-26T07:17:28Z</time>
      </trkpt>
      <trkpt lat="46.15979" lon="6.5472">
        <ele>1388.4</ele>
        <time>2021-06-26T07:17:29Z</time>
      </trkpt>
      <trkpt lat="46.15979" lon="6.54723">
        <ele>1388.4</ele>
        <time>2021-06-26T07:17:30Z</time>
      </trkpt>
      <trkpt lat="46.1598" lon="6.54726">
        <ele>1388.8</ele>
        <time>2021-06-26T07:17:31Z</time>
      </trkpt>
      <trkpt lat="46.1598" lon="6.5473">
        <ele>1389</ele>
        <time>2021-06-26T07:17:32Z</time>
      </trkpt>
      <trkpt lat="46.1598" lon="6.54733">
        <ele>1389.2</ele>
        <time>2021-06-26T07:17:33Z</time>
      </trkpt>
      <trkpt lat="46.15981" lon="6.54737">
        <ele>1389.6</ele>
        <time>2021-06-26T07:17:34Z</time>
      </trkpt>
      <trkpt lat="46.15981" lon="6.54741">
        <ele>1389.8</ele>
        <time>2021-06-26T07:17:35Z</time>
      </trkpt>
      <trkpt lat="46.15981" lon="6.54745">
        <ele>1389.8</ele>
        <time>2021-06-26T07:17:36Z</time>
      </trkpt>
      <trkpt lat="46.15981" lon="6.54748">
        <ele>1390.2</ele>
        <time>2021-06-26T07:17:37Z</time>
      </trkpt>
      <trkpt lat="46.15982" lon="6.54752">
        <ele>1390.8</ele>
        <time>2021-06-26T07:17:38Z</time>
      </trkpt>
      <trkpt lat="46.15982" lon="6.54756">
        <ele>1390.8</ele>
        <time>2021-06-26T07:17:39Z</time>
      </trkpt>
      <trkpt lat="46.15983" lon="6.5476">
        <ele>1391</ele>
        <time>2021-06-26T07:17:40Z</time>
      </trkpt>
      <trkpt lat="46.15983" lon="6.54763">
        <ele>1391</ele>
        <time>2021-06-26T07:17:41Z</time>
      </trkpt>
      <trkpt lat="46.15984" lon="6.54767">
        <ele>1391.4</ele>
        <time>2021-06-26T07:17:42Z</time>
      </trkpt>
      <trkpt lat="46.15985" lon="6.54771">
        <ele>1391.6</ele>
        <time>2021-06-26T07:17:43Z</time>
      </trkpt>
      <trkpt lat="46.15987" lon="6.54774">
        <ele>1391.8</ele>
        <time>2021-06-26T07:17:44Z</time>
      </trkpt>
      <trkpt lat="46.15988" lon="6.54778">
        <ele>1392</ele>
        <time>2021-06-26T07:17:45Z</time>
      </trkpt>
      <trkpt lat="46.15989" lon="6.54781">
        <ele>1392.2</ele>
        <time>2021-06-26T07:17:46Z</time>
      </trkpt>
      <trkpt lat="46.1599" lon="6.54784">
        <ele>1392.2</ele>
        <time>2021-06-26T07:17:47Z</time>
      </trkpt>
      <trkpt lat="46.15991" lon="6.54787">
        <ele>1392.4</ele>
        <time>2021-06-26T07:17:48Z</time>
      </trkpt>
      <trkpt lat="46.15992" lon="6.54791">
        <ele>1392.6</ele>
        <time>2021-06-26T07:17:49Z</time>
      </trkpt>
      <trkpt lat="46.15993" lon="6.54794">
        <ele>1392.8</ele>
        <time>2021-06-26T07:17:50Z</time>
      </trkpt>
      <trkpt lat="46.15994" lon="6.54798">
        <ele>1393</ele>
        <time>2021-06-26T07:17:51Z</time>
      </trkpt>
      <trkpt lat="46.15995" lon="6.54801">
        <ele>1393</ele>
        <time>2021-06-26T07:17:52Z</time>
      </trkpt>
      <trkpt lat="46.15996" lon="6.54805">
        <ele>1393</ele>
        <time>2021-06-26T07:17:53Z</time>
      </trkpt>
      <trkpt lat="46.15997" lon="6.54809">
        <ele>1393.2</ele>
        <time>2021-06-26T07:17:54Z</time>
      </trkpt>
      <trkpt lat="46.15997" lon="6.54813">
        <ele>1393.6</ele>
        <time>2021-06-26T07:17:55Z</time>
      </trkpt>
      <trkpt lat="46.15997" lon="6.54817">
        <ele>1393.6</ele>
        <time>2021-06-26T07:17:56Z</time>
      </trkpt>
      <trkpt lat="46.15997" lon="6.54821">
        <ele>1393.8</ele>
        <time>2021-06-26T07:17:57Z</time>
      </trkpt>
      <trkpt lat="46.15997" lon="6.54825">
        <ele>1394</ele>
        <time>2021-06-26T07:17:58Z</time>
      </trkpt>
      <trkpt lat="46.15997" lon="6.54829">
        <ele>1394</ele>
        <time>2021-06-26T07:17:59Z</time>
      </trkpt>
      <trkpt lat="46.15997" lon="6.54833">
        <ele>1394.4</ele>
        <time>2021-06-26T07:18:00Z</time>
      </trkpt>
      <trkpt lat="46.15996" lon="6.54837">
        <ele>1394.6</ele>
        <time>2021-06-26T07:18:01Z</time>
      </trkpt>
      <trkpt lat="46.15995" lon="6.54841">
        <ele>1394.8</ele>
        <time>2021-06-26T07:18:02Z</time>
      </trkpt>
      <trkpt lat="46.15995" lon="6.54845">
        <ele>1395</ele>
        <time>2021-06-26T07:18:03Z</time>
      </trkpt>
      <trkpt lat="46.15994" lon="6.54849">
        <ele>1395</ele>
        <time>2021-06-26T07:18:04Z</time>
      </trkpt>
      <trkpt lat="46.15993" lon="6.54853">
        <ele>1395.2</ele>
        <time>2021-06-26T07:18:05Z</time>
      </trkpt>
      <trkpt lat="46.15992" lon="6.54857">
        <ele>1395.4</ele>
        <time>2021-06-26T07:18:06Z</time>
      </trkpt>
      <trkpt lat="46.15991" lon="6.54861">
        <ele>1395.8</ele>
        <time>2021-06-26T07:18:07Z</time>
      </trkpt>
      <trkpt lat="46.15989" lon="6.54865">
        <ele>1396</ele>
        <time>2021-06-26T07:18:08Z</time>
      </trkpt>
      <trkpt lat="46.15988" lon="6.54869">
        <ele>1396.2</ele>
        <time>2021-06-26T07:18:09Z</time>
      </trkpt>
      <trkpt lat="46.15987" lon="6.54872">
        <ele>1396.4</ele>
        <time>2021-06-26T07:18:10Z</time>
      </trkpt>
      <trkpt lat="46.15984" lon="6.54876">
        <ele>1396.6</ele>
        <time>2021-06-26T07:18:11Z</time>
      </trkpt>
      <trkpt lat="46.15983" lon="6.5488">
        <ele>1396.8</ele>
        <time>2021-06-26T07:18:12Z</time>
      </trkpt>
      <trkpt lat="46.15982" lon="6.54884">
        <ele>1397</ele>
        <time>2021-06-26T07:18:13Z</time>
      </trkpt>
      <trkpt lat="46.15981" lon="6.54888">
        <ele>1397</ele>
        <time>2021-06-26T07:18:14Z</time>
      </trkpt>
      <trkpt lat="46.1598" lon="6.54893">
        <ele>1397.2</ele>
        <time>2021-06-26T07:18:15Z</time>
      </trkpt>
      <trkpt lat="46.1598" lon="6.54897">
        <ele>1397.6</ele>
        <time>2021-06-26T07:18:16Z</time>
      </trkpt>
      <trkpt lat="46.1598" lon="6.54901">
        <ele>1397.6</ele>
        <time>2021-06-26T07:18:17Z</time>
      </trkpt>
      <trkpt lat="46.15979" lon="6.54905">
        <ele>1397.8</ele>
        <time>2021-06-26T07:18:18Z</time>
      </trkpt>
      <trkpt lat="46.15979" lon="6.54909">
        <ele>1398.2</ele>
        <time>2021-06-26T07:18:19Z</time>
      </trkpt>
      <trkpt lat="46.15978" lon="6.54913">
        <ele>1398.4</ele>
        <time>2021-06-26T07:18:20Z</time>
      </trkpt>
      <trkpt lat="46.15977" lon="6.54917">
        <ele>1398.6</ele>
        <time>2021-06-26T07:18:21Z</time>
      </trkpt>
      <trkpt lat="46.15976" lon="6.54921">
        <ele>1398.8</ele>
        <time>2021-06-26T07:18:22Z</time>
      </trkpt>
      <trkpt lat="46.15976" lon="6.54926">
        <ele>1399</ele>
        <time>2021-06-26T07:18:23Z</time>
      </trkpt>
      <trkpt lat="46.15975" lon="6.5493">
        <ele>1399.4</ele>
        <time>2021-06-26T07:18:24Z</time>
      </trkpt>
      <trkpt lat="46.15975" lon="6.54935">
        <ele>1399.4</ele>
        <time>2021-06-26T07:18:25Z</time>
      </trkpt>
      <trkpt lat="46.15975" lon="6.54939">
        <ele>1399.6</ele>
        <time>2021-06-26T07:18:26Z</time>
      </trkpt>
      <trkpt lat="46.15975" lon="6.54944">
        <ele>1400</ele>
        <time>2021-06-26T07:18:27Z</time>
      </trkpt>
      <trkpt lat="46.15976" lon="6.54948">
        <ele>1400.2</ele>
        <time>2021-06-26T07:18:28Z</time>
      </trkpt>
      <trkpt lat="46.15976" lon="6.54952">
        <ele>1400.4</ele>
        <time>2021-06-26T07:18:29Z</time>
      </trkpt>
      <trkpt lat="46.15976" lon="6.54957">
        <ele>1400.6</ele>
        <time>2021-06-26T07:18:30Z</time>
      </trkpt>
      <trkpt lat="46.15977" lon="6.54961">
        <ele>1400.8</ele>
        <time>2021-06-26T07:18:31Z</time>
      </trkpt>
      <trkpt lat="46.15978" lon="6.54966">
        <ele>1401</ele>
        <time>2021-06-26T07:18:32Z</time>
      </trkpt>
      <trkpt lat="46.1598" lon="6.5497">
        <ele>1401.2</ele>
        <time>2021-06-26T07:18:33Z</time>
      </trkpt>
      <trkpt lat="46.15981" lon="6.54974">
        <ele>1401.6</ele>
        <time>2021-06-26T07:18:34Z</time>
      </trkpt>
      <trkpt lat="46.15983" lon="6.54978">
        <ele>1401.8</ele>
        <time>2021-06-26T07:18:35Z</time>
      </trkpt>
      <trkpt lat="46.15985" lon="6.54982">
        <ele>1401.8</ele>
        <time>2021-06-26T07:18:36Z</time>
      </trkpt>
      <trkpt lat="46.15987" lon="6.54986">
        <ele>1402.2</ele>
        <time>2021-06-26T07:18:37Z</time>
      </trkpt>
      <trkpt lat="46.1599" lon="6.5499">
        <ele>1402.4</ele>
        <time>2021-06-26T07:18:38Z</time>
      </trkpt>
      <trkpt lat="46.15994" lon="6.54993">
        <ele>1402.4</ele>
        <time>2021-06-26T07:18:39Z</time>
      </trkpt>
      <trkpt lat="46.15997" lon="6.54996">
        <ele>1402.4</ele>
        <time>2021-06-26T07:18:40Z</time>
      </trkpt>
      <trkpt lat="46.16001" lon="6.55">
        <ele>1402.8</ele>
        <time>2021-06-26T07:18:41Z</time>
      </trkpt>
      <trkpt lat="46.16004" lon="6.55004">
        <ele>1402.8</ele>
        <time>2021-06-26T07:18:42Z</time>
      </trkpt>
      <trkpt lat="46.16007" lon="6.55008">
        <ele>1402.6</ele>
        <time>2021-06-26T07:18:43Z</time>
      </trkpt>
      <trkpt lat="46.1601" lon="6.55012">
        <ele>1402.8</ele>
        <time>2021-06-26T07:18:44Z</time>
      </trkpt>
      <trkpt lat="46.16013" lon="6.55017">
        <ele>1402.8</ele>
        <time>2021-06-26T07:18:45Z</time>
      </trkpt>
      <trkpt lat="46.16015" lon="6.55022">
        <ele>1402.8</ele>
        <time>2021-06-26T07:18:46Z</time>
      </trkpt>
      <trkpt lat="46.16017" lon="6.55027">
        <ele>1403</ele>
        <time>2021-06-26T07:18:47Z</time>
      </trkpt>
      <trkpt lat="46.16019" lon="6.55033">
        <ele>1403</ele>
        <time>2021-06-26T07:18:48Z</time>
      </trkpt>
      <trkpt lat="46.16021" lon="6.55039">
        <ele>1402.8</ele>
        <time>2021-06-26T07:18:49Z</time>
      </trkpt>
      <trkpt lat="46.16027" lon="6.55058">
        <ele>1403</ele>
        <time>2021-06-26T07:18:52Z</time>
      </trkpt>
      <trkpt lat="46.16041" lon="6.55112">
        <ele>1403</ele>
        <time>2021-06-26T07:19:00Z</time>
      </trkpt>
      <trkpt lat="46.16044" lon="6.55118">
        <ele>1403</ele>
        <time>2021-06-26T07:19:01Z</time>
      </trkpt>
      <trkpt lat="46.16047" lon="6.55124">
        <ele>1403.2</ele>
        <time>2021-06-26T07:19:02Z</time>
      </trkpt>
      <trkpt lat="46.16051" lon="6.55129">
        <ele>1403</ele>
        <time>2021-06-26T07:19:03Z</time>
      </trkpt>
      <trkpt lat="46.16055" lon="6.55134">
        <ele>1403</ele>
        <time>2021-06-26T07:19:04Z</time>
      </trkpt>
      <trkpt lat="46.16059" lon="6.55138">
        <ele>1402.8</ele>
        <time>2021-06-26T07:19:05Z</time>
      </trkpt>
      <trkpt lat="46.16063" lon="6.55141">
        <ele>1403</ele>
        <time>2021-06-26T07:19:06Z</time>
      </trkpt>
      <trkpt lat="46.16078" lon="6.5515">
        <ele>1403.4</ele>
        <time>2021-06-26T07:19:09Z</time>
      </trkpt>
      <trkpt lat="46.16087" lon="6.55152">
        <ele>1403.6</ele>
        <time>2021-06-26T07:19:11Z</time>
      </trkpt>
      <trkpt lat="46.16092" lon="6.55153">
        <ele>1403.6</ele>
        <time>2021-06-26T07:19:12Z</time>
      </trkpt>
      <trkpt lat="46.16102" lon="6.55152">
        <ele>1403.8</ele>
        <time>2021-06-26T07:19:14Z</time>
      </trkpt>
      <trkpt lat="46.16111" lon="6.55148">
        <ele>1404</ele>
        <time>2021-06-26T07:19:16Z</time>
      </trkpt>
      <trkpt lat="46.16135" lon="6.55136">
        <ele>1404.2</ele>
        <time>2021-06-26T07:19:21Z</time>
      </trkpt>
      <trkpt lat="46.16145" lon="6.55134">
        <ele>1404.6</ele>
        <time>2021-06-26T07:19:23Z</time>
      </trkpt>
      <trkpt lat="46.16151" lon="6.55134">
        <ele>1404.8</ele>
        <time>2021-06-26T07:19:24Z</time>
      </trkpt>
      <trkpt lat="46.16156" lon="6.55136">
        <ele>1405</ele>
        <time>2021-06-26T07:19:25Z</time>
      </trkpt>
      <trkpt lat="46.16161" lon="6.55138">
        <ele>1405.2</ele>
        <time>2021-06-26T07:19:26Z</time>
      </trkpt>
      <trkpt lat="46.16166" lon="6.55141">
        <ele>1405.2</ele>
        <time>2021-06-26T07:19:27Z</time>
      </trkpt>
      <trkpt lat="46.16175" lon="6.55148">
        <ele>1405.2</ele>
        <time>2021-06-26T07:19:29Z</time>
      </trkpt>
      <trkpt lat="46.1618" lon="6.55152">
        <ele>1405.4</ele>
        <time>2021-06-26T07:19:30Z</time>
      </trkpt>
      <trkpt lat="46.16184" lon="6.55156">
        <ele>1405.6</ele>
        <time>2021-06-26T07:19:31Z</time>
      </trkpt>
      <trkpt lat="46.16188" lon="6.55159">
        <ele>1405.6</ele>
        <time>2021-06-26T07:19:32Z</time>
      </trkpt>
      <trkpt lat="46.16196" lon="6.55167">
        <ele>1405.6</ele>
        <time>2021-06-26T07:19:34Z</time>
      </trkpt>
      <trkpt lat="46.162" lon="6.5517">
        <ele>1405.6</ele>
        <time>2021-06-26T07:19:35Z</time>
      </trkpt>
      <trkpt lat="46.16204" lon="6.55174">
        <ele>1405.6</ele>
        <time>2021-06-26T07:19:36Z</time>
      </trkpt>
      <trkpt lat="46.16207" lon="6.55177">
        <ele>1406</ele>
        <time>2021-06-26T07:19:37Z</time>
      </trkpt>
      <trkpt lat="46.16211" lon="6.55181">
        <ele>1406</ele>
        <time>2021-06-26T07:19:38Z</time>
      </trkpt>
      <trkpt lat="46.16215" lon="6.55184">
        <ele>1406.2</ele>
        <time>2021-06-26T07:19:39Z</time>
      </trkpt>
      <trkpt lat="46.16218" lon="6.55188">
        <ele>1406.4</ele>
        <time>2021-06-26T07:19:40Z</time>
      </trkpt>
      <trkpt lat="46.16222" lon="6.55191">
        <ele>1406.4</ele>
        <time>2021-06-26T07:19:41Z</time>
      </trkpt>
      <trkpt lat="46.16225" lon="6.55195">
        <ele>1406.4</ele>
        <time>2021-06-26T07:19:42Z</time>
      </trkpt>
      <trkpt lat="46.16229" lon="6.55198">
        <ele>1406.6</ele>
        <time>2021-06-26T07:19:43Z</time>
      </trkpt>
      <trkpt lat="46.16233" lon="6.55202">
        <ele>1406.6</ele>
        <time>2021-06-26T07:19:44Z</time>
      </trkpt>
      <trkpt lat="46.16237" lon="6.55205">
        <ele>1406.8</ele>
        <time>2021-06-26T07:19:45Z</time>
      </trkpt>
      <trkpt lat="46.1624" lon="6.55209">
        <ele>1407.2</ele>
        <time>2021-06-26T07:19:46Z</time>
      </trkpt>
      <trkpt lat="46.16244" lon="6.55212">
        <ele>1407.4</ele>
        <time>2021-06-26T07:19:47Z</time>
      </trkpt>
      <trkpt lat="46.16248" lon="6.55216">
        <ele>1407.6</ele>
        <time>2021-06-26T07:19:48Z</time>
      </trkpt>
      <trkpt lat="46.16252" lon="6.55219">
        <ele>1408</ele>
        <time>2021-06-26T07:19:49Z</time>
      </trkpt>
      <trkpt lat="46.16255" lon="6.55223">
        <ele>1408</ele>
        <time>2021-06-26T07:19:50Z</time>
      </trkpt>
      <trkpt lat="46.16259" lon="6.55226">
        <ele>1408.2</ele>
        <time>2021-06-26T07:19:51Z</time>
      </trkpt>
      <trkpt lat="46.16262" lon="6.55229">
        <ele>1408.6</ele>
        <time>2021-06-26T07:19:52Z</time>
      </trkpt>
      <trkpt lat="46.16266" lon="6.55232">
        <ele>1408.8</ele>
        <time>2021-06-26T07:19:53Z</time>
      </trkpt>
      <trkpt lat="46.16269" lon="6.55235">
        <ele>1409</ele>
        <time>2021-06-26T07:19:54Z</time>
      </trkpt>
      <trkpt lat="46.16273" lon="6.55238">
        <ele>1409</ele>
        <time>2021-06-26T07:19:55Z</time>
      </trkpt>
      <trkpt lat="46.16276" lon="6.55241">
        <ele>1409.2</ele>
        <time>2021-06-26T07:19:56Z</time>
      </trkpt>
      <trkpt lat="46.1628" lon="6.55243">
        <ele>1409.4</ele>
        <time>2021-06-26T07:19:57Z</time>
      </trkpt>
      <trkpt lat="46.16284" lon="6.55245">
        <ele>1409.8</ele>
        <time>2021-06-26T07:19:58Z</time>
      </trkpt>
      <trkpt lat="46.16288" lon="6.55247">
        <ele>1410</ele>
        <time>2021-06-26T07:19:59Z</time>
      </trkpt>
      <trkpt lat="46.16292" lon="6.55248">
        <ele>1410.2</ele>
        <time>2021-06-26T07:20:00Z</time>
      </trkpt>
      <trkpt lat="46.16296" lon="6.55248">
        <ele>1410.6</ele>
        <time>2021-06-26T07:20:01Z</time>
      </trkpt>
      <trkpt lat="46.163" lon="6.55248">
        <ele>1410.8</ele>
        <time>2021-06-26T07:20:02Z</time>
      </trkpt>
      <trkpt lat="46.16304" lon="6.55248">
        <ele>1411.2</ele>
        <time>2021-06-26T07:20:03Z</time>
      </trkpt>
      <trkpt lat="46.16308" lon="6.55247">
        <ele>1411.2</ele>
        <time>2021-06-26T07:20:04Z</time>
      </trkpt>
      <trkpt lat="46.16313" lon="6.55246">
        <ele>1411.4</ele>
        <time>2021-06-26T07:20:05Z</time>
      </trkpt>
      <trkpt lat="46.16317" lon="6.55245">
        <ele>1411.6</ele>
        <time>2021-06-26T07:20:06Z</time>
      </trkpt>
      <trkpt lat="46.16321" lon="6.55244">
        <ele>1411.8</ele>
        <time>2021-06-26T07:20:07Z</time>
      </trkpt>
      <trkpt lat="46.16326" lon="6.55243">
        <ele>1412</ele>
        <time>2021-06-26T07:20:08Z</time>
      </trkpt>
      <trkpt lat="46.1633" lon="6.55242">
        <ele>1412.2</ele>
        <time>2021-06-26T07:20:09Z</time>
      </trkpt>
      <trkpt lat="46.16335" lon="6.55241">
        <ele>1412.6</ele>
        <time>2021-06-26T07:20:10Z</time>
      </trkpt>
      <trkpt lat="46.16339" lon="6.5524">
        <ele>1412.8</ele>
        <time>2021-06-26T07:20:11Z</time>
      </trkpt>
      <trkpt lat="46.16343" lon="6.55239">
        <ele>1413</ele>
        <time>2021-06-26T07:20:12Z</time>
      </trkpt>
      <trkpt lat="46.16347" lon="6.55238">
        <ele>1412.8</ele>
        <time>2021-06-26T07:20:13Z</time>
      </trkpt>
      <trkpt lat="46.16352" lon="6.55237">
        <ele>1413</ele>
        <time>2021-06-26T07:20:14Z</time>
      </trkpt>
      <trkpt lat="46.16355" lon="6.55236">
        <ele>1413.2</ele>
        <time>2021-06-26T07:20:15Z</time>
      </trkpt>
      <trkpt lat="46.16359" lon="6.55236">
        <ele>1413.2</ele>
        <time>2021-06-26T07:20:16Z</time>
      </trkpt>
      <trkpt lat="46.16363" lon="6.55235">
        <ele>1413.4</ele>
        <time>2021-06-26T07:20:17Z</time>
      </trkpt>
      <trkpt lat="46.16367" lon="6.55235">
        <ele>1413.6</ele>
        <time>2021-06-26T07:20:18Z</time>
      </trkpt>
      <trkpt lat="46.16371" lon="6.55235">
        <ele>1413.4</ele>
        <time>2021-06-26T07:20:19Z</time>
      </trkpt>
      <trkpt lat="46.16375" lon="6.55235">
        <ele>1413.8</ele>
        <time>2021-06-26T07:20:20Z</time>
      </trkpt>
      <trkpt lat="46.16378" lon="6.55235">
        <ele>1414</ele>
        <time>2021-06-26T07:20:21Z</time>
      </trkpt>
      <trkpt lat="46.16382" lon="6.55235">
        <ele>1414.4</ele>
        <time>2021-06-26T07:20:22Z</time>
      </trkpt>
      <trkpt lat="46.16386" lon="6.55235">
        <ele>1414.2</ele>
        <time>2021-06-26T07:20:23Z</time>
      </trkpt>
      <trkpt lat="46.16389" lon="6.55235">
        <ele>1414.4</ele>
        <time>2021-06-26T07:20:24Z</time>
      </trkpt>
      <trkpt lat="46.16393" lon="6.55236">
        <ele>1414.8</ele>
        <time>2021-06-26T07:20:25Z</time>
      </trkpt>
      <trkpt lat="46.16396" lon="6.55236">
        <ele>1414.8</ele>
        <time>2021-06-26T07:20:26Z</time>
      </trkpt>
      <trkpt lat="46.164" lon="6.55236">
        <ele>1414.8</ele>
        <time>2021-06-26T07:20:27Z</time>
      </trkpt>
      <trkpt lat="46.16403" lon="6.55236">
        <ele>1415.4</ele>
        <time>2021-06-26T07:20:28Z</time>
      </trkpt>
      <trkpt lat="46.16407" lon="6.55236">
        <ele>1415.4</ele>
        <time>2021-06-26T07:20:29Z</time>
      </trkpt>
      <trkpt lat="46.1641" lon="6.55237">
        <ele>1415.4</ele>
        <time>2021-06-26T07:20:30Z</time>
      </trkpt>
      <trkpt lat="46.16413" lon="6.55238">
        <ele>1415.6</ele>
        <time>2021-06-26T07:20:31Z</time>
      </trkpt>
      <trkpt lat="46.16417" lon="6.55239">
        <ele>1415.8</ele>
        <time>2021-06-26T07:20:32Z</time>
      </trkpt>
      <trkpt lat="46.16421" lon="6.55239">
        <ele>1416.2</ele>
        <time>2021-06-26T07:20:33Z</time>
      </trkpt>
      <trkpt lat="46.16424" lon="6.5524">
        <ele>1416.2</ele>
        <time>2021-06-26T07:20:34Z</time>
      </trkpt>
      <trkpt lat="46.16428" lon="6.5524">
        <ele>1416.6</ele>
        <time>2021-06-26T07:20:35Z</time>
      </trkpt>
      <trkpt lat="46.16432" lon="6.55241">
        <ele>1416.6</ele>
        <time>2021-06-26T07:20:36Z</time>
      </trkpt>
      <trkpt lat="46.16435" lon="6.55241">
        <ele>1416.8</ele>
        <time>2021-06-26T07:20:37Z</time>
      </trkpt>
      <trkpt lat="46.16439" lon="6.55242">
        <ele>1417</ele>
        <time>2021-06-26T07:20:38Z</time>
      </trkpt>
      <trkpt lat="46.16443" lon="6.55242">
        <ele>1417.2</ele>
        <time>2021-06-26T07:20:39Z</time>
      </trkpt>
      <trkpt lat="46.16446" lon="6.55243">
        <ele>1417.4</ele>
        <time>2021-06-26T07:20:40Z</time>
      </trkpt>
      <trkpt lat="46.1645" lon="6.55243">
        <ele>1417.6</ele>
        <time>2021-06-26T07:20:41Z</time>
      </trkpt>
      <trkpt lat="46.16454" lon="6.55244">
        <ele>1417.8</ele>
        <time>2021-06-26T07:20:42Z</time>
      </trkpt>
      <trkpt lat="46.16458" lon="6.55244">
        <ele>1418</ele>
        <time>2021-06-26T07:20:43Z</time>
      </trkpt>
      <trkpt lat="46.16461" lon="6.55244">
        <ele>1418.2</ele>
        <time>2021-06-26T07:20:44Z</time>
      </trkpt>
      <trkpt lat="46.16465" lon="6.55245">
        <ele>1418.4</ele>
        <time>2021-06-26T07:20:45Z</time>
      </trkpt>
      <trkpt lat="46.16469" lon="6.55245">
        <ele>1418.6</ele>
        <time>2021-06-26T07:20:46Z</time>
      </trkpt>
      <trkpt lat="46.16472" lon="6.55246">
        <ele>1418.6</ele>
        <time>2021-06-26T07:20:47Z</time>
      </trkpt>
      <trkpt lat="46.16476" lon="6.55247">
        <ele>1418.8</ele>
        <time>2021-06-26T07:20:48Z</time>
      </trkpt>
      <trkpt lat="46.16479" lon="6.55248">
        <ele>1418.8</ele>
        <time>2021-06-26T07:20:49Z</time>
      </trkpt>
      <trkpt lat="46.16483" lon="6.55249">
        <ele>1419</ele>
        <time>2021-06-26T07:20:50Z</time>
      </trkpt>
      <trkpt lat="46.16486" lon="6.5525">
        <ele>1419</ele>
        <time>2021-06-26T07:20:51Z</time>
      </trkpt>
      <trkpt lat="46.16489" lon="6.55251">
        <ele>1419</ele>
        <time>2021-06-26T07:20:52Z</time>
      </trkpt>
      <trkpt lat="46.16492" lon="6.55253">
        <ele>1419.2</ele>
        <time>2021-06-26T07:20:53Z</time>
      </trkpt>
      <trkpt lat="46.16495" lon="6.55255">
        <ele>1419.4</ele>
        <time>2021-06-26T07:20:54Z</time>
      </trkpt>
      <trkpt lat="46.16498" lon="6.55256">
        <ele>1419.8</ele>
        <time>2021-06-26T07:20:55Z</time>
      </trkpt>
      <trkpt lat="46.165" lon="6.55259">
        <ele>1419.8</ele>
        <time>2021-06-26T07:20:56Z</time>
      </trkpt>
      <trkpt lat="46.16503" lon="6.55261">
        <ele>1420</ele>
        <time>2021-06-26T07:20:57Z</time>
      </trkpt>
      <trkpt lat="46.16506" lon="6.55264">
        <ele>1420.2</ele>
        <time>2021-06-26T07:20:58Z</time>
      </trkpt>
      <trkpt lat="46.16509" lon="6.55267">
        <ele>1420.4</ele>
        <time>2021-06-26T07:20:59Z</time>
      </trkpt>
      <trkpt lat="46.16512" lon="6.5527">
        <ele>1420.6</ele>
        <time>2021-06-26T07:21:00Z</time>
      </trkpt>
      <trkpt lat="46.16515" lon="6.55273">
        <ele>1421</ele>
        <time>2021-06-26T07:21:01Z</time>
      </trkpt>
      <trkpt lat="46.16517" lon="6.55276">
        <ele>1421.2</ele>
        <time>2021-06-26T07:21:02Z</time>
      </trkpt>
      <trkpt lat="46.1652" lon="6.55279">
        <ele>1421.4</ele>
        <time>2021-06-26T07:21:03Z</time>
      </trkpt>
      <trkpt lat="46.16523" lon="6.55283">
        <ele>1421.6</ele>
        <time>2021-06-26T07:21:04Z</time>
      </trkpt>
      <trkpt lat="46.16525" lon="6.55286">
        <ele>1421.8</ele>
        <time>2021-06-26T07:21:05Z</time>
      </trkpt>
      <trkpt lat="46.16528" lon="6.55289">
        <ele>1422</ele>
        <time>2021-06-26T07:21:06Z</time>
      </trkpt>
      <trkpt lat="46.16531" lon="6.55292">
        <ele>1422.2</ele>
        <time>2021-06-26T07:21:07Z</time>
      </trkpt>
      <trkpt lat="46.16533" lon="6.55294">
        <ele>1422.2</ele>
        <time>2021-06-26T07:21:08Z</time>
      </trkpt>
      <trkpt lat="46.16536" lon="6.55297">
        <ele>1422.6</ele>
        <time>2021-06-26T07:21:09Z</time>
      </trkpt>
      <trkpt lat="46.16538" lon="6.553">
        <ele>1422.8</ele>
        <time>2021-06-26T07:21:10Z</time>
      </trkpt>
      <trkpt lat="46.16541" lon="6.55303">
        <ele>1422.8</ele>
        <time>2021-06-26T07:21:11Z</time>
      </trkpt>
      <trkpt lat="46.16544" lon="6.55305">
        <ele>1423</ele>
        <time>2021-06-26T07:21:12Z</time>
      </trkpt>
      <trkpt lat="46.16546" lon="6.55308">
        <ele>1423.2</ele>
        <time>2021-06-26T07:21:13Z</time>
      </trkpt>
      <trkpt lat="46.16549" lon="6.55311">
        <ele>1423.4</ele>
        <time>2021-06-26T07:21:14Z</time>
      </trkpt>
      <trkpt lat="46.16551" lon="6.55314">
        <ele>1423.8</ele>
        <time>2021-06-26T07:21:15Z</time>
      </trkpt>
      <trkpt lat="46.16554" lon="6.55317">
        <ele>1424</ele>
        <time>2021-06-26T07:21:16Z</time>
      </trkpt>
      <trkpt lat="46.16557" lon="6.5532">
        <ele>1424</ele>
        <time>2021-06-26T07:21:17Z</time>
      </trkpt>
      <trkpt lat="46.16559" lon="6.55323">
        <ele>1424.4</ele>
        <time>2021-06-26T07:21:18Z</time>
      </trkpt>
      <trkpt lat="46.16562" lon="6.55326">
        <ele>1424.4</ele>
        <time>2021-06-26T07:21:19Z</time>
      </trkpt>
      <trkpt lat="46.16564" lon="6.55329">
        <ele>1424.6</ele>
        <time>2021-06-26T07:21:20Z</time>
      </trkpt>
      <trkpt lat="46.16567" lon="6.55332">
        <ele>1425</ele>
        <time>2021-06-26T07:21:21Z</time>
      </trkpt>
      <trkpt lat="46.1657" lon="6.55334">
        <ele>1425.2</ele>
        <time>2021-06-26T07:21:22Z</time>
      </trkpt>
      <trkpt lat="46.16573" lon="6.55337">
        <ele>1425.4</ele>
        <time>2021-06-26T07:21:23Z</time>
      </trkpt>
      <trkpt lat="46.16575" lon="6.5534">
        <ele>1425.8</ele>
        <time>2021-06-26T07:21:24Z</time>
      </trkpt>
      <trkpt lat="46.16578" lon="6.55343">
        <ele>1425.8</ele>
        <time>2021-06-26T07:21:25Z</time>
      </trkpt>
      <trkpt lat="46.16581" lon="6.55345">
        <ele>1426.2</ele>
        <time>2021-06-26T07:21:26Z</time>
      </trkpt>
      <trkpt lat="46.16583" lon="6.55348">
        <ele>1426.2</ele>
        <time>2021-06-26T07:21:27Z</time>
      </trkpt>
      <trkpt lat="46.16586" lon="6.55351">
        <ele>1426.4</ele>
        <time>2021-06-26T07:21:28Z</time>
      </trkpt>
      <trkpt lat="46.16589" lon="6.55354">
        <ele>1426.6</ele>
        <time>2021-06-26T07:21:29Z</time>
      </trkpt>
      <trkpt lat="46.16591" lon="6.55357">
        <ele>1426.6</ele>
        <time>2021-06-26T07:21:30Z</time>
      </trkpt>
      <trkpt lat="46.16594" lon="6.55361">
        <ele>1427</ele>
        <time>2021-06-26T07:21:31Z</time>
      </trkpt>
      <trkpt lat="46.16597" lon="6.55364">
        <ele>1427.2</ele>
        <time>2021-06-26T07:21:32Z</time>
      </trkpt>
      <trkpt lat="46.16599" lon="6.55366">
        <ele>1427.2</ele>
        <time>2021-06-26T07:21:33Z</time>
      </trkpt>
      <trkpt lat="46.16602" lon="6.55369">
        <ele>1427.2</ele>
        <time>2021-06-26T07:21:34Z</time>
      </trkpt>
      <trkpt lat="46.16605" lon="6.55372">
        <ele>1427.4</ele>
        <time>2021-06-26T07:21:35Z</time>
      </trkpt>
      <trkpt lat="46.16607" lon="6.55375">
        <ele>1427.6</ele>
        <time>2021-06-26T07:21:36Z</time>
      </trkpt>
      <trkpt lat="46.1661" lon="6.55378">
        <ele>1427.8</ele>
        <time>2021-06-26T07:21:37Z</time>
      </trkpt>
      <trkpt lat="46.16612" lon="6.55381">
        <ele>1428</ele>
        <time>2021-06-26T07:21:38Z</time>
      </trkpt>
      <trkpt lat="46.16615" lon="6.55384">
        <ele>1428.4</ele>
        <time>2021-06-26T07:21:39Z</time>
      </trkpt>
      <trkpt lat="46.16617" lon="6.55387">
        <ele>1428.4</ele>
        <time>2021-06-26T07:21:40Z</time>
      </trkpt>
      <trkpt lat="46.16619" lon="6.5539">
        <ele>1428.6</ele>
        <time>2021-06-26T07:21:41Z</time>
      </trkpt>
      <trkpt lat="46.16622" lon="6.55393">
        <ele>1428.6</ele>
        <time>2021-06-26T07:21:42Z</time>
      </trkpt>
      <trkpt lat="46.16624" lon="6.55397">
        <ele>1428.8</ele>
        <time>2021-06-26T07:21:43Z</time>
      </trkpt>
      <trkpt lat="46.16626" lon="6.554">
        <ele>1429.2</ele>
        <time>2021-06-26T07:21:44Z</time>
      </trkpt>
      <trkpt lat="46.16629" lon="6.55403">
        <ele>1429.2</ele>
        <time>2021-06-26T07:21:45Z</time>
      </trkpt>
      <trkpt lat="46.16631" lon="6.55407">
        <ele>1429.4</ele>
        <time>2021-06-26T07:21:46Z</time>
      </trkpt>
      <trkpt lat="46.16633" lon="6.5541">
        <ele>1429.6</ele>
        <time>2021-06-26T07:21:47Z</time>
      </trkpt>
      <trkpt lat="46.16636" lon="6.55413">
        <ele>1429.6</ele>
        <time>2021-06-26T07:21:48Z</time>
      </trkpt>
      <trkpt lat="46.16638" lon="6.55417">
        <ele>1430</ele>
        <time>2021-06-26T07:21:49Z</time>
      </trkpt>
      <trkpt lat="46.1664" lon="6.5542">
        <ele>1430.2</ele>
        <time>2021-06-26T07:21:50Z</time>
      </trkpt>
      <trkpt lat="46.16642" lon="6.55423">
        <ele>1430.2</ele>
        <time>2021-06-26T07:21:51Z</time>
      </trkpt>
      <trkpt lat="46.16645" lon="6.55426">
        <ele>1430.2</ele>
        <time>2021-06-26T07:21:52Z</time>
      </trkpt>
      <trkpt lat="46.16647" lon="6.5543">
        <ele>1430.4</ele>
        <time>2021-06-26T07:21:53Z</time>
      </trkpt>
      <trkpt lat="46.16649" lon="6.55433">
        <ele>1430.6</ele>
        <time>2021-06-26T07:21:54Z</time>
      </trkpt>
      <trkpt lat="46.16652" lon="6.55437">
        <ele>1430.6</ele>
        <time>2021-06-26T07:21:55Z</time>
      </trkpt>
      <trkpt lat="46.16654" lon="6.5544">
        <ele>1430.6</ele>
        <time>2021-06-26T07:21:56Z</time>
      </trkpt>
      <trkpt lat="46.16656" lon="6.55443">
        <ele>1430.8</ele>
        <time>2021-06-26T07:21:57Z</time>
      </trkpt>
      <trkpt lat="46.16658" lon="6.55446">
        <ele>1431</ele>
        <time>2021-06-26T07:21:58Z</time>
      </trkpt>
      <trkpt lat="46.16661" lon="6.55449">
        <ele>1431.6</ele>
        <time>2021-06-26T07:21:59Z</time>
      </trkpt>
      <trkpt lat="46.16663" lon="6.55453">
        <ele>1431.6</ele>
        <time>2021-06-26T07:22:00Z</time>
      </trkpt>
      <trkpt lat="46.16665" lon="6.55456">
        <ele>1431.8</ele>
        <time>2021-06-26T07:22:01Z</time>
      </trkpt>
      <trkpt lat="46.16667" lon="6.55459">
        <ele>1432</ele>
        <time>2021-06-26T07:22:02Z</time>
      </trkpt>
      <trkpt lat="46.1667" lon="6.55462">
        <ele>1432.2</ele>
        <time>2021-06-26T07:22:03Z</time>
      </trkpt>
      <trkpt lat="46.16672" lon="6.55465">
        <ele>1432.4</ele>
        <time>2021-06-26T07:22:04Z</time>
      </trkpt>
      <trkpt lat="46.16674" lon="6.55468">
        <ele>1432.8</ele>
        <time>2021-06-26T07:22:05Z</time>
      </trkpt>
      <trkpt lat="46.16677" lon="6.55472">
        <ele>1433</ele>
        <time>2021-06-26T07:22:06Z</time>
      </trkpt>
      <trkpt lat="46.16679" lon="6.55475">
        <ele>1433.4</ele>
        <time>2021-06-26T07:22:07Z</time>
      </trkpt>
      <trkpt lat="46.16681" lon="6.55479">
        <ele>1433.6</ele>
        <time>2021-06-26T07:22:08Z</time>
      </trkpt>
      <trkpt lat="46.16684" lon="6.55482">
        <ele>1433.8</ele>
        <time>2021-06-26T07:22:09Z</time>
      </trkpt>
      <trkpt lat="46.16686" lon="6.55485">
        <ele>1433.8</ele>
        <time>2021-06-26T07:22:10Z</time>
      </trkpt>
      <trkpt lat="46.16688" lon="6.55488">
        <ele>1434.2</ele>
        <time>2021-06-26T07:22:11Z</time>
      </trkpt>
      <trkpt lat="46.1669" lon="6.55491">
        <ele>1434.4</ele>
        <time>2021-06-26T07:22:12Z</time>
      </trkpt>
      <trkpt lat="46.16692" lon="6.55495">
        <ele>1434.6</ele>
        <time>2021-06-26T07:22:13Z</time>
      </trkpt>
      <trkpt lat="46.16695" lon="6.55498">
        <ele>1434.6</ele>
        <time>2021-06-26T07:22:14Z</time>
      </trkpt>
      <trkpt lat="46.16697" lon="6.55502">
        <ele>1434.6</ele>
        <time>2021-06-26T07:22:15Z</time>
      </trkpt>
      <trkpt lat="46.16699" lon="6.55505">
        <ele>1435</ele>
        <time>2021-06-26T07:22:16Z</time>
      </trkpt>
      <trkpt lat="46.16701" lon="6.55509">
        <ele>1435</ele>
        <time>2021-06-26T07:22:17Z</time>
      </trkpt>
      <trkpt lat="46.16704" lon="6.55512">
        <ele>1435.2</ele>
        <time>2021-06-26T07:22:18Z</time>
      </trkpt>
      <trkpt lat="46.16706" lon="6.55516">
        <ele>1435.4</ele>
        <time>2021-06-26T07:22:19Z</time>
      </trkpt>
      <trkpt lat="46.16708" lon="6.5552">
        <ele>1435.6</ele>
        <time>2021-06-26T07:22:20Z</time>
      </trkpt>
      <trkpt lat="46.1671" lon="6.55523">
        <ele>1435.8</ele>
        <time>2021-06-26T07:22:21Z</time>
      </trkpt>
      <trkpt lat="46.16711" lon="6.55527">
        <ele>1436</ele>
        <time>2021-06-26T07:22:22Z</time>
      </trkpt>
      <trkpt lat="46.16713" lon="6.55531">
        <ele>1435.8</ele>
        <time>2021-06-26T07:22:23Z</time>
      </trkpt>
      <trkpt lat="46.16715" lon="6.55534">
        <ele>1436</ele>
        <time>2021-06-26T07:22:24Z</time>
      </trkpt>
      <trkpt lat="46.16717" lon="6.55538">
        <ele>1436.2</ele>
        <time>2021-06-26T07:22:25Z</time>
      </trkpt>
      <trkpt lat="46.16718" lon="6.55542">
        <ele>1436.2</ele>
        <time>2021-06-26T07:22:26Z</time>
      </trkpt>
      <trkpt lat="46.1672" lon="6.55546">
        <ele>1436.4</ele>
        <time>2021-06-26T07:22:27Z</time>
      </trkpt>
      <trkpt lat="46.16722" lon="6.5555">
        <ele>1436.6</ele>
        <time>2021-06-26T07:22:28Z</time>
      </trkpt>
      <trkpt lat="46.16724" lon="6.55553">
        <ele>1436.8</ele>
        <time>2021-06-26T07:22:29Z</time>
      </trkpt>
      <trkpt lat="46.16726" lon="6.55557">
        <ele>1437</ele>
        <time>2021-06-26T07:22:30Z</time>
      </trkpt>
      <trkpt lat="46.16727" lon="6.55561">
        <ele>1437.2</ele>
        <time>2021-06-26T07:22:31Z</time>
      </trkpt>
      <trkpt lat="46.16729" lon="6.55565">
        <ele>1437.4</ele>
        <time>2021-06-26T07:22:32Z</time>
      </trkpt>
      <trkpt lat="46.16731" lon="6.55569">
        <ele>1437.6</ele>
        <time>2021-06-26T07:22:33Z</time>
      </trkpt>
      <trkpt lat="46.16733" lon="6.55573">
        <ele>1437.8</ele>
        <time>2021-06-26T07:22:34Z</time>
      </trkpt>
      <trkpt lat="46.16735" lon="6.55576">
        <ele>1438</ele>
        <time>2021-06-26T07:22:35Z</time>
      </trkpt>
      <trkpt lat="46.16736" lon="6.5558">
        <ele>1438.2</ele>
        <time>2021-06-26T07:22:36Z</time>
      </trkpt>
      <trkpt lat="46.16738" lon="6.55584">
        <ele>1438.2</ele>
        <time>2021-06-26T07:22:37Z</time>
      </trkpt>
      <trkpt lat="46.1674" lon="6.55587">
        <ele>1438.6</ele>
        <time>2021-06-26T07:22:38Z</time>
      </trkpt>
      <trkpt lat="46.16741" lon="6.55591">
        <ele>1438.6</ele>
        <time>2021-06-26T07:22:39Z</time>
      </trkpt>
      <trkpt lat="46.16743" lon="6.55595">
        <ele>1438.6</ele>
        <time>2021-06-26T07:22:40Z</time>
      </trkpt>
      <trkpt lat="46.16745" lon="6.55599">
        <ele>1438.8</ele>
        <time>2021-06-26T07:22:41Z</time>
      </trkpt>
      <trkpt lat="46.16747" lon="6.55602">
        <ele>1439</ele>
        <time>2021-06-26T07:22:42Z</time>
      </trkpt>
      <trkpt lat="46.16748" lon="6.55606">
        <ele>1439.4</ele>
        <time>2021-06-26T07:22:43Z</time>
      </trkpt>
      <trkpt lat="46.1675" lon="6.5561">
        <ele>1439.6</ele>
        <time>2021-06-26T07:22:44Z</time>
      </trkpt>
      <trkpt lat="46.16752" lon="6.55613">
        <ele>1439.6</ele>
        <time>2021-06-26T07:22:45Z</time>
      </trkpt>
      <trkpt lat="46.16753" lon="6.55617">
        <ele>1439.8</ele>
        <time>2021-06-26T07:22:46Z</time>
      </trkpt>
      <trkpt lat="46.16755" lon="6.55621">
        <ele>1440</ele>
        <time>2021-06-26T07:22:47Z</time>
      </trkpt>
      <trkpt lat="46.16757" lon="6.55625">
        <ele>1440.2</ele>
        <time>2021-06-26T07:22:48Z</time>
      </trkpt>
      <trkpt lat="46.16759" lon="6.55628">
        <ele>1440.2</ele>
        <time>2021-06-26T07:22:49Z</time>
      </trkpt>
      <trkpt lat="46.1676" lon="6.55632">
        <ele>1440.4</ele>
        <time>2021-06-26T07:22:50Z</time>
      </trkpt>
      <trkpt lat="46.16762" lon="6.55636">
        <ele>1440.6</ele>
        <time>2021-06-26T07:22:51Z</time>
      </trkpt>
      <trkpt lat="46.16764" lon="6.5564">
        <ele>1440.8</ele>
        <time>2021-06-26T07:22:52Z</time>
      </trkpt>
      <trkpt lat="46.16766" lon="6.55643">
        <ele>1441.2</ele>
        <time>2021-06-26T07:22:53Z</time>
      </trkpt>
      <trkpt lat="46.16768" lon="6.55647">
        <ele>1441.6</ele>
        <time>2021-06-26T07:22:54Z</time>
      </trkpt>
      <trkpt lat="46.16769" lon="6.5565">
        <ele>1441.8</ele>
        <time>2021-06-26T07:22:55Z</time>
      </trkpt>
      <trkpt lat="46.16771" lon="6.55654">
        <ele>1442</ele>
        <time>2021-06-26T07:22:56Z</time>
      </trkpt>
      <trkpt lat="46.16773" lon="6.55658">
        <ele>1442.4</ele>
        <time>2021-06-26T07:22:57Z</time>
      </trkpt>
      <trkpt lat="46.16774" lon="6.55661">
        <ele>1442.6</ele>
        <time>2021-06-26T07:22:58Z</time>
      </trkpt>
      <trkpt lat="46.16776" lon="6.55665">
        <ele>1442.8</ele>
        <time>2021-06-26T07:22:59Z</time>
      </trkpt>
      <trkpt lat="46.16778" lon="6.55669">
        <ele>1443.4</ele>
        <time>2021-06-26T07:23:00Z</time>
      </trkpt>
      <trkpt lat="46.1678" lon="6.55672">
        <ele>1443.4</ele>
        <time>2021-06-26T07:23:01Z</time>
      </trkpt>
      <trkpt lat="46.16781" lon="6.55676">
        <ele>1443.6</ele>
        <time>2021-06-26T07:23:02Z</time>
      </trkpt>
      <trkpt lat="46.16783" lon="6.5568">
        <ele>1443.8</ele>
        <time>2021-06-26T07:23:03Z</time>
      </trkpt>
      <trkpt lat="46.16785" lon="6.55683">
        <ele>1444</ele>
        <time>2021-06-26T07:23:04Z</time>
      </trkpt>
      <trkpt lat="46.16787" lon="6.55687">
        <ele>1444.2</ele>
        <time>2021-06-26T07:23:05Z</time>
      </trkpt>
      <trkpt lat="46.16789" lon="6.5569">
        <ele>1444.4</ele>
        <time>2021-06-26T07:23:06Z</time>
      </trkpt>
      <trkpt lat="46.1679" lon="6.55694">
        <ele>1444.4</ele>
        <time>2021-06-26T07:23:07Z</time>
      </trkpt>
      <trkpt lat="46.16792" lon="6.55697">
        <ele>1444.8</ele>
        <time>2021-06-26T07:23:08Z</time>
      </trkpt>
      <trkpt lat="46.16794" lon="6.55701">
        <ele>1445</ele>
        <time>2021-06-26T07:23:09Z</time>
      </trkpt>
      <trkpt lat="46.16796" lon="6.55704">
        <ele>1445.4</ele>
        <time>2021-06-26T07:23:10Z</time>
      </trkpt>
      <trkpt lat="46.16797" lon="6.55708">
        <ele>1445.4</ele>
        <time>2021-06-26T07:23:11Z</time>
      </trkpt>
      <trkpt lat="46.16799" lon="6.55712">
        <ele>1445.6</ele>
        <time>2021-06-26T07:23:12Z</time>
      </trkpt>
      <trkpt lat="46.16801" lon="6.55716">
        <ele>1446</ele>
        <time>2021-06-26T07:23:13Z</time>
      </trkpt>
      <trkpt lat="46.16803" lon="6.55719">
        <ele>1446.2</ele>
        <time>2021-06-26T07:23:14Z</time>
      </trkpt>
      <trkpt lat="46.16805" lon="6.55723">
        <ele>1446.4</ele>
        <time>2021-06-26T07:23:15Z</time>
      </trkpt>
      <trkpt lat="46.16807" lon="6.55727">
        <ele>1446.6</ele>
        <time>2021-06-26T07:23:16Z</time>
      </trkpt>
      <trkpt lat="46.16809" lon="6.5573">
        <ele>1447</ele>
        <time>2021-06-26T07:23:17Z</time>
      </trkpt>
      <trkpt lat="46.16811" lon="6.55734">
        <ele>1447</ele>
        <time>2021-06-26T07:23:18Z</time>
      </trkpt>
      <trkpt lat="46.16812" lon="6.55738">
        <ele>1447.4</ele>
        <time>2021-06-26T07:23:19Z</time>
      </trkpt>
      <trkpt lat="46.16814" lon="6.55741">
        <ele>1447.6</ele>
        <time>2021-06-26T07:23:20Z</time>
      </trkpt>
      <trkpt lat="46.16816" lon="6.55745">
        <ele>1447.8</ele>
        <time>2021-06-26T07:23:21Z</time>
      </trkpt>
      <trkpt lat="46.16818" lon="6.55749">
        <ele>1448</ele>
        <time>2021-06-26T07:23:22Z</time>
      </trkpt>
      <trkpt lat="46.16819" lon="6.55753">
        <ele>1448</ele>
        <time>2021-06-26T07:23:23Z</time>
      </trkpt>
      <trkpt lat="46.16821" lon="6.55756">
        <ele>1448</ele>
        <time>2021-06-26T07:23:24Z</time>
      </trkpt>
      <trkpt lat="46.16823" lon="6.5576">
        <ele>1448.2</ele>
        <time>2021-06-26T07:23:25Z</time>
      </trkpt>
      <trkpt lat="46.16824" lon="6.55764">
        <ele>1448.4</ele>
        <time>2021-06-26T07:23:26Z</time>
      </trkpt>
      <trkpt lat="46.16826" lon="6.55768">
        <ele>1448.4</ele>
        <time>2021-06-26T07:23:27Z</time>
      </trkpt>
      <trkpt lat="46.16827" lon="6.55771">
        <ele>1448.8</ele>
        <time>2021-06-26T07:23:28Z</time>
      </trkpt>
      <trkpt lat="46.16828" lon="6.55775">
        <ele>1448.8</ele>
        <time>2021-06-26T07:23:29Z</time>
      </trkpt>
      <trkpt lat="46.16829" lon="6.55779">
        <ele>1449</ele>
        <time>2021-06-26T07:23:30Z</time>
      </trkpt>
      <trkpt lat="46.1683" lon="6.55783">
        <ele>1449.2</ele>
        <time>2021-06-26T07:23:31Z</time>
      </trkpt>
      <trkpt lat="46.16832" lon="6.55787">
        <ele>1449.4</ele>
        <time>2021-06-26T07:23:32Z</time>
      </trkpt>
      <trkpt lat="46.16833" lon="6.55791">
        <ele>1449.4</ele>
        <time>2021-06-26T07:23:33Z</time>
      </trkpt>
      <trkpt lat="46.16834" lon="6.55795">
        <ele>1449.8</ele>
        <time>2021-06-26T07:23:34Z</time>
      </trkpt>
      <trkpt lat="46.16835" lon="6.55799">
        <ele>1449.8</ele>
        <time>2021-06-26T07:23:35Z</time>
      </trkpt>
      <trkpt lat="46.16836" lon="6.55803">
        <ele>1450</ele>
        <time>2021-06-26T07:23:36Z</time>
      </trkpt>
      <trkpt lat="46.16837" lon="6.55807">
        <ele>1450.4</ele>
        <time>2021-06-26T07:23:37Z</time>
      </trkpt>
      <trkpt lat="46.16837" lon="6.55811">
        <ele>1450.4</ele>
        <time>2021-06-26T07:23:38Z</time>
      </trkpt>
      <trkpt lat="46.16838" lon="6.55814">
        <ele>1450.8</ele>
        <time>2021-06-26T07:23:39Z</time>
      </trkpt>
      <trkpt lat="46.16839" lon="6.55818">
        <ele>1451</ele>
        <time>2021-06-26T07:23:40Z</time>
      </trkpt>
      <trkpt lat="46.16839" lon="6.55822">
        <ele>1451.2</ele>
        <time>2021-06-26T07:23:41Z</time>
      </trkpt>
      <trkpt lat="46.1684" lon="6.55826">
        <ele>1451.4</ele>
        <time>2021-06-26T07:23:42Z</time>
      </trkpt>
      <trkpt lat="46.1684" lon="6.5583">
        <ele>1451.6</ele>
        <time>2021-06-26T07:23:43Z</time>
      </trkpt>
      <trkpt lat="46.16841" lon="6.55834">
        <ele>1451.8</ele>
        <time>2021-06-26T07:23:44Z</time>
      </trkpt>
      <trkpt lat="46.16841" lon="6.55839">
        <ele>1451.8</ele>
        <time>2021-06-26T07:23:45Z</time>
      </trkpt>
      <trkpt lat="46.16842" lon="6.55843">
        <ele>1452.2</ele>
        <time>2021-06-26T07:23:46Z</time>
      </trkpt>
      <trkpt lat="46.16842" lon="6.55847">
        <ele>1452.6</ele>
        <time>2021-06-26T07:23:47Z</time>
      </trkpt>
      <trkpt lat="46.16843" lon="6.55851">
        <ele>1452.8</ele>
        <time>2021-06-26T07:23:48Z</time>
      </trkpt>
      <trkpt lat="46.16844" lon="6.55854">
        <ele>1452.8</ele>
        <time>2021-06-26T07:23:49Z</time>
      </trkpt>
      <trkpt lat="46.16845" lon="6.55858">
        <ele>1453.2</ele>
        <time>2021-06-26T07:23:50Z</time>
      </trkpt>
      <trkpt lat="46.16845" lon="6.55863">
        <ele>1453.4</ele>
        <time>2021-06-26T07:23:51Z</time>
      </trkpt>
      <trkpt lat="46.16846" lon="6.55867">
        <ele>1453.6</ele>
        <time>2021-06-26T07:23:52Z</time>
      </trkpt>
      <trkpt lat="46.16846" lon="6.55871">
        <ele>1453.8</ele>
        <time>2021-06-26T07:23:53Z</time>
      </trkpt>
      <trkpt lat="46.16847" lon="6.55875">
        <ele>1454</ele>
        <time>2021-06-26T07:23:54Z</time>
      </trkpt>
      <trkpt lat="46.16847" lon="6.55879">
        <ele>1454.4</ele>
        <time>2021-06-26T07:23:55Z</time>
      </trkpt>
      <trkpt lat="46.16848" lon="6.55883">
        <ele>1454.8</ele>
        <time>2021-06-26T07:23:56Z</time>
      </trkpt>
      <trkpt lat="46.16849" lon="6.55887">
        <ele>1455</ele>
        <time>2021-06-26T07:23:57Z</time>
      </trkpt>
      <trkpt lat="46.1685" lon="6.55891">
        <ele>1455.2</ele>
        <time>2021-06-26T07:23:58Z</time>
      </trkpt>
      <trkpt lat="46.16851" lon="6.55895">
        <ele>1455.4</ele>
        <time>2021-06-26T07:23:59Z</time>
      </trkpt>
      <trkpt lat="46.16852" lon="6.55899">
        <ele>1455.6</ele>
        <time>2021-06-26T07:24:00Z</time>
      </trkpt>
      <trkpt lat="46.16852" lon="6.55903">
        <ele>1455.8</ele>
        <time>2021-06-26T07:24:01Z</time>
      </trkpt>
      <trkpt lat="46.16854" lon="6.55907">
        <ele>1456</ele>
        <time>2021-06-26T07:24:02Z</time>
      </trkpt>
      <trkpt lat="46.16855" lon="6.55911">
        <ele>1456.4</ele>
        <time>2021-06-26T07:24:03Z</time>
      </trkpt>
      <trkpt lat="46.16856" lon="6.55915">
        <ele>1456.4</ele>
        <time>2021-06-26T07:24:04Z</time>
      </trkpt>
      <trkpt lat="46.16857" lon="6.55919">
        <ele>1456.6</ele>
        <time>2021-06-26T07:24:05Z</time>
      </trkpt>
      <trkpt lat="46.16857" lon="6.55923">
        <ele>1457</ele>
        <time>2021-06-26T07:24:06Z</time>
      </trkpt>
      <trkpt lat="46.16859" lon="6.55927">
        <ele>1457</ele>
        <time>2021-06-26T07:24:07Z</time>
      </trkpt>
      <trkpt lat="46.1686" lon="6.55931">
        <ele>1457</ele>
        <time>2021-06-26T07:24:08Z</time>
      </trkpt>
      <trkpt lat="46.1686" lon="6.55934">
        <ele>1457.2</ele>
        <time>2021-06-26T07:24:09Z</time>
      </trkpt>
      <trkpt lat="46.16861" lon="6.55938">
        <ele>1457.6</ele>
        <time>2021-06-26T07:24:10Z</time>
      </trkpt>
      <trkpt lat="46.16863" lon="6.55942">
        <ele>1457.6</ele>
        <time>2021-06-26T07:24:11Z</time>
      </trkpt>
      <trkpt lat="46.16864" lon="6.55946">
        <ele>1457.8</ele>
        <time>2021-06-26T07:24:12Z</time>
      </trkpt>
      <trkpt lat="46.16865" lon="6.5595">
        <ele>1458</ele>
        <time>2021-06-26T07:24:13Z</time>
      </trkpt>
      <trkpt lat="46.16866" lon="6.55954">
        <ele>1458.2</ele>
        <time>2021-06-26T07:24:14Z</time>
      </trkpt>
      <trkpt lat="46.16868" lon="6.55958">
        <ele>1458.2</ele>
        <time>2021-06-26T07:24:15Z</time>
      </trkpt>
      <trkpt lat="46.16869" lon="6.55963">
        <ele>1458.4</ele>
        <time>2021-06-26T07:24:16Z</time>
      </trkpt>
      <trkpt lat="46.1687" lon="6.55967">
        <ele>1458.6</ele>
        <time>2021-06-26T07:24:17Z</time>
      </trkpt>
      <trkpt lat="46.16871" lon="6.55971">
        <ele>1459</ele>
        <time>2021-06-26T07:24:18Z</time>
      </trkpt>
      <trkpt lat="46.16872" lon="6.55975">
        <ele>1459.2</ele>
        <time>2021-06-26T07:24:19Z</time>
      </trkpt>
      <trkpt lat="46.16873" lon="6.5598">
        <ele>1459.4</ele>
        <time>2021-06-26T07:24:20Z</time>
      </trkpt>
      <trkpt lat="46.16874" lon="6.55984">
        <ele>1459.6</ele>
        <time>2021-06-26T07:24:21Z</time>
      </trkpt>
      <trkpt lat="46.16874" lon="6.55989">
        <ele>1459.6</ele>
        <time>2021-06-26T07:24:22Z</time>
      </trkpt>
      <trkpt lat="46.16875" lon="6.55993">
        <ele>1460</ele>
        <time>2021-06-26T07:24:23Z</time>
      </trkpt>
      <trkpt lat="46.16875" lon="6.55998">
        <ele>1460</ele>
        <time>2021-06-26T07:24:24Z</time>
      </trkpt>
      <trkpt lat="46.16876" lon="6.56002">
        <ele>1460.2</ele>
        <time>2021-06-26T07:24:25Z</time>
      </trkpt>
      <trkpt lat="46.16876" lon="6.56007">
        <ele>1460.4</ele>
        <time>2021-06-26T07:24:26Z</time>
      </trkpt>
      <trkpt lat="46.16876" lon="6.56011">
        <ele>1460.8</ele>
        <time>2021-06-26T07:24:27Z</time>
      </trkpt>
      <trkpt lat="46.16875" lon="6.56016">
        <ele>1461</ele>
        <time>2021-06-26T07:24:28Z</time>
      </trkpt>
      <trkpt lat="46.16875" lon="6.5602">
        <ele>1461.2</ele>
        <time>2021-06-26T07:24:29Z</time>
      </trkpt>
      <trkpt lat="46.16875" lon="6.56025">
        <ele>1461.2</ele>
        <time>2021-06-26T07:24:30Z</time>
      </trkpt>
      <trkpt lat="46.16874" lon="6.56029">
        <ele>1461.2</ele>
        <time>2021-06-26T07:24:31Z</time>
      </trkpt>
      <trkpt lat="46.16874" lon="6.56033">
        <ele>1461.4</ele>
        <time>2021-06-26T07:24:32Z</time>
      </trkpt>
      <trkpt lat="46.16873" lon="6.56037">
        <ele>1461.4</ele>
        <time>2021-06-26T07:24:33Z</time>
      </trkpt>
      <trkpt lat="46.16873" lon="6.56041">
        <ele>1461.6</ele>
        <time>2021-06-26T07:24:34Z</time>
      </trkpt>
      <trkpt lat="46.16872" lon="6.56045">
        <ele>1461.8</ele>
        <time>2021-06-26T07:24:35Z</time>
      </trkpt>
      <trkpt lat="46.16872" lon="6.56049">
        <ele>1462</ele>
        <time>2021-06-26T07:24:36Z</time>
      </trkpt>
      <trkpt lat="46.16871" lon="6.56053">
        <ele>1462.2</ele>
        <time>2021-06-26T07:24:37Z</time>
      </trkpt>
      <trkpt lat="46.1687" lon="6.56057">
        <ele>1462.4</ele>
        <time>2021-06-26T07:24:38Z</time>
      </trkpt>
      <trkpt lat="46.16869" lon="6.56061">
        <ele>1462.6</ele>
        <time>2021-06-26T07:24:39Z</time>
      </trkpt>
      <trkpt lat="46.16867" lon="6.56065">
        <ele>1462.8</ele>
        <time>2021-06-26T07:24:40Z</time>
      </trkpt>
      <trkpt lat="46.16866" lon="6.56069">
        <ele>1463</ele>
        <time>2021-06-26T07:24:41Z</time>
      </trkpt>
      <trkpt lat="46.16865" lon="6.56073">
        <ele>1463.2</ele>
        <time>2021-06-26T07:24:42Z</time>
      </trkpt>
      <trkpt lat="46.16864" lon="6.56077">
        <ele>1463.4</ele>
        <time>2021-06-26T07:24:43Z</time>
      </trkpt>
      <trkpt lat="46.16863" lon="6.5608">
        <ele>1463.6</ele>
        <time>2021-06-26T07:24:44Z</time>
      </trkpt>
      <trkpt lat="46.16863" lon="6.56084">
        <ele>1464</ele>
        <time>2021-06-26T07:24:45Z</time>
      </trkpt>
      <trkpt lat="46.16862" lon="6.56087">
        <ele>1464</ele>
        <time>2021-06-26T07:24:46Z</time>
      </trkpt>
      <trkpt lat="46.16861" lon="6.5609">
        <ele>1464.2</ele>
        <time>2021-06-26T07:24:47Z</time>
      </trkpt>
      <trkpt lat="46.1686" lon="6.56094">
        <ele>1464.8</ele>
        <time>2021-06-26T07:24:48Z</time>
      </trkpt>
      <trkpt lat="46.16859" lon="6.56097">
        <ele>1465</ele>
        <time>2021-06-26T07:24:49Z</time>
      </trkpt>
      <trkpt lat="46.16858" lon="6.561">
        <ele>1465.2</ele>
        <time>2021-06-26T07:24:50Z</time>
      </trkpt>
      <trkpt lat="46.16856" lon="6.56103">
        <ele>1465.6</ele>
        <time>2021-06-26T07:24:51Z</time>
      </trkpt>
      <trkpt lat="46.16855" lon="6.56107">
        <ele>1465.6</ele>
        <time>2021-06-26T07:24:52Z</time>
      </trkpt>
      <trkpt lat="46.16854" lon="6.5611">
        <ele>1465.8</ele>
        <time>2021-06-26T07:24:53Z</time>
      </trkpt>
      <trkpt lat="46.16852" lon="6.56114">
        <ele>1466</ele>
        <time>2021-06-26T07:24:54Z</time>
      </trkpt>
      <trkpt lat="46.1685" lon="6.56117">
        <ele>1466.2</ele>
        <time>2021-06-26T07:24:55Z</time>
      </trkpt>
      <trkpt lat="46.16849" lon="6.56121">
        <ele>1466.4</ele>
        <time>2021-06-26T07:24:56Z</time>
      </trkpt>
      <trkpt lat="46.16847" lon="6.56124">
        <ele>1466.6</ele>
        <time>2021-06-26T07:24:57Z</time>
      </trkpt>
      <trkpt lat="46.16846" lon="6.56128">
        <ele>1466.8</ele>
        <time>2021-06-26T07:24:58Z</time>
      </trkpt>
      <trkpt lat="46.16844" lon="6.56131">
        <ele>1466.8</ele>
        <time>2021-06-26T07:24:59Z</time>
      </trkpt>
      <trkpt lat="46.16842" lon="6.56135">
        <ele>1467</ele>
        <time>2021-06-26T07:25:00Z</time>
      </trkpt>
      <trkpt lat="46.1684" lon="6.56138">
        <ele>1467</ele>
        <time>2021-06-26T07:25:01Z</time>
      </trkpt>
      <trkpt lat="46.16838" lon="6.56142">
        <ele>1467.2</ele>
        <time>2021-06-26T07:25:02Z</time>
      </trkpt>
      <trkpt lat="46.16836" lon="6.56146">
        <ele>1467.4</ele>
        <time>2021-06-26T07:25:03Z</time>
      </trkpt>
      <trkpt lat="46.16835" lon="6.56149">
        <ele>1467.6</ele>
        <time>2021-06-26T07:25:04Z</time>
      </trkpt>
      <trkpt lat="46.16833" lon="6.56153">
        <ele>1467.8</ele>
        <time>2021-06-26T07:25:05Z</time>
      </trkpt>
      <trkpt lat="46.16832" lon="6.56156">
        <ele>1468.2</ele>
        <time>2021-06-26T07:25:06Z</time>
      </trkpt>
      <trkpt lat="46.16831" lon="6.5616">
        <ele>1468.2</ele>
        <time>2021-06-26T07:25:07Z</time>
      </trkpt>
      <trkpt lat="46.16829" lon="6.56163">
        <ele>1468.4</ele>
        <time>2021-06-26T07:25:08Z</time>
      </trkpt>
      <trkpt lat="46.16827" lon="6.56167">
        <ele>1468.6</ele>
        <time>2021-06-26T07:25:09Z</time>
      </trkpt>
      <trkpt lat="46.16826" lon="6.5617">
        <ele>1468.6</ele>
        <time>2021-06-26T07:25:10Z</time>
      </trkpt>
      <trkpt lat="46.16824" lon="6.56174">
        <ele>1468.8</ele>
        <time>2021-06-26T07:25:11Z</time>
      </trkpt>
      <trkpt lat="46.16822" lon="6.56177">
        <ele>1469</ele>
        <time>2021-06-26T07:25:12Z</time>
      </trkpt>
      <trkpt lat="46.16821" lon="6.56181">
        <ele>1469.4</ele>
        <time>2021-06-26T07:25:13Z</time>
      </trkpt>
      <trkpt lat="46.16819" lon="6.56184">
        <ele>1469.4</ele>
        <time>2021-06-26T07:25:14Z</time>
      </trkpt>
      <trkpt lat="46.16818" lon="6.56188">
        <ele>1469.6</ele>
        <time>2021-06-26T07:25:15Z</time>
      </trkpt>
      <trkpt lat="46.16816" lon="6.56191">
        <ele>1469.8</ele>
        <time>2021-06-26T07:25:16Z</time>
      </trkpt>
      <trkpt lat="46.16814" lon="6.56195">
        <ele>1470.2</ele>
        <time>2021-06-26T07:25:17Z</time>
      </trkpt>
      <trkpt lat="46.16812" lon="6.56199">
        <ele>1470.4</ele>
        <time>2021-06-26T07:25:18Z</time>
      </trkpt>
      <trkpt lat="46.1681" lon="6.56202">
        <ele>1470.4</ele>
        <time>2021-06-26T07:25:19Z</time>
      </trkpt>
      <trkpt lat="46.16808" lon="6.56205">
        <ele>1470.8</ele>
        <time>2021-06-26T07:25:20Z</time>
      </trkpt>
      <trkpt lat="46.16806" lon="6.56208">
        <ele>1470.8</ele>
        <time>2021-06-26T07:25:21Z</time>
      </trkpt>
      <trkpt lat="46.16804" lon="6.56211">
        <ele>1471.2</ele>
        <time>2021-06-26T07:25:22Z</time>
      </trkpt>
      <trkpt lat="46.16803" lon="6.56214">
        <ele>1471.6</ele>
        <time>2021-06-26T07:25:23Z</time>
      </trkpt>
      <trkpt lat="46.16801" lon="6.56217">
        <ele>1471.6</ele>
        <time>2021-06-26T07:25:24Z</time>
      </trkpt>
      <trkpt lat="46.168" lon="6.56221">
        <ele>1472</ele>
        <time>2021-06-26T07:25:25Z</time>
      </trkpt>
      <trkpt lat="46.16798" lon="6.56224">
        <ele>1472.2</ele>
        <time>2021-06-26T07:25:26Z</time>
      </trkpt>
      <trkpt lat="46.16796" lon="6.56227">
        <ele>1472.2</ele>
        <time>2021-06-26T07:25:27Z</time>
      </trkpt>
      <trkpt lat="46.16794" lon="6.56231">
        <ele>1472.6</ele>
        <time>2021-06-26T07:25:28Z</time>
      </trkpt>
      <trkpt lat="46.16792" lon="6.56234">
        <ele>1472.8</ele>
        <time>2021-06-26T07:25:29Z</time>
      </trkpt>
      <trkpt lat="46.1679" lon="6.56237">
        <ele>1473</ele>
        <time>2021-06-26T07:25:30Z</time>
      </trkpt>
      <trkpt lat="46.16788" lon="6.5624">
        <ele>1473.2</ele>
        <time>2021-06-26T07:25:31Z</time>
      </trkpt>
      <trkpt lat="46.16786" lon="6.56243">
        <ele>1473.2</ele>
        <time>2021-06-26T07:25:32Z</time>
      </trkpt>
      <trkpt lat="46.16784" lon="6.56245">
        <ele>1473.4</ele>
        <time>2021-06-26T07:25:33Z</time>
      </trkpt>
      <trkpt lat="46.16782" lon="6.56248">
        <ele>1473.6</ele>
        <time>2021-06-26T07:25:34Z</time>
      </trkpt>
      <trkpt lat="46.16779" lon="6.5625">
        <ele>1474</ele>
        <time>2021-06-26T07:25:35Z</time>
      </trkpt>
      <trkpt lat="46.16777" lon="6.56252">
        <ele>1474</ele>
        <time>2021-06-26T07:25:36Z</time>
      </trkpt>
      <trkpt lat="46.16775" lon="6.56255">
        <ele>1474</ele>
        <time>2021-06-26T07:25:37Z</time>
      </trkpt>
      <trkpt lat="46.16772" lon="6.56257">
        <ele>1474.2</ele>
        <time>2021-06-26T07:25:38Z</time>
      </trkpt>
      <trkpt lat="46.1677" lon="6.56259">
        <ele>1474.4</ele>
        <time>2021-06-26T07:25:39Z</time>
      </trkpt>
      <trkpt lat="46.16768" lon="6.56261">
        <ele>1474.4</ele>
        <time>2021-06-26T07:25:40Z</time>
      </trkpt>
      <trkpt lat="46.16765" lon="6.56262">
        <ele>1474.6</ele>
        <time>2021-06-26T07:25:41Z</time>
      </trkpt>
      <trkpt lat="46.16763" lon="6.56264">
        <ele>1474.8</ele>
        <time>2021-06-26T07:25:42Z</time>
      </trkpt>
      <trkpt lat="46.16761" lon="6.56265">
        <ele>1475</ele>
        <time>2021-06-26T07:25:43Z</time>
      </trkpt>
      <trkpt lat="46.16758" lon="6.56267">
        <ele>1475</ele>
        <time>2021-06-26T07:25:44Z</time>
      </trkpt>
      <trkpt lat="46.16756" lon="6.56268">
        <ele>1475.2</ele>
        <time>2021-06-26T07:25:45Z</time>
      </trkpt>
      <trkpt lat="46.16753" lon="6.5627">
        <ele>1475.8</ele>
        <time>2021-06-26T07:25:46Z</time>
      </trkpt>
      <trkpt lat="46.16751" lon="6.56271">
        <ele>1476</ele>
        <time>2021-06-26T07:25:47Z</time>
      </trkpt>
      <trkpt lat="46.16748" lon="6.56273">
        <ele>1476.2</ele>
        <time>2021-06-26T07:25:48Z</time>
      </trkpt>
      <trkpt lat="46.16746" lon="6.56274">
        <ele>1476.4</ele>
        <time>2021-06-26T07:25:49Z</time>
      </trkpt>
      <trkpt lat="46.16743" lon="6.56276">
        <ele>1476.8</ele>
        <time>2021-06-26T07:25:50Z</time>
      </trkpt>
      <trkpt lat="46.1674" lon="6.56277">
        <ele>1476.8</ele>
        <time>2021-06-26T07:25:51Z</time>
      </trkpt>
      <trkpt lat="46.16738" lon="6.56279">
        <ele>1477.2</ele>
        <time>2021-06-26T07:25:52Z</time>
      </trkpt>
      <trkpt lat="46.16735" lon="6.56281">
        <ele>1477.2</ele>
        <time>2021-06-26T07:25:53Z</time>
      </trkpt>
      <trkpt lat="46.16733" lon="6.56283">
        <ele>1477.4</ele>
        <time>2021-06-26T07:25:54Z</time>
      </trkpt>
      <trkpt lat="46.16731" lon="6.56285">
        <ele>1477.8</ele>
        <time>2021-06-26T07:25:55Z</time>
      </trkpt>
      <trkpt lat="46.16728" lon="6.56287">
        <ele>1477.8</ele>
        <time>2021-06-26T07:25:56Z</time>
      </trkpt>
      <trkpt lat="46.16726" lon="6.5629">
        <ele>1478</ele>
        <time>2021-06-26T07:25:57Z</time>
      </trkpt>
      <trkpt lat="46.16723" lon="6.56292">
        <ele>1478</ele>
        <time>2021-06-26T07:25:58Z</time>
      </trkpt>
      <trkpt lat="46.16721" lon="6.56294">
        <ele>1478.2</ele>
        <time>2021-06-26T07:25:59Z</time>
      </trkpt>
      <trkpt lat="46.16719" lon="6.56297">
        <ele>1478.4</ele>
        <time>2021-06-26T07:26:00Z</time>
      </trkpt>
      <trkpt lat="46.16717" lon="6.563">
        <ele>1478.8</ele>
        <time>2021-06-26T07:26:01Z</time>
      </trkpt>
      <trkpt lat="46.16715" lon="6.56302">
        <ele>1479</ele>
        <time>2021-06-26T07:26:02Z</time>
      </trkpt>
      <trkpt lat="46.16713" lon="6.56305">
        <ele>1479.2</ele>
        <time>2021-06-26T07:26:03Z</time>
      </trkpt>
      <trkpt lat="46.16711" lon="6.56308">
        <ele>1479.2</ele>
        <time>2021-06-26T07:26:04Z</time>
      </trkpt>
      <trkpt lat="46.16709" lon="6.5631">
        <ele>1479.6</ele>
        <time>2021-06-26T07:26:05Z</time>
      </trkpt>
      <trkpt lat="46.16707" lon="6.56313">
        <ele>1479.6</ele>
        <time>2021-06-26T07:26:06Z</time>
      </trkpt>
      <trkpt lat="46.16705" lon="6.56316">
        <ele>1479.8</ele>
        <time>2021-06-26T07:26:07Z</time>
      </trkpt>
      <trkpt lat="46.16703" lon="6.56318">
        <ele>1480</ele>
        <time>2021-06-26T07:26:08Z</time>
      </trkpt>
      <trkpt lat="46.16701" lon="6.56321">
        <ele>1480</ele>
        <time>2021-06-26T07:26:09Z</time>
      </trkpt>
      <trkpt lat="46.16699" lon="6.56324">
        <ele>1480.2</ele>
        <time>2021-06-26T07:26:10Z</time>
      </trkpt>
      <trkpt lat="46.16697" lon="6.56327">
        <ele>1480.4</ele>
        <time>2021-06-26T07:26:11Z</time>
      </trkpt>
      <trkpt lat="46.16695" lon="6.5633">
        <ele>1480.8</ele>
        <time>2021-06-26T07:26:12Z</time>
      </trkpt>
      <trkpt lat="46.16694" lon="6.56333">
        <ele>1481.2</ele>
        <time>2021-06-26T07:26:13Z</time>
      </trkpt>
      <trkpt lat="46.16692" lon="6.56336">
        <ele>1481.4</ele>
        <time>2021-06-26T07:26:14Z</time>
      </trkpt>
      <trkpt lat="46.1669" lon="6.56339">
        <ele>1481.6</ele>
        <time>2021-06-26T07:26:15Z</time>
      </trkpt>
      <trkpt lat="46.16688" lon="6.56342">
        <ele>1481.8</ele>
        <time>2021-06-26T07:26:16Z</time>
      </trkpt>
      <trkpt lat="46.16686" lon="6.56346">
        <ele>1482</ele>
        <time>2021-06-26T07:26:17Z</time>
      </trkpt>
      <trkpt lat="46.16684" lon="6.56349">
        <ele>1482.2</ele>
        <time>2021-06-26T07:26:18Z</time>
      </trkpt>
      <trkpt lat="46.16683" lon="6.56352">
        <ele>1482.6</ele>
        <time>2021-06-26T07:26:19Z</time>
      </trkpt>
      <trkpt lat="46.16681" lon="6.56356">
        <ele>1482.8</ele>
        <time>2021-06-26T07:26:20Z</time>
      </trkpt>
      <trkpt lat="46.16679" lon="6.56359">
        <ele>1482.8</ele>
        <time>2021-06-26T07:26:21Z</time>
      </trkpt>
      <trkpt lat="46.16677" lon="6.56362">
        <ele>1483</ele>
        <time>2021-06-26T07:26:22Z</time>
      </trkpt>
      <trkpt lat="46.16675" lon="6.56366">
        <ele>1483</ele>
        <time>2021-06-26T07:26:23Z</time>
      </trkpt>
      <trkpt lat="46.16674" lon="6.56369">
        <ele>1483.4</ele>
        <time>2021-06-26T07:26:24Z</time>
      </trkpt>
      <trkpt lat="46.16672" lon="6.56372">
        <ele>1483.4</ele>
        <time>2021-06-26T07:26:25Z</time>
      </trkpt>
      <trkpt lat="46.16669" lon="6.56375">
        <ele>1483.6</ele>
        <time>2021-06-26T07:26:26Z</time>
      </trkpt>
      <trkpt lat="46.16667" lon="6.56378">
        <ele>1483.6</ele>
        <time>2021-06-26T07:26:27Z</time>
      </trkpt>
      <trkpt lat="46.16665" lon="6.56381">
        <ele>1484</ele>
        <time>2021-06-26T07:26:28Z</time>
      </trkpt>
      <trkpt lat="46.16663" lon="6.56384">
        <ele>1484</ele>
        <time>2021-06-26T07:26:29Z</time>
      </trkpt>
      <trkpt lat="46.16661" lon="6.56387">
        <ele>1484.2</ele>
        <time>2021-06-26T07:26:30Z</time>
      </trkpt>
      <trkpt lat="46.16659" lon="6.5639">
        <ele>1484.4</ele>
        <time>2021-06-26T07:26:31Z</time>
      </trkpt>
      <trkpt lat="46.16657" lon="6.56393">
        <ele>1484.4</ele>
        <time>2021-06-26T07:26:32Z</time>
      </trkpt>
      <trkpt lat="46.16655" lon="6.56396">
        <ele>1484.6</ele>
        <time>2021-06-26T07:26:33Z</time>
      </trkpt>
      <trkpt lat="46.16653" lon="6.56399">
        <ele>1484.8</ele>
        <time>2021-06-26T07:26:34Z</time>
      </trkpt>
      <trkpt lat="46.16651" lon="6.56401">
        <ele>1485.2</ele>
        <time>2021-06-26T07:26:35Z</time>
      </trkpt>
      <trkpt lat="46.16649" lon="6.56404">
        <ele>1485.2</ele>
        <time>2021-06-26T07:26:36Z</time>
      </trkpt>
      <trkpt lat="46.16646" lon="6.56407">
        <ele>1485.6</ele>
        <time>2021-06-26T07:26:37Z</time>
      </trkpt>
      <trkpt lat="46.16644" lon="6.56409">
        <ele>1485.6</ele>
        <time>2021-06-26T07:26:38Z</time>
      </trkpt>
      <trkpt lat="46.16642" lon="6.56412">
        <ele>1486</ele>
        <time>2021-06-26T07:26:39Z</time>
      </trkpt>
      <trkpt lat="46.16639" lon="6.56414">
        <ele>1486.2</ele>
        <time>2021-06-26T07:26:40Z</time>
      </trkpt>
      <trkpt lat="46.16637" lon="6.56417">
        <ele>1486.4</ele>
        <time>2021-06-26T07:26:41Z</time>
      </trkpt>
      <trkpt lat="46.16634" lon="6.56419">
        <ele>1486.6</ele>
        <time>2021-06-26T07:26:42Z</time>
      </trkpt>
      <trkpt lat="46.16631" lon="6.56421">
        <ele>1486.6</ele>
        <time>2021-06-26T07:26:43Z</time>
      </trkpt>
      <trkpt lat="46.16629" lon="6.56423">
        <ele>1486.8</ele>
        <time>2021-06-26T07:26:44Z</time>
      </trkpt>
      <trkpt lat="46.16626" lon="6.56424">
        <ele>1487</ele>
        <time>2021-06-26T07:26:45Z</time>
      </trkpt>
      <trkpt lat="46.16623" lon="6.56426">
        <ele>1487.4</ele>
        <time>2021-06-26T07:26:46Z</time>
      </trkpt>
      <trkpt lat="46.1662" lon="6.56427">
        <ele>1487.4</ele>
        <time>2021-06-26T07:26:47Z</time>
      </trkpt>
      <trkpt lat="46.16617" lon="6.56428">
        <ele>1487.6</ele>
        <time>2021-06-26T07:26:48Z</time>
      </trkpt>
      <trkpt lat="46.16614" lon="6.56429">
        <ele>1487.6</ele>
        <time>2021-06-26T07:26:49Z</time>
      </trkpt>
      <trkpt lat="46.16611" lon="6.5643">
        <ele>1487.8</ele>
        <time>2021-06-26T07:26:50Z</time>
      </trkpt>
      <trkpt lat="46.16608" lon="6.5643">
        <ele>1488.2</ele>
        <time>2021-06-26T07:26:51Z</time>
      </trkpt>
      <trkpt lat="46.16605" lon="6.56431">
        <ele>1488.2</ele>
        <time>2021-06-26T07:26:52Z</time>
      </trkpt>
      <trkpt lat="46.16603" lon="6.56431">
        <ele>1488.4</ele>
        <time>2021-06-26T07:26:53Z</time>
      </trkpt>
      <trkpt lat="46.166" lon="6.56432">
        <ele>1488.6</ele>
        <time>2021-06-26T07:26:54Z</time>
      </trkpt>
      <trkpt lat="46.16598" lon="6.56432">
        <ele>1488.8</ele>
        <time>2021-06-26T07:26:55Z</time>
      </trkpt>
      <trkpt lat="46.16595" lon="6.56432">
        <ele>1489</ele>
        <time>2021-06-26T07:26:56Z</time>
      </trkpt>
      <trkpt lat="46.16592" lon="6.56433">
        <ele>1489.4</ele>
        <time>2021-06-26T07:26:57Z</time>
      </trkpt>
      <trkpt lat="46.1659" lon="6.56433">
        <ele>1489.4</ele>
        <time>2021-06-26T07:26:58Z</time>
      </trkpt>
      <trkpt lat="46.16587" lon="6.56433">
        <ele>1489.8</ele>
        <time>2021-06-26T07:26:59Z</time>
      </trkpt>
      <trkpt lat="46.16584" lon="6.56434">
        <ele>1490</ele>
        <time>2021-06-26T07:27:00Z</time>
      </trkpt>
      <trkpt lat="46.16582" lon="6.56435">
        <ele>1490</ele>
        <time>2021-06-26T07:27:01Z</time>
      </trkpt>
      <trkpt lat="46.16579" lon="6.56435">
        <ele>1490.2</ele>
        <time>2021-06-26T07:27:02Z</time>
      </trkpt>
      <trkpt lat="46.16576" lon="6.56436">
        <ele>1490.6</ele>
        <time>2021-06-26T07:27:03Z</time>
      </trkpt>
      <trkpt lat="46.16573" lon="6.56437">
        <ele>1490.6</ele>
        <time>2021-06-26T07:27:04Z</time>
      </trkpt>
      <trkpt lat="46.1657" lon="6.56438">
        <ele>1491</ele>
        <time>2021-06-26T07:27:05Z</time>
      </trkpt>
      <trkpt lat="46.16567" lon="6.5644">
        <ele>1491.2</ele>
        <time>2021-06-26T07:27:06Z</time>
      </trkpt>
      <trkpt lat="46.16565" lon="6.56441">
        <ele>1491.4</ele>
        <time>2021-06-26T07:27:07Z</time>
      </trkpt>
      <trkpt lat="46.16562" lon="6.56443">
        <ele>1491.6</ele>
        <time>2021-06-26T07:27:08Z</time>
      </trkpt>
      <trkpt lat="46.16559" lon="6.56444">
        <ele>1492</ele>
        <time>2021-06-26T07:27:09Z</time>
      </trkpt>
      <trkpt lat="46.16556" lon="6.56446">
        <ele>1492.2</ele>
        <time>2021-06-26T07:27:10Z</time>
      </trkpt>
      <trkpt lat="46.16554" lon="6.56448">
        <ele>1492.4</ele>
        <time>2021-06-26T07:27:11Z</time>
      </trkpt>
      <trkpt lat="46.16551" lon="6.56451">
        <ele>1492.8</ele>
        <time>2021-06-26T07:27:12Z</time>
      </trkpt>
      <trkpt lat="46.16549" lon="6.56453">
        <ele>1493</ele>
        <time>2021-06-26T07:27:13Z</time>
      </trkpt>
      <trkpt lat="46.16546" lon="6.56455">
        <ele>1493.4</ele>
        <time>2021-06-26T07:27:14Z</time>
      </trkpt>
      <trkpt lat="46.16543" lon="6.56458">
        <ele>1493.6</ele>
        <time>2021-06-26T07:27:15Z</time>
      </trkpt>
      <trkpt lat="46.16541" lon="6.56461">
        <ele>1493.8</ele>
        <time>2021-06-26T07:27:16Z</time>
      </trkpt>
      <trkpt lat="46.16538" lon="6.56463">
        <ele>1494</ele>
        <time>2021-06-26T07:27:17Z</time>
      </trkpt>
      <trkpt lat="46.16536" lon="6.56466">
        <ele>1494.2</ele>
        <time>2021-06-26T07:27:18Z</time>
      </trkpt>
      <trkpt lat="46.16533" lon="6.56469">
        <ele>1494.4</ele>
        <time>2021-06-26T07:27:19Z</time>
      </trkpt>
      <trkpt lat="46.16531" lon="6.56472">
        <ele>1494.6</ele>
        <time>2021-06-26T07:27:20Z</time>
      </trkpt>
      <trkpt lat="46.16528" lon="6.56475">
        <ele>1494.8</ele>
        <time>2021-06-26T07:27:21Z</time>
      </trkpt>
      <trkpt lat="46.16526" lon="6.56478">
        <ele>1495.2</ele>
        <time>2021-06-26T07:27:22Z</time>
      </trkpt>
      <trkpt lat="46.16524" lon="6.56481">
        <ele>1495.2</ele>
        <time>2021-06-26T07:27:23Z</time>
      </trkpt>
      <trkpt lat="46.16521" lon="6.56484">
        <ele>1495.4</ele>
        <time>2021-06-26T07:27:24Z</time>
      </trkpt>
      <trkpt lat="46.16519" lon="6.56487">
        <ele>1495.6</ele>
        <time>2021-06-26T07:27:25Z</time>
      </trkpt>
      <trkpt lat="46.16517" lon="6.56489">
        <ele>1495.6</ele>
        <time>2021-06-26T07:27:26Z</time>
      </trkpt>
      <trkpt lat="46.16514" lon="6.56492">
        <ele>1495.8</ele>
        <time>2021-06-26T07:27:27Z</time>
      </trkpt>
      <trkpt lat="46.16512" lon="6.56495">
        <ele>1495.8</ele>
        <time>2021-06-26T07:27:28Z</time>
      </trkpt>
      <trkpt lat="46.1651" lon="6.56498">
        <ele>1496.2</ele>
        <time>2021-06-26T07:27:29Z</time>
      </trkpt>
      <trkpt lat="46.16507" lon="6.56501">
        <ele>1496.4</ele>
        <time>2021-06-26T07:27:30Z</time>
      </trkpt>
      <trkpt lat="46.16505" lon="6.56503">
        <ele>1496.8</ele>
        <time>2021-06-26T07:27:31Z</time>
      </trkpt>
      <trkpt lat="46.16503" lon="6.56507">
        <ele>1496.8</ele>
        <time>2021-06-26T07:27:32Z</time>
      </trkpt>
      <trkpt lat="46.16501" lon="6.5651">
        <ele>1497.4</ele>
        <time>2021-06-26T07:27:33Z</time>
      </trkpt>
      <trkpt lat="46.16499" lon="6.56513">
        <ele>1497.2</ele>
        <time>2021-06-26T07:27:34Z</time>
      </trkpt>
      <trkpt lat="46.16497" lon="6.56517">
        <ele>1497.6</ele>
        <time>2021-06-26T07:27:35Z</time>
      </trkpt>
      <trkpt lat="46.16495" lon="6.56521">
        <ele>1497.6</ele>
        <time>2021-06-26T07:27:36Z</time>
      </trkpt>
      <trkpt lat="46.16494" lon="6.56524">
        <ele>1498</ele>
        <time>2021-06-26T07:27:37Z</time>
      </trkpt>
      <trkpt lat="46.16492" lon="6.56528">
        <ele>1498.4</ele>
        <time>2021-06-26T07:27:38Z</time>
      </trkpt>
      <trkpt lat="46.16491" lon="6.56532">
        <ele>1498.6</ele>
        <time>2021-06-26T07:27:39Z</time>
      </trkpt>
      <trkpt lat="46.16489" lon="6.56535">
        <ele>1499</ele>
        <time>2021-06-26T07:27:40Z</time>
      </trkpt>
      <trkpt lat="46.16488" lon="6.56539">
        <ele>1499</ele>
        <time>2021-06-26T07:27:41Z</time>
      </trkpt>
      <trkpt lat="46.16487" lon="6.56543">
        <ele>1499.2</ele>
        <time>2021-06-26T07:27:42Z</time>
      </trkpt>
      <trkpt lat="46.16486" lon="6.56546">
        <ele>1499.6</ele>
        <time>2021-06-26T07:27:43Z</time>
      </trkpt>
      <trkpt lat="46.16484" lon="6.5655">
        <ele>1499.8</ele>
        <time>2021-06-26T07:27:44Z</time>
      </trkpt>
      <trkpt lat="46.16483" lon="6.56554">
        <ele>1499.8</ele>
        <time>2021-06-26T07:27:45Z</time>
      </trkpt>
      <trkpt lat="46.16482" lon="6.56558">
        <ele>1500</ele>
        <time>2021-06-26T07:27:46Z</time>
      </trkpt>
      <trkpt lat="46.16481" lon="6.56563">
        <ele>1500.4</ele>
        <time>2021-06-26T07:27:47Z</time>
      </trkpt>
      <trkpt lat="46.16479" lon="6.56567">
        <ele>1500.6</ele>
        <time>2021-06-26T07:27:48Z</time>
      </trkpt>
      <trkpt lat="46.16478" lon="6.56571">
        <ele>1500.6</ele>
        <time>2021-06-26T07:27:49Z</time>
      </trkpt>
      <trkpt lat="46.16477" lon="6.56575">
        <ele>1500.8</ele>
        <time>2021-06-26T07:27:50Z</time>
      </trkpt>
      <trkpt lat="46.16475" lon="6.5658">
        <ele>1501</ele>
        <time>2021-06-26T07:27:51Z</time>
      </trkpt>
      <trkpt lat="46.16474" lon="6.56584">
        <ele>1501.2</ele>
        <time>2021-06-26T07:27:52Z</time>
      </trkpt>
      <trkpt lat="46.16473" lon="6.56588">
        <ele>1501.6</ele>
        <time>2021-06-26T07:27:53Z</time>
      </trkpt>
      <trkpt lat="46.16471" lon="6.56593">
        <ele>1501.8</ele>
        <time>2021-06-26T07:27:54Z</time>
      </trkpt>
      <trkpt lat="46.1647" lon="6.56597">
        <ele>1501.8</ele>
        <time>2021-06-26T07:27:55Z</time>
      </trkpt>
      <trkpt lat="46.16469" lon="6.56602">
        <ele>1502.2</ele>
        <time>2021-06-26T07:27:56Z</time>
      </trkpt>
      <trkpt lat="46.16468" lon="6.56606">
        <ele>1502.2</ele>
        <time>2021-06-26T07:27:57Z</time>
      </trkpt>
      <trkpt lat="46.16467" lon="6.5661">
        <ele>1502.4</ele>
        <time>2021-06-26T07:27:58Z</time>
      </trkpt>
      <trkpt lat="46.16466" lon="6.56614">
        <ele>1502.6</ele>
        <time>2021-06-26T07:27:59Z</time>
      </trkpt>
      <trkpt lat="46.16465" lon="6.56618">
        <ele>1502.8</ele>
        <time>2021-06-26T07:28:00Z</time>
      </trkpt>
      <trkpt lat="46.16464" lon="6.56622">
        <ele>1503</ele>
        <time>2021-06-26T07:28:01Z</time>
      </trkpt>
      <trkpt lat="46.16463" lon="6.56626">
        <ele>1503.4</ele>
        <time>2021-06-26T07:28:02Z</time>
      </trkpt>
      <trkpt lat="46.16462" lon="6.5663">
        <ele>1503.4</ele>
        <time>2021-06-26T07:28:03Z</time>
      </trkpt>
      <trkpt lat="46.16461" lon="6.56634">
        <ele>1503.6</ele>
        <time>2021-06-26T07:28:04Z</time>
      </trkpt>
      <trkpt lat="46.16459" lon="6.56638">
        <ele>1503.8</ele>
        <time>2021-06-26T07:28:05Z</time>
      </trkpt>
      <trkpt lat="46.16458" lon="6.56641">
        <ele>1504</ele>
        <time>2021-06-26T07:28:06Z</time>
      </trkpt>
      <trkpt lat="46.16457" lon="6.56645">
        <ele>1504</ele>
        <time>2021-06-26T07:28:07Z</time>
      </trkpt>
      <trkpt lat="46.16456" lon="6.56649">
        <ele>1504.4</ele>
        <time>2021-06-26T07:28:08Z</time>
      </trkpt>
      <trkpt lat="46.16454" lon="6.56653">
        <ele>1504.6</ele>
        <time>2021-06-26T07:28:09Z</time>
      </trkpt>
      <trkpt lat="46.16452" lon="6.56656">
        <ele>1504.6</ele>
        <time>2021-06-26T07:28:10Z</time>
      </trkpt>
      <trkpt lat="46.1645" lon="6.5666">
        <ele>1504.8</ele>
        <time>2021-06-26T07:28:11Z</time>
      </trkpt>
      <trkpt lat="46.16449" lon="6.56664">
        <ele>1504.8</ele>
        <time>2021-06-26T07:28:12Z</time>
      </trkpt>
      <trkpt lat="46.16446" lon="6.56668">
        <ele>1505</ele>
        <time>2021-06-26T07:28:13Z</time>
      </trkpt>
      <trkpt lat="46.16445" lon="6.56672">
        <ele>1505.4</ele>
        <time>2021-06-26T07:28:14Z</time>
      </trkpt>
      <trkpt lat="46.16443" lon="6.56675">
        <ele>1505.6</ele>
        <time>2021-06-26T07:28:15Z</time>
      </trkpt>
      <trkpt lat="46.16441" lon="6.56679">
        <ele>1505.8</ele>
        <time>2021-06-26T07:28:16Z</time>
      </trkpt>
      <trkpt lat="46.16438" lon="6.56683">
        <ele>1506</ele>
        <time>2021-06-26T07:28:17Z</time>
      </trkpt>
      <trkpt lat="46.16436" lon="6.56686">
        <ele>1506</ele>
        <time>2021-06-26T07:28:18Z</time>
      </trkpt>
      <trkpt lat="46.16434" lon="6.5669">
        <ele>1506.4</ele>
        <time>2021-06-26T07:28:19Z</time>
      </trkpt>
      <trkpt lat="46.16432" lon="6.56693">
        <ele>1506.4</ele>
        <time>2021-06-26T07:28:20Z</time>
      </trkpt>
      <trkpt lat="46.1643" lon="6.56697">
        <ele>1506.6</ele>
        <time>2021-06-26T07:28:21Z</time>
      </trkpt>
      <trkpt lat="46.16428" lon="6.56701">
        <ele>1507</ele>
        <time>2021-06-26T07:28:22Z</time>
      </trkpt>
      <trkpt lat="46.16426" lon="6.56705">
        <ele>1507.2</ele>
        <time>2021-06-26T07:28:23Z</time>
      </trkpt>
      <trkpt lat="46.16424" lon="6.56708">
        <ele>1507.2</ele>
        <time>2021-06-26T07:28:24Z</time>
      </trkpt>
      <trkpt lat="46.16422" lon="6.56712">
        <ele>1507.6</ele>
        <time>2021-06-26T07:28:25Z</time>
      </trkpt>
      <trkpt lat="46.1642" lon="6.56716">
        <ele>1507.6</ele>
        <time>2021-06-26T07:28:26Z</time>
      </trkpt>
      <trkpt lat="46.16419" lon="6.5672">
        <ele>1508</ele>
        <time>2021-06-26T07:28:27Z</time>
      </trkpt>
      <trkpt lat="46.16417" lon="6.56723">
        <ele>1508.2</ele>
        <time>2021-06-26T07:28:28Z</time>
      </trkpt>
      <trkpt lat="46.16414" lon="6.56727">
        <ele>1508.4</ele>
        <time>2021-06-26T07:28:29Z</time>
      </trkpt>
      <trkpt lat="46.16412" lon="6.5673">
        <ele>1508.6</ele>
        <time>2021-06-26T07:28:30Z</time>
      </trkpt>
      <trkpt lat="46.16411" lon="6.56734">
        <ele>1508.8</ele>
        <time>2021-06-26T07:28:31Z</time>
      </trkpt>
      <trkpt lat="46.16409" lon="6.56737">
        <ele>1509</ele>
        <time>2021-06-26T07:28:32Z</time>
      </trkpt>
      <trkpt lat="46.16407" lon="6.5674">
        <ele>1509</ele>
        <time>2021-06-26T07:28:33Z</time>
      </trkpt>
      <trkpt lat="46.16405" lon="6.56743">
        <ele>1509</ele>
        <time>2021-06-26T07:28:34Z</time>
      </trkpt>
      <trkpt lat="46.16403" lon="6.56747">
        <ele>1509.2</ele>
        <time>2021-06-26T07:28:35Z</time>
      </trkpt>
      <trkpt lat="46.16401" lon="6.5675">
        <ele>1509.6</ele>
        <time>2021-06-26T07:28:36Z</time>
      </trkpt>
      <trkpt lat="46.164" lon="6.56753">
        <ele>1509.8</ele>
        <time>2021-06-26T07:28:37Z</time>
      </trkpt>
      <trkpt lat="46.16398" lon="6.56756">
        <ele>1510.2</ele>
        <time>2021-06-26T07:28:38Z</time>
      </trkpt>
      <trkpt lat="46.16396" lon="6.5676">
        <ele>1510.2</ele>
        <time>2021-06-26T07:28:39Z</time>
      </trkpt>
      <trkpt lat="46.16394" lon="6.56763">
        <ele>1510.6</ele>
        <time>2021-06-26T07:28:40Z</time>
      </trkpt>
      <trkpt lat="46.16392" lon="6.56766">
        <ele>1510.8</ele>
        <time>2021-06-26T07:28:41Z</time>
      </trkpt>
      <trkpt lat="46.1639" lon="6.5677">
        <ele>1510.8</ele>
        <time>2021-06-26T07:28:42Z</time>
      </trkpt>
      <trkpt lat="46.16388" lon="6.56773">
        <ele>1511</ele>
        <time>2021-06-26T07:28:43Z</time>
      </trkpt>
      <trkpt lat="46.16386" lon="6.56777">
        <ele>1511.2</ele>
        <time>2021-06-26T07:28:44Z</time>
      </trkpt>
      <trkpt lat="46.16384" lon="6.5678">
        <ele>1511.6</ele>
        <time>2021-06-26T07:28:45Z</time>
      </trkpt>
      <trkpt lat="46.16382" lon="6.56783">
        <ele>1511.6</ele>
        <time>2021-06-26T07:28:46Z</time>
      </trkpt>
      <trkpt lat="46.1638" lon="6.56786">
        <ele>1511.8</ele>
        <time>2021-06-26T07:28:47Z</time>
      </trkpt>
      <trkpt lat="46.16378" lon="6.5679">
        <ele>1512.2</ele>
        <time>2021-06-26T07:28:48Z</time>
      </trkpt>
      <trkpt lat="46.16376" lon="6.56793">
        <ele>1512.4</ele>
        <time>2021-06-26T07:28:49Z</time>
      </trkpt>
      <trkpt lat="46.16374" lon="6.56796">
        <ele>1512.6</ele>
        <time>2021-06-26T07:28:50Z</time>
      </trkpt>
      <trkpt lat="46.16372" lon="6.56799">
        <ele>1512.6</ele>
        <time>2021-06-26T07:28:51Z</time>
      </trkpt>
      <trkpt lat="46.16371" lon="6.56803">
        <ele>1513</ele>
        <time>2021-06-26T07:28:52Z</time>
      </trkpt>
      <trkpt lat="46.16369" lon="6.56806">
        <ele>1513.4</ele>
        <time>2021-06-26T07:28:53Z</time>
      </trkpt>
      <trkpt lat="46.16367" lon="6.56809">
        <ele>1513.4</ele>
        <time>2021-06-26T07:28:54Z</time>
      </trkpt>
      <trkpt lat="46.16365" lon="6.56811">
        <ele>1513.8</ele>
        <time>2021-06-26T07:28:55Z</time>
      </trkpt>
      <trkpt lat="46.16364" lon="6.56814">
        <ele>1513.8</ele>
        <time>2021-06-26T07:28:56Z</time>
      </trkpt>
      <trkpt lat="46.16362" lon="6.56817">
        <ele>1514</ele>
        <time>2021-06-26T07:28:57Z</time>
      </trkpt>
      <trkpt lat="46.1636" lon="6.5682">
        <ele>1514.2</ele>
        <time>2021-06-26T07:28:58Z</time>
      </trkpt>
      <trkpt lat="46.16358" lon="6.56823">
        <ele>1514.4</ele>
        <time>2021-06-26T07:28:59Z</time>
      </trkpt>
      <trkpt lat="46.16357" lon="6.56827">
        <ele>1514.6</ele>
        <time>2021-06-26T07:29:00Z</time>
      </trkpt>
      <trkpt lat="46.16355" lon="6.5683">
        <ele>1514.8</ele>
        <time>2021-06-26T07:29:01Z</time>
      </trkpt>
      <trkpt lat="46.16353" lon="6.56834">
        <ele>1515</ele>
        <time>2021-06-26T07:29:02Z</time>
      </trkpt>
      <trkpt lat="46.16351" lon="6.56838">
        <ele>1515.6</ele>
        <time>2021-06-26T07:29:03Z</time>
      </trkpt>
      <trkpt lat="46.16349" lon="6.56842">
        <ele>1515.8</ele>
        <time>2021-06-26T07:29:04Z</time>
      </trkpt>
      <trkpt lat="46.16347" lon="6.56846">
        <ele>1516</ele>
        <time>2021-06-26T07:29:05Z</time>
      </trkpt>
      <trkpt lat="46.16345" lon="6.5685">
        <ele>1516</ele>
        <time>2021-06-26T07:29:06Z</time>
      </trkpt>
      <trkpt lat="46.16343" lon="6.56854">
        <ele>1516.2</ele>
        <time>2021-06-26T07:29:07Z</time>
      </trkpt>
      <trkpt lat="46.16341" lon="6.56858">
        <ele>1516.4</ele>
        <time>2021-06-26T07:29:08Z</time>
      </trkpt>
      <trkpt lat="46.16339" lon="6.56861">
        <ele>1516.6</ele>
        <time>2021-06-26T07:29:09Z</time>
      </trkpt>
      <trkpt lat="46.16337" lon="6.56865">
        <ele>1516.8</ele>
        <time>2021-06-26T07:29:10Z</time>
      </trkpt>
      <trkpt lat="46.16336" lon="6.56869">
        <ele>1517.2</ele>
        <time>2021-06-26T07:29:11Z</time>
      </trkpt>
      <trkpt lat="46.16334" lon="6.56873">
        <ele>1517.4</ele>
        <time>2021-06-26T07:29:12Z</time>
      </trkpt>
      <trkpt lat="46.16333" lon="6.56877">
        <ele>1517.6</ele>
        <time>2021-06-26T07:29:13Z</time>
      </trkpt>
      <trkpt lat="46.16331" lon="6.56881">
        <ele>1517.8</ele>
        <time>2021-06-26T07:29:14Z</time>
      </trkpt>
      <trkpt lat="46.1633" lon="6.56885">
        <ele>1518.2</ele>
        <time>2021-06-26T07:29:15Z</time>
      </trkpt>
      <trkpt lat="46.16328" lon="6.56889">
        <ele>1518.2</ele>
        <time>2021-06-26T07:29:16Z</time>
      </trkpt>
      <trkpt lat="46.16327" lon="6.56893">
        <ele>1518.4</ele>
        <time>2021-06-26T07:29:17Z</time>
      </trkpt>
      <trkpt lat="46.16326" lon="6.56897">
        <ele>1518.4</ele>
        <time>2021-06-26T07:29:18Z</time>
      </trkpt>
      <trkpt lat="46.16325" lon="6.56901">
        <ele>1518.6</ele>
        <time>2021-06-26T07:29:19Z</time>
      </trkpt>
      <trkpt lat="46.16324" lon="6.56905">
        <ele>1518.8</ele>
        <time>2021-06-26T07:29:20Z</time>
      </trkpt>
      <trkpt lat="46.16323" lon="6.5691">
        <ele>1519</ele>
        <time>2021-06-26T07:29:21Z</time>
      </trkpt>
      <trkpt lat="46.16323" lon="6.56914">
        <ele>1519.2</ele>
        <time>2021-06-26T07:29:22Z</time>
      </trkpt>
      <trkpt lat="46.16322" lon="6.56918">
        <ele>1519.4</ele>
        <time>2021-06-26T07:29:23Z</time>
      </trkpt>
      <trkpt lat="46.16322" lon="6.56922">
        <ele>1519.6</ele>
        <time>2021-06-26T07:29:24Z</time>
      </trkpt>
      <trkpt lat="46.16321" lon="6.56927">
        <ele>1519.8</ele>
        <time>2021-06-26T07:29:25Z</time>
      </trkpt>
      <trkpt lat="46.16321" lon="6.56931">
        <ele>1519.8</ele>
        <time>2021-06-26T07:29:26Z</time>
      </trkpt>
      <trkpt lat="46.1632" lon="6.56935">
        <ele>1520.2</ele>
        <time>2021-06-26T07:29:27Z</time>
      </trkpt>
      <trkpt lat="46.1632" lon="6.56939">
        <ele>1520.4</ele>
        <time>2021-06-26T07:29:28Z</time>
      </trkpt>
      <trkpt lat="46.1632" lon="6.56944">
        <ele>1520.6</ele>
        <time>2021-06-26T07:29:29Z</time>
      </trkpt>
      <trkpt lat="46.16319" lon="6.56948">
        <ele>1520.8</ele>
        <time>2021-06-26T07:29:30Z</time>
      </trkpt>
      <trkpt lat="46.16319" lon="6.56952">
        <ele>1521</ele>
        <time>2021-06-26T07:29:31Z</time>
      </trkpt>
      <trkpt lat="46.16319" lon="6.56956">
        <ele>1521.2</ele>
        <time>2021-06-26T07:29:32Z</time>
      </trkpt>
      <trkpt lat="46.16319" lon="6.5696">
        <ele>1521.4</ele>
        <time>2021-06-26T07:29:33Z</time>
      </trkpt>
      <trkpt lat="46.16319" lon="6.56964">
        <ele>1521.6</ele>
        <time>2021-06-26T07:29:34Z</time>
      </trkpt>
      <trkpt lat="46.16318" lon="6.56968">
        <ele>1521.8</ele>
        <time>2021-06-26T07:29:35Z</time>
      </trkpt>
      <trkpt lat="46.16318" lon="6.56972">
        <ele>1522</ele>
        <time>2021-06-26T07:29:36Z</time>
      </trkpt>
      <trkpt lat="46.16317" lon="6.56976">
        <ele>1522.2</ele>
        <time>2021-06-26T07:29:37Z</time>
      </trkpt>
      <trkpt lat="46.16317" lon="6.5698">
        <ele>1522.4</ele>
        <time>2021-06-26T07:29:38Z</time>
      </trkpt>
      <trkpt lat="46.16317" lon="6.56984">
        <ele>1522.6</ele>
        <time>2021-06-26T07:29:39Z</time>
      </trkpt>
      <trkpt lat="46.16316" lon="6.56988">
        <ele>1522.6</ele>
        <time>2021-06-26T07:29:40Z</time>
      </trkpt>
      <trkpt lat="46.16316" lon="6.56992">
        <ele>1523</ele>
        <time>2021-06-26T07:29:41Z</time>
      </trkpt>
      <trkpt lat="46.16315" lon="6.56996">
        <ele>1523</ele>
        <time>2021-06-26T07:29:42Z</time>
      </trkpt>
      <trkpt lat="46.16315" lon="6.57001">
        <ele>1523.2</ele>
        <time>2021-06-26T07:29:43Z</time>
      </trkpt>
      <trkpt lat="46.16314" lon="6.57005">
        <ele>1523.6</ele>
        <time>2021-06-26T07:29:44Z</time>
      </trkpt>
      <trkpt lat="46.16314" lon="6.57009">
        <ele>1523.8</ele>
        <time>2021-06-26T07:29:45Z</time>
      </trkpt>
      <trkpt lat="46.16313" lon="6.57013">
        <ele>1524</ele>
        <time>2021-06-26T07:29:46Z</time>
      </trkpt>
      <trkpt lat="46.16312" lon="6.57017">
        <ele>1524.2</ele>
        <time>2021-06-26T07:29:47Z</time>
      </trkpt>
      <trkpt lat="46.16311" lon="6.57021">
        <ele>1524.4</ele>
        <time>2021-06-26T07:29:48Z</time>
      </trkpt>
      <trkpt lat="46.16311" lon="6.57025">
        <ele>1524.8</ele>
        <time>2021-06-26T07:29:49Z</time>
      </trkpt>
      <trkpt lat="46.1631" lon="6.57029">
        <ele>1524.8</ele>
        <time>2021-06-26T07:29:50Z</time>
      </trkpt>
      <trkpt lat="46.1631" lon="6.57033">
        <ele>1525</ele>
        <time>2021-06-26T07:29:51Z</time>
      </trkpt>
      <trkpt lat="46.16308" lon="6.57037">
        <ele>1525.4</ele>
        <time>2021-06-26T07:29:52Z</time>
      </trkpt>
      <trkpt lat="46.16308" lon="6.5704">
        <ele>1525.6</ele>
        <time>2021-06-26T07:29:53Z</time>
      </trkpt>
      <trkpt lat="46.16307" lon="6.57044">
        <ele>1525.8</ele>
        <time>2021-06-26T07:29:54Z</time>
      </trkpt>
      <trkpt lat="46.16306" lon="6.57048">
        <ele>1526.2</ele>
        <time>2021-06-26T07:29:55Z</time>
      </trkpt>
      <trkpt lat="46.16306" lon="6.57052">
        <ele>1526.2</ele>
        <time>2021-06-26T07:29:56Z</time>
      </trkpt>
      <trkpt lat="46.16305" lon="6.57056">
        <ele>1526.4</ele>
        <time>2021-06-26T07:29:57Z</time>
      </trkpt>
      <trkpt lat="46.16304" lon="6.5706">
        <ele>1526.8</ele>
        <time>2021-06-26T07:29:58Z</time>
      </trkpt>
      <trkpt lat="46.16302" lon="6.57064">
        <ele>1527</ele>
        <time>2021-06-26T07:29:59Z</time>
      </trkpt>
      <trkpt lat="46.16301" lon="6.57068">
        <ele>1527.2</ele>
        <time>2021-06-26T07:30:00Z</time>
      </trkpt>
      <trkpt lat="46.163" lon="6.57071">
        <ele>1527.4</ele>
        <time>2021-06-26T07:30:01Z</time>
      </trkpt>
      <trkpt lat="46.16299" lon="6.57075">
        <ele>1527.6</ele>
        <time>2021-06-26T07:30:02Z</time>
      </trkpt>
      <trkpt lat="46.16298" lon="6.57079">
        <ele>1527.6</ele>
        <time>2021-06-26T07:30:03Z</time>
      </trkpt>
      <trkpt lat="46.16298" lon="6.57084">
        <ele>1527.8</ele>
        <time>2021-06-26T07:30:04Z</time>
      </trkpt>
      <trkpt lat="46.16296" lon="6.57087">
        <ele>1528.2</ele>
        <time>2021-06-26T07:30:05Z</time>
      </trkpt>
      <trkpt lat="46.16295" lon="6.57091">
        <ele>1528.4</ele>
        <time>2021-06-26T07:30:06Z</time>
      </trkpt>
      <trkpt lat="46.16294" lon="6.57095">
        <ele>1528.8</ele>
        <time>2021-06-26T07:30:07Z</time>
      </trkpt>
      <trkpt lat="46.16294" lon="6.57099">
        <ele>1529</ele>
        <time>2021-06-26T07:30:08Z</time>
      </trkpt>
      <trkpt lat="46.16292" lon="6.57103">
        <ele>1529.4</ele>
        <time>2021-06-26T07:30:09Z</time>
      </trkpt>
      <trkpt lat="46.16291" lon="6.57107">
        <ele>1529.8</ele>
        <time>2021-06-26T07:30:10Z</time>
      </trkpt>
      <trkpt lat="46.16289" lon="6.57111">
        <ele>1529.8</ele>
        <time>2021-06-26T07:30:11Z</time>
      </trkpt>
      <trkpt lat="46.16288" lon="6.57115">
        <ele>1530.2</ele>
        <time>2021-06-26T07:30:12Z</time>
      </trkpt>
      <trkpt lat="46.16287" lon="6.57119">
        <ele>1530.4</ele>
        <time>2021-06-26T07:30:13Z</time>
      </trkpt>
      <trkpt lat="46.16285" lon="6.57123">
        <ele>1530.8</ele>
        <time>2021-06-26T07:30:14Z</time>
      </trkpt>
      <trkpt lat="46.16284" lon="6.57127">
        <ele>1530.6</ele>
        <time>2021-06-26T07:30:15Z</time>
      </trkpt>
      <trkpt lat="46.16282" lon="6.57131">
        <ele>1530.8</ele>
        <time>2021-06-26T07:30:16Z</time>
      </trkpt>
      <trkpt lat="46.16281" lon="6.57135">
        <ele>1531</ele>
        <time>2021-06-26T07:30:17Z</time>
      </trkpt>
      <trkpt lat="46.1628" lon="6.57138">
        <ele>1531.4</ele>
        <time>2021-06-26T07:30:18Z</time>
      </trkpt>
      <trkpt lat="46.16278" lon="6.57142">
        <ele>1531.6</ele>
        <time>2021-06-26T07:30:19Z</time>
      </trkpt>
      <trkpt lat="46.16277" lon="6.57146">
        <ele>1531.8</ele>
        <time>2021-06-26T07:30:20Z</time>
      </trkpt>
      <trkpt lat="46.16275" lon="6.5715">
        <ele>1531.8</ele>
        <time>2021-06-26T07:30:21Z</time>
      </trkpt>
      <trkpt lat="46.16273" lon="6.57153">
        <ele>1532</ele>
        <time>2021-06-26T07:30:22Z</time>
      </trkpt>
      <trkpt lat="46.16271" lon="6.57157">
        <ele>1532</ele>
        <time>2021-06-26T07:30:23Z</time>
      </trkpt>
      <trkpt lat="46.16269" lon="6.57161">
        <ele>1532.2</ele>
        <time>2021-06-26T07:30:24Z</time>
      </trkpt>
      <trkpt lat="46.16267" lon="6.57165">
        <ele>1532.2</ele>
        <time>2021-06-26T07:30:25Z</time>
      </trkpt>
      <trkpt lat="46.16266" lon="6.57169">
        <ele>1532.4</ele>
        <time>2021-06-26T07:30:26Z</time>
      </trkpt>
      <trkpt lat="46.16264" lon="6.57173">
        <ele>1532.6</ele>
        <time>2021-06-26T07:30:27Z</time>
      </trkpt>
      <trkpt lat="46.16262" lon="6.57176">
        <ele>1532.8</ele>
        <time>2021-06-26T07:30:28Z</time>
      </trkpt>
      <trkpt lat="46.16261" lon="6.5718">
        <ele>1532.8</ele>
        <time>2021-06-26T07:30:29Z</time>
      </trkpt>
      <trkpt lat="46.16258" lon="6.57184">
        <ele>1533</ele>
        <time>2021-06-26T07:30:30Z</time>
      </trkpt>
      <trkpt lat="46.16256" lon="6.57187">
        <ele>1533.2</ele>
        <time>2021-06-26T07:30:31Z</time>
      </trkpt>
      <trkpt lat="46.16254" lon="6.57191">
        <ele>1533.4</ele>
        <time>2021-06-26T07:30:32Z</time>
      </trkpt>
      <trkpt lat="46.16253" lon="6.57194">
        <ele>1533.6</ele>
        <time>2021-06-26T07:30:33Z</time>
      </trkpt>
      <trkpt lat="46.16251" lon="6.57197">
        <ele>1533.6</ele>
        <time>2021-06-26T07:30:34Z</time>
      </trkpt>
      <trkpt lat="46.16249" lon="6.57201">
        <ele>1533.8</ele>
        <time>2021-06-26T07:30:35Z</time>
      </trkpt>
      <trkpt lat="46.16246" lon="6.57204">
        <ele>1534.2</ele>
        <time>2021-06-26T07:30:36Z</time>
      </trkpt>
      <trkpt lat="46.16244" lon="6.57207">
        <ele>1534.2</ele>
        <time>2021-06-26T07:30:37Z</time>
      </trkpt>
      <trkpt lat="46.16242" lon="6.5721">
        <ele>1534.4</ele>
        <time>2021-06-26T07:30:38Z</time>
      </trkpt>
      <trkpt lat="46.1624" lon="6.57213">
        <ele>1534.6</ele>
        <time>2021-06-26T07:30:39Z</time>
      </trkpt>
      <trkpt lat="46.16238" lon="6.57215">
        <ele>1534.6</ele>
        <time>2021-06-26T07:30:40Z</time>
      </trkpt>
      <trkpt lat="46.16236" lon="6.57218">
        <ele>1535</ele>
        <time>2021-06-26T07:30:41Z</time>
      </trkpt>
      <trkpt lat="46.16234" lon="6.57221">
        <ele>1535.2</ele>
        <time>2021-06-26T07:30:42Z</time>
      </trkpt>
      <trkpt lat="46.16232" lon="6.57223">
        <ele>1535.4</ele>
        <time>2021-06-26T07:30:43Z</time>
      </trkpt>
      <trkpt lat="46.1623" lon="6.57226">
        <ele>1535.6</ele>
        <time>2021-06-26T07:30:44Z</time>
      </trkpt>
      <trkpt lat="46.16228" lon="6.57229">
        <ele>1535.6</ele>
        <time>2021-06-26T07:30:45Z</time>
      </trkpt>
      <trkpt lat="46.16226" lon="6.57231">
        <ele>1536</ele>
        <time>2021-06-26T07:30:46Z</time>
      </trkpt>
      <trkpt lat="46.16224" lon="6.57234">
        <ele>1536</ele>
        <time>2021-06-26T07:30:47Z</time>
      </trkpt>
      <trkpt lat="46.16223" lon="6.57236">
        <ele>1536.2</ele>
        <time>2021-06-26T07:30:48Z</time>
      </trkpt>
      <trkpt lat="46.16221" lon="6.57239">
        <ele>1536.6</ele>
        <time>2021-06-26T07:30:49Z</time>
      </trkpt>
      <trkpt lat="46.16219" lon="6.57241">
        <ele>1536.8</ele>
        <time>2021-06-26T07:30:50Z</time>
      </trkpt>
      <trkpt lat="46.16217" lon="6.57244">
        <ele>1537.2</ele>
        <time>2021-06-26T07:30:51Z</time>
      </trkpt>
      <trkpt lat="46.16216" lon="6.57247">
        <ele>1537.4</ele>
        <time>2021-06-26T07:30:52Z</time>
      </trkpt>
      <trkpt lat="46.16214" lon="6.57249">
        <ele>1537.6</ele>
        <time>2021-06-26T07:30:53Z</time>
      </trkpt>
      <trkpt lat="46.16213" lon="6.57252">
        <ele>1537.8</ele>
        <time>2021-06-26T07:30:54Z</time>
      </trkpt>
      <trkpt lat="46.16211" lon="6.57255">
        <ele>1538.2</ele>
        <time>2021-06-26T07:30:55Z</time>
      </trkpt>
      <trkpt lat="46.1621" lon="6.57257">
        <ele>1538.6</ele>
        <time>2021-06-26T07:30:56Z</time>
      </trkpt>
      <trkpt lat="46.16209" lon="6.5726">
        <ele>1538.8</ele>
        <time>2021-06-26T07:30:57Z</time>
      </trkpt>
      <trkpt lat="46.16208" lon="6.57263">
        <ele>1539.2</ele>
        <time>2021-06-26T07:30:58Z</time>
      </trkpt>
      <trkpt lat="46.16207" lon="6.57266">
        <ele>1539.4</ele>
        <time>2021-06-26T07:30:59Z</time>
      </trkpt>
      <trkpt lat="46.16205" lon="6.57269">
        <ele>1539.8</ele>
        <time>2021-06-26T07:31:00Z</time>
      </trkpt>
      <trkpt lat="46.16204" lon="6.57272">
        <ele>1540</ele>
        <time>2021-06-26T07:31:01Z</time>
      </trkpt>
      <trkpt lat="46.16204" lon="6.57275">
        <ele>1540.4</ele>
        <time>2021-06-26T07:31:02Z</time>
      </trkpt>
      <trkpt lat="46.16203" lon="6.57279">
        <ele>1540.6</ele>
        <time>2021-06-26T07:31:03Z</time>
      </trkpt>
      <trkpt lat="46.16203" lon="6.57282">
        <ele>1540.8</ele>
        <time>2021-06-26T07:31:04Z</time>
      </trkpt>
      <trkpt lat="46.16202" lon="6.57285">
        <ele>1541.2</ele>
        <time>2021-06-26T07:31:05Z</time>
      </trkpt>
      <trkpt lat="46.16202" lon="6.57289">
        <ele>1541.2</ele>
        <time>2021-06-26T07:31:06Z</time>
      </trkpt>
      <trkpt lat="46.16202" lon="6.57292">
        <ele>1541.4</ele>
        <time>2021-06-26T07:31:07Z</time>
      </trkpt>
      <trkpt lat="46.16202" lon="6.57296">
        <ele>1541.6</ele>
        <time>2021-06-26T07:31:08Z</time>
      </trkpt>
      <trkpt lat="46.16202" lon="6.57299">
        <ele>1541.6</ele>
        <time>2021-06-26T07:31:09Z</time>
      </trkpt>
      <trkpt lat="46.16202" lon="6.57303">
        <ele>1542</ele>
        <time>2021-06-26T07:31:10Z</time>
      </trkpt>
      <trkpt lat="46.16203" lon="6.57306">
        <ele>1542.2</ele>
        <time>2021-06-26T07:31:11Z</time>
      </trkpt>
      <trkpt lat="46.16204" lon="6.5731">
        <ele>1542.6</ele>
        <time>2021-06-26T07:31:12Z</time>
      </trkpt>
      <trkpt lat="46.16204" lon="6.57313">
        <ele>1542.8</ele>
        <time>2021-06-26T07:31:13Z</time>
      </trkpt>
      <trkpt lat="46.16205" lon="6.57317">
        <ele>1543</ele>
        <time>2021-06-26T07:31:14Z</time>
      </trkpt>
      <trkpt lat="46.16206" lon="6.5732">
        <ele>1543.2</ele>
        <time>2021-06-26T07:31:15Z</time>
      </trkpt>
      <trkpt lat="46.16207" lon="6.57324">
        <ele>1543.4</ele>
        <time>2021-06-26T07:31:16Z</time>
      </trkpt>
      <trkpt lat="46.16209" lon="6.57327">
        <ele>1543.8</ele>
        <time>2021-06-26T07:31:17Z</time>
      </trkpt>
      <trkpt lat="46.1621" lon="6.5733">
        <ele>1544</ele>
        <time>2021-06-26T07:31:18Z</time>
      </trkpt>
      <trkpt lat="46.16211" lon="6.57333">
        <ele>1544.2</ele>
        <time>2021-06-26T07:31:19Z</time>
      </trkpt>
      <trkpt lat="46.16213" lon="6.57335">
        <ele>1544.4</ele>
        <time>2021-06-26T07:31:20Z</time>
      </trkpt>
      <trkpt lat="46.16214" lon="6.57338">
        <ele>1544.6</ele>
        <time>2021-06-26T07:31:21Z</time>
      </trkpt>
      <trkpt lat="46.16216" lon="6.57341">
        <ele>1544.8</ele>
        <time>2021-06-26T07:31:22Z</time>
      </trkpt>
      <trkpt lat="46.16217" lon="6.57343">
        <ele>1545</ele>
        <time>2021-06-26T07:31:23Z</time>
      </trkpt>
      <trkpt lat="46.16219" lon="6.57346">
        <ele>1545.2</ele>
        <time>2021-06-26T07:31:24Z</time>
      </trkpt>
      <trkpt lat="46.1622" lon="6.57349">
        <ele>1545.4</ele>
        <time>2021-06-26T07:31:25Z</time>
      </trkpt>
      <trkpt lat="46.16222" lon="6.57351">
        <ele>1545.8</ele>
        <time>2021-06-26T07:31:26Z</time>
      </trkpt>
      <trkpt lat="46.16224" lon="6.57353">
        <ele>1545.8</ele>
        <time>2021-06-26T07:31:27Z</time>
      </trkpt>
      <trkpt lat="46.16226" lon="6.57355">
        <ele>1546</ele>
        <time>2021-06-26T07:31:28Z</time>
      </trkpt>
      <trkpt lat="46.16227" lon="6.57358">
        <ele>1546.2</ele>
        <time>2021-06-26T07:31:29Z</time>
      </trkpt>
      <trkpt lat="46.16229" lon="6.5736">
        <ele>1546.6</ele>
        <time>2021-06-26T07:31:30Z</time>
      </trkpt>
      <trkpt lat="46.16231" lon="6.57362">
        <ele>1546.6</ele>
        <time>2021-06-26T07:31:31Z</time>
      </trkpt>
      <trkpt lat="46.16232" lon="6.57364">
        <ele>1546.6</ele>
        <time>2021-06-26T07:31:32Z</time>
      </trkpt>
      <trkpt lat="46.16233" lon="6.57367">
        <ele>1547</ele>
        <time>2021-06-26T07:31:33Z</time>
      </trkpt>
      <trkpt lat="46.16234" lon="6.57369">
        <ele>1547.2</ele>
        <time>2021-06-26T07:31:34Z</time>
      </trkpt>
      <trkpt lat="46.16236" lon="6.57371">
        <ele>1547.4</ele>
        <time>2021-06-26T07:31:35Z</time>
      </trkpt>
      <trkpt lat="46.16237" lon="6.57374">
        <ele>1547.8</ele>
        <time>2021-06-26T07:31:36Z</time>
      </trkpt>
      <trkpt lat="46.16239" lon="6.57375">
        <ele>1548</ele>
        <time>2021-06-26T07:31:37Z</time>
      </trkpt>
      <trkpt lat="46.1624" lon="6.57377">
        <ele>1548.2</ele>
        <time>2021-06-26T07:31:38Z</time>
      </trkpt>
      <trkpt lat="46.16242" lon="6.5738">
        <ele>1548.6</ele>
        <time>2021-06-26T07:31:39Z</time>
      </trkpt>
      <trkpt lat="46.16244" lon="6.57382">
        <ele>1548.8</ele>
        <time>2021-06-26T07:31:40Z</time>
      </trkpt>
      <trkpt lat="46.16246" lon="6.57384">
        <ele>1549</ele>
        <time>2021-06-26T07:31:41Z</time>
      </trkpt>
      <trkpt lat="46.16247" lon="6.57387">
        <ele>1549.4</ele>
        <time>2021-06-26T07:31:42Z</time>
      </trkpt>
      <trkpt lat="46.16249" lon="6.57389">
        <ele>1549.6</ele>
        <time>2021-06-26T07:31:43Z</time>
      </trkpt>
      <trkpt lat="46.16251" lon="6.57392">
        <ele>1549.8</ele>
        <time>2021-06-26T07:31:44Z</time>
      </trkpt>
      <trkpt lat="46.16253" lon="6.57394">
        <ele>1550</ele>
        <time>2021-06-26T07:31:45Z</time>
      </trkpt>
      <trkpt lat="46.16255" lon="6.57396">
        <ele>1550.2</ele>
        <time>2021-06-26T07:31:46Z</time>
      </trkpt>
      <trkpt lat="46.16257" lon="6.57399">
        <ele>1550.4</ele>
        <time>2021-06-26T07:31:47Z</time>
      </trkpt>
      <trkpt lat="46.16259" lon="6.57401">
        <ele>1550.6</ele>
        <time>2021-06-26T07:31:48Z</time>
      </trkpt>
      <trkpt lat="46.16261" lon="6.57403">
        <ele>1551</ele>
        <time>2021-06-26T07:31:49Z</time>
      </trkpt>
      <trkpt lat="46.16262" lon="6.57405">
        <ele>1551.4</ele>
        <time>2021-06-26T07:31:50Z</time>
      </trkpt>
      <trkpt lat="46.16264" lon="6.57408">
        <ele>1551.4</ele>
        <time>2021-06-26T07:31:51Z</time>
      </trkpt>
      <trkpt lat="46.16265" lon="6.5741">
        <ele>1551.6</ele>
        <time>2021-06-26T07:31:52Z</time>
      </trkpt>
      <trkpt lat="46.16267" lon="6.57413">
        <ele>1552</ele>
        <time>2021-06-26T07:31:53Z</time>
      </trkpt>
      <trkpt lat="46.16268" lon="6.57415">
        <ele>1552</ele>
        <time>2021-06-26T07:31:54Z</time>
      </trkpt>
      <trkpt lat="46.1627" lon="6.57418">
        <ele>1552</ele>
        <time>2021-06-26T07:31:55Z</time>
      </trkpt>
      <trkpt lat="46.16272" lon="6.5742">
        <ele>1552.4</ele>
        <time>2021-06-26T07:31:56Z</time>
      </trkpt>
      <trkpt lat="46.16274" lon="6.57423">
        <ele>1552.6</ele>
        <time>2021-06-26T07:31:57Z</time>
      </trkpt>
      <trkpt lat="46.16276" lon="6.57425">
        <ele>1552.8</ele>
        <time>2021-06-26T07:31:58Z</time>
      </trkpt>
      <trkpt lat="46.16278" lon="6.57428">
        <ele>1553.2</ele>
        <time>2021-06-26T07:31:59Z</time>
      </trkpt>
      <trkpt lat="46.16279" lon="6.5743">
        <ele>1553.4</ele>
        <time>2021-06-26T07:32:00Z</time>
      </trkpt>
      <trkpt lat="46.16281" lon="6.57433">
        <ele>1553.8</ele>
        <time>2021-06-26T07:32:01Z</time>
      </trkpt>
      <trkpt lat="46.16282" lon="6.57436">
        <ele>1553.8</ele>
        <time>2021-06-26T07:32:02Z</time>
      </trkpt>
      <trkpt lat="46.16284" lon="6.57439">
        <ele>1554.2</ele>
        <time>2021-06-26T07:32:03Z</time>
      </trkpt>
      <trkpt lat="46.16286" lon="6.57441">
        <ele>1554.6</ele>
        <time>2021-06-26T07:32:04Z</time>
      </trkpt>
      <trkpt lat="46.16287" lon="6.57444">
        <ele>1554.8</ele>
        <time>2021-06-26T07:32:05Z</time>
      </trkpt>
      <trkpt lat="46.16289" lon="6.57447">
        <ele>1555.2</ele>
        <time>2021-06-26T07:32:06Z</time>
      </trkpt>
      <trkpt lat="46.1629" lon="6.5745">
        <ele>1555.2</ele>
        <time>2021-06-26T07:32:07Z</time>
      </trkpt>
      <trkpt lat="46.16291" lon="6.57452">
        <ele>1555.4</ele>
        <time>2021-06-26T07:32:08Z</time>
      </trkpt>
      <trkpt lat="46.16293" lon="6.57455">
        <ele>1555.6</ele>
        <time>2021-06-26T07:32:09Z</time>
      </trkpt>
      <trkpt lat="46.16294" lon="6.57458">
        <ele>1556</ele>
        <time>2021-06-26T07:32:10Z</time>
      </trkpt>
      <trkpt lat="46.16294" lon="6.57462">
        <ele>1556.2</ele>
        <time>2021-06-26T07:32:11Z</time>
      </trkpt>
      <trkpt lat="46.16294" lon="6.57465">
        <ele>1556.6</ele>
        <time>2021-06-26T07:32:12Z</time>
      </trkpt>
      <trkpt lat="46.16294" lon="6.57468">
        <ele>1556.8</ele>
        <time>2021-06-26T07:32:13Z</time>
      </trkpt>
      <trkpt lat="46.16294" lon="6.57471">
        <ele>1557</ele>
        <time>2021-06-26T07:32:14Z</time>
      </trkpt>
      <trkpt lat="46.16293" lon="6.57473">
        <ele>1557.2</ele>
        <time>2021-06-26T07:32:15Z</time>
      </trkpt>
      <trkpt lat="46.16294" lon="6.57476">
        <ele>1557.2</ele>
        <time>2021-06-26T07:32:16Z</time>
      </trkpt>
      <trkpt lat="46.16293" lon="6.57479">
        <ele>1557.4</ele>
        <time>2021-06-26T07:32:17Z</time>
      </trkpt>
      <trkpt lat="46.16293" lon="6.57482">
        <ele>1557.6</ele>
        <time>2021-06-26T07:32:18Z</time>
      </trkpt>
      <trkpt lat="46.16293" lon="6.57485">
        <ele>1558</ele>
        <time>2021-06-26T07:32:19Z</time>
      </trkpt>
      <trkpt lat="46.16293" lon="6.57488">
        <ele>1558</ele>
        <time>2021-06-26T07:32:20Z</time>
      </trkpt>
      <trkpt lat="46.16293" lon="6.57492">
        <ele>1558.4</ele>
        <time>2021-06-26T07:32:21Z</time>
      </trkpt>
      <trkpt lat="46.16293" lon="6.57494">
        <ele>1558.4</ele>
        <time>2021-06-26T07:32:22Z</time>
      </trkpt>
      <trkpt lat="46.16292" lon="6.57497">
        <ele>1558.8</ele>
        <time>2021-06-26T07:32:23Z</time>
      </trkpt>
      <trkpt lat="46.16293" lon="6.57501">
        <ele>1558.8</ele>
        <time>2021-06-26T07:32:24Z</time>
      </trkpt>
      <trkpt lat="46.16293" lon="6.57504">
        <ele>1559</ele>
        <time>2021-06-26T07:32:25Z</time>
      </trkpt>
      <trkpt lat="46.16293" lon="6.57507">
        <ele>1559.2</ele>
        <time>2021-06-26T07:32:26Z</time>
      </trkpt>
      <trkpt lat="46.16293" lon="6.5751">
        <ele>1559.4</ele>
        <time>2021-06-26T07:32:27Z</time>
      </trkpt>
      <trkpt lat="46.16294" lon="6.57513">
        <ele>1559.6</ele>
        <time>2021-06-26T07:32:28Z</time>
      </trkpt>
      <trkpt lat="46.16295" lon="6.57517">
        <ele>1559.8</ele>
        <time>2021-06-26T07:32:29Z</time>
      </trkpt>
      <trkpt lat="46.16295" lon="6.5752">
        <ele>1560.2</ele>
        <time>2021-06-26T07:32:30Z</time>
      </trkpt>
      <trkpt lat="46.16295" lon="6.57524">
        <ele>1560.4</ele>
        <time>2021-06-26T07:32:31Z</time>
      </trkpt>
      <trkpt lat="46.16295" lon="6.57527">
        <ele>1560.6</ele>
        <time>2021-06-26T07:32:32Z</time>
      </trkpt>
      <trkpt lat="46.16295" lon="6.5753">
        <ele>1560.8</ele>
        <time>2021-06-26T07:32:33Z</time>
      </trkpt>
      <trkpt lat="46.16296" lon="6.57533">
        <ele>1561.4</ele>
        <time>2021-06-26T07:32:34Z</time>
      </trkpt>
      <trkpt lat="46.16296" lon="6.57536">
        <ele>1561.4</ele>
        <time>2021-06-26T07:32:35Z</time>
      </trkpt>
      <trkpt lat="46.16295" lon="6.57539">
        <ele>1561.8</ele>
        <time>2021-06-26T07:32:36Z</time>
      </trkpt>
      <trkpt lat="46.16295" lon="6.57541">
        <ele>1562</ele>
        <time>2021-06-26T07:32:37Z</time>
      </trkpt>
      <trkpt lat="46.16296" lon="6.57544">
        <ele>1562.2</ele>
        <time>2021-06-26T07:32:38Z</time>
      </trkpt>
      <trkpt lat="46.16296" lon="6.57547">
        <ele>1562.2</ele>
        <time>2021-06-26T07:32:39Z</time>
      </trkpt>
      <trkpt lat="46.16295" lon="6.5755">
        <ele>1562.4</ele>
        <time>2021-06-26T07:32:40Z</time>
      </trkpt>
      <trkpt lat="46.16294" lon="6.57553">
        <ele>1562.6</ele>
        <time>2021-06-26T07:32:41Z</time>
      </trkpt>
      <trkpt lat="46.16294" lon="6.57556">
        <ele>1562.6</ele>
        <time>2021-06-26T07:32:42Z</time>
      </trkpt>
      <trkpt lat="46.16293" lon="6.57558">
        <ele>1562.6</ele>
        <time>2021-06-26T07:32:43Z</time>
      </trkpt>
      <trkpt lat="46.16294" lon="6.57562">
        <ele>1563</ele>
        <time>2021-06-26T07:32:44Z</time>
      </trkpt>
      <trkpt lat="46.16294" lon="6.57565">
        <ele>1563.2</ele>
        <time>2021-06-26T07:32:45Z</time>
      </trkpt>
      <trkpt lat="46.16293" lon="6.57567">
        <ele>1563.6</ele>
        <time>2021-06-26T07:32:46Z</time>
      </trkpt>
      <trkpt lat="46.16293" lon="6.5757">
        <ele>1564</ele>
        <time>2021-06-26T07:32:47Z</time>
      </trkpt>
      <trkpt lat="46.16293" lon="6.57573">
        <ele>1564.2</ele>
        <time>2021-06-26T07:32:48Z</time>
      </trkpt>
      <trkpt lat="46.16292" lon="6.57576">
        <ele>1564.4</ele>
        <time>2021-06-26T07:32:49Z</time>
      </trkpt>
      <trkpt lat="46.16292" lon="6.57578">
        <ele>1564.6</ele>
        <time>2021-06-26T07:32:50Z</time>
      </trkpt>
      <trkpt lat="46.16291" lon="6.57581">
        <ele>1564.8</ele>
        <time>2021-06-26T07:32:51Z</time>
      </trkpt>
      <trkpt lat="46.16291" lon="6.57584">
        <ele>1565</ele>
        <time>2021-06-26T07:32:52Z</time>
      </trkpt>
      <trkpt lat="46.1629" lon="6.57587">
        <ele>1565</ele>
        <time>2021-06-26T07:32:53Z</time>
      </trkpt>
      <trkpt lat="46.1629" lon="6.5759">
        <ele>1565.4</ele>
        <time>2021-06-26T07:32:54Z</time>
      </trkpt>
      <trkpt lat="46.1629" lon="6.57593">
        <ele>1565.4</ele>
        <time>2021-06-26T07:32:55Z</time>
      </trkpt>
      <trkpt lat="46.1629" lon="6.57597">
        <ele>1565.8</ele>
        <time>2021-06-26T07:32:56Z</time>
      </trkpt>
      <trkpt lat="46.16289" lon="6.576">
        <ele>1566</ele>
        <time>2021-06-26T07:32:57Z</time>
      </trkpt>
      <trkpt lat="46.16288" lon="6.57603">
        <ele>1566</ele>
        <time>2021-06-26T07:32:58Z</time>
      </trkpt>
      <trkpt lat="46.16287" lon="6.57606">
        <ele>1566.2</ele>
        <time>2021-06-26T07:32:59Z</time>
      </trkpt>
      <trkpt lat="46.16286" lon="6.57609">
        <ele>1566.4</ele>
        <time>2021-06-26T07:33:00Z</time>
      </trkpt>
      <trkpt lat="46.16285" lon="6.57612">
        <ele>1566.4</ele>
        <time>2021-06-26T07:33:01Z</time>
      </trkpt>
      <trkpt lat="46.16284" lon="6.57615">
        <ele>1566.8</ele>
        <time>2021-06-26T07:33:02Z</time>
      </trkpt>
      <trkpt lat="46.16283" lon="6.57617">
        <ele>1567</ele>
        <time>2021-06-26T07:33:03Z</time>
      </trkpt>
      <trkpt lat="46.16282" lon="6.5762">
        <ele>1567.4</ele>
        <time>2021-06-26T07:33:04Z</time>
      </trkpt>
      <trkpt lat="46.16281" lon="6.57623">
        <ele>1567.6</ele>
        <time>2021-06-26T07:33:05Z</time>
      </trkpt>
      <trkpt lat="46.1628" lon="6.57626">
        <ele>1567.8</ele>
        <time>2021-06-26T07:33:06Z</time>
      </trkpt>
      <trkpt lat="46.1628" lon="6.57629">
        <ele>1568.2</ele>
        <time>2021-06-26T07:33:07Z</time>
      </trkpt>
      <trkpt lat="46.16279" lon="6.57632">
        <ele>1568.4</ele>
        <time>2021-06-26T07:33:08Z</time>
      </trkpt>
      <trkpt lat="46.16278" lon="6.57635">
        <ele>1568.8</ele>
        <time>2021-06-26T07:33:09Z</time>
      </trkpt>
      <trkpt lat="46.16277" lon="6.57637">
        <ele>1568.8</ele>
        <time>2021-06-26T07:33:10Z</time>
      </trkpt>
      <trkpt lat="46.16277" lon="6.5764">
        <ele>1569</ele>
        <time>2021-06-26T07:33:11Z</time>
      </trkpt>
      <trkpt lat="46.16276" lon="6.57643">
        <ele>1569.2</ele>
        <time>2021-06-26T07:33:12Z</time>
      </trkpt>
      <trkpt lat="46.16275" lon="6.57646">
        <ele>1569.6</ele>
        <time>2021-06-26T07:33:13Z</time>
      </trkpt>
      <trkpt lat="46.16274" lon="6.57648">
        <ele>1569.6</ele>
        <time>2021-06-26T07:33:14Z</time>
      </trkpt>
      <trkpt lat="46.16273" lon="6.5765">
        <ele>1570</ele>
        <time>2021-06-26T07:33:15Z</time>
      </trkpt>
      <trkpt lat="46.16272" lon="6.57653">
        <ele>1570.2</ele>
        <time>2021-06-26T07:33:16Z</time>
      </trkpt>
      <trkpt lat="46.1627" lon="6.57655">
        <ele>1570.4</ele>
        <time>2021-06-26T07:33:17Z</time>
      </trkpt>
      <trkpt lat="46.16268" lon="6.57657">
        <ele>1570.8</ele>
        <time>2021-06-26T07:33:18Z</time>
      </trkpt>
      <trkpt lat="46.16266" lon="6.5766">
        <ele>1571</ele>
        <time>2021-06-26T07:33:19Z</time>
      </trkpt>
      <trkpt lat="46.16265" lon="6.57662">
        <ele>1571.4</ele>
        <time>2021-06-26T07:33:20Z</time>
      </trkpt>
      <trkpt lat="46.16263" lon="6.57665">
        <ele>1571.4</ele>
        <time>2021-06-26T07:33:21Z</time>
      </trkpt>
      <trkpt lat="46.16261" lon="6.57667">
        <ele>1571.8</ele>
        <time>2021-06-26T07:33:22Z</time>
      </trkpt>
      <trkpt lat="46.1626" lon="6.57669">
        <ele>1571.8</ele>
        <time>2021-06-26T07:33:23Z</time>
      </trkpt>
      <trkpt lat="46.16258" lon="6.57671">
        <ele>1572</ele>
        <time>2021-06-26T07:33:24Z</time>
      </trkpt>
      <trkpt lat="46.16256" lon="6.57673">
        <ele>1572.2</ele>
        <time>2021-06-26T07:33:25Z</time>
      </trkpt>
      <trkpt lat="46.16254" lon="6.57675">
        <ele>1572.6</ele>
        <time>2021-06-26T07:33:26Z</time>
      </trkpt>
      <trkpt lat="46.16252" lon="6.57677">
        <ele>1572.8</ele>
        <time>2021-06-26T07:33:27Z</time>
      </trkpt>
      <trkpt lat="46.1625" lon="6.57679">
        <ele>1573</ele>
        <time>2021-06-26T07:33:28Z</time>
      </trkpt>
      <trkpt lat="46.16248" lon="6.57681">
        <ele>1573.2</ele>
        <time>2021-06-26T07:33:29Z</time>
      </trkpt>
      <trkpt lat="46.16246" lon="6.57682">
        <ele>1573.6</ele>
        <time>2021-06-26T07:33:30Z</time>
      </trkpt>
      <trkpt lat="46.16244" lon="6.57684">
        <ele>1574</ele>
        <time>2021-06-26T07:33:31Z</time>
      </trkpt>
      <trkpt lat="46.16241" lon="6.57685">
        <ele>1574.2</ele>
        <time>2021-06-26T07:33:32Z</time>
      </trkpt>
      <trkpt lat="46.16239" lon="6.57687">
        <ele>1574.2</ele>
        <time>2021-06-26T07:33:33Z</time>
      </trkpt>
      <trkpt lat="46.16237" lon="6.57688">
        <ele>1574.6</ele>
        <time>2021-06-26T07:33:34Z</time>
      </trkpt>
      <trkpt lat="46.16235" lon="6.5769">
        <ele>1574.8</ele>
        <time>2021-06-26T07:33:35Z</time>
      </trkpt>
      <trkpt lat="46.16233" lon="6.57691">
        <ele>1575.2</ele>
        <time>2021-06-26T07:33:36Z</time>
      </trkpt>
      <trkpt lat="46.16231" lon="6.57693">
        <ele>1575.2</ele>
        <time>2021-06-26T07:33:37Z</time>
      </trkpt>
      <trkpt lat="46.16229" lon="6.57695">
        <ele>1575.6</ele>
        <time>2021-06-26T07:33:38Z</time>
      </trkpt>
      <trkpt lat="46.16227" lon="6.57697">
        <ele>1576</ele>
        <time>2021-06-26T07:33:39Z</time>
      </trkpt>
      <trkpt lat="46.16225" lon="6.57699">
        <ele>1576.2</ele>
        <time>2021-06-26T07:33:40Z</time>
      </trkpt>
      <trkpt lat="46.16223" lon="6.57701">
        <ele>1576.2</ele>
        <time>2021-06-26T07:33:41Z</time>
      </trkpt>
      <trkpt lat="46.16221" lon="6.57703">
        <ele>1576.6</ele>
        <time>2021-06-26T07:33:42Z</time>
      </trkpt>
      <trkpt lat="46.16219" lon="6.57705">
        <ele>1576.8</ele>
        <time>2021-06-26T07:33:43Z</time>
      </trkpt>
      <trkpt lat="46.16217" lon="6.57707">
        <ele>1577.2</ele>
        <time>2021-06-26T07:33:44Z</time>
      </trkpt>
      <trkpt lat="46.16215" lon="6.5771">
        <ele>1577.2</ele>
        <time>2021-06-26T07:33:45Z</time>
      </trkpt>
      <trkpt lat="46.16214" lon="6.57712">
        <ele>1577.4</ele>
        <time>2021-06-26T07:33:46Z</time>
      </trkpt>
      <trkpt lat="46.16213" lon="6.57715">
        <ele>1577.6</ele>
        <time>2021-06-26T07:33:47Z</time>
      </trkpt>
      <trkpt lat="46.16211" lon="6.57717">
        <ele>1577.6</ele>
        <time>2021-06-26T07:33:48Z</time>
      </trkpt>
      <trkpt lat="46.1621" lon="6.5772">
        <ele>1577.8</ele>
        <time>2021-06-26T07:33:49Z</time>
      </trkpt>
      <trkpt lat="46.16209" lon="6.57722">
        <ele>1578</ele>
        <time>2021-06-26T07:33:50Z</time>
      </trkpt>
      <trkpt lat="46.16207" lon="6.57725">
        <ele>1578.4</ele>
        <time>2021-06-26T07:33:51Z</time>
      </trkpt>
      <trkpt lat="46.16206" lon="6.57728">
        <ele>1578.4</ele>
        <time>2021-06-26T07:33:52Z</time>
      </trkpt>
      <trkpt lat="46.16205" lon="6.5773">
        <ele>1578.8</ele>
        <time>2021-06-26T07:33:53Z</time>
      </trkpt>
      <trkpt lat="46.16203" lon="6.57733">
        <ele>1579</ele>
        <time>2021-06-26T07:33:54Z</time>
      </trkpt>
      <trkpt lat="46.16202" lon="6.57735">
        <ele>1579.4</ele>
        <time>2021-06-26T07:33:55Z</time>
      </trkpt>
      <trkpt lat="46.162" lon="6.57737">
        <ele>1579.6</ele>
        <time>2021-06-26T07:33:56Z</time>
      </trkpt>
      <trkpt lat="46.16198" lon="6.5774">
        <ele>1579.8</ele>
        <time>2021-06-26T07:33:57Z</time>
      </trkpt>
      <trkpt lat="46.16197" lon="6.57742">
        <ele>1580.2</ele>
        <time>2021-06-26T07:33:58Z</time>
      </trkpt>
      <trkpt lat="46.16195" lon="6.57744">
        <ele>1580.4</ele>
        <time>2021-06-26T07:33:59Z</time>
      </trkpt>
      <trkpt lat="46.16193" lon="6.57747">
        <ele>1580.6</ele>
        <time>2021-06-26T07:34:00Z</time>
      </trkpt>
      <trkpt lat="46.16192" lon="6.57749">
        <ele>1581</ele>
        <time>2021-06-26T07:34:01Z</time>
      </trkpt>
      <trkpt lat="46.1619" lon="6.5775">
        <ele>1581.2</ele>
        <time>2021-06-26T07:34:02Z</time>
      </trkpt>
      <trkpt lat="46.16187" lon="6.57751">
        <ele>1581.4</ele>
        <time>2021-06-26T07:34:03Z</time>
      </trkpt>
      <trkpt lat="46.16185" lon="6.57753">
        <ele>1581.8</ele>
        <time>2021-06-26T07:34:04Z</time>
      </trkpt>
      <trkpt lat="46.16183" lon="6.57754">
        <ele>1581.8</ele>
        <time>2021-06-26T07:34:05Z</time>
      </trkpt>
      <trkpt lat="46.16181" lon="6.57756">
        <ele>1582.2</ele>
        <time>2021-06-26T07:34:06Z</time>
      </trkpt>
      <trkpt lat="46.16178" lon="6.57757">
        <ele>1582.4</ele>
        <time>2021-06-26T07:34:07Z</time>
      </trkpt>
      <trkpt lat="46.16176" lon="6.57759">
        <ele>1582.4</ele>
        <time>2021-06-26T07:34:08Z</time>
      </trkpt>
      <trkpt lat="46.16174" lon="6.57761">
        <ele>1582.8</ele>
        <time>2021-06-26T07:34:09Z</time>
      </trkpt>
      <trkpt lat="46.16172" lon="6.57762">
        <ele>1582.8</ele>
        <time>2021-06-26T07:34:10Z</time>
      </trkpt>
      <trkpt lat="46.1617" lon="6.57764">
        <ele>1583.2</ele>
        <time>2021-06-26T07:34:11Z</time>
      </trkpt>
      <trkpt lat="46.16168" lon="6.57767">
        <ele>1583.4</ele>
        <time>2021-06-26T07:34:12Z</time>
      </trkpt>
      <trkpt lat="46.16167" lon="6.57769">
        <ele>1583.6</ele>
        <time>2021-06-26T07:34:13Z</time>
      </trkpt>
      <trkpt lat="46.16165" lon="6.57771">
        <ele>1583.8</ele>
        <time>2021-06-26T07:34:14Z</time>
      </trkpt>
      <trkpt lat="46.16163" lon="6.57774">
        <ele>1584</ele>
        <time>2021-06-26T07:34:15Z</time>
      </trkpt>
      <trkpt lat="46.16162" lon="6.57777">
        <ele>1584.2</ele>
        <time>2021-06-26T07:34:16Z</time>
      </trkpt>
      <trkpt lat="46.16161" lon="6.57779">
        <ele>1584.4</ele>
        <time>2021-06-26T07:34:17Z</time>
      </trkpt>
      <trkpt lat="46.1616" lon="6.57782">
        <ele>1584.6</ele>
        <time>2021-06-26T07:34:18Z</time>
      </trkpt>
      <trkpt lat="46.16158" lon="6.57785">
        <ele>1585</ele>
        <time>2021-06-26T07:34:19Z</time>
      </trkpt>
      <trkpt lat="46.16157" lon="6.57788">
        <ele>1585.2</ele>
        <time>2021-06-26T07:34:20Z</time>
      </trkpt>
      <trkpt lat="46.16155" lon="6.57791">
        <ele>1585.6</ele>
        <time>2021-06-26T07:34:21Z</time>
      </trkpt>
      <trkpt lat="46.16154" lon="6.57793">
        <ele>1585.6</ele>
        <time>2021-06-26T07:34:22Z</time>
      </trkpt>
      <trkpt lat="46.16153" lon="6.57796">
        <ele>1586</ele>
        <time>2021-06-26T07:34:23Z</time>
      </trkpt>
      <trkpt lat="46.16152" lon="6.57799">
        <ele>1586.2</ele>
        <time>2021-06-26T07:34:24Z</time>
      </trkpt>
      <trkpt lat="46.16151" lon="6.57802">
        <ele>1586.4</ele>
        <time>2021-06-26T07:34:25Z</time>
      </trkpt>
      <trkpt lat="46.16151" lon="6.57806">
        <ele>1586.8</ele>
        <time>2021-06-26T07:34:26Z</time>
      </trkpt>
      <trkpt lat="46.1615" lon="6.57809">
        <ele>1587</ele>
        <time>2021-06-26T07:34:27Z</time>
      </trkpt>
      <trkpt lat="46.1615" lon="6.57812">
        <ele>1587.4</ele>
        <time>2021-06-26T07:34:28Z</time>
      </trkpt>
      <trkpt lat="46.16149" lon="6.57815">
        <ele>1587.8</ele>
        <time>2021-06-26T07:34:29Z</time>
      </trkpt>
      <trkpt lat="46.16148" lon="6.57818">
        <ele>1587.8</ele>
        <time>2021-06-26T07:34:30Z</time>
      </trkpt>
      <trkpt lat="46.16147" lon="6.57821">
        <ele>1588</ele>
        <time>2021-06-26T07:34:31Z</time>
      </trkpt>
      <trkpt lat="46.16147" lon="6.57825">
        <ele>1588.2</ele>
        <time>2021-06-26T07:34:32Z</time>
      </trkpt>
      <trkpt lat="46.16147" lon="6.57828">
        <ele>1588.6</ele>
        <time>2021-06-26T07:34:33Z</time>
      </trkpt>
      <trkpt lat="46.16146" lon="6.57832">
        <ele>1589</ele>
        <time>2021-06-26T07:34:34Z</time>
      </trkpt>
      <trkpt lat="46.16145" lon="6.57835">
        <ele>1589</ele>
        <time>2021-06-26T07:34:35Z</time>
      </trkpt>
      <trkpt lat="46.16145" lon="6.57839">
        <ele>1589.4</ele>
        <time>2021-06-26T07:34:36Z</time>
      </trkpt>
      <trkpt lat="46.16144" lon="6.57842">
        <ele>1589.6</ele>
        <time>2021-06-26T07:34:37Z</time>
      </trkpt>
      <trkpt lat="46.16142" lon="6.57845">
        <ele>1589.8</ele>
        <time>2021-06-26T07:34:38Z</time>
      </trkpt>
      <trkpt lat="46.16141" lon="6.57848">
        <ele>1590</ele>
        <time>2021-06-26T07:34:39Z</time>
      </trkpt>
      <trkpt lat="46.1614" lon="6.57851">
        <ele>1590.2</ele>
        <time>2021-06-26T07:34:40Z</time>
      </trkpt>
      <trkpt lat="46.16137" lon="6.57854">
        <ele>1590.6</ele>
        <time>2021-06-26T07:34:41Z</time>
      </trkpt>
      <trkpt lat="46.16134" lon="6.57857">
        <ele>1590.8</ele>
        <time>2021-06-26T07:34:42Z</time>
      </trkpt>
      <trkpt lat="46.16132" lon="6.57859">
        <ele>1591</ele>
        <time>2021-06-26T07:34:43Z</time>
      </trkpt>
      <trkpt lat="46.16129" lon="6.57861">
        <ele>1591.2</ele>
        <time>2021-06-26T07:34:44Z</time>
      </trkpt>
      <trkpt lat="46.16125" lon="6.57862">
        <ele>1591.6</ele>
        <time>2021-06-26T07:34:45Z</time>
      </trkpt>
      <trkpt lat="46.16122" lon="6.57863">
        <ele>1591.6</ele>
        <time>2021-06-26T07:34:46Z</time>
      </trkpt>
      <trkpt lat="46.16119" lon="6.57864">
        <ele>1592</ele>
        <time>2021-06-26T07:34:47Z</time>
      </trkpt>
      <trkpt lat="46.16116" lon="6.57864">
        <ele>1592</ele>
        <time>2021-06-26T07:34:48Z</time>
      </trkpt>
      <trkpt lat="46.16113" lon="6.57862">
        <ele>1592.4</ele>
        <time>2021-06-26T07:34:49Z</time>
      </trkpt>
      <trkpt lat="46.16109" lon="6.5786">
        <ele>1592.4</ele>
        <time>2021-06-26T07:34:50Z</time>
      </trkpt>
      <trkpt lat="46.16106" lon="6.57856">
        <ele>1592.6</ele>
        <time>2021-06-26T07:34:51Z</time>
      </trkpt>
      <trkpt lat="46.16103" lon="6.57853">
        <ele>1592.6</ele>
        <time>2021-06-26T07:34:52Z</time>
      </trkpt>
      <trkpt lat="46.16099" lon="6.5785">
        <ele>1592.6</ele>
        <time>2021-06-26T07:34:53Z</time>
      </trkpt>
      <trkpt lat="46.16096" lon="6.57847">
        <ele>1592.6</ele>
        <time>2021-06-26T07:34:54Z</time>
      </trkpt>
      <trkpt lat="46.16092" lon="6.57845">
        <ele>1592.6</ele>
        <time>2021-06-26T07:34:55Z</time>
      </trkpt>
      <trkpt lat="46.16088" lon="6.57844">
        <ele>1592.8</ele>
        <time>2021-06-26T07:34:56Z</time>
      </trkpt>
      <trkpt lat="46.16083" lon="6.57844">
        <ele>1592.6</ele>
        <time>2021-06-26T07:34:57Z</time>
      </trkpt>
      <trkpt lat="46.16079" lon="6.57844">
        <ele>1592.8</ele>
        <time>2021-06-26T07:34:58Z</time>
      </trkpt>
      <trkpt lat="46.16074" lon="6.57845">
        <ele>1592.6</ele>
        <time>2021-06-26T07:34:59Z</time>
      </trkpt>
      <trkpt lat="46.16064" lon="6.57848">
        <ele>1592.8</ele>
        <time>2021-06-26T07:35:01Z</time>
      </trkpt>
      <trkpt lat="46.16055" lon="6.57852">
        <ele>1592.6</ele>
        <time>2021-06-26T07:35:03Z</time>
      </trkpt>
      <trkpt lat="46.1604" lon="6.57858">
        <ele>1592.4</ele>
        <time>2021-06-26T07:35:06Z</time>
      </trkpt>
      <trkpt lat="46.16035" lon="6.5786">
        <ele>1592.4</ele>
        <time>2021-06-26T07:35:07Z</time>
      </trkpt>
      <trkpt lat="46.16015" lon="6.57868">
        <ele>1592.4</ele>
        <time>2021-06-26T07:35:11Z</time>
      </trkpt>
      <trkpt lat="46.16005" lon="6.57874">
        <ele>1592.4</ele>
        <time>2021-06-26T07:35:13Z</time>
      </trkpt>
      <trkpt lat="46.16" lon="6.57878">
        <ele>1592.4</ele>
        <time>2021-06-26T07:35:14Z</time>
      </trkpt>
      <trkpt lat="46.15996" lon="6.57883">
        <ele>1592.4</ele>
        <time>2021-06-26T07:35:15Z</time>
      </trkpt>
      <trkpt lat="46.15989" lon="6.57895">
        <ele>1592.4</ele>
        <time>2021-06-26T07:35:17Z</time>
      </trkpt>
      <trkpt lat="46.15985" lon="6.57902">
        <ele>1592.2</ele>
        <time>2021-06-26T07:35:18Z</time>
      </trkpt>
      <trkpt lat="46.15977" lon="6.57923">
        <ele>1592.2</ele>
        <time>2021-06-26T07:35:21Z</time>
      </trkpt>
      <trkpt lat="46.15974" lon="6.57939">
        <ele>1592.2</ele>
        <time>2021-06-26T07:35:23Z</time>
      </trkpt>
      <trkpt lat="46.15973" lon="6.57948">
        <ele>1592.2</ele>
        <time>2021-06-26T07:35:24Z</time>
      </trkpt>
      <trkpt lat="46.15973" lon="6.57956">
        <ele>1592.2</ele>
        <time>2021-06-26T07:35:25Z</time>
      </trkpt>
      <trkpt lat="46.15973" lon="6.57964">
        <ele>1592.2</ele>
        <time>2021-06-26T07:35:26Z</time>
      </trkpt>
      <trkpt lat="46.15972" lon="6.57972">
        <ele>1592.4</ele>
        <time>2021-06-26T07:35:27Z</time>
      </trkpt>
      <trkpt lat="46.15972" lon="6.57979">
        <ele>1592.4</ele>
        <time>2021-06-26T07:35:28Z</time>
      </trkpt>
      <trkpt lat="46.15971" lon="6.57985">
        <ele>1592.4</ele>
        <time>2021-06-26T07:35:29Z</time>
      </trkpt>
      <trkpt lat="46.1597" lon="6.57992">
        <ele>1592.4</ele>
        <time>2021-06-26T07:35:30Z</time>
      </trkpt>
      <trkpt lat="46.15969" lon="6.57998">
        <ele>1592.4</ele>
        <time>2021-06-26T07:35:31Z</time>
      </trkpt>
      <trkpt lat="46.15968" lon="6.58003">
        <ele>1592.4</ele>
        <time>2021-06-26T07:35:32Z</time>
      </trkpt>
      <trkpt lat="46.15967" lon="6.58009">
        <ele>1592.6</ele>
        <time>2021-06-26T07:35:33Z</time>
      </trkpt>
      <trkpt lat="46.15966" lon="6.58013">
        <ele>1592.6</ele>
        <time>2021-06-26T07:35:34Z</time>
      </trkpt>
      <trkpt lat="46.15965" lon="6.58018">
        <ele>1592.8</ele>
        <time>2021-06-26T07:35:35Z</time>
      </trkpt>
      <trkpt lat="46.15964" lon="6.58023">
        <ele>1592.8</ele>
        <time>2021-06-26T07:35:36Z</time>
      </trkpt>
      <trkpt lat="46.15962" lon="6.58026">
        <ele>1593</ele>
        <time>2021-06-26T07:35:37Z</time>
      </trkpt>
      <trkpt lat="46.15961" lon="6.5803">
        <ele>1593.2</ele>
        <time>2021-06-26T07:35:38Z</time>
      </trkpt>
      <trkpt lat="46.15962" lon="6.58033">
        <ele>1593.4</ele>
        <time>2021-06-26T07:35:39Z</time>
      </trkpt>
      <trkpt lat="46.15963" lon="6.58034">
        <ele>1593.8</ele>
        <time>2021-06-26T07:35:40Z</time>
      </trkpt>
      <trkpt lat="46.15964" lon="6.58033">
        <ele>1594</ele>
        <time>2021-06-26T07:35:41Z</time>
      </trkpt>
      <trkpt lat="46.15965" lon="6.58031">
        <ele>1594.2</ele>
        <time>2021-06-26T07:35:42Z</time>
      </trkpt>
      <trkpt lat="46.15966" lon="6.5803">
        <ele>1594.6</ele>
        <time>2021-06-26T07:35:44Z</time>
      </trkpt>
      <trkpt lat="46.15968" lon="6.5803">
        <ele>1595.2</ele>
        <time>2021-06-26T07:35:48Z</time>
      </trkpt>
      <trkpt lat="46.15969" lon="6.5803">
        <ele>1595.2</ele>
        <time>2021-06-26T07:35:49Z</time>
      </trkpt>
      <trkpt lat="46.15969" lon="6.5803">
        <ele>1595.2</ele>
        <time>2021-06-26T07:35:50Z</time>
      </trkpt>
      <trkpt lat="46.1597" lon="6.58029">
        <ele>1595.2</ele>
        <time>2021-06-26T07:35:51Z</time>
      </trkpt>
      <trkpt lat="46.1597" lon="6.58029">
        <ele>1595.2</ele>
        <time>2021-06-26T07:35:52Z</time>
      </trkpt>
      <trkpt lat="46.1597" lon="6.58029">
        <ele>1595.4</ele>
        <time>2021-06-26T07:35:53Z</time>
      </trkpt>
      <trkpt lat="46.1597" lon="6.58029">
        <ele>1596.6</ele>
        <time>2021-06-26T07:36:06Z</time>
      </trkpt>
      <trkpt lat="46.1597" lon="6.58028">
        <ele>1596.6</ele>
        <time>2021-06-26T07:36:25Z</time>
      </trkpt>
      <trkpt lat="46.1597" lon="6.58028">
        <ele>1596.6</ele>
        <time>2021-06-26T07:36:35Z</time>
      </trkpt>
      <trkpt lat="46.15967" lon="6.58028">
        <ele>1596.4</ele>
        <time>2021-06-26T07:38:55Z</time>
      </trkpt>
      <trkpt lat="46.15965" lon="6.58031">
        <ele>1596.4</ele>
        <time>2021-06-26T07:38:58Z</time>
      </trkpt>
      <trkpt lat="46.15964" lon="6.58032">
        <ele>1596.4</ele>
        <time>2021-06-26T07:38:59Z</time>
      </trkpt>
      <trkpt lat="46.15964" lon="6.58033">
        <ele>1596.4</ele>
        <time>2021-06-26T07:39:01Z</time>
      </trkpt>
      <trkpt lat="46.15964" lon="6.58033">
        <ele>1595.4</ele>
        <time>2021-06-26T07:39:07Z</time>
      </trkpt>
      <trkpt lat="46.15964" lon="6.58034">
        <ele>1595.2</ele>
        <time>2021-06-26T07:39:18Z</time>
      </trkpt>
      <trkpt lat="46.15963" lon="6.58035">
        <ele>1595.2</ele>
        <time>2021-06-26T07:39:19Z</time>
      </trkpt>
      <trkpt lat="46.15962" lon="6.58037">
        <ele>1595.2</ele>
        <time>2021-06-26T07:39:20Z</time>
      </trkpt>
      <trkpt lat="46.1596" lon="6.58039">
        <ele>1595.2</ele>
        <time>2021-06-26T07:39:21Z</time>
      </trkpt>
      <trkpt lat="46.15959" lon="6.58041">
        <ele>1595</ele>
        <time>2021-06-26T07:39:22Z</time>
      </trkpt>
      <trkpt lat="46.15957" lon="6.58044">
        <ele>1595.2</ele>
        <time>2021-06-26T07:39:23Z</time>
      </trkpt>
      <trkpt lat="46.15945" lon="6.58059">
        <ele>1595.2</ele>
        <time>2021-06-26T07:39:28Z</time>
      </trkpt>
      <trkpt lat="46.15942" lon="6.58062">
        <ele>1595.2</ele>
        <time>2021-06-26T07:39:29Z</time>
      </trkpt>
      <trkpt lat="46.15921" lon="6.58073">
        <ele>1595.2</ele>
        <time>2021-06-26T07:39:35Z</time>
      </trkpt>
      <trkpt lat="46.15895" lon="6.58078">
        <ele>1595.6</ele>
        <time>2021-06-26T07:39:41Z</time>
      </trkpt>
      <trkpt lat="46.15891" lon="6.58078">
        <ele>1595.6</ele>
        <time>2021-06-26T07:39:42Z</time>
      </trkpt>
      <trkpt lat="46.15887" lon="6.58078">
        <ele>1595.6</ele>
        <time>2021-06-26T07:39:43Z</time>
      </trkpt>
      <trkpt lat="46.15883" lon="6.58078">
        <ele>1595.6</ele>
        <time>2021-06-26T07:39:44Z</time>
      </trkpt>
      <trkpt lat="46.15879" lon="6.58077">
        <ele>1595.6</ele>
        <time>2021-06-26T07:39:45Z</time>
      </trkpt>
      <trkpt lat="46.15877" lon="6.58077">
        <ele>1595.6</ele>
        <time>2021-06-26T07:39:46Z</time>
      </trkpt>
      <trkpt lat="46.15874" lon="6.58076">
        <ele>1595.8</ele>
        <time>2021-06-26T07:39:47Z</time>
      </trkpt>
      <trkpt lat="46.15871" lon="6.58075">
        <ele>1595.6</ele>
        <time>2021-06-26T07:39:48Z</time>
      </trkpt>
      <trkpt lat="46.15869" lon="6.58074">
        <ele>1595.6</ele>
        <time>2021-06-26T07:39:49Z</time>
      </trkpt>
      <trkpt lat="46.15866" lon="6.58073">
        <ele>1595.8</ele>
        <time>2021-06-26T07:39:50Z</time>
      </trkpt>
      <trkpt lat="46.15864" lon="6.58072">
        <ele>1595.6</ele>
        <time>2021-06-26T07:39:51Z</time>
      </trkpt>
      <trkpt lat="46.15862" lon="6.5807">
        <ele>1595.6</ele>
        <time>2021-06-26T07:39:52Z</time>
      </trkpt>
      <trkpt lat="46.1586" lon="6.58069">
        <ele>1595.6</ele>
        <time>2021-06-26T07:39:53Z</time>
      </trkpt>
      <trkpt lat="46.15858" lon="6.58067">
        <ele>1595.6</ele>
        <time>2021-06-26T07:39:54Z</time>
      </trkpt>
      <trkpt lat="46.15857" lon="6.58066">
        <ele>1595.4</ele>
        <time>2021-06-26T07:39:55Z</time>
      </trkpt>
      <trkpt lat="46.15856" lon="6.58065">
        <ele>1595.2</ele>
        <time>2021-06-26T07:39:56Z</time>
      </trkpt>
      <trkpt lat="46.15851" lon="6.58063">
        <ele>1594.6</ele>
        <time>2021-06-26T07:39:59Z</time>
      </trkpt>
      <trkpt lat="46.15851" lon="6.58063">
        <ele>1594.4</ele>
        <time>2021-06-26T07:40:00Z</time>
      </trkpt>
      <trkpt lat="46.15851" lon="6.58062">
        <ele>1594.2</ele>
        <time>2021-06-26T07:40:01Z</time>
      </trkpt>
      <trkpt lat="46.1585" lon="6.58061">
        <ele>1593.8</ele>
        <time>2021-06-26T07:40:05Z</time>
      </trkpt>
      <trkpt lat="46.1585" lon="6.5806">
        <ele>1593.2</ele>
        <time>2021-06-26T07:40:12Z</time>
      </trkpt>
      <trkpt lat="46.1585" lon="6.5806">
        <ele>1592.2</ele>
        <time>2021-06-26T07:40:47Z</time>
      </trkpt>
      <trkpt lat="46.1585" lon="6.5806">
        <ele>1592.2</ele>
        <time>2021-06-26T07:40:51Z</time>
      </trkpt>
      <trkpt lat="46.1585" lon="6.58061">
        <ele>1591.8</ele>
        <time>2021-06-26T07:42:24Z</time>
      </trkpt>
      <trkpt lat="46.1585" lon="6.58061">
        <ele>1591.4</ele>
        <time>2021-06-26T07:44:00Z</time>
      </trkpt>
      <trkpt lat="46.1585" lon="6.58061">
        <ele>1591.4</ele>
        <time>2021-06-26T07:44:20Z</time>
      </trkpt>
      <trkpt lat="46.1585" lon="6.58061">
        <ele>1591.2</ele>
        <time>2021-06-26T07:45:30Z</time>
      </trkpt>
      <trkpt lat="46.1585" lon="6.58061">
        <ele>1591.6</ele>
        <time>2021-06-26T07:45:48Z</time>
      </trkpt>
      <trkpt lat="46.1585" lon="6.58061">
        <ele>1591.6</ele>
        <time>2021-06-26T07:46:57Z</time>
      </trkpt>
      <trkpt lat="46.1585" lon="6.58061">
        <ele>1591.6</ele>
        <time>2021-06-26T07:47:45Z</time>
      </trkpt>
      <trkpt lat="46.15849" lon="6.58064">
        <ele>1591.6</ele>
        <time>2021-06-26T07:48:06Z</time>
      </trkpt>
      <trkpt lat="46.15841" lon="6.5806">
        <ele>1591.4</ele>
        <time>2021-06-26T07:48:11Z</time>
      </trkpt>
      <trkpt lat="46.15828" lon="6.58052">
        <ele>1591.2</ele>
        <time>2021-06-26T07:48:14Z</time>
      </trkpt>
      <trkpt lat="46.15822" lon="6.58048">
        <ele>1591.4</ele>
        <time>2021-06-26T07:48:15Z</time>
      </trkpt>
      <trkpt lat="46.15815" lon="6.58045">
        <ele>1591.2</ele>
        <time>2021-06-26T07:48:16Z</time>
      </trkpt>
      <trkpt lat="46.15801" lon="6.58038">
        <ele>1591.2</ele>
        <time>2021-06-26T07:48:18Z</time>
      </trkpt>
      <trkpt lat="46.15793" lon="6.58034">
        <ele>1591.2</ele>
        <time>2021-06-26T07:48:19Z</time>
      </trkpt>
      <trkpt lat="46.15785" lon="6.5803">
        <ele>1590.8</ele>
        <time>2021-06-26T07:48:20Z</time>
      </trkpt>
      <trkpt lat="46.15776" lon="6.58025">
        <ele>1590.6</ele>
        <time>2021-06-26T07:48:21Z</time>
      </trkpt>
      <trkpt lat="46.15767" lon="6.5802">
        <ele>1589.8</ele>
        <time>2021-06-26T07:48:22Z</time>
      </trkpt>
      <trkpt lat="46.15758" lon="6.58016">
        <ele>1589.4</ele>
        <time>2021-06-26T07:48:23Z</time>
      </trkpt>
      <trkpt lat="46.15749" lon="6.58013">
        <ele>1588.6</ele>
        <time>2021-06-26T07:48:24Z</time>
      </trkpt>
      <trkpt lat="46.15739" lon="6.58012">
        <ele>1587.8</ele>
        <time>2021-06-26T07:48:25Z</time>
      </trkpt>
      <trkpt lat="46.15728" lon="6.58014">
        <ele>1586.8</ele>
        <time>2021-06-26T07:48:26Z</time>
      </trkpt>
      <trkpt lat="46.15718" lon="6.58018">
        <ele>1585.8</ele>
        <time>2021-06-26T07:48:27Z</time>
      </trkpt>
      <trkpt lat="46.15708" lon="6.58023">
        <ele>1584.4</ele>
        <time>2021-06-26T07:48:28Z</time>
      </trkpt>
      <trkpt lat="46.15699" lon="6.58028">
        <ele>1583</ele>
        <time>2021-06-26T07:48:29Z</time>
      </trkpt>
      <trkpt lat="46.1569" lon="6.58031">
        <ele>1582.2</ele>
        <time>2021-06-26T07:48:30Z</time>
      </trkpt>
      <trkpt lat="46.15682" lon="6.58032">
        <ele>1581</ele>
        <time>2021-06-26T07:48:31Z</time>
      </trkpt>
      <trkpt lat="46.15673" lon="6.5803">
        <ele>1579.6</ele>
        <time>2021-06-26T07:48:32Z</time>
      </trkpt>
      <trkpt lat="46.15664" lon="6.58026">
        <ele>1578.2</ele>
        <time>2021-06-26T07:48:33Z</time>
      </trkpt>
      <trkpt lat="46.15655" lon="6.58021">
        <ele>1578.2</ele>
        <time>2021-06-26T07:48:34Z</time>
      </trkpt>
      <trkpt lat="46.15646" lon="6.58015">
        <ele>1576.8</ele>
        <time>2021-06-26T07:48:35Z</time>
      </trkpt>
      <trkpt lat="46.15636" lon="6.58008">
        <ele>1575.8</ele>
        <time>2021-06-26T07:48:36Z</time>
      </trkpt>
      <trkpt lat="46.15626" lon="6.58001">
        <ele>1574</ele>
        <time>2021-06-26T07:48:37Z</time>
      </trkpt>
      <trkpt lat="46.15615" lon="6.57993">
        <ele>1572.8</ele>
        <time>2021-06-26T07:48:38Z</time>
      </trkpt>
      <trkpt lat="46.15604" lon="6.57986">
        <ele>1572.2</ele>
        <time>2021-06-26T07:48:39Z</time>
      </trkpt>
      <trkpt lat="46.15593" lon="6.57979">
        <ele>1571.8</ele>
        <time>2021-06-26T07:48:40Z</time>
      </trkpt>
      <trkpt lat="46.15581" lon="6.57973">
        <ele>1571.4</ele>
        <time>2021-06-26T07:48:41Z</time>
      </trkpt>
      <trkpt lat="46.15569" lon="6.57966">
        <ele>1570.2</ele>
        <time>2021-06-26T07:48:42Z</time>
      </trkpt>
      <trkpt lat="46.15543" lon="6.57953">
        <ele>1568</ele>
        <time>2021-06-26T07:48:44Z</time>
      </trkpt>
      <trkpt lat="46.15529" lon="6.57949">
        <ele>1566.8</ele>
        <time>2021-06-26T07:48:45Z</time>
      </trkpt>
      <trkpt lat="46.15515" lon="6.57946">
        <ele>1565.4</ele>
        <time>2021-06-26T07:48:46Z</time>
      </trkpt>
      <trkpt lat="46.15501" lon="6.57943">
        <ele>1564.2</ele>
        <time>2021-06-26T07:48:47Z</time>
      </trkpt>
      <trkpt lat="46.15487" lon="6.5794">
        <ele>1562.6</ele>
        <time>2021-06-26T07:48:48Z</time>
      </trkpt>
      <trkpt lat="46.15473" lon="6.57937">
        <ele>1561.2</ele>
        <time>2021-06-26T07:48:49Z</time>
      </trkpt>
      <trkpt lat="46.15445" lon="6.5793">
        <ele>1558</ele>
        <time>2021-06-26T07:48:51Z</time>
      </trkpt>
      <trkpt lat="46.15431" lon="6.57929">
        <ele>1556.8</ele>
        <time>2021-06-26T07:48:52Z</time>
      </trkpt>
      <trkpt lat="46.15416" lon="6.5793">
        <ele>1555.4</ele>
        <time>2021-06-26T07:48:53Z</time>
      </trkpt>
      <trkpt lat="46.15402" lon="6.57931">
        <ele>1553.8</ele>
        <time>2021-06-26T07:48:54Z</time>
      </trkpt>
      <trkpt lat="46.15387" lon="6.57933">
        <ele>1552</ele>
        <time>2021-06-26T07:48:55Z</time>
      </trkpt>
      <trkpt lat="46.15358" lon="6.57939">
        <ele>1550.2</ele>
        <time>2021-06-26T07:48:57Z</time>
      </trkpt>
      <trkpt lat="46.15345" lon="6.57941">
        <ele>1548.4</ele>
        <time>2021-06-26T07:48:58Z</time>
      </trkpt>
      <trkpt lat="46.15333" lon="6.57943">
        <ele>1546.6</ele>
        <time>2021-06-26T07:48:59Z</time>
      </trkpt>
      <trkpt lat="46.1532" lon="6.57944">
        <ele>1545.6</ele>
        <time>2021-06-26T07:49:00Z</time>
      </trkpt>
      <trkpt lat="46.15308" lon="6.57942">
        <ele>1544.2</ele>
        <time>2021-06-26T07:49:01Z</time>
      </trkpt>
      <trkpt lat="46.15295" lon="6.57938">
        <ele>1542.4</ele>
        <time>2021-06-26T07:49:02Z</time>
      </trkpt>
      <trkpt lat="46.15282" lon="6.57933">
        <ele>1541.2</ele>
        <time>2021-06-26T07:49:03Z</time>
      </trkpt>
      <trkpt lat="46.15269" lon="6.57929">
        <ele>1539.8</ele>
        <time>2021-06-26T07:49:04Z</time>
      </trkpt>
      <trkpt lat="46.15255" lon="6.57927">
        <ele>1538.4</ele>
        <time>2021-06-26T07:49:05Z</time>
      </trkpt>
      <trkpt lat="46.15228" lon="6.57928">
        <ele>1535.6</ele>
        <time>2021-06-26T07:49:07Z</time>
      </trkpt>
      <trkpt lat="46.15215" lon="6.57931">
        <ele>1534.2</ele>
        <time>2021-06-26T07:49:08Z</time>
      </trkpt>
      <trkpt lat="46.15203" lon="6.57934">
        <ele>1532.6</ele>
        <time>2021-06-26T07:49:09Z</time>
      </trkpt>
      <trkpt lat="46.15192" lon="6.57936">
        <ele>1531</ele>
        <time>2021-06-26T07:49:10Z</time>
      </trkpt>
      <trkpt lat="46.15181" lon="6.57935">
        <ele>1529.4</ele>
        <time>2021-06-26T07:49:11Z</time>
      </trkpt>
      <trkpt lat="46.15169" lon="6.57932">
        <ele>1528</ele>
        <time>2021-06-26T07:49:12Z</time>
      </trkpt>
      <trkpt lat="46.15158" lon="6.57928">
        <ele>1526.2</ele>
        <time>2021-06-26T07:49:13Z</time>
      </trkpt>
      <trkpt lat="46.15146" lon="6.57923">
        <ele>1524.4</ele>
        <time>2021-06-26T07:49:14Z</time>
      </trkpt>
      <trkpt lat="46.15135" lon="6.57918">
        <ele>1523.2</ele>
        <time>2021-06-26T07:49:15Z</time>
      </trkpt>
      <trkpt lat="46.15122" lon="6.57915">
        <ele>1522</ele>
        <time>2021-06-26T07:49:16Z</time>
      </trkpt>
      <trkpt lat="46.1511" lon="6.57914">
        <ele>1521.2</ele>
        <time>2021-06-26T07:49:17Z</time>
      </trkpt>
      <trkpt lat="46.15099" lon="6.57914">
        <ele>1521.2</ele>
        <time>2021-06-26T07:49:18Z</time>
      </trkpt>
      <trkpt lat="46.15089" lon="6.57916">
        <ele>1520.8</ele>
        <time>2021-06-26T07:49:19Z</time>
      </trkpt>
      <trkpt lat="46.1508" lon="6.57919">
        <ele>1520</ele>
        <time>2021-06-26T07:49:20Z</time>
      </trkpt>
      <trkpt lat="46.15072" lon="6.57922">
        <ele>1519.2</ele>
        <time>2021-06-26T07:49:21Z</time>
      </trkpt>
      <trkpt lat="46.15065" lon="6.57926">
        <ele>1518.2</ele>
        <time>2021-06-26T07:49:22Z</time>
      </trkpt>
      <trkpt lat="46.15059" lon="6.57929">
        <ele>1517.2</ele>
        <time>2021-06-26T07:49:23Z</time>
      </trkpt>
      <trkpt lat="46.15053" lon="6.57932">
        <ele>1515</ele>
        <time>2021-06-26T07:49:24Z</time>
      </trkpt>
      <trkpt lat="46.15046" lon="6.57935">
        <ele>1514</ele>
        <time>2021-06-26T07:49:25Z</time>
      </trkpt>
      <trkpt lat="46.1504" lon="6.57937">
        <ele>1513</ele>
        <time>2021-06-26T07:49:26Z</time>
      </trkpt>
      <trkpt lat="46.15034" lon="6.5794">
        <ele>1512.2</ele>
        <time>2021-06-26T07:49:27Z</time>
      </trkpt>
      <trkpt lat="46.15028" lon="6.57943">
        <ele>1511.6</ele>
        <time>2021-06-26T07:49:28Z</time>
      </trkpt>
      <trkpt lat="46.15023" lon="6.57946">
        <ele>1511.2</ele>
        <time>2021-06-26T07:49:29Z</time>
      </trkpt>
      <trkpt lat="46.15017" lon="6.57949">
        <ele>1510.8</ele>
        <time>2021-06-26T07:49:30Z</time>
      </trkpt>
      <trkpt lat="46.15011" lon="6.57952">
        <ele>1510.2</ele>
        <time>2021-06-26T07:49:31Z</time>
      </trkpt>
      <trkpt lat="46.15005" lon="6.57955">
        <ele>1509.8</ele>
        <time>2021-06-26T07:49:32Z</time>
      </trkpt>
      <trkpt lat="46.14999" lon="6.57958">
        <ele>1509.6</ele>
        <time>2021-06-26T07:49:33Z</time>
      </trkpt>
      <trkpt lat="46.14994" lon="6.5796">
        <ele>1509.4</ele>
        <time>2021-06-26T07:49:34Z</time>
      </trkpt>
      <trkpt lat="46.14989" lon="6.57962">
        <ele>1509.4</ele>
        <time>2021-06-26T07:49:35Z</time>
      </trkpt>
      <trkpt lat="46.14978" lon="6.57966">
        <ele>1508.4</ele>
        <time>2021-06-26T07:49:37Z</time>
      </trkpt>
      <trkpt lat="46.1496" lon="6.57974">
        <ele>1507.4</ele>
        <time>2021-06-26T07:49:40Z</time>
      </trkpt>
      <trkpt lat="46.14946" lon="6.57979">
        <ele>1506.8</ele>
        <time>2021-06-26T07:49:42Z</time>
      </trkpt>
      <trkpt lat="46.14931" lon="6.57983">
        <ele>1506.4</ele>
        <time>2021-06-26T07:49:44Z</time>
      </trkpt>
      <trkpt lat="46.14906" lon="6.57985">
        <ele>1505.4</ele>
        <time>2021-06-26T07:49:47Z</time>
      </trkpt>
      <trkpt lat="46.14898" lon="6.57984">
        <ele>1505</ele>
        <time>2021-06-26T07:49:48Z</time>
      </trkpt>
      <trkpt lat="46.14891" lon="6.57982">
        <ele>1504.2</ele>
        <time>2021-06-26T07:49:49Z</time>
      </trkpt>
      <trkpt lat="46.14883" lon="6.5798">
        <ele>1503.6</ele>
        <time>2021-06-26T07:49:50Z</time>
      </trkpt>
      <trkpt lat="46.14876" lon="6.57977">
        <ele>1503</ele>
        <time>2021-06-26T07:49:51Z</time>
      </trkpt>
      <trkpt lat="46.14868" lon="6.57974">
        <ele>1502.4</ele>
        <time>2021-06-26T07:49:52Z</time>
      </trkpt>
      <trkpt lat="46.14861" lon="6.57972">
        <ele>1501.6</ele>
        <time>2021-06-26T07:49:53Z</time>
      </trkpt>
      <trkpt lat="46.14854" lon="6.57969">
        <ele>1501.2</ele>
        <time>2021-06-26T07:49:54Z</time>
      </trkpt>
      <trkpt lat="46.14848" lon="6.57966">
        <ele>1501</ele>
        <time>2021-06-26T07:49:55Z</time>
      </trkpt>
      <trkpt lat="46.14841" lon="6.57963">
        <ele>1501</ele>
        <time>2021-06-26T07:49:56Z</time>
      </trkpt>
      <trkpt lat="46.14835" lon="6.5796">
        <ele>1501</ele>
        <time>2021-06-26T07:49:57Z</time>
      </trkpt>
      <trkpt lat="46.14829" lon="6.57958">
        <ele>1501</ele>
        <time>2021-06-26T07:49:58Z</time>
      </trkpt>
      <trkpt lat="46.14823" lon="6.57957">
        <ele>1501</ele>
        <time>2021-06-26T07:49:59Z</time>
      </trkpt>
      <trkpt lat="46.14817" lon="6.57957">
        <ele>1500.8</ele>
        <time>2021-06-26T07:50:00Z</time>
      </trkpt>
      <trkpt lat="46.14811" lon="6.57957">
        <ele>1500.8</ele>
        <time>2021-06-26T07:50:01Z</time>
      </trkpt>
      <trkpt lat="46.14805" lon="6.57958">
        <ele>1500.8</ele>
        <time>2021-06-26T07:50:02Z</time>
      </trkpt>
      <trkpt lat="46.148" lon="6.57959">
        <ele>1501</ele>
        <time>2021-06-26T07:50:03Z</time>
      </trkpt>
      <trkpt lat="46.14794" lon="6.5796">
        <ele>1501</ele>
        <time>2021-06-26T07:50:04Z</time>
      </trkpt>
      <trkpt lat="46.14789" lon="6.57962">
        <ele>1501</ele>
        <time>2021-06-26T07:50:05Z</time>
      </trkpt>
      <trkpt lat="46.14784" lon="6.57964">
        <ele>1501.4</ele>
        <time>2021-06-26T07:50:06Z</time>
      </trkpt>
      <trkpt lat="46.1478" lon="6.57966">
        <ele>1502</ele>
        <time>2021-06-26T07:50:07Z</time>
      </trkpt>
      <trkpt lat="46.14775" lon="6.57968">
        <ele>1502.2</ele>
        <time>2021-06-26T07:50:08Z</time>
      </trkpt>
      <trkpt lat="46.14771" lon="6.5797">
        <ele>1502.4</ele>
        <time>2021-06-26T07:50:09Z</time>
      </trkpt>
      <trkpt lat="46.14763" lon="6.57975">
        <ele>1503</ele>
        <time>2021-06-26T07:50:11Z</time>
      </trkpt>
      <trkpt lat="46.14754" lon="6.5798">
        <ele>1503.6</ele>
        <time>2021-06-26T07:50:13Z</time>
      </trkpt>
      <trkpt lat="46.14747" lon="6.57987">
        <ele>1503.8</ele>
        <time>2021-06-26T07:50:15Z</time>
      </trkpt>
      <trkpt lat="46.14743" lon="6.57991">
        <ele>1503.8</ele>
        <time>2021-06-26T07:50:16Z</time>
      </trkpt>
      <trkpt lat="46.14738" lon="6.57996">
        <ele>1504</ele>
        <time>2021-06-26T07:50:17Z</time>
      </trkpt>
      <trkpt lat="46.14734" lon="6.58001">
        <ele>1504</ele>
        <time>2021-06-26T07:50:18Z</time>
      </trkpt>
      <trkpt lat="46.14729" lon="6.58007">
        <ele>1504</ele>
        <time>2021-06-26T07:50:19Z</time>
      </trkpt>
      <trkpt lat="46.14724" lon="6.58013">
        <ele>1504</ele>
        <time>2021-06-26T07:50:20Z</time>
      </trkpt>
      <trkpt lat="46.14719" lon="6.58019">
        <ele>1504</ele>
        <time>2021-06-26T07:50:21Z</time>
      </trkpt>
      <trkpt lat="46.14707" lon="6.58034">
        <ele>1504</ele>
        <time>2021-06-26T07:50:23Z</time>
      </trkpt>
      <trkpt lat="46.14693" lon="6.5805">
        <ele>1504</ele>
        <time>2021-06-26T07:50:25Z</time>
      </trkpt>
      <trkpt lat="46.14686" lon="6.58058">
        <ele>1504.2</ele>
        <time>2021-06-26T07:50:26Z</time>
      </trkpt>
      <trkpt lat="46.14679" lon="6.58067">
        <ele>1504.2</ele>
        <time>2021-06-26T07:50:27Z</time>
      </trkpt>
      <trkpt lat="46.14664" lon="6.58087">
        <ele>1503</ele>
        <time>2021-06-26T07:50:29Z</time>
      </trkpt>
      <trkpt lat="46.14657" lon="6.58097">
        <ele>1502.6</ele>
        <time>2021-06-26T07:50:30Z</time>
      </trkpt>
      <trkpt lat="46.14643" lon="6.58121">
        <ele>1501</ele>
        <time>2021-06-26T07:50:32Z</time>
      </trkpt>
      <trkpt lat="46.14637" lon="6.58135">
        <ele>1500.2</ele>
        <time>2021-06-26T07:50:33Z</time>
      </trkpt>
      <trkpt lat="46.14632" lon="6.58149">
        <ele>1498.4</ele>
        <time>2021-06-26T07:50:34Z</time>
      </trkpt>
      <trkpt lat="46.14628" lon="6.58165">
        <ele>1497</ele>
        <time>2021-06-26T07:50:35Z</time>
      </trkpt>
      <trkpt lat="46.14626" lon="6.58181">
        <ele>1495.4</ele>
        <time>2021-06-26T07:50:36Z</time>
      </trkpt>
      <trkpt lat="46.14626" lon="6.58196">
        <ele>1494.2</ele>
        <time>2021-06-26T07:50:37Z</time>
      </trkpt>
      <trkpt lat="46.14626" lon="6.58211">
        <ele>1493.2</ele>
        <time>2021-06-26T07:50:38Z</time>
      </trkpt>
      <trkpt lat="46.14627" lon="6.58225">
        <ele>1491.8</ele>
        <time>2021-06-26T07:50:39Z</time>
      </trkpt>
      <trkpt lat="46.14628" lon="6.58239">
        <ele>1490.6</ele>
        <time>2021-06-26T07:50:40Z</time>
      </trkpt>
      <trkpt lat="46.14629" lon="6.58252">
        <ele>1489.4</ele>
        <time>2021-06-26T07:50:41Z</time>
      </trkpt>
      <trkpt lat="46.14631" lon="6.58265">
        <ele>1488.2</ele>
        <time>2021-06-26T07:50:42Z</time>
      </trkpt>
      <trkpt lat="46.14634" lon="6.58277">
        <ele>1487</ele>
        <time>2021-06-26T07:50:43Z</time>
      </trkpt>
      <trkpt lat="46.14638" lon="6.5829">
        <ele>1486.4</ele>
        <time>2021-06-26T07:50:44Z</time>
      </trkpt>
      <trkpt lat="46.14646" lon="6.58313">
        <ele>1486</ele>
        <time>2021-06-26T07:50:46Z</time>
      </trkpt>
      <trkpt lat="46.1465" lon="6.58325">
        <ele>1485.8</ele>
        <time>2021-06-26T07:50:47Z</time>
      </trkpt>
      <trkpt lat="46.14655" lon="6.58336">
        <ele>1485.8</ele>
        <time>2021-06-26T07:50:48Z</time>
      </trkpt>
      <trkpt lat="46.14659" lon="6.58346">
        <ele>1485.6</ele>
        <time>2021-06-26T07:50:49Z</time>
      </trkpt>
      <trkpt lat="46.14667" lon="6.58367">
        <ele>1485.4</ele>
        <time>2021-06-26T07:50:51Z</time>
      </trkpt>
      <trkpt lat="46.14679" lon="6.584">
        <ele>1484.8</ele>
        <time>2021-06-26T07:50:54Z</time>
      </trkpt>
      <trkpt lat="46.14686" lon="6.58423">
        <ele>1484</ele>
        <time>2021-06-26T07:50:56Z</time>
      </trkpt>
      <trkpt lat="46.14689" lon="6.58435">
        <ele>1483.2</ele>
        <time>2021-06-26T07:50:57Z</time>
      </trkpt>
      <trkpt lat="46.14697" lon="6.58472">
        <ele>1482.4</ele>
        <time>2021-06-26T07:51:00Z</time>
      </trkpt>
      <trkpt lat="46.14699" lon="6.58484">
        <ele>1482</ele>
        <time>2021-06-26T07:51:01Z</time>
      </trkpt>
      <trkpt lat="46.14699" lon="6.58497">
        <ele>1481.8</ele>
        <time>2021-06-26T07:51:02Z</time>
      </trkpt>
      <trkpt lat="46.14698" lon="6.58509">
        <ele>1481.4</ele>
        <time>2021-06-26T07:51:03Z</time>
      </trkpt>
      <trkpt lat="46.14697" lon="6.58521">
        <ele>1480.8</ele>
        <time>2021-06-26T07:51:04Z</time>
      </trkpt>
      <trkpt lat="46.14697" lon="6.58532">
        <ele>1480.4</ele>
        <time>2021-06-26T07:51:05Z</time>
      </trkpt>
      <trkpt lat="46.14696" lon="6.58543">
        <ele>1479.8</ele>
        <time>2021-06-26T07:51:06Z</time>
      </trkpt>
      <trkpt lat="46.14695" lon="6.58554">
        <ele>1479.6</ele>
        <time>2021-06-26T07:51:07Z</time>
      </trkpt>
      <trkpt lat="46.14695" lon="6.58565">
        <ele>1479.4</ele>
        <time>2021-06-26T07:51:08Z</time>
      </trkpt>
      <trkpt lat="46.14694" lon="6.58576">
        <ele>1479.2</ele>
        <time>2021-06-26T07:51:09Z</time>
      </trkpt>
      <trkpt lat="46.14694" lon="6.58586">
        <ele>1479.2</ele>
        <time>2021-06-26T07:51:10Z</time>
      </trkpt>
      <trkpt lat="46.14693" lon="6.58596">
        <ele>1479.2</ele>
        <time>2021-06-26T07:51:11Z</time>
      </trkpt>
      <trkpt lat="46.14692" lon="6.58606">
        <ele>1479</ele>
        <time>2021-06-26T07:51:12Z</time>
      </trkpt>
      <trkpt lat="46.14692" lon="6.58616">
        <ele>1479</ele>
        <time>2021-06-26T07:51:13Z</time>
      </trkpt>
      <trkpt lat="46.14691" lon="6.58625">
        <ele>1479</ele>
        <time>2021-06-26T07:51:14Z</time>
      </trkpt>
      <trkpt lat="46.14691" lon="6.58635">
        <ele>1479</ele>
        <time>2021-06-26T07:51:15Z</time>
      </trkpt>
      <trkpt lat="46.1469" lon="6.58643">
        <ele>1479</ele>
        <time>2021-06-26T07:51:16Z</time>
      </trkpt>
      <trkpt lat="46.14689" lon="6.58652">
        <ele>1479</ele>
        <time>2021-06-26T07:51:17Z</time>
      </trkpt>
      <trkpt lat="46.14687" lon="6.5866">
        <ele>1479</ele>
        <time>2021-06-26T07:51:18Z</time>
      </trkpt>
      <trkpt lat="46.14684" lon="6.58668">
        <ele>1479.2</ele>
        <time>2021-06-26T07:51:19Z</time>
      </trkpt>
      <trkpt lat="46.1468" lon="6.58676">
        <ele>1479.4</ele>
        <time>2021-06-26T07:51:20Z</time>
      </trkpt>
      <trkpt lat="46.14666" lon="6.58697">
        <ele>1479.6</ele>
        <time>2021-06-26T07:51:23Z</time>
      </trkpt>
      <trkpt lat="46.14659" lon="6.58702">
        <ele>1479.6</ele>
        <time>2021-06-26T07:51:24Z</time>
      </trkpt>
      <trkpt lat="46.14652" lon="6.58706">
        <ele>1479.6</ele>
        <time>2021-06-26T07:51:25Z</time>
      </trkpt>
      <trkpt lat="46.14636" lon="6.58714">
        <ele>1479.6</ele>
        <time>2021-06-26T07:51:27Z</time>
      </trkpt>
      <trkpt lat="46.14628" lon="6.58717">
        <ele>1479.6</ele>
        <time>2021-06-26T07:51:28Z</time>
      </trkpt>
      <trkpt lat="46.14611" lon="6.58726">
        <ele>1479.6</ele>
        <time>2021-06-26T07:51:30Z</time>
      </trkpt>
      <trkpt lat="46.14604" lon="6.58732">
        <ele>1479.4</ele>
        <time>2021-06-26T07:51:31Z</time>
      </trkpt>
      <trkpt lat="46.14597" lon="6.5874">
        <ele>1479.2</ele>
        <time>2021-06-26T07:51:32Z</time>
      </trkpt>
      <trkpt lat="46.14591" lon="6.5875">
        <ele>1478.8</ele>
        <time>2021-06-26T07:51:33Z</time>
      </trkpt>
      <trkpt lat="46.14589" lon="6.58761">
        <ele>1478.8</ele>
        <time>2021-06-26T07:51:34Z</time>
      </trkpt>
      <trkpt lat="46.14586" lon="6.58772">
        <ele>1478.4</ele>
        <time>2021-06-26T07:51:35Z</time>
      </trkpt>
      <trkpt lat="46.14582" lon="6.58782">
        <ele>1478.4</ele>
        <time>2021-06-26T07:51:36Z</time>
      </trkpt>
      <trkpt lat="46.14578" lon="6.58792">
        <ele>1477.8</ele>
        <time>2021-06-26T07:51:37Z</time>
      </trkpt>
      <trkpt lat="46.14574" lon="6.58802">
        <ele>1477.2</ele>
        <time>2021-06-26T07:51:38Z</time>
      </trkpt>
      <trkpt lat="46.1457" lon="6.58811">
        <ele>1476.8</ele>
        <time>2021-06-26T07:51:39Z</time>
      </trkpt>
      <trkpt lat="46.14565" lon="6.58819">
        <ele>1476.4</ele>
        <time>2021-06-26T07:51:40Z</time>
      </trkpt>
      <trkpt lat="46.1456" lon="6.58827">
        <ele>1476</ele>
        <time>2021-06-26T07:51:41Z</time>
      </trkpt>
      <trkpt lat="46.14555" lon="6.58834">
        <ele>1475.4</ele>
        <time>2021-06-26T07:51:42Z</time>
      </trkpt>
      <trkpt lat="46.1455" lon="6.58841">
        <ele>1475.2</ele>
        <time>2021-06-26T07:51:43Z</time>
      </trkpt>
      <trkpt lat="46.14544" lon="6.58847">
        <ele>1475</ele>
        <time>2021-06-26T07:51:44Z</time>
      </trkpt>
      <trkpt lat="46.14538" lon="6.58852">
        <ele>1474.8</ele>
        <time>2021-06-26T07:51:45Z</time>
      </trkpt>
      <trkpt lat="46.14532" lon="6.58855">
        <ele>1474.8</ele>
        <time>2021-06-26T07:51:46Z</time>
      </trkpt>
      <trkpt lat="46.14518" lon="6.5886">
        <ele>1475</ele>
        <time>2021-06-26T07:51:48Z</time>
      </trkpt>
      <trkpt lat="46.14512" lon="6.58861">
        <ele>1474.8</ele>
        <time>2021-06-26T07:51:49Z</time>
      </trkpt>
      <trkpt lat="46.14505" lon="6.58863">
        <ele>1474.8</ele>
        <time>2021-06-26T07:51:50Z</time>
      </trkpt>
      <trkpt lat="46.14499" lon="6.58865">
        <ele>1474.8</ele>
        <time>2021-06-26T07:51:51Z</time>
      </trkpt>
      <trkpt lat="46.14494" lon="6.58867">
        <ele>1474.8</ele>
        <time>2021-06-26T07:51:52Z</time>
      </trkpt>
      <trkpt lat="46.14489" lon="6.5887">
        <ele>1474.8</ele>
        <time>2021-06-26T07:51:53Z</time>
      </trkpt>
      <trkpt lat="46.14484" lon="6.58873">
        <ele>1475</ele>
        <time>2021-06-26T07:51:54Z</time>
      </trkpt>
      <trkpt lat="46.14479" lon="6.58876">
        <ele>1475</ele>
        <time>2021-06-26T07:51:55Z</time>
      </trkpt>
      <trkpt lat="46.14475" lon="6.5888">
        <ele>1475</ele>
        <time>2021-06-26T07:51:56Z</time>
      </trkpt>
      <trkpt lat="46.14471" lon="6.58883">
        <ele>1475</ele>
        <time>2021-06-26T07:51:57Z</time>
      </trkpt>
      <trkpt lat="46.14467" lon="6.58886">
        <ele>1475</ele>
        <time>2021-06-26T07:51:58Z</time>
      </trkpt>
      <trkpt lat="46.14463" lon="6.5889">
        <ele>1475.2</ele>
        <time>2021-06-26T07:51:59Z</time>
      </trkpt>
      <trkpt lat="46.14459" lon="6.58893">
        <ele>1475.6</ele>
        <time>2021-06-26T07:52:00Z</time>
      </trkpt>
      <trkpt lat="46.14455" lon="6.58897">
        <ele>1475.6</ele>
        <time>2021-06-26T07:52:01Z</time>
      </trkpt>
      <trkpt lat="46.14452" lon="6.589">
        <ele>1475.8</ele>
        <time>2021-06-26T07:52:02Z</time>
      </trkpt>
      <trkpt lat="46.14448" lon="6.58904">
        <ele>1476.2</ele>
        <time>2021-06-26T07:52:03Z</time>
      </trkpt>
      <trkpt lat="46.14445" lon="6.58907">
        <ele>1476.6</ele>
        <time>2021-06-26T07:52:04Z</time>
      </trkpt>
      <trkpt lat="46.14442" lon="6.5891">
        <ele>1476.8</ele>
        <time>2021-06-26T07:52:05Z</time>
      </trkpt>
      <trkpt lat="46.14439" lon="6.58913">
        <ele>1477.2</ele>
        <time>2021-06-26T07:52:06Z</time>
      </trkpt>
      <trkpt lat="46.14436" lon="6.58917">
        <ele>1477.6</ele>
        <time>2021-06-26T07:52:07Z</time>
      </trkpt>
      <trkpt lat="46.14433" lon="6.5892">
        <ele>1478</ele>
        <time>2021-06-26T07:52:08Z</time>
      </trkpt>
      <trkpt lat="46.14431" lon="6.58923">
        <ele>1478.4</ele>
        <time>2021-06-26T07:52:09Z</time>
      </trkpt>
      <trkpt lat="46.14428" lon="6.58926">
        <ele>1478.8</ele>
        <time>2021-06-26T07:52:10Z</time>
      </trkpt>
      <trkpt lat="46.14425" lon="6.58928">
        <ele>1479.2</ele>
        <time>2021-06-26T07:52:11Z</time>
      </trkpt>
      <trkpt lat="46.14423" lon="6.58931">
        <ele>1479.4</ele>
        <time>2021-06-26T07:52:12Z</time>
      </trkpt>
      <trkpt lat="46.14421" lon="6.58935">
        <ele>1480</ele>
        <time>2021-06-26T07:52:13Z</time>
      </trkpt>
      <trkpt lat="46.14419" lon="6.58938">
        <ele>1480.4</ele>
        <time>2021-06-26T07:52:14Z</time>
      </trkpt>
      <trkpt lat="46.14417" lon="6.58942">
        <ele>1480.8</ele>
        <time>2021-06-26T07:52:15Z</time>
      </trkpt>
      <trkpt lat="46.14416" lon="6.58946">
        <ele>1481</ele>
        <time>2021-06-26T07:52:16Z</time>
      </trkpt>
      <trkpt lat="46.14415" lon="6.5895">
        <ele>1481.2</ele>
        <time>2021-06-26T07:52:17Z</time>
      </trkpt>
      <trkpt lat="46.14414" lon="6.58955">
        <ele>1481.4</ele>
        <time>2021-06-26T07:52:18Z</time>
      </trkpt>
      <trkpt lat="46.14413" lon="6.58959">
        <ele>1481.4</ele>
        <time>2021-06-26T07:52:19Z</time>
      </trkpt>
      <trkpt lat="46.14413" lon="6.58964">
        <ele>1481.4</ele>
        <time>2021-06-26T07:52:20Z</time>
      </trkpt>
      <trkpt lat="46.14414" lon="6.58969">
        <ele>1481.8</ele>
        <time>2021-06-26T07:52:21Z</time>
      </trkpt>
      <trkpt lat="46.14414" lon="6.58975">
        <ele>1482.4</ele>
        <time>2021-06-26T07:52:22Z</time>
      </trkpt>
      <trkpt lat="46.14414" lon="6.5898">
        <ele>1482.6</ele>
        <time>2021-06-26T07:52:23Z</time>
      </trkpt>
      <trkpt lat="46.14415" lon="6.58986">
        <ele>1482.8</ele>
        <time>2021-06-26T07:52:24Z</time>
      </trkpt>
      <trkpt lat="46.14415" lon="6.58991">
        <ele>1483</ele>
        <time>2021-06-26T07:52:25Z</time>
      </trkpt>
      <trkpt lat="46.14415" lon="6.58997">
        <ele>1483.4</ele>
        <time>2021-06-26T07:52:26Z</time>
      </trkpt>
      <trkpt lat="46.14416" lon="6.59003">
        <ele>1483.6</ele>
        <time>2021-06-26T07:52:27Z</time>
      </trkpt>
      <trkpt lat="46.14416" lon="6.59009">
        <ele>1483.8</ele>
        <time>2021-06-26T07:52:28Z</time>
      </trkpt>
      <trkpt lat="46.14417" lon="6.59015">
        <ele>1484</ele>
        <time>2021-06-26T07:52:29Z</time>
      </trkpt>
      <trkpt lat="46.14417" lon="6.59021">
        <ele>1484.2</ele>
        <time>2021-06-26T07:52:30Z</time>
      </trkpt>
      <trkpt lat="46.14417" lon="6.59027">
        <ele>1484.2</ele>
        <time>2021-06-26T07:52:31Z</time>
      </trkpt>
      <trkpt lat="46.14418" lon="6.59033">
        <ele>1484.4</ele>
        <time>2021-06-26T07:52:32Z</time>
      </trkpt>
      <trkpt lat="46.14418" lon="6.5904">
        <ele>1484.4</ele>
        <time>2021-06-26T07:52:33Z</time>
      </trkpt>
      <trkpt lat="46.14418" lon="6.59046">
        <ele>1484.4</ele>
        <time>2021-06-26T07:52:34Z</time>
      </trkpt>
      <trkpt lat="46.14418" lon="6.59053">
        <ele>1484.6</ele>
        <time>2021-06-26T07:52:35Z</time>
      </trkpt>
      <trkpt lat="46.14418" lon="6.59061">
        <ele>1484.4</ele>
        <time>2021-06-26T07:52:36Z</time>
      </trkpt>
      <trkpt lat="46.14418" lon="6.59069">
        <ele>1484.4</ele>
        <time>2021-06-26T07:52:37Z</time>
      </trkpt>
      <trkpt lat="46.14419" lon="6.59077">
        <ele>1484.4</ele>
        <time>2021-06-26T07:52:38Z</time>
      </trkpt>
      <trkpt lat="46.14419" lon="6.59086">
        <ele>1484.4</ele>
        <time>2021-06-26T07:52:39Z</time>
      </trkpt>
      <trkpt lat="46.1442" lon="6.59106">
        <ele>1484.4</ele>
        <time>2021-06-26T07:52:41Z</time>
      </trkpt>
      <trkpt lat="46.14421" lon="6.5913">
        <ele>1484.4</ele>
        <time>2021-06-26T07:52:43Z</time>
      </trkpt>
      <trkpt lat="46.14422" lon="6.59142">
        <ele>1484.4</ele>
        <time>2021-06-26T07:52:44Z</time>
      </trkpt>
      <trkpt lat="46.14426" lon="6.59167">
        <ele>1483</ele>
        <time>2021-06-26T07:52:46Z</time>
      </trkpt>
      <trkpt lat="46.14431" lon="6.59192">
        <ele>1481.8</ele>
        <time>2021-06-26T07:52:48Z</time>
      </trkpt>
      <trkpt lat="46.14442" lon="6.59226">
        <ele>1479.4</ele>
        <time>2021-06-26T07:52:51Z</time>
      </trkpt>
      <trkpt lat="46.14446" lon="6.59238">
        <ele>1478.6</ele>
        <time>2021-06-26T07:52:52Z</time>
      </trkpt>
      <trkpt lat="46.14451" lon="6.5925">
        <ele>1477.8</ele>
        <time>2021-06-26T07:52:53Z</time>
      </trkpt>
      <trkpt lat="46.14461" lon="6.59274">
        <ele>1476.6</ele>
        <time>2021-06-26T07:52:55Z</time>
      </trkpt>
      <trkpt lat="46.14472" lon="6.59299">
        <ele>1475.2</ele>
        <time>2021-06-26T07:52:57Z</time>
      </trkpt>
      <trkpt lat="46.14477" lon="6.59313">
        <ele>1474.8</ele>
        <time>2021-06-26T07:52:58Z</time>
      </trkpt>
      <trkpt lat="46.14482" lon="6.59326">
        <ele>1474.2</ele>
        <time>2021-06-26T07:52:59Z</time>
      </trkpt>
      <trkpt lat="46.14487" lon="6.59339">
        <ele>1473.6</ele>
        <time>2021-06-26T07:53:00Z</time>
      </trkpt>
      <trkpt lat="46.14493" lon="6.59353">
        <ele>1472.6</ele>
        <time>2021-06-26T07:53:01Z</time>
      </trkpt>
      <trkpt lat="46.14498" lon="6.59367">
        <ele>1471.6</ele>
        <time>2021-06-26T07:53:02Z</time>
      </trkpt>
      <trkpt lat="46.14504" lon="6.59382">
        <ele>1470.4</ele>
        <time>2021-06-26T07:53:03Z</time>
      </trkpt>
      <trkpt lat="46.14523" lon="6.59426">
        <ele>1468.4</ele>
        <time>2021-06-26T07:53:06Z</time>
      </trkpt>
      <trkpt lat="46.14528" lon="6.59441">
        <ele>1467.2</ele>
        <time>2021-06-26T07:53:07Z</time>
      </trkpt>
      <trkpt lat="46.14533" lon="6.59454">
        <ele>1466.2</ele>
        <time>2021-06-26T07:53:08Z</time>
      </trkpt>
      <trkpt lat="46.14537" lon="6.59466">
        <ele>1464.8</ele>
        <time>2021-06-26T07:53:09Z</time>
      </trkpt>
      <trkpt lat="46.14539" lon="6.59477">
        <ele>1463.2</ele>
        <time>2021-06-26T07:53:10Z</time>
      </trkpt>
      <trkpt lat="46.1454" lon="6.59488">
        <ele>1461.6</ele>
        <time>2021-06-26T07:53:11Z</time>
      </trkpt>
      <trkpt lat="46.14537" lon="6.59496">
        <ele>1460.2</ele>
        <time>2021-06-26T07:53:12Z</time>
      </trkpt>
      <trkpt lat="46.14533" lon="6.59505">
        <ele>1459</ele>
        <time>2021-06-26T07:53:13Z</time>
      </trkpt>
      <trkpt lat="46.14529" lon="6.59514">
        <ele>1458</ele>
        <time>2021-06-26T07:53:14Z</time>
      </trkpt>
      <trkpt lat="46.14524" lon="6.59522">
        <ele>1456.2</ele>
        <time>2021-06-26T07:53:15Z</time>
      </trkpt>
      <trkpt lat="46.14519" lon="6.5953">
        <ele>1455</ele>
        <time>2021-06-26T07:53:16Z</time>
      </trkpt>
      <trkpt lat="46.14511" lon="6.59547">
        <ele>1453.8</ele>
        <time>2021-06-26T07:53:18Z</time>
      </trkpt>
      <trkpt lat="46.14508" lon="6.59555">
        <ele>1453.4</ele>
        <time>2021-06-26T07:53:19Z</time>
      </trkpt>
      <trkpt lat="46.14505" lon="6.59564">
        <ele>1453</ele>
        <time>2021-06-26T07:53:20Z</time>
      </trkpt>
      <trkpt lat="46.14502" lon="6.59573">
        <ele>1452.8</ele>
        <time>2021-06-26T07:53:21Z</time>
      </trkpt>
      <trkpt lat="46.14496" lon="6.59593">
        <ele>1452.4</ele>
        <time>2021-06-26T07:53:23Z</time>
      </trkpt>
      <trkpt lat="46.14492" lon="6.59616">
        <ele>1452</ele>
        <time>2021-06-26T07:53:25Z</time>
      </trkpt>
      <trkpt lat="46.14489" lon="6.59627">
        <ele>1451.8</ele>
        <time>2021-06-26T07:53:26Z</time>
      </trkpt>
      <trkpt lat="46.14485" lon="6.59637">
        <ele>1451.4</ele>
        <time>2021-06-26T07:53:27Z</time>
      </trkpt>
      <trkpt lat="46.14478" lon="6.59645">
        <ele>1451.4</ele>
        <time>2021-06-26T07:53:28Z</time>
      </trkpt>
      <trkpt lat="46.1447" lon="6.59652">
        <ele>1451.4</ele>
        <time>2021-06-26T07:53:29Z</time>
      </trkpt>
      <trkpt lat="46.14461" lon="6.59657">
        <ele>1450.8</ele>
        <time>2021-06-26T07:53:30Z</time>
      </trkpt>
      <trkpt lat="46.14451" lon="6.5966">
        <ele>1450.2</ele>
        <time>2021-06-26T07:53:31Z</time>
      </trkpt>
      <trkpt lat="46.14442" lon="6.59664">
        <ele>1449.4</ele>
        <time>2021-06-26T07:53:32Z</time>
      </trkpt>
      <trkpt lat="46.14433" lon="6.59667">
        <ele>1449</ele>
        <time>2021-06-26T07:53:33Z</time>
      </trkpt>
      <trkpt lat="46.14423" lon="6.5967">
        <ele>1448.2</ele>
        <time>2021-06-26T07:53:34Z</time>
      </trkpt>
      <trkpt lat="46.14404" lon="6.59678">
        <ele>1446.8</ele>
        <time>2021-06-26T07:53:36Z</time>
      </trkpt>
      <trkpt lat="46.14368" lon="6.59698">
        <ele>1443</ele>
        <time>2021-06-26T07:53:40Z</time>
      </trkpt>
      <trkpt lat="46.14359" lon="6.59705">
        <ele>1442.2</ele>
        <time>2021-06-26T07:53:41Z</time>
      </trkpt>
      <trkpt lat="46.14343" lon="6.59721">
        <ele>1441.2</ele>
        <time>2021-06-26T07:53:43Z</time>
      </trkpt>
      <trkpt lat="46.14326" lon="6.59737">
        <ele>1439.6</ele>
        <time>2021-06-26T07:53:45Z</time>
      </trkpt>
      <trkpt lat="46.14318" lon="6.59745">
        <ele>1439</ele>
        <time>2021-06-26T07:53:46Z</time>
      </trkpt>
      <trkpt lat="46.1431" lon="6.59753">
        <ele>1438.6</ele>
        <time>2021-06-26T07:53:47Z</time>
      </trkpt>
      <trkpt lat="46.14303" lon="6.59761">
        <ele>1438.4</ele>
        <time>2021-06-26T07:53:48Z</time>
      </trkpt>
      <trkpt lat="46.14296" lon="6.59769">
        <ele>1438.2</ele>
        <time>2021-06-26T07:53:49Z</time>
      </trkpt>
      <trkpt lat="46.14291" lon="6.5978">
        <ele>1437.4</ele>
        <time>2021-06-26T07:53:50Z</time>
      </trkpt>
      <trkpt lat="46.14289" lon="6.59792">
        <ele>1436.8</ele>
        <time>2021-06-26T07:53:51Z</time>
      </trkpt>
      <trkpt lat="46.14289" lon="6.59807">
        <ele>1436.8</ele>
        <time>2021-06-26T07:53:52Z</time>
      </trkpt>
      <trkpt lat="46.14292" lon="6.59836">
        <ele>1435.8</ele>
        <time>2021-06-26T07:53:54Z</time>
      </trkpt>
      <trkpt lat="46.14294" lon="6.59851">
        <ele>1435.4</ele>
        <time>2021-06-26T07:53:55Z</time>
      </trkpt>
      <trkpt lat="46.14296" lon="6.59866">
        <ele>1434.2</ele>
        <time>2021-06-26T07:53:56Z</time>
      </trkpt>
      <trkpt lat="46.14297" lon="6.59881">
        <ele>1433.8</ele>
        <time>2021-06-26T07:53:57Z</time>
      </trkpt>
      <trkpt lat="46.14299" lon="6.59896">
        <ele>1433.4</ele>
        <time>2021-06-26T07:53:58Z</time>
      </trkpt>
      <trkpt lat="46.14302" lon="6.59927">
        <ele>1432.4</ele>
        <time>2021-06-26T07:54:00Z</time>
      </trkpt>
      <trkpt lat="46.14305" lon="6.59959">
        <ele>1431</ele>
        <time>2021-06-26T07:54:02Z</time>
      </trkpt>
      <trkpt lat="46.14308" lon="6.60007">
        <ele>1428.6</ele>
        <time>2021-06-26T07:54:05Z</time>
      </trkpt>
      <trkpt lat="46.14311" lon="6.60055">
        <ele>1426.2</ele>
        <time>2021-06-26T07:54:08Z</time>
      </trkpt>
      <trkpt lat="46.14314" lon="6.60101">
        <ele>1423.2</ele>
        <time>2021-06-26T07:54:11Z</time>
      </trkpt>
      <trkpt lat="46.14314" lon="6.60117">
        <ele>1423</ele>
        <time>2021-06-26T07:54:12Z</time>
      </trkpt>
      <trkpt lat="46.14314" lon="6.60148">
        <ele>1421.6</ele>
        <time>2021-06-26T07:54:14Z</time>
      </trkpt>
      <trkpt lat="46.14313" lon="6.60195">
        <ele>1420.6</ele>
        <time>2021-06-26T07:54:17Z</time>
      </trkpt>
      <trkpt lat="46.14312" lon="6.6021">
        <ele>1419.8</ele>
        <time>2021-06-26T07:54:18Z</time>
      </trkpt>
      <trkpt lat="46.14311" lon="6.60225">
        <ele>1419.4</ele>
        <time>2021-06-26T07:54:19Z</time>
      </trkpt>
      <trkpt lat="46.14311" lon="6.60239">
        <ele>1419</ele>
        <time>2021-06-26T07:54:20Z</time>
      </trkpt>
      <trkpt lat="46.1431" lon="6.60253">
        <ele>1418.2</ele>
        <time>2021-06-26T07:54:21Z</time>
      </trkpt>
      <trkpt lat="46.14309" lon="6.60267">
        <ele>1417.2</ele>
        <time>2021-06-26T07:54:22Z</time>
      </trkpt>
      <trkpt lat="46.14308" lon="6.60282">
        <ele>1416.4</ele>
        <time>2021-06-26T07:54:23Z</time>
      </trkpt>
      <trkpt lat="46.14306" lon="6.60295">
        <ele>1415.6</ele>
        <time>2021-06-26T07:54:24Z</time>
      </trkpt>
      <trkpt lat="46.14301" lon="6.60306">
        <ele>1415</ele>
        <time>2021-06-26T07:54:25Z</time>
      </trkpt>
      <trkpt lat="46.14295" lon="6.60315">
        <ele>1414.6</ele>
        <time>2021-06-26T07:54:26Z</time>
      </trkpt>
      <trkpt lat="46.14288" lon="6.60324">
        <ele>1414.6</ele>
        <time>2021-06-26T07:54:27Z</time>
      </trkpt>
      <trkpt lat="46.14281" lon="6.60331">
        <ele>1414.4</ele>
        <time>2021-06-26T07:54:28Z</time>
      </trkpt>
      <trkpt lat="46.14275" lon="6.60338">
        <ele>1414.4</ele>
        <time>2021-06-26T07:54:29Z</time>
      </trkpt>
      <trkpt lat="46.14269" lon="6.60344">
        <ele>1414.4</ele>
        <time>2021-06-26T07:54:30Z</time>
      </trkpt>
      <trkpt lat="46.14263" lon="6.6035">
        <ele>1414.4</ele>
        <time>2021-06-26T07:54:31Z</time>
      </trkpt>
      <trkpt lat="46.14257" lon="6.60356">
        <ele>1414.4</ele>
        <time>2021-06-26T07:54:32Z</time>
      </trkpt>
      <trkpt lat="46.14252" lon="6.60362">
        <ele>1414.4</ele>
        <time>2021-06-26T07:54:33Z</time>
      </trkpt>
      <trkpt lat="46.14246" lon="6.60367">
        <ele>1414.4</ele>
        <time>2021-06-26T07:54:34Z</time>
      </trkpt>
      <trkpt lat="46.14241" lon="6.60372">
        <ele>1414.4</ele>
        <time>2021-06-26T07:54:35Z</time>
      </trkpt>
      <trkpt lat="46.14236" lon="6.60377">
        <ele>1414.4</ele>
        <time>2021-06-26T07:54:36Z</time>
      </trkpt>
      <trkpt lat="46.14231" lon="6.60382">
        <ele>1414.4</ele>
        <time>2021-06-26T07:54:37Z</time>
      </trkpt>
      <trkpt lat="46.14226" lon="6.60387">
        <ele>1414.8</ele>
        <time>2021-06-26T07:54:38Z</time>
      </trkpt>
      <trkpt lat="46.14202" lon="6.60412">
        <ele>1415.4</ele>
        <time>2021-06-26T07:54:42Z</time>
      </trkpt>
      <trkpt lat="46.14196" lon="6.60418">
        <ele>1415.6</ele>
        <time>2021-06-26T07:54:43Z</time>
      </trkpt>
      <trkpt lat="46.14168" lon="6.60451">
        <ele>1415.6</ele>
        <time>2021-06-26T07:54:48Z</time>
      </trkpt>
      <trkpt lat="46.14162" lon="6.6046">
        <ele>1415.6</ele>
        <time>2021-06-26T07:54:49Z</time>
      </trkpt>
      <trkpt lat="46.14153" lon="6.60478">
        <ele>1415.6</ele>
        <time>2021-06-26T07:54:51Z</time>
      </trkpt>
      <trkpt lat="46.14142" lon="6.60509">
        <ele>1415</ele>
        <time>2021-06-26T07:54:54Z</time>
      </trkpt>
      <trkpt lat="46.14138" lon="6.60519">
        <ele>1414.6</ele>
        <time>2021-06-26T07:54:55Z</time>
      </trkpt>
      <trkpt lat="46.14111" lon="6.60591">
        <ele>1412.6</ele>
        <time>2021-06-26T07:55:02Z</time>
      </trkpt>
      <trkpt lat="46.14107" lon="6.60601">
        <ele>1412.2</ele>
        <time>2021-06-26T07:55:03Z</time>
      </trkpt>
      <trkpt lat="46.14093" lon="6.60628">
        <ele>1411</ele>
        <time>2021-06-26T07:55:06Z</time>
      </trkpt>
      <trkpt lat="46.14079" lon="6.60657">
        <ele>1410.6</ele>
        <time>2021-06-26T07:55:09Z</time>
      </trkpt>
      <trkpt lat="46.14075" lon="6.60667">
        <ele>1410.6</ele>
        <time>2021-06-26T07:55:10Z</time>
      </trkpt>
      <trkpt lat="46.14066" lon="6.60687">
        <ele>1410.4</ele>
        <time>2021-06-26T07:55:12Z</time>
      </trkpt>
      <trkpt lat="46.1406" lon="6.60711">
        <ele>1410.2</ele>
        <time>2021-06-26T07:55:14Z</time>
      </trkpt>
      <trkpt lat="46.14059" lon="6.60725">
        <ele>1410.2</ele>
        <time>2021-06-26T07:55:15Z</time>
      </trkpt>
      <trkpt lat="46.14059" lon="6.60738">
        <ele>1410</ele>
        <time>2021-06-26T07:55:16Z</time>
      </trkpt>
      <trkpt lat="46.1406" lon="6.60752">
        <ele>1409.8</ele>
        <time>2021-06-26T07:55:17Z</time>
      </trkpt>
      <trkpt lat="46.14065" lon="6.60765">
        <ele>1409.6</ele>
        <time>2021-06-26T07:55:18Z</time>
      </trkpt>
      <trkpt lat="46.14071" lon="6.60778">
        <ele>1409.2</ele>
        <time>2021-06-26T07:55:19Z</time>
      </trkpt>
      <trkpt lat="46.14079" lon="6.60789">
        <ele>1408.6</ele>
        <time>2021-06-26T07:55:20Z</time>
      </trkpt>
      <trkpt lat="46.14088" lon="6.60797">
        <ele>1408</ele>
        <time>2021-06-26T07:55:21Z</time>
      </trkpt>
      <trkpt lat="46.14099" lon="6.60804">
        <ele>1407.2</ele>
        <time>2021-06-26T07:55:22Z</time>
      </trkpt>
      <trkpt lat="46.14109" lon="6.60809">
        <ele>1406.2</ele>
        <time>2021-06-26T07:55:23Z</time>
      </trkpt>
      <trkpt lat="46.14121" lon="6.60809">
        <ele>1406.2</ele>
        <time>2021-06-26T07:55:24Z</time>
      </trkpt>
      <trkpt lat="46.14133" lon="6.6081">
        <ele>1405</ele>
        <time>2021-06-26T07:55:25Z</time>
      </trkpt>
      <trkpt lat="46.14146" lon="6.6081">
        <ele>1403.8</ele>
        <time>2021-06-26T07:55:26Z</time>
      </trkpt>
      <trkpt lat="46.14158" lon="6.60809">
        <ele>1402.4</ele>
        <time>2021-06-26T07:55:27Z</time>
      </trkpt>
      <trkpt lat="46.14172" lon="6.6081">
        <ele>1401.2</ele>
        <time>2021-06-26T07:55:28Z</time>
      </trkpt>
      <trkpt lat="46.14184" lon="6.60812">
        <ele>1399.6</ele>
        <time>2021-06-26T07:55:29Z</time>
      </trkpt>
      <trkpt lat="46.14198" lon="6.60815">
        <ele>1398.2</ele>
        <time>2021-06-26T07:55:30Z</time>
      </trkpt>
      <trkpt lat="46.14211" lon="6.60818">
        <ele>1396.8</ele>
        <time>2021-06-26T07:55:31Z</time>
      </trkpt>
      <trkpt lat="46.14226" lon="6.6082">
        <ele>1395.4</ele>
        <time>2021-06-26T07:55:32Z</time>
      </trkpt>
      <trkpt lat="46.1424" lon="6.6082">
        <ele>1394</ele>
        <time>2021-06-26T07:55:33Z</time>
      </trkpt>
      <trkpt lat="46.14253" lon="6.6082">
        <ele>1392.6</ele>
        <time>2021-06-26T07:55:34Z</time>
      </trkpt>
      <trkpt lat="46.14267" lon="6.6082">
        <ele>1391.2</ele>
        <time>2021-06-26T07:55:35Z</time>
      </trkpt>
      <trkpt lat="46.14279" lon="6.60819">
        <ele>1390</ele>
        <time>2021-06-26T07:55:36Z</time>
      </trkpt>
      <trkpt lat="46.14291" lon="6.60818">
        <ele>1388.6</ele>
        <time>2021-06-26T07:55:37Z</time>
      </trkpt>
      <trkpt lat="46.14301" lon="6.60816">
        <ele>1387</ele>
        <time>2021-06-26T07:55:38Z</time>
      </trkpt>
      <trkpt lat="46.14311" lon="6.60814">
        <ele>1385.6</ele>
        <time>2021-06-26T07:55:39Z</time>
      </trkpt>
      <trkpt lat="46.1432" lon="6.60811">
        <ele>1383.8</ele>
        <time>2021-06-26T07:55:40Z</time>
      </trkpt>
      <trkpt lat="46.14327" lon="6.60809">
        <ele>1382.4</ele>
        <time>2021-06-26T07:55:41Z</time>
      </trkpt>
      <trkpt lat="46.14333" lon="6.60809">
        <ele>1381</ele>
        <time>2021-06-26T07:55:42Z</time>
      </trkpt>
      <trkpt lat="46.14337" lon="6.60812">
        <ele>1380</ele>
        <time>2021-06-26T07:55:43Z</time>
      </trkpt>
      <trkpt lat="46.14339" lon="6.60818">
        <ele>1378.8</ele>
        <time>2021-06-26T07:55:44Z</time>
      </trkpt>
      <trkpt lat="46.14338" lon="6.60826">
        <ele>1377.6</ele>
        <time>2021-06-26T07:55:45Z</time>
      </trkpt>
      <trkpt lat="46.14334" lon="6.60831">
        <ele>1377</ele>
        <time>2021-06-26T07:55:46Z</time>
      </trkpt>
      <trkpt lat="46.14328" lon="6.60836">
        <ele>1377</ele>
        <time>2021-06-26T07:55:47Z</time>
      </trkpt>
      <trkpt lat="46.1432" lon="6.6084">
        <ele>1376.2</ele>
        <time>2021-06-26T07:55:48Z</time>
      </trkpt>
      <trkpt lat="46.14312" lon="6.60844">
        <ele>1375.8</ele>
        <time>2021-06-26T07:55:49Z</time>
      </trkpt>
      <trkpt lat="46.14304" lon="6.60847">
        <ele>1375.6</ele>
        <time>2021-06-26T07:55:50Z</time>
      </trkpt>
      <trkpt lat="46.14294" lon="6.60851">
        <ele>1375.2</ele>
        <time>2021-06-26T07:55:51Z</time>
      </trkpt>
      <trkpt lat="46.14284" lon="6.60855">
        <ele>1374.8</ele>
        <time>2021-06-26T07:55:52Z</time>
      </trkpt>
      <trkpt lat="46.14274" lon="6.60858">
        <ele>1374.2</ele>
        <time>2021-06-26T07:55:53Z</time>
      </trkpt>
      <trkpt lat="46.14264" lon="6.60862">
        <ele>1373.6</ele>
        <time>2021-06-26T07:55:54Z</time>
      </trkpt>
      <trkpt lat="46.14252" lon="6.60864">
        <ele>1373</ele>
        <time>2021-06-26T07:55:55Z</time>
      </trkpt>
      <trkpt lat="46.1424" lon="6.60867">
        <ele>1372.2</ele>
        <time>2021-06-26T07:55:56Z</time>
      </trkpt>
      <trkpt lat="46.14228" lon="6.60871">
        <ele>1371.2</ele>
        <time>2021-06-26T07:55:57Z</time>
      </trkpt>
      <trkpt lat="46.14215" lon="6.60874">
        <ele>1370.2</ele>
        <time>2021-06-26T07:55:58Z</time>
      </trkpt>
      <trkpt lat="46.14202" lon="6.60877">
        <ele>1369</ele>
        <time>2021-06-26T07:55:59Z</time>
      </trkpt>
      <trkpt lat="46.14189" lon="6.6088">
        <ele>1367.8</ele>
        <time>2021-06-26T07:56:00Z</time>
      </trkpt>
      <trkpt lat="46.14176" lon="6.60883">
        <ele>1366.2</ele>
        <time>2021-06-26T07:56:01Z</time>
      </trkpt>
      <trkpt lat="46.14163" lon="6.60887">
        <ele>1364.6</ele>
        <time>2021-06-26T07:56:02Z</time>
      </trkpt>
      <trkpt lat="46.1415" lon="6.60893">
        <ele>1363.2</ele>
        <time>2021-06-26T07:56:03Z</time>
      </trkpt>
      <trkpt lat="46.14138" lon="6.60902">
        <ele>1361.4</ele>
        <time>2021-06-26T07:56:04Z</time>
      </trkpt>
      <trkpt lat="46.14128" lon="6.60913">
        <ele>1359.6</ele>
        <time>2021-06-26T07:56:05Z</time>
      </trkpt>
      <trkpt lat="46.14118" lon="6.60923">
        <ele>1358.2</ele>
        <time>2021-06-26T07:56:06Z</time>
      </trkpt>
      <trkpt lat="46.14109" lon="6.60932">
        <ele>1356.2</ele>
        <time>2021-06-26T07:56:07Z</time>
      </trkpt>
      <trkpt lat="46.14098" lon="6.6094">
        <ele>1354.6</ele>
        <time>2021-06-26T07:56:08Z</time>
      </trkpt>
      <trkpt lat="46.14086" lon="6.60945">
        <ele>1352.8</ele>
        <time>2021-06-26T07:56:09Z</time>
      </trkpt>
      <trkpt lat="46.14074" lon="6.6095">
        <ele>1352.8</ele>
        <time>2021-06-26T07:56:10Z</time>
      </trkpt>
      <trkpt lat="46.14061" lon="6.60954">
        <ele>1351.4</ele>
        <time>2021-06-26T07:56:11Z</time>
      </trkpt>
      <trkpt lat="46.14048" lon="6.60959">
        <ele>1350</ele>
        <time>2021-06-26T07:56:12Z</time>
      </trkpt>
      <trkpt lat="46.14036" lon="6.60962">
        <ele>1348.2</ele>
        <time>2021-06-26T07:56:13Z</time>
      </trkpt>
      <trkpt lat="46.14025" lon="6.60966">
        <ele>1346.8</ele>
        <time>2021-06-26T07:56:14Z</time>
      </trkpt>
      <trkpt lat="46.14016" lon="6.6097">
        <ele>1345.2</ele>
        <time>2021-06-26T07:56:15Z</time>
      </trkpt>
      <trkpt lat="46.14008" lon="6.60973">
        <ele>1344</ele>
        <time>2021-06-26T07:56:16Z</time>
      </trkpt>
      <trkpt lat="46.14002" lon="6.60977">
        <ele>1342.6</ele>
        <time>2021-06-26T07:56:17Z</time>
      </trkpt>
      <trkpt lat="46.13997" lon="6.60981">
        <ele>1341</ele>
        <time>2021-06-26T07:56:18Z</time>
      </trkpt>
      <trkpt lat="46.13998" lon="6.60994">
        <ele>1339.2</ele>
        <time>2021-06-26T07:56:19Z</time>
      </trkpt>
      <trkpt lat="46.14001" lon="6.61003">
        <ele>1337.4</ele>
        <time>2021-06-26T07:56:20Z</time>
      </trkpt>
      <trkpt lat="46.14004" lon="6.6101">
        <ele>1335.4</ele>
        <time>2021-06-26T07:56:21Z</time>
      </trkpt>
      <trkpt lat="46.14011" lon="6.61012">
        <ele>1334.6</ele>
        <time>2021-06-26T07:56:22Z</time>
      </trkpt>
      <trkpt lat="46.1402" lon="6.61014">
        <ele>1334.2</ele>
        <time>2021-06-26T07:56:23Z</time>
      </trkpt>
      <trkpt lat="46.14027" lon="6.61015">
        <ele>1333.8</ele>
        <time>2021-06-26T07:56:24Z</time>
      </trkpt>
      <trkpt lat="46.14037" lon="6.61015">
        <ele>1333.4</ele>
        <time>2021-06-26T07:56:25Z</time>
      </trkpt>
      <trkpt lat="46.14046" lon="6.61014">
        <ele>1333.4</ele>
        <time>2021-06-26T07:56:26Z</time>
      </trkpt>
      <trkpt lat="46.14056" lon="6.61013">
        <ele>1333.2</ele>
        <time>2021-06-26T07:56:27Z</time>
      </trkpt>
      <trkpt lat="46.14065" lon="6.61011">
        <ele>1333</ele>
        <time>2021-06-26T07:56:28Z</time>
      </trkpt>
      <trkpt lat="46.14076" lon="6.61009">
        <ele>1332.6</ele>
        <time>2021-06-26T07:56:29Z</time>
      </trkpt>
      <trkpt lat="46.14087" lon="6.6101">
        <ele>1332</ele>
        <time>2021-06-26T07:56:30Z</time>
      </trkpt>
      <trkpt lat="46.14098" lon="6.61012">
        <ele>1331.2</ele>
        <time>2021-06-26T07:56:31Z</time>
      </trkpt>
      <trkpt lat="46.14123" lon="6.61013">
        <ele>1330.8</ele>
        <time>2021-06-26T07:56:33Z</time>
      </trkpt>
      <trkpt lat="46.14135" lon="6.61013">
        <ele>1329.8</ele>
        <time>2021-06-26T07:56:34Z</time>
      </trkpt>
      <trkpt lat="46.14148" lon="6.61013">
        <ele>1328.6</ele>
        <time>2021-06-26T07:56:35Z</time>
      </trkpt>
      <trkpt lat="46.14161" lon="6.61014">
        <ele>1327</ele>
        <time>2021-06-26T07:56:36Z</time>
      </trkpt>
      <trkpt lat="46.14175" lon="6.61015">
        <ele>1325.4</ele>
        <time>2021-06-26T07:56:37Z</time>
      </trkpt>
      <trkpt lat="46.1419" lon="6.61017">
        <ele>1323.6</ele>
        <time>2021-06-26T07:56:38Z</time>
      </trkpt>
      <trkpt lat="46.14204" lon="6.61019">
        <ele>1321.6</ele>
        <time>2021-06-26T07:56:39Z</time>
      </trkpt>
      <trkpt lat="46.14217" lon="6.6102">
        <ele>1320.2</ele>
        <time>2021-06-26T07:56:40Z</time>
      </trkpt>
      <trkpt lat="46.1423" lon="6.61021">
        <ele>1319</ele>
        <time>2021-06-26T07:56:41Z</time>
      </trkpt>
      <trkpt lat="46.14243" lon="6.61024">
        <ele>1317.2</ele>
        <time>2021-06-26T07:56:42Z</time>
      </trkpt>
      <trkpt lat="46.14255" lon="6.61027">
        <ele>1315.4</ele>
        <time>2021-06-26T07:56:43Z</time>
      </trkpt>
      <trkpt lat="46.14267" lon="6.61031">
        <ele>1313.4</ele>
        <time>2021-06-26T07:56:44Z</time>
      </trkpt>
      <trkpt lat="46.14279" lon="6.61033">
        <ele>1311.4</ele>
        <time>2021-06-26T07:56:45Z</time>
      </trkpt>
      <trkpt lat="46.14292" lon="6.61033">
        <ele>1309.6</ele>
        <time>2021-06-26T07:56:46Z</time>
      </trkpt>
      <trkpt lat="46.14305" lon="6.6103">
        <ele>1308</ele>
        <time>2021-06-26T07:56:47Z</time>
      </trkpt>
      <trkpt lat="46.14318" lon="6.61026">
        <ele>1306.8</ele>
        <time>2021-06-26T07:56:48Z</time>
      </trkpt>
      <trkpt lat="46.1433" lon="6.61023">
        <ele>1305.6</ele>
        <time>2021-06-26T07:56:49Z</time>
      </trkpt>
      <trkpt lat="46.14342" lon="6.61021">
        <ele>1304</ele>
        <time>2021-06-26T07:56:50Z</time>
      </trkpt>
      <trkpt lat="46.14354" lon="6.6102">
        <ele>1303</ele>
        <time>2021-06-26T07:56:51Z</time>
      </trkpt>
      <trkpt lat="46.14367" lon="6.61019">
        <ele>1301.6</ele>
        <time>2021-06-26T07:56:52Z</time>
      </trkpt>
      <trkpt lat="46.14378" lon="6.6102">
        <ele>1300.4</ele>
        <time>2021-06-26T07:56:53Z</time>
      </trkpt>
      <trkpt lat="46.14387" lon="6.61022">
        <ele>1298.6</ele>
        <time>2021-06-26T07:56:54Z</time>
      </trkpt>
      <trkpt lat="46.14395" lon="6.61023">
        <ele>1296.8</ele>
        <time>2021-06-26T07:56:55Z</time>
      </trkpt>
      <trkpt lat="46.14402" lon="6.61026">
        <ele>1296.8</ele>
        <time>2021-06-26T07:56:56Z</time>
      </trkpt>
      <trkpt lat="46.14406" lon="6.61029">
        <ele>1295.2</ele>
        <time>2021-06-26T07:56:57Z</time>
      </trkpt>
      <trkpt lat="46.14406" lon="6.61034">
        <ele>1293.8</ele>
        <time>2021-06-26T07:56:58Z</time>
      </trkpt>
      <trkpt lat="46.14404" lon="6.61039">
        <ele>1292.2</ele>
        <time>2021-06-26T07:56:59Z</time>
      </trkpt>
      <trkpt lat="46.14399" lon="6.61043">
        <ele>1290.6</ele>
        <time>2021-06-26T07:57:00Z</time>
      </trkpt>
      <trkpt lat="46.14393" lon="6.61045">
        <ele>1289.6</ele>
        <time>2021-06-26T07:57:01Z</time>
      </trkpt>
      <trkpt lat="46.14387" lon="6.61045">
        <ele>1288.6</ele>
        <time>2021-06-26T07:57:02Z</time>
      </trkpt>
      <trkpt lat="46.1438" lon="6.61044">
        <ele>1287.8</ele>
        <time>2021-06-26T07:57:03Z</time>
      </trkpt>
      <trkpt lat="46.14364" lon="6.61043">
        <ele>1286.8</ele>
        <time>2021-06-26T07:57:05Z</time>
      </trkpt>
      <trkpt lat="46.14356" lon="6.61044">
        <ele>1286.6</ele>
        <time>2021-06-26T07:57:06Z</time>
      </trkpt>
      <trkpt lat="46.14347" lon="6.61046">
        <ele>1286.4</ele>
        <time>2021-06-26T07:57:07Z</time>
      </trkpt>
      <trkpt lat="46.14338" lon="6.6105">
        <ele>1285.6</ele>
        <time>2021-06-26T07:57:08Z</time>
      </trkpt>
      <trkpt lat="46.14329" lon="6.61055">
        <ele>1284.8</ele>
        <time>2021-06-26T07:57:09Z</time>
      </trkpt>
      <trkpt lat="46.14319" lon="6.6106">
        <ele>1284.4</ele>
        <time>2021-06-26T07:57:10Z</time>
      </trkpt>
      <trkpt lat="46.14308" lon="6.61066">
        <ele>1284.2</ele>
        <time>2021-06-26T07:57:11Z</time>
      </trkpt>
      <trkpt lat="46.14297" lon="6.61073">
        <ele>1283.6</ele>
        <time>2021-06-26T07:57:12Z</time>
      </trkpt>
      <trkpt lat="46.14287" lon="6.61079">
        <ele>1283</ele>
        <time>2021-06-26T07:57:13Z</time>
      </trkpt>
      <trkpt lat="46.14277" lon="6.61085">
        <ele>1282</ele>
        <time>2021-06-26T07:57:14Z</time>
      </trkpt>
      <trkpt lat="46.14267" lon="6.61091">
        <ele>1280.8</ele>
        <time>2021-06-26T07:57:15Z</time>
      </trkpt>
      <trkpt lat="46.14256" lon="6.61097">
        <ele>1279.4</ele>
        <time>2021-06-26T07:57:16Z</time>
      </trkpt>
      <trkpt lat="46.14245" lon="6.61103">
        <ele>1278.2</ele>
        <time>2021-06-26T07:57:17Z</time>
      </trkpt>
      <trkpt lat="46.14233" lon="6.6111">
        <ele>1276.8</ele>
        <time>2021-06-26T07:57:18Z</time>
      </trkpt>
      <trkpt lat="46.14208" lon="6.61124">
        <ele>1275.6</ele>
        <time>2021-06-26T07:57:20Z</time>
      </trkpt>
      <trkpt lat="46.14195" lon="6.6113">
        <ele>1274</ele>
        <time>2021-06-26T07:57:21Z</time>
      </trkpt>
      <trkpt lat="46.14183" lon="6.61137">
        <ele>1272.6</ele>
        <time>2021-06-26T07:57:22Z</time>
      </trkpt>
      <trkpt lat="46.14171" lon="6.61144">
        <ele>1271.2</ele>
        <time>2021-06-26T07:57:23Z</time>
      </trkpt>
      <trkpt lat="46.14158" lon="6.6115">
        <ele>1269.6</ele>
        <time>2021-06-26T07:57:24Z</time>
      </trkpt>
      <trkpt lat="46.14146" lon="6.61156">
        <ele>1268</ele>
        <time>2021-06-26T07:57:25Z</time>
      </trkpt>
      <trkpt lat="46.14133" lon="6.61162">
        <ele>1266.6</ele>
        <time>2021-06-26T07:57:26Z</time>
      </trkpt>
      <trkpt lat="46.14121" lon="6.61168">
        <ele>1264.8</ele>
        <time>2021-06-26T07:57:27Z</time>
      </trkpt>
      <trkpt lat="46.1411" lon="6.61173">
        <ele>1263</ele>
        <time>2021-06-26T07:57:28Z</time>
      </trkpt>
      <trkpt lat="46.141" lon="6.61177">
        <ele>1261.2</ele>
        <time>2021-06-26T07:57:29Z</time>
      </trkpt>
      <trkpt lat="46.14092" lon="6.61181">
        <ele>1259.6</ele>
        <time>2021-06-26T07:57:30Z</time>
      </trkpt>
      <trkpt lat="46.14085" lon="6.61185">
        <ele>1258.6</ele>
        <time>2021-06-26T07:57:31Z</time>
      </trkpt>
      <trkpt lat="46.14079" lon="6.61189">
        <ele>1257.6</ele>
        <time>2021-06-26T07:57:32Z</time>
      </trkpt>
      <trkpt lat="46.14075" lon="6.61195">
        <ele>1256</ele>
        <time>2021-06-26T07:57:33Z</time>
      </trkpt>
      <trkpt lat="46.14074" lon="6.61205">
        <ele>1254.6</ele>
        <time>2021-06-26T07:57:34Z</time>
      </trkpt>
      <trkpt lat="46.14074" lon="6.61213">
        <ele>1253.6</ele>
        <time>2021-06-26T07:57:35Z</time>
      </trkpt>
      <trkpt lat="46.14076" lon="6.61217">
        <ele>1252.2</ele>
        <time>2021-06-26T07:57:36Z</time>
      </trkpt>
      <trkpt lat="46.14085" lon="6.61215">
        <ele>1251.4</ele>
        <time>2021-06-26T07:57:37Z</time>
      </trkpt>
      <trkpt lat="46.14091" lon="6.61213">
        <ele>1251.2</ele>
        <time>2021-06-26T07:57:38Z</time>
      </trkpt>
      <trkpt lat="46.14102" lon="6.61208">
        <ele>1250.8</ele>
        <time>2021-06-26T07:57:39Z</time>
      </trkpt>
      <trkpt lat="46.14113" lon="6.61206">
        <ele>1250.8</ele>
        <time>2021-06-26T07:57:40Z</time>
      </trkpt>
      <trkpt lat="46.14123" lon="6.61205">
        <ele>1250.4</ele>
        <time>2021-06-26T07:57:41Z</time>
      </trkpt>
      <trkpt lat="46.14134" lon="6.61206">
        <ele>1250.4</ele>
        <time>2021-06-26T07:57:42Z</time>
      </trkpt>
      <trkpt lat="46.14145" lon="6.61209">
        <ele>1250.2</ele>
        <time>2021-06-26T07:57:43Z</time>
      </trkpt>
      <trkpt lat="46.14156" lon="6.61212">
        <ele>1249.8</ele>
        <time>2021-06-26T07:57:44Z</time>
      </trkpt>
      <trkpt lat="46.14168" lon="6.61217">
        <ele>1249</ele>
        <time>2021-06-26T07:57:45Z</time>
      </trkpt>
      <trkpt lat="46.14178" lon="6.61223">
        <ele>1248.2</ele>
        <time>2021-06-26T07:57:46Z</time>
      </trkpt>
      <trkpt lat="46.1419" lon="6.61228">
        <ele>1247.2</ele>
        <time>2021-06-26T07:57:47Z</time>
      </trkpt>
      <trkpt lat="46.14202" lon="6.61233">
        <ele>1245.6</ele>
        <time>2021-06-26T07:57:48Z</time>
      </trkpt>
      <trkpt lat="46.14214" lon="6.61237">
        <ele>1244</ele>
        <time>2021-06-26T07:57:49Z</time>
      </trkpt>
      <trkpt lat="46.14226" lon="6.6124">
        <ele>1242.4</ele>
        <time>2021-06-26T07:57:50Z</time>
      </trkpt>
      <trkpt lat="46.14238" lon="6.61242">
        <ele>1241.2</ele>
        <time>2021-06-26T07:57:51Z</time>
      </trkpt>
      <trkpt lat="46.14251" lon="6.61242">
        <ele>1239.6</ele>
        <time>2021-06-26T07:57:52Z</time>
      </trkpt>
      <trkpt lat="46.14263" lon="6.6124">
        <ele>1238.2</ele>
        <time>2021-06-26T07:57:53Z</time>
      </trkpt>
      <trkpt lat="46.14275" lon="6.61234">
        <ele>1236.4</ele>
        <time>2021-06-26T07:57:54Z</time>
      </trkpt>
      <trkpt lat="46.14286" lon="6.61229">
        <ele>1234.6</ele>
        <time>2021-06-26T07:57:55Z</time>
      </trkpt>
      <trkpt lat="46.14297" lon="6.61224">
        <ele>1233</ele>
        <time>2021-06-26T07:57:56Z</time>
      </trkpt>
      <trkpt lat="46.14307" lon="6.61222">
        <ele>1231.6</ele>
        <time>2021-06-26T07:57:57Z</time>
      </trkpt>
      <trkpt lat="46.14316" lon="6.61221">
        <ele>1230.2</ele>
        <time>2021-06-26T07:57:58Z</time>
      </trkpt>
      <trkpt lat="46.14326" lon="6.61225">
        <ele>1229</ele>
        <time>2021-06-26T07:57:59Z</time>
      </trkpt>
      <trkpt lat="46.14335" lon="6.61229">
        <ele>1227.4</ele>
        <time>2021-06-26T07:58:00Z</time>
      </trkpt>
      <trkpt lat="46.14345" lon="6.61234">
        <ele>1225.8</ele>
        <time>2021-06-26T07:58:01Z</time>
      </trkpt>
      <trkpt lat="46.14355" lon="6.61237">
        <ele>1224</ele>
        <time>2021-06-26T07:58:02Z</time>
      </trkpt>
      <trkpt lat="46.14366" lon="6.61237">
        <ele>1223.2</ele>
        <time>2021-06-26T07:58:03Z</time>
      </trkpt>
      <trkpt lat="46.14377" lon="6.61236">
        <ele>1222.6</ele>
        <time>2021-06-26T07:58:04Z</time>
      </trkpt>
      <trkpt lat="46.14401" lon="6.61234">
        <ele>1221.6</ele>
        <time>2021-06-26T07:58:06Z</time>
      </trkpt>
      <trkpt lat="46.14413" lon="6.61234">
        <ele>1221</ele>
        <time>2021-06-26T07:58:07Z</time>
      </trkpt>
      <trkpt lat="46.14425" lon="6.61236">
        <ele>1219.8</ele>
        <time>2021-06-26T07:58:08Z</time>
      </trkpt>
      <trkpt lat="46.14436" lon="6.61244">
        <ele>1218.8</ele>
        <time>2021-06-26T07:58:09Z</time>
      </trkpt>
      <trkpt lat="46.14447" lon="6.61249">
        <ele>1217.2</ele>
        <time>2021-06-26T07:58:10Z</time>
      </trkpt>
      <trkpt lat="46.14457" lon="6.61253">
        <ele>1215.6</ele>
        <time>2021-06-26T07:58:11Z</time>
      </trkpt>
      <trkpt lat="46.14467" lon="6.61256">
        <ele>1213.8</ele>
        <time>2021-06-26T07:58:12Z</time>
      </trkpt>
      <trkpt lat="46.14478" lon="6.61257">
        <ele>1212</ele>
        <time>2021-06-26T07:58:13Z</time>
      </trkpt>
      <trkpt lat="46.14491" lon="6.61257">
        <ele>1210.4</ele>
        <time>2021-06-26T07:58:14Z</time>
      </trkpt>
      <trkpt lat="46.14505" lon="6.61256">
        <ele>1208.8</ele>
        <time>2021-06-26T07:58:15Z</time>
      </trkpt>
      <trkpt lat="46.14518" lon="6.61255">
        <ele>1207.2</ele>
        <time>2021-06-26T07:58:16Z</time>
      </trkpt>
      <trkpt lat="46.1453" lon="6.61255">
        <ele>1205.6</ele>
        <time>2021-06-26T07:58:17Z</time>
      </trkpt>
      <trkpt lat="46.14544" lon="6.61254">
        <ele>1204.4</ele>
        <time>2021-06-26T07:58:18Z</time>
      </trkpt>
      <trkpt lat="46.14557" lon="6.61254">
        <ele>1203.4</ele>
        <time>2021-06-26T07:58:19Z</time>
      </trkpt>
      <trkpt lat="46.1457" lon="6.61253">
        <ele>1202.4</ele>
        <time>2021-06-26T07:58:20Z</time>
      </trkpt>
      <trkpt lat="46.14584" lon="6.61254">
        <ele>1201</ele>
        <time>2021-06-26T07:58:21Z</time>
      </trkpt>
      <trkpt lat="46.1461" lon="6.61263">
        <ele>1197.8</ele>
        <time>2021-06-26T07:58:23Z</time>
      </trkpt>
      <trkpt lat="46.14622" lon="6.61266">
        <ele>1196.4</ele>
        <time>2021-06-26T07:58:24Z</time>
      </trkpt>
      <trkpt lat="46.14635" lon="6.61269">
        <ele>1194.8</ele>
        <time>2021-06-26T07:58:25Z</time>
      </trkpt>
      <trkpt lat="46.14648" lon="6.61272">
        <ele>1193.2</ele>
        <time>2021-06-26T07:58:26Z</time>
      </trkpt>
      <trkpt lat="46.1466" lon="6.61274">
        <ele>1191.4</ele>
        <time>2021-06-26T07:58:27Z</time>
      </trkpt>
      <trkpt lat="46.14673" lon="6.61274">
        <ele>1191.4</ele>
        <time>2021-06-26T07:58:28Z</time>
      </trkpt>
      <trkpt lat="46.14685" lon="6.61273">
        <ele>1189.8</ele>
        <time>2021-06-26T07:58:29Z</time>
      </trkpt>
      <trkpt lat="46.14697" lon="6.61274">
        <ele>1188.2</ele>
        <time>2021-06-26T07:58:30Z</time>
      </trkpt>
      <trkpt lat="46.1471" lon="6.61273">
        <ele>1186.6</ele>
        <time>2021-06-26T07:58:31Z</time>
      </trkpt>
      <trkpt lat="46.14722" lon="6.61272">
        <ele>1185.6</ele>
        <time>2021-06-26T07:58:32Z</time>
      </trkpt>
      <trkpt lat="46.14735" lon="6.61272">
        <ele>1184.4</ele>
        <time>2021-06-26T07:58:33Z</time>
      </trkpt>
      <trkpt lat="46.14747" lon="6.61271">
        <ele>1183.4</ele>
        <time>2021-06-26T07:58:34Z</time>
      </trkpt>
      <trkpt lat="46.14759" lon="6.61271">
        <ele>1182</ele>
        <time>2021-06-26T07:58:35Z</time>
      </trkpt>
      <trkpt lat="46.14771" lon="6.61272">
        <ele>1180.4</ele>
        <time>2021-06-26T07:58:36Z</time>
      </trkpt>
      <trkpt lat="46.14795" lon="6.61273">
        <ele>1178.4</ele>
        <time>2021-06-26T07:58:38Z</time>
      </trkpt>
      <trkpt lat="46.14821" lon="6.61277">
        <ele>1175.8</ele>
        <time>2021-06-26T07:58:40Z</time>
      </trkpt>
      <trkpt lat="46.14833" lon="6.61279">
        <ele>1174.8</ele>
        <time>2021-06-26T07:58:41Z</time>
      </trkpt>
      <trkpt lat="46.14845" lon="6.61281">
        <ele>1174</ele>
        <time>2021-06-26T07:58:42Z</time>
      </trkpt>
      <trkpt lat="46.14856" lon="6.61285">
        <ele>1172.4</ele>
        <time>2021-06-26T07:58:43Z</time>
      </trkpt>
      <trkpt lat="46.14867" lon="6.61286">
        <ele>1170.6</ele>
        <time>2021-06-26T07:58:44Z</time>
      </trkpt>
      <trkpt lat="46.14878" lon="6.61286">
        <ele>1168.6</ele>
        <time>2021-06-26T07:58:45Z</time>
      </trkpt>
      <trkpt lat="46.14888" lon="6.61284">
        <ele>1167.2</ele>
        <time>2021-06-26T07:58:46Z</time>
      </trkpt>
      <trkpt lat="46.14897" lon="6.61281">
        <ele>1166</ele>
        <time>2021-06-26T07:58:47Z</time>
      </trkpt>
      <trkpt lat="46.14904" lon="6.6128">
        <ele>1164.8</ele>
        <time>2021-06-26T07:58:48Z</time>
      </trkpt>
      <trkpt lat="46.1491" lon="6.6128">
        <ele>1163.4</ele>
        <time>2021-06-26T07:58:49Z</time>
      </trkpt>
      <trkpt lat="46.14914" lon="6.61281">
        <ele>1162.8</ele>
        <time>2021-06-26T07:58:50Z</time>
      </trkpt>
      <trkpt lat="46.14917" lon="6.61284">
        <ele>1162.8</ele>
        <time>2021-06-26T07:58:51Z</time>
      </trkpt>
      <trkpt lat="46.14918" lon="6.61288">
        <ele>1162</ele>
        <time>2021-06-26T07:58:52Z</time>
      </trkpt>
      <trkpt lat="46.14916" lon="6.61293">
        <ele>1161.2</ele>
        <time>2021-06-26T07:58:53Z</time>
      </trkpt>
      <trkpt lat="46.14912" lon="6.61298">
        <ele>1160.2</ele>
        <time>2021-06-26T07:58:54Z</time>
      </trkpt>
      <trkpt lat="46.14906" lon="6.613">
        <ele>1159.2</ele>
        <time>2021-06-26T07:58:55Z</time>
      </trkpt>
      <trkpt lat="46.149" lon="6.61302">
        <ele>1158.8</ele>
        <time>2021-06-26T07:58:56Z</time>
      </trkpt>
      <trkpt lat="46.14892" lon="6.61302">
        <ele>1158.4</ele>
        <time>2021-06-26T07:58:57Z</time>
      </trkpt>
      <trkpt lat="46.14885" lon="6.61303">
        <ele>1158</ele>
        <time>2021-06-26T07:58:58Z</time>
      </trkpt>
      <trkpt lat="46.14878" lon="6.61304">
        <ele>1157.6</ele>
        <time>2021-06-26T07:58:59Z</time>
      </trkpt>
      <trkpt lat="46.14863" lon="6.61307">
        <ele>1156.4</ele>
        <time>2021-06-26T07:59:01Z</time>
      </trkpt>
      <trkpt lat="46.14857" lon="6.61309">
        <ele>1155.2</ele>
        <time>2021-06-26T07:59:02Z</time>
      </trkpt>
      <trkpt lat="46.14851" lon="6.61312">
        <ele>1154.2</ele>
        <time>2021-06-26T07:59:03Z</time>
      </trkpt>
      <trkpt lat="46.14846" lon="6.61315">
        <ele>1153.6</ele>
        <time>2021-06-26T07:59:04Z</time>
      </trkpt>
      <trkpt lat="46.14841" lon="6.61318">
        <ele>1152.8</ele>
        <time>2021-06-26T07:59:05Z</time>
      </trkpt>
      <trkpt lat="46.14837" lon="6.61322">
        <ele>1151.6</ele>
        <time>2021-06-26T07:59:06Z</time>
      </trkpt>
      <trkpt lat="46.14834" lon="6.61325">
        <ele>1151</ele>
        <time>2021-06-26T07:59:07Z</time>
      </trkpt>
      <trkpt lat="46.14832" lon="6.61328">
        <ele>1150.4</ele>
        <time>2021-06-26T07:59:08Z</time>
      </trkpt>
      <trkpt lat="46.1483" lon="6.61331">
        <ele>1149.6</ele>
        <time>2021-06-26T07:59:09Z</time>
      </trkpt>
      <trkpt lat="46.14829" lon="6.61334">
        <ele>1148.8</ele>
        <time>2021-06-26T07:59:10Z</time>
      </trkpt>
      <trkpt lat="46.1483" lon="6.61337">
        <ele>1148</ele>
        <time>2021-06-26T07:59:11Z</time>
      </trkpt>
      <trkpt lat="46.14832" lon="6.61339">
        <ele>1147.2</ele>
        <time>2021-06-26T07:59:12Z</time>
      </trkpt>
      <trkpt lat="46.14833" lon="6.61339">
        <ele>1146.6</ele>
        <time>2021-06-26T07:59:13Z</time>
      </trkpt>
      <trkpt lat="46.14835" lon="6.6134">
        <ele>1146.6</ele>
        <time>2021-06-26T07:59:14Z</time>
      </trkpt>
      <trkpt lat="46.14837" lon="6.61341">
        <ele>1146</ele>
        <time>2021-06-26T07:59:15Z</time>
      </trkpt>
      <trkpt lat="46.14838" lon="6.61341">
        <ele>1145.4</ele>
        <time>2021-06-26T07:59:16Z</time>
      </trkpt>
      <trkpt lat="46.14839" lon="6.61342">
        <ele>1145</ele>
        <time>2021-06-26T07:59:17Z</time>
      </trkpt>
      <trkpt lat="46.14845" lon="6.61341">
        <ele>1145</ele>
        <time>2021-06-26T07:59:19Z</time>
      </trkpt>
      <trkpt lat="46.14848" lon="6.61339">
        <ele>1144.8</ele>
        <time>2021-06-26T07:59:20Z</time>
      </trkpt>
      <trkpt lat="46.14852" lon="6.61337">
        <ele>1144.8</ele>
        <time>2021-06-26T07:59:21Z</time>
      </trkpt>
      <trkpt lat="46.14854" lon="6.61334">
        <ele>1144.6</ele>
        <time>2021-06-26T07:59:22Z</time>
      </trkpt>
      <trkpt lat="46.14876" lon="6.61325">
        <ele>1144.8</ele>
        <time>2021-06-26T07:59:29Z</time>
      </trkpt>
      <trkpt lat="46.14879" lon="6.61324">
        <ele>1144.6</ele>
        <time>2021-06-26T07:59:30Z</time>
      </trkpt>
      <trkpt lat="46.14883" lon="6.61324">
        <ele>1144.8</ele>
        <time>2021-06-26T07:59:31Z</time>
      </trkpt>
      <trkpt lat="46.14886" lon="6.61324">
        <ele>1144.8</ele>
        <time>2021-06-26T07:59:32Z</time>
      </trkpt>
      <trkpt lat="46.1489" lon="6.61323">
        <ele>1144.8</ele>
        <time>2021-06-26T07:59:33Z</time>
      </trkpt>
      <trkpt lat="46.14893" lon="6.61322">
        <ele>1145</ele>
        <time>2021-06-26T07:59:34Z</time>
      </trkpt>
      <trkpt lat="46.14895" lon="6.61322">
        <ele>1145</ele>
        <time>2021-06-26T07:59:35Z</time>
      </trkpt>
      <trkpt lat="46.14912" lon="6.61316">
        <ele>1145.6</ele>
        <time>2021-06-26T07:59:40Z</time>
      </trkpt>
      <trkpt lat="46.14915" lon="6.61316">
        <ele>1146.2</ele>
        <time>2021-06-26T07:59:41Z</time>
      </trkpt>
      <trkpt lat="46.14919" lon="6.61315">
        <ele>1146.4</ele>
        <time>2021-06-26T07:59:42Z</time>
      </trkpt>
      <trkpt lat="46.14921" lon="6.61315">
        <ele>1146.8</ele>
        <time>2021-06-26T07:59:43Z</time>
      </trkpt>
      <trkpt lat="46.14925" lon="6.61315">
        <ele>1147.2</ele>
        <time>2021-06-26T07:59:44Z</time>
      </trkpt>
      <trkpt lat="46.14929" lon="6.61314">
        <ele>1147.4</ele>
        <time>2021-06-26T07:59:45Z</time>
      </trkpt>
      <trkpt lat="46.14933" lon="6.61313">
        <ele>1147.6</ele>
        <time>2021-06-26T07:59:46Z</time>
      </trkpt>
      <trkpt lat="46.14937" lon="6.61312">
        <ele>1147.8</ele>
        <time>2021-06-26T07:59:47Z</time>
      </trkpt>
      <trkpt lat="46.14941" lon="6.6131">
        <ele>1148</ele>
        <time>2021-06-26T07:59:48Z</time>
      </trkpt>
      <trkpt lat="46.14944" lon="6.61307">
        <ele>1148</ele>
        <time>2021-06-26T07:59:49Z</time>
      </trkpt>
      <trkpt lat="46.14946" lon="6.61306">
        <ele>1148.2</ele>
        <time>2021-06-26T07:59:50Z</time>
      </trkpt>
      <trkpt lat="46.1495" lon="6.61304">
        <ele>1148.4</ele>
        <time>2021-06-26T07:59:51Z</time>
      </trkpt>
      <trkpt lat="46.14953" lon="6.61302">
        <ele>1148.6</ele>
        <time>2021-06-26T07:59:52Z</time>
      </trkpt>
      <trkpt lat="46.14955" lon="6.613">
        <ele>1148.8</ele>
        <time>2021-06-26T07:59:53Z</time>
      </trkpt>
      <trkpt lat="46.14958" lon="6.61299">
        <ele>1148.8</ele>
        <time>2021-06-26T07:59:54Z</time>
      </trkpt>
      <trkpt lat="46.1496" lon="6.61298">
        <ele>1149</ele>
        <time>2021-06-26T07:59:55Z</time>
      </trkpt>
      <trkpt lat="46.14963" lon="6.61296">
        <ele>1149.2</ele>
        <time>2021-06-26T07:59:56Z</time>
      </trkpt>
      <trkpt lat="46.14965" lon="6.61295">
        <ele>1149.4</ele>
        <time>2021-06-26T07:59:57Z</time>
      </trkpt>
      <trkpt lat="46.14967" lon="6.61295">
        <ele>1149.4</ele>
        <time>2021-06-26T07:59:58Z</time>
      </trkpt>
      <trkpt lat="46.14969" lon="6.61293">
        <ele>1149.8</ele>
        <time>2021-06-26T07:59:59Z</time>
      </trkpt>
      <trkpt lat="46.14973" lon="6.61291">
        <ele>1149.8</ele>
        <time>2021-06-26T08:00:00Z</time>
      </trkpt>
      <trkpt lat="46.14974" lon="6.6129">
        <ele>1150</ele>
        <time>2021-06-26T08:00:01Z</time>
      </trkpt>
      <trkpt lat="46.14976" lon="6.61288">
        <ele>1150.4</ele>
        <time>2021-06-26T08:00:02Z</time>
      </trkpt>
      <trkpt lat="46.14978" lon="6.61287">
        <ele>1150.6</ele>
        <time>2021-06-26T08:00:03Z</time>
      </trkpt>
      <trkpt lat="46.1498" lon="6.61286">
        <ele>1151</ele>
        <time>2021-06-26T08:00:04Z</time>
      </trkpt>
      <trkpt lat="46.14982" lon="6.61287">
        <ele>1151.4</ele>
        <time>2021-06-26T08:00:05Z</time>
      </trkpt>
      <trkpt lat="46.14984" lon="6.61288">
        <ele>1151.6</ele>
        <time>2021-06-26T08:00:06Z</time>
      </trkpt>
      <trkpt lat="46.14985" lon="6.61288">
        <ele>1151.8</ele>
        <time>2021-06-26T08:00:07Z</time>
      </trkpt>
      <trkpt lat="46.14987" lon="6.61289">
        <ele>1152.2</ele>
        <time>2021-06-26T08:00:08Z</time>
      </trkpt>
      <trkpt lat="46.14989" lon="6.61289">
        <ele>1152.2</ele>
        <time>2021-06-26T08:00:09Z</time>
      </trkpt>
      <trkpt lat="46.14991" lon="6.61288">
        <ele>1152.6</ele>
        <time>2021-06-26T08:00:10Z</time>
      </trkpt>
      <trkpt lat="46.14994" lon="6.61287">
        <ele>1153</ele>
        <time>2021-06-26T08:00:11Z</time>
      </trkpt>
      <trkpt lat="46.14997" lon="6.61286">
        <ele>1153.2</ele>
        <time>2021-06-26T08:00:12Z</time>
      </trkpt>
      <trkpt lat="46.14999" lon="6.61284">
        <ele>1153.4</ele>
        <time>2021-06-26T08:00:13Z</time>
      </trkpt>
      <trkpt lat="46.15001" lon="6.61283">
        <ele>1153.6</ele>
        <time>2021-06-26T08:00:14Z</time>
      </trkpt>
      <trkpt lat="46.15003" lon="6.61281">
        <ele>1153.8</ele>
        <time>2021-06-26T08:00:15Z</time>
      </trkpt>
      <trkpt lat="46.15004" lon="6.61278">
        <ele>1154</ele>
        <time>2021-06-26T08:00:16Z</time>
      </trkpt>
      <trkpt lat="46.15006" lon="6.61275">
        <ele>1154.2</ele>
        <time>2021-06-26T08:00:17Z</time>
      </trkpt>
      <trkpt lat="46.15006" lon="6.61273">
        <ele>1154.4</ele>
        <time>2021-06-26T08:00:18Z</time>
      </trkpt>
      <trkpt lat="46.15008" lon="6.61269">
        <ele>1154.6</ele>
        <time>2021-06-26T08:00:19Z</time>
      </trkpt>
      <trkpt lat="46.15009" lon="6.61265">
        <ele>1154.8</ele>
        <time>2021-06-26T08:00:20Z</time>
      </trkpt>
      <trkpt lat="46.1501" lon="6.61262">
        <ele>1155.2</ele>
        <time>2021-06-26T08:00:21Z</time>
      </trkpt>
      <trkpt lat="46.15011" lon="6.61259">
        <ele>1155.6</ele>
        <time>2021-06-26T08:00:22Z</time>
      </trkpt>
      <trkpt lat="46.15013" lon="6.61256">
        <ele>1155.6</ele>
        <time>2021-06-26T08:00:23Z</time>
      </trkpt>
      <trkpt lat="46.15015" lon="6.61253">
        <ele>1155.6</ele>
        <time>2021-06-26T08:00:24Z</time>
      </trkpt>
      <trkpt lat="46.15019" lon="6.6125">
        <ele>1155.6</ele>
        <time>2021-06-26T08:00:25Z</time>
      </trkpt>
      <trkpt lat="46.15021" lon="6.61246">
        <ele>1155.8</ele>
        <time>2021-06-26T08:00:26Z</time>
      </trkpt>
      <trkpt lat="46.15024" lon="6.61243">
        <ele>1155.6</ele>
        <time>2021-06-26T08:00:27Z</time>
      </trkpt>
      <trkpt lat="46.15027" lon="6.6124">
        <ele>1155.8</ele>
        <time>2021-06-26T08:00:28Z</time>
      </trkpt>
      <trkpt lat="46.15031" lon="6.61237">
        <ele>1156</ele>
        <time>2021-06-26T08:00:29Z</time>
      </trkpt>
      <trkpt lat="46.15033" lon="6.61235">
        <ele>1155.8</ele>
        <time>2021-06-26T08:00:30Z</time>
      </trkpt>
      <trkpt lat="46.15036" lon="6.61232">
        <ele>1155.8</ele>
        <time>2021-06-26T08:00:31Z</time>
      </trkpt>
      <trkpt lat="46.15039" lon="6.61229">
        <ele>1156</ele>
        <time>2021-06-26T08:00:32Z</time>
      </trkpt>
      <trkpt lat="46.15041" lon="6.61228">
        <ele>1156</ele>
        <time>2021-06-26T08:00:33Z</time>
      </trkpt>
      <trkpt lat="46.15045" lon="6.61226">
        <ele>1155.8</ele>
        <time>2021-06-26T08:00:34Z</time>
      </trkpt>
      <trkpt lat="46.1505" lon="6.61222">
        <ele>1156</ele>
        <time>2021-06-26T08:00:35Z</time>
      </trkpt>
      <trkpt lat="46.15059" lon="6.6122">
        <ele>1155.8</ele>
        <time>2021-06-26T08:00:37Z</time>
      </trkpt>
      <trkpt lat="46.15068" lon="6.61216">
        <ele>1155.8</ele>
        <time>2021-06-26T08:00:38Z</time>
      </trkpt>
      <trkpt lat="46.15074" lon="6.61216">
        <ele>1155.6</ele>
        <time>2021-06-26T08:00:39Z</time>
      </trkpt>
      <trkpt lat="46.15079" lon="6.61215">
        <ele>1155.2</ele>
        <time>2021-06-26T08:00:40Z</time>
      </trkpt>
      <trkpt lat="46.15087" lon="6.61209">
        <ele>1154.6</ele>
        <time>2021-06-26T08:00:41Z</time>
      </trkpt>
      <trkpt lat="46.15094" lon="6.61201">
        <ele>1154.2</ele>
        <time>2021-06-26T08:00:42Z</time>
      </trkpt>
      <trkpt lat="46.151" lon="6.61192">
        <ele>1154</ele>
        <time>2021-06-26T08:00:43Z</time>
      </trkpt>
      <trkpt lat="46.15103" lon="6.61183">
        <ele>1153.6</ele>
        <time>2021-06-26T08:00:44Z</time>
      </trkpt>
      <trkpt lat="46.15106" lon="6.61173">
        <ele>1153</ele>
        <time>2021-06-26T08:00:45Z</time>
      </trkpt>
      <trkpt lat="46.15108" lon="6.61163">
        <ele>1153</ele>
        <time>2021-06-26T08:00:46Z</time>
      </trkpt>
      <trkpt lat="46.15113" lon="6.61153">
        <ele>1152.6</ele>
        <time>2021-06-26T08:00:47Z</time>
      </trkpt>
      <trkpt lat="46.15116" lon="6.61147">
        <ele>1152.2</ele>
        <time>2021-06-26T08:00:48Z</time>
      </trkpt>
      <trkpt lat="46.15124" lon="6.61142">
        <ele>1152</ele>
        <time>2021-06-26T08:00:49Z</time>
      </trkpt>
      <trkpt lat="46.1513" lon="6.61141">
        <ele>1151.6</ele>
        <time>2021-06-26T08:00:50Z</time>
      </trkpt>
      <trkpt lat="46.15135" lon="6.61143">
        <ele>1151.6</ele>
        <time>2021-06-26T08:00:51Z</time>
      </trkpt>
      <trkpt lat="46.15139" lon="6.61145">
        <ele>1151.4</ele>
        <time>2021-06-26T08:00:52Z</time>
      </trkpt>
      <trkpt lat="46.15145" lon="6.61147">
        <ele>1151.2</ele>
        <time>2021-06-26T08:00:53Z</time>
      </trkpt>
      <trkpt lat="46.1515" lon="6.61149">
        <ele>1151.2</ele>
        <time>2021-06-26T08:00:54Z</time>
      </trkpt>
      <trkpt lat="46.15155" lon="6.61152">
        <ele>1151.2</ele>
        <time>2021-06-26T08:00:55Z</time>
      </trkpt>
      <trkpt lat="46.15164" lon="6.6116">
        <ele>1151.2</ele>
        <time>2021-06-26T08:00:57Z</time>
      </trkpt>
      <trkpt lat="46.15167" lon="6.61165">
        <ele>1151.2</ele>
        <time>2021-06-26T08:00:58Z</time>
      </trkpt>
      <trkpt lat="46.15169" lon="6.61169">
        <ele>1151.2</ele>
        <time>2021-06-26T08:00:59Z</time>
      </trkpt>
      <trkpt lat="46.15172" lon="6.61174">
        <ele>1151.2</ele>
        <time>2021-06-26T08:01:00Z</time>
      </trkpt>
      <trkpt lat="46.15174" lon="6.61179">
        <ele>1151.2</ele>
        <time>2021-06-26T08:01:01Z</time>
      </trkpt>
      <trkpt lat="46.15175" lon="6.61184">
        <ele>1151.4</ele>
        <time>2021-06-26T08:01:02Z</time>
      </trkpt>
      <trkpt lat="46.15176" lon="6.61188">
        <ele>1151.4</ele>
        <time>2021-06-26T08:01:03Z</time>
      </trkpt>
      <trkpt lat="46.15176" lon="6.61193">
        <ele>1151.6</ele>
        <time>2021-06-26T08:01:04Z</time>
      </trkpt>
      <trkpt lat="46.15177" lon="6.61198">
        <ele>1151.6</ele>
        <time>2021-06-26T08:01:05Z</time>
      </trkpt>
      <trkpt lat="46.15178" lon="6.61202">
        <ele>1152</ele>
        <time>2021-06-26T08:01:06Z</time>
      </trkpt>
      <trkpt lat="46.15178" lon="6.61206">
        <ele>1152</ele>
        <time>2021-06-26T08:01:07Z</time>
      </trkpt>
      <trkpt lat="46.15178" lon="6.6121">
        <ele>1152.4</ele>
        <time>2021-06-26T08:01:08Z</time>
      </trkpt>
      <trkpt lat="46.15179" lon="6.61215">
        <ele>1152.4</ele>
        <time>2021-06-26T08:01:09Z</time>
      </trkpt>
      <trkpt lat="46.1518" lon="6.61219">
        <ele>1152.8</ele>
        <time>2021-06-26T08:01:10Z</time>
      </trkpt>
      <trkpt lat="46.15181" lon="6.61222">
        <ele>1153.2</ele>
        <time>2021-06-26T08:01:11Z</time>
      </trkpt>
      <trkpt lat="46.15183" lon="6.61226">
        <ele>1153.4</ele>
        <time>2021-06-26T08:01:12Z</time>
      </trkpt>
      <trkpt lat="46.15184" lon="6.61228">
        <ele>1153.8</ele>
        <time>2021-06-26T08:01:13Z</time>
      </trkpt>
      <trkpt lat="46.15185" lon="6.6123">
        <ele>1154</ele>
        <time>2021-06-26T08:01:14Z</time>
      </trkpt>
      <trkpt lat="46.15186" lon="6.61232">
        <ele>1154.4</ele>
        <time>2021-06-26T08:01:15Z</time>
      </trkpt>
      <trkpt lat="46.15186" lon="6.61232">
        <ele>1154.8</ele>
        <time>2021-06-26T08:01:16Z</time>
      </trkpt>
      <trkpt lat="46.15186" lon="6.61233">
        <ele>1155.2</ele>
        <time>2021-06-26T08:01:17Z</time>
      </trkpt>
      <trkpt lat="46.15187" lon="6.61235">
        <ele>1156.6</ele>
        <time>2021-06-26T08:01:21Z</time>
      </trkpt>
      <trkpt lat="46.15186" lon="6.61236">
        <ele>1158</ele>
        <time>2021-06-26T08:01:28Z</time>
      </trkpt>
      <trkpt lat="46.15185" lon="6.61235">
        <ele>1158</ele>
        <time>2021-06-26T08:01:33Z</time>
      </trkpt>
      <trkpt lat="46.15184" lon="6.61241">
        <ele>1157.8</ele>
        <time>2021-06-26T08:01:49Z</time>
      </trkpt>
      <trkpt lat="46.15185" lon="6.6125">
        <ele>1157.6</ele>
        <time>2021-06-26T08:01:57Z</time>
      </trkpt>
      <trkpt lat="46.15187" lon="6.61254">
        <ele>1157.6</ele>
        <time>2021-06-26T08:01:59Z</time>
      </trkpt>
      <trkpt lat="46.15193" lon="6.61273">
        <ele>1157.6</ele>
        <time>2021-06-26T08:02:06Z</time>
      </trkpt>
      <trkpt lat="46.15194" lon="6.61281">
        <ele>1157.8</ele>
        <time>2021-06-26T08:02:08Z</time>
      </trkpt>
      <trkpt lat="46.15197" lon="6.61294">
        <ele>1158.4</ele>
        <time>2021-06-26T08:02:11Z</time>
      </trkpt>
      <trkpt lat="46.152" lon="6.61302">
        <ele>1158.8</ele>
        <time>2021-06-26T08:02:13Z</time>
      </trkpt>
      <trkpt lat="46.15201" lon="6.61305">
        <ele>1158.8</ele>
        <time>2021-06-26T08:02:14Z</time>
      </trkpt>
      <trkpt lat="46.15202" lon="6.6131">
        <ele>1159.4</ele>
        <time>2021-06-26T08:02:15Z</time>
      </trkpt>
      <trkpt lat="46.15203" lon="6.61314">
        <ele>1159.6</ele>
        <time>2021-06-26T08:02:16Z</time>
      </trkpt>
      <trkpt lat="46.15205" lon="6.61319">
        <ele>1159.6</ele>
        <time>2021-06-26T08:02:17Z</time>
      </trkpt>
      <trkpt lat="46.15206" lon="6.61323">
        <ele>1159.8</ele>
        <time>2021-06-26T08:02:18Z</time>
      </trkpt>
      <trkpt lat="46.15207" lon="6.61327">
        <ele>1160</ele>
        <time>2021-06-26T08:02:19Z</time>
      </trkpt>
      <trkpt lat="46.15208" lon="6.61331">
        <ele>1160.2</ele>
        <time>2021-06-26T08:02:20Z</time>
      </trkpt>
      <trkpt lat="46.1521" lon="6.61335">
        <ele>1160.6</ele>
        <time>2021-06-26T08:02:21Z</time>
      </trkpt>
      <trkpt lat="46.15211" lon="6.61339">
        <ele>1160.8</ele>
        <time>2021-06-26T08:02:22Z</time>
      </trkpt>
      <trkpt lat="46.15213" lon="6.61344">
        <ele>1161.2</ele>
        <time>2021-06-26T08:02:23Z</time>
      </trkpt>
      <trkpt lat="46.15214" lon="6.61348">
        <ele>1161.4</ele>
        <time>2021-06-26T08:02:24Z</time>
      </trkpt>
      <trkpt lat="46.15216" lon="6.61352">
        <ele>1161.8</ele>
        <time>2021-06-26T08:02:25Z</time>
      </trkpt>
      <trkpt lat="46.15217" lon="6.61356">
        <ele>1162</ele>
        <time>2021-06-26T08:02:26Z</time>
      </trkpt>
      <trkpt lat="46.15218" lon="6.61359">
        <ele>1162.4</ele>
        <time>2021-06-26T08:02:27Z</time>
      </trkpt>
      <trkpt lat="46.15218" lon="6.61364">
        <ele>1162.6</ele>
        <time>2021-06-26T08:02:28Z</time>
      </trkpt>
      <trkpt lat="46.15219" lon="6.61368">
        <ele>1163</ele>
        <time>2021-06-26T08:02:29Z</time>
      </trkpt>
      <trkpt lat="46.1522" lon="6.61372">
        <ele>1163.4</ele>
        <time>2021-06-26T08:02:30Z</time>
      </trkpt>
      <trkpt lat="46.15222" lon="6.61376">
        <ele>1163.6</ele>
        <time>2021-06-26T08:02:31Z</time>
      </trkpt>
      <trkpt lat="46.15223" lon="6.61379">
        <ele>1164</ele>
        <time>2021-06-26T08:02:32Z</time>
      </trkpt>
      <trkpt lat="46.15224" lon="6.61383">
        <ele>1164</ele>
        <time>2021-06-26T08:02:33Z</time>
      </trkpt>
      <trkpt lat="46.15226" lon="6.61387">
        <ele>1164.4</ele>
        <time>2021-06-26T08:02:34Z</time>
      </trkpt>
      <trkpt lat="46.15227" lon="6.61391">
        <ele>1164.6</ele>
        <time>2021-06-26T08:02:35Z</time>
      </trkpt>
      <trkpt lat="46.15228" lon="6.61395">
        <ele>1165</ele>
        <time>2021-06-26T08:02:36Z</time>
      </trkpt>
      <trkpt lat="46.15229" lon="6.61399">
        <ele>1165.2</ele>
        <time>2021-06-26T08:02:37Z</time>
      </trkpt>
      <trkpt lat="46.1523" lon="6.61403">
        <ele>1165.6</ele>
        <time>2021-06-26T08:02:38Z</time>
      </trkpt>
      <trkpt lat="46.15231" lon="6.61407">
        <ele>1165.8</ele>
        <time>2021-06-26T08:02:39Z</time>
      </trkpt>
      <trkpt lat="46.15232" lon="6.61411">
        <ele>1165.8</ele>
        <time>2021-06-26T08:02:40Z</time>
      </trkpt>
      <trkpt lat="46.15233" lon="6.61415">
        <ele>1165.8</ele>
        <time>2021-06-26T08:02:41Z</time>
      </trkpt>
      <trkpt lat="46.15234" lon="6.61419">
        <ele>1166</ele>
        <time>2021-06-26T08:02:42Z</time>
      </trkpt>
      <trkpt lat="46.15235" lon="6.61422">
        <ele>1166.2</ele>
        <time>2021-06-26T08:02:43Z</time>
      </trkpt>
      <trkpt lat="46.15236" lon="6.61426">
        <ele>1166.8</ele>
        <time>2021-06-26T08:02:44Z</time>
      </trkpt>
      <trkpt lat="46.15237" lon="6.6143">
        <ele>1167</ele>
        <time>2021-06-26T08:02:45Z</time>
      </trkpt>
      <trkpt lat="46.15238" lon="6.61434">
        <ele>1167.4</ele>
        <time>2021-06-26T08:02:46Z</time>
      </trkpt>
      <trkpt lat="46.15239" lon="6.61437">
        <ele>1167.6</ele>
        <time>2021-06-26T08:02:47Z</time>
      </trkpt>
      <trkpt lat="46.1524" lon="6.6144">
        <ele>1167.6</ele>
        <time>2021-06-26T08:02:48Z</time>
      </trkpt>
      <trkpt lat="46.15241" lon="6.61443">
        <ele>1167.8</ele>
        <time>2021-06-26T08:02:49Z</time>
      </trkpt>
      <trkpt lat="46.15242" lon="6.61446">
        <ele>1168</ele>
        <time>2021-06-26T08:02:50Z</time>
      </trkpt>
      <trkpt lat="46.15243" lon="6.61449">
        <ele>1168.4</ele>
        <time>2021-06-26T08:02:51Z</time>
      </trkpt>
      <trkpt lat="46.15245" lon="6.61451">
        <ele>1168.8</ele>
        <time>2021-06-26T08:02:52Z</time>
      </trkpt>
      <trkpt lat="46.15246" lon="6.61453">
        <ele>1169.2</ele>
        <time>2021-06-26T08:02:53Z</time>
      </trkpt>
      <trkpt lat="46.15248" lon="6.61456">
        <ele>1169.6</ele>
        <time>2021-06-26T08:02:54Z</time>
      </trkpt>
      <trkpt lat="46.1525" lon="6.61458">
        <ele>1170</ele>
        <time>2021-06-26T08:02:55Z</time>
      </trkpt>
      <trkpt lat="46.15253" lon="6.61461">
        <ele>1170.4</ele>
        <time>2021-06-26T08:02:56Z</time>
      </trkpt>
      <trkpt lat="46.15255" lon="6.61464">
        <ele>1170.6</ele>
        <time>2021-06-26T08:02:57Z</time>
      </trkpt>
      <trkpt lat="46.15256" lon="6.61466">
        <ele>1170.8</ele>
        <time>2021-06-26T08:02:58Z</time>
      </trkpt>
      <trkpt lat="46.15258" lon="6.61469">
        <ele>1171.2</ele>
        <time>2021-06-26T08:02:59Z</time>
      </trkpt>
      <trkpt lat="46.1526" lon="6.61472">
        <ele>1171.4</ele>
        <time>2021-06-26T08:03:00Z</time>
      </trkpt>
      <trkpt lat="46.15262" lon="6.61475">
        <ele>1171.6</ele>
        <time>2021-06-26T08:03:01Z</time>
      </trkpt>
      <trkpt lat="46.15264" lon="6.61477">
        <ele>1171.8</ele>
        <time>2021-06-26T08:03:02Z</time>
      </trkpt>
      <trkpt lat="46.15266" lon="6.6148">
        <ele>1171.8</ele>
        <time>2021-06-26T08:03:03Z</time>
      </trkpt>
      <trkpt lat="46.15268" lon="6.61483">
        <ele>1172.2</ele>
        <time>2021-06-26T08:03:04Z</time>
      </trkpt>
      <trkpt lat="46.1527" lon="6.61485">
        <ele>1172.4</ele>
        <time>2021-06-26T08:03:05Z</time>
      </trkpt>
      <trkpt lat="46.15272" lon="6.61488">
        <ele>1172.6</ele>
        <time>2021-06-26T08:03:06Z</time>
      </trkpt>
      <trkpt lat="46.15274" lon="6.61491">
        <ele>1172.8</ele>
        <time>2021-06-26T08:03:07Z</time>
      </trkpt>
      <trkpt lat="46.15276" lon="6.61493">
        <ele>1173.2</ele>
        <time>2021-06-26T08:03:08Z</time>
      </trkpt>
      <trkpt lat="46.15277" lon="6.61496">
        <ele>1173.4</ele>
        <time>2021-06-26T08:03:09Z</time>
      </trkpt>
      <trkpt lat="46.15279" lon="6.61499">
        <ele>1173.8</ele>
        <time>2021-06-26T08:03:10Z</time>
      </trkpt>
      <trkpt lat="46.1528" lon="6.61501">
        <ele>1174</ele>
        <time>2021-06-26T08:03:11Z</time>
      </trkpt>
      <trkpt lat="46.15282" lon="6.61503">
        <ele>1174.4</ele>
        <time>2021-06-26T08:03:12Z</time>
      </trkpt>
      <trkpt lat="46.15284" lon="6.61506">
        <ele>1174.6</ele>
        <time>2021-06-26T08:03:13Z</time>
      </trkpt>
      <trkpt lat="46.15286" lon="6.61509">
        <ele>1174.8</ele>
        <time>2021-06-26T08:03:14Z</time>
      </trkpt>
      <trkpt lat="46.15288" lon="6.61512">
        <ele>1175</ele>
        <time>2021-06-26T08:03:15Z</time>
      </trkpt>
      <trkpt lat="46.1529" lon="6.61515">
        <ele>1175.2</ele>
        <time>2021-06-26T08:03:16Z</time>
      </trkpt>
      <trkpt lat="46.15293" lon="6.61519">
        <ele>1175.4</ele>
        <time>2021-06-26T08:03:17Z</time>
      </trkpt>
      <trkpt lat="46.15296" lon="6.61522">
        <ele>1175.6</ele>
        <time>2021-06-26T08:03:18Z</time>
      </trkpt>
      <trkpt lat="46.15299" lon="6.61525">
        <ele>1175.8</ele>
        <time>2021-06-26T08:03:19Z</time>
      </trkpt>
      <trkpt lat="46.15303" lon="6.61528">
        <ele>1176</ele>
        <time>2021-06-26T08:03:20Z</time>
      </trkpt>
      <trkpt lat="46.15307" lon="6.61531">
        <ele>1176.2</ele>
        <time>2021-06-26T08:03:21Z</time>
      </trkpt>
      <trkpt lat="46.15311" lon="6.61533">
        <ele>1176.4</ele>
        <time>2021-06-26T08:03:22Z</time>
      </trkpt>
      <trkpt lat="46.15315" lon="6.61536">
        <ele>1176.8</ele>
        <time>2021-06-26T08:03:23Z</time>
      </trkpt>
      <trkpt lat="46.15319" lon="6.6154">
        <ele>1177</ele>
        <time>2021-06-26T08:03:24Z</time>
      </trkpt>
      <trkpt lat="46.15323" lon="6.61543">
        <ele>1177.2</ele>
        <time>2021-06-26T08:03:25Z</time>
      </trkpt>
      <trkpt lat="46.15327" lon="6.61545">
        <ele>1177.2</ele>
        <time>2021-06-26T08:03:26Z</time>
      </trkpt>
      <trkpt lat="46.1533" lon="6.61549">
        <ele>1177.6</ele>
        <time>2021-06-26T08:03:27Z</time>
      </trkpt>
      <trkpt lat="46.15333" lon="6.61552">
        <ele>1177.6</ele>
        <time>2021-06-26T08:03:28Z</time>
      </trkpt>
      <trkpt lat="46.15336" lon="6.61556">
        <ele>1177.6</ele>
        <time>2021-06-26T08:03:29Z</time>
      </trkpt>
      <trkpt lat="46.15339" lon="6.61559">
        <ele>1178.2</ele>
        <time>2021-06-26T08:03:30Z</time>
      </trkpt>
      <trkpt lat="46.15342" lon="6.61562">
        <ele>1178.4</ele>
        <time>2021-06-26T08:03:31Z</time>
      </trkpt>
      <trkpt lat="46.15345" lon="6.61565">
        <ele>1178.4</ele>
        <time>2021-06-26T08:03:32Z</time>
      </trkpt>
      <trkpt lat="46.15348" lon="6.61568">
        <ele>1178.6</ele>
        <time>2021-06-26T08:03:33Z</time>
      </trkpt>
      <trkpt lat="46.1535" lon="6.61571">
        <ele>1179</ele>
        <time>2021-06-26T08:03:34Z</time>
      </trkpt>
      <trkpt lat="46.15353" lon="6.61574">
        <ele>1178.8</ele>
        <time>2021-06-26T08:03:35Z</time>
      </trkpt>
      <trkpt lat="46.15356" lon="6.61576">
        <ele>1179</ele>
        <time>2021-06-26T08:03:36Z</time>
      </trkpt>
      <trkpt lat="46.15359" lon="6.61579">
        <ele>1179.2</ele>
        <time>2021-06-26T08:03:37Z</time>
      </trkpt>
      <trkpt lat="46.15362" lon="6.61582">
        <ele>1179.4</ele>
        <time>2021-06-26T08:03:38Z</time>
      </trkpt>
      <trkpt lat="46.15364" lon="6.61585">
        <ele>1179.4</ele>
        <time>2021-06-26T08:03:39Z</time>
      </trkpt>
      <trkpt lat="46.15367" lon="6.61587">
        <ele>1179.6</ele>
        <time>2021-06-26T08:03:40Z</time>
      </trkpt>
      <trkpt lat="46.1537" lon="6.6159">
        <ele>1180</ele>
        <time>2021-06-26T08:03:41Z</time>
      </trkpt>
      <trkpt lat="46.15373" lon="6.61592">
        <ele>1180</ele>
        <time>2021-06-26T08:03:42Z</time>
      </trkpt>
      <trkpt lat="46.15376" lon="6.61595">
        <ele>1180.2</ele>
        <time>2021-06-26T08:03:43Z</time>
      </trkpt>
      <trkpt lat="46.15379" lon="6.61597">
        <ele>1180.2</ele>
        <time>2021-06-26T08:03:44Z</time>
      </trkpt>
      <trkpt lat="46.15382" lon="6.61599">
        <ele>1180.4</ele>
        <time>2021-06-26T08:03:45Z</time>
      </trkpt>
      <trkpt lat="46.15385" lon="6.61602">
        <ele>1180.4</ele>
        <time>2021-06-26T08:03:46Z</time>
      </trkpt>
      <trkpt lat="46.15388" lon="6.61604">
        <ele>1180.6</ele>
        <time>2021-06-26T08:03:47Z</time>
      </trkpt>
      <trkpt lat="46.15391" lon="6.61606">
        <ele>1180.8</ele>
        <time>2021-06-26T08:03:48Z</time>
      </trkpt>
      <trkpt lat="46.15394" lon="6.61608">
        <ele>1180.8</ele>
        <time>2021-06-26T08:03:49Z</time>
      </trkpt>
      <trkpt lat="46.15397" lon="6.61611">
        <ele>1181.2</ele>
        <time>2021-06-26T08:03:50Z</time>
      </trkpt>
      <trkpt lat="46.15401" lon="6.61613">
        <ele>1181.4</ele>
        <time>2021-06-26T08:03:51Z</time>
      </trkpt>
      <trkpt lat="46.15404" lon="6.61615">
        <ele>1181.6</ele>
        <time>2021-06-26T08:03:52Z</time>
      </trkpt>
      <trkpt lat="46.15408" lon="6.61618">
        <ele>1181.8</ele>
        <time>2021-06-26T08:03:53Z</time>
      </trkpt>
      <trkpt lat="46.15411" lon="6.6162">
        <ele>1182</ele>
        <time>2021-06-26T08:03:54Z</time>
      </trkpt>
      <trkpt lat="46.15415" lon="6.61623">
        <ele>1182.2</ele>
        <time>2021-06-26T08:03:55Z</time>
      </trkpt>
      <trkpt lat="46.15418" lon="6.61625">
        <ele>1182.2</ele>
        <time>2021-06-26T08:03:56Z</time>
      </trkpt>
      <trkpt lat="46.15421" lon="6.61628">
        <ele>1182.4</ele>
        <time>2021-06-26T08:03:57Z</time>
      </trkpt>
      <trkpt lat="46.15424" lon="6.61631">
        <ele>1182.4</ele>
        <time>2021-06-26T08:03:58Z</time>
      </trkpt>
      <trkpt lat="46.15427" lon="6.61634">
        <ele>1182.4</ele>
        <time>2021-06-26T08:03:59Z</time>
      </trkpt>
      <trkpt lat="46.1543" lon="6.61637">
        <ele>1182.4</ele>
        <time>2021-06-26T08:04:00Z</time>
      </trkpt>
      <trkpt lat="46.15434" lon="6.61641">
        <ele>1182.6</ele>
        <time>2021-06-26T08:04:01Z</time>
      </trkpt>
      <trkpt lat="46.15437" lon="6.61644">
        <ele>1182.6</ele>
        <time>2021-06-26T08:04:02Z</time>
      </trkpt>
      <trkpt lat="46.15441" lon="6.61648">
        <ele>1182.8</ele>
        <time>2021-06-26T08:04:03Z</time>
      </trkpt>
      <trkpt lat="46.15445" lon="6.61651">
        <ele>1182.8</ele>
        <time>2021-06-26T08:04:04Z</time>
      </trkpt>
      <trkpt lat="46.15448" lon="6.61655">
        <ele>1182.8</ele>
        <time>2021-06-26T08:04:05Z</time>
      </trkpt>
      <trkpt lat="46.15451" lon="6.61659">
        <ele>1183</ele>
        <time>2021-06-26T08:04:06Z</time>
      </trkpt>
      <trkpt lat="46.15454" lon="6.61663">
        <ele>1183</ele>
        <time>2021-06-26T08:04:07Z</time>
      </trkpt>
      <trkpt lat="46.1546" lon="6.61672">
        <ele>1183</ele>
        <time>2021-06-26T08:04:09Z</time>
      </trkpt>
      <trkpt lat="46.15467" lon="6.61682">
        <ele>1183</ele>
        <time>2021-06-26T08:04:11Z</time>
      </trkpt>
      <trkpt lat="46.15476" lon="6.61691">
        <ele>1183</ele>
        <time>2021-06-26T08:04:13Z</time>
      </trkpt>
      <trkpt lat="46.15496" lon="6.61706">
        <ele>1183</ele>
        <time>2021-06-26T08:04:17Z</time>
      </trkpt>
      <trkpt lat="46.15502" lon="6.6171">
        <ele>1183</ele>
        <time>2021-06-26T08:04:18Z</time>
      </trkpt>
      <trkpt lat="46.15507" lon="6.61713">
        <ele>1182.6</ele>
        <time>2021-06-26T08:04:19Z</time>
      </trkpt>
      <trkpt lat="46.15512" lon="6.61716">
        <ele>1182</ele>
        <time>2021-06-26T08:04:20Z</time>
      </trkpt>
      <trkpt lat="46.15533" lon="6.61728">
        <ele>1181.4</ele>
        <time>2021-06-26T08:04:24Z</time>
      </trkpt>
      <trkpt lat="46.15538" lon="6.61731">
        <ele>1181.4</ele>
        <time>2021-06-26T08:04:25Z</time>
      </trkpt>
      <trkpt lat="46.15571" lon="6.61751">
        <ele>1181.2</ele>
        <time>2021-06-26T08:04:31Z</time>
      </trkpt>
      <trkpt lat="46.15577" lon="6.61754">
        <ele>1181.2</ele>
        <time>2021-06-26T08:04:32Z</time>
      </trkpt>
      <trkpt lat="46.15583" lon="6.61756">
        <ele>1181.2</ele>
        <time>2021-06-26T08:04:33Z</time>
      </trkpt>
      <trkpt lat="46.15589" lon="6.61757">
        <ele>1181.2</ele>
        <time>2021-06-26T08:04:34Z</time>
      </trkpt>
      <trkpt lat="46.15595" lon="6.61756">
        <ele>1181.2</ele>
        <time>2021-06-26T08:04:35Z</time>
      </trkpt>
      <trkpt lat="46.15606" lon="6.61755">
        <ele>1181</ele>
        <time>2021-06-26T08:04:37Z</time>
      </trkpt>
      <trkpt lat="46.15637" lon="6.61751">
        <ele>1181.4</ele>
        <time>2021-06-26T08:04:42Z</time>
      </trkpt>
      <trkpt lat="46.15643" lon="6.6175">
        <ele>1181.4</ele>
        <time>2021-06-26T08:04:43Z</time>
      </trkpt>
      <trkpt lat="46.15649" lon="6.61749">
        <ele>1181.4</ele>
        <time>2021-06-26T08:04:44Z</time>
      </trkpt>
      <trkpt lat="46.15661" lon="6.61746">
        <ele>1181.6</ele>
        <time>2021-06-26T08:04:46Z</time>
      </trkpt>
      <trkpt lat="46.15667" lon="6.61746">
        <ele>1181.6</ele>
        <time>2021-06-26T08:04:47Z</time>
      </trkpt>
      <trkpt lat="46.15672" lon="6.61746">
        <ele>1181.4</ele>
        <time>2021-06-26T08:04:48Z</time>
      </trkpt>
      <trkpt lat="46.15678" lon="6.61746">
        <ele>1181.6</ele>
        <time>2021-06-26T08:04:49Z</time>
      </trkpt>
      <trkpt lat="46.15696" lon="6.61749">
        <ele>1181.8</ele>
        <time>2021-06-26T08:04:52Z</time>
      </trkpt>
      <trkpt lat="46.15701" lon="6.6175">
        <ele>1181.8</ele>
        <time>2021-06-26T08:04:53Z</time>
      </trkpt>
      <trkpt lat="46.15706" lon="6.61752">
        <ele>1182</ele>
        <time>2021-06-26T08:04:54Z</time>
      </trkpt>
      <trkpt lat="46.15711" lon="6.61754">
        <ele>1182</ele>
        <time>2021-06-26T08:04:55Z</time>
      </trkpt>
      <trkpt lat="46.15716" lon="6.61755">
        <ele>1182.4</ele>
        <time>2021-06-26T08:04:56Z</time>
      </trkpt>
      <trkpt lat="46.1572" lon="6.61757">
        <ele>1182.6</ele>
        <time>2021-06-26T08:04:57Z</time>
      </trkpt>
      <trkpt lat="46.15725" lon="6.61759">
        <ele>1182.6</ele>
        <time>2021-06-26T08:04:58Z</time>
      </trkpt>
      <trkpt lat="46.15729" lon="6.61761">
        <ele>1183</ele>
        <time>2021-06-26T08:04:59Z</time>
      </trkpt>
      <trkpt lat="46.15733" lon="6.61763">
        <ele>1183.2</ele>
        <time>2021-06-26T08:05:00Z</time>
      </trkpt>
      <trkpt lat="46.15736" lon="6.61764">
        <ele>1183.4</ele>
        <time>2021-06-26T08:05:01Z</time>
      </trkpt>
      <trkpt lat="46.1574" lon="6.61766">
        <ele>1183.4</ele>
        <time>2021-06-26T08:05:02Z</time>
      </trkpt>
      <trkpt lat="46.15743" lon="6.61767">
        <ele>1183.6</ele>
        <time>2021-06-26T08:05:03Z</time>
      </trkpt>
      <trkpt lat="46.15747" lon="6.61769">
        <ele>1183.8</ele>
        <time>2021-06-26T08:05:04Z</time>
      </trkpt>
      <trkpt lat="46.1575" lon="6.6177">
        <ele>1184</ele>
        <time>2021-06-26T08:05:05Z</time>
      </trkpt>
      <trkpt lat="46.15753" lon="6.61772">
        <ele>1184.4</ele>
        <time>2021-06-26T08:05:06Z</time>
      </trkpt>
      <trkpt lat="46.15756" lon="6.61774">
        <ele>1184.6</ele>
        <time>2021-06-26T08:05:07Z</time>
      </trkpt>
      <trkpt lat="46.15759" lon="6.61776">
        <ele>1185.2</ele>
        <time>2021-06-26T08:05:08Z</time>
      </trkpt>
      <trkpt lat="46.15762" lon="6.61778">
        <ele>1185.4</ele>
        <time>2021-06-26T08:05:09Z</time>
      </trkpt>
      <trkpt lat="46.15766" lon="6.61779">
        <ele>1185.8</ele>
        <time>2021-06-26T08:05:10Z</time>
      </trkpt>
      <trkpt lat="46.15769" lon="6.6178">
        <ele>1186.4</ele>
        <time>2021-06-26T08:05:11Z</time>
      </trkpt>
      <trkpt lat="46.15771" lon="6.61781">
        <ele>1186.4</ele>
        <time>2021-06-26T08:05:12Z</time>
      </trkpt>
      <trkpt lat="46.15773" lon="6.61781">
        <ele>1186.8</ele>
        <time>2021-06-26T08:05:13Z</time>
      </trkpt>
      <trkpt lat="46.15776" lon="6.61782">
        <ele>1187</ele>
        <time>2021-06-26T08:05:14Z</time>
      </trkpt>
      <trkpt lat="46.15778" lon="6.61782">
        <ele>1187.4</ele>
        <time>2021-06-26T08:05:15Z</time>
      </trkpt>
      <trkpt lat="46.15781" lon="6.61784">
        <ele>1187.6</ele>
        <time>2021-06-26T08:05:16Z</time>
      </trkpt>
      <trkpt lat="46.15785" lon="6.61786">
        <ele>1187.8</ele>
        <time>2021-06-26T08:05:17Z</time>
      </trkpt>
      <trkpt lat="46.15788" lon="6.61788">
        <ele>1188</ele>
        <time>2021-06-26T08:05:18Z</time>
      </trkpt>
      <trkpt lat="46.15792" lon="6.61791">
        <ele>1188</ele>
        <time>2021-06-26T08:05:19Z</time>
      </trkpt>
      <trkpt lat="46.15796" lon="6.61793">
        <ele>1188.4</ele>
        <time>2021-06-26T08:05:20Z</time>
      </trkpt>
      <trkpt lat="46.15801" lon="6.61795">
        <ele>1188.4</ele>
        <time>2021-06-26T08:05:21Z</time>
      </trkpt>
      <trkpt lat="46.15806" lon="6.61796">
        <ele>1188.2</ele>
        <time>2021-06-26T08:05:22Z</time>
      </trkpt>
      <trkpt lat="46.15811" lon="6.61798">
        <ele>1188.4</ele>
        <time>2021-06-26T08:05:23Z</time>
      </trkpt>
      <trkpt lat="46.15816" lon="6.618">
        <ele>1188.4</ele>
        <time>2021-06-26T08:05:24Z</time>
      </trkpt>
      <trkpt lat="46.15822" lon="6.61802">
        <ele>1188.4</ele>
        <time>2021-06-26T08:05:25Z</time>
      </trkpt>
      <trkpt lat="46.15827" lon="6.61804">
        <ele>1188.4</ele>
        <time>2021-06-26T08:05:26Z</time>
      </trkpt>
      <trkpt lat="46.15833" lon="6.61807">
        <ele>1188.4</ele>
        <time>2021-06-26T08:05:27Z</time>
      </trkpt>
      <trkpt lat="46.15845" lon="6.61811">
        <ele>1188.6</ele>
        <time>2021-06-26T08:05:29Z</time>
      </trkpt>
      <trkpt lat="46.15851" lon="6.61814">
        <ele>1188.4</ele>
        <time>2021-06-26T08:05:30Z</time>
      </trkpt>
      <trkpt lat="46.15858" lon="6.61816">
        <ele>1188.4</ele>
        <time>2021-06-26T08:05:31Z</time>
      </trkpt>
      <trkpt lat="46.15864" lon="6.61819">
        <ele>1188.4</ele>
        <time>2021-06-26T08:05:32Z</time>
      </trkpt>
      <trkpt lat="46.1587" lon="6.61821">
        <ele>1188.4</ele>
        <time>2021-06-26T08:05:33Z</time>
      </trkpt>
      <trkpt lat="46.15875" lon="6.61824">
        <ele>1188.4</ele>
        <time>2021-06-26T08:05:34Z</time>
      </trkpt>
      <trkpt lat="46.1588" lon="6.61826">
        <ele>1188.4</ele>
        <time>2021-06-26T08:05:35Z</time>
      </trkpt>
      <trkpt lat="46.15885" lon="6.61828">
        <ele>1188.4</ele>
        <time>2021-06-26T08:05:36Z</time>
      </trkpt>
      <trkpt lat="46.15891" lon="6.6183">
        <ele>1188.4</ele>
        <time>2021-06-26T08:05:37Z</time>
      </trkpt>
      <trkpt lat="46.15901" lon="6.61834">
        <ele>1188.4</ele>
        <time>2021-06-26T08:05:39Z</time>
      </trkpt>
      <trkpt lat="46.15906" lon="6.61835">
        <ele>1188.6</ele>
        <time>2021-06-26T08:05:40Z</time>
      </trkpt>
      <trkpt lat="46.1591" lon="6.61836">
        <ele>1188.8</ele>
        <time>2021-06-26T08:05:41Z</time>
      </trkpt>
      <trkpt lat="46.15915" lon="6.61837">
        <ele>1188.8</ele>
        <time>2021-06-26T08:05:42Z</time>
      </trkpt>
      <trkpt lat="46.15919" lon="6.61838">
        <ele>1189.2</ele>
        <time>2021-06-26T08:05:43Z</time>
      </trkpt>
      <trkpt lat="46.15923" lon="6.6184">
        <ele>1189.2</ele>
        <time>2021-06-26T08:05:44Z</time>
      </trkpt>
      <trkpt lat="46.15927" lon="6.61841">
        <ele>1189.4</ele>
        <time>2021-06-26T08:05:45Z</time>
      </trkpt>
      <trkpt lat="46.15931" lon="6.61842">
        <ele>1189.6</ele>
        <time>2021-06-26T08:05:46Z</time>
      </trkpt>
      <trkpt lat="46.15936" lon="6.61844">
        <ele>1189.8</ele>
        <time>2021-06-26T08:05:47Z</time>
      </trkpt>
      <trkpt lat="46.1594" lon="6.61845">
        <ele>1189.8</ele>
        <time>2021-06-26T08:05:48Z</time>
      </trkpt>
      <trkpt lat="46.15944" lon="6.61846">
        <ele>1189.8</ele>
        <time>2021-06-26T08:05:49Z</time>
      </trkpt>
      <trkpt lat="46.15948" lon="6.61847">
        <ele>1190</ele>
        <time>2021-06-26T08:05:50Z</time>
      </trkpt>
      <trkpt lat="46.15952" lon="6.61849">
        <ele>1190.4</ele>
        <time>2021-06-26T08:05:51Z</time>
      </trkpt>
      <trkpt lat="46.15956" lon="6.6185">
        <ele>1191</ele>
        <time>2021-06-26T08:05:52Z</time>
      </trkpt>
      <trkpt lat="46.1596" lon="6.61851">
        <ele>1191.4</ele>
        <time>2021-06-26T08:05:53Z</time>
      </trkpt>
      <trkpt lat="46.15964" lon="6.61853">
        <ele>1191.6</ele>
        <time>2021-06-26T08:05:54Z</time>
      </trkpt>
      <trkpt lat="46.15969" lon="6.61854">
        <ele>1192</ele>
        <time>2021-06-26T08:05:55Z</time>
      </trkpt>
      <trkpt lat="46.15973" lon="6.61856">
        <ele>1192.4</ele>
        <time>2021-06-26T08:05:56Z</time>
      </trkpt>
      <trkpt lat="46.15977" lon="6.61857">
        <ele>1192.6</ele>
        <time>2021-06-26T08:05:57Z</time>
      </trkpt>
      <trkpt lat="46.15982" lon="6.61858">
        <ele>1192.8</ele>
        <time>2021-06-26T08:05:58Z</time>
      </trkpt>
      <trkpt lat="46.15986" lon="6.61859">
        <ele>1193</ele>
        <time>2021-06-26T08:05:59Z</time>
      </trkpt>
      <trkpt lat="46.1599" lon="6.6186">
        <ele>1193</ele>
        <time>2021-06-26T08:06:00Z</time>
      </trkpt>
      <trkpt lat="46.15995" lon="6.6186">
        <ele>1193</ele>
        <time>2021-06-26T08:06:01Z</time>
      </trkpt>
      <trkpt lat="46.15999" lon="6.61861">
        <ele>1193.2</ele>
        <time>2021-06-26T08:06:02Z</time>
      </trkpt>
      <trkpt lat="46.16003" lon="6.61861">
        <ele>1193.4</ele>
        <time>2021-06-26T08:06:03Z</time>
      </trkpt>
      <trkpt lat="46.16007" lon="6.61861">
        <ele>1193.4</ele>
        <time>2021-06-26T08:06:04Z</time>
      </trkpt>
      <trkpt lat="46.16012" lon="6.61861">
        <ele>1193.6</ele>
        <time>2021-06-26T08:06:05Z</time>
      </trkpt>
      <trkpt lat="46.16016" lon="6.61861">
        <ele>1193.6</ele>
        <time>2021-06-26T08:06:06Z</time>
      </trkpt>
      <trkpt lat="46.16019" lon="6.61861">
        <ele>1193.8</ele>
        <time>2021-06-26T08:06:07Z</time>
      </trkpt>
      <trkpt lat="46.16023" lon="6.61861">
        <ele>1194.2</ele>
        <time>2021-06-26T08:06:08Z</time>
      </trkpt>
      <trkpt lat="46.16026" lon="6.61862">
        <ele>1194.4</ele>
        <time>2021-06-26T08:06:09Z</time>
      </trkpt>
      <trkpt lat="46.16029" lon="6.61862">
        <ele>1194.4</ele>
        <time>2021-06-26T08:06:10Z</time>
      </trkpt>
      <trkpt lat="46.16031" lon="6.61863">
        <ele>1194.6</ele>
        <time>2021-06-26T08:06:11Z</time>
      </trkpt>
      <trkpt lat="46.16034" lon="6.61864">
        <ele>1195</ele>
        <time>2021-06-26T08:06:12Z</time>
      </trkpt>
      <trkpt lat="46.16036" lon="6.61864">
        <ele>1195</ele>
        <time>2021-06-26T08:06:13Z</time>
      </trkpt>
      <trkpt lat="46.1604" lon="6.61865">
        <ele>1195.2</ele>
        <time>2021-06-26T08:06:14Z</time>
      </trkpt>
      <trkpt lat="46.16043" lon="6.61864">
        <ele>1195.2</ele>
        <time>2021-06-26T08:06:15Z</time>
      </trkpt>
      <trkpt lat="46.16047" lon="6.61864">
        <ele>1195.4</ele>
        <time>2021-06-26T08:06:16Z</time>
      </trkpt>
      <trkpt lat="46.16051" lon="6.61863">
        <ele>1195.6</ele>
        <time>2021-06-26T08:06:17Z</time>
      </trkpt>
      <trkpt lat="46.16056" lon="6.61863">
        <ele>1195.8</ele>
        <time>2021-06-26T08:06:18Z</time>
      </trkpt>
      <trkpt lat="46.16061" lon="6.61862">
        <ele>1196</ele>
        <time>2021-06-26T08:06:19Z</time>
      </trkpt>
      <trkpt lat="46.16066" lon="6.61862">
        <ele>1196.2</ele>
        <time>2021-06-26T08:06:20Z</time>
      </trkpt>
      <trkpt lat="46.16071" lon="6.61862">
        <ele>1196.4</ele>
        <time>2021-06-26T08:06:21Z</time>
      </trkpt>
      <trkpt lat="46.16077" lon="6.61861">
        <ele>1196.4</ele>
        <time>2021-06-26T08:06:22Z</time>
      </trkpt>
      <trkpt lat="46.16082" lon="6.61862">
        <ele>1196.4</ele>
        <time>2021-06-26T08:06:23Z</time>
      </trkpt>
      <trkpt lat="46.16088" lon="6.61862">
        <ele>1196.4</ele>
        <time>2021-06-26T08:06:24Z</time>
      </trkpt>
      <trkpt lat="46.16093" lon="6.61862">
        <ele>1196.6</ele>
        <time>2021-06-26T08:06:25Z</time>
      </trkpt>
      <trkpt lat="46.16098" lon="6.61862">
        <ele>1196.6</ele>
        <time>2021-06-26T08:06:26Z</time>
      </trkpt>
      <trkpt lat="46.16104" lon="6.61862">
        <ele>1196.8</ele>
        <time>2021-06-26T08:06:27Z</time>
      </trkpt>
      <trkpt lat="46.16125" lon="6.61865">
        <ele>1196.8</ele>
        <time>2021-06-26T08:06:31Z</time>
      </trkpt>
      <trkpt lat="46.16136" lon="6.61866">
        <ele>1196.6</ele>
        <time>2021-06-26T08:06:33Z</time>
      </trkpt>
      <trkpt lat="46.16141" lon="6.61867">
        <ele>1196.8</ele>
        <time>2021-06-26T08:06:34Z</time>
      </trkpt>
      <trkpt lat="46.16145" lon="6.61868">
        <ele>1196.8</ele>
        <time>2021-06-26T08:06:35Z</time>
      </trkpt>
      <trkpt lat="46.1615" lon="6.61868">
        <ele>1196.6</ele>
        <time>2021-06-26T08:06:36Z</time>
      </trkpt>
      <trkpt lat="46.16154" lon="6.61869">
        <ele>1196.6</ele>
        <time>2021-06-26T08:06:37Z</time>
      </trkpt>
      <trkpt lat="46.16158" lon="6.61869">
        <ele>1196.8</ele>
        <time>2021-06-26T08:06:38Z</time>
      </trkpt>
      <trkpt lat="46.16162" lon="6.6187">
        <ele>1196.8</ele>
        <time>2021-06-26T08:06:39Z</time>
      </trkpt>
      <trkpt lat="46.16165" lon="6.61872">
        <ele>1197</ele>
        <time>2021-06-26T08:06:40Z</time>
      </trkpt>
      <trkpt lat="46.16169" lon="6.61873">
        <ele>1197.2</ele>
        <time>2021-06-26T08:06:41Z</time>
      </trkpt>
      <trkpt lat="46.16173" lon="6.61875">
        <ele>1197.2</ele>
        <time>2021-06-26T08:06:42Z</time>
      </trkpt>
      <trkpt lat="46.16177" lon="6.61876">
        <ele>1197.4</ele>
        <time>2021-06-26T08:06:43Z</time>
      </trkpt>
      <trkpt lat="46.16181" lon="6.61877">
        <ele>1197.8</ele>
        <time>2021-06-26T08:06:44Z</time>
      </trkpt>
      <trkpt lat="46.16185" lon="6.61879">
        <ele>1198</ele>
        <time>2021-06-26T08:06:45Z</time>
      </trkpt>
      <trkpt lat="46.16189" lon="6.61881">
        <ele>1198.4</ele>
        <time>2021-06-26T08:06:46Z</time>
      </trkpt>
      <trkpt lat="46.16193" lon="6.61882">
        <ele>1198.8</ele>
        <time>2021-06-26T08:06:47Z</time>
      </trkpt>
      <trkpt lat="46.16197" lon="6.61884">
        <ele>1199</ele>
        <time>2021-06-26T08:06:48Z</time>
      </trkpt>
      <trkpt lat="46.16201" lon="6.61886">
        <ele>1199</ele>
        <time>2021-06-26T08:06:49Z</time>
      </trkpt>
      <trkpt lat="46.16205" lon="6.61887">
        <ele>1199.2</ele>
        <time>2021-06-26T08:06:50Z</time>
      </trkpt>
      <trkpt lat="46.16209" lon="6.61888">
        <ele>1199.4</ele>
        <time>2021-06-26T08:06:51Z</time>
      </trkpt>
      <trkpt lat="46.16213" lon="6.61889">
        <ele>1199.4</ele>
        <time>2021-06-26T08:06:52Z</time>
      </trkpt>
      <trkpt lat="46.16216" lon="6.6189">
        <ele>1199.4</ele>
        <time>2021-06-26T08:06:53Z</time>
      </trkpt>
      <trkpt lat="46.16219" lon="6.6189">
        <ele>1199.6</ele>
        <time>2021-06-26T08:06:54Z</time>
      </trkpt>
      <trkpt lat="46.16222" lon="6.61891">
        <ele>1199.6</ele>
        <time>2021-06-26T08:06:55Z</time>
      </trkpt>
      <trkpt lat="46.16225" lon="6.61892">
        <ele>1199.8</ele>
        <time>2021-06-26T08:06:56Z</time>
      </trkpt>
      <trkpt lat="46.16228" lon="6.61892">
        <ele>1199.8</ele>
        <time>2021-06-26T08:06:57Z</time>
      </trkpt>
      <trkpt lat="46.16231" lon="6.61893">
        <ele>1199.8</ele>
        <time>2021-06-26T08:06:58Z</time>
      </trkpt>
      <trkpt lat="46.16234" lon="6.61894">
        <ele>1200</ele>
        <time>2021-06-26T08:06:59Z</time>
      </trkpt>
      <trkpt lat="46.16237" lon="6.61894">
        <ele>1200.2</ele>
        <time>2021-06-26T08:07:00Z</time>
      </trkpt>
      <trkpt lat="46.16239" lon="6.61895">
        <ele>1200.8</ele>
        <time>2021-06-26T08:07:01Z</time>
      </trkpt>
      <trkpt lat="46.16241" lon="6.61896">
        <ele>1201</ele>
        <time>2021-06-26T08:07:02Z</time>
      </trkpt>
      <trkpt lat="46.16244" lon="6.61897">
        <ele>1201.4</ele>
        <time>2021-06-26T08:07:03Z</time>
      </trkpt>
      <trkpt lat="46.16246" lon="6.61898">
        <ele>1202</ele>
        <time>2021-06-26T08:07:04Z</time>
      </trkpt>
      <trkpt lat="46.16249" lon="6.61898">
        <ele>1202.4</ele>
        <time>2021-06-26T08:07:05Z</time>
      </trkpt>
      <trkpt lat="46.16251" lon="6.61898">
        <ele>1202.8</ele>
        <time>2021-06-26T08:07:06Z</time>
      </trkpt>
      <trkpt lat="46.16254" lon="6.61899">
        <ele>1203.2</ele>
        <time>2021-06-26T08:07:07Z</time>
      </trkpt>
      <trkpt lat="46.16256" lon="6.61899">
        <ele>1203.6</ele>
        <time>2021-06-26T08:07:08Z</time>
      </trkpt>
      <trkpt lat="46.16259" lon="6.61899">
        <ele>1203.8</ele>
        <time>2021-06-26T08:07:09Z</time>
      </trkpt>
      <trkpt lat="46.16262" lon="6.619">
        <ele>1204.4</ele>
        <time>2021-06-26T08:07:10Z</time>
      </trkpt>
      <trkpt lat="46.16265" lon="6.619">
        <ele>1204.6</ele>
        <time>2021-06-26T08:07:11Z</time>
      </trkpt>
      <trkpt lat="46.16268" lon="6.619">
        <ele>1205</ele>
        <time>2021-06-26T08:07:12Z</time>
      </trkpt>
      <trkpt lat="46.1627" lon="6.61901">
        <ele>1205.2</ele>
        <time>2021-06-26T08:07:13Z</time>
      </trkpt>
      <trkpt lat="46.16273" lon="6.61901">
        <ele>1205.2</ele>
        <time>2021-06-26T08:07:14Z</time>
      </trkpt>
      <trkpt lat="46.16276" lon="6.61901">
        <ele>1205.4</ele>
        <time>2021-06-26T08:07:15Z</time>
      </trkpt>
      <trkpt lat="46.16278" lon="6.61902">
        <ele>1205.8</ele>
        <time>2021-06-26T08:07:16Z</time>
      </trkpt>
      <trkpt lat="46.16281" lon="6.61902">
        <ele>1206.4</ele>
        <time>2021-06-26T08:07:17Z</time>
      </trkpt>
      <trkpt lat="46.16283" lon="6.61902">
        <ele>1206.8</ele>
        <time>2021-06-26T08:07:18Z</time>
      </trkpt>
      <trkpt lat="46.16286" lon="6.61903">
        <ele>1207</ele>
        <time>2021-06-26T08:07:19Z</time>
      </trkpt>
      <trkpt lat="46.16289" lon="6.61903">
        <ele>1207</ele>
        <time>2021-06-26T08:07:20Z</time>
      </trkpt>
      <trkpt lat="46.16292" lon="6.61903">
        <ele>1207.2</ele>
        <time>2021-06-26T08:07:21Z</time>
      </trkpt>
      <trkpt lat="46.16294" lon="6.61902">
        <ele>1207.8</ele>
        <time>2021-06-26T08:07:22Z</time>
      </trkpt>
      <trkpt lat="46.16296" lon="6.619">
        <ele>1207.8</ele>
        <time>2021-06-26T08:07:23Z</time>
      </trkpt>
      <trkpt lat="46.16296" lon="6.61899">
        <ele>1208.2</ele>
        <time>2021-06-26T08:07:24Z</time>
      </trkpt>
      <trkpt lat="46.16295" lon="6.61898">
        <ele>1208.4</ele>
        <time>2021-06-26T08:07:25Z</time>
      </trkpt>
      <trkpt lat="46.16295" lon="6.61896">
        <ele>1210</ele>
        <time>2021-06-26T08:07:33Z</time>
      </trkpt>
      <trkpt lat="46.16296" lon="6.61896">
        <ele>1209.8</ele>
        <time>2021-06-26T08:07:48Z</time>
      </trkpt>
      <trkpt lat="46.16295" lon="6.61897">
        <ele>1209.8</ele>
        <time>2021-06-26T08:08:05Z</time>
      </trkpt>
      <trkpt lat="46.16296" lon="6.61896">
        <ele>1209.8</ele>
        <time>2021-06-26T08:08:20Z</time>
      </trkpt>
      <trkpt lat="46.16296" lon="6.61896">
        <ele>1209.8</ele>
        <time>2021-06-26T08:08:25Z</time>
      </trkpt>
      <trkpt lat="46.16296" lon="6.61895">
        <ele>1209.8</ele>
        <time>2021-06-26T08:08:39Z</time>
      </trkpt>
      <trkpt lat="46.16297" lon="6.61894">
        <ele>1209.6</ele>
        <time>2021-06-26T08:08:54Z</time>
      </trkpt>
      <trkpt lat="46.16298" lon="6.61897">
        <ele>1209.4</ele>
        <time>2021-06-26T08:09:04Z</time>
      </trkpt>
      <trkpt lat="46.163" lon="6.61902">
        <ele>1209.6</ele>
        <time>2021-06-26T08:09:09Z</time>
      </trkpt>
      <trkpt lat="46.16301" lon="6.61901">
        <ele>1209.6</ele>
        <time>2021-06-26T08:09:10Z</time>
      </trkpt>
      <trkpt lat="46.16302" lon="6.619">
        <ele>1209.8</ele>
        <time>2021-06-26T08:09:11Z</time>
      </trkpt>
      <trkpt lat="46.16304" lon="6.61899">
        <ele>1209.6</ele>
        <time>2021-06-26T08:09:12Z</time>
      </trkpt>
      <trkpt lat="46.16305" lon="6.61899">
        <ele>1209.8</ele>
        <time>2021-06-26T08:09:13Z</time>
      </trkpt>
      <trkpt lat="46.1631" lon="6.61897">
        <ele>1209.8</ele>
        <time>2021-06-26T08:09:15Z</time>
      </trkpt>
      <trkpt lat="46.16316" lon="6.61895">
        <ele>1210</ele>
        <time>2021-06-26T08:09:18Z</time>
      </trkpt>
      <trkpt lat="46.16318" lon="6.61893">
        <ele>1210</ele>
        <time>2021-06-26T08:09:19Z</time>
      </trkpt>
      <trkpt lat="46.16325" lon="6.6189">
        <ele>1210.4</ele>
        <time>2021-06-26T08:09:22Z</time>
      </trkpt>
      <trkpt lat="46.16327" lon="6.61888">
        <ele>1210.8</ele>
        <time>2021-06-26T08:09:23Z</time>
      </trkpt>
      <trkpt lat="46.16329" lon="6.61887">
        <ele>1210.8</ele>
        <time>2021-06-26T08:09:24Z</time>
      </trkpt>
      <trkpt lat="46.16331" lon="6.61886">
        <ele>1211</ele>
        <time>2021-06-26T08:09:25Z</time>
      </trkpt>
      <trkpt lat="46.16333" lon="6.61884">
        <ele>1211.2</ele>
        <time>2021-06-26T08:09:26Z</time>
      </trkpt>
      <trkpt lat="46.16335" lon="6.61883">
        <ele>1211.6</ele>
        <time>2021-06-26T08:09:27Z</time>
      </trkpt>
      <trkpt lat="46.16337" lon="6.61882">
        <ele>1211.6</ele>
        <time>2021-06-26T08:09:28Z</time>
      </trkpt>
      <trkpt lat="46.16339" lon="6.61881">
        <ele>1212</ele>
        <time>2021-06-26T08:09:29Z</time>
      </trkpt>
      <trkpt lat="46.16341" lon="6.6188">
        <ele>1212.2</ele>
        <time>2021-06-26T08:09:30Z</time>
      </trkpt>
      <trkpt lat="46.16343" lon="6.61879">
        <ele>1212.4</ele>
        <time>2021-06-26T08:09:31Z</time>
      </trkpt>
      <trkpt lat="46.16346" lon="6.61878">
        <ele>1212.6</ele>
        <time>2021-06-26T08:09:32Z</time>
      </trkpt>
      <trkpt lat="46.16348" lon="6.61877">
        <ele>1213.2</ele>
        <time>2021-06-26T08:09:33Z</time>
      </trkpt>
      <trkpt lat="46.1635" lon="6.61876">
        <ele>1213.6</ele>
        <time>2021-06-26T08:09:34Z</time>
      </trkpt>
      <trkpt lat="46.16353" lon="6.61874">
        <ele>1213.8</ele>
        <time>2021-06-26T08:09:35Z</time>
      </trkpt>
      <trkpt lat="46.16355" lon="6.61873">
        <ele>1214.2</ele>
        <time>2021-06-26T08:09:36Z</time>
      </trkpt>
      <trkpt lat="46.16357" lon="6.61872">
        <ele>1214.6</ele>
        <time>2021-06-26T08:09:37Z</time>
      </trkpt>
      <trkpt lat="46.16359" lon="6.61871">
        <ele>1214.6</ele>
        <time>2021-06-26T08:09:38Z</time>
      </trkpt>
      <trkpt lat="46.16361" lon="6.61869">
        <ele>1215</ele>
        <time>2021-06-26T08:09:39Z</time>
      </trkpt>
      <trkpt lat="46.16364" lon="6.61868">
        <ele>1215.4</ele>
        <time>2021-06-26T08:09:40Z</time>
      </trkpt>
      <trkpt lat="46.16366" lon="6.61866">
        <ele>1215.6</ele>
        <time>2021-06-26T08:09:41Z</time>
      </trkpt>
      <trkpt lat="46.16368" lon="6.61865">
        <ele>1215.6</ele>
        <time>2021-06-26T08:09:42Z</time>
      </trkpt>
      <trkpt lat="46.1637" lon="6.61864">
        <ele>1216</ele>
        <time>2021-06-26T08:09:43Z</time>
      </trkpt>
      <trkpt lat="46.16372" lon="6.61862">
        <ele>1216.4</ele>
        <time>2021-06-26T08:09:44Z</time>
      </trkpt>
      <trkpt lat="46.16374" lon="6.61861">
        <ele>1216.6</ele>
        <time>2021-06-26T08:09:45Z</time>
      </trkpt>
      <trkpt lat="46.16376" lon="6.6186">
        <ele>1216.6</ele>
        <time>2021-06-26T08:09:46Z</time>
      </trkpt>
      <trkpt lat="46.16378" lon="6.6186">
        <ele>1216.8</ele>
        <time>2021-06-26T08:09:47Z</time>
      </trkpt>
      <trkpt lat="46.1638" lon="6.61859">
        <ele>1217</ele>
        <time>2021-06-26T08:09:48Z</time>
      </trkpt>
      <trkpt lat="46.16382" lon="6.61858">
        <ele>1217.2</ele>
        <time>2021-06-26T08:09:49Z</time>
      </trkpt>
      <trkpt lat="46.16384" lon="6.61857">
        <ele>1217.2</ele>
        <time>2021-06-26T08:09:50Z</time>
      </trkpt>
      <trkpt lat="46.16387" lon="6.61857">
        <ele>1217.6</ele>
        <time>2021-06-26T08:09:51Z</time>
      </trkpt>
      <trkpt lat="46.16389" lon="6.61856">
        <ele>1218</ele>
        <time>2021-06-26T08:09:52Z</time>
      </trkpt>
      <trkpt lat="46.16392" lon="6.61856">
        <ele>1218.2</ele>
        <time>2021-06-26T08:09:53Z</time>
      </trkpt>
      <trkpt lat="46.16394" lon="6.61855">
        <ele>1218.6</ele>
        <time>2021-06-26T08:09:54Z</time>
      </trkpt>
      <trkpt lat="46.16396" lon="6.61855">
        <ele>1219.2</ele>
        <time>2021-06-26T08:09:55Z</time>
      </trkpt>
      <trkpt lat="46.16399" lon="6.61854">
        <ele>1219.6</ele>
        <time>2021-06-26T08:09:56Z</time>
      </trkpt>
      <trkpt lat="46.16402" lon="6.61853">
        <ele>1219.6</ele>
        <time>2021-06-26T08:09:57Z</time>
      </trkpt>
      <trkpt lat="46.16404" lon="6.61853">
        <ele>1219.8</ele>
        <time>2021-06-26T08:09:58Z</time>
      </trkpt>
      <trkpt lat="46.16407" lon="6.61852">
        <ele>1220</ele>
        <time>2021-06-26T08:09:59Z</time>
      </trkpt>
      <trkpt lat="46.1641" lon="6.61851">
        <ele>1220.4</ele>
        <time>2021-06-26T08:10:00Z</time>
      </trkpt>
      <trkpt lat="46.16413" lon="6.61851">
        <ele>1220.6</ele>
        <time>2021-06-26T08:10:01Z</time>
      </trkpt>
      <trkpt lat="46.16416" lon="6.61851">
        <ele>1221</ele>
        <time>2021-06-26T08:10:02Z</time>
      </trkpt>
      <trkpt lat="46.16419" lon="6.6185">
        <ele>1221.2</ele>
        <time>2021-06-26T08:10:03Z</time>
      </trkpt>
      <trkpt lat="46.16421" lon="6.61849">
        <ele>1221.6</ele>
        <time>2021-06-26T08:10:04Z</time>
      </trkpt>
      <trkpt lat="46.16424" lon="6.61849">
        <ele>1221.8</ele>
        <time>2021-06-26T08:10:05Z</time>
      </trkpt>
      <trkpt lat="46.16427" lon="6.61848">
        <ele>1222</ele>
        <time>2021-06-26T08:10:06Z</time>
      </trkpt>
      <trkpt lat="46.1643" lon="6.61847">
        <ele>1222.4</ele>
        <time>2021-06-26T08:10:07Z</time>
      </trkpt>
      <trkpt lat="46.16433" lon="6.61846">
        <ele>1222.4</ele>
        <time>2021-06-26T08:10:08Z</time>
      </trkpt>
      <trkpt lat="46.16436" lon="6.61845">
        <ele>1222.6</ele>
        <time>2021-06-26T08:10:09Z</time>
      </trkpt>
      <trkpt lat="46.16438" lon="6.61844">
        <ele>1222.8</ele>
        <time>2021-06-26T08:10:10Z</time>
      </trkpt>
      <trkpt lat="46.16441" lon="6.61843">
        <ele>1222.8</ele>
        <time>2021-06-26T08:10:11Z</time>
      </trkpt>
      <trkpt lat="46.16444" lon="6.61842">
        <ele>1222.8</ele>
        <time>2021-06-26T08:10:12Z</time>
      </trkpt>
      <trkpt lat="46.16447" lon="6.6184">
        <ele>1223</ele>
        <time>2021-06-26T08:10:13Z</time>
      </trkpt>
      <trkpt lat="46.16449" lon="6.61839">
        <ele>1223.4</ele>
        <time>2021-06-26T08:10:14Z</time>
      </trkpt>
      <trkpt lat="46.16452" lon="6.61838">
        <ele>1223.6</ele>
        <time>2021-06-26T08:10:15Z</time>
      </trkpt>
      <trkpt lat="46.16454" lon="6.61836">
        <ele>1223.8</ele>
        <time>2021-06-26T08:10:16Z</time>
      </trkpt>
      <trkpt lat="46.16457" lon="6.61835">
        <ele>1223.8</ele>
        <time>2021-06-26T08:10:17Z</time>
      </trkpt>
      <trkpt lat="46.1646" lon="6.61833">
        <ele>1224</ele>
        <time>2021-06-26T08:10:18Z</time>
      </trkpt>
      <trkpt lat="46.16463" lon="6.61832">
        <ele>1224.2</ele>
        <time>2021-06-26T08:10:19Z</time>
      </trkpt>
      <trkpt lat="46.16466" lon="6.61831">
        <ele>1224.4</ele>
        <time>2021-06-26T08:10:20Z</time>
      </trkpt>
      <trkpt lat="46.16468" lon="6.61829">
        <ele>1224.4</ele>
        <time>2021-06-26T08:10:21Z</time>
      </trkpt>
      <trkpt lat="46.16471" lon="6.61827">
        <ele>1224.6</ele>
        <time>2021-06-26T08:10:22Z</time>
      </trkpt>
      <trkpt lat="46.16473" lon="6.61826">
        <ele>1224.8</ele>
        <time>2021-06-26T08:10:23Z</time>
      </trkpt>
      <trkpt lat="46.16475" lon="6.61825">
        <ele>1225</ele>
        <time>2021-06-26T08:10:24Z</time>
      </trkpt>
      <trkpt lat="46.16477" lon="6.61823">
        <ele>1225</ele>
        <time>2021-06-26T08:10:25Z</time>
      </trkpt>
      <trkpt lat="46.16479" lon="6.61822">
        <ele>1225.4</ele>
        <time>2021-06-26T08:10:26Z</time>
      </trkpt>
      <trkpt lat="46.16482" lon="6.61821">
        <ele>1225.2</ele>
        <time>2021-06-26T08:10:27Z</time>
      </trkpt>
      <trkpt lat="46.16484" lon="6.6182">
        <ele>1225.6</ele>
        <time>2021-06-26T08:10:28Z</time>
      </trkpt>
      <trkpt lat="46.16487" lon="6.61818">
        <ele>1226</ele>
        <time>2021-06-26T08:10:29Z</time>
      </trkpt>
      <trkpt lat="46.16489" lon="6.61817">
        <ele>1226.6</ele>
        <time>2021-06-26T08:10:30Z</time>
      </trkpt>
      <trkpt lat="46.16491" lon="6.61815">
        <ele>1227</ele>
        <time>2021-06-26T08:10:31Z</time>
      </trkpt>
      <trkpt lat="46.16493" lon="6.61814">
        <ele>1227.2</ele>
        <time>2021-06-26T08:10:32Z</time>
      </trkpt>
      <trkpt lat="46.16495" lon="6.61812">
        <ele>1227.6</ele>
        <time>2021-06-26T08:10:33Z</time>
      </trkpt>
      <trkpt lat="46.16497" lon="6.61811">
        <ele>1227.8</ele>
        <time>2021-06-26T08:10:34Z</time>
      </trkpt>
      <trkpt lat="46.16499" lon="6.61809">
        <ele>1227.8</ele>
        <time>2021-06-26T08:10:35Z</time>
      </trkpt>
      <trkpt lat="46.16501" lon="6.61808">
        <ele>1227.8</ele>
        <time>2021-06-26T08:10:36Z</time>
      </trkpt>
      <trkpt lat="46.16503" lon="6.61807">
        <ele>1228.2</ele>
        <time>2021-06-26T08:10:37Z</time>
      </trkpt>
      <trkpt lat="46.16506" lon="6.61805">
        <ele>1228.6</ele>
        <time>2021-06-26T08:10:38Z</time>
      </trkpt>
      <trkpt lat="46.16508" lon="6.61804">
        <ele>1228.6</ele>
        <time>2021-06-26T08:10:39Z</time>
      </trkpt>
      <trkpt lat="46.1651" lon="6.61802">
        <ele>1228.8</ele>
        <time>2021-06-26T08:10:40Z</time>
      </trkpt>
      <trkpt lat="46.16512" lon="6.61801">
        <ele>1229</ele>
        <time>2021-06-26T08:10:41Z</time>
      </trkpt>
      <trkpt lat="46.16514" lon="6.61799">
        <ele>1229.4</ele>
        <time>2021-06-26T08:10:42Z</time>
      </trkpt>
      <trkpt lat="46.16516" lon="6.61797">
        <ele>1229.6</ele>
        <time>2021-06-26T08:10:43Z</time>
      </trkpt>
      <trkpt lat="46.16519" lon="6.61796">
        <ele>1229.8</ele>
        <time>2021-06-26T08:10:44Z</time>
      </trkpt>
      <trkpt lat="46.16521" lon="6.61795">
        <ele>1230</ele>
        <time>2021-06-26T08:10:45Z</time>
      </trkpt>
      <trkpt lat="46.16523" lon="6.61793">
        <ele>1230.4</ele>
        <time>2021-06-26T08:10:46Z</time>
      </trkpt>
      <trkpt lat="46.16525" lon="6.61792">
        <ele>1230.6</ele>
        <time>2021-06-26T08:10:47Z</time>
      </trkpt>
      <trkpt lat="46.16526" lon="6.61791">
        <ele>1231</ele>
        <time>2021-06-26T08:10:48Z</time>
      </trkpt>
      <trkpt lat="46.16528" lon="6.61789">
        <ele>1231.2</ele>
        <time>2021-06-26T08:10:49Z</time>
      </trkpt>
      <trkpt lat="46.1653" lon="6.61788">
        <ele>1231.4</ele>
        <time>2021-06-26T08:10:50Z</time>
      </trkpt>
      <trkpt lat="46.16531" lon="6.61787">
        <ele>1231.6</ele>
        <time>2021-06-26T08:10:51Z</time>
      </trkpt>
      <trkpt lat="46.16532" lon="6.61785">
        <ele>1232</ele>
        <time>2021-06-26T08:10:52Z</time>
      </trkpt>
      <trkpt lat="46.16533" lon="6.61784">
        <ele>1232</ele>
        <time>2021-06-26T08:10:53Z</time>
      </trkpt>
      <trkpt lat="46.16535" lon="6.61783">
        <ele>1232.2</ele>
        <time>2021-06-26T08:10:54Z</time>
      </trkpt>
      <trkpt lat="46.16537" lon="6.61783">
        <ele>1232.6</ele>
        <time>2021-06-26T08:10:55Z</time>
      </trkpt>
      <trkpt lat="46.1654" lon="6.61781">
        <ele>1232.8</ele>
        <time>2021-06-26T08:10:56Z</time>
      </trkpt>
      <trkpt lat="46.16542" lon="6.6178">
        <ele>1232.8</ele>
        <time>2021-06-26T08:10:57Z</time>
      </trkpt>
      <trkpt lat="46.16545" lon="6.61779">
        <ele>1233</ele>
        <time>2021-06-26T08:10:58Z</time>
      </trkpt>
      <trkpt lat="46.16547" lon="6.61779">
        <ele>1233.2</ele>
        <time>2021-06-26T08:10:59Z</time>
      </trkpt>
      <trkpt lat="46.1655" lon="6.61777">
        <ele>1233.6</ele>
        <time>2021-06-26T08:11:00Z</time>
      </trkpt>
      <trkpt lat="46.16553" lon="6.61775">
        <ele>1233.8</ele>
        <time>2021-06-26T08:11:01Z</time>
      </trkpt>
      <trkpt lat="46.16555" lon="6.61774">
        <ele>1234</ele>
        <time>2021-06-26T08:11:02Z</time>
      </trkpt>
      <trkpt lat="46.16557" lon="6.61772">
        <ele>1234.2</ele>
        <time>2021-06-26T08:11:03Z</time>
      </trkpt>
      <trkpt lat="46.16559" lon="6.61771">
        <ele>1234.4</ele>
        <time>2021-06-26T08:11:04Z</time>
      </trkpt>
      <trkpt lat="46.16561" lon="6.61769">
        <ele>1234.6</ele>
        <time>2021-06-26T08:11:05Z</time>
      </trkpt>
      <trkpt lat="46.16563" lon="6.61768">
        <ele>1234.8</ele>
        <time>2021-06-26T08:11:06Z</time>
      </trkpt>
      <trkpt lat="46.16566" lon="6.61766">
        <ele>1235</ele>
        <time>2021-06-26T08:11:07Z</time>
      </trkpt>
      <trkpt lat="46.16568" lon="6.61765">
        <ele>1235.2</ele>
        <time>2021-06-26T08:11:08Z</time>
      </trkpt>
      <trkpt lat="46.1657" lon="6.61764">
        <ele>1235.4</ele>
        <time>2021-06-26T08:11:09Z</time>
      </trkpt>
      <trkpt lat="46.16573" lon="6.61763">
        <ele>1235.4</ele>
        <time>2021-06-26T08:11:10Z</time>
      </trkpt>
      <trkpt lat="46.16576" lon="6.61763">
        <ele>1235.8</ele>
        <time>2021-06-26T08:11:11Z</time>
      </trkpt>
      <trkpt lat="46.16578" lon="6.61762">
        <ele>1236</ele>
        <time>2021-06-26T08:11:12Z</time>
      </trkpt>
      <trkpt lat="46.1658" lon="6.61761">
        <ele>1236.2</ele>
        <time>2021-06-26T08:11:13Z</time>
      </trkpt>
      <trkpt lat="46.16582" lon="6.6176">
        <ele>1236.4</ele>
        <time>2021-06-26T08:11:14Z</time>
      </trkpt>
      <trkpt lat="46.16584" lon="6.61759">
        <ele>1236.8</ele>
        <time>2021-06-26T08:11:15Z</time>
      </trkpt>
      <trkpt lat="46.16585" lon="6.61757">
        <ele>1237</ele>
        <time>2021-06-26T08:11:16Z</time>
      </trkpt>
      <trkpt lat="46.16587" lon="6.61756">
        <ele>1237.4</ele>
        <time>2021-06-26T08:11:17Z</time>
      </trkpt>
      <trkpt lat="46.1659" lon="6.61754">
        <ele>1237.6</ele>
        <time>2021-06-26T08:11:18Z</time>
      </trkpt>
      <trkpt lat="46.16593" lon="6.61753">
        <ele>1237.6</ele>
        <time>2021-06-26T08:11:19Z</time>
      </trkpt>
      <trkpt lat="46.16597" lon="6.61751">
        <ele>1237.8</ele>
        <time>2021-06-26T08:11:20Z</time>
      </trkpt>
      <trkpt lat="46.166" lon="6.6175">
        <ele>1238</ele>
        <time>2021-06-26T08:11:21Z</time>
      </trkpt>
      <trkpt lat="46.16603" lon="6.61748">
        <ele>1238.2</ele>
        <time>2021-06-26T08:11:22Z</time>
      </trkpt>
      <trkpt lat="46.16607" lon="6.61747">
        <ele>1238.4</ele>
        <time>2021-06-26T08:11:23Z</time>
      </trkpt>
      <trkpt lat="46.1661" lon="6.61746">
        <ele>1238.8</ele>
        <time>2021-06-26T08:11:24Z</time>
      </trkpt>
      <trkpt lat="46.16614" lon="6.61744">
        <ele>1239</ele>
        <time>2021-06-26T08:11:25Z</time>
      </trkpt>
      <trkpt lat="46.16617" lon="6.61743">
        <ele>1239.2</ele>
        <time>2021-06-26T08:11:26Z</time>
      </trkpt>
      <trkpt lat="46.1662" lon="6.61742">
        <ele>1239.4</ele>
        <time>2021-06-26T08:11:27Z</time>
      </trkpt>
      <trkpt lat="46.16623" lon="6.6174">
        <ele>1239.4</ele>
        <time>2021-06-26T08:11:28Z</time>
      </trkpt>
      <trkpt lat="46.16626" lon="6.61738">
        <ele>1239.8</ele>
        <time>2021-06-26T08:11:29Z</time>
      </trkpt>
      <trkpt lat="46.16629" lon="6.61737">
        <ele>1240</ele>
        <time>2021-06-26T08:11:30Z</time>
      </trkpt>
      <trkpt lat="46.16632" lon="6.61735">
        <ele>1240.2</ele>
        <time>2021-06-26T08:11:31Z</time>
      </trkpt>
      <trkpt lat="46.16635" lon="6.61734">
        <ele>1240.4</ele>
        <time>2021-06-26T08:11:32Z</time>
      </trkpt>
      <trkpt lat="46.16638" lon="6.61733">
        <ele>1240.4</ele>
        <time>2021-06-26T08:11:33Z</time>
      </trkpt>
      <trkpt lat="46.16641" lon="6.61732">
        <ele>1240.8</ele>
        <time>2021-06-26T08:11:34Z</time>
      </trkpt>
      <trkpt lat="46.16644" lon="6.6173">
        <ele>1241</ele>
        <time>2021-06-26T08:11:35Z</time>
      </trkpt>
      <trkpt lat="46.16647" lon="6.61729">
        <ele>1241</ele>
        <time>2021-06-26T08:11:36Z</time>
      </trkpt>
      <trkpt lat="46.1665" lon="6.61728">
        <ele>1241</ele>
        <time>2021-06-26T08:11:37Z</time>
      </trkpt>
      <trkpt lat="46.16653" lon="6.61727">
        <ele>1241</ele>
        <time>2021-06-26T08:11:38Z</time>
      </trkpt>
      <trkpt lat="46.16656" lon="6.61726">
        <ele>1241</ele>
        <time>2021-06-26T08:11:39Z</time>
      </trkpt>
      <trkpt lat="46.16659" lon="6.61724">
        <ele>1241.2</ele>
        <time>2021-06-26T08:11:40Z</time>
      </trkpt>
      <trkpt lat="46.16662" lon="6.61723">
        <ele>1241.2</ele>
        <time>2021-06-26T08:11:41Z</time>
      </trkpt>
      <trkpt lat="46.16665" lon="6.61722">
        <ele>1241.2</ele>
        <time>2021-06-26T08:11:42Z</time>
      </trkpt>
      <trkpt lat="46.16668" lon="6.61721">
        <ele>1241.4</ele>
        <time>2021-06-26T08:11:43Z</time>
      </trkpt>
      <trkpt lat="46.16671" lon="6.61719">
        <ele>1241.4</ele>
        <time>2021-06-26T08:11:44Z</time>
      </trkpt>
      <trkpt lat="46.16674" lon="6.61718">
        <ele>1241.8</ele>
        <time>2021-06-26T08:11:45Z</time>
      </trkpt>
      <trkpt lat="46.16677" lon="6.61717">
        <ele>1242</ele>
        <time>2021-06-26T08:11:46Z</time>
      </trkpt>
      <trkpt lat="46.1668" lon="6.61715">
        <ele>1242.4</ele>
        <time>2021-06-26T08:11:47Z</time>
      </trkpt>
      <trkpt lat="46.16682" lon="6.61714">
        <ele>1242.4</ele>
        <time>2021-06-26T08:11:48Z</time>
      </trkpt>
      <trkpt lat="46.16685" lon="6.61713">
        <ele>1242.8</ele>
        <time>2021-06-26T08:11:49Z</time>
      </trkpt>
      <trkpt lat="46.16688" lon="6.61712">
        <ele>1243</ele>
        <time>2021-06-26T08:11:50Z</time>
      </trkpt>
      <trkpt lat="46.16691" lon="6.6171">
        <ele>1243.2</ele>
        <time>2021-06-26T08:11:51Z</time>
      </trkpt>
      <trkpt lat="46.16694" lon="6.61709">
        <ele>1243.2</ele>
        <time>2021-06-26T08:11:52Z</time>
      </trkpt>
      <trkpt lat="46.16697" lon="6.61707">
        <ele>1243.4</ele>
        <time>2021-06-26T08:11:53Z</time>
      </trkpt>
      <trkpt lat="46.16699" lon="6.61706">
        <ele>1243.4</ele>
        <time>2021-06-26T08:11:54Z</time>
      </trkpt>
      <trkpt lat="46.16702" lon="6.61704">
        <ele>1243.6</ele>
        <time>2021-06-26T08:11:55Z</time>
      </trkpt>
      <trkpt lat="46.16704" lon="6.61703">
        <ele>1243.8</ele>
        <time>2021-06-26T08:11:56Z</time>
      </trkpt>
      <trkpt lat="46.16706" lon="6.61702">
        <ele>1244</ele>
        <time>2021-06-26T08:11:57Z</time>
      </trkpt>
      <trkpt lat="46.16709" lon="6.617">
        <ele>1244.2</ele>
        <time>2021-06-26T08:11:58Z</time>
      </trkpt>
      <trkpt lat="46.16711" lon="6.61699">
        <ele>1244.4</ele>
        <time>2021-06-26T08:11:59Z</time>
      </trkpt>
      <trkpt lat="46.16714" lon="6.61698">
        <ele>1244.6</ele>
        <time>2021-06-26T08:12:00Z</time>
      </trkpt>
      <trkpt lat="46.16716" lon="6.61697">
        <ele>1245</ele>
        <time>2021-06-26T08:12:01Z</time>
      </trkpt>
      <trkpt lat="46.16719" lon="6.61696">
        <ele>1245.4</ele>
        <time>2021-06-26T08:12:02Z</time>
      </trkpt>
      <trkpt lat="46.16722" lon="6.61695">
        <ele>1245.6</ele>
        <time>2021-06-26T08:12:03Z</time>
      </trkpt>
      <trkpt lat="46.16724" lon="6.61694">
        <ele>1245.6</ele>
        <time>2021-06-26T08:12:04Z</time>
      </trkpt>
      <trkpt lat="46.16727" lon="6.61693">
        <ele>1245.6</ele>
        <time>2021-06-26T08:12:05Z</time>
      </trkpt>
      <trkpt lat="46.1673" lon="6.61692">
        <ele>1246</ele>
        <time>2021-06-26T08:12:06Z</time>
      </trkpt>
      <trkpt lat="46.16732" lon="6.61691">
        <ele>1246.2</ele>
        <time>2021-06-26T08:12:07Z</time>
      </trkpt>
      <trkpt lat="46.16735" lon="6.61689">
        <ele>1246.4</ele>
        <time>2021-06-26T08:12:08Z</time>
      </trkpt>
      <trkpt lat="46.16737" lon="6.61688">
        <ele>1246.6</ele>
        <time>2021-06-26T08:12:09Z</time>
      </trkpt>
      <trkpt lat="46.1674" lon="6.61688">
        <ele>1246.8</ele>
        <time>2021-06-26T08:12:10Z</time>
      </trkpt>
      <trkpt lat="46.16742" lon="6.61687">
        <ele>1246.8</ele>
        <time>2021-06-26T08:12:11Z</time>
      </trkpt>
      <trkpt lat="46.16745" lon="6.61686">
        <ele>1247.2</ele>
        <time>2021-06-26T08:12:12Z</time>
      </trkpt>
      <trkpt lat="46.16748" lon="6.61685">
        <ele>1247.2</ele>
        <time>2021-06-26T08:12:13Z</time>
      </trkpt>
      <trkpt lat="46.1675" lon="6.61684">
        <ele>1247.6</ele>
        <time>2021-06-26T08:12:14Z</time>
      </trkpt>
      <trkpt lat="46.16753" lon="6.61683">
        <ele>1247.6</ele>
        <time>2021-06-26T08:12:15Z</time>
      </trkpt>
      <trkpt lat="46.16755" lon="6.61683">
        <ele>1247.8</ele>
        <time>2021-06-26T08:12:16Z</time>
      </trkpt>
      <trkpt lat="46.16758" lon="6.61682">
        <ele>1248</ele>
        <time>2021-06-26T08:12:17Z</time>
      </trkpt>
      <trkpt lat="46.1676" lon="6.61681">
        <ele>1248.2</ele>
        <time>2021-06-26T08:12:18Z</time>
      </trkpt>
      <trkpt lat="46.16763" lon="6.61681">
        <ele>1248.4</ele>
        <time>2021-06-26T08:12:19Z</time>
      </trkpt>
      <trkpt lat="46.16765" lon="6.6168">
        <ele>1248.8</ele>
        <time>2021-06-26T08:12:20Z</time>
      </trkpt>
      <trkpt lat="46.16767" lon="6.61679">
        <ele>1248.6</ele>
        <time>2021-06-26T08:12:21Z</time>
      </trkpt>
      <trkpt lat="46.16769" lon="6.61679">
        <ele>1249</ele>
        <time>2021-06-26T08:12:22Z</time>
      </trkpt>
      <trkpt lat="46.16771" lon="6.61678">
        <ele>1249.2</ele>
        <time>2021-06-26T08:12:23Z</time>
      </trkpt>
      <trkpt lat="46.16773" lon="6.61677">
        <ele>1249.4</ele>
        <time>2021-06-26T08:12:24Z</time>
      </trkpt>
      <trkpt lat="46.16776" lon="6.61677">
        <ele>1249.8</ele>
        <time>2021-06-26T08:12:25Z</time>
      </trkpt>
      <trkpt lat="46.16779" lon="6.61677">
        <ele>1250</ele>
        <time>2021-06-26T08:12:26Z</time>
      </trkpt>
      <trkpt lat="46.16782" lon="6.61677">
        <ele>1250</ele>
        <time>2021-06-26T08:12:27Z</time>
      </trkpt>
      <trkpt lat="46.16785" lon="6.61677">
        <ele>1250.2</ele>
        <time>2021-06-26T08:12:28Z</time>
      </trkpt>
      <trkpt lat="46.16789" lon="6.61677">
        <ele>1250.4</ele>
        <time>2021-06-26T08:12:29Z</time>
      </trkpt>
      <trkpt lat="46.16791" lon="6.61676">
        <ele>1250.4</ele>
        <time>2021-06-26T08:12:30Z</time>
      </trkpt>
      <trkpt lat="46.16794" lon="6.61676">
        <ele>1250.8</ele>
        <time>2021-06-26T08:12:31Z</time>
      </trkpt>
      <trkpt lat="46.16797" lon="6.61675">
        <ele>1251</ele>
        <time>2021-06-26T08:12:32Z</time>
      </trkpt>
      <trkpt lat="46.168" lon="6.61674">
        <ele>1251.2</ele>
        <time>2021-06-26T08:12:33Z</time>
      </trkpt>
      <trkpt lat="46.16803" lon="6.61674">
        <ele>1251.4</ele>
        <time>2021-06-26T08:12:34Z</time>
      </trkpt>
      <trkpt lat="46.16805" lon="6.61674">
        <ele>1252</ele>
        <time>2021-06-26T08:12:35Z</time>
      </trkpt>
      <trkpt lat="46.16807" lon="6.61674">
        <ele>1252</ele>
        <time>2021-06-26T08:12:36Z</time>
      </trkpt>
      <trkpt lat="46.1681" lon="6.61673">
        <ele>1252.2</ele>
        <time>2021-06-26T08:12:37Z</time>
      </trkpt>
      <trkpt lat="46.16812" lon="6.61673">
        <ele>1252.4</ele>
        <time>2021-06-26T08:12:38Z</time>
      </trkpt>
      <trkpt lat="46.16814" lon="6.61672">
        <ele>1252.6</ele>
        <time>2021-06-26T08:12:39Z</time>
      </trkpt>
      <trkpt lat="46.16817" lon="6.61672">
        <ele>1252.8</ele>
        <time>2021-06-26T08:12:40Z</time>
      </trkpt>
      <trkpt lat="46.1682" lon="6.61671">
        <ele>1253</ele>
        <time>2021-06-26T08:12:41Z</time>
      </trkpt>
      <trkpt lat="46.16823" lon="6.61671">
        <ele>1253.2</ele>
        <time>2021-06-26T08:12:42Z</time>
      </trkpt>
      <trkpt lat="46.16826" lon="6.61671">
        <ele>1253.4</ele>
        <time>2021-06-26T08:12:43Z</time>
      </trkpt>
      <trkpt lat="46.16828" lon="6.6167">
        <ele>1253.6</ele>
        <time>2021-06-26T08:12:44Z</time>
      </trkpt>
      <trkpt lat="46.16831" lon="6.6167">
        <ele>1253.6</ele>
        <time>2021-06-26T08:12:45Z</time>
      </trkpt>
      <trkpt lat="46.16834" lon="6.61669">
        <ele>1253.8</ele>
        <time>2021-06-26T08:12:46Z</time>
      </trkpt>
      <trkpt lat="46.16836" lon="6.6167">
        <ele>1254.2</ele>
        <time>2021-06-26T08:12:47Z</time>
      </trkpt>
      <trkpt lat="46.16839" lon="6.6167">
        <ele>1254.4</ele>
        <time>2021-06-26T08:12:48Z</time>
      </trkpt>
      <trkpt lat="46.16842" lon="6.61669">
        <ele>1254.8</ele>
        <time>2021-06-26T08:12:49Z</time>
      </trkpt>
      <trkpt lat="46.16845" lon="6.61669">
        <ele>1254.8</ele>
        <time>2021-06-26T08:12:50Z</time>
      </trkpt>
      <trkpt lat="46.16847" lon="6.61669">
        <ele>1255.2</ele>
        <time>2021-06-26T08:12:51Z</time>
      </trkpt>
      <trkpt lat="46.1685" lon="6.61668">
        <ele>1255.2</ele>
        <time>2021-06-26T08:12:52Z</time>
      </trkpt>
      <trkpt lat="46.16853" lon="6.61668">
        <ele>1255.6</ele>
        <time>2021-06-26T08:12:53Z</time>
      </trkpt>
      <trkpt lat="46.16855" lon="6.61667">
        <ele>1255.8</ele>
        <time>2021-06-26T08:12:54Z</time>
      </trkpt>
      <trkpt lat="46.16858" lon="6.61667">
        <ele>1256.2</ele>
        <time>2021-06-26T08:12:55Z</time>
      </trkpt>
      <trkpt lat="46.1686" lon="6.61667">
        <ele>1256.4</ele>
        <time>2021-06-26T08:12:56Z</time>
      </trkpt>
      <trkpt lat="46.16862" lon="6.61667">
        <ele>1256.8</ele>
        <time>2021-06-26T08:12:57Z</time>
      </trkpt>
      <trkpt lat="46.16865" lon="6.61667">
        <ele>1257.2</ele>
        <time>2021-06-26T08:12:58Z</time>
      </trkpt>
      <trkpt lat="46.16867" lon="6.61667">
        <ele>1257.4</ele>
        <time>2021-06-26T08:12:59Z</time>
      </trkpt>
      <trkpt lat="46.1687" lon="6.61666">
        <ele>1257.6</ele>
        <time>2021-06-26T08:13:00Z</time>
      </trkpt>
      <trkpt lat="46.16872" lon="6.61666">
        <ele>1257.8</ele>
        <time>2021-06-26T08:13:01Z</time>
      </trkpt>
      <trkpt lat="46.16875" lon="6.61665">
        <ele>1258</ele>
        <time>2021-06-26T08:13:02Z</time>
      </trkpt>
      <trkpt lat="46.16877" lon="6.61665">
        <ele>1258.2</ele>
        <time>2021-06-26T08:13:03Z</time>
      </trkpt>
      <trkpt lat="46.1688" lon="6.61664">
        <ele>1258.4</ele>
        <time>2021-06-26T08:13:04Z</time>
      </trkpt>
      <trkpt lat="46.16882" lon="6.61664">
        <ele>1258.6</ele>
        <time>2021-06-26T08:13:05Z</time>
      </trkpt>
      <trkpt lat="46.16885" lon="6.61663">
        <ele>1258.8</ele>
        <time>2021-06-26T08:13:06Z</time>
      </trkpt>
      <trkpt lat="46.16887" lon="6.61662">
        <ele>1259.2</ele>
        <time>2021-06-26T08:13:07Z</time>
      </trkpt>
      <trkpt lat="46.16889" lon="6.61662">
        <ele>1259.2</ele>
        <time>2021-06-26T08:13:08Z</time>
      </trkpt>
      <trkpt lat="46.16892" lon="6.61661">
        <ele>1259.6</ele>
        <time>2021-06-26T08:13:09Z</time>
      </trkpt>
      <trkpt lat="46.16894" lon="6.61661">
        <ele>1259.8</ele>
        <time>2021-06-26T08:13:10Z</time>
      </trkpt>
      <trkpt lat="46.16897" lon="6.6166">
        <ele>1260.2</ele>
        <time>2021-06-26T08:13:11Z</time>
      </trkpt>
      <trkpt lat="46.16899" lon="6.6166">
        <ele>1260.4</ele>
        <time>2021-06-26T08:13:12Z</time>
      </trkpt>
      <trkpt lat="46.16901" lon="6.6166">
        <ele>1260.4</ele>
        <time>2021-06-26T08:13:13Z</time>
      </trkpt>
      <trkpt lat="46.16903" lon="6.6166">
        <ele>1260.4</ele>
        <time>2021-06-26T08:13:14Z</time>
      </trkpt>
      <trkpt lat="46.16905" lon="6.6166">
        <ele>1260.8</ele>
        <time>2021-06-26T08:13:15Z</time>
      </trkpt>
      <trkpt lat="46.16907" lon="6.6166">
        <ele>1261.2</ele>
        <time>2021-06-26T08:13:16Z</time>
      </trkpt>
      <trkpt lat="46.16909" lon="6.61661">
        <ele>1261.4</ele>
        <time>2021-06-26T08:13:17Z</time>
      </trkpt>
      <trkpt lat="46.16912" lon="6.61661">
        <ele>1261.8</ele>
        <time>2021-06-26T08:13:18Z</time>
      </trkpt>
      <trkpt lat="46.16914" lon="6.61662">
        <ele>1262</ele>
        <time>2021-06-26T08:13:19Z</time>
      </trkpt>
      <trkpt lat="46.16917" lon="6.61663">
        <ele>1262.4</ele>
        <time>2021-06-26T08:13:20Z</time>
      </trkpt>
      <trkpt lat="46.16919" lon="6.61664">
        <ele>1262.8</ele>
        <time>2021-06-26T08:13:21Z</time>
      </trkpt>
      <trkpt lat="46.16921" lon="6.61664">
        <ele>1262.8</ele>
        <time>2021-06-26T08:13:22Z</time>
      </trkpt>
      <trkpt lat="46.16923" lon="6.61665">
        <ele>1263</ele>
        <time>2021-06-26T08:13:23Z</time>
      </trkpt>
      <trkpt lat="46.16926" lon="6.61666">
        <ele>1263.4</ele>
        <time>2021-06-26T08:13:24Z</time>
      </trkpt>
      <trkpt lat="46.16928" lon="6.61667">
        <ele>1263.8</ele>
        <time>2021-06-26T08:13:25Z</time>
      </trkpt>
      <trkpt lat="46.1693" lon="6.61668">
        <ele>1264</ele>
        <time>2021-06-26T08:13:26Z</time>
      </trkpt>
      <trkpt lat="46.16932" lon="6.6167">
        <ele>1264.2</ele>
        <time>2021-06-26T08:13:27Z</time>
      </trkpt>
      <trkpt lat="46.16935" lon="6.61671">
        <ele>1264.6</ele>
        <time>2021-06-26T08:13:28Z</time>
      </trkpt>
      <trkpt lat="46.16937" lon="6.61672">
        <ele>1264.8</ele>
        <time>2021-06-26T08:13:29Z</time>
      </trkpt>
      <trkpt lat="46.16939" lon="6.61673">
        <ele>1264.8</ele>
        <time>2021-06-26T08:13:30Z</time>
      </trkpt>
      <trkpt lat="46.16941" lon="6.61674">
        <ele>1265</ele>
        <time>2021-06-26T08:13:31Z</time>
      </trkpt>
      <trkpt lat="46.16944" lon="6.61676">
        <ele>1265.2</ele>
        <time>2021-06-26T08:13:32Z</time>
      </trkpt>
      <trkpt lat="46.16946" lon="6.61677">
        <ele>1265.6</ele>
        <time>2021-06-26T08:13:33Z</time>
      </trkpt>
      <trkpt lat="46.16948" lon="6.61678">
        <ele>1265.6</ele>
        <time>2021-06-26T08:13:34Z</time>
      </trkpt>
      <trkpt lat="46.16951" lon="6.61679">
        <ele>1265.6</ele>
        <time>2021-06-26T08:13:35Z</time>
      </trkpt>
      <trkpt lat="46.16953" lon="6.6168">
        <ele>1266</ele>
        <time>2021-06-26T08:13:36Z</time>
      </trkpt>
      <trkpt lat="46.16955" lon="6.61681">
        <ele>1266.2</ele>
        <time>2021-06-26T08:13:37Z</time>
      </trkpt>
      <trkpt lat="46.16958" lon="6.61682">
        <ele>1266.6</ele>
        <time>2021-06-26T08:13:38Z</time>
      </trkpt>
      <trkpt lat="46.1696" lon="6.61683">
        <ele>1267</ele>
        <time>2021-06-26T08:13:39Z</time>
      </trkpt>
      <trkpt lat="46.16963" lon="6.61684">
        <ele>1267</ele>
        <time>2021-06-26T08:13:40Z</time>
      </trkpt>
      <trkpt lat="46.16965" lon="6.61685">
        <ele>1267.4</ele>
        <time>2021-06-26T08:13:41Z</time>
      </trkpt>
      <trkpt lat="46.16967" lon="6.61686">
        <ele>1267.6</ele>
        <time>2021-06-26T08:13:42Z</time>
      </trkpt>
      <trkpt lat="46.1697" lon="6.61687">
        <ele>1267.8</ele>
        <time>2021-06-26T08:13:43Z</time>
      </trkpt>
      <trkpt lat="46.16972" lon="6.61688">
        <ele>1267.8</ele>
        <time>2021-06-26T08:13:44Z</time>
      </trkpt>
      <trkpt lat="46.16975" lon="6.6169">
        <ele>1268</ele>
        <time>2021-06-26T08:13:45Z</time>
      </trkpt>
      <trkpt lat="46.16977" lon="6.61691">
        <ele>1268.2</ele>
        <time>2021-06-26T08:13:46Z</time>
      </trkpt>
      <trkpt lat="46.1698" lon="6.61692">
        <ele>1268.6</ele>
        <time>2021-06-26T08:13:47Z</time>
      </trkpt>
      <trkpt lat="46.16982" lon="6.61693">
        <ele>1269</ele>
        <time>2021-06-26T08:13:48Z</time>
      </trkpt>
      <trkpt lat="46.16984" lon="6.61695">
        <ele>1269.2</ele>
        <time>2021-06-26T08:13:49Z</time>
      </trkpt>
      <trkpt lat="46.16987" lon="6.61696">
        <ele>1269.4</ele>
        <time>2021-06-26T08:13:50Z</time>
      </trkpt>
      <trkpt lat="46.16989" lon="6.61697">
        <ele>1269.8</ele>
        <time>2021-06-26T08:13:51Z</time>
      </trkpt>
      <trkpt lat="46.16991" lon="6.61698">
        <ele>1269.8</ele>
        <time>2021-06-26T08:13:52Z</time>
      </trkpt>
      <trkpt lat="46.16993" lon="6.61699">
        <ele>1270.4</ele>
        <time>2021-06-26T08:13:53Z</time>
      </trkpt>
      <trkpt lat="46.16995" lon="6.617">
        <ele>1270.4</ele>
        <time>2021-06-26T08:13:54Z</time>
      </trkpt>
      <trkpt lat="46.16997" lon="6.617">
        <ele>1270.6</ele>
        <time>2021-06-26T08:13:55Z</time>
      </trkpt>
      <trkpt lat="46.16999" lon="6.61701">
        <ele>1271</ele>
        <time>2021-06-26T08:13:56Z</time>
      </trkpt>
      <trkpt lat="46.17001" lon="6.61702">
        <ele>1271.2</ele>
        <time>2021-06-26T08:13:57Z</time>
      </trkpt>
      <trkpt lat="46.17003" lon="6.61703">
        <ele>1271.2</ele>
        <time>2021-06-26T08:13:58Z</time>
      </trkpt>
      <trkpt lat="46.17005" lon="6.61704">
        <ele>1271.4</ele>
        <time>2021-06-26T08:13:59Z</time>
      </trkpt>
      <trkpt lat="46.17006" lon="6.61705">
        <ele>1271.6</ele>
        <time>2021-06-26T08:14:00Z</time>
      </trkpt>
      <trkpt lat="46.17009" lon="6.61706">
        <ele>1272</ele>
        <time>2021-06-26T08:14:01Z</time>
      </trkpt>
      <trkpt lat="46.1701" lon="6.61707">
        <ele>1272.4</ele>
        <time>2021-06-26T08:14:02Z</time>
      </trkpt>
      <trkpt lat="46.17012" lon="6.61708">
        <ele>1272.8</ele>
        <time>2021-06-26T08:14:03Z</time>
      </trkpt>
      <trkpt lat="46.17014" lon="6.61709">
        <ele>1273</ele>
        <time>2021-06-26T08:14:04Z</time>
      </trkpt>
      <trkpt lat="46.17016" lon="6.6171">
        <ele>1273.4</ele>
        <time>2021-06-26T08:14:05Z</time>
      </trkpt>
      <trkpt lat="46.17018" lon="6.61711">
        <ele>1273.6</ele>
        <time>2021-06-26T08:14:06Z</time>
      </trkpt>
      <trkpt lat="46.1702" lon="6.61712">
        <ele>1273.8</ele>
        <time>2021-06-26T08:14:07Z</time>
      </trkpt>
      <trkpt lat="46.17022" lon="6.61713">
        <ele>1273.8</ele>
        <time>2021-06-26T08:14:08Z</time>
      </trkpt>
      <trkpt lat="46.17024" lon="6.61714">
        <ele>1274</ele>
        <time>2021-06-26T08:14:09Z</time>
      </trkpt>
      <trkpt lat="46.17026" lon="6.61715">
        <ele>1274.4</ele>
        <time>2021-06-26T08:14:10Z</time>
      </trkpt>
      <trkpt lat="46.17028" lon="6.61716">
        <ele>1274.6</ele>
        <time>2021-06-26T08:14:11Z</time>
      </trkpt>
      <trkpt lat="46.1703" lon="6.61717">
        <ele>1275</ele>
        <time>2021-06-26T08:14:12Z</time>
      </trkpt>
      <trkpt lat="46.17032" lon="6.61717">
        <ele>1275.2</ele>
        <time>2021-06-26T08:14:13Z</time>
      </trkpt>
      <trkpt lat="46.17034" lon="6.61718">
        <ele>1275.4</ele>
        <time>2021-06-26T08:14:14Z</time>
      </trkpt>
      <trkpt lat="46.17036" lon="6.61719">
        <ele>1275.8</ele>
        <time>2021-06-26T08:14:15Z</time>
      </trkpt>
      <trkpt lat="46.17038" lon="6.6172">
        <ele>1275.8</ele>
        <time>2021-06-26T08:14:16Z</time>
      </trkpt>
      <trkpt lat="46.1704" lon="6.61721">
        <ele>1276</ele>
        <time>2021-06-26T08:14:17Z</time>
      </trkpt>
      <trkpt lat="46.17042" lon="6.61722">
        <ele>1276.2</ele>
        <time>2021-06-26T08:14:18Z</time>
      </trkpt>
      <trkpt lat="46.17044" lon="6.61723">
        <ele>1276.6</ele>
        <time>2021-06-26T08:14:19Z</time>
      </trkpt>
      <trkpt lat="46.17047" lon="6.61724">
        <ele>1276.6</ele>
        <time>2021-06-26T08:14:20Z</time>
      </trkpt>
      <trkpt lat="46.17049" lon="6.61725">
        <ele>1276.8</ele>
        <time>2021-06-26T08:14:21Z</time>
      </trkpt>
      <trkpt lat="46.17051" lon="6.61726">
        <ele>1277.2</ele>
        <time>2021-06-26T08:14:22Z</time>
      </trkpt>
      <trkpt lat="46.17053" lon="6.61728">
        <ele>1277.6</ele>
        <time>2021-06-26T08:14:23Z</time>
      </trkpt>
      <trkpt lat="46.17056" lon="6.61729">
        <ele>1277.6</ele>
        <time>2021-06-26T08:14:24Z</time>
      </trkpt>
      <trkpt lat="46.17058" lon="6.6173">
        <ele>1278</ele>
        <time>2021-06-26T08:14:25Z</time>
      </trkpt>
      <trkpt lat="46.1706" lon="6.61731">
        <ele>1278.2</ele>
        <time>2021-06-26T08:14:26Z</time>
      </trkpt>
      <trkpt lat="46.17062" lon="6.61732">
        <ele>1278.6</ele>
        <time>2021-06-26T08:14:27Z</time>
      </trkpt>
      <trkpt lat="46.17064" lon="6.61734">
        <ele>1278.6</ele>
        <time>2021-06-26T08:14:28Z</time>
      </trkpt>
      <trkpt lat="46.17067" lon="6.61735">
        <ele>1278.6</ele>
        <time>2021-06-26T08:14:29Z</time>
      </trkpt>
      <trkpt lat="46.17069" lon="6.61736">
        <ele>1279</ele>
        <time>2021-06-26T08:14:30Z</time>
      </trkpt>
      <trkpt lat="46.17071" lon="6.61737">
        <ele>1279</ele>
        <time>2021-06-26T08:14:31Z</time>
      </trkpt>
      <trkpt lat="46.17073" lon="6.61738">
        <ele>1279.2</ele>
        <time>2021-06-26T08:14:32Z</time>
      </trkpt>
      <trkpt lat="46.17075" lon="6.61739">
        <ele>1279.4</ele>
        <time>2021-06-26T08:14:33Z</time>
      </trkpt>
      <trkpt lat="46.17077" lon="6.61741">
        <ele>1279.6</ele>
        <time>2021-06-26T08:14:34Z</time>
      </trkpt>
      <trkpt lat="46.17079" lon="6.61742">
        <ele>1279.8</ele>
        <time>2021-06-26T08:14:35Z</time>
      </trkpt>
      <trkpt lat="46.17081" lon="6.61743">
        <ele>1280.2</ele>
        <time>2021-06-26T08:14:36Z</time>
      </trkpt>
      <trkpt lat="46.17083" lon="6.61743">
        <ele>1280.4</ele>
        <time>2021-06-26T08:14:37Z</time>
      </trkpt>
      <trkpt lat="46.17085" lon="6.61744">
        <ele>1280.6</ele>
        <time>2021-06-26T08:14:38Z</time>
      </trkpt>
      <trkpt lat="46.17087" lon="6.61745">
        <ele>1280.8</ele>
        <time>2021-06-26T08:14:39Z</time>
      </trkpt>
      <trkpt lat="46.17089" lon="6.61746">
        <ele>1281.2</ele>
        <time>2021-06-26T08:14:40Z</time>
      </trkpt>
      <trkpt lat="46.17091" lon="6.61746">
        <ele>1281.2</ele>
        <time>2021-06-26T08:14:41Z</time>
      </trkpt>
      <trkpt lat="46.17092" lon="6.61746">
        <ele>1281.4</ele>
        <time>2021-06-26T08:14:42Z</time>
      </trkpt>
      <trkpt lat="46.17094" lon="6.61747">
        <ele>1281.4</ele>
        <time>2021-06-26T08:14:43Z</time>
      </trkpt>
      <trkpt lat="46.17096" lon="6.61747">
        <ele>1281.6</ele>
        <time>2021-06-26T08:14:44Z</time>
      </trkpt>
      <trkpt lat="46.17098" lon="6.61748">
        <ele>1282</ele>
        <time>2021-06-26T08:14:45Z</time>
      </trkpt>
      <trkpt lat="46.171" lon="6.61748">
        <ele>1282.2</ele>
        <time>2021-06-26T08:14:46Z</time>
      </trkpt>
      <trkpt lat="46.17103" lon="6.61748">
        <ele>1282.2</ele>
        <time>2021-06-26T08:14:47Z</time>
      </trkpt>
      <trkpt lat="46.17105" lon="6.61747">
        <ele>1282.8</ele>
        <time>2021-06-26T08:14:48Z</time>
      </trkpt>
      <trkpt lat="46.17107" lon="6.61747">
        <ele>1283</ele>
        <time>2021-06-26T08:14:49Z</time>
      </trkpt>
      <trkpt lat="46.17109" lon="6.61746">
        <ele>1283.2</ele>
        <time>2021-06-26T08:14:50Z</time>
      </trkpt>
      <trkpt lat="46.17111" lon="6.61746">
        <ele>1283.2</ele>
        <time>2021-06-26T08:14:51Z</time>
      </trkpt>
      <trkpt lat="46.17114" lon="6.61745">
        <ele>1283.6</ele>
        <time>2021-06-26T08:14:52Z</time>
      </trkpt>
      <trkpt lat="46.17116" lon="6.61744">
        <ele>1283.6</ele>
        <time>2021-06-26T08:14:53Z</time>
      </trkpt>
      <trkpt lat="46.17118" lon="6.61743">
        <ele>1284</ele>
        <time>2021-06-26T08:14:54Z</time>
      </trkpt>
      <trkpt lat="46.17121" lon="6.61741">
        <ele>1284</ele>
        <time>2021-06-26T08:14:55Z</time>
      </trkpt>
      <trkpt lat="46.17123" lon="6.6174">
        <ele>1284.2</ele>
        <time>2021-06-26T08:14:56Z</time>
      </trkpt>
      <trkpt lat="46.17125" lon="6.61739">
        <ele>1284.4</ele>
        <time>2021-06-26T08:14:57Z</time>
      </trkpt>
      <trkpt lat="46.17127" lon="6.61737">
        <ele>1284.8</ele>
        <time>2021-06-26T08:14:58Z</time>
      </trkpt>
      <trkpt lat="46.17129" lon="6.61736">
        <ele>1285.2</ele>
        <time>2021-06-26T08:14:59Z</time>
      </trkpt>
      <trkpt lat="46.17131" lon="6.61734">
        <ele>1285.4</ele>
        <time>2021-06-26T08:15:00Z</time>
      </trkpt>
      <trkpt lat="46.17133" lon="6.61733">
        <ele>1285.6</ele>
        <time>2021-06-26T08:15:01Z</time>
      </trkpt>
      <trkpt lat="46.17134" lon="6.61732">
        <ele>1285.8</ele>
        <time>2021-06-26T08:15:02Z</time>
      </trkpt>
      <trkpt lat="46.17135" lon="6.61731">
        <ele>1286.2</ele>
        <time>2021-06-26T08:15:03Z</time>
      </trkpt>
      <trkpt lat="46.17135" lon="6.6173">
        <ele>1286.4</ele>
        <time>2021-06-26T08:15:04Z</time>
      </trkpt>
      <trkpt lat="46.17137" lon="6.61729">
        <ele>1286.4</ele>
        <time>2021-06-26T08:15:05Z</time>
      </trkpt>
      <trkpt lat="46.17138" lon="6.61729">
        <ele>1286.8</ele>
        <time>2021-06-26T08:15:06Z</time>
      </trkpt>
      <trkpt lat="46.1714" lon="6.61728">
        <ele>1287.2</ele>
        <time>2021-06-26T08:15:07Z</time>
      </trkpt>
      <trkpt lat="46.17142" lon="6.61727">
        <ele>1287.4</ele>
        <time>2021-06-26T08:15:08Z</time>
      </trkpt>
      <trkpt lat="46.17144" lon="6.61726">
        <ele>1287.6</ele>
        <time>2021-06-26T08:15:09Z</time>
      </trkpt>
      <trkpt lat="46.17145" lon="6.61724">
        <ele>1287.8</ele>
        <time>2021-06-26T08:15:10Z</time>
      </trkpt>
      <trkpt lat="46.17146" lon="6.61722">
        <ele>1288.2</ele>
        <time>2021-06-26T08:15:11Z</time>
      </trkpt>
      <trkpt lat="46.17148" lon="6.6172">
        <ele>1288.4</ele>
        <time>2021-06-26T08:15:12Z</time>
      </trkpt>
      <trkpt lat="46.17151" lon="6.61719">
        <ele>1288.6</ele>
        <time>2021-06-26T08:15:13Z</time>
      </trkpt>
      <trkpt lat="46.17153" lon="6.61718">
        <ele>1289</ele>
        <time>2021-06-26T08:15:14Z</time>
      </trkpt>
      <trkpt lat="46.17156" lon="6.61717">
        <ele>1289.2</ele>
        <time>2021-06-26T08:15:15Z</time>
      </trkpt>
      <trkpt lat="46.17158" lon="6.61717">
        <ele>1289.6</ele>
        <time>2021-06-26T08:15:16Z</time>
      </trkpt>
      <trkpt lat="46.17161" lon="6.61716">
        <ele>1289.8</ele>
        <time>2021-06-26T08:15:17Z</time>
      </trkpt>
      <trkpt lat="46.17164" lon="6.61715">
        <ele>1289.8</ele>
        <time>2021-06-26T08:15:18Z</time>
      </trkpt>
      <trkpt lat="46.17167" lon="6.61714">
        <ele>1290</ele>
        <time>2021-06-26T08:15:19Z</time>
      </trkpt>
      <trkpt lat="46.17169" lon="6.61714">
        <ele>1290.2</ele>
        <time>2021-06-26T08:15:20Z</time>
      </trkpt>
      <trkpt lat="46.17172" lon="6.61714">
        <ele>1290.6</ele>
        <time>2021-06-26T08:15:21Z</time>
      </trkpt>
      <trkpt lat="46.17174" lon="6.61713">
        <ele>1290.6</ele>
        <time>2021-06-26T08:15:22Z</time>
      </trkpt>
      <trkpt lat="46.17177" lon="6.61712">
        <ele>1291</ele>
        <time>2021-06-26T08:15:23Z</time>
      </trkpt>
      <trkpt lat="46.17179" lon="6.61712">
        <ele>1291.2</ele>
        <time>2021-06-26T08:15:24Z</time>
      </trkpt>
      <trkpt lat="46.17182" lon="6.61711">
        <ele>1291.6</ele>
        <time>2021-06-26T08:15:25Z</time>
      </trkpt>
      <trkpt lat="46.17185" lon="6.6171">
        <ele>1291.8</ele>
        <time>2021-06-26T08:15:26Z</time>
      </trkpt>
      <trkpt lat="46.17187" lon="6.61709">
        <ele>1292</ele>
        <time>2021-06-26T08:15:27Z</time>
      </trkpt>
      <trkpt lat="46.17189" lon="6.61707">
        <ele>1292</ele>
        <time>2021-06-26T08:15:28Z</time>
      </trkpt>
      <trkpt lat="46.17191" lon="6.61705">
        <ele>1292.2</ele>
        <time>2021-06-26T08:15:29Z</time>
      </trkpt>
      <trkpt lat="46.17191" lon="6.61703">
        <ele>1292.2</ele>
        <time>2021-06-26T08:15:30Z</time>
      </trkpt>
      <trkpt lat="46.17192" lon="6.61702">
        <ele>1292.4</ele>
        <time>2021-06-26T08:15:31Z</time>
      </trkpt>
      <trkpt lat="46.17192" lon="6.617">
        <ele>1292.6</ele>
        <time>2021-06-26T08:15:32Z</time>
      </trkpt>
      <trkpt lat="46.17192" lon="6.61698">
        <ele>1292.8</ele>
        <time>2021-06-26T08:15:33Z</time>
      </trkpt>
      <trkpt lat="46.17191" lon="6.61696">
        <ele>1293</ele>
        <time>2021-06-26T08:15:34Z</time>
      </trkpt>
      <trkpt lat="46.1719" lon="6.61693">
        <ele>1293.4</ele>
        <time>2021-06-26T08:15:35Z</time>
      </trkpt>
      <trkpt lat="46.17189" lon="6.61691">
        <ele>1293.6</ele>
        <time>2021-06-26T08:15:36Z</time>
      </trkpt>
      <trkpt lat="46.17187" lon="6.61689">
        <ele>1293.8</ele>
        <time>2021-06-26T08:15:37Z</time>
      </trkpt>
      <trkpt lat="46.17185" lon="6.61689">
        <ele>1294</ele>
        <time>2021-06-26T08:15:38Z</time>
      </trkpt>
      <trkpt lat="46.17182" lon="6.61688">
        <ele>1294.4</ele>
        <time>2021-06-26T08:15:39Z</time>
      </trkpt>
      <trkpt lat="46.17179" lon="6.61688">
        <ele>1294.6</ele>
        <time>2021-06-26T08:15:40Z</time>
      </trkpt>
      <trkpt lat="46.17177" lon="6.61689">
        <ele>1294.6</ele>
        <time>2021-06-26T08:15:41Z</time>
      </trkpt>
      <trkpt lat="46.17174" lon="6.61689">
        <ele>1295</ele>
        <time>2021-06-26T08:15:42Z</time>
      </trkpt>
      <trkpt lat="46.17171" lon="6.61689">
        <ele>1295</ele>
        <time>2021-06-26T08:15:43Z</time>
      </trkpt>
      <trkpt lat="46.17169" lon="6.6169">
        <ele>1295.2</ele>
        <time>2021-06-26T08:15:44Z</time>
      </trkpt>
      <trkpt lat="46.17167" lon="6.6169">
        <ele>1295.2</ele>
        <time>2021-06-26T08:15:45Z</time>
      </trkpt>
      <trkpt lat="46.17165" lon="6.61691">
        <ele>1295.4</ele>
        <time>2021-06-26T08:15:46Z</time>
      </trkpt>
      <trkpt lat="46.17162" lon="6.6169">
        <ele>1295.4</ele>
        <time>2021-06-26T08:15:47Z</time>
      </trkpt>
      <trkpt lat="46.1716" lon="6.6169">
        <ele>1295.6</ele>
        <time>2021-06-26T08:15:48Z</time>
      </trkpt>
      <trkpt lat="46.17158" lon="6.61689">
        <ele>1295.8</ele>
        <time>2021-06-26T08:15:49Z</time>
      </trkpt>
      <trkpt lat="46.17156" lon="6.61688">
        <ele>1295.8</ele>
        <time>2021-06-26T08:15:50Z</time>
      </trkpt>
      <trkpt lat="46.17154" lon="6.61688">
        <ele>1296.2</ele>
        <time>2021-06-26T08:15:51Z</time>
      </trkpt>
      <trkpt lat="46.17152" lon="6.61688">
        <ele>1296.4</ele>
        <time>2021-06-26T08:15:52Z</time>
      </trkpt>
      <trkpt lat="46.1715" lon="6.61687">
        <ele>1296.4</ele>
        <time>2021-06-26T08:15:53Z</time>
      </trkpt>
      <trkpt lat="46.17148" lon="6.61686">
        <ele>1296.6</ele>
        <time>2021-06-26T08:15:54Z</time>
      </trkpt>
      <trkpt lat="46.17146" lon="6.61685">
        <ele>1297</ele>
        <time>2021-06-26T08:15:55Z</time>
      </trkpt>
      <trkpt lat="46.17143" lon="6.61684">
        <ele>1297.2</ele>
        <time>2021-06-26T08:15:56Z</time>
      </trkpt>
      <trkpt lat="46.17141" lon="6.61683">
        <ele>1297.6</ele>
        <time>2021-06-26T08:15:57Z</time>
      </trkpt>
      <trkpt lat="46.17139" lon="6.61682">
        <ele>1297.8</ele>
        <time>2021-06-26T08:15:58Z</time>
      </trkpt>
      <trkpt lat="46.17136" lon="6.61682">
        <ele>1298</ele>
        <time>2021-06-26T08:15:59Z</time>
      </trkpt>
      <trkpt lat="46.17134" lon="6.61681">
        <ele>1298.2</ele>
        <time>2021-06-26T08:16:00Z</time>
      </trkpt>
      <trkpt lat="46.17132" lon="6.6168">
        <ele>1298.2</ele>
        <time>2021-06-26T08:16:01Z</time>
      </trkpt>
      <trkpt lat="46.17131" lon="6.61679">
        <ele>1298.6</ele>
        <time>2021-06-26T08:16:02Z</time>
      </trkpt>
      <trkpt lat="46.1713" lon="6.61679">
        <ele>1298.6</ele>
        <time>2021-06-26T08:16:03Z</time>
      </trkpt>
      <trkpt lat="46.17128" lon="6.61677">
        <ele>1299</ele>
        <time>2021-06-26T08:16:04Z</time>
      </trkpt>
      <trkpt lat="46.17126" lon="6.61675">
        <ele>1299.4</ele>
        <time>2021-06-26T08:16:05Z</time>
      </trkpt>
      <trkpt lat="46.17124" lon="6.61673">
        <ele>1299.6</ele>
        <time>2021-06-26T08:16:06Z</time>
      </trkpt>
      <trkpt lat="46.17122" lon="6.61671">
        <ele>1299.8</ele>
        <time>2021-06-26T08:16:07Z</time>
      </trkpt>
      <trkpt lat="46.17121" lon="6.6167">
        <ele>1300.2</ele>
        <time>2021-06-26T08:16:08Z</time>
      </trkpt>
      <trkpt lat="46.17119" lon="6.61668">
        <ele>1300.2</ele>
        <time>2021-06-26T08:16:09Z</time>
      </trkpt>
      <trkpt lat="46.17117" lon="6.61667">
        <ele>1300.4</ele>
        <time>2021-06-26T08:16:10Z</time>
      </trkpt>
      <trkpt lat="46.17116" lon="6.61665">
        <ele>1301</ele>
        <time>2021-06-26T08:16:11Z</time>
      </trkpt>
      <trkpt lat="46.17114" lon="6.61663">
        <ele>1301.2</ele>
        <time>2021-06-26T08:16:12Z</time>
      </trkpt>
      <trkpt lat="46.17112" lon="6.61661">
        <ele>1301.2</ele>
        <time>2021-06-26T08:16:13Z</time>
      </trkpt>
      <trkpt lat="46.1711" lon="6.61659">
        <ele>1301.4</ele>
        <time>2021-06-26T08:16:14Z</time>
      </trkpt>
      <trkpt lat="46.17109" lon="6.61656">
        <ele>1301.8</ele>
        <time>2021-06-26T08:16:15Z</time>
      </trkpt>
      <trkpt lat="46.17108" lon="6.61654">
        <ele>1302</ele>
        <time>2021-06-26T08:16:16Z</time>
      </trkpt>
      <trkpt lat="46.17106" lon="6.61652">
        <ele>1302.4</ele>
        <time>2021-06-26T08:16:17Z</time>
      </trkpt>
      <trkpt lat="46.17104" lon="6.6165">
        <ele>1302.8</ele>
        <time>2021-06-26T08:16:18Z</time>
      </trkpt>
      <trkpt lat="46.17101" lon="6.61648">
        <ele>1303</ele>
        <time>2021-06-26T08:16:19Z</time>
      </trkpt>
      <trkpt lat="46.171" lon="6.61645">
        <ele>1303.2</ele>
        <time>2021-06-26T08:16:20Z</time>
      </trkpt>
      <trkpt lat="46.17098" lon="6.61642">
        <ele>1303.2</ele>
        <time>2021-06-26T08:16:21Z</time>
      </trkpt>
      <trkpt lat="46.17096" lon="6.61639">
        <ele>1303.6</ele>
        <time>2021-06-26T08:16:22Z</time>
      </trkpt>
      <trkpt lat="46.17095" lon="6.61637">
        <ele>1303.8</ele>
        <time>2021-06-26T08:16:23Z</time>
      </trkpt>
      <trkpt lat="46.17093" lon="6.61634">
        <ele>1304</ele>
        <time>2021-06-26T08:16:24Z</time>
      </trkpt>
      <trkpt lat="46.17092" lon="6.61631">
        <ele>1304.4</ele>
        <time>2021-06-26T08:16:25Z</time>
      </trkpt>
      <trkpt lat="46.17091" lon="6.61628">
        <ele>1304.8</ele>
        <time>2021-06-26T08:16:26Z</time>
      </trkpt>
      <trkpt lat="46.1709" lon="6.61625">
        <ele>1305</ele>
        <time>2021-06-26T08:16:27Z</time>
      </trkpt>
      <trkpt lat="46.17089" lon="6.61622">
        <ele>1305.4</ele>
        <time>2021-06-26T08:16:28Z</time>
      </trkpt>
      <trkpt lat="46.17087" lon="6.61619">
        <ele>1305.4</ele>
        <time>2021-06-26T08:16:29Z</time>
      </trkpt>
      <trkpt lat="46.17086" lon="6.61616">
        <ele>1305.8</ele>
        <time>2021-06-26T08:16:30Z</time>
      </trkpt>
      <trkpt lat="46.17085" lon="6.61613">
        <ele>1305.8</ele>
        <time>2021-06-26T08:16:31Z</time>
      </trkpt>
      <trkpt lat="46.17084" lon="6.6161">
        <ele>1306.2</ele>
        <time>2021-06-26T08:16:32Z</time>
      </trkpt>
      <trkpt lat="46.17083" lon="6.61607">
        <ele>1306.4</ele>
        <time>2021-06-26T08:16:33Z</time>
      </trkpt>
      <trkpt lat="46.17082" lon="6.61603">
        <ele>1306.6</ele>
        <time>2021-06-26T08:16:34Z</time>
      </trkpt>
      <trkpt lat="46.17081" lon="6.616">
        <ele>1306.6</ele>
        <time>2021-06-26T08:16:35Z</time>
      </trkpt>
      <trkpt lat="46.17081" lon="6.61597">
        <ele>1306.8</ele>
        <time>2021-06-26T08:16:36Z</time>
      </trkpt>
      <trkpt lat="46.1708" lon="6.61593">
        <ele>1307</ele>
        <time>2021-06-26T08:16:37Z</time>
      </trkpt>
      <trkpt lat="46.17079" lon="6.6159">
        <ele>1307.2</ele>
        <time>2021-06-26T08:16:38Z</time>
      </trkpt>
      <trkpt lat="46.17078" lon="6.61587">
        <ele>1307.6</ele>
        <time>2021-06-26T08:16:39Z</time>
      </trkpt>
      <trkpt lat="46.17077" lon="6.61584">
        <ele>1307.8</ele>
        <time>2021-06-26T08:16:40Z</time>
      </trkpt>
      <trkpt lat="46.17077" lon="6.61581">
        <ele>1308</ele>
        <time>2021-06-26T08:16:41Z</time>
      </trkpt>
      <trkpt lat="46.17076" lon="6.61578">
        <ele>1308.2</ele>
        <time>2021-06-26T08:16:42Z</time>
      </trkpt>
      <trkpt lat="46.17074" lon="6.61575">
        <ele>1308.4</ele>
        <time>2021-06-26T08:16:43Z</time>
      </trkpt>
      <trkpt lat="46.17073" lon="6.61572">
        <ele>1308.6</ele>
        <time>2021-06-26T08:16:44Z</time>
      </trkpt>
      <trkpt lat="46.17072" lon="6.61569">
        <ele>1309</ele>
        <time>2021-06-26T08:16:45Z</time>
      </trkpt>
      <trkpt lat="46.17071" lon="6.61566">
        <ele>1309</ele>
        <time>2021-06-26T08:16:46Z</time>
      </trkpt>
      <trkpt lat="46.17069" lon="6.61564">
        <ele>1309.4</ele>
        <time>2021-06-26T08:16:47Z</time>
      </trkpt>
      <trkpt lat="46.17068" lon="6.61561">
        <ele>1309.4</ele>
        <time>2021-06-26T08:16:48Z</time>
      </trkpt>
      <trkpt lat="46.17066" lon="6.61559">
        <ele>1309.6</ele>
        <time>2021-06-26T08:16:49Z</time>
      </trkpt>
      <trkpt lat="46.17065" lon="6.61556">
        <ele>1309.6</ele>
        <time>2021-06-26T08:16:50Z</time>
      </trkpt>
      <trkpt lat="46.17063" lon="6.61554">
        <ele>1310</ele>
        <time>2021-06-26T08:16:51Z</time>
      </trkpt>
      <trkpt lat="46.17061" lon="6.61552">
        <ele>1310.4</ele>
        <time>2021-06-26T08:16:52Z</time>
      </trkpt>
      <trkpt lat="46.17059" lon="6.6155">
        <ele>1310.6</ele>
        <time>2021-06-26T08:16:53Z</time>
      </trkpt>
      <trkpt lat="46.17058" lon="6.61548">
        <ele>1311</ele>
        <time>2021-06-26T08:16:54Z</time>
      </trkpt>
      <trkpt lat="46.17055" lon="6.61546">
        <ele>1311.2</ele>
        <time>2021-06-26T08:16:55Z</time>
      </trkpt>
      <trkpt lat="46.17053" lon="6.61544">
        <ele>1311.6</ele>
        <time>2021-06-26T08:16:56Z</time>
      </trkpt>
      <trkpt lat="46.17051" lon="6.61542">
        <ele>1311.8</ele>
        <time>2021-06-26T08:16:57Z</time>
      </trkpt>
      <trkpt lat="46.17049" lon="6.6154">
        <ele>1311.8</ele>
        <time>2021-06-26T08:16:58Z</time>
      </trkpt>
      <trkpt lat="46.17047" lon="6.61538">
        <ele>1312</ele>
        <time>2021-06-26T08:16:59Z</time>
      </trkpt>
      <trkpt lat="46.17045" lon="6.61536">
        <ele>1312.4</ele>
        <time>2021-06-26T08:17:00Z</time>
      </trkpt>
      <trkpt lat="46.17045" lon="6.61533">
        <ele>1312.6</ele>
        <time>2021-06-26T08:17:01Z</time>
      </trkpt>
      <trkpt lat="46.17044" lon="6.61531">
        <ele>1312.8</ele>
        <time>2021-06-26T08:17:02Z</time>
      </trkpt>
      <trkpt lat="46.17044" lon="6.61529">
        <ele>1313</ele>
        <time>2021-06-26T08:17:03Z</time>
      </trkpt>
      <trkpt lat="46.17045" lon="6.61526">
        <ele>1313.2</ele>
        <time>2021-06-26T08:17:04Z</time>
      </trkpt>
      <trkpt lat="46.17047" lon="6.61524">
        <ele>1313.4</ele>
        <time>2021-06-26T08:17:05Z</time>
      </trkpt>
      <trkpt lat="46.17049" lon="6.61523">
        <ele>1313.6</ele>
        <time>2021-06-26T08:17:06Z</time>
      </trkpt>
      <trkpt lat="46.1705" lon="6.61522">
        <ele>1313.8</ele>
        <time>2021-06-26T08:17:07Z</time>
      </trkpt>
      <trkpt lat="46.17053" lon="6.61521">
        <ele>1314</ele>
        <time>2021-06-26T08:17:08Z</time>
      </trkpt>
      <trkpt lat="46.17055" lon="6.61521">
        <ele>1314.2</ele>
        <time>2021-06-26T08:17:09Z</time>
      </trkpt>
      <trkpt lat="46.17057" lon="6.61521">
        <ele>1314.4</ele>
        <time>2021-06-26T08:17:10Z</time>
      </trkpt>
      <trkpt lat="46.17059" lon="6.61522">
        <ele>1314.8</ele>
        <time>2021-06-26T08:17:11Z</time>
      </trkpt>
      <trkpt lat="46.17062" lon="6.61524">
        <ele>1315</ele>
        <time>2021-06-26T08:17:12Z</time>
      </trkpt>
      <trkpt lat="46.17064" lon="6.61526">
        <ele>1315.4</ele>
        <time>2021-06-26T08:17:13Z</time>
      </trkpt>
      <trkpt lat="46.17066" lon="6.61528">
        <ele>1315.4</ele>
        <time>2021-06-26T08:17:14Z</time>
      </trkpt>
      <trkpt lat="46.17068" lon="6.6153">
        <ele>1315.8</ele>
        <time>2021-06-26T08:17:15Z</time>
      </trkpt>
      <trkpt lat="46.17069" lon="6.61532">
        <ele>1316</ele>
        <time>2021-06-26T08:17:16Z</time>
      </trkpt>
      <trkpt lat="46.17071" lon="6.61534">
        <ele>1316.2</ele>
        <time>2021-06-26T08:17:17Z</time>
      </trkpt>
      <trkpt lat="46.17073" lon="6.61536">
        <ele>1316.4</ele>
        <time>2021-06-26T08:17:18Z</time>
      </trkpt>
      <trkpt lat="46.17075" lon="6.61538">
        <ele>1317</ele>
        <time>2021-06-26T08:17:19Z</time>
      </trkpt>
      <trkpt lat="46.17077" lon="6.6154">
        <ele>1317.2</ele>
        <time>2021-06-26T08:17:20Z</time>
      </trkpt>
      <trkpt lat="46.17078" lon="6.61542">
        <ele>1317.2</ele>
        <time>2021-06-26T08:17:21Z</time>
      </trkpt>
      <trkpt lat="46.1708" lon="6.61544">
        <ele>1317.4</ele>
        <time>2021-06-26T08:17:22Z</time>
      </trkpt>
      <trkpt lat="46.17082" lon="6.61546">
        <ele>1317.6</ele>
        <time>2021-06-26T08:17:23Z</time>
      </trkpt>
      <trkpt lat="46.17084" lon="6.61548">
        <ele>1317.8</ele>
        <time>2021-06-26T08:17:24Z</time>
      </trkpt>
      <trkpt lat="46.17085" lon="6.6155">
        <ele>1318</ele>
        <time>2021-06-26T08:17:25Z</time>
      </trkpt>
      <trkpt lat="46.17087" lon="6.61551">
        <ele>1318.2</ele>
        <time>2021-06-26T08:17:26Z</time>
      </trkpt>
      <trkpt lat="46.17089" lon="6.61553">
        <ele>1318.6</ele>
        <time>2021-06-26T08:17:27Z</time>
      </trkpt>
      <trkpt lat="46.17091" lon="6.61554">
        <ele>1318.8</ele>
        <time>2021-06-26T08:17:28Z</time>
      </trkpt>
      <trkpt lat="46.17093" lon="6.61555">
        <ele>1319</ele>
        <time>2021-06-26T08:17:29Z</time>
      </trkpt>
      <trkpt lat="46.17095" lon="6.61556">
        <ele>1319.2</ele>
        <time>2021-06-26T08:17:30Z</time>
      </trkpt>
      <trkpt lat="46.17097" lon="6.61558">
        <ele>1319.4</ele>
        <time>2021-06-26T08:17:31Z</time>
      </trkpt>
      <trkpt lat="46.17099" lon="6.61559">
        <ele>1319.6</ele>
        <time>2021-06-26T08:17:32Z</time>
      </trkpt>
      <trkpt lat="46.17101" lon="6.6156">
        <ele>1319.8</ele>
        <time>2021-06-26T08:17:33Z</time>
      </trkpt>
      <trkpt lat="46.17103" lon="6.61562">
        <ele>1320</ele>
        <time>2021-06-26T08:17:34Z</time>
      </trkpt>
      <trkpt lat="46.17105" lon="6.61563">
        <ele>1320.2</ele>
        <time>2021-06-26T08:17:35Z</time>
      </trkpt>
      <trkpt lat="46.17106" lon="6.61564">
        <ele>1320.4</ele>
        <time>2021-06-26T08:17:36Z</time>
      </trkpt>
      <trkpt lat="46.17108" lon="6.61565">
        <ele>1320.6</ele>
        <time>2021-06-26T08:17:37Z</time>
      </trkpt>
      <trkpt lat="46.1711" lon="6.61566">
        <ele>1321</ele>
        <time>2021-06-26T08:17:38Z</time>
      </trkpt>
      <trkpt lat="46.17112" lon="6.61567">
        <ele>1321</ele>
        <time>2021-06-26T08:17:39Z</time>
      </trkpt>
      <trkpt lat="46.17114" lon="6.61568">
        <ele>1321.2</ele>
        <time>2021-06-26T08:17:40Z</time>
      </trkpt>
      <trkpt lat="46.17115" lon="6.6157">
        <ele>1321.4</ele>
        <time>2021-06-26T08:17:41Z</time>
      </trkpt>
      <trkpt lat="46.17117" lon="6.61571">
        <ele>1321.8</ele>
        <time>2021-06-26T08:17:42Z</time>
      </trkpt>
      <trkpt lat="46.17119" lon="6.61572">
        <ele>1321.8</ele>
        <time>2021-06-26T08:17:43Z</time>
      </trkpt>
      <trkpt lat="46.17121" lon="6.61573">
        <ele>1322</ele>
        <time>2021-06-26T08:17:44Z</time>
      </trkpt>
      <trkpt lat="46.17124" lon="6.61574">
        <ele>1322.2</ele>
        <time>2021-06-26T08:17:45Z</time>
      </trkpt>
      <trkpt lat="46.17126" lon="6.61575">
        <ele>1322.4</ele>
        <time>2021-06-26T08:17:46Z</time>
      </trkpt>
      <trkpt lat="46.17129" lon="6.61576">
        <ele>1322.6</ele>
        <time>2021-06-26T08:17:47Z</time>
      </trkpt>
      <trkpt lat="46.17132" lon="6.61577">
        <ele>1323</ele>
        <time>2021-06-26T08:17:48Z</time>
      </trkpt>
      <trkpt lat="46.17134" lon="6.61578">
        <ele>1323.2</ele>
        <time>2021-06-26T08:17:49Z</time>
      </trkpt>
      <trkpt lat="46.17136" lon="6.61579">
        <ele>1323.6</ele>
        <time>2021-06-26T08:17:50Z</time>
      </trkpt>
      <trkpt lat="46.17138" lon="6.6158">
        <ele>1323.8</ele>
        <time>2021-06-26T08:17:51Z</time>
      </trkpt>
      <trkpt lat="46.17141" lon="6.61582">
        <ele>1324</ele>
        <time>2021-06-26T08:17:52Z</time>
      </trkpt>
      <trkpt lat="46.17143" lon="6.61583">
        <ele>1324.2</ele>
        <time>2021-06-26T08:17:53Z</time>
      </trkpt>
      <trkpt lat="46.17145" lon="6.61583">
        <ele>1324.6</ele>
        <time>2021-06-26T08:17:54Z</time>
      </trkpt>
      <trkpt lat="46.17147" lon="6.61584">
        <ele>1325</ele>
        <time>2021-06-26T08:17:55Z</time>
      </trkpt>
      <trkpt lat="46.17149" lon="6.61584">
        <ele>1325.4</ele>
        <time>2021-06-26T08:17:56Z</time>
      </trkpt>
      <trkpt lat="46.17152" lon="6.61584">
        <ele>1325.8</ele>
        <time>2021-06-26T08:17:57Z</time>
      </trkpt>
      <trkpt lat="46.17154" lon="6.61584">
        <ele>1326</ele>
        <time>2021-06-26T08:17:58Z</time>
      </trkpt>
      <trkpt lat="46.17156" lon="6.61585">
        <ele>1326.2</ele>
        <time>2021-06-26T08:17:59Z</time>
      </trkpt>
      <trkpt lat="46.17159" lon="6.61585">
        <ele>1326.4</ele>
        <time>2021-06-26T08:18:00Z</time>
      </trkpt>
      <trkpt lat="46.17161" lon="6.61586">
        <ele>1326.6</ele>
        <time>2021-06-26T08:18:01Z</time>
      </trkpt>
      <trkpt lat="46.17164" lon="6.61586">
        <ele>1327</ele>
        <time>2021-06-26T08:18:02Z</time>
      </trkpt>
      <trkpt lat="46.17167" lon="6.61585">
        <ele>1327.4</ele>
        <time>2021-06-26T08:18:03Z</time>
      </trkpt>
      <trkpt lat="46.17169" lon="6.61585">
        <ele>1327.4</ele>
        <time>2021-06-26T08:18:04Z</time>
      </trkpt>
      <trkpt lat="46.17172" lon="6.61584">
        <ele>1327.4</ele>
        <time>2021-06-26T08:18:05Z</time>
      </trkpt>
      <trkpt lat="46.17174" lon="6.61583">
        <ele>1327.6</ele>
        <time>2021-06-26T08:18:06Z</time>
      </trkpt>
      <trkpt lat="46.17176" lon="6.61582">
        <ele>1327.8</ele>
        <time>2021-06-26T08:18:07Z</time>
      </trkpt>
      <trkpt lat="46.17178" lon="6.61581">
        <ele>1328</ele>
        <time>2021-06-26T08:18:08Z</time>
      </trkpt>
      <trkpt lat="46.1718" lon="6.6158">
        <ele>1328.2</ele>
        <time>2021-06-26T08:18:09Z</time>
      </trkpt>
      <trkpt lat="46.17182" lon="6.61579">
        <ele>1328.8</ele>
        <time>2021-06-26T08:18:10Z</time>
      </trkpt>
      <trkpt lat="46.17184" lon="6.61577">
        <ele>1329.2</ele>
        <time>2021-06-26T08:18:11Z</time>
      </trkpt>
      <trkpt lat="46.17185" lon="6.61575">
        <ele>1329.4</ele>
        <time>2021-06-26T08:18:12Z</time>
      </trkpt>
      <trkpt lat="46.17187" lon="6.61573">
        <ele>1329.6</ele>
        <time>2021-06-26T08:18:13Z</time>
      </trkpt>
      <trkpt lat="46.17188" lon="6.61571">
        <ele>1329.6</ele>
        <time>2021-06-26T08:18:14Z</time>
      </trkpt>
      <trkpt lat="46.17191" lon="6.61569">
        <ele>1329.8</ele>
        <time>2021-06-26T08:18:15Z</time>
      </trkpt>
      <trkpt lat="46.17193" lon="6.61566">
        <ele>1330</ele>
        <time>2021-06-26T08:18:16Z</time>
      </trkpt>
      <trkpt lat="46.17195" lon="6.61564">
        <ele>1330.2</ele>
        <time>2021-06-26T08:18:17Z</time>
      </trkpt>
      <trkpt lat="46.17197" lon="6.61562">
        <ele>1330.8</ele>
        <time>2021-06-26T08:18:18Z</time>
      </trkpt>
      <trkpt lat="46.17198" lon="6.61559">
        <ele>1331</ele>
        <time>2021-06-26T08:18:19Z</time>
      </trkpt>
      <trkpt lat="46.172" lon="6.61557">
        <ele>1331</ele>
        <time>2021-06-26T08:18:20Z</time>
      </trkpt>
      <trkpt lat="46.17202" lon="6.61554">
        <ele>1331.4</ele>
        <time>2021-06-26T08:18:21Z</time>
      </trkpt>
      <trkpt lat="46.17203" lon="6.61552">
        <ele>1331.6</ele>
        <time>2021-06-26T08:18:22Z</time>
      </trkpt>
      <trkpt lat="46.17205" lon="6.6155">
        <ele>1331.8</ele>
        <time>2021-06-26T08:18:23Z</time>
      </trkpt>
      <trkpt lat="46.17207" lon="6.61548">
        <ele>1332</ele>
        <time>2021-06-26T08:18:24Z</time>
      </trkpt>
      <trkpt lat="46.17209" lon="6.61545">
        <ele>1332.2</ele>
        <time>2021-06-26T08:18:25Z</time>
      </trkpt>
      <trkpt lat="46.1721" lon="6.61543">
        <ele>1332.4</ele>
        <time>2021-06-26T08:18:26Z</time>
      </trkpt>
      <trkpt lat="46.17212" lon="6.6154">
        <ele>1332.4</ele>
        <time>2021-06-26T08:18:27Z</time>
      </trkpt>
      <trkpt lat="46.17214" lon="6.61538">
        <ele>1332.6</ele>
        <time>2021-06-26T08:18:28Z</time>
      </trkpt>
      <trkpt lat="46.17215" lon="6.61536">
        <ele>1332.8</ele>
        <time>2021-06-26T08:18:29Z</time>
      </trkpt>
      <trkpt lat="46.17217" lon="6.61534">
        <ele>1333.2</ele>
        <time>2021-06-26T08:18:30Z</time>
      </trkpt>
      <trkpt lat="46.17218" lon="6.61531">
        <ele>1333.6</ele>
        <time>2021-06-26T08:18:31Z</time>
      </trkpt>
      <trkpt lat="46.17219" lon="6.61529">
        <ele>1333.8</ele>
        <time>2021-06-26T08:18:32Z</time>
      </trkpt>
      <trkpt lat="46.17221" lon="6.61526">
        <ele>1333.8</ele>
        <time>2021-06-26T08:18:33Z</time>
      </trkpt>
      <trkpt lat="46.17222" lon="6.61523">
        <ele>1334</ele>
        <time>2021-06-26T08:18:34Z</time>
      </trkpt>
      <trkpt lat="46.17223" lon="6.61519">
        <ele>1334.4</ele>
        <time>2021-06-26T08:18:35Z</time>
      </trkpt>
      <trkpt lat="46.17224" lon="6.61516">
        <ele>1334.6</ele>
        <time>2021-06-26T08:18:36Z</time>
      </trkpt>
      <trkpt lat="46.17226" lon="6.61513">
        <ele>1334.8</ele>
        <time>2021-06-26T08:18:37Z</time>
      </trkpt>
      <trkpt lat="46.17227" lon="6.61511">
        <ele>1335.2</ele>
        <time>2021-06-26T08:18:38Z</time>
      </trkpt>
      <trkpt lat="46.17228" lon="6.61508">
        <ele>1335.4</ele>
        <time>2021-06-26T08:18:39Z</time>
      </trkpt>
      <trkpt lat="46.17229" lon="6.61505">
        <ele>1335.8</ele>
        <time>2021-06-26T08:18:40Z</time>
      </trkpt>
      <trkpt lat="46.17231" lon="6.61502">
        <ele>1336</ele>
        <time>2021-06-26T08:18:41Z</time>
      </trkpt>
      <trkpt lat="46.17232" lon="6.61499">
        <ele>1336.2</ele>
        <time>2021-06-26T08:18:42Z</time>
      </trkpt>
      <trkpt lat="46.17233" lon="6.61497">
        <ele>1336.4</ele>
        <time>2021-06-26T08:18:43Z</time>
      </trkpt>
      <trkpt lat="46.17234" lon="6.61494">
        <ele>1336.6</ele>
        <time>2021-06-26T08:18:44Z</time>
      </trkpt>
      <trkpt lat="46.17236" lon="6.61492">
        <ele>1336.8</ele>
        <time>2021-06-26T08:18:45Z</time>
      </trkpt>
      <trkpt lat="46.17237" lon="6.61489">
        <ele>1337</ele>
        <time>2021-06-26T08:18:46Z</time>
      </trkpt>
      <trkpt lat="46.17238" lon="6.61485">
        <ele>1337.4</ele>
        <time>2021-06-26T08:18:47Z</time>
      </trkpt>
      <trkpt lat="46.17239" lon="6.61482">
        <ele>1337.8</ele>
        <time>2021-06-26T08:18:48Z</time>
      </trkpt>
      <trkpt lat="46.1724" lon="6.61479">
        <ele>1337.8</ele>
        <time>2021-06-26T08:18:49Z</time>
      </trkpt>
      <trkpt lat="46.17242" lon="6.61476">
        <ele>1338</ele>
        <time>2021-06-26T08:18:50Z</time>
      </trkpt>
      <trkpt lat="46.17244" lon="6.61473">
        <ele>1338</ele>
        <time>2021-06-26T08:18:51Z</time>
      </trkpt>
      <trkpt lat="46.17245" lon="6.61469">
        <ele>1338.2</ele>
        <time>2021-06-26T08:18:52Z</time>
      </trkpt>
      <trkpt lat="46.17246" lon="6.61466">
        <ele>1338.6</ele>
        <time>2021-06-26T08:18:53Z</time>
      </trkpt>
      <trkpt lat="46.17248" lon="6.61463">
        <ele>1338.6</ele>
        <time>2021-06-26T08:18:54Z</time>
      </trkpt>
      <trkpt lat="46.17249" lon="6.61459">
        <ele>1338.8</ele>
        <time>2021-06-26T08:18:55Z</time>
      </trkpt>
      <trkpt lat="46.1725" lon="6.61456">
        <ele>1339</ele>
        <time>2021-06-26T08:18:56Z</time>
      </trkpt>
      <trkpt lat="46.17252" lon="6.61453">
        <ele>1339.4</ele>
        <time>2021-06-26T08:18:57Z</time>
      </trkpt>
      <trkpt lat="46.17253" lon="6.6145">
        <ele>1339.6</ele>
        <time>2021-06-26T08:18:58Z</time>
      </trkpt>
      <trkpt lat="46.17254" lon="6.61446">
        <ele>1339.8</ele>
        <time>2021-06-26T08:18:59Z</time>
      </trkpt>
      <trkpt lat="46.17256" lon="6.61443">
        <ele>1340</ele>
        <time>2021-06-26T08:19:00Z</time>
      </trkpt>
      <trkpt lat="46.17258" lon="6.6144">
        <ele>1340.4</ele>
        <time>2021-06-26T08:19:01Z</time>
      </trkpt>
      <trkpt lat="46.17259" lon="6.61436">
        <ele>1340.6</ele>
        <time>2021-06-26T08:19:02Z</time>
      </trkpt>
      <trkpt lat="46.1726" lon="6.61433">
        <ele>1340.6</ele>
        <time>2021-06-26T08:19:03Z</time>
      </trkpt>
      <trkpt lat="46.17261" lon="6.61429">
        <ele>1340.6</ele>
        <time>2021-06-26T08:19:04Z</time>
      </trkpt>
      <trkpt lat="46.17263" lon="6.61426">
        <ele>1341</ele>
        <time>2021-06-26T08:19:05Z</time>
      </trkpt>
      <trkpt lat="46.17265" lon="6.61423">
        <ele>1341</ele>
        <time>2021-06-26T08:19:06Z</time>
      </trkpt>
      <trkpt lat="46.17266" lon="6.61419">
        <ele>1341.2</ele>
        <time>2021-06-26T08:19:07Z</time>
      </trkpt>
      <trkpt lat="46.17268" lon="6.61416">
        <ele>1341.4</ele>
        <time>2021-06-26T08:19:08Z</time>
      </trkpt>
      <trkpt lat="46.17269" lon="6.61413">
        <ele>1341.6</ele>
        <time>2021-06-26T08:19:09Z</time>
      </trkpt>
      <trkpt lat="46.17271" lon="6.6141">
        <ele>1341.8</ele>
        <time>2021-06-26T08:19:10Z</time>
      </trkpt>
      <trkpt lat="46.17273" lon="6.61407">
        <ele>1342.2</ele>
        <time>2021-06-26T08:19:11Z</time>
      </trkpt>
      <trkpt lat="46.17274" lon="6.61404">
        <ele>1342.2</ele>
        <time>2021-06-26T08:19:12Z</time>
      </trkpt>
      <trkpt lat="46.17276" lon="6.61401">
        <ele>1342.4</ele>
        <time>2021-06-26T08:19:13Z</time>
      </trkpt>
      <trkpt lat="46.17277" lon="6.61398">
        <ele>1342.4</ele>
        <time>2021-06-26T08:19:14Z</time>
      </trkpt>
      <trkpt lat="46.17278" lon="6.61394">
        <ele>1342.4</ele>
        <time>2021-06-26T08:19:15Z</time>
      </trkpt>
      <trkpt lat="46.1728" lon="6.61391">
        <ele>1342.8</ele>
        <time>2021-06-26T08:19:16Z</time>
      </trkpt>
      <trkpt lat="46.17281" lon="6.61387">
        <ele>1343</ele>
        <time>2021-06-26T08:19:17Z</time>
      </trkpt>
      <trkpt lat="46.17283" lon="6.61384">
        <ele>1343</ele>
        <time>2021-06-26T08:19:18Z</time>
      </trkpt>
      <trkpt lat="46.17284" lon="6.61381">
        <ele>1343.2</ele>
        <time>2021-06-26T08:19:19Z</time>
      </trkpt>
      <trkpt lat="46.17286" lon="6.61378">
        <ele>1343.4</ele>
        <time>2021-06-26T08:19:20Z</time>
      </trkpt>
      <trkpt lat="46.17288" lon="6.61375">
        <ele>1343.6</ele>
        <time>2021-06-26T08:19:21Z</time>
      </trkpt>
      <trkpt lat="46.17289" lon="6.61371">
        <ele>1343.8</ele>
        <time>2021-06-26T08:19:22Z</time>
      </trkpt>
      <trkpt lat="46.17291" lon="6.61368">
        <ele>1344</ele>
        <time>2021-06-26T08:19:23Z</time>
      </trkpt>
      <trkpt lat="46.17293" lon="6.61365">
        <ele>1344.2</ele>
        <time>2021-06-26T08:19:24Z</time>
      </trkpt>
      <trkpt lat="46.17295" lon="6.61361">
        <ele>1344.4</ele>
        <time>2021-06-26T08:19:25Z</time>
      </trkpt>
      <trkpt lat="46.17296" lon="6.61357">
        <ele>1344.4</ele>
        <time>2021-06-26T08:19:26Z</time>
      </trkpt>
      <trkpt lat="46.17298" lon="6.61354">
        <ele>1344.6</ele>
        <time>2021-06-26T08:19:27Z</time>
      </trkpt>
      <trkpt lat="46.17299" lon="6.6135">
        <ele>1344.6</ele>
        <time>2021-06-26T08:19:28Z</time>
      </trkpt>
      <trkpt lat="46.17301" lon="6.61346">
        <ele>1344.8</ele>
        <time>2021-06-26T08:19:29Z</time>
      </trkpt>
      <trkpt lat="46.17303" lon="6.61343">
        <ele>1344.8</ele>
        <time>2021-06-26T08:19:30Z</time>
      </trkpt>
      <trkpt lat="46.17304" lon="6.6134">
        <ele>1345</ele>
        <time>2021-06-26T08:19:31Z</time>
      </trkpt>
      <trkpt lat="46.17305" lon="6.61336">
        <ele>1345.2</ele>
        <time>2021-06-26T08:19:32Z</time>
      </trkpt>
      <trkpt lat="46.17306" lon="6.61332">
        <ele>1345.2</ele>
        <time>2021-06-26T08:19:33Z</time>
      </trkpt>
      <trkpt lat="46.17309" lon="6.61329">
        <ele>1345.2</ele>
        <time>2021-06-26T08:19:34Z</time>
      </trkpt>
      <trkpt lat="46.17311" lon="6.61326">
        <ele>1345.2</ele>
        <time>2021-06-26T08:19:35Z</time>
      </trkpt>
      <trkpt lat="46.17314" lon="6.61322">
        <ele>1345.2</ele>
        <time>2021-06-26T08:19:36Z</time>
      </trkpt>
      <trkpt lat="46.17316" lon="6.61319">
        <ele>1345.2</ele>
        <time>2021-06-26T08:19:37Z</time>
      </trkpt>
      <trkpt lat="46.17319" lon="6.61316">
        <ele>1345.4</ele>
        <time>2021-06-26T08:19:38Z</time>
      </trkpt>
      <trkpt lat="46.17335" lon="6.61307">
        <ele>1345.4</ele>
        <time>2021-06-26T08:19:43Z</time>
      </trkpt>
      <trkpt lat="46.17344" lon="6.61305">
        <ele>1345.4</ele>
        <time>2021-06-26T08:19:45Z</time>
      </trkpt>
      <trkpt lat="46.17353" lon="6.61306">
        <ele>1345.4</ele>
        <time>2021-06-26T08:19:47Z</time>
      </trkpt>
      <trkpt lat="46.17357" lon="6.61309">
        <ele>1345.4</ele>
        <time>2021-06-26T08:19:48Z</time>
      </trkpt>
      <trkpt lat="46.17361" lon="6.61311">
        <ele>1345.4</ele>
        <time>2021-06-26T08:19:49Z</time>
      </trkpt>
      <trkpt lat="46.17365" lon="6.61315">
        <ele>1345.2</ele>
        <time>2021-06-26T08:19:50Z</time>
      </trkpt>
      <trkpt lat="46.17369" lon="6.61318">
        <ele>1344.8</ele>
        <time>2021-06-26T08:19:51Z</time>
      </trkpt>
      <trkpt lat="46.17377" lon="6.61326">
        <ele>1344.6</ele>
        <time>2021-06-26T08:19:53Z</time>
      </trkpt>
      <trkpt lat="46.1738" lon="6.61331">
        <ele>1344.4</ele>
        <time>2021-06-26T08:19:54Z</time>
      </trkpt>
      <trkpt lat="46.17382" lon="6.61336">
        <ele>1344.4</ele>
        <time>2021-06-26T08:19:55Z</time>
      </trkpt>
      <trkpt lat="46.17385" lon="6.61342">
        <ele>1344.4</ele>
        <time>2021-06-26T08:19:56Z</time>
      </trkpt>
      <trkpt lat="46.17386" lon="6.61348">
        <ele>1344.4</ele>
        <time>2021-06-26T08:19:57Z</time>
      </trkpt>
      <trkpt lat="46.17387" lon="6.61355">
        <ele>1344.2</ele>
        <time>2021-06-26T08:19:58Z</time>
      </trkpt>
      <trkpt lat="46.17387" lon="6.61362">
        <ele>1344.4</ele>
        <time>2021-06-26T08:19:59Z</time>
      </trkpt>
      <trkpt lat="46.17387" lon="6.61368">
        <ele>1344.2</ele>
        <time>2021-06-26T08:20:00Z</time>
      </trkpt>
      <trkpt lat="46.17387" lon="6.61375">
        <ele>1344.4</ele>
        <time>2021-06-26T08:20:01Z</time>
      </trkpt>
      <trkpt lat="46.17386" lon="6.61396">
        <ele>1344.4</ele>
        <time>2021-06-26T08:20:04Z</time>
      </trkpt>
      <trkpt lat="46.17385" lon="6.61402">
        <ele>1344.2</ele>
        <time>2021-06-26T08:20:05Z</time>
      </trkpt>
      <trkpt lat="46.17385" lon="6.61408">
        <ele>1344.4</ele>
        <time>2021-06-26T08:20:06Z</time>
      </trkpt>
      <trkpt lat="46.17384" lon="6.61415">
        <ele>1344.4</ele>
        <time>2021-06-26T08:20:07Z</time>
      </trkpt>
      <trkpt lat="46.17384" lon="6.61421">
        <ele>1344.4</ele>
        <time>2021-06-26T08:20:08Z</time>
      </trkpt>
      <trkpt lat="46.17384" lon="6.61427">
        <ele>1344.4</ele>
        <time>2021-06-26T08:20:09Z</time>
      </trkpt>
      <trkpt lat="46.17383" lon="6.61432">
        <ele>1344.6</ele>
        <time>2021-06-26T08:20:10Z</time>
      </trkpt>
      <trkpt lat="46.17383" lon="6.61438">
        <ele>1344.8</ele>
        <time>2021-06-26T08:20:11Z</time>
      </trkpt>
      <trkpt lat="46.17382" lon="6.61443">
        <ele>1345.2</ele>
        <time>2021-06-26T08:20:12Z</time>
      </trkpt>
      <trkpt lat="46.17382" lon="6.61449">
        <ele>1345.4</ele>
        <time>2021-06-26T08:20:13Z</time>
      </trkpt>
      <trkpt lat="46.17382" lon="6.61454">
        <ele>1345.4</ele>
        <time>2021-06-26T08:20:14Z</time>
      </trkpt>
      <trkpt lat="46.17381" lon="6.61459">
        <ele>1345.4</ele>
        <time>2021-06-26T08:20:15Z</time>
      </trkpt>
      <trkpt lat="46.17381" lon="6.61464">
        <ele>1345.6</ele>
        <time>2021-06-26T08:20:16Z</time>
      </trkpt>
      <trkpt lat="46.17381" lon="6.61481">
        <ele>1345.8</ele>
        <time>2021-06-26T08:20:19Z</time>
      </trkpt>
      <trkpt lat="46.17381" lon="6.61486">
        <ele>1345.8</ele>
        <time>2021-06-26T08:20:20Z</time>
      </trkpt>
      <trkpt lat="46.1738" lon="6.61492">
        <ele>1346</ele>
        <time>2021-06-26T08:20:21Z</time>
      </trkpt>
      <trkpt lat="46.1738" lon="6.61497">
        <ele>1346.4</ele>
        <time>2021-06-26T08:20:22Z</time>
      </trkpt>
      <trkpt lat="46.1738" lon="6.61503">
        <ele>1346.4</ele>
        <time>2021-06-26T08:20:23Z</time>
      </trkpt>
      <trkpt lat="46.1738" lon="6.61508">
        <ele>1346.6</ele>
        <time>2021-06-26T08:20:24Z</time>
      </trkpt>
      <trkpt lat="46.17379" lon="6.61514">
        <ele>1346.8</ele>
        <time>2021-06-26T08:20:25Z</time>
      </trkpt>
      <trkpt lat="46.17379" lon="6.6152">
        <ele>1347.2</ele>
        <time>2021-06-26T08:20:26Z</time>
      </trkpt>
      <trkpt lat="46.17379" lon="6.61526">
        <ele>1347.4</ele>
        <time>2021-06-26T08:20:27Z</time>
      </trkpt>
      <trkpt lat="46.17379" lon="6.61532">
        <ele>1347.6</ele>
        <time>2021-06-26T08:20:28Z</time>
      </trkpt>
      <trkpt lat="46.17379" lon="6.61539">
        <ele>1347.8</ele>
        <time>2021-06-26T08:20:29Z</time>
      </trkpt>
      <trkpt lat="46.17379" lon="6.61546">
        <ele>1347.8</ele>
        <time>2021-06-26T08:20:30Z</time>
      </trkpt>
      <trkpt lat="46.17379" lon="6.61554">
        <ele>1347.8</ele>
        <time>2021-06-26T08:20:31Z</time>
      </trkpt>
      <trkpt lat="46.17379" lon="6.61562">
        <ele>1347.8</ele>
        <time>2021-06-26T08:20:32Z</time>
      </trkpt>
      <trkpt lat="46.17378" lon="6.61569">
        <ele>1347.6</ele>
        <time>2021-06-26T08:20:33Z</time>
      </trkpt>
      <trkpt lat="46.17378" lon="6.61575">
        <ele>1347.8</ele>
        <time>2021-06-26T08:20:34Z</time>
      </trkpt>
      <trkpt lat="46.17377" lon="6.61581">
        <ele>1347.8</ele>
        <time>2021-06-26T08:20:35Z</time>
      </trkpt>
      <trkpt lat="46.17376" lon="6.61588">
        <ele>1347.8</ele>
        <time>2021-06-26T08:20:36Z</time>
      </trkpt>
      <trkpt lat="46.17367" lon="6.61616">
        <ele>1347.6</ele>
        <time>2021-06-26T08:20:40Z</time>
      </trkpt>
      <trkpt lat="46.17364" lon="6.61623">
        <ele>1347.4</ele>
        <time>2021-06-26T08:20:41Z</time>
      </trkpt>
      <trkpt lat="46.17354" lon="6.61648">
        <ele>1347</ele>
        <time>2021-06-26T08:20:44Z</time>
      </trkpt>
      <trkpt lat="46.17347" lon="6.61666">
        <ele>1346.8</ele>
        <time>2021-06-26T08:20:46Z</time>
      </trkpt>
      <trkpt lat="46.17342" lon="6.61674">
        <ele>1346.8</ele>
        <time>2021-06-26T08:20:47Z</time>
      </trkpt>
      <trkpt lat="46.17324" lon="6.617">
        <ele>1345.6</ele>
        <time>2021-06-26T08:20:50Z</time>
      </trkpt>
      <trkpt lat="46.17319" lon="6.61709">
        <ele>1345.4</ele>
        <time>2021-06-26T08:20:51Z</time>
      </trkpt>
      <trkpt lat="46.17315" lon="6.6172">
        <ele>1344.8</ele>
        <time>2021-06-26T08:20:52Z</time>
      </trkpt>
      <trkpt lat="46.17312" lon="6.61732">
        <ele>1344.2</ele>
        <time>2021-06-26T08:20:53Z</time>
      </trkpt>
      <trkpt lat="46.1731" lon="6.61744">
        <ele>1343.8</ele>
        <time>2021-06-26T08:20:54Z</time>
      </trkpt>
      <trkpt lat="46.17309" lon="6.61759">
        <ele>1343.4</ele>
        <time>2021-06-26T08:20:55Z</time>
      </trkpt>
      <trkpt lat="46.17304" lon="6.61787">
        <ele>1342.2</ele>
        <time>2021-06-26T08:20:57Z</time>
      </trkpt>
      <trkpt lat="46.17302" lon="6.61802">
        <ele>1341.8</ele>
        <time>2021-06-26T08:20:58Z</time>
      </trkpt>
      <trkpt lat="46.173" lon="6.61818">
        <ele>1341.2</ele>
        <time>2021-06-26T08:20:59Z</time>
      </trkpt>
      <trkpt lat="46.17298" lon="6.61834">
        <ele>1340.8</ele>
        <time>2021-06-26T08:21:00Z</time>
      </trkpt>
      <trkpt lat="46.17295" lon="6.61867">
        <ele>1339.2</ele>
        <time>2021-06-26T08:21:02Z</time>
      </trkpt>
      <trkpt lat="46.17294" lon="6.61883">
        <ele>1338</ele>
        <time>2021-06-26T08:21:03Z</time>
      </trkpt>
      <trkpt lat="46.17291" lon="6.61898">
        <ele>1336.6</ele>
        <time>2021-06-26T08:21:04Z</time>
      </trkpt>
      <trkpt lat="46.17289" lon="6.61912">
        <ele>1336.6</ele>
        <time>2021-06-26T08:21:05Z</time>
      </trkpt>
      <trkpt lat="46.17287" lon="6.61924">
        <ele>1335.6</ele>
        <time>2021-06-26T08:21:06Z</time>
      </trkpt>
      <trkpt lat="46.17284" lon="6.61936">
        <ele>1334.6</ele>
        <time>2021-06-26T08:21:07Z</time>
      </trkpt>
      <trkpt lat="46.17282" lon="6.61947">
        <ele>1333</ele>
        <time>2021-06-26T08:21:08Z</time>
      </trkpt>
      <trkpt lat="46.1728" lon="6.61958">
        <ele>1331.6</ele>
        <time>2021-06-26T08:21:09Z</time>
      </trkpt>
      <trkpt lat="46.17281" lon="6.61969">
        <ele>1330.2</ele>
        <time>2021-06-26T08:21:10Z</time>
      </trkpt>
      <trkpt lat="46.17283" lon="6.61982">
        <ele>1329.2</ele>
        <time>2021-06-26T08:21:11Z</time>
      </trkpt>
      <trkpt lat="46.17285" lon="6.61995">
        <ele>1328</ele>
        <time>2021-06-26T08:21:12Z</time>
      </trkpt>
      <trkpt lat="46.17288" lon="6.62008">
        <ele>1327</ele>
        <time>2021-06-26T08:21:13Z</time>
      </trkpt>
      <trkpt lat="46.17289" lon="6.62021">
        <ele>1326.4</ele>
        <time>2021-06-26T08:21:14Z</time>
      </trkpt>
      <trkpt lat="46.17286" lon="6.62032">
        <ele>1325.8</ele>
        <time>2021-06-26T08:21:15Z</time>
      </trkpt>
      <trkpt lat="46.17282" lon="6.62039">
        <ele>1325</ele>
        <time>2021-06-26T08:21:16Z</time>
      </trkpt>
      <trkpt lat="46.17276" lon="6.62043">
        <ele>1324.6</ele>
        <time>2021-06-26T08:21:17Z</time>
      </trkpt>
      <trkpt lat="46.1727" lon="6.62048">
        <ele>1324</ele>
        <time>2021-06-26T08:21:18Z</time>
      </trkpt>
      <trkpt lat="46.17264" lon="6.62052">
        <ele>1323.2</ele>
        <time>2021-06-26T08:21:19Z</time>
      </trkpt>
      <trkpt lat="46.17259" lon="6.62056">
        <ele>1321.8</ele>
        <time>2021-06-26T08:21:20Z</time>
      </trkpt>
      <trkpt lat="46.17254" lon="6.6206">
        <ele>1321.2</ele>
        <time>2021-06-26T08:21:21Z</time>
      </trkpt>
      <trkpt lat="46.1725" lon="6.62065">
        <ele>1321</ele>
        <time>2021-06-26T08:21:22Z</time>
      </trkpt>
      <trkpt lat="46.17246" lon="6.62069">
        <ele>1320.8</ele>
        <time>2021-06-26T08:21:23Z</time>
      </trkpt>
      <trkpt lat="46.17242" lon="6.62073">
        <ele>1320.8</ele>
        <time>2021-06-26T08:21:24Z</time>
      </trkpt>
      <trkpt lat="46.17239" lon="6.62077">
        <ele>1320.6</ele>
        <time>2021-06-26T08:21:25Z</time>
      </trkpt>
      <trkpt lat="46.17235" lon="6.62081">
        <ele>1320.8</ele>
        <time>2021-06-26T08:21:26Z</time>
      </trkpt>
      <trkpt lat="46.17232" lon="6.62085">
        <ele>1320.8</ele>
        <time>2021-06-26T08:21:27Z</time>
      </trkpt>
      <trkpt lat="46.17228" lon="6.62089">
        <ele>1320.8</ele>
        <time>2021-06-26T08:21:28Z</time>
      </trkpt>
      <trkpt lat="46.17225" lon="6.62093">
        <ele>1320.6</ele>
        <time>2021-06-26T08:21:29Z</time>
      </trkpt>
      <trkpt lat="46.17222" lon="6.62097">
        <ele>1320.8</ele>
        <time>2021-06-26T08:21:30Z</time>
      </trkpt>
      <trkpt lat="46.17218" lon="6.621">
        <ele>1321</ele>
        <time>2021-06-26T08:21:31Z</time>
      </trkpt>
      <trkpt lat="46.17215" lon="6.62104">
        <ele>1321.4</ele>
        <time>2021-06-26T08:21:32Z</time>
      </trkpt>
      <trkpt lat="46.17212" lon="6.62107">
        <ele>1321.8</ele>
        <time>2021-06-26T08:21:33Z</time>
      </trkpt>
      <trkpt lat="46.17209" lon="6.6211">
        <ele>1322.2</ele>
        <time>2021-06-26T08:21:34Z</time>
      </trkpt>
      <trkpt lat="46.17206" lon="6.62113">
        <ele>1322.6</ele>
        <time>2021-06-26T08:21:35Z</time>
      </trkpt>
      <trkpt lat="46.172" lon="6.62119">
        <ele>1323.4</ele>
        <time>2021-06-26T08:21:37Z</time>
      </trkpt>
      <trkpt lat="46.17197" lon="6.62122">
        <ele>1323.8</ele>
        <time>2021-06-26T08:21:38Z</time>
      </trkpt>
      <trkpt lat="46.17194" lon="6.62125">
        <ele>1324</ele>
        <time>2021-06-26T08:21:39Z</time>
      </trkpt>
      <trkpt lat="46.17191" lon="6.62127">
        <ele>1324.2</ele>
        <time>2021-06-26T08:21:40Z</time>
      </trkpt>
      <trkpt lat="46.17188" lon="6.6213">
        <ele>1324.6</ele>
        <time>2021-06-26T08:21:41Z</time>
      </trkpt>
      <trkpt lat="46.17186" lon="6.62132">
        <ele>1324.8</ele>
        <time>2021-06-26T08:21:42Z</time>
      </trkpt>
      <trkpt lat="46.17182" lon="6.62135">
        <ele>1325</ele>
        <time>2021-06-26T08:21:43Z</time>
      </trkpt>
      <trkpt lat="46.17179" lon="6.62138">
        <ele>1325.4</ele>
        <time>2021-06-26T08:21:44Z</time>
      </trkpt>
      <trkpt lat="46.17176" lon="6.6214">
        <ele>1325.6</ele>
        <time>2021-06-26T08:21:45Z</time>
      </trkpt>
      <trkpt lat="46.17173" lon="6.62143">
        <ele>1326</ele>
        <time>2021-06-26T08:21:46Z</time>
      </trkpt>
      <trkpt lat="46.17171" lon="6.62145">
        <ele>1326.2</ele>
        <time>2021-06-26T08:21:47Z</time>
      </trkpt>
      <trkpt lat="46.17168" lon="6.62147">
        <ele>1326.4</ele>
        <time>2021-06-26T08:21:48Z</time>
      </trkpt>
      <trkpt lat="46.17166" lon="6.62148">
        <ele>1326.4</ele>
        <time>2021-06-26T08:21:49Z</time>
      </trkpt>
      <trkpt lat="46.17163" lon="6.6215">
        <ele>1326.8</ele>
        <time>2021-06-26T08:21:50Z</time>
      </trkpt>
      <trkpt lat="46.1716" lon="6.62152">
        <ele>1327</ele>
        <time>2021-06-26T08:21:51Z</time>
      </trkpt>
      <trkpt lat="46.17158" lon="6.62154">
        <ele>1327.6</ele>
        <time>2021-06-26T08:21:52Z</time>
      </trkpt>
      <trkpt lat="46.17155" lon="6.62155">
        <ele>1327.8</ele>
        <time>2021-06-26T08:21:53Z</time>
      </trkpt>
      <trkpt lat="46.17153" lon="6.62157">
        <ele>1328</ele>
        <time>2021-06-26T08:21:54Z</time>
      </trkpt>
      <trkpt lat="46.17151" lon="6.6216">
        <ele>1328.4</ele>
        <time>2021-06-26T08:21:55Z</time>
      </trkpt>
      <trkpt lat="46.17149" lon="6.62162">
        <ele>1328.8</ele>
        <time>2021-06-26T08:21:56Z</time>
      </trkpt>
      <trkpt lat="46.17147" lon="6.62165">
        <ele>1329.2</ele>
        <time>2021-06-26T08:21:57Z</time>
      </trkpt>
      <trkpt lat="46.17145" lon="6.62167">
        <ele>1329.4</ele>
        <time>2021-06-26T08:21:58Z</time>
      </trkpt>
      <trkpt lat="46.17143" lon="6.62169">
        <ele>1330</ele>
        <time>2021-06-26T08:21:59Z</time>
      </trkpt>
      <trkpt lat="46.1714" lon="6.62172">
        <ele>1330.2</ele>
        <time>2021-06-26T08:22:00Z</time>
      </trkpt>
      <trkpt lat="46.17138" lon="6.62174">
        <ele>1330.4</ele>
        <time>2021-06-26T08:22:01Z</time>
      </trkpt>
      <trkpt lat="46.17136" lon="6.62176">
        <ele>1330.6</ele>
        <time>2021-06-26T08:22:02Z</time>
      </trkpt>
      <trkpt lat="46.17134" lon="6.62178">
        <ele>1331</ele>
        <time>2021-06-26T08:22:03Z</time>
      </trkpt>
      <trkpt lat="46.17132" lon="6.6218">
        <ele>1331.2</ele>
        <time>2021-06-26T08:22:04Z</time>
      </trkpt>
      <trkpt lat="46.1713" lon="6.62182">
        <ele>1331.4</ele>
        <time>2021-06-26T08:22:05Z</time>
      </trkpt>
      <trkpt lat="46.17128" lon="6.62184">
        <ele>1331.6</ele>
        <time>2021-06-26T08:22:06Z</time>
      </trkpt>
      <trkpt lat="46.17125" lon="6.62186">
        <ele>1331.8</ele>
        <time>2021-06-26T08:22:07Z</time>
      </trkpt>
      <trkpt lat="46.17123" lon="6.62188">
        <ele>1332</ele>
        <time>2021-06-26T08:22:08Z</time>
      </trkpt>
      <trkpt lat="46.1712" lon="6.62189">
        <ele>1332</ele>
        <time>2021-06-26T08:22:09Z</time>
      </trkpt>
      <trkpt lat="46.17117" lon="6.62191">
        <ele>1332.4</ele>
        <time>2021-06-26T08:22:10Z</time>
      </trkpt>
      <trkpt lat="46.17115" lon="6.62193">
        <ele>1332.6</ele>
        <time>2021-06-26T08:22:11Z</time>
      </trkpt>
      <trkpt lat="46.17112" lon="6.62194">
        <ele>1332.6</ele>
        <time>2021-06-26T08:22:12Z</time>
      </trkpt>
      <trkpt lat="46.1711" lon="6.62196">
        <ele>1332.8</ele>
        <time>2021-06-26T08:22:13Z</time>
      </trkpt>
      <trkpt lat="46.17107" lon="6.62197">
        <ele>1333</ele>
        <time>2021-06-26T08:22:14Z</time>
      </trkpt>
      <trkpt lat="46.17105" lon="6.62198">
        <ele>1333.2</ele>
        <time>2021-06-26T08:22:15Z</time>
      </trkpt>
      <trkpt lat="46.17102" lon="6.622">
        <ele>1333.6</ele>
        <time>2021-06-26T08:22:16Z</time>
      </trkpt>
      <trkpt lat="46.171" lon="6.62201">
        <ele>1333.8</ele>
        <time>2021-06-26T08:22:17Z</time>
      </trkpt>
      <trkpt lat="46.17097" lon="6.62203">
        <ele>1334</ele>
        <time>2021-06-26T08:22:18Z</time>
      </trkpt>
      <trkpt lat="46.17095" lon="6.62205">
        <ele>1334.2</ele>
        <time>2021-06-26T08:22:19Z</time>
      </trkpt>
      <trkpt lat="46.17092" lon="6.62207">
        <ele>1334.4</ele>
        <time>2021-06-26T08:22:20Z</time>
      </trkpt>
      <trkpt lat="46.1709" lon="6.62209">
        <ele>1334.8</ele>
        <time>2021-06-26T08:22:21Z</time>
      </trkpt>
      <trkpt lat="46.17088" lon="6.62211">
        <ele>1334.8</ele>
        <time>2021-06-26T08:22:22Z</time>
      </trkpt>
      <trkpt lat="46.17086" lon="6.62213">
        <ele>1335.2</ele>
        <time>2021-06-26T08:22:23Z</time>
      </trkpt>
      <trkpt lat="46.17084" lon="6.62215">
        <ele>1335.2</ele>
        <time>2021-06-26T08:22:24Z</time>
      </trkpt>
      <trkpt lat="46.17081" lon="6.62217">
        <ele>1335.4</ele>
        <time>2021-06-26T08:22:25Z</time>
      </trkpt>
      <trkpt lat="46.17079" lon="6.62219">
        <ele>1335.8</ele>
        <time>2021-06-26T08:22:26Z</time>
      </trkpt>
      <trkpt lat="46.17077" lon="6.62221">
        <ele>1336</ele>
        <time>2021-06-26T08:22:27Z</time>
      </trkpt>
      <trkpt lat="46.17074" lon="6.62222">
        <ele>1336.4</ele>
        <time>2021-06-26T08:22:28Z</time>
      </trkpt>
      <trkpt lat="46.17072" lon="6.62223">
        <ele>1336.6</ele>
        <time>2021-06-26T08:22:29Z</time>
      </trkpt>
      <trkpt lat="46.17069" lon="6.62225">
        <ele>1337</ele>
        <time>2021-06-26T08:22:30Z</time>
      </trkpt>
      <trkpt lat="46.17067" lon="6.62226">
        <ele>1337.2</ele>
        <time>2021-06-26T08:22:31Z</time>
      </trkpt>
      <trkpt lat="46.17065" lon="6.62228">
        <ele>1337.4</ele>
        <time>2021-06-26T08:22:32Z</time>
      </trkpt>
      <trkpt lat="46.17063" lon="6.62229">
        <ele>1337.6</ele>
        <time>2021-06-26T08:22:33Z</time>
      </trkpt>
      <trkpt lat="46.1706" lon="6.62231">
        <ele>1337.6</ele>
        <time>2021-06-26T08:22:34Z</time>
      </trkpt>
      <trkpt lat="46.17058" lon="6.62233">
        <ele>1338</ele>
        <time>2021-06-26T08:22:35Z</time>
      </trkpt>
      <trkpt lat="46.17056" lon="6.62234">
        <ele>1338.4</ele>
        <time>2021-06-26T08:22:36Z</time>
      </trkpt>
      <trkpt lat="46.17053" lon="6.62236">
        <ele>1338.4</ele>
        <time>2021-06-26T08:22:37Z</time>
      </trkpt>
      <trkpt lat="46.17051" lon="6.62237">
        <ele>1338.6</ele>
        <time>2021-06-26T08:22:38Z</time>
      </trkpt>
      <trkpt lat="46.17049" lon="6.62239">
        <ele>1338.8</ele>
        <time>2021-06-26T08:22:39Z</time>
      </trkpt>
      <trkpt lat="46.17046" lon="6.6224">
        <ele>1339.2</ele>
        <time>2021-06-26T08:22:40Z</time>
      </trkpt>
      <trkpt lat="46.17044" lon="6.62242">
        <ele>1339.4</ele>
        <time>2021-06-26T08:22:41Z</time>
      </trkpt>
      <trkpt lat="46.17041" lon="6.62244">
        <ele>1339.8</ele>
        <time>2021-06-26T08:22:42Z</time>
      </trkpt>
      <trkpt lat="46.17039" lon="6.62245">
        <ele>1340</ele>
        <time>2021-06-26T08:22:43Z</time>
      </trkpt>
      <trkpt lat="46.17037" lon="6.62247">
        <ele>1340</ele>
        <time>2021-06-26T08:22:44Z</time>
      </trkpt>
      <trkpt lat="46.17034" lon="6.62249">
        <ele>1340.2</ele>
        <time>2021-06-26T08:22:45Z</time>
      </trkpt>
      <trkpt lat="46.17032" lon="6.62251">
        <ele>1340.6</ele>
        <time>2021-06-26T08:22:46Z</time>
      </trkpt>
      <trkpt lat="46.1703" lon="6.62253">
        <ele>1340.8</ele>
        <time>2021-06-26T08:22:47Z</time>
      </trkpt>
      <trkpt lat="46.17029" lon="6.62255">
        <ele>1341</ele>
        <time>2021-06-26T08:22:48Z</time>
      </trkpt>
      <trkpt lat="46.17028" lon="6.62257">
        <ele>1341.2</ele>
        <time>2021-06-26T08:22:49Z</time>
      </trkpt>
      <trkpt lat="46.17026" lon="6.62258">
        <ele>1341.6</ele>
        <time>2021-06-26T08:22:50Z</time>
      </trkpt>
      <trkpt lat="46.17024" lon="6.6226">
        <ele>1341.8</ele>
        <time>2021-06-26T08:22:51Z</time>
      </trkpt>
      <trkpt lat="46.17022" lon="6.62262">
        <ele>1341.8</ele>
        <time>2021-06-26T08:22:52Z</time>
      </trkpt>
      <trkpt lat="46.17021" lon="6.62264">
        <ele>1342.2</ele>
        <time>2021-06-26T08:22:53Z</time>
      </trkpt>
      <trkpt lat="46.17019" lon="6.62265">
        <ele>1342.4</ele>
        <time>2021-06-26T08:22:54Z</time>
      </trkpt>
      <trkpt lat="46.17017" lon="6.62267">
        <ele>1342.8</ele>
        <time>2021-06-26T08:22:55Z</time>
      </trkpt>
      <trkpt lat="46.17014" lon="6.62269">
        <ele>1342.8</ele>
        <time>2021-06-26T08:22:56Z</time>
      </trkpt>
      <trkpt lat="46.17012" lon="6.62272">
        <ele>1342.8</ele>
        <time>2021-06-26T08:22:57Z</time>
      </trkpt>
      <trkpt lat="46.1701" lon="6.62274">
        <ele>1343.2</ele>
        <time>2021-06-26T08:22:58Z</time>
      </trkpt>
      <trkpt lat="46.17007" lon="6.62276">
        <ele>1343.2</ele>
        <time>2021-06-26T08:22:59Z</time>
      </trkpt>
      <trkpt lat="46.17005" lon="6.62278">
        <ele>1343.6</ele>
        <time>2021-06-26T08:23:00Z</time>
      </trkpt>
      <trkpt lat="46.17003" lon="6.62279">
        <ele>1343.8</ele>
        <time>2021-06-26T08:23:01Z</time>
      </trkpt>
      <trkpt lat="46.17" lon="6.6228">
        <ele>1344.2</ele>
        <time>2021-06-26T08:23:02Z</time>
      </trkpt>
      <trkpt lat="46.16997" lon="6.62281">
        <ele>1344.4</ele>
        <time>2021-06-26T08:23:03Z</time>
      </trkpt>
      <trkpt lat="46.16994" lon="6.62283">
        <ele>1344.6</ele>
        <time>2021-06-26T08:23:04Z</time>
      </trkpt>
      <trkpt lat="46.16992" lon="6.62284">
        <ele>1345</ele>
        <time>2021-06-26T08:23:05Z</time>
      </trkpt>
      <trkpt lat="46.16989" lon="6.62285">
        <ele>1345.2</ele>
        <time>2021-06-26T08:23:06Z</time>
      </trkpt>
      <trkpt lat="46.16986" lon="6.62286">
        <ele>1345.6</ele>
        <time>2021-06-26T08:23:07Z</time>
      </trkpt>
      <trkpt lat="46.16983" lon="6.62287">
        <ele>1345.8</ele>
        <time>2021-06-26T08:23:08Z</time>
      </trkpt>
      <trkpt lat="46.1698" lon="6.62287">
        <ele>1346</ele>
        <time>2021-06-26T08:23:09Z</time>
      </trkpt>
      <trkpt lat="46.16977" lon="6.62287">
        <ele>1346.2</ele>
        <time>2021-06-26T08:23:10Z</time>
      </trkpt>
      <trkpt lat="46.16975" lon="6.62288">
        <ele>1346.4</ele>
        <time>2021-06-26T08:23:11Z</time>
      </trkpt>
      <trkpt lat="46.16972" lon="6.62289">
        <ele>1346.6</ele>
        <time>2021-06-26T08:23:12Z</time>
      </trkpt>
      <trkpt lat="46.1697" lon="6.6229">
        <ele>1346.8</ele>
        <time>2021-06-26T08:23:13Z</time>
      </trkpt>
      <trkpt lat="46.16967" lon="6.6229">
        <ele>1347</ele>
        <time>2021-06-26T08:23:14Z</time>
      </trkpt>
      <trkpt lat="46.16965" lon="6.62292">
        <ele>1347.4</ele>
        <time>2021-06-26T08:23:15Z</time>
      </trkpt>
      <trkpt lat="46.16962" lon="6.62293">
        <ele>1347.6</ele>
        <time>2021-06-26T08:23:16Z</time>
      </trkpt>
      <trkpt lat="46.1696" lon="6.62293">
        <ele>1347.6</ele>
        <time>2021-06-26T08:23:17Z</time>
      </trkpt>
      <trkpt lat="46.16957" lon="6.62294">
        <ele>1347.6</ele>
        <time>2021-06-26T08:23:18Z</time>
      </trkpt>
      <trkpt lat="46.16955" lon="6.62295">
        <ele>1347.8</ele>
        <time>2021-06-26T08:23:19Z</time>
      </trkpt>
      <trkpt lat="46.16952" lon="6.62295">
        <ele>1348</ele>
        <time>2021-06-26T08:23:20Z</time>
      </trkpt>
      <trkpt lat="46.16949" lon="6.62295">
        <ele>1348.2</ele>
        <time>2021-06-26T08:23:21Z</time>
      </trkpt>
      <trkpt lat="46.16946" lon="6.62295">
        <ele>1348.4</ele>
        <time>2021-06-26T08:23:22Z</time>
      </trkpt>
      <trkpt lat="46.16943" lon="6.62295">
        <ele>1348.6</ele>
        <time>2021-06-26T08:23:23Z</time>
      </trkpt>
      <trkpt lat="46.1694" lon="6.62295">
        <ele>1349</ele>
        <time>2021-06-26T08:23:24Z</time>
      </trkpt>
      <trkpt lat="46.16938" lon="6.62295">
        <ele>1349</ele>
        <time>2021-06-26T08:23:25Z</time>
      </trkpt>
      <trkpt lat="46.16935" lon="6.62296">
        <ele>1349.4</ele>
        <time>2021-06-26T08:23:26Z</time>
      </trkpt>
      <trkpt lat="46.16933" lon="6.62297">
        <ele>1349.6</ele>
        <time>2021-06-26T08:23:27Z</time>
      </trkpt>
      <trkpt lat="46.1693" lon="6.62298">
        <ele>1349.6</ele>
        <time>2021-06-26T08:23:28Z</time>
      </trkpt>
      <trkpt lat="46.16928" lon="6.623">
        <ele>1350</ele>
        <time>2021-06-26T08:23:29Z</time>
      </trkpt>
      <trkpt lat="46.16926" lon="6.62301">
        <ele>1350.2</ele>
        <time>2021-06-26T08:23:30Z</time>
      </trkpt>
      <trkpt lat="46.16923" lon="6.62303">
        <ele>1350.4</ele>
        <time>2021-06-26T08:23:31Z</time>
      </trkpt>
      <trkpt lat="46.16921" lon="6.62305">
        <ele>1350.6</ele>
        <time>2021-06-26T08:23:32Z</time>
      </trkpt>
      <trkpt lat="46.16918" lon="6.62306">
        <ele>1350.8</ele>
        <time>2021-06-26T08:23:33Z</time>
      </trkpt>
      <trkpt lat="46.16916" lon="6.62307">
        <ele>1351</ele>
        <time>2021-06-26T08:23:34Z</time>
      </trkpt>
      <trkpt lat="46.16913" lon="6.62308">
        <ele>1351.2</ele>
        <time>2021-06-26T08:23:35Z</time>
      </trkpt>
      <trkpt lat="46.16911" lon="6.62308">
        <ele>1351.4</ele>
        <time>2021-06-26T08:23:36Z</time>
      </trkpt>
      <trkpt lat="46.16908" lon="6.62309">
        <ele>1351.6</ele>
        <time>2021-06-26T08:23:37Z</time>
      </trkpt>
      <trkpt lat="46.16906" lon="6.62308">
        <ele>1351.8</ele>
        <time>2021-06-26T08:23:38Z</time>
      </trkpt>
      <trkpt lat="46.16903" lon="6.62308">
        <ele>1352.2</ele>
        <time>2021-06-26T08:23:39Z</time>
      </trkpt>
      <trkpt lat="46.16901" lon="6.62308">
        <ele>1352.2</ele>
        <time>2021-06-26T08:23:40Z</time>
      </trkpt>
      <trkpt lat="46.16898" lon="6.62307">
        <ele>1352.4</ele>
        <time>2021-06-26T08:23:41Z</time>
      </trkpt>
      <trkpt lat="46.16896" lon="6.62307">
        <ele>1352.6</ele>
        <time>2021-06-26T08:23:42Z</time>
      </trkpt>
      <trkpt lat="46.16893" lon="6.62307">
        <ele>1352.8</ele>
        <time>2021-06-26T08:23:43Z</time>
      </trkpt>
      <trkpt lat="46.1689" lon="6.62306">
        <ele>1353</ele>
        <time>2021-06-26T08:23:44Z</time>
      </trkpt>
      <trkpt lat="46.16888" lon="6.62307">
        <ele>1353.4</ele>
        <time>2021-06-26T08:23:45Z</time>
      </trkpt>
      <trkpt lat="46.16885" lon="6.62307">
        <ele>1353.6</ele>
        <time>2021-06-26T08:23:46Z</time>
      </trkpt>
      <trkpt lat="46.16882" lon="6.62308">
        <ele>1353.8</ele>
        <time>2021-06-26T08:23:47Z</time>
      </trkpt>
      <trkpt lat="46.1688" lon="6.62308">
        <ele>1354</ele>
        <time>2021-06-26T08:23:48Z</time>
      </trkpt>
      <trkpt lat="46.16877" lon="6.62309">
        <ele>1354.2</ele>
        <time>2021-06-26T08:23:49Z</time>
      </trkpt>
      <trkpt lat="46.16875" lon="6.6231">
        <ele>1354.2</ele>
        <time>2021-06-26T08:23:50Z</time>
      </trkpt>
      <trkpt lat="46.16872" lon="6.62311">
        <ele>1354.6</ele>
        <time>2021-06-26T08:23:51Z</time>
      </trkpt>
      <trkpt lat="46.1687" lon="6.62312">
        <ele>1354.8</ele>
        <time>2021-06-26T08:23:52Z</time>
      </trkpt>
      <trkpt lat="46.16867" lon="6.62312">
        <ele>1354.8</ele>
        <time>2021-06-26T08:23:53Z</time>
      </trkpt>
      <trkpt lat="46.16864" lon="6.62312">
        <ele>1355</ele>
        <time>2021-06-26T08:23:54Z</time>
      </trkpt>
      <trkpt lat="46.16861" lon="6.62313">
        <ele>1355.2</ele>
        <time>2021-06-26T08:23:55Z</time>
      </trkpt>
      <trkpt lat="46.16858" lon="6.62314">
        <ele>1355.4</ele>
        <time>2021-06-26T08:23:56Z</time>
      </trkpt>
      <trkpt lat="46.16855" lon="6.62314">
        <ele>1355.6</ele>
        <time>2021-06-26T08:23:57Z</time>
      </trkpt>
      <trkpt lat="46.16853" lon="6.62315">
        <ele>1355.8</ele>
        <time>2021-06-26T08:23:58Z</time>
      </trkpt>
      <trkpt lat="46.1685" lon="6.62316">
        <ele>1355.8</ele>
        <time>2021-06-26T08:23:59Z</time>
      </trkpt>
      <trkpt lat="46.16847" lon="6.62317">
        <ele>1356.2</ele>
        <time>2021-06-26T08:24:00Z</time>
      </trkpt>
      <trkpt lat="46.16845" lon="6.62318">
        <ele>1356.2</ele>
        <time>2021-06-26T08:24:01Z</time>
      </trkpt>
      <trkpt lat="46.16842" lon="6.62319">
        <ele>1356.2</ele>
        <time>2021-06-26T08:24:02Z</time>
      </trkpt>
      <trkpt lat="46.1684" lon="6.6232">
        <ele>1356.4</ele>
        <time>2021-06-26T08:24:03Z</time>
      </trkpt>
      <trkpt lat="46.16837" lon="6.62321">
        <ele>1356.6</ele>
        <time>2021-06-26T08:24:04Z</time>
      </trkpt>
      <trkpt lat="46.16834" lon="6.62322">
        <ele>1356.6</ele>
        <time>2021-06-26T08:24:05Z</time>
      </trkpt>
      <trkpt lat="46.16832" lon="6.62322">
        <ele>1356.8</ele>
        <time>2021-06-26T08:24:06Z</time>
      </trkpt>
      <trkpt lat="46.16829" lon="6.62323">
        <ele>1357.2</ele>
        <time>2021-06-26T08:24:07Z</time>
      </trkpt>
      <trkpt lat="46.16826" lon="6.62323">
        <ele>1357.4</ele>
        <time>2021-06-26T08:24:08Z</time>
      </trkpt>
      <trkpt lat="46.16823" lon="6.62324">
        <ele>1357.6</ele>
        <time>2021-06-26T08:24:09Z</time>
      </trkpt>
      <trkpt lat="46.1682" lon="6.62325">
        <ele>1357.8</ele>
        <time>2021-06-26T08:24:10Z</time>
      </trkpt>
      <trkpt lat="46.16818" lon="6.62326">
        <ele>1358</ele>
        <time>2021-06-26T08:24:11Z</time>
      </trkpt>
      <trkpt lat="46.16815" lon="6.62326">
        <ele>1358.2</ele>
        <time>2021-06-26T08:24:12Z</time>
      </trkpt>
      <trkpt lat="46.16812" lon="6.62326">
        <ele>1358.6</ele>
        <time>2021-06-26T08:24:13Z</time>
      </trkpt>
      <trkpt lat="46.16809" lon="6.62326">
        <ele>1358.8</ele>
        <time>2021-06-26T08:24:14Z</time>
      </trkpt>
      <trkpt lat="46.16806" lon="6.62327">
        <ele>1359</ele>
        <time>2021-06-26T08:24:15Z</time>
      </trkpt>
      <trkpt lat="46.16803" lon="6.62327">
        <ele>1359.2</ele>
        <time>2021-06-26T08:24:16Z</time>
      </trkpt>
      <trkpt lat="46.168" lon="6.62328">
        <ele>1359.4</ele>
        <time>2021-06-26T08:24:17Z</time>
      </trkpt>
      <trkpt lat="46.16798" lon="6.6233">
        <ele>1359.6</ele>
        <time>2021-06-26T08:24:18Z</time>
      </trkpt>
      <trkpt lat="46.16795" lon="6.62332">
        <ele>1359.6</ele>
        <time>2021-06-26T08:24:19Z</time>
      </trkpt>
      <trkpt lat="46.16793" lon="6.62334">
        <ele>1360</ele>
        <time>2021-06-26T08:24:20Z</time>
      </trkpt>
      <trkpt lat="46.16791" lon="6.62336">
        <ele>1360.2</ele>
        <time>2021-06-26T08:24:21Z</time>
      </trkpt>
      <trkpt lat="46.16789" lon="6.62337">
        <ele>1360.6</ele>
        <time>2021-06-26T08:24:22Z</time>
      </trkpt>
      <trkpt lat="46.16786" lon="6.62338">
        <ele>1360.8</ele>
        <time>2021-06-26T08:24:23Z</time>
      </trkpt>
      <trkpt lat="46.16784" lon="6.62339">
        <ele>1360.8</ele>
        <time>2021-06-26T08:24:24Z</time>
      </trkpt>
      <trkpt lat="46.16781" lon="6.62341">
        <ele>1360.8</ele>
        <time>2021-06-26T08:24:25Z</time>
      </trkpt>
      <trkpt lat="46.16779" lon="6.62342">
        <ele>1361</ele>
        <time>2021-06-26T08:24:26Z</time>
      </trkpt>
      <trkpt lat="46.16776" lon="6.62343">
        <ele>1361.2</ele>
        <time>2021-06-26T08:24:27Z</time>
      </trkpt>
      <trkpt lat="46.16773" lon="6.62345">
        <ele>1361.4</ele>
        <time>2021-06-26T08:24:28Z</time>
      </trkpt>
      <trkpt lat="46.1677" lon="6.62346">
        <ele>1361.6</ele>
        <time>2021-06-26T08:24:29Z</time>
      </trkpt>
      <trkpt lat="46.16768" lon="6.62348">
        <ele>1361.8</ele>
        <time>2021-06-26T08:24:30Z</time>
      </trkpt>
      <trkpt lat="46.16765" lon="6.6235">
        <ele>1361.8</ele>
        <time>2021-06-26T08:24:31Z</time>
      </trkpt>
      <trkpt lat="46.16762" lon="6.62351">
        <ele>1362</ele>
        <time>2021-06-26T08:24:32Z</time>
      </trkpt>
      <trkpt lat="46.16759" lon="6.62353">
        <ele>1362.2</ele>
        <time>2021-06-26T08:24:33Z</time>
      </trkpt>
      <trkpt lat="46.16756" lon="6.62355">
        <ele>1362.2</ele>
        <time>2021-06-26T08:24:34Z</time>
      </trkpt>
      <trkpt lat="46.16753" lon="6.62357">
        <ele>1362.4</ele>
        <time>2021-06-26T08:24:35Z</time>
      </trkpt>
      <trkpt lat="46.1675" lon="6.62359">
        <ele>1362.6</ele>
        <time>2021-06-26T08:24:36Z</time>
      </trkpt>
      <trkpt lat="46.16746" lon="6.62361">
        <ele>1363</ele>
        <time>2021-06-26T08:24:37Z</time>
      </trkpt>
      <trkpt lat="46.16743" lon="6.62362">
        <ele>1363.2</ele>
        <time>2021-06-26T08:24:38Z</time>
      </trkpt>
      <trkpt lat="46.1674" lon="6.62363">
        <ele>1363.2</ele>
        <time>2021-06-26T08:24:39Z</time>
      </trkpt>
      <trkpt lat="46.16736" lon="6.62365">
        <ele>1363.4</ele>
        <time>2021-06-26T08:24:40Z</time>
      </trkpt>
      <trkpt lat="46.16733" lon="6.62366">
        <ele>1363.6</ele>
        <time>2021-06-26T08:24:41Z</time>
      </trkpt>
      <trkpt lat="46.16729" lon="6.62368">
        <ele>1363.6</ele>
        <time>2021-06-26T08:24:42Z</time>
      </trkpt>
      <trkpt lat="46.16726" lon="6.62369">
        <ele>1363.8</ele>
        <time>2021-06-26T08:24:43Z</time>
      </trkpt>
      <trkpt lat="46.16722" lon="6.6237">
        <ele>1364</ele>
        <time>2021-06-26T08:24:44Z</time>
      </trkpt>
      <trkpt lat="46.16719" lon="6.62371">
        <ele>1364.2</ele>
        <time>2021-06-26T08:24:45Z</time>
      </trkpt>
      <trkpt lat="46.16717" lon="6.62373">
        <ele>1364.2</ele>
        <time>2021-06-26T08:24:46Z</time>
      </trkpt>
      <trkpt lat="46.16714" lon="6.62375">
        <ele>1364.6</ele>
        <time>2021-06-26T08:24:47Z</time>
      </trkpt>
      <trkpt lat="46.16711" lon="6.62377">
        <ele>1364.6</ele>
        <time>2021-06-26T08:24:48Z</time>
      </trkpt>
      <trkpt lat="46.16709" lon="6.62379">
        <ele>1364.6</ele>
        <time>2021-06-26T08:24:49Z</time>
      </trkpt>
      <trkpt lat="46.16707" lon="6.62381">
        <ele>1364.6</ele>
        <time>2021-06-26T08:24:50Z</time>
      </trkpt>
      <trkpt lat="46.16703" lon="6.62383">
        <ele>1364.8</ele>
        <time>2021-06-26T08:24:51Z</time>
      </trkpt>
      <trkpt lat="46.167" lon="6.62384">
        <ele>1365</ele>
        <time>2021-06-26T08:24:52Z</time>
      </trkpt>
      <trkpt lat="46.16697" lon="6.62385">
        <ele>1365</ele>
        <time>2021-06-26T08:24:53Z</time>
      </trkpt>
      <trkpt lat="46.16694" lon="6.62386">
        <ele>1365.2</ele>
        <time>2021-06-26T08:24:54Z</time>
      </trkpt>
      <trkpt lat="46.16691" lon="6.62387">
        <ele>1365.4</ele>
        <time>2021-06-26T08:24:55Z</time>
      </trkpt>
      <trkpt lat="46.16688" lon="6.62389">
        <ele>1365.6</ele>
        <time>2021-06-26T08:24:56Z</time>
      </trkpt>
      <trkpt lat="46.16687" lon="6.62392">
        <ele>1365.8</ele>
        <time>2021-06-26T08:24:57Z</time>
      </trkpt>
      <trkpt lat="46.16685" lon="6.62394">
        <ele>1366</ele>
        <time>2021-06-26T08:24:58Z</time>
      </trkpt>
      <trkpt lat="46.16684" lon="6.62396">
        <ele>1366.2</ele>
        <time>2021-06-26T08:24:59Z</time>
      </trkpt>
      <trkpt lat="46.16683" lon="6.62398">
        <ele>1366.4</ele>
        <time>2021-06-26T08:25:00Z</time>
      </trkpt>
      <trkpt lat="46.16682" lon="6.624">
        <ele>1366.4</ele>
        <time>2021-06-26T08:25:01Z</time>
      </trkpt>
      <trkpt lat="46.16679" lon="6.62402">
        <ele>1366.8</ele>
        <time>2021-06-26T08:25:02Z</time>
      </trkpt>
      <trkpt lat="46.16676" lon="6.62405">
        <ele>1367</ele>
        <time>2021-06-26T08:25:03Z</time>
      </trkpt>
      <trkpt lat="46.16673" lon="6.62407">
        <ele>1366.8</ele>
        <time>2021-06-26T08:25:04Z</time>
      </trkpt>
      <trkpt lat="46.16671" lon="6.6241">
        <ele>1367</ele>
        <time>2021-06-26T08:25:05Z</time>
      </trkpt>
      <trkpt lat="46.16668" lon="6.62414">
        <ele>1367.2</ele>
        <time>2021-06-26T08:25:06Z</time>
      </trkpt>
      <trkpt lat="46.16666" lon="6.62417">
        <ele>1367.4</ele>
        <time>2021-06-26T08:25:07Z</time>
      </trkpt>
      <trkpt lat="46.16665" lon="6.6242">
        <ele>1367.4</ele>
        <time>2021-06-26T08:25:08Z</time>
      </trkpt>
      <trkpt lat="46.16663" lon="6.62424">
        <ele>1367.4</ele>
        <time>2021-06-26T08:25:09Z</time>
      </trkpt>
      <trkpt lat="46.1666" lon="6.62427">
        <ele>1367.6</ele>
        <time>2021-06-26T08:25:10Z</time>
      </trkpt>
      <trkpt lat="46.16657" lon="6.6243">
        <ele>1367.6</ele>
        <time>2021-06-26T08:25:11Z</time>
      </trkpt>
      <trkpt lat="46.16654" lon="6.62434">
        <ele>1367.8</ele>
        <time>2021-06-26T08:25:12Z</time>
      </trkpt>
      <trkpt lat="46.16652" lon="6.62437">
        <ele>1367.8</ele>
        <time>2021-06-26T08:25:13Z</time>
      </trkpt>
      <trkpt lat="46.16649" lon="6.6244">
        <ele>1368</ele>
        <time>2021-06-26T08:25:14Z</time>
      </trkpt>
      <trkpt lat="46.16647" lon="6.62443">
        <ele>1368</ele>
        <time>2021-06-26T08:25:15Z</time>
      </trkpt>
      <trkpt lat="46.16644" lon="6.62445">
        <ele>1368</ele>
        <time>2021-06-26T08:25:16Z</time>
      </trkpt>
      <trkpt lat="46.16642" lon="6.62449">
        <ele>1368.2</ele>
        <time>2021-06-26T08:25:17Z</time>
      </trkpt>
      <trkpt lat="46.16639" lon="6.62453">
        <ele>1368.4</ele>
        <time>2021-06-26T08:25:18Z</time>
      </trkpt>
      <trkpt lat="46.16637" lon="6.62456">
        <ele>1368.6</ele>
        <time>2021-06-26T08:25:19Z</time>
      </trkpt>
      <trkpt lat="46.16635" lon="6.6246">
        <ele>1368.6</ele>
        <time>2021-06-26T08:25:20Z</time>
      </trkpt>
      <trkpt lat="46.16632" lon="6.62464">
        <ele>1368.6</ele>
        <time>2021-06-26T08:25:21Z</time>
      </trkpt>
      <trkpt lat="46.16631" lon="6.62468">
        <ele>1368.8</ele>
        <time>2021-06-26T08:25:22Z</time>
      </trkpt>
      <trkpt lat="46.16628" lon="6.62472">
        <ele>1369</ele>
        <time>2021-06-26T08:25:23Z</time>
      </trkpt>
      <trkpt lat="46.16625" lon="6.62476">
        <ele>1369</ele>
        <time>2021-06-26T08:25:24Z</time>
      </trkpt>
      <trkpt lat="46.16622" lon="6.62481">
        <ele>1369.2</ele>
        <time>2021-06-26T08:25:25Z</time>
      </trkpt>
      <trkpt lat="46.16619" lon="6.62487">
        <ele>1369.4</ele>
        <time>2021-06-26T08:25:26Z</time>
      </trkpt>
      <trkpt lat="46.16616" lon="6.62492">
        <ele>1369.4</ele>
        <time>2021-06-26T08:25:27Z</time>
      </trkpt>
      <trkpt lat="46.16612" lon="6.62497">
        <ele>1369.4</ele>
        <time>2021-06-26T08:25:28Z</time>
      </trkpt>
      <trkpt lat="46.16609" lon="6.62501">
        <ele>1369.6</ele>
        <time>2021-06-26T08:25:29Z</time>
      </trkpt>
      <trkpt lat="46.16607" lon="6.62506">
        <ele>1369.6</ele>
        <time>2021-06-26T08:25:30Z</time>
      </trkpt>
      <trkpt lat="46.16605" lon="6.6251">
        <ele>1369.8</ele>
        <time>2021-06-26T08:25:31Z</time>
      </trkpt>
      <trkpt lat="46.16603" lon="6.62515">
        <ele>1369.8</ele>
        <time>2021-06-26T08:25:32Z</time>
      </trkpt>
      <trkpt lat="46.16601" lon="6.6252">
        <ele>1370</ele>
        <time>2021-06-26T08:25:33Z</time>
      </trkpt>
      <trkpt lat="46.16599" lon="6.62524">
        <ele>1370</ele>
        <time>2021-06-26T08:25:34Z</time>
      </trkpt>
      <trkpt lat="46.16596" lon="6.6253">
        <ele>1370.2</ele>
        <time>2021-06-26T08:25:35Z</time>
      </trkpt>
      <trkpt lat="46.16593" lon="6.62535">
        <ele>1370.4</ele>
        <time>2021-06-26T08:25:36Z</time>
      </trkpt>
      <trkpt lat="46.1659" lon="6.62541">
        <ele>1370.6</ele>
        <time>2021-06-26T08:25:37Z</time>
      </trkpt>
      <trkpt lat="46.16588" lon="6.62547">
        <ele>1370.6</ele>
        <time>2021-06-26T08:25:38Z</time>
      </trkpt>
      <trkpt lat="46.16586" lon="6.62553">
        <ele>1370.8</ele>
        <time>2021-06-26T08:25:39Z</time>
      </trkpt>
      <trkpt lat="46.16585" lon="6.62559">
        <ele>1371</ele>
        <time>2021-06-26T08:25:40Z</time>
      </trkpt>
      <trkpt lat="46.16583" lon="6.62564">
        <ele>1371</ele>
        <time>2021-06-26T08:25:41Z</time>
      </trkpt>
      <trkpt lat="46.16581" lon="6.6257">
        <ele>1371.2</ele>
        <time>2021-06-26T08:25:42Z</time>
      </trkpt>
      <trkpt lat="46.1658" lon="6.62577">
        <ele>1371.4</ele>
        <time>2021-06-26T08:25:43Z</time>
      </trkpt>
      <trkpt lat="46.16579" lon="6.62584">
        <ele>1371.6</ele>
        <time>2021-06-26T08:25:44Z</time>
      </trkpt>
      <trkpt lat="46.16578" lon="6.62591">
        <ele>1371.8</ele>
        <time>2021-06-26T08:25:45Z</time>
      </trkpt>
      <trkpt lat="46.16577" lon="6.62597">
        <ele>1371.8</ele>
        <time>2021-06-26T08:25:46Z</time>
      </trkpt>
      <trkpt lat="46.16578" lon="6.62603">
        <ele>1372.2</ele>
        <time>2021-06-26T08:25:47Z</time>
      </trkpt>
      <trkpt lat="46.16578" lon="6.62609">
        <ele>1372.2</ele>
        <time>2021-06-26T08:25:48Z</time>
      </trkpt>
      <trkpt lat="46.16579" lon="6.62615">
        <ele>1372.4</ele>
        <time>2021-06-26T08:25:49Z</time>
      </trkpt>
      <trkpt lat="46.16579" lon="6.62621">
        <ele>1372.6</ele>
        <time>2021-06-26T08:25:50Z</time>
      </trkpt>
      <trkpt lat="46.16579" lon="6.62628">
        <ele>1372.8</ele>
        <time>2021-06-26T08:25:51Z</time>
      </trkpt>
      <trkpt lat="46.16578" lon="6.62636">
        <ele>1372.8</ele>
        <time>2021-06-26T08:25:52Z</time>
      </trkpt>
      <trkpt lat="46.16577" lon="6.62642">
        <ele>1373</ele>
        <time>2021-06-26T08:25:53Z</time>
      </trkpt>
      <trkpt lat="46.16577" lon="6.62649">
        <ele>1373.4</ele>
        <time>2021-06-26T08:25:54Z</time>
      </trkpt>
      <trkpt lat="46.16577" lon="6.62654">
        <ele>1373.8</ele>
        <time>2021-06-26T08:25:55Z</time>
      </trkpt>
      <trkpt lat="46.16577" lon="6.6266">
        <ele>1373.8</ele>
        <time>2021-06-26T08:25:56Z</time>
      </trkpt>
      <trkpt lat="46.16577" lon="6.62665">
        <ele>1374</ele>
        <time>2021-06-26T08:25:57Z</time>
      </trkpt>
      <trkpt lat="46.16577" lon="6.62671">
        <ele>1373.8</ele>
        <time>2021-06-26T08:25:58Z</time>
      </trkpt>
      <trkpt lat="46.16578" lon="6.62676">
        <ele>1374.2</ele>
        <time>2021-06-26T08:25:59Z</time>
      </trkpt>
      <trkpt lat="46.16578" lon="6.62681">
        <ele>1374.6</ele>
        <time>2021-06-26T08:26:00Z</time>
      </trkpt>
      <trkpt lat="46.16579" lon="6.62685">
        <ele>1374.8</ele>
        <time>2021-06-26T08:26:01Z</time>
      </trkpt>
      <trkpt lat="46.1658" lon="6.6269">
        <ele>1375</ele>
        <time>2021-06-26T08:26:02Z</time>
      </trkpt>
      <trkpt lat="46.1658" lon="6.62695">
        <ele>1375.4</ele>
        <time>2021-06-26T08:26:03Z</time>
      </trkpt>
      <trkpt lat="46.16582" lon="6.62699">
        <ele>1375.8</ele>
        <time>2021-06-26T08:26:04Z</time>
      </trkpt>
      <trkpt lat="46.16583" lon="6.62703">
        <ele>1376.2</ele>
        <time>2021-06-26T08:26:05Z</time>
      </trkpt>
      <trkpt lat="46.16585" lon="6.62707">
        <ele>1376.6</ele>
        <time>2021-06-26T08:26:06Z</time>
      </trkpt>
      <trkpt lat="46.16586" lon="6.62712">
        <ele>1376.8</ele>
        <time>2021-06-26T08:26:07Z</time>
      </trkpt>
      <trkpt lat="46.16588" lon="6.62716">
        <ele>1377</ele>
        <time>2021-06-26T08:26:08Z</time>
      </trkpt>
      <trkpt lat="46.1659" lon="6.6272">
        <ele>1377.2</ele>
        <time>2021-06-26T08:26:09Z</time>
      </trkpt>
      <trkpt lat="46.16592" lon="6.62724">
        <ele>1377.6</ele>
        <time>2021-06-26T08:26:10Z</time>
      </trkpt>
      <trkpt lat="46.16595" lon="6.62728">
        <ele>1377.8</ele>
        <time>2021-06-26T08:26:11Z</time>
      </trkpt>
      <trkpt lat="46.16597" lon="6.62731">
        <ele>1378</ele>
        <time>2021-06-26T08:26:12Z</time>
      </trkpt>
      <trkpt lat="46.166" lon="6.62735">
        <ele>1378.2</ele>
        <time>2021-06-26T08:26:13Z</time>
      </trkpt>
      <trkpt lat="46.16602" lon="6.62739">
        <ele>1378.4</ele>
        <time>2021-06-26T08:26:14Z</time>
      </trkpt>
      <trkpt lat="46.16604" lon="6.62743">
        <ele>1378.4</ele>
        <time>2021-06-26T08:26:15Z</time>
      </trkpt>
      <trkpt lat="46.16607" lon="6.62747">
        <ele>1378.6</ele>
        <time>2021-06-26T08:26:16Z</time>
      </trkpt>
      <trkpt lat="46.1661" lon="6.62751">
        <ele>1378.8</ele>
        <time>2021-06-26T08:26:17Z</time>
      </trkpt>
      <trkpt lat="46.16612" lon="6.62755">
        <ele>1379</ele>
        <time>2021-06-26T08:26:18Z</time>
      </trkpt>
      <trkpt lat="46.16615" lon="6.62759">
        <ele>1379.2</ele>
        <time>2021-06-26T08:26:19Z</time>
      </trkpt>
      <trkpt lat="46.16617" lon="6.62764">
        <ele>1379.2</ele>
        <time>2021-06-26T08:26:20Z</time>
      </trkpt>
      <trkpt lat="46.16619" lon="6.62769">
        <ele>1379.6</ele>
        <time>2021-06-26T08:26:21Z</time>
      </trkpt>
      <trkpt lat="46.16622" lon="6.62774">
        <ele>1379.6</ele>
        <time>2021-06-26T08:26:22Z</time>
      </trkpt>
      <trkpt lat="46.16625" lon="6.62778">
        <ele>1379.6</ele>
        <time>2021-06-26T08:26:23Z</time>
      </trkpt>
      <trkpt lat="46.16628" lon="6.62783">
        <ele>1379.8</ele>
        <time>2021-06-26T08:26:24Z</time>
      </trkpt>
      <trkpt lat="46.1663" lon="6.62787">
        <ele>1380</ele>
        <time>2021-06-26T08:26:25Z</time>
      </trkpt>
      <trkpt lat="46.16633" lon="6.62792">
        <ele>1380.2</ele>
        <time>2021-06-26T08:26:26Z</time>
      </trkpt>
      <trkpt lat="46.16635" lon="6.62797">
        <ele>1380.2</ele>
        <time>2021-06-26T08:26:27Z</time>
      </trkpt>
      <trkpt lat="46.16638" lon="6.62802">
        <ele>1380.4</ele>
        <time>2021-06-26T08:26:28Z</time>
      </trkpt>
      <trkpt lat="46.16641" lon="6.62806">
        <ele>1380.6</ele>
        <time>2021-06-26T08:26:29Z</time>
      </trkpt>
      <trkpt lat="46.16644" lon="6.62811">
        <ele>1380.6</ele>
        <time>2021-06-26T08:26:30Z</time>
      </trkpt>
      <trkpt lat="46.16647" lon="6.62814">
        <ele>1380.8</ele>
        <time>2021-06-26T08:26:31Z</time>
      </trkpt>
      <trkpt lat="46.1665" lon="6.62818">
        <ele>1380.8</ele>
        <time>2021-06-26T08:26:32Z</time>
      </trkpt>
      <trkpt lat="46.16654" lon="6.62822">
        <ele>1380.8</ele>
        <time>2021-06-26T08:26:33Z</time>
      </trkpt>
      <trkpt lat="46.16657" lon="6.62826">
        <ele>1381</ele>
        <time>2021-06-26T08:26:34Z</time>
      </trkpt>
      <trkpt lat="46.16661" lon="6.6283">
        <ele>1381</ele>
        <time>2021-06-26T08:26:35Z</time>
      </trkpt>
      <trkpt lat="46.16664" lon="6.62834">
        <ele>1381.2</ele>
        <time>2021-06-26T08:26:36Z</time>
      </trkpt>
      <trkpt lat="46.16667" lon="6.62838">
        <ele>1381.2</ele>
        <time>2021-06-26T08:26:37Z</time>
      </trkpt>
      <trkpt lat="46.1667" lon="6.62842">
        <ele>1381.4</ele>
        <time>2021-06-26T08:26:38Z</time>
      </trkpt>
      <trkpt lat="46.16673" lon="6.62846">
        <ele>1381.4</ele>
        <time>2021-06-26T08:26:39Z</time>
      </trkpt>
      <trkpt lat="46.16677" lon="6.6285">
        <ele>1381.6</ele>
        <time>2021-06-26T08:26:40Z</time>
      </trkpt>
      <trkpt lat="46.1668" lon="6.62854">
        <ele>1381.6</ele>
        <time>2021-06-26T08:26:41Z</time>
      </trkpt>
      <trkpt lat="46.16683" lon="6.62858">
        <ele>1381.8</ele>
        <time>2021-06-26T08:26:42Z</time>
      </trkpt>
      <trkpt lat="46.16686" lon="6.62862">
        <ele>1382.2</ele>
        <time>2021-06-26T08:26:43Z</time>
      </trkpt>
      <trkpt lat="46.1669" lon="6.62866">
        <ele>1382.4</ele>
        <time>2021-06-26T08:26:44Z</time>
      </trkpt>
      <trkpt lat="46.16693" lon="6.62869">
        <ele>1382.6</ele>
        <time>2021-06-26T08:26:45Z</time>
      </trkpt>
      <trkpt lat="46.16695" lon="6.62874">
        <ele>1382.8</ele>
        <time>2021-06-26T08:26:46Z</time>
      </trkpt>
      <trkpt lat="46.16698" lon="6.62878">
        <ele>1383</ele>
        <time>2021-06-26T08:26:47Z</time>
      </trkpt>
      <trkpt lat="46.16701" lon="6.62882">
        <ele>1383.2</ele>
        <time>2021-06-26T08:26:48Z</time>
      </trkpt>
      <trkpt lat="46.16703" lon="6.62887">
        <ele>1383.4</ele>
        <time>2021-06-26T08:26:49Z</time>
      </trkpt>
      <trkpt lat="46.16706" lon="6.62892">
        <ele>1383.2</ele>
        <time>2021-06-26T08:26:50Z</time>
      </trkpt>
      <trkpt lat="46.16708" lon="6.62896">
        <ele>1383.4</ele>
        <time>2021-06-26T08:26:51Z</time>
      </trkpt>
      <trkpt lat="46.16709" lon="6.62901">
        <ele>1383.6</ele>
        <time>2021-06-26T08:26:52Z</time>
      </trkpt>
      <trkpt lat="46.16711" lon="6.62906">
        <ele>1383.8</ele>
        <time>2021-06-26T08:26:53Z</time>
      </trkpt>
      <trkpt lat="46.16712" lon="6.62912">
        <ele>1383.8</ele>
        <time>2021-06-26T08:26:54Z</time>
      </trkpt>
      <trkpt lat="46.16714" lon="6.62918">
        <ele>1384.2</ele>
        <time>2021-06-26T08:26:55Z</time>
      </trkpt>
      <trkpt lat="46.16715" lon="6.62923">
        <ele>1384.2</ele>
        <time>2021-06-26T08:26:56Z</time>
      </trkpt>
      <trkpt lat="46.16717" lon="6.62927">
        <ele>1384.6</ele>
        <time>2021-06-26T08:26:57Z</time>
      </trkpt>
      <trkpt lat="46.16719" lon="6.62932">
        <ele>1384.6</ele>
        <time>2021-06-26T08:26:58Z</time>
      </trkpt>
      <trkpt lat="46.1672" lon="6.62936">
        <ele>1384.6</ele>
        <time>2021-06-26T08:26:59Z</time>
      </trkpt>
      <trkpt lat="46.16722" lon="6.6294">
        <ele>1384.6</ele>
        <time>2021-06-26T08:27:00Z</time>
      </trkpt>
      <trkpt lat="46.16725" lon="6.62944">
        <ele>1384.8</ele>
        <time>2021-06-26T08:27:01Z</time>
      </trkpt>
      <trkpt lat="46.16727" lon="6.62948">
        <ele>1384.8</ele>
        <time>2021-06-26T08:27:02Z</time>
      </trkpt>
      <trkpt lat="46.1673" lon="6.62951">
        <ele>1385.2</ele>
        <time>2021-06-26T08:27:03Z</time>
      </trkpt>
      <trkpt lat="46.16732" lon="6.62955">
        <ele>1385.2</ele>
        <time>2021-06-26T08:27:04Z</time>
      </trkpt>
      <trkpt lat="46.16735" lon="6.62959">
        <ele>1385.8</ele>
        <time>2021-06-26T08:27:05Z</time>
      </trkpt>
      <trkpt lat="46.16738" lon="6.62963">
        <ele>1386</ele>
        <time>2021-06-26T08:27:06Z</time>
      </trkpt>
      <trkpt lat="46.1674" lon="6.62966">
        <ele>1386.4</ele>
        <time>2021-06-26T08:27:07Z</time>
      </trkpt>
      <trkpt lat="46.16743" lon="6.62969">
        <ele>1386.8</ele>
        <time>2021-06-26T08:27:08Z</time>
      </trkpt>
      <trkpt lat="46.16747" lon="6.62973">
        <ele>1387.2</ele>
        <time>2021-06-26T08:27:09Z</time>
      </trkpt>
      <trkpt lat="46.1675" lon="6.62976">
        <ele>1387.6</ele>
        <time>2021-06-26T08:27:10Z</time>
      </trkpt>
      <trkpt lat="46.16753" lon="6.62979">
        <ele>1387.8</ele>
        <time>2021-06-26T08:27:11Z</time>
      </trkpt>
      <trkpt lat="46.16757" lon="6.62983">
        <ele>1388</ele>
        <time>2021-06-26T08:27:12Z</time>
      </trkpt>
      <trkpt lat="46.16761" lon="6.62986">
        <ele>1388.2</ele>
        <time>2021-06-26T08:27:13Z</time>
      </trkpt>
      <trkpt lat="46.16765" lon="6.62991">
        <ele>1388.2</ele>
        <time>2021-06-26T08:27:14Z</time>
      </trkpt>
      <trkpt lat="46.16769" lon="6.62995">
        <ele>1388.2</ele>
        <time>2021-06-26T08:27:15Z</time>
      </trkpt>
      <trkpt lat="46.16773" lon="6.63">
        <ele>1388.2</ele>
        <time>2021-06-26T08:27:16Z</time>
      </trkpt>
      <trkpt lat="46.16777" lon="6.63005">
        <ele>1388.2</ele>
        <time>2021-06-26T08:27:17Z</time>
      </trkpt>
      <trkpt lat="46.16782" lon="6.6301">
        <ele>1388.2</ele>
        <time>2021-06-26T08:27:18Z</time>
      </trkpt>
      <trkpt lat="46.16787" lon="6.63014">
        <ele>1388.2</ele>
        <time>2021-06-26T08:27:19Z</time>
      </trkpt>
      <trkpt lat="46.16804" lon="6.63028">
        <ele>1388.2</ele>
        <time>2021-06-26T08:27:22Z</time>
      </trkpt>
      <trkpt lat="46.1681" lon="6.63033">
        <ele>1388.2</ele>
        <time>2021-06-26T08:27:23Z</time>
      </trkpt>
      <trkpt lat="46.16848" lon="6.63061">
        <ele>1386.6</ele>
        <time>2021-06-26T08:27:29Z</time>
      </trkpt>
      <trkpt lat="46.16854" lon="6.63064">
        <ele>1386.4</ele>
        <time>2021-06-26T08:27:30Z</time>
      </trkpt>
      <trkpt lat="46.16859" lon="6.63067">
        <ele>1386.2</ele>
        <time>2021-06-26T08:27:31Z</time>
      </trkpt>
      <trkpt lat="46.16864" lon="6.6307">
        <ele>1386.2</ele>
        <time>2021-06-26T08:27:32Z</time>
      </trkpt>
      <trkpt lat="46.16869" lon="6.63074">
        <ele>1386.2</ele>
        <time>2021-06-26T08:27:33Z</time>
      </trkpt>
      <trkpt lat="46.16873" lon="6.63077">
        <ele>1386.2</ele>
        <time>2021-06-26T08:27:34Z</time>
      </trkpt>
      <trkpt lat="46.16877" lon="6.6308">
        <ele>1386.2</ele>
        <time>2021-06-26T08:27:35Z</time>
      </trkpt>
      <trkpt lat="46.16881" lon="6.63084">
        <ele>1386.2</ele>
        <time>2021-06-26T08:27:36Z</time>
      </trkpt>
      <trkpt lat="46.16885" lon="6.63086">
        <ele>1386.2</ele>
        <time>2021-06-26T08:27:37Z</time>
      </trkpt>
      <trkpt lat="46.16888" lon="6.63088">
        <ele>1386.2</ele>
        <time>2021-06-26T08:27:38Z</time>
      </trkpt>
      <trkpt lat="46.16891" lon="6.6309">
        <ele>1386.2</ele>
        <time>2021-06-26T08:27:39Z</time>
      </trkpt>
      <trkpt lat="46.16894" lon="6.63091">
        <ele>1386.4</ele>
        <time>2021-06-26T08:27:40Z</time>
      </trkpt>
      <trkpt lat="46.16897" lon="6.63092">
        <ele>1386.6</ele>
        <time>2021-06-26T08:27:41Z</time>
      </trkpt>
      <trkpt lat="46.169" lon="6.63094">
        <ele>1386.6</ele>
        <time>2021-06-26T08:27:42Z</time>
      </trkpt>
      <trkpt lat="46.16902" lon="6.63095">
        <ele>1387</ele>
        <time>2021-06-26T08:27:43Z</time>
      </trkpt>
      <trkpt lat="46.16904" lon="6.63096">
        <ele>1387.2</ele>
        <time>2021-06-26T08:27:44Z</time>
      </trkpt>
      <trkpt lat="46.16906" lon="6.63098">
        <ele>1387.6</ele>
        <time>2021-06-26T08:27:45Z</time>
      </trkpt>
      <trkpt lat="46.16909" lon="6.631">
        <ele>1387.8</ele>
        <time>2021-06-26T08:27:46Z</time>
      </trkpt>
      <trkpt lat="46.16912" lon="6.63102">
        <ele>1388.4</ele>
        <time>2021-06-26T08:27:47Z</time>
      </trkpt>
      <trkpt lat="46.16914" lon="6.63104">
        <ele>1388.6</ele>
        <time>2021-06-26T08:27:48Z</time>
      </trkpt>
      <trkpt lat="46.16916" lon="6.63105">
        <ele>1389</ele>
        <time>2021-06-26T08:27:49Z</time>
      </trkpt>
      <trkpt lat="46.16918" lon="6.63107">
        <ele>1389.2</ele>
        <time>2021-06-26T08:27:50Z</time>
      </trkpt>
      <trkpt lat="46.16921" lon="6.63108">
        <ele>1389.6</ele>
        <time>2021-06-26T08:27:51Z</time>
      </trkpt>
      <trkpt lat="46.16924" lon="6.63109">
        <ele>1390</ele>
        <time>2021-06-26T08:27:52Z</time>
      </trkpt>
      <trkpt lat="46.16927" lon="6.63111">
        <ele>1390.4</ele>
        <time>2021-06-26T08:27:53Z</time>
      </trkpt>
      <trkpt lat="46.16929" lon="6.63112">
        <ele>1390.6</ele>
        <time>2021-06-26T08:27:54Z</time>
      </trkpt>
      <trkpt lat="46.16932" lon="6.63114">
        <ele>1391</ele>
        <time>2021-06-26T08:27:55Z</time>
      </trkpt>
      <trkpt lat="46.16934" lon="6.63116">
        <ele>1391.4</ele>
        <time>2021-06-26T08:27:56Z</time>
      </trkpt>
      <trkpt lat="46.16936" lon="6.63117">
        <ele>1391.6</ele>
        <time>2021-06-26T08:27:57Z</time>
      </trkpt>
      <trkpt lat="46.1694" lon="6.63119">
        <ele>1392</ele>
        <time>2021-06-26T08:27:58Z</time>
      </trkpt>
      <trkpt lat="46.16943" lon="6.63121">
        <ele>1392.2</ele>
        <time>2021-06-26T08:27:59Z</time>
      </trkpt>
      <trkpt lat="46.16946" lon="6.63122">
        <ele>1392.4</ele>
        <time>2021-06-26T08:28:00Z</time>
      </trkpt>
      <trkpt lat="46.16949" lon="6.63124">
        <ele>1392.6</ele>
        <time>2021-06-26T08:28:01Z</time>
      </trkpt>
      <trkpt lat="46.16952" lon="6.63125">
        <ele>1393</ele>
        <time>2021-06-26T08:28:02Z</time>
      </trkpt>
      <trkpt lat="46.16954" lon="6.63125">
        <ele>1393</ele>
        <time>2021-06-26T08:28:03Z</time>
      </trkpt>
      <trkpt lat="46.16957" lon="6.63126">
        <ele>1393.2</ele>
        <time>2021-06-26T08:28:04Z</time>
      </trkpt>
      <trkpt lat="46.16959" lon="6.63127">
        <ele>1393.2</ele>
        <time>2021-06-26T08:28:05Z</time>
      </trkpt>
      <trkpt lat="46.16961" lon="6.63128">
        <ele>1393.6</ele>
        <time>2021-06-26T08:28:06Z</time>
      </trkpt>
      <trkpt lat="46.16964" lon="6.63129">
        <ele>1394</ele>
        <time>2021-06-26T08:28:07Z</time>
      </trkpt>
      <trkpt lat="46.16967" lon="6.63132">
        <ele>1394.4</ele>
        <time>2021-06-26T08:28:08Z</time>
      </trkpt>
      <trkpt lat="46.16969" lon="6.63134">
        <ele>1394.6</ele>
        <time>2021-06-26T08:28:09Z</time>
      </trkpt>
      <trkpt lat="46.16971" lon="6.63135">
        <ele>1395</ele>
        <time>2021-06-26T08:28:10Z</time>
      </trkpt>
      <trkpt lat="46.16974" lon="6.63136">
        <ele>1395.4</ele>
        <time>2021-06-26T08:28:11Z</time>
      </trkpt>
      <trkpt lat="46.16977" lon="6.63136">
        <ele>1395.6</ele>
        <time>2021-06-26T08:28:12Z</time>
      </trkpt>
      <trkpt lat="46.1698" lon="6.63137">
        <ele>1396</ele>
        <time>2021-06-26T08:28:13Z</time>
      </trkpt>
      <trkpt lat="46.16983" lon="6.63139">
        <ele>1396.4</ele>
        <time>2021-06-26T08:28:14Z</time>
      </trkpt>
      <trkpt lat="46.16986" lon="6.6314">
        <ele>1396.4</ele>
        <time>2021-06-26T08:28:15Z</time>
      </trkpt>
      <trkpt lat="46.1699" lon="6.63142">
        <ele>1396.8</ele>
        <time>2021-06-26T08:28:16Z</time>
      </trkpt>
      <trkpt lat="46.16993" lon="6.63143">
        <ele>1397</ele>
        <time>2021-06-26T08:28:17Z</time>
      </trkpt>
      <trkpt lat="46.16997" lon="6.63145">
        <ele>1397.2</ele>
        <time>2021-06-26T08:28:18Z</time>
      </trkpt>
      <trkpt lat="46.17" lon="6.63146">
        <ele>1397.8</ele>
        <time>2021-06-26T08:28:19Z</time>
      </trkpt>
      <trkpt lat="46.17003" lon="6.63147">
        <ele>1398</ele>
        <time>2021-06-26T08:28:20Z</time>
      </trkpt>
      <trkpt lat="46.17007" lon="6.63148">
        <ele>1398.2</ele>
        <time>2021-06-26T08:28:21Z</time>
      </trkpt>
      <trkpt lat="46.1701" lon="6.6315">
        <ele>1398.6</ele>
        <time>2021-06-26T08:28:22Z</time>
      </trkpt>
      <trkpt lat="46.17012" lon="6.63151">
        <ele>1398.8</ele>
        <time>2021-06-26T08:28:23Z</time>
      </trkpt>
      <trkpt lat="46.17015" lon="6.63152">
        <ele>1399</ele>
        <time>2021-06-26T08:28:24Z</time>
      </trkpt>
      <trkpt lat="46.17019" lon="6.63153">
        <ele>1399.4</ele>
        <time>2021-06-26T08:28:25Z</time>
      </trkpt>
      <trkpt lat="46.17022" lon="6.63155">
        <ele>1399.6</ele>
        <time>2021-06-26T08:28:26Z</time>
      </trkpt>
      <trkpt lat="46.17026" lon="6.63156">
        <ele>1399.6</ele>
        <time>2021-06-26T08:28:27Z</time>
      </trkpt>
      <trkpt lat="46.17029" lon="6.63157">
        <ele>1399.8</ele>
        <time>2021-06-26T08:28:28Z</time>
      </trkpt>
      <trkpt lat="46.17032" lon="6.63158">
        <ele>1400</ele>
        <time>2021-06-26T08:28:29Z</time>
      </trkpt>
      <trkpt lat="46.17036" lon="6.63159">
        <ele>1400.2</ele>
        <time>2021-06-26T08:28:30Z</time>
      </trkpt>
      <trkpt lat="46.1704" lon="6.6316">
        <ele>1400.4</ele>
        <time>2021-06-26T08:28:31Z</time>
      </trkpt>
      <trkpt lat="46.17044" lon="6.63161">
        <ele>1400.6</ele>
        <time>2021-06-26T08:28:32Z</time>
      </trkpt>
      <trkpt lat="46.17048" lon="6.63163">
        <ele>1400.6</ele>
        <time>2021-06-26T08:28:33Z</time>
      </trkpt>
      <trkpt lat="46.17052" lon="6.63164">
        <ele>1400.8</ele>
        <time>2021-06-26T08:28:34Z</time>
      </trkpt>
      <trkpt lat="46.17056" lon="6.63165">
        <ele>1401</ele>
        <time>2021-06-26T08:28:35Z</time>
      </trkpt>
      <trkpt lat="46.17059" lon="6.63166">
        <ele>1401.2</ele>
        <time>2021-06-26T08:28:36Z</time>
      </trkpt>
      <trkpt lat="46.17062" lon="6.63167">
        <ele>1401.6</ele>
        <time>2021-06-26T08:28:37Z</time>
      </trkpt>
      <trkpt lat="46.17066" lon="6.63168">
        <ele>1401.6</ele>
        <time>2021-06-26T08:28:38Z</time>
      </trkpt>
      <trkpt lat="46.1707" lon="6.63169">
        <ele>1402</ele>
        <time>2021-06-26T08:28:39Z</time>
      </trkpt>
      <trkpt lat="46.17073" lon="6.6317">
        <ele>1402</ele>
        <time>2021-06-26T08:28:40Z</time>
      </trkpt>
      <trkpt lat="46.17076" lon="6.63171">
        <ele>1402</ele>
        <time>2021-06-26T08:28:41Z</time>
      </trkpt>
      <trkpt lat="46.17079" lon="6.63172">
        <ele>1402.4</ele>
        <time>2021-06-26T08:28:42Z</time>
      </trkpt>
      <trkpt lat="46.17083" lon="6.63173">
        <ele>1402.4</ele>
        <time>2021-06-26T08:28:43Z</time>
      </trkpt>
      <trkpt lat="46.17086" lon="6.63175">
        <ele>1402.6</ele>
        <time>2021-06-26T08:28:44Z</time>
      </trkpt>
      <trkpt lat="46.17089" lon="6.63176">
        <ele>1403</ele>
        <time>2021-06-26T08:28:45Z</time>
      </trkpt>
      <trkpt lat="46.17092" lon="6.63178">
        <ele>1403</ele>
        <time>2021-06-26T08:28:46Z</time>
      </trkpt>
      <trkpt lat="46.17094" lon="6.63179">
        <ele>1403</ele>
        <time>2021-06-26T08:28:47Z</time>
      </trkpt>
      <trkpt lat="46.17097" lon="6.63181">
        <ele>1403.2</ele>
        <time>2021-06-26T08:28:48Z</time>
      </trkpt>
      <trkpt lat="46.171" lon="6.63182">
        <ele>1403.2</ele>
        <time>2021-06-26T08:28:49Z</time>
      </trkpt>
      <trkpt lat="46.17103" lon="6.63184">
        <ele>1403.4</ele>
        <time>2021-06-26T08:28:50Z</time>
      </trkpt>
      <trkpt lat="46.17106" lon="6.63186">
        <ele>1403.8</ele>
        <time>2021-06-26T08:28:51Z</time>
      </trkpt>
      <trkpt lat="46.17108" lon="6.63188">
        <ele>1404</ele>
        <time>2021-06-26T08:28:52Z</time>
      </trkpt>
      <trkpt lat="46.1711" lon="6.63191">
        <ele>1404.4</ele>
        <time>2021-06-26T08:28:53Z</time>
      </trkpt>
      <trkpt lat="46.17113" lon="6.63193">
        <ele>1404.8</ele>
        <time>2021-06-26T08:28:54Z</time>
      </trkpt>
      <trkpt lat="46.17115" lon="6.63196">
        <ele>1405</ele>
        <time>2021-06-26T08:28:55Z</time>
      </trkpt>
      <trkpt lat="46.17117" lon="6.63198">
        <ele>1405.2</ele>
        <time>2021-06-26T08:28:56Z</time>
      </trkpt>
      <trkpt lat="46.1712" lon="6.63201">
        <ele>1405.6</ele>
        <time>2021-06-26T08:28:57Z</time>
      </trkpt>
      <trkpt lat="46.17122" lon="6.63203">
        <ele>1405.8</ele>
        <time>2021-06-26T08:28:58Z</time>
      </trkpt>
      <trkpt lat="46.17125" lon="6.63205">
        <ele>1406.2</ele>
        <time>2021-06-26T08:28:59Z</time>
      </trkpt>
      <trkpt lat="46.17127" lon="6.63207">
        <ele>1406.4</ele>
        <time>2021-06-26T08:29:00Z</time>
      </trkpt>
      <trkpt lat="46.1713" lon="6.63209">
        <ele>1407</ele>
        <time>2021-06-26T08:29:01Z</time>
      </trkpt>
      <trkpt lat="46.17132" lon="6.63211">
        <ele>1407.2</ele>
        <time>2021-06-26T08:29:02Z</time>
      </trkpt>
      <trkpt lat="46.17135" lon="6.63213">
        <ele>1407.4</ele>
        <time>2021-06-26T08:29:03Z</time>
      </trkpt>
      <trkpt lat="46.17137" lon="6.63216">
        <ele>1407.6</ele>
        <time>2021-06-26T08:29:04Z</time>
      </trkpt>
      <trkpt lat="46.1714" lon="6.63219">
        <ele>1407.8</ele>
        <time>2021-06-26T08:29:05Z</time>
      </trkpt>
      <trkpt lat="46.17142" lon="6.63222">
        <ele>1408.2</ele>
        <time>2021-06-26T08:29:06Z</time>
      </trkpt>
      <trkpt lat="46.17145" lon="6.63226">
        <ele>1408.4</ele>
        <time>2021-06-26T08:29:07Z</time>
      </trkpt>
      <trkpt lat="46.17147" lon="6.63229">
        <ele>1408.6</ele>
        <time>2021-06-26T08:29:08Z</time>
      </trkpt>
      <trkpt lat="46.17149" lon="6.63232">
        <ele>1408.8</ele>
        <time>2021-06-26T08:29:09Z</time>
      </trkpt>
      <trkpt lat="46.17151" lon="6.63236">
        <ele>1408.8</ele>
        <time>2021-06-26T08:29:10Z</time>
      </trkpt>
      <trkpt lat="46.17153" lon="6.63242">
        <ele>1409.4</ele>
        <time>2021-06-26T08:29:11Z</time>
      </trkpt>
      <trkpt lat="46.17155" lon="6.63246">
        <ele>1409.4</ele>
        <time>2021-06-26T08:29:12Z</time>
      </trkpt>
      <trkpt lat="46.17157" lon="6.63251">
        <ele>1409.6</ele>
        <time>2021-06-26T08:29:13Z</time>
      </trkpt>
      <trkpt lat="46.17159" lon="6.63255">
        <ele>1409.8</ele>
        <time>2021-06-26T08:29:14Z</time>
      </trkpt>
      <trkpt lat="46.17161" lon="6.63258">
        <ele>1410</ele>
        <time>2021-06-26T08:29:15Z</time>
      </trkpt>
      <trkpt lat="46.17164" lon="6.63262">
        <ele>1410.2</ele>
        <time>2021-06-26T08:29:16Z</time>
      </trkpt>
      <trkpt lat="46.17166" lon="6.63265">
        <ele>1410.4</ele>
        <time>2021-06-26T08:29:17Z</time>
      </trkpt>
      <trkpt lat="46.17169" lon="6.63268">
        <ele>1410.6</ele>
        <time>2021-06-26T08:29:18Z</time>
      </trkpt>
      <trkpt lat="46.17172" lon="6.63271">
        <ele>1410.8</ele>
        <time>2021-06-26T08:29:19Z</time>
      </trkpt>
      <trkpt lat="46.17175" lon="6.63273">
        <ele>1411</ele>
        <time>2021-06-26T08:29:20Z</time>
      </trkpt>
      <trkpt lat="46.17178" lon="6.63276">
        <ele>1411</ele>
        <time>2021-06-26T08:29:21Z</time>
      </trkpt>
      <trkpt lat="46.17181" lon="6.63278">
        <ele>1411</ele>
        <time>2021-06-26T08:29:22Z</time>
      </trkpt>
      <trkpt lat="46.17184" lon="6.63281">
        <ele>1411.2</ele>
        <time>2021-06-26T08:29:23Z</time>
      </trkpt>
      <trkpt lat="46.17187" lon="6.63284">
        <ele>1411.4</ele>
        <time>2021-06-26T08:29:24Z</time>
      </trkpt>
      <trkpt lat="46.1719" lon="6.63287">
        <ele>1411.6</ele>
        <time>2021-06-26T08:29:25Z</time>
      </trkpt>
      <trkpt lat="46.17194" lon="6.63289">
        <ele>1411.6</ele>
        <time>2021-06-26T08:29:26Z</time>
      </trkpt>
      <trkpt lat="46.17197" lon="6.63292">
        <ele>1411.8</ele>
        <time>2021-06-26T08:29:27Z</time>
      </trkpt>
      <trkpt lat="46.17201" lon="6.63294">
        <ele>1411.6</ele>
        <time>2021-06-26T08:29:28Z</time>
      </trkpt>
      <trkpt lat="46.17204" lon="6.63297">
        <ele>1411.6</ele>
        <time>2021-06-26T08:29:29Z</time>
      </trkpt>
      <trkpt lat="46.17206" lon="6.633">
        <ele>1411.6</ele>
        <time>2021-06-26T08:29:30Z</time>
      </trkpt>
      <trkpt lat="46.17209" lon="6.63303">
        <ele>1411.8</ele>
        <time>2021-06-26T08:29:31Z</time>
      </trkpt>
      <trkpt lat="46.17212" lon="6.63306">
        <ele>1412</ele>
        <time>2021-06-26T08:29:32Z</time>
      </trkpt>
      <trkpt lat="46.17215" lon="6.63309">
        <ele>1412</ele>
        <time>2021-06-26T08:29:33Z</time>
      </trkpt>
      <trkpt lat="46.17218" lon="6.63312">
        <ele>1412</ele>
        <time>2021-06-26T08:29:34Z</time>
      </trkpt>
      <trkpt lat="46.1722" lon="6.63315">
        <ele>1412</ele>
        <time>2021-06-26T08:29:35Z</time>
      </trkpt>
      <trkpt lat="46.17222" lon="6.63318">
        <ele>1412.2</ele>
        <time>2021-06-26T08:29:36Z</time>
      </trkpt>
      <trkpt lat="46.17225" lon="6.63321">
        <ele>1412.6</ele>
        <time>2021-06-26T08:29:37Z</time>
      </trkpt>
      <trkpt lat="46.17227" lon="6.63324">
        <ele>1412.6</ele>
        <time>2021-06-26T08:29:38Z</time>
      </trkpt>
      <trkpt lat="46.17229" lon="6.63328">
        <ele>1413</ele>
        <time>2021-06-26T08:29:39Z</time>
      </trkpt>
      <trkpt lat="46.17231" lon="6.6333">
        <ele>1413</ele>
        <time>2021-06-26T08:29:40Z</time>
      </trkpt>
      <trkpt lat="46.17232" lon="6.63333">
        <ele>1413.2</ele>
        <time>2021-06-26T08:29:41Z</time>
      </trkpt>
      <trkpt lat="46.17234" lon="6.63336">
        <ele>1413.6</ele>
        <time>2021-06-26T08:29:42Z</time>
      </trkpt>
      <trkpt lat="46.17236" lon="6.63339">
        <ele>1414.2</ele>
        <time>2021-06-26T08:29:43Z</time>
      </trkpt>
      <trkpt lat="46.17238" lon="6.63342">
        <ele>1414.8</ele>
        <time>2021-06-26T08:29:44Z</time>
      </trkpt>
      <trkpt lat="46.1724" lon="6.63344">
        <ele>1415.2</ele>
        <time>2021-06-26T08:29:45Z</time>
      </trkpt>
      <trkpt lat="46.17241" lon="6.63347">
        <ele>1415.6</ele>
        <time>2021-06-26T08:29:46Z</time>
      </trkpt>
      <trkpt lat="46.17243" lon="6.63349">
        <ele>1416</ele>
        <time>2021-06-26T08:29:47Z</time>
      </trkpt>
      <trkpt lat="46.17244" lon="6.63352">
        <ele>1416.2</ele>
        <time>2021-06-26T08:29:48Z</time>
      </trkpt>
      <trkpt lat="46.17246" lon="6.63355">
        <ele>1416.6</ele>
        <time>2021-06-26T08:29:49Z</time>
      </trkpt>
      <trkpt lat="46.17248" lon="6.63357">
        <ele>1417.2</ele>
        <time>2021-06-26T08:29:50Z</time>
      </trkpt>
      <trkpt lat="46.1725" lon="6.63359">
        <ele>1417.4</ele>
        <time>2021-06-26T08:29:51Z</time>
      </trkpt>
      <trkpt lat="46.17252" lon="6.63361">
        <ele>1417.8</ele>
        <time>2021-06-26T08:29:52Z</time>
      </trkpt>
      <trkpt lat="46.17254" lon="6.63363">
        <ele>1418.2</ele>
        <time>2021-06-26T08:29:53Z</time>
      </trkpt>
      <trkpt lat="46.17256" lon="6.63364">
        <ele>1418.6</ele>
        <time>2021-06-26T08:29:54Z</time>
      </trkpt>
      <trkpt lat="46.17258" lon="6.63366">
        <ele>1418.6</ele>
        <time>2021-06-26T08:29:55Z</time>
      </trkpt>
      <trkpt lat="46.1726" lon="6.63367">
        <ele>1419</ele>
        <time>2021-06-26T08:29:56Z</time>
      </trkpt>
      <trkpt lat="46.17262" lon="6.63369">
        <ele>1419.4</ele>
        <time>2021-06-26T08:29:57Z</time>
      </trkpt>
      <trkpt lat="46.17265" lon="6.63371">
        <ele>1420</ele>
        <time>2021-06-26T08:29:58Z</time>
      </trkpt>
      <trkpt lat="46.17267" lon="6.63374">
        <ele>1420.4</ele>
        <time>2021-06-26T08:29:59Z</time>
      </trkpt>
      <trkpt lat="46.1727" lon="6.63375">
        <ele>1420.8</ele>
        <time>2021-06-26T08:30:00Z</time>
      </trkpt>
      <trkpt lat="46.17273" lon="6.63376">
        <ele>1421</ele>
        <time>2021-06-26T08:30:01Z</time>
      </trkpt>
      <trkpt lat="46.17275" lon="6.63378">
        <ele>1421.4</ele>
        <time>2021-06-26T08:30:02Z</time>
      </trkpt>
      <trkpt lat="46.17276" lon="6.6338">
        <ele>1421.8</ele>
        <time>2021-06-26T08:30:03Z</time>
      </trkpt>
      <trkpt lat="46.17277" lon="6.63381">
        <ele>1422</ele>
        <time>2021-06-26T08:30:04Z</time>
      </trkpt>
      <trkpt lat="46.17278" lon="6.63382">
        <ele>1423.2</ele>
        <time>2021-06-26T08:30:10Z</time>
      </trkpt>
      <trkpt lat="46.17278" lon="6.63382">
        <ele>1423</ele>
        <time>2021-06-26T08:30:24Z</time>
      </trkpt>
      <trkpt lat="46.17278" lon="6.63383">
        <ele>1423</ele>
        <time>2021-06-26T08:30:58Z</time>
      </trkpt>
      <trkpt lat="46.17278" lon="6.63383">
        <ele>1422.8</ele>
        <time>2021-06-26T08:31:50Z</time>
      </trkpt>
      <trkpt lat="46.17278" lon="6.63382">
        <ele>1423.2</ele>
        <time>2021-06-26T08:32:26Z</time>
      </trkpt>
      <trkpt lat="46.17278" lon="6.63382">
        <ele>1422.8</ele>
        <time>2021-06-26T08:33:00Z</time>
      </trkpt>
      <trkpt lat="46.17277" lon="6.63382">
        <ele>1422.6</ele>
        <time>2021-06-26T08:33:33Z</time>
      </trkpt>
      <trkpt lat="46.17277" lon="6.63383">
        <ele>1422.8</ele>
        <time>2021-06-26T08:33:58Z</time>
      </trkpt>
      <trkpt lat="46.17277" lon="6.63383">
        <ele>1422.8</ele>
        <time>2021-06-26T08:34:01Z</time>
      </trkpt>
      <trkpt lat="46.17277" lon="6.63383">
        <ele>1422.8</ele>
        <time>2021-06-26T08:35:03Z</time>
      </trkpt>
      <trkpt lat="46.17277" lon="6.63383">
        <ele>1422.6</ele>
        <time>2021-06-26T08:35:17Z</time>
      </trkpt>
      <trkpt lat="46.17279" lon="6.63381">
        <ele>1422.6</ele>
        <time>2021-06-26T08:35:26Z</time>
      </trkpt>
      <trkpt lat="46.17278" lon="6.63381">
        <ele>1422.4</ele>
        <time>2021-06-26T08:35:27Z</time>
      </trkpt>
      <trkpt lat="46.17278" lon="6.63381">
        <ele>1422.8</ele>
        <time>2021-06-26T08:35:36Z</time>
      </trkpt>
      <trkpt lat="46.17278" lon="6.63381">
        <ele>1422.6</ele>
        <time>2021-06-26T08:35:37Z</time>
      </trkpt>
      <trkpt lat="46.17285" lon="6.63381">
        <ele>1423</ele>
        <time>2021-06-26T08:35:51Z</time>
      </trkpt>
      <trkpt lat="46.17301" lon="6.63392">
        <ele>1423</ele>
        <time>2021-06-26T08:35:57Z</time>
      </trkpt>
      <trkpt lat="46.1732" lon="6.63418">
        <ele>1422.8</ele>
        <time>2021-06-26T08:36:03Z</time>
      </trkpt>
      <trkpt lat="46.17325" lon="6.63422">
        <ele>1422.8</ele>
        <time>2021-06-26T08:36:04Z</time>
      </trkpt>
      <trkpt lat="46.17334" lon="6.63431">
        <ele>1422.8</ele>
        <time>2021-06-26T08:36:06Z</time>
      </trkpt>
      <trkpt lat="46.17345" lon="6.63442">
        <ele>1422.4</ele>
        <time>2021-06-26T08:36:08Z</time>
      </trkpt>
      <trkpt lat="46.1735" lon="6.63448">
        <ele>1422.6</ele>
        <time>2021-06-26T08:36:09Z</time>
      </trkpt>
      <trkpt lat="46.17365" lon="6.6347">
        <ele>1421.6</ele>
        <time>2021-06-26T08:36:12Z</time>
      </trkpt>
      <trkpt lat="46.1737" lon="6.63479">
        <ele>1421.4</ele>
        <time>2021-06-26T08:36:13Z</time>
      </trkpt>
      <trkpt lat="46.17376" lon="6.63488">
        <ele>1421</ele>
        <time>2021-06-26T08:36:14Z</time>
      </trkpt>
      <trkpt lat="46.17387" lon="6.63509">
        <ele>1420</ele>
        <time>2021-06-26T08:36:16Z</time>
      </trkpt>
      <trkpt lat="46.17394" lon="6.6352">
        <ele>1419.6</ele>
        <time>2021-06-26T08:36:17Z</time>
      </trkpt>
      <trkpt lat="46.174" lon="6.63532">
        <ele>1419.2</ele>
        <time>2021-06-26T08:36:18Z</time>
      </trkpt>
      <trkpt lat="46.17408" lon="6.63545">
        <ele>1419</ele>
        <time>2021-06-26T08:36:19Z</time>
      </trkpt>
      <trkpt lat="46.17431" lon="6.63584">
        <ele>1418.2</ele>
        <time>2021-06-26T08:36:22Z</time>
      </trkpt>
      <trkpt lat="46.1744" lon="6.63597">
        <ele>1417.6</ele>
        <time>2021-06-26T08:36:23Z</time>
      </trkpt>
      <trkpt lat="46.1746" lon="6.63621">
        <ele>1416</ele>
        <time>2021-06-26T08:36:25Z</time>
      </trkpt>
      <trkpt lat="46.17471" lon="6.63631">
        <ele>1415.2</ele>
        <time>2021-06-26T08:36:26Z</time>
      </trkpt>
      <trkpt lat="46.17483" lon="6.63639">
        <ele>1413.8</ele>
        <time>2021-06-26T08:36:27Z</time>
      </trkpt>
      <trkpt lat="46.17496" lon="6.63647">
        <ele>1412</ele>
        <time>2021-06-26T08:36:28Z</time>
      </trkpt>
      <trkpt lat="46.17508" lon="6.63653">
        <ele>1410.4</ele>
        <time>2021-06-26T08:36:29Z</time>
      </trkpt>
      <trkpt lat="46.17521" lon="6.6366">
        <ele>1409.4</ele>
        <time>2021-06-26T08:36:30Z</time>
      </trkpt>
      <trkpt lat="46.17535" lon="6.63666">
        <ele>1408.4</ele>
        <time>2021-06-26T08:36:31Z</time>
      </trkpt>
      <trkpt lat="46.17547" lon="6.63673">
        <ele>1407.4</ele>
        <time>2021-06-26T08:36:32Z</time>
      </trkpt>
      <trkpt lat="46.17559" lon="6.63685">
        <ele>1406.4</ele>
        <time>2021-06-26T08:36:33Z</time>
      </trkpt>
      <trkpt lat="46.1757" lon="6.63697">
        <ele>1404.8</ele>
        <time>2021-06-26T08:36:34Z</time>
      </trkpt>
      <trkpt lat="46.17581" lon="6.6371">
        <ele>1403.2</ele>
        <time>2021-06-26T08:36:35Z</time>
      </trkpt>
      <trkpt lat="46.17591" lon="6.63724">
        <ele>1401.6</ele>
        <time>2021-06-26T08:36:36Z</time>
      </trkpt>
      <trkpt lat="46.17601" lon="6.6374">
        <ele>1399.4</ele>
        <time>2021-06-26T08:36:37Z</time>
      </trkpt>
      <trkpt lat="46.1761" lon="6.63756">
        <ele>1397.2</ele>
        <time>2021-06-26T08:36:38Z</time>
      </trkpt>
      <trkpt lat="46.1762" lon="6.6377">
        <ele>1394.8</ele>
        <time>2021-06-26T08:36:39Z</time>
      </trkpt>
      <trkpt lat="46.1763" lon="6.63784">
        <ele>1392.6</ele>
        <time>2021-06-26T08:36:40Z</time>
      </trkpt>
      <trkpt lat="46.17641" lon="6.63797">
        <ele>1390.8</ele>
        <time>2021-06-26T08:36:41Z</time>
      </trkpt>
      <trkpt lat="46.17651" lon="6.63811">
        <ele>1389.4</ele>
        <time>2021-06-26T08:36:42Z</time>
      </trkpt>
      <trkpt lat="46.1766" lon="6.63827">
        <ele>1387.8</ele>
        <time>2021-06-26T08:36:43Z</time>
      </trkpt>
      <trkpt lat="46.17669" lon="6.63845">
        <ele>1387.8</ele>
        <time>2021-06-26T08:36:44Z</time>
      </trkpt>
      <trkpt lat="46.17678" lon="6.63863">
        <ele>1385.8</ele>
        <time>2021-06-26T08:36:45Z</time>
      </trkpt>
      <trkpt lat="46.17698" lon="6.63896">
        <ele>1382.2</ele>
        <time>2021-06-26T08:36:47Z</time>
      </trkpt>
      <trkpt lat="46.1771" lon="6.63912">
        <ele>1380.6</ele>
        <time>2021-06-26T08:36:48Z</time>
      </trkpt>
      <trkpt lat="46.17721" lon="6.63926">
        <ele>1378.8</ele>
        <time>2021-06-26T08:36:49Z</time>
      </trkpt>
      <trkpt lat="46.17733" lon="6.63938">
        <ele>1377.2</ele>
        <time>2021-06-26T08:36:50Z</time>
      </trkpt>
      <trkpt lat="46.17744" lon="6.63951">
        <ele>1375.2</ele>
        <time>2021-06-26T08:36:51Z</time>
      </trkpt>
      <trkpt lat="46.17754" lon="6.63964">
        <ele>1373.4</ele>
        <time>2021-06-26T08:36:52Z</time>
      </trkpt>
      <trkpt lat="46.17764" lon="6.63976">
        <ele>1371.6</ele>
        <time>2021-06-26T08:36:53Z</time>
      </trkpt>
      <trkpt lat="46.17772" lon="6.63989">
        <ele>1370.2</ele>
        <time>2021-06-26T08:36:54Z</time>
      </trkpt>
      <trkpt lat="46.17781" lon="6.64002">
        <ele>1369</ele>
        <time>2021-06-26T08:36:55Z</time>
      </trkpt>
      <trkpt lat="46.17789" lon="6.64016">
        <ele>1367.2</ele>
        <time>2021-06-26T08:36:56Z</time>
      </trkpt>
      <trkpt lat="46.17798" lon="6.64031">
        <ele>1365.2</ele>
        <time>2021-06-26T08:36:57Z</time>
      </trkpt>
      <trkpt lat="46.17806" lon="6.64046">
        <ele>1364</ele>
        <time>2021-06-26T08:36:58Z</time>
      </trkpt>
      <trkpt lat="46.17814" lon="6.64062">
        <ele>1362.6</ele>
        <time>2021-06-26T08:36:59Z</time>
      </trkpt>
      <trkpt lat="46.17822" lon="6.64077">
        <ele>1361.2</ele>
        <time>2021-06-26T08:37:00Z</time>
      </trkpt>
      <trkpt lat="46.17829" lon="6.64093">
        <ele>1359.8</ele>
        <time>2021-06-26T08:37:01Z</time>
      </trkpt>
      <trkpt lat="46.17837" lon="6.64109">
        <ele>1358.4</ele>
        <time>2021-06-26T08:37:02Z</time>
      </trkpt>
      <trkpt lat="46.17844" lon="6.64125">
        <ele>1356.8</ele>
        <time>2021-06-26T08:37:03Z</time>
      </trkpt>
      <trkpt lat="46.1785" lon="6.64141">
        <ele>1355.4</ele>
        <time>2021-06-26T08:37:04Z</time>
      </trkpt>
      <trkpt lat="46.17856" lon="6.64155">
        <ele>1353.2</ele>
        <time>2021-06-26T08:37:05Z</time>
      </trkpt>
      <trkpt lat="46.17862" lon="6.64167">
        <ele>1351</ele>
        <time>2021-06-26T08:37:06Z</time>
      </trkpt>
      <trkpt lat="46.17868" lon="6.64177">
        <ele>1351</ele>
        <time>2021-06-26T08:37:07Z</time>
      </trkpt>
      <trkpt lat="46.1787" lon="6.6419">
        <ele>1349</ele>
        <time>2021-06-26T08:37:08Z</time>
      </trkpt>
      <trkpt lat="46.17872" lon="6.64201">
        <ele>1346.6</ele>
        <time>2021-06-26T08:37:09Z</time>
      </trkpt>
      <trkpt lat="46.17876" lon="6.64227">
        <ele>1342.2</ele>
        <time>2021-06-26T08:37:11Z</time>
      </trkpt>
      <trkpt lat="46.1788" lon="6.64239">
        <ele>1341.2</ele>
        <time>2021-06-26T08:37:12Z</time>
      </trkpt>
      <trkpt lat="46.17885" lon="6.6425">
        <ele>1340.2</ele>
        <time>2021-06-26T08:37:13Z</time>
      </trkpt>
      <trkpt lat="46.17891" lon="6.64262">
        <ele>1339.8</ele>
        <time>2021-06-26T08:37:14Z</time>
      </trkpt>
      <trkpt lat="46.17898" lon="6.64273">
        <ele>1339.4</ele>
        <time>2021-06-26T08:37:15Z</time>
      </trkpt>
      <trkpt lat="46.17911" lon="6.64297">
        <ele>1338.2</ele>
        <time>2021-06-26T08:37:17Z</time>
      </trkpt>
      <trkpt lat="46.17918" lon="6.64309">
        <ele>1337.2</ele>
        <time>2021-06-26T08:37:18Z</time>
      </trkpt>
      <trkpt lat="46.17925" lon="6.64321">
        <ele>1336.6</ele>
        <time>2021-06-26T08:37:19Z</time>
      </trkpt>
      <trkpt lat="46.17938" lon="6.64345">
        <ele>1334.2</ele>
        <time>2021-06-26T08:37:21Z</time>
      </trkpt>
      <trkpt lat="46.17945" lon="6.64355">
        <ele>1332.8</ele>
        <time>2021-06-26T08:37:22Z</time>
      </trkpt>
      <trkpt lat="46.17951" lon="6.64366">
        <ele>1331.4</ele>
        <time>2021-06-26T08:37:23Z</time>
      </trkpt>
      <trkpt lat="46.17956" lon="6.64376">
        <ele>1330.2</ele>
        <time>2021-06-26T08:37:24Z</time>
      </trkpt>
      <trkpt lat="46.17961" lon="6.64388">
        <ele>1329</ele>
        <time>2021-06-26T08:37:25Z</time>
      </trkpt>
      <trkpt lat="46.17965" lon="6.64399">
        <ele>1328</ele>
        <time>2021-06-26T08:37:26Z</time>
      </trkpt>
      <trkpt lat="46.17974" lon="6.64423">
        <ele>1326</ele>
        <time>2021-06-26T08:37:28Z</time>
      </trkpt>
      <trkpt lat="46.1798" lon="6.64433">
        <ele>1325.4</ele>
        <time>2021-06-26T08:37:29Z</time>
      </trkpt>
      <trkpt lat="46.17993" lon="6.64453">
        <ele>1324.8</ele>
        <time>2021-06-26T08:37:31Z</time>
      </trkpt>
      <trkpt lat="46.18001" lon="6.64462">
        <ele>1324.2</ele>
        <time>2021-06-26T08:37:32Z</time>
      </trkpt>
      <trkpt lat="46.1801" lon="6.64471">
        <ele>1323.6</ele>
        <time>2021-06-26T08:37:33Z</time>
      </trkpt>
      <trkpt lat="46.18019" lon="6.64479">
        <ele>1323.4</ele>
        <time>2021-06-26T08:37:34Z</time>
      </trkpt>
      <trkpt lat="46.18028" lon="6.64489">
        <ele>1322.4</ele>
        <time>2021-06-26T08:37:35Z</time>
      </trkpt>
      <trkpt lat="46.18036" lon="6.64498">
        <ele>1321.8</ele>
        <time>2021-06-26T08:37:36Z</time>
      </trkpt>
      <trkpt lat="46.18042" lon="6.64508">
        <ele>1321.4</ele>
        <time>2021-06-26T08:37:37Z</time>
      </trkpt>
      <trkpt lat="46.18049" lon="6.64516">
        <ele>1320.8</ele>
        <time>2021-06-26T08:37:38Z</time>
      </trkpt>
      <trkpt lat="46.18055" lon="6.64526">
        <ele>1319.6</ele>
        <time>2021-06-26T08:37:39Z</time>
      </trkpt>
      <trkpt lat="46.18061" lon="6.64537">
        <ele>1318.4</ele>
        <time>2021-06-26T08:37:40Z</time>
      </trkpt>
      <trkpt lat="46.18068" lon="6.64548">
        <ele>1317.2</ele>
        <time>2021-06-26T08:37:41Z</time>
      </trkpt>
      <trkpt lat="46.18075" lon="6.6456">
        <ele>1315.8</ele>
        <time>2021-06-26T08:37:42Z</time>
      </trkpt>
      <trkpt lat="46.18082" lon="6.64572">
        <ele>1314.8</ele>
        <time>2021-06-26T08:37:43Z</time>
      </trkpt>
      <trkpt lat="46.18091" lon="6.64582">
        <ele>1313.8</ele>
        <time>2021-06-26T08:37:44Z</time>
      </trkpt>
      <trkpt lat="46.18101" lon="6.64591">
        <ele>1313</ele>
        <time>2021-06-26T08:37:45Z</time>
      </trkpt>
      <trkpt lat="46.18111" lon="6.64599">
        <ele>1312.8</ele>
        <time>2021-06-26T08:37:46Z</time>
      </trkpt>
      <trkpt lat="46.18122" lon="6.64605">
        <ele>1312.2</ele>
        <time>2021-06-26T08:37:47Z</time>
      </trkpt>
      <trkpt lat="46.18144" lon="6.64617">
        <ele>1310.4</ele>
        <time>2021-06-26T08:37:49Z</time>
      </trkpt>
      <trkpt lat="46.18155" lon="6.6462">
        <ele>1309</ele>
        <time>2021-06-26T08:37:50Z</time>
      </trkpt>
      <trkpt lat="46.18166" lon="6.64618">
        <ele>1307.6</ele>
        <time>2021-06-26T08:37:51Z</time>
      </trkpt>
      <trkpt lat="46.18176" lon="6.64612">
        <ele>1307.6</ele>
        <time>2021-06-26T08:37:52Z</time>
      </trkpt>
      <trkpt lat="46.18187" lon="6.64605">
        <ele>1306.6</ele>
        <time>2021-06-26T08:37:53Z</time>
      </trkpt>
      <trkpt lat="46.18198" lon="6.64598">
        <ele>1305.2</ele>
        <time>2021-06-26T08:37:54Z</time>
      </trkpt>
      <trkpt lat="46.18209" lon="6.64592">
        <ele>1303.8</ele>
        <time>2021-06-26T08:37:55Z</time>
      </trkpt>
      <trkpt lat="46.18221" lon="6.6459">
        <ele>1302.2</ele>
        <time>2021-06-26T08:37:56Z</time>
      </trkpt>
      <trkpt lat="46.18232" lon="6.6459">
        <ele>1300.4</ele>
        <time>2021-06-26T08:37:57Z</time>
      </trkpt>
      <trkpt lat="46.18242" lon="6.64591">
        <ele>1299.2</ele>
        <time>2021-06-26T08:37:58Z</time>
      </trkpt>
      <trkpt lat="46.18253" lon="6.64591">
        <ele>1298</ele>
        <time>2021-06-26T08:37:59Z</time>
      </trkpt>
      <trkpt lat="46.18263" lon="6.6459">
        <ele>1296.8</ele>
        <time>2021-06-26T08:38:00Z</time>
      </trkpt>
      <trkpt lat="46.18272" lon="6.64584">
        <ele>1296</ele>
        <time>2021-06-26T08:38:01Z</time>
      </trkpt>
      <trkpt lat="46.18281" lon="6.64575">
        <ele>1294.8</ele>
        <time>2021-06-26T08:38:02Z</time>
      </trkpt>
      <trkpt lat="46.1829" lon="6.64565">
        <ele>1293.4</ele>
        <time>2021-06-26T08:38:03Z</time>
      </trkpt>
      <trkpt lat="46.18299" lon="6.64555">
        <ele>1292</ele>
        <time>2021-06-26T08:38:04Z</time>
      </trkpt>
      <trkpt lat="46.18311" lon="6.64548">
        <ele>1290.6</ele>
        <time>2021-06-26T08:38:05Z</time>
      </trkpt>
      <trkpt lat="46.18324" lon="6.64545">
        <ele>1289.4</ele>
        <time>2021-06-26T08:38:06Z</time>
      </trkpt>
      <trkpt lat="46.18338" lon="6.64544">
        <ele>1288.2</ele>
        <time>2021-06-26T08:38:07Z</time>
      </trkpt>
      <trkpt lat="46.18352" lon="6.64541">
        <ele>1287.2</ele>
        <time>2021-06-26T08:38:08Z</time>
      </trkpt>
      <trkpt lat="46.18366" lon="6.64538">
        <ele>1286.4</ele>
        <time>2021-06-26T08:38:09Z</time>
      </trkpt>
      <trkpt lat="46.18378" lon="6.64532">
        <ele>1285.2</ele>
        <time>2021-06-26T08:38:10Z</time>
      </trkpt>
      <trkpt lat="46.1839" lon="6.64527">
        <ele>1284</ele>
        <time>2021-06-26T08:38:11Z</time>
      </trkpt>
      <trkpt lat="46.184" lon="6.64519">
        <ele>1282.6</ele>
        <time>2021-06-26T08:38:12Z</time>
      </trkpt>
      <trkpt lat="46.18408" lon="6.64509">
        <ele>1280.6</ele>
        <time>2021-06-26T08:38:13Z</time>
      </trkpt>
      <trkpt lat="46.18415" lon="6.64495">
        <ele>1278.6</ele>
        <time>2021-06-26T08:38:14Z</time>
      </trkpt>
      <trkpt lat="46.1842" lon="6.64482">
        <ele>1278.6</ele>
        <time>2021-06-26T08:38:15Z</time>
      </trkpt>
      <trkpt lat="46.18426" lon="6.6447">
        <ele>1276.6</ele>
        <time>2021-06-26T08:38:16Z</time>
      </trkpt>
      <trkpt lat="46.18431" lon="6.6446">
        <ele>1275</ele>
        <time>2021-06-26T08:38:17Z</time>
      </trkpt>
      <trkpt lat="46.18436" lon="6.64452">
        <ele>1274</ele>
        <time>2021-06-26T08:38:18Z</time>
      </trkpt>
      <trkpt lat="46.18442" lon="6.64445">
        <ele>1272.8</ele>
        <time>2021-06-26T08:38:19Z</time>
      </trkpt>
      <trkpt lat="46.18449" lon="6.6444">
        <ele>1272.4</ele>
        <time>2021-06-26T08:38:20Z</time>
      </trkpt>
      <trkpt lat="46.18455" lon="6.6444">
        <ele>1271.8</ele>
        <time>2021-06-26T08:38:21Z</time>
      </trkpt>
      <trkpt lat="46.18461" lon="6.64444">
        <ele>1270.8</ele>
        <time>2021-06-26T08:38:22Z</time>
      </trkpt>
      <trkpt lat="46.18465" lon="6.64451">
        <ele>1269.6</ele>
        <time>2021-06-26T08:38:23Z</time>
      </trkpt>
      <trkpt lat="46.18468" lon="6.64458">
        <ele>1268.6</ele>
        <time>2021-06-26T08:38:24Z</time>
      </trkpt>
      <trkpt lat="46.18471" lon="6.64467">
        <ele>1268.2</ele>
        <time>2021-06-26T08:38:25Z</time>
      </trkpt>
      <trkpt lat="46.18472" lon="6.64477">
        <ele>1267.8</ele>
        <time>2021-06-26T08:38:26Z</time>
      </trkpt>
      <trkpt lat="46.18475" lon="6.64484">
        <ele>1267.6</ele>
        <time>2021-06-26T08:38:27Z</time>
      </trkpt>
      <trkpt lat="46.18477" lon="6.64492">
        <ele>1267.4</ele>
        <time>2021-06-26T08:38:28Z</time>
      </trkpt>
      <trkpt lat="46.18479" lon="6.645">
        <ele>1267.4</ele>
        <time>2021-06-26T08:38:29Z</time>
      </trkpt>
      <trkpt lat="46.18481" lon="6.64508">
        <ele>1267.4</ele>
        <time>2021-06-26T08:38:30Z</time>
      </trkpt>
      <trkpt lat="46.18482" lon="6.64516">
        <ele>1267.4</ele>
        <time>2021-06-26T08:38:31Z</time>
      </trkpt>
      <trkpt lat="46.18482" lon="6.64523">
        <ele>1267.4</ele>
        <time>2021-06-26T08:38:32Z</time>
      </trkpt>
      <trkpt lat="46.18482" lon="6.6453">
        <ele>1267.4</ele>
        <time>2021-06-26T08:38:33Z</time>
      </trkpt>
      <trkpt lat="46.18481" lon="6.64535">
        <ele>1267.4</ele>
        <time>2021-06-26T08:38:34Z</time>
      </trkpt>
      <trkpt lat="46.18481" lon="6.64542">
        <ele>1267.6</ele>
        <time>2021-06-26T08:38:35Z</time>
      </trkpt>
      <trkpt lat="46.18481" lon="6.64548">
        <ele>1267.8</ele>
        <time>2021-06-26T08:38:36Z</time>
      </trkpt>
      <trkpt lat="46.1848" lon="6.64554">
        <ele>1268.2</ele>
        <time>2021-06-26T08:38:37Z</time>
      </trkpt>
      <trkpt lat="46.18477" lon="6.64571">
        <ele>1268.4</ele>
        <time>2021-06-26T08:38:39Z</time>
      </trkpt>
      <trkpt lat="46.18475" lon="6.64579">
        <ele>1268.6</ele>
        <time>2021-06-26T08:38:40Z</time>
      </trkpt>
      <trkpt lat="46.18473" lon="6.64587">
        <ele>1268.6</ele>
        <time>2021-06-26T08:38:41Z</time>
      </trkpt>
      <trkpt lat="46.18467" lon="6.64618">
        <ele>1269.8</ele>
        <time>2021-06-26T08:38:45Z</time>
      </trkpt>
      <trkpt lat="46.18465" lon="6.64625">
        <ele>1270.2</ele>
        <time>2021-06-26T08:38:46Z</time>
      </trkpt>
      <trkpt lat="46.18464" lon="6.64631">
        <ele>1270.2</ele>
        <time>2021-06-26T08:38:47Z</time>
      </trkpt>
      <trkpt lat="46.18463" lon="6.64637">
        <ele>1270.4</ele>
        <time>2021-06-26T08:38:48Z</time>
      </trkpt>
      <trkpt lat="46.18463" lon="6.64643">
        <ele>1270.8</ele>
        <time>2021-06-26T08:38:49Z</time>
      </trkpt>
      <trkpt lat="46.18462" lon="6.64649">
        <ele>1271.2</ele>
        <time>2021-06-26T08:38:50Z</time>
      </trkpt>
      <trkpt lat="46.18462" lon="6.64653">
        <ele>1271.2</ele>
        <time>2021-06-26T08:38:51Z</time>
      </trkpt>
      <trkpt lat="46.18461" lon="6.64658">
        <ele>1271.6</ele>
        <time>2021-06-26T08:38:52Z</time>
      </trkpt>
      <trkpt lat="46.18461" lon="6.64663">
        <ele>1271.8</ele>
        <time>2021-06-26T08:38:53Z</time>
      </trkpt>
      <trkpt lat="46.1846" lon="6.64668">
        <ele>1272.2</ele>
        <time>2021-06-26T08:38:54Z</time>
      </trkpt>
      <trkpt lat="46.18459" lon="6.64673">
        <ele>1272.4</ele>
        <time>2021-06-26T08:38:55Z</time>
      </trkpt>
      <trkpt lat="46.18458" lon="6.64678">
        <ele>1272.8</ele>
        <time>2021-06-26T08:38:56Z</time>
      </trkpt>
      <trkpt lat="46.18456" lon="6.64682">
        <ele>1273.2</ele>
        <time>2021-06-26T08:38:57Z</time>
      </trkpt>
      <trkpt lat="46.18454" lon="6.64687">
        <ele>1273.6</ele>
        <time>2021-06-26T08:38:58Z</time>
      </trkpt>
      <trkpt lat="46.18453" lon="6.64692">
        <ele>1273.8</ele>
        <time>2021-06-26T08:38:59Z</time>
      </trkpt>
      <trkpt lat="46.18451" lon="6.64696">
        <ele>1274.2</ele>
        <time>2021-06-26T08:39:00Z</time>
      </trkpt>
      <trkpt lat="46.1845" lon="6.64701">
        <ele>1274.2</ele>
        <time>2021-06-26T08:39:01Z</time>
      </trkpt>
      <trkpt lat="46.18448" lon="6.64705">
        <ele>1274.8</ele>
        <time>2021-06-26T08:39:02Z</time>
      </trkpt>
      <trkpt lat="46.18447" lon="6.64711">
        <ele>1275</ele>
        <time>2021-06-26T08:39:03Z</time>
      </trkpt>
      <trkpt lat="46.18446" lon="6.64716">
        <ele>1275.4</ele>
        <time>2021-06-26T08:39:04Z</time>
      </trkpt>
      <trkpt lat="46.18445" lon="6.64722">
        <ele>1275.6</ele>
        <time>2021-06-26T08:39:05Z</time>
      </trkpt>
      <trkpt lat="46.18444" lon="6.64727">
        <ele>1276</ele>
        <time>2021-06-26T08:39:06Z</time>
      </trkpt>
      <trkpt lat="46.18442" lon="6.64732">
        <ele>1276.4</ele>
        <time>2021-06-26T08:39:07Z</time>
      </trkpt>
      <trkpt lat="46.18439" lon="6.64737">
        <ele>1276.6</ele>
        <time>2021-06-26T08:39:08Z</time>
      </trkpt>
      <trkpt lat="46.18436" lon="6.6474">
        <ele>1276.8</ele>
        <time>2021-06-26T08:39:09Z</time>
      </trkpt>
      <trkpt lat="46.18433" lon="6.64744">
        <ele>1277</ele>
        <time>2021-06-26T08:39:10Z</time>
      </trkpt>
      <trkpt lat="46.1843" lon="6.64748">
        <ele>1277.2</ele>
        <time>2021-06-26T08:39:11Z</time>
      </trkpt>
      <trkpt lat="46.18427" lon="6.64753">
        <ele>1277.6</ele>
        <time>2021-06-26T08:39:12Z</time>
      </trkpt>
      <trkpt lat="46.18424" lon="6.64758">
        <ele>1277.6</ele>
        <time>2021-06-26T08:39:13Z</time>
      </trkpt>
      <trkpt lat="46.18422" lon="6.64764">
        <ele>1278</ele>
        <time>2021-06-26T08:39:14Z</time>
      </trkpt>
      <trkpt lat="46.18419" lon="6.6477">
        <ele>1278</ele>
        <time>2021-06-26T08:39:15Z</time>
      </trkpt>
      <trkpt lat="46.18417" lon="6.64776">
        <ele>1278.2</ele>
        <time>2021-06-26T08:39:16Z</time>
      </trkpt>
      <trkpt lat="46.18414" lon="6.64783">
        <ele>1278.2</ele>
        <time>2021-06-26T08:39:17Z</time>
      </trkpt>
      <trkpt lat="46.18411" lon="6.6479">
        <ele>1278.2</ele>
        <time>2021-06-26T08:39:18Z</time>
      </trkpt>
      <trkpt lat="46.18408" lon="6.64796">
        <ele>1278.4</ele>
        <time>2021-06-26T08:39:19Z</time>
      </trkpt>
      <trkpt lat="46.18404" lon="6.64803">
        <ele>1278.2</ele>
        <time>2021-06-26T08:39:20Z</time>
      </trkpt>
      <trkpt lat="46.184" lon="6.64809">
        <ele>1278.2</ele>
        <time>2021-06-26T08:39:21Z</time>
      </trkpt>
      <trkpt lat="46.18396" lon="6.64814">
        <ele>1278.2</ele>
        <time>2021-06-26T08:39:22Z</time>
      </trkpt>
      <trkpt lat="46.18392" lon="6.64821">
        <ele>1278.2</ele>
        <time>2021-06-26T08:39:23Z</time>
      </trkpt>
      <trkpt lat="46.18388" lon="6.64828">
        <ele>1278.2</ele>
        <time>2021-06-26T08:39:24Z</time>
      </trkpt>
      <trkpt lat="46.18381" lon="6.64843">
        <ele>1278.2</ele>
        <time>2021-06-26T08:39:26Z</time>
      </trkpt>
      <trkpt lat="46.18374" lon="6.64859">
        <ele>1278</ele>
        <time>2021-06-26T08:39:28Z</time>
      </trkpt>
      <trkpt lat="46.18372" lon="6.64866">
        <ele>1277.8</ele>
        <time>2021-06-26T08:39:29Z</time>
      </trkpt>
      <trkpt lat="46.18369" lon="6.64874">
        <ele>1277.8</ele>
        <time>2021-06-26T08:39:30Z</time>
      </trkpt>
      <trkpt lat="46.18368" lon="6.64882">
        <ele>1277.6</ele>
        <time>2021-06-26T08:39:31Z</time>
      </trkpt>
      <trkpt lat="46.18357" lon="6.64934">
        <ele>1277.2</ele>
        <time>2021-06-26T08:39:37Z</time>
      </trkpt>
      <trkpt lat="46.18352" lon="6.64972">
        <ele>1277.2</ele>
        <time>2021-06-26T08:39:41Z</time>
      </trkpt>
      <trkpt lat="46.18351" lon="6.64993">
        <ele>1277.2</ele>
        <time>2021-06-26T08:39:43Z</time>
      </trkpt>
      <trkpt lat="46.18353" lon="6.65035">
        <ele>1277</ele>
        <time>2021-06-26T08:39:47Z</time>
      </trkpt>
      <trkpt lat="46.18355" lon="6.65046">
        <ele>1276.8</ele>
        <time>2021-06-26T08:39:48Z</time>
      </trkpt>
      <trkpt lat="46.18357" lon="6.65056">
        <ele>1276.6</ele>
        <time>2021-06-26T08:39:49Z</time>
      </trkpt>
      <trkpt lat="46.18372" lon="6.65138">
        <ele>1275.8</ele>
        <time>2021-06-26T08:39:57Z</time>
      </trkpt>
      <trkpt lat="46.18375" lon="6.65149">
        <ele>1275.6</ele>
        <time>2021-06-26T08:39:58Z</time>
      </trkpt>
      <trkpt lat="46.18388" lon="6.65204">
        <ele>1275.4</ele>
        <time>2021-06-26T08:40:03Z</time>
      </trkpt>
      <trkpt lat="46.1839" lon="6.65215">
        <ele>1275.4</ele>
        <time>2021-06-26T08:40:04Z</time>
      </trkpt>
      <trkpt lat="46.18395" lon="6.65237">
        <ele>1275</ele>
        <time>2021-06-26T08:40:06Z</time>
      </trkpt>
      <trkpt lat="46.18399" lon="6.65259">
        <ele>1274.6</ele>
        <time>2021-06-26T08:40:08Z</time>
      </trkpt>
      <trkpt lat="46.18404" lon="6.65282">
        <ele>1274.4</ele>
        <time>2021-06-26T08:40:10Z</time>
      </trkpt>
      <trkpt lat="46.18406" lon="6.65294">
        <ele>1274.2</ele>
        <time>2021-06-26T08:40:11Z</time>
      </trkpt>
      <trkpt lat="46.18409" lon="6.65306">
        <ele>1274.2</ele>
        <time>2021-06-26T08:40:12Z</time>
      </trkpt>
      <trkpt lat="46.18413" lon="6.65332">
        <ele>1273.6</ele>
        <time>2021-06-26T08:40:14Z</time>
      </trkpt>
      <trkpt lat="46.18417" lon="6.6536">
        <ele>1272.8</ele>
        <time>2021-06-26T08:40:16Z</time>
      </trkpt>
      <trkpt lat="46.18418" lon="6.65374">
        <ele>1272.4</ele>
        <time>2021-06-26T08:40:17Z</time>
      </trkpt>
      <trkpt lat="46.18417" lon="6.65389">
        <ele>1272</ele>
        <time>2021-06-26T08:40:18Z</time>
      </trkpt>
      <trkpt lat="46.18416" lon="6.65404">
        <ele>1271.4</ele>
        <time>2021-06-26T08:40:19Z</time>
      </trkpt>
      <trkpt lat="46.18415" lon="6.6542">
        <ele>1270.8</ele>
        <time>2021-06-26T08:40:20Z</time>
      </trkpt>
      <trkpt lat="46.18414" lon="6.65436">
        <ele>1270.2</ele>
        <time>2021-06-26T08:40:21Z</time>
      </trkpt>
      <trkpt lat="46.18412" lon="6.65468">
        <ele>1268.8</ele>
        <time>2021-06-26T08:40:23Z</time>
      </trkpt>
      <trkpt lat="46.1841" lon="6.65501">
        <ele>1267.2</ele>
        <time>2021-06-26T08:40:25Z</time>
      </trkpt>
      <trkpt lat="46.18409" lon="6.65516">
        <ele>1266</ele>
        <time>2021-06-26T08:40:26Z</time>
      </trkpt>
      <trkpt lat="46.18409" lon="6.65531">
        <ele>1265</ele>
        <time>2021-06-26T08:40:27Z</time>
      </trkpt>
      <trkpt lat="46.18408" lon="6.65547">
        <ele>1264</ele>
        <time>2021-06-26T08:40:28Z</time>
      </trkpt>
      <trkpt lat="46.18409" lon="6.65577">
        <ele>1263</ele>
        <time>2021-06-26T08:40:30Z</time>
      </trkpt>
      <trkpt lat="46.18411" lon="6.65592">
        <ele>1262</ele>
        <time>2021-06-26T08:40:31Z</time>
      </trkpt>
      <trkpt lat="46.18413" lon="6.65607">
        <ele>1261</ele>
        <time>2021-06-26T08:40:32Z</time>
      </trkpt>
      <trkpt lat="46.18416" lon="6.65621">
        <ele>1260.2</ele>
        <time>2021-06-26T08:40:33Z</time>
      </trkpt>
      <trkpt lat="46.18419" lon="6.65635">
        <ele>1259.8</ele>
        <time>2021-06-26T08:40:34Z</time>
      </trkpt>
      <trkpt lat="46.18422" lon="6.65648">
        <ele>1258.8</ele>
        <time>2021-06-26T08:40:35Z</time>
      </trkpt>
      <trkpt lat="46.18424" lon="6.6566">
        <ele>1257.8</ele>
        <time>2021-06-26T08:40:36Z</time>
      </trkpt>
      <trkpt lat="46.18425" lon="6.65673">
        <ele>1257</ele>
        <time>2021-06-26T08:40:37Z</time>
      </trkpt>
      <trkpt lat="46.18426" lon="6.65688">
        <ele>1256</ele>
        <time>2021-06-26T08:40:38Z</time>
      </trkpt>
      <trkpt lat="46.18426" lon="6.65703">
        <ele>1255.2</ele>
        <time>2021-06-26T08:40:39Z</time>
      </trkpt>
      <trkpt lat="46.18427" lon="6.65719">
        <ele>1254.8</ele>
        <time>2021-06-26T08:40:40Z</time>
      </trkpt>
      <trkpt lat="46.18427" lon="6.65736">
        <ele>1254.2</ele>
        <time>2021-06-26T08:40:41Z</time>
      </trkpt>
      <trkpt lat="46.18428" lon="6.65753">
        <ele>1253.8</ele>
        <time>2021-06-26T08:40:42Z</time>
      </trkpt>
      <trkpt lat="46.18428" lon="6.65771">
        <ele>1253.2</ele>
        <time>2021-06-26T08:40:43Z</time>
      </trkpt>
      <trkpt lat="46.18428" lon="6.65788">
        <ele>1253</ele>
        <time>2021-06-26T08:40:44Z</time>
      </trkpt>
      <trkpt lat="46.18428" lon="6.65806">
        <ele>1252.6</ele>
        <time>2021-06-26T08:40:45Z</time>
      </trkpt>
      <trkpt lat="46.18428" lon="6.65824">
        <ele>1251.4</ele>
        <time>2021-06-26T08:40:46Z</time>
      </trkpt>
      <trkpt lat="46.18428" lon="6.65842">
        <ele>1249.4</ele>
        <time>2021-06-26T08:40:47Z</time>
      </trkpt>
      <trkpt lat="46.1843" lon="6.6586">
        <ele>1247.6</ele>
        <time>2021-06-26T08:40:48Z</time>
      </trkpt>
      <trkpt lat="46.18433" lon="6.65879">
        <ele>1246</ele>
        <time>2021-06-26T08:40:49Z</time>
      </trkpt>
      <trkpt lat="46.18436" lon="6.65897">
        <ele>1244.2</ele>
        <time>2021-06-26T08:40:50Z</time>
      </trkpt>
      <trkpt lat="46.18439" lon="6.65916">
        <ele>1242.8</ele>
        <time>2021-06-26T08:40:51Z</time>
      </trkpt>
      <trkpt lat="46.18442" lon="6.65934">
        <ele>1241.8</ele>
        <time>2021-06-26T08:40:52Z</time>
      </trkpt>
      <trkpt lat="46.18451" lon="6.65971">
        <ele>1240.4</ele>
        <time>2021-06-26T08:40:54Z</time>
      </trkpt>
      <trkpt lat="46.18457" lon="6.65989">
        <ele>1238.8</ele>
        <time>2021-06-26T08:40:55Z</time>
      </trkpt>
      <trkpt lat="46.18463" lon="6.66007">
        <ele>1237.4</ele>
        <time>2021-06-26T08:40:56Z</time>
      </trkpt>
      <trkpt lat="46.18469" lon="6.66024">
        <ele>1235.6</ele>
        <time>2021-06-26T08:40:57Z</time>
      </trkpt>
      <trkpt lat="46.18476" lon="6.6604">
        <ele>1234</ele>
        <time>2021-06-26T08:40:58Z</time>
      </trkpt>
      <trkpt lat="46.18482" lon="6.66056">
        <ele>1232.8</ele>
        <time>2021-06-26T08:40:59Z</time>
      </trkpt>
      <trkpt lat="46.18488" lon="6.66072">
        <ele>1231.4</ele>
        <time>2021-06-26T08:41:00Z</time>
      </trkpt>
      <trkpt lat="46.18493" lon="6.66089">
        <ele>1230.2</ele>
        <time>2021-06-26T08:41:01Z</time>
      </trkpt>
      <trkpt lat="46.18497" lon="6.66106">
        <ele>1228.8</ele>
        <time>2021-06-26T08:41:02Z</time>
      </trkpt>
      <trkpt lat="46.185" lon="6.66123">
        <ele>1227.2</ele>
        <time>2021-06-26T08:41:03Z</time>
      </trkpt>
      <trkpt lat="46.18503" lon="6.6614">
        <ele>1225.8</ele>
        <time>2021-06-26T08:41:04Z</time>
      </trkpt>
      <trkpt lat="46.18507" lon="6.66176">
        <ele>1223.4</ele>
        <time>2021-06-26T08:41:06Z</time>
      </trkpt>
      <trkpt lat="46.18509" lon="6.66195">
        <ele>1222.6</ele>
        <time>2021-06-26T08:41:07Z</time>
      </trkpt>
      <trkpt lat="46.1851" lon="6.66214">
        <ele>1221.4</ele>
        <time>2021-06-26T08:41:08Z</time>
      </trkpt>
      <trkpt lat="46.18512" lon="6.66234">
        <ele>1220.4</ele>
        <time>2021-06-26T08:41:09Z</time>
      </trkpt>
      <trkpt lat="46.18513" lon="6.66253">
        <ele>1219.2</ele>
        <time>2021-06-26T08:41:10Z</time>
      </trkpt>
      <trkpt lat="46.18515" lon="6.66271">
        <ele>1217.4</ele>
        <time>2021-06-26T08:41:11Z</time>
      </trkpt>
      <trkpt lat="46.18518" lon="6.66288">
        <ele>1215.8</ele>
        <time>2021-06-26T08:41:12Z</time>
      </trkpt>
      <trkpt lat="46.18523" lon="6.66305">
        <ele>1214</ele>
        <time>2021-06-26T08:41:13Z</time>
      </trkpt>
      <trkpt lat="46.18529" lon="6.6632">
        <ele>1212.8</ele>
        <time>2021-06-26T08:41:14Z</time>
      </trkpt>
      <trkpt lat="46.18536" lon="6.66335">
        <ele>1211.6</ele>
        <time>2021-06-26T08:41:15Z</time>
      </trkpt>
      <trkpt lat="46.18552" lon="6.66363">
        <ele>1210.6</ele>
        <time>2021-06-26T08:41:17Z</time>
      </trkpt>
      <trkpt lat="46.18561" lon="6.66377">
        <ele>1209.2</ele>
        <time>2021-06-26T08:41:18Z</time>
      </trkpt>
      <trkpt lat="46.18578" lon="6.66406">
        <ele>1207.2</ele>
        <time>2021-06-26T08:41:20Z</time>
      </trkpt>
      <trkpt lat="46.18587" lon="6.66421">
        <ele>1206</ele>
        <time>2021-06-26T08:41:21Z</time>
      </trkpt>
      <trkpt lat="46.18596" lon="6.66435">
        <ele>1204.8</ele>
        <time>2021-06-26T08:41:22Z</time>
      </trkpt>
      <trkpt lat="46.18605" lon="6.66449">
        <ele>1203.8</ele>
        <time>2021-06-26T08:41:23Z</time>
      </trkpt>
      <trkpt lat="46.18613" lon="6.66463">
        <ele>1202.2</ele>
        <time>2021-06-26T08:41:24Z</time>
      </trkpt>
      <trkpt lat="46.18621" lon="6.66477">
        <ele>1200.6</ele>
        <time>2021-06-26T08:41:25Z</time>
      </trkpt>
      <trkpt lat="46.18629" lon="6.66491">
        <ele>1199.2</ele>
        <time>2021-06-26T08:41:26Z</time>
      </trkpt>
      <trkpt lat="46.18636" lon="6.66505">
        <ele>1197.6</ele>
        <time>2021-06-26T08:41:27Z</time>
      </trkpt>
      <trkpt lat="46.18643" lon="6.66518">
        <ele>1196.4</ele>
        <time>2021-06-26T08:41:28Z</time>
      </trkpt>
      <trkpt lat="46.18649" lon="6.6653">
        <ele>1195.2</ele>
        <time>2021-06-26T08:41:29Z</time>
      </trkpt>
      <trkpt lat="46.18656" lon="6.66542">
        <ele>1193.8</ele>
        <time>2021-06-26T08:41:30Z</time>
      </trkpt>
      <trkpt lat="46.18662" lon="6.66553">
        <ele>1192.4</ele>
        <time>2021-06-26T08:41:31Z</time>
      </trkpt>
      <trkpt lat="46.18668" lon="6.66565">
        <ele>1191.2</ele>
        <time>2021-06-26T08:41:32Z</time>
      </trkpt>
      <trkpt lat="46.18674" lon="6.66577">
        <ele>1190</ele>
        <time>2021-06-26T08:41:33Z</time>
      </trkpt>
      <trkpt lat="46.1868" lon="6.66591">
        <ele>1188.6</ele>
        <time>2021-06-26T08:41:34Z</time>
      </trkpt>
      <trkpt lat="46.18686" lon="6.66604">
        <ele>1187.4</ele>
        <time>2021-06-26T08:41:35Z</time>
      </trkpt>
      <trkpt lat="46.18691" lon="6.66618">
        <ele>1186.4</ele>
        <time>2021-06-26T08:41:36Z</time>
      </trkpt>
      <trkpt lat="46.18697" lon="6.66632">
        <ele>1185.4</ele>
        <time>2021-06-26T08:41:37Z</time>
      </trkpt>
      <trkpt lat="46.18702" lon="6.66645">
        <ele>1185</ele>
        <time>2021-06-26T08:41:38Z</time>
      </trkpt>
      <trkpt lat="46.18708" lon="6.66658">
        <ele>1185</ele>
        <time>2021-06-26T08:41:39Z</time>
      </trkpt>
      <trkpt lat="46.18714" lon="6.6667">
        <ele>1184</ele>
        <time>2021-06-26T08:41:40Z</time>
      </trkpt>
      <trkpt lat="46.1872" lon="6.66681">
        <ele>1182.8</ele>
        <time>2021-06-26T08:41:41Z</time>
      </trkpt>
      <trkpt lat="46.18727" lon="6.66692">
        <ele>1181.6</ele>
        <time>2021-06-26T08:41:42Z</time>
      </trkpt>
      <trkpt lat="46.18734" lon="6.66702">
        <ele>1180.2</ele>
        <time>2021-06-26T08:41:43Z</time>
      </trkpt>
      <trkpt lat="46.18741" lon="6.6671">
        <ele>1179</ele>
        <time>2021-06-26T08:41:44Z</time>
      </trkpt>
      <trkpt lat="46.18747" lon="6.66719">
        <ele>1177.6</ele>
        <time>2021-06-26T08:41:45Z</time>
      </trkpt>
      <trkpt lat="46.18753" lon="6.66729">
        <ele>1176.6</ele>
        <time>2021-06-26T08:41:46Z</time>
      </trkpt>
      <trkpt lat="46.18756" lon="6.6674">
        <ele>1175.2</ele>
        <time>2021-06-26T08:41:47Z</time>
      </trkpt>
      <trkpt lat="46.18758" lon="6.66753">
        <ele>1174.2</ele>
        <time>2021-06-26T08:41:48Z</time>
      </trkpt>
      <trkpt lat="46.18759" lon="6.66766">
        <ele>1173.4</ele>
        <time>2021-06-26T08:41:49Z</time>
      </trkpt>
      <trkpt lat="46.1876" lon="6.66779">
        <ele>1172.4</ele>
        <time>2021-06-26T08:41:50Z</time>
      </trkpt>
      <trkpt lat="46.18761" lon="6.66792">
        <ele>1171.8</ele>
        <time>2021-06-26T08:41:51Z</time>
      </trkpt>
      <trkpt lat="46.18763" lon="6.66804">
        <ele>1170.8</ele>
        <time>2021-06-26T08:41:52Z</time>
      </trkpt>
      <trkpt lat="46.18766" lon="6.66817">
        <ele>1170</ele>
        <time>2021-06-26T08:41:53Z</time>
      </trkpt>
      <trkpt lat="46.18769" lon="6.66828">
        <ele>1168.8</ele>
        <time>2021-06-26T08:41:54Z</time>
      </trkpt>
      <trkpt lat="46.18774" lon="6.66838">
        <ele>1167.8</ele>
        <time>2021-06-26T08:41:55Z</time>
      </trkpt>
      <trkpt lat="46.1878" lon="6.66846">
        <ele>1167.4</ele>
        <time>2021-06-26T08:41:56Z</time>
      </trkpt>
      <trkpt lat="46.18787" lon="6.66853">
        <ele>1166.8</ele>
        <time>2021-06-26T08:41:57Z</time>
      </trkpt>
      <trkpt lat="46.18794" lon="6.66859">
        <ele>1166</ele>
        <time>2021-06-26T08:41:58Z</time>
      </trkpt>
      <trkpt lat="46.18801" lon="6.66865">
        <ele>1165.8</ele>
        <time>2021-06-26T08:41:59Z</time>
      </trkpt>
      <trkpt lat="46.18809" lon="6.66871">
        <ele>1165.4</ele>
        <time>2021-06-26T08:42:00Z</time>
      </trkpt>
      <trkpt lat="46.18824" lon="6.66886">
        <ele>1165.2</ele>
        <time>2021-06-26T08:42:02Z</time>
      </trkpt>
      <trkpt lat="46.18831" lon="6.66893">
        <ele>1164.8</ele>
        <time>2021-06-26T08:42:03Z</time>
      </trkpt>
      <trkpt lat="46.18837" lon="6.66902">
        <ele>1165</ele>
        <time>2021-06-26T08:42:04Z</time>
      </trkpt>
      <trkpt lat="46.18843" lon="6.66913">
        <ele>1164.8</ele>
        <time>2021-06-26T08:42:05Z</time>
      </trkpt>
      <trkpt lat="46.18849" lon="6.66925">
        <ele>1164</ele>
        <time>2021-06-26T08:42:06Z</time>
      </trkpt>
      <trkpt lat="46.18859" lon="6.66952">
        <ele>1163</ele>
        <time>2021-06-26T08:42:08Z</time>
      </trkpt>
      <trkpt lat="46.18864" lon="6.66966">
        <ele>1161.8</ele>
        <time>2021-06-26T08:42:09Z</time>
      </trkpt>
      <trkpt lat="46.1887" lon="6.66978">
        <ele>1161</ele>
        <time>2021-06-26T08:42:10Z</time>
      </trkpt>
      <trkpt lat="46.18888" lon="6.66999">
        <ele>1160</ele>
        <time>2021-06-26T08:42:12Z</time>
      </trkpt>
      <trkpt lat="46.18898" lon="6.67005">
        <ele>1159.2</ele>
        <time>2021-06-26T08:42:13Z</time>
      </trkpt>
      <trkpt lat="46.18909" lon="6.6701">
        <ele>1158</ele>
        <time>2021-06-26T08:42:14Z</time>
      </trkpt>
      <trkpt lat="46.18921" lon="6.67016">
        <ele>1156.4</ele>
        <time>2021-06-26T08:42:15Z</time>
      </trkpt>
      <trkpt lat="46.18933" lon="6.67021">
        <ele>1155.2</ele>
        <time>2021-06-26T08:42:16Z</time>
      </trkpt>
      <trkpt lat="46.18944" lon="6.67027">
        <ele>1154.2</ele>
        <time>2021-06-26T08:42:17Z</time>
      </trkpt>
      <trkpt lat="46.18954" lon="6.67033">
        <ele>1152.6</ele>
        <time>2021-06-26T08:42:18Z</time>
      </trkpt>
      <trkpt lat="46.18964" lon="6.67038">
        <ele>1151.2</ele>
        <time>2021-06-26T08:42:19Z</time>
      </trkpt>
      <trkpt lat="46.18971" lon="6.67044">
        <ele>1150.2</ele>
        <time>2021-06-26T08:42:20Z</time>
      </trkpt>
      <trkpt lat="46.18978" lon="6.67048">
        <ele>1149</ele>
        <time>2021-06-26T08:42:21Z</time>
      </trkpt>
      <trkpt lat="46.18983" lon="6.67052">
        <ele>1147.8</ele>
        <time>2021-06-26T08:42:22Z</time>
      </trkpt>
      <trkpt lat="46.18987" lon="6.67055">
        <ele>1146.6</ele>
        <time>2021-06-26T08:42:23Z</time>
      </trkpt>
      <trkpt lat="46.1899" lon="6.6706">
        <ele>1146.6</ele>
        <time>2021-06-26T08:42:24Z</time>
      </trkpt>
      <trkpt lat="46.18992" lon="6.67065">
        <ele>1145.2</ele>
        <time>2021-06-26T08:42:25Z</time>
      </trkpt>
      <trkpt lat="46.18992" lon="6.67069">
        <ele>1144.2</ele>
        <time>2021-06-26T08:42:26Z</time>
      </trkpt>
      <trkpt lat="46.18991" lon="6.67072">
        <ele>1143.2</ele>
        <time>2021-06-26T08:42:27Z</time>
      </trkpt>
      <trkpt lat="46.1899" lon="6.67073">
        <ele>1142.4</ele>
        <time>2021-06-26T08:42:28Z</time>
      </trkpt>
      <trkpt lat="46.18989" lon="6.67074">
        <ele>1142</ele>
        <time>2021-06-26T08:42:30Z</time>
      </trkpt>
      <trkpt lat="46.18986" lon="6.67073">
        <ele>1141.8</ele>
        <time>2021-06-26T08:42:32Z</time>
      </trkpt>
      <trkpt lat="46.18983" lon="6.67073">
        <ele>1141.4</ele>
        <time>2021-06-26T08:42:33Z</time>
      </trkpt>
      <trkpt lat="46.18979" lon="6.67072">
        <ele>1141.4</ele>
        <time>2021-06-26T08:42:34Z</time>
      </trkpt>
      <trkpt lat="46.18975" lon="6.67069">
        <ele>1141.2</ele>
        <time>2021-06-26T08:42:35Z</time>
      </trkpt>
      <trkpt lat="46.1897" lon="6.67064">
        <ele>1141.2</ele>
        <time>2021-06-26T08:42:36Z</time>
      </trkpt>
      <trkpt lat="46.18965" lon="6.67059">
        <ele>1141.2</ele>
        <time>2021-06-26T08:42:37Z</time>
      </trkpt>
      <trkpt lat="46.18958" lon="6.67055">
        <ele>1141.2</ele>
        <time>2021-06-26T08:42:38Z</time>
      </trkpt>
      <trkpt lat="46.18946" lon="6.67051">
        <ele>1141</ele>
        <time>2021-06-26T08:42:40Z</time>
      </trkpt>
      <trkpt lat="46.18941" lon="6.6705">
        <ele>1140.8</ele>
        <time>2021-06-26T08:42:41Z</time>
      </trkpt>
      <trkpt lat="46.18936" lon="6.6705">
        <ele>1140.6</ele>
        <time>2021-06-26T08:42:42Z</time>
      </trkpt>
      <trkpt lat="46.18931" lon="6.6705">
        <ele>1140</ele>
        <time>2021-06-26T08:42:43Z</time>
      </trkpt>
      <trkpt lat="46.18927" lon="6.6705">
        <ele>1139.4</ele>
        <time>2021-06-26T08:42:44Z</time>
      </trkpt>
      <trkpt lat="46.18924" lon="6.67051">
        <ele>1139</ele>
        <time>2021-06-26T08:42:45Z</time>
      </trkpt>
      <trkpt lat="46.18907" lon="6.67056">
        <ele>1137.4</ele>
        <time>2021-06-26T08:42:49Z</time>
      </trkpt>
      <trkpt lat="46.18901" lon="6.67058">
        <ele>1136.6</ele>
        <time>2021-06-26T08:42:50Z</time>
      </trkpt>
      <trkpt lat="46.18896" lon="6.67061">
        <ele>1136.2</ele>
        <time>2021-06-26T08:42:51Z</time>
      </trkpt>
      <trkpt lat="46.18883" lon="6.67067">
        <ele>1135.8</ele>
        <time>2021-06-26T08:42:53Z</time>
      </trkpt>
      <trkpt lat="46.18878" lon="6.6707">
        <ele>1135.4</ele>
        <time>2021-06-26T08:42:54Z</time>
      </trkpt>
      <trkpt lat="46.18873" lon="6.67072">
        <ele>1135.2</ele>
        <time>2021-06-26T08:42:55Z</time>
      </trkpt>
      <trkpt lat="46.18869" lon="6.67074">
        <ele>1135</ele>
        <time>2021-06-26T08:42:56Z</time>
      </trkpt>
      <trkpt lat="46.18865" lon="6.67076">
        <ele>1134.6</ele>
        <time>2021-06-26T08:42:57Z</time>
      </trkpt>
      <trkpt lat="46.18854" lon="6.67077">
        <ele>1133.6</ele>
        <time>2021-06-26T08:42:59Z</time>
      </trkpt>
      <trkpt lat="46.18848" lon="6.67077">
        <ele>1133.2</ele>
        <time>2021-06-26T08:43:00Z</time>
      </trkpt>
      <trkpt lat="46.18842" lon="6.67076">
        <ele>1132.8</ele>
        <time>2021-06-26T08:43:01Z</time>
      </trkpt>
      <trkpt lat="46.18827" lon="6.67076">
        <ele>1131.8</ele>
        <time>2021-06-26T08:43:03Z</time>
      </trkpt>
      <trkpt lat="46.1881" lon="6.67076">
        <ele>1131.2</ele>
        <time>2021-06-26T08:43:05Z</time>
      </trkpt>
      <trkpt lat="46.18793" lon="6.67076">
        <ele>1130.6</ele>
        <time>2021-06-26T08:43:07Z</time>
      </trkpt>
      <trkpt lat="46.18784" lon="6.67076">
        <ele>1130</ele>
        <time>2021-06-26T08:43:08Z</time>
      </trkpt>
      <trkpt lat="46.18767" lon="6.67074">
        <ele>1129.4</ele>
        <time>2021-06-26T08:43:10Z</time>
      </trkpt>
      <trkpt lat="46.18759" lon="6.67073">
        <ele>1128.6</ele>
        <time>2021-06-26T08:43:11Z</time>
      </trkpt>
      <trkpt lat="46.18753" lon="6.67073">
        <ele>1127.8</ele>
        <time>2021-06-26T08:43:12Z</time>
      </trkpt>
      <trkpt lat="46.18747" lon="6.67075">
        <ele>1127.2</ele>
        <time>2021-06-26T08:43:13Z</time>
      </trkpt>
      <trkpt lat="46.18742" lon="6.67081">
        <ele>1126.4</ele>
        <time>2021-06-26T08:43:14Z</time>
      </trkpt>
      <trkpt lat="46.18739" lon="6.67088">
        <ele>1125.4</ele>
        <time>2021-06-26T08:43:15Z</time>
      </trkpt>
      <trkpt lat="46.18739" lon="6.67097">
        <ele>1124.6</ele>
        <time>2021-06-26T08:43:16Z</time>
      </trkpt>
      <trkpt lat="46.18746" lon="6.67114">
        <ele>1122.8</ele>
        <time>2021-06-26T08:43:18Z</time>
      </trkpt>
      <trkpt lat="46.18752" lon="6.67121">
        <ele>1122.4</ele>
        <time>2021-06-26T08:43:19Z</time>
      </trkpt>
      <trkpt lat="46.18759" lon="6.67127">
        <ele>1122.2</ele>
        <time>2021-06-26T08:43:20Z</time>
      </trkpt>
      <trkpt lat="46.18766" lon="6.67133">
        <ele>1121.8</ele>
        <time>2021-06-26T08:43:21Z</time>
      </trkpt>
      <trkpt lat="46.18774" lon="6.67139">
        <ele>1121.6</ele>
        <time>2021-06-26T08:43:22Z</time>
      </trkpt>
      <trkpt lat="46.18789" lon="6.67151">
        <ele>1120.4</ele>
        <time>2021-06-26T08:43:24Z</time>
      </trkpt>
      <trkpt lat="46.18806" lon="6.6716">
        <ele>1119</ele>
        <time>2021-06-26T08:43:26Z</time>
      </trkpt>
      <trkpt lat="46.18814" lon="6.67164">
        <ele>1118</ele>
        <time>2021-06-26T08:43:27Z</time>
      </trkpt>
      <trkpt lat="46.18823" lon="6.67168">
        <ele>1117.2</ele>
        <time>2021-06-26T08:43:28Z</time>
      </trkpt>
      <trkpt lat="46.18832" lon="6.67173">
        <ele>1116.2</ele>
        <time>2021-06-26T08:43:29Z</time>
      </trkpt>
      <trkpt lat="46.18849" lon="6.67189">
        <ele>1115.2</ele>
        <time>2021-06-26T08:43:31Z</time>
      </trkpt>
      <trkpt lat="46.18858" lon="6.67199">
        <ele>1114</ele>
        <time>2021-06-26T08:43:32Z</time>
      </trkpt>
      <trkpt lat="46.18866" lon="6.6721">
        <ele>1113</ele>
        <time>2021-06-26T08:43:33Z</time>
      </trkpt>
      <trkpt lat="46.18874" lon="6.6722">
        <ele>1112.2</ele>
        <time>2021-06-26T08:43:34Z</time>
      </trkpt>
      <trkpt lat="46.18892" lon="6.67241">
        <ele>1110</ele>
        <time>2021-06-26T08:43:36Z</time>
      </trkpt>
      <trkpt lat="46.18902" lon="6.6725">
        <ele>1108.8</ele>
        <time>2021-06-26T08:43:37Z</time>
      </trkpt>
      <trkpt lat="46.18913" lon="6.67258">
        <ele>1107.6</ele>
        <time>2021-06-26T08:43:38Z</time>
      </trkpt>
      <trkpt lat="46.18924" lon="6.67264">
        <ele>1106.6</ele>
        <time>2021-06-26T08:43:39Z</time>
      </trkpt>
      <trkpt lat="46.18936" lon="6.67269">
        <ele>1105.4</ele>
        <time>2021-06-26T08:43:40Z</time>
      </trkpt>
      <trkpt lat="46.18948" lon="6.67274">
        <ele>1104</ele>
        <time>2021-06-26T08:43:41Z</time>
      </trkpt>
      <trkpt lat="46.1896" lon="6.67278">
        <ele>1102.6</ele>
        <time>2021-06-26T08:43:42Z</time>
      </trkpt>
      <trkpt lat="46.18973" lon="6.67283">
        <ele>1101.2</ele>
        <time>2021-06-26T08:43:43Z</time>
      </trkpt>
      <trkpt lat="46.18985" lon="6.67289">
        <ele>1100</ele>
        <time>2021-06-26T08:43:44Z</time>
      </trkpt>
      <trkpt lat="46.18997" lon="6.67296">
        <ele>1098.8</ele>
        <time>2021-06-26T08:43:45Z</time>
      </trkpt>
      <trkpt lat="46.19009" lon="6.67304">
        <ele>1097.2</ele>
        <time>2021-06-26T08:43:46Z</time>
      </trkpt>
      <trkpt lat="46.19019" lon="6.67312">
        <ele>1095.6</ele>
        <time>2021-06-26T08:43:47Z</time>
      </trkpt>
      <trkpt lat="46.19029" lon="6.6732">
        <ele>1094.2</ele>
        <time>2021-06-26T08:43:48Z</time>
      </trkpt>
      <trkpt lat="46.19038" lon="6.67327">
        <ele>1092.6</ele>
        <time>2021-06-26T08:43:49Z</time>
      </trkpt>
      <trkpt lat="46.19046" lon="6.67334">
        <ele>1091</ele>
        <time>2021-06-26T08:43:50Z</time>
      </trkpt>
      <trkpt lat="46.19055" lon="6.6734">
        <ele>1089.4</ele>
        <time>2021-06-26T08:43:51Z</time>
      </trkpt>
      <trkpt lat="46.19063" lon="6.67345">
        <ele>1087.6</ele>
        <time>2021-06-26T08:43:52Z</time>
      </trkpt>
      <trkpt lat="46.1907" lon="6.67348">
        <ele>1085.8</ele>
        <time>2021-06-26T08:43:53Z</time>
      </trkpt>
      <trkpt lat="46.19075" lon="6.67351">
        <ele>1085.8</ele>
        <time>2021-06-26T08:43:54Z</time>
      </trkpt>
      <trkpt lat="46.19079" lon="6.67353">
        <ele>1085</ele>
        <time>2021-06-26T08:43:55Z</time>
      </trkpt>
      <trkpt lat="46.19081" lon="6.67354">
        <ele>1083.8</ele>
        <time>2021-06-26T08:43:56Z</time>
      </trkpt>
      <trkpt lat="46.19082" lon="6.67354">
        <ele>1083.4</ele>
        <time>2021-06-26T08:43:57Z</time>
      </trkpt>
      <trkpt lat="46.19082" lon="6.67354">
        <ele>1082.8</ele>
        <time>2021-06-26T08:43:58Z</time>
      </trkpt>
      <trkpt lat="46.19082" lon="6.67353">
        <ele>1081.4</ele>
        <time>2021-06-26T08:44:12Z</time>
      </trkpt>
      <trkpt lat="46.19085" lon="6.67351">
        <ele>1081.6</ele>
        <time>2021-06-26T08:44:25Z</time>
      </trkpt>
      <trkpt lat="46.19088" lon="6.67351">
        <ele>1081.4</ele>
        <time>2021-06-26T08:44:26Z</time>
      </trkpt>
      <trkpt lat="46.19099" lon="6.67355">
        <ele>1081.4</ele>
        <time>2021-06-26T08:44:29Z</time>
      </trkpt>
      <trkpt lat="46.19101" lon="6.67359">
        <ele>1081.4</ele>
        <time>2021-06-26T08:44:30Z</time>
      </trkpt>
      <trkpt lat="46.19101" lon="6.67363">
        <ele>1081.4</ele>
        <time>2021-06-26T08:44:31Z</time>
      </trkpt>
      <trkpt lat="46.19097" lon="6.67368">
        <ele>1081.4</ele>
        <time>2021-06-26T08:44:32Z</time>
      </trkpt>
      <trkpt lat="46.19092" lon="6.67371">
        <ele>1081.2</ele>
        <time>2021-06-26T08:44:33Z</time>
      </trkpt>
      <trkpt lat="46.19086" lon="6.67373">
        <ele>1080.6</ele>
        <time>2021-06-26T08:44:34Z</time>
      </trkpt>
      <trkpt lat="46.19079" lon="6.67375">
        <ele>1080.2</ele>
        <time>2021-06-26T08:44:35Z</time>
      </trkpt>
      <trkpt lat="46.19064" lon="6.67379">
        <ele>1079.6</ele>
        <time>2021-06-26T08:44:37Z</time>
      </trkpt>
      <trkpt lat="46.19056" lon="6.67383">
        <ele>1079</ele>
        <time>2021-06-26T08:44:38Z</time>
      </trkpt>
      <trkpt lat="46.19048" lon="6.67386">
        <ele>1078.6</ele>
        <time>2021-06-26T08:44:39Z</time>
      </trkpt>
      <trkpt lat="46.19022" lon="6.67397">
        <ele>1077</ele>
        <time>2021-06-26T08:44:42Z</time>
      </trkpt>
      <trkpt lat="46.19004" lon="6.67404">
        <ele>1075</ele>
        <time>2021-06-26T08:44:44Z</time>
      </trkpt>
      <trkpt lat="46.18985" lon="6.67412">
        <ele>1073.4</ele>
        <time>2021-06-26T08:44:46Z</time>
      </trkpt>
      <trkpt lat="46.18975" lon="6.67416">
        <ele>1073</ele>
        <time>2021-06-26T08:44:47Z</time>
      </trkpt>
      <trkpt lat="46.18964" lon="6.67419">
        <ele>1071.8</ele>
        <time>2021-06-26T08:44:48Z</time>
      </trkpt>
      <trkpt lat="46.18942" lon="6.67425">
        <ele>1069.8</ele>
        <time>2021-06-26T08:44:50Z</time>
      </trkpt>
      <trkpt lat="46.18919" lon="6.67427">
        <ele>1068.4</ele>
        <time>2021-06-26T08:44:52Z</time>
      </trkpt>
      <trkpt lat="46.18908" lon="6.67427">
        <ele>1067.6</ele>
        <time>2021-06-26T08:44:53Z</time>
      </trkpt>
      <trkpt lat="46.18898" lon="6.67428">
        <ele>1066.8</ele>
        <time>2021-06-26T08:44:54Z</time>
      </trkpt>
      <trkpt lat="46.18889" lon="6.67429">
        <ele>1065.8</ele>
        <time>2021-06-26T08:44:55Z</time>
      </trkpt>
      <trkpt lat="46.18882" lon="6.67432">
        <ele>1065</ele>
        <time>2021-06-26T08:44:56Z</time>
      </trkpt>
      <trkpt lat="46.18876" lon="6.67437">
        <ele>1064.2</ele>
        <time>2021-06-26T08:44:57Z</time>
      </trkpt>
      <trkpt lat="46.18871" lon="6.67444">
        <ele>1063.4</ele>
        <time>2021-06-26T08:44:58Z</time>
      </trkpt>
      <trkpt lat="46.18869" lon="6.67454">
        <ele>1062.2</ele>
        <time>2021-06-26T08:44:59Z</time>
      </trkpt>
      <trkpt lat="46.18869" lon="6.67465">
        <ele>1061.2</ele>
        <time>2021-06-26T08:45:00Z</time>
      </trkpt>
      <trkpt lat="46.18872" lon="6.67475">
        <ele>1060.8</ele>
        <time>2021-06-26T08:45:01Z</time>
      </trkpt>
      <trkpt lat="46.18877" lon="6.67483">
        <ele>1060.8</ele>
        <time>2021-06-26T08:45:02Z</time>
      </trkpt>
      <trkpt lat="46.18885" lon="6.67488">
        <ele>1060</ele>
        <time>2021-06-26T08:45:03Z</time>
      </trkpt>
      <trkpt lat="46.18894" lon="6.6749">
        <ele>1059.4</ele>
        <time>2021-06-26T08:45:04Z</time>
      </trkpt>
      <trkpt lat="46.18903" lon="6.67491">
        <ele>1059</ele>
        <time>2021-06-26T08:45:05Z</time>
      </trkpt>
      <trkpt lat="46.18913" lon="6.67493">
        <ele>1058.8</ele>
        <time>2021-06-26T08:45:06Z</time>
      </trkpt>
      <trkpt lat="46.18923" lon="6.67494">
        <ele>1058.2</ele>
        <time>2021-06-26T08:45:07Z</time>
      </trkpt>
      <trkpt lat="46.18944" lon="6.67496">
        <ele>1056.8</ele>
        <time>2021-06-26T08:45:09Z</time>
      </trkpt>
      <trkpt lat="46.18955" lon="6.67498">
        <ele>1055.6</ele>
        <time>2021-06-26T08:45:10Z</time>
      </trkpt>
      <trkpt lat="46.18966" lon="6.675">
        <ele>1054.4</ele>
        <time>2021-06-26T08:45:11Z</time>
      </trkpt>
      <trkpt lat="46.18977" lon="6.67503">
        <ele>1053.4</ele>
        <time>2021-06-26T08:45:12Z</time>
      </trkpt>
      <trkpt lat="46.18988" lon="6.67507">
        <ele>1052</ele>
        <time>2021-06-26T08:45:13Z</time>
      </trkpt>
      <trkpt lat="46.19" lon="6.67512">
        <ele>1050.6</ele>
        <time>2021-06-26T08:45:14Z</time>
      </trkpt>
      <trkpt lat="46.19012" lon="6.67518">
        <ele>1049.6</ele>
        <time>2021-06-26T08:45:15Z</time>
      </trkpt>
      <trkpt lat="46.19037" lon="6.67531">
        <ele>1048.2</ele>
        <time>2021-06-26T08:45:17Z</time>
      </trkpt>
      <trkpt lat="46.19049" lon="6.67536">
        <ele>1046.6</ele>
        <time>2021-06-26T08:45:18Z</time>
      </trkpt>
      <trkpt lat="46.19062" lon="6.67538">
        <ele>1045.2</ele>
        <time>2021-06-26T08:45:19Z</time>
      </trkpt>
      <trkpt lat="46.19076" lon="6.67539">
        <ele>1043.6</ele>
        <time>2021-06-26T08:45:20Z</time>
      </trkpt>
      <trkpt lat="46.1909" lon="6.67539">
        <ele>1042</ele>
        <time>2021-06-26T08:45:21Z</time>
      </trkpt>
      <trkpt lat="46.19103" lon="6.67541">
        <ele>1040.6</ele>
        <time>2021-06-26T08:45:22Z</time>
      </trkpt>
      <trkpt lat="46.19117" lon="6.67542">
        <ele>1039.2</ele>
        <time>2021-06-26T08:45:23Z</time>
      </trkpt>
      <trkpt lat="46.19131" lon="6.67542">
        <ele>1039.2</ele>
        <time>2021-06-26T08:45:24Z</time>
      </trkpt>
      <trkpt lat="46.19144" lon="6.6754">
        <ele>1037.8</ele>
        <time>2021-06-26T08:45:25Z</time>
      </trkpt>
      <trkpt lat="46.19157" lon="6.67538">
        <ele>1036.6</ele>
        <time>2021-06-26T08:45:26Z</time>
      </trkpt>
      <trkpt lat="46.1917" lon="6.67537">
        <ele>1035.8</ele>
        <time>2021-06-26T08:45:27Z</time>
      </trkpt>
      <trkpt lat="46.19182" lon="6.67536">
        <ele>1034</ele>
        <time>2021-06-26T08:45:28Z</time>
      </trkpt>
      <trkpt lat="46.19192" lon="6.67535">
        <ele>1032.4</ele>
        <time>2021-06-26T08:45:29Z</time>
      </trkpt>
      <trkpt lat="46.19201" lon="6.67535">
        <ele>1030.6</ele>
        <time>2021-06-26T08:45:30Z</time>
      </trkpt>
      <trkpt lat="46.19208" lon="6.67536">
        <ele>1028.8</ele>
        <time>2021-06-26T08:45:31Z</time>
      </trkpt>
      <trkpt lat="46.19213" lon="6.67539">
        <ele>1026.6</ele>
        <time>2021-06-26T08:45:32Z</time>
      </trkpt>
      <trkpt lat="46.19216" lon="6.67544">
        <ele>1024.8</ele>
        <time>2021-06-26T08:45:33Z</time>
      </trkpt>
      <trkpt lat="46.19217" lon="6.6755">
        <ele>1023</ele>
        <time>2021-06-26T08:45:34Z</time>
      </trkpt>
      <trkpt lat="46.19214" lon="6.67556">
        <ele>1022.2</ele>
        <time>2021-06-26T08:45:35Z</time>
      </trkpt>
      <trkpt lat="46.19208" lon="6.6756">
        <ele>1021.6</ele>
        <time>2021-06-26T08:45:36Z</time>
      </trkpt>
      <trkpt lat="46.192" lon="6.67563">
        <ele>1021.4</ele>
        <time>2021-06-26T08:45:37Z</time>
      </trkpt>
      <trkpt lat="46.19183" lon="6.67567">
        <ele>1020.8</ele>
        <time>2021-06-26T08:45:39Z</time>
      </trkpt>
      <trkpt lat="46.19173" lon="6.6757">
        <ele>1020.6</ele>
        <time>2021-06-26T08:45:40Z</time>
      </trkpt>
      <trkpt lat="46.19163" lon="6.67574">
        <ele>1020.2</ele>
        <time>2021-06-26T08:45:41Z</time>
      </trkpt>
      <trkpt lat="46.19153" lon="6.67578">
        <ele>1019.8</ele>
        <time>2021-06-26T08:45:42Z</time>
      </trkpt>
      <trkpt lat="46.19142" lon="6.67582">
        <ele>1018.8</ele>
        <time>2021-06-26T08:45:43Z</time>
      </trkpt>
      <trkpt lat="46.19121" lon="6.67595">
        <ele>1016.4</ele>
        <time>2021-06-26T08:45:45Z</time>
      </trkpt>
      <trkpt lat="46.19111" lon="6.67603">
        <ele>1015.4</ele>
        <time>2021-06-26T08:45:46Z</time>
      </trkpt>
      <trkpt lat="46.19102" lon="6.67613">
        <ele>1015.4</ele>
        <time>2021-06-26T08:45:47Z</time>
      </trkpt>
      <trkpt lat="46.19094" lon="6.67623">
        <ele>1014.6</ele>
        <time>2021-06-26T08:45:48Z</time>
      </trkpt>
      <trkpt lat="46.19087" lon="6.67632">
        <ele>1013.6</ele>
        <time>2021-06-26T08:45:49Z</time>
      </trkpt>
      <trkpt lat="46.19081" lon="6.67642">
        <ele>1012.4</ele>
        <time>2021-06-26T08:45:50Z</time>
      </trkpt>
      <trkpt lat="46.19078" lon="6.67653">
        <ele>1011.2</ele>
        <time>2021-06-26T08:45:51Z</time>
      </trkpt>
      <trkpt lat="46.19079" lon="6.67663">
        <ele>1010</ele>
        <time>2021-06-26T08:45:52Z</time>
      </trkpt>
      <trkpt lat="46.19082" lon="6.67672">
        <ele>1009</ele>
        <time>2021-06-26T08:45:53Z</time>
      </trkpt>
      <trkpt lat="46.19087" lon="6.67679">
        <ele>1008</ele>
        <time>2021-06-26T08:45:54Z</time>
      </trkpt>
      <trkpt lat="46.19094" lon="6.67682">
        <ele>1006.4</ele>
        <time>2021-06-26T08:45:55Z</time>
      </trkpt>
      <trkpt lat="46.19102" lon="6.6768">
        <ele>1005</ele>
        <time>2021-06-26T08:45:56Z</time>
      </trkpt>
      <trkpt lat="46.19111" lon="6.67674">
        <ele>1004</ele>
        <time>2021-06-26T08:45:57Z</time>
      </trkpt>
      <trkpt lat="46.19119" lon="6.67667">
        <ele>1003</ele>
        <time>2021-06-26T08:45:58Z</time>
      </trkpt>
      <trkpt lat="46.19129" lon="6.67661">
        <ele>1002.6</ele>
        <time>2021-06-26T08:45:59Z</time>
      </trkpt>
      <trkpt lat="46.19139" lon="6.67657">
        <ele>1002.2</ele>
        <time>2021-06-26T08:46:00Z</time>
      </trkpt>
      <trkpt lat="46.19149" lon="6.67655">
        <ele>1001.4</ele>
        <time>2021-06-26T08:46:01Z</time>
      </trkpt>
      <trkpt lat="46.19161" lon="6.67655">
        <ele>1000.4</ele>
        <time>2021-06-26T08:46:02Z</time>
      </trkpt>
      <trkpt lat="46.19173" lon="6.67656">
        <ele>999.2</ele>
        <time>2021-06-26T08:46:03Z</time>
      </trkpt>
      <trkpt lat="46.19185" lon="6.67657">
        <ele>997.8</ele>
        <time>2021-06-26T08:46:04Z</time>
      </trkpt>
      <trkpt lat="46.19197" lon="6.67657">
        <ele>996.4</ele>
        <time>2021-06-26T08:46:05Z</time>
      </trkpt>
      <trkpt lat="46.19209" lon="6.67658">
        <ele>995</ele>
        <time>2021-06-26T08:46:06Z</time>
      </trkpt>
      <trkpt lat="46.19222" lon="6.67659">
        <ele>993.8</ele>
        <time>2021-06-26T08:46:07Z</time>
      </trkpt>
      <trkpt lat="46.19235" lon="6.67658">
        <ele>992.6</ele>
        <time>2021-06-26T08:46:08Z</time>
      </trkpt>
      <trkpt lat="46.19248" lon="6.67656">
        <ele>991.2</ele>
        <time>2021-06-26T08:46:09Z</time>
      </trkpt>
      <trkpt lat="46.19261" lon="6.67653">
        <ele>991.2</ele>
        <time>2021-06-26T08:46:10Z</time>
      </trkpt>
      <trkpt lat="46.19274" lon="6.67649">
        <ele>989.8</ele>
        <time>2021-06-26T08:46:11Z</time>
      </trkpt>
      <trkpt lat="46.19286" lon="6.67645">
        <ele>988.4</ele>
        <time>2021-06-26T08:46:12Z</time>
      </trkpt>
      <trkpt lat="46.19313" lon="6.67637">
        <ele>985.6</ele>
        <time>2021-06-26T08:46:14Z</time>
      </trkpt>
      <trkpt lat="46.19326" lon="6.67633">
        <ele>983.8</ele>
        <time>2021-06-26T08:46:15Z</time>
      </trkpt>
      <trkpt lat="46.1934" lon="6.6763">
        <ele>981.8</ele>
        <time>2021-06-26T08:46:16Z</time>
      </trkpt>
      <trkpt lat="46.19353" lon="6.67627">
        <ele>980</ele>
        <time>2021-06-26T08:46:17Z</time>
      </trkpt>
      <trkpt lat="46.19367" lon="6.67625">
        <ele>978.4</ele>
        <time>2021-06-26T08:46:18Z</time>
      </trkpt>
      <trkpt lat="46.19381" lon="6.67622">
        <ele>977.2</ele>
        <time>2021-06-26T08:46:19Z</time>
      </trkpt>
      <trkpt lat="46.19395" lon="6.67618">
        <ele>975.8</ele>
        <time>2021-06-26T08:46:20Z</time>
      </trkpt>
      <trkpt lat="46.19422" lon="6.67608">
        <ele>972.8</ele>
        <time>2021-06-26T08:46:22Z</time>
      </trkpt>
      <trkpt lat="46.19436" lon="6.67603">
        <ele>971</ele>
        <time>2021-06-26T08:46:23Z</time>
      </trkpt>
      <trkpt lat="46.19449" lon="6.676">
        <ele>969.4</ele>
        <time>2021-06-26T08:46:24Z</time>
      </trkpt>
      <trkpt lat="46.1946" lon="6.67598">
        <ele>967.8</ele>
        <time>2021-06-26T08:46:25Z</time>
      </trkpt>
      <trkpt lat="46.1947" lon="6.67597">
        <ele>966.4</ele>
        <time>2021-06-26T08:46:26Z</time>
      </trkpt>
      <trkpt lat="46.1948" lon="6.67597">
        <ele>964.4</ele>
        <time>2021-06-26T08:46:27Z</time>
      </trkpt>
      <trkpt lat="46.19488" lon="6.67598">
        <ele>962.6</ele>
        <time>2021-06-26T08:46:28Z</time>
      </trkpt>
      <trkpt lat="46.19495" lon="6.67601">
        <ele>961</ele>
        <time>2021-06-26T08:46:29Z</time>
      </trkpt>
      <trkpt lat="46.19501" lon="6.67606">
        <ele>959.8</ele>
        <time>2021-06-26T08:46:30Z</time>
      </trkpt>
      <trkpt lat="46.19504" lon="6.67613">
        <ele>958.4</ele>
        <time>2021-06-26T08:46:31Z</time>
      </trkpt>
      <trkpt lat="46.19506" lon="6.67623">
        <ele>957.4</ele>
        <time>2021-06-26T08:46:32Z</time>
      </trkpt>
      <trkpt lat="46.19505" lon="6.67632">
        <ele>957.4</ele>
        <time>2021-06-26T08:46:33Z</time>
      </trkpt>
      <trkpt lat="46.19503" lon="6.67641">
        <ele>956.8</ele>
        <time>2021-06-26T08:46:34Z</time>
      </trkpt>
      <trkpt lat="46.195" lon="6.6765">
        <ele>956.2</ele>
        <time>2021-06-26T08:46:35Z</time>
      </trkpt>
      <trkpt lat="46.19496" lon="6.67657">
        <ele>955.8</ele>
        <time>2021-06-26T08:46:36Z</time>
      </trkpt>
      <trkpt lat="46.19494" lon="6.67663">
        <ele>955.6</ele>
        <time>2021-06-26T08:46:37Z</time>
      </trkpt>
      <trkpt lat="46.19492" lon="6.67669">
        <ele>955.2</ele>
        <time>2021-06-26T08:46:38Z</time>
      </trkpt>
      <trkpt lat="46.1949" lon="6.67674">
        <ele>955</ele>
        <time>2021-06-26T08:46:39Z</time>
      </trkpt>
      <trkpt lat="46.19489" lon="6.67679">
        <ele>954.4</ele>
        <time>2021-06-26T08:46:40Z</time>
      </trkpt>
      <trkpt lat="46.19489" lon="6.67683">
        <ele>953.8</ele>
        <time>2021-06-26T08:46:41Z</time>
      </trkpt>
      <trkpt lat="46.19489" lon="6.67687">
        <ele>952.6</ele>
        <time>2021-06-26T08:46:42Z</time>
      </trkpt>
      <trkpt lat="46.19489" lon="6.6769">
        <ele>951.6</ele>
        <time>2021-06-26T08:46:43Z</time>
      </trkpt>
      <trkpt lat="46.19489" lon="6.67692">
        <ele>950.8</ele>
        <time>2021-06-26T08:46:44Z</time>
      </trkpt>
      <trkpt lat="46.19491" lon="6.67694">
        <ele>950.4</ele>
        <time>2021-06-26T08:46:45Z</time>
      </trkpt>
      <trkpt lat="46.19493" lon="6.67696">
        <ele>950.2</ele>
        <time>2021-06-26T08:46:46Z</time>
      </trkpt>
      <trkpt lat="46.19495" lon="6.67696">
        <ele>949.8</ele>
        <time>2021-06-26T08:46:47Z</time>
      </trkpt>
      <trkpt lat="46.19504" lon="6.67686">
        <ele>948.8</ele>
        <time>2021-06-26T08:46:51Z</time>
      </trkpt>
      <trkpt lat="46.19507" lon="6.67682">
        <ele>948.6</ele>
        <time>2021-06-26T08:46:52Z</time>
      </trkpt>
      <trkpt lat="46.19519" lon="6.67667">
        <ele>948.2</ele>
        <time>2021-06-26T08:46:56Z</time>
      </trkpt>
      <trkpt lat="46.19526" lon="6.67658">
        <ele>948</ele>
        <time>2021-06-26T08:46:58Z</time>
      </trkpt>
      <trkpt lat="46.19538" lon="6.67645">
        <ele>947.8</ele>
        <time>2021-06-26T08:47:01Z</time>
      </trkpt>
      <trkpt lat="46.19545" lon="6.67635">
        <ele>947.4</ele>
        <time>2021-06-26T08:47:03Z</time>
      </trkpt>
      <trkpt lat="46.1956" lon="6.67623">
        <ele>947</ele>
        <time>2021-06-26T08:47:06Z</time>
      </trkpt>
      <trkpt lat="46.19572" lon="6.67617">
        <ele>947</ele>
        <time>2021-06-26T08:47:08Z</time>
      </trkpt>
      <trkpt lat="46.19583" lon="6.67611">
        <ele>947</ele>
        <time>2021-06-26T08:47:10Z</time>
      </trkpt>
      <trkpt lat="46.19594" lon="6.676">
        <ele>947</ele>
        <time>2021-06-26T08:47:12Z</time>
      </trkpt>
      <trkpt lat="46.19611" lon="6.67581">
        <ele>946.4</ele>
        <time>2021-06-26T08:47:15Z</time>
      </trkpt>
      <trkpt lat="46.19623" lon="6.67568">
        <ele>945.8</ele>
        <time>2021-06-26T08:47:17Z</time>
      </trkpt>
      <trkpt lat="46.19636" lon="6.67555">
        <ele>945.8</ele>
        <time>2021-06-26T08:47:19Z</time>
      </trkpt>
      <trkpt lat="46.19664" lon="6.67539">
        <ele>945.2</ele>
        <time>2021-06-26T08:47:23Z</time>
      </trkpt>
      <trkpt lat="46.19671" lon="6.67535">
        <ele>945</ele>
        <time>2021-06-26T08:47:24Z</time>
      </trkpt>
      <trkpt lat="46.19678" lon="6.67531">
        <ele>944.8</ele>
        <time>2021-06-26T08:47:25Z</time>
      </trkpt>
      <trkpt lat="46.19718" lon="6.675">
        <ele>943.4</ele>
        <time>2021-06-26T08:47:31Z</time>
      </trkpt>
      <trkpt lat="46.19732" lon="6.6749">
        <ele>943</ele>
        <time>2021-06-26T08:47:33Z</time>
      </trkpt>
      <trkpt lat="46.19738" lon="6.67485">
        <ele>943</ele>
        <time>2021-06-26T08:47:34Z</time>
      </trkpt>
      <trkpt lat="46.19744" lon="6.6748">
        <ele>943</ele>
        <time>2021-06-26T08:47:35Z</time>
      </trkpt>
      <trkpt lat="46.1975" lon="6.67475">
        <ele>942.8</ele>
        <time>2021-06-26T08:47:36Z</time>
      </trkpt>
      <trkpt lat="46.19763" lon="6.67464">
        <ele>942.6</ele>
        <time>2021-06-26T08:47:38Z</time>
      </trkpt>
      <trkpt lat="46.19775" lon="6.67454">
        <ele>942.4</ele>
        <time>2021-06-26T08:47:40Z</time>
      </trkpt>
      <trkpt lat="46.19808" lon="6.67427">
        <ele>942.2</ele>
        <time>2021-06-26T08:47:45Z</time>
      </trkpt>
      <trkpt lat="46.19814" lon="6.67422">
        <ele>942</ele>
        <time>2021-06-26T08:47:46Z</time>
      </trkpt>
      <trkpt lat="46.1982" lon="6.67416">
        <ele>942</ele>
        <time>2021-06-26T08:47:47Z</time>
      </trkpt>
      <trkpt lat="46.19826" lon="6.67411">
        <ele>942</ele>
        <time>2021-06-26T08:47:48Z</time>
      </trkpt>
      <trkpt lat="46.19877" lon="6.67367">
        <ele>940.6</ele>
        <time>2021-06-26T08:47:56Z</time>
      </trkpt>
      <trkpt lat="46.19883" lon="6.67361">
        <ele>940.4</ele>
        <time>2021-06-26T08:47:57Z</time>
      </trkpt>
      <trkpt lat="46.19896" lon="6.67351">
        <ele>940.4</ele>
        <time>2021-06-26T08:47:59Z</time>
      </trkpt>
      <trkpt lat="46.19901" lon="6.67345">
        <ele>940.2</ele>
        <time>2021-06-26T08:48:00Z</time>
      </trkpt>
      <trkpt lat="46.19913" lon="6.67335">
        <ele>940.2</ele>
        <time>2021-06-26T08:48:02Z</time>
      </trkpt>
      <trkpt lat="46.19919" lon="6.6733">
        <ele>940.2</ele>
        <time>2021-06-26T08:48:03Z</time>
      </trkpt>
      <trkpt lat="46.19925" lon="6.67325">
        <ele>940.2</ele>
        <time>2021-06-26T08:48:04Z</time>
      </trkpt>
      <trkpt lat="46.19931" lon="6.67321">
        <ele>940.2</ele>
        <time>2021-06-26T08:48:05Z</time>
      </trkpt>
      <trkpt lat="46.19937" lon="6.67316">
        <ele>940.2</ele>
        <time>2021-06-26T08:48:06Z</time>
      </trkpt>
      <trkpt lat="46.19942" lon="6.67312">
        <ele>940.2</ele>
        <time>2021-06-26T08:48:07Z</time>
      </trkpt>
      <trkpt lat="46.19947" lon="6.67307">
        <ele>940.2</ele>
        <time>2021-06-26T08:48:08Z</time>
      </trkpt>
      <trkpt lat="46.19952" lon="6.67302">
        <ele>940.2</ele>
        <time>2021-06-26T08:48:09Z</time>
      </trkpt>
      <trkpt lat="46.19957" lon="6.67298">
        <ele>940.4</ele>
        <time>2021-06-26T08:48:10Z</time>
      </trkpt>
      <trkpt lat="46.19962" lon="6.67293">
        <ele>940.4</ele>
        <time>2021-06-26T08:48:11Z</time>
      </trkpt>
      <trkpt lat="46.19972" lon="6.67284">
        <ele>940.4</ele>
        <time>2021-06-26T08:48:13Z</time>
      </trkpt>
      <trkpt lat="46.19982" lon="6.67275">
        <ele>941</ele>
        <time>2021-06-26T08:48:15Z</time>
      </trkpt>
      <trkpt lat="46.19997" lon="6.67261">
        <ele>941.6</ele>
        <time>2021-06-26T08:48:18Z</time>
      </trkpt>
      <trkpt lat="46.20002" lon="6.67257">
        <ele>941.8</ele>
        <time>2021-06-26T08:48:19Z</time>
      </trkpt>
      <trkpt lat="46.20022" lon="6.67238">
        <ele>942</ele>
        <time>2021-06-26T08:48:23Z</time>
      </trkpt>
      <trkpt lat="46.20026" lon="6.67233">
        <ele>942</ele>
        <time>2021-06-26T08:48:24Z</time>
      </trkpt>
      <trkpt lat="46.20031" lon="6.67229">
        <ele>942</ele>
        <time>2021-06-26T08:48:25Z</time>
      </trkpt>
      <trkpt lat="46.20036" lon="6.67224">
        <ele>942.2</ele>
        <time>2021-06-26T08:48:26Z</time>
      </trkpt>
      <trkpt lat="46.2004" lon="6.67219">
        <ele>942.2</ele>
        <time>2021-06-26T08:48:27Z</time>
      </trkpt>
      <trkpt lat="46.20049" lon="6.67209">
        <ele>942</ele>
        <time>2021-06-26T08:48:29Z</time>
      </trkpt>
      <trkpt lat="46.20059" lon="6.67201">
        <ele>942.2</ele>
        <time>2021-06-26T08:48:31Z</time>
      </trkpt>
      <trkpt lat="46.20069" lon="6.67195">
        <ele>942</ele>
        <time>2021-06-26T08:48:33Z</time>
      </trkpt>
      <trkpt lat="46.20074" lon="6.67191">
        <ele>942.2</ele>
        <time>2021-06-26T08:48:34Z</time>
      </trkpt>
      <trkpt lat="46.20085" lon="6.67184">
        <ele>942.4</ele>
        <time>2021-06-26T08:48:36Z</time>
      </trkpt>
      <trkpt lat="46.20096" lon="6.67178">
        <ele>942.6</ele>
        <time>2021-06-26T08:48:38Z</time>
      </trkpt>
      <trkpt lat="46.20102" lon="6.67175">
        <ele>942.6</ele>
        <time>2021-06-26T08:48:39Z</time>
      </trkpt>
      <trkpt lat="46.20118" lon="6.67164">
        <ele>942.6</ele>
        <time>2021-06-26T08:48:42Z</time>
      </trkpt>
      <trkpt lat="46.20134" lon="6.6715">
        <ele>942.6</ele>
        <time>2021-06-26T08:48:45Z</time>
      </trkpt>
      <trkpt lat="46.20144" lon="6.6714">
        <ele>942.4</ele>
        <time>2021-06-26T08:48:47Z</time>
      </trkpt>
      <trkpt lat="46.20166" lon="6.67117">
        <ele>942</ele>
        <time>2021-06-26T08:48:51Z</time>
      </trkpt>
      <trkpt lat="46.20183" lon="6.671">
        <ele>941.8</ele>
        <time>2021-06-26T08:48:54Z</time>
      </trkpt>
      <trkpt lat="46.20206" lon="6.67076">
        <ele>940.8</ele>
        <time>2021-06-26T08:48:58Z</time>
      </trkpt>
      <trkpt lat="46.20231" lon="6.67052">
        <ele>939.6</ele>
        <time>2021-06-26T08:49:02Z</time>
      </trkpt>
      <trkpt lat="46.20243" lon="6.6704">
        <ele>939.4</ele>
        <time>2021-06-26T08:49:04Z</time>
      </trkpt>
      <trkpt lat="46.20249" lon="6.67034">
        <ele>939.2</ele>
        <time>2021-06-26T08:49:05Z</time>
      </trkpt>
      <trkpt lat="46.20268" lon="6.67016">
        <ele>938.8</ele>
        <time>2021-06-26T08:49:08Z</time>
      </trkpt>
      <trkpt lat="46.20301" lon="6.66984">
        <ele>938</ele>
        <time>2021-06-26T08:49:13Z</time>
      </trkpt>
      <trkpt lat="46.20308" lon="6.66977">
        <ele>937.8</ele>
        <time>2021-06-26T08:49:14Z</time>
      </trkpt>
      <trkpt lat="46.20322" lon="6.66964">
        <ele>937.4</ele>
        <time>2021-06-26T08:49:16Z</time>
      </trkpt>
      <trkpt lat="46.20343" lon="6.66942">
        <ele>936</ele>
        <time>2021-06-26T08:49:19Z</time>
      </trkpt>
      <trkpt lat="46.20358" lon="6.66926">
        <ele>935.6</ele>
        <time>2021-06-26T08:49:21Z</time>
      </trkpt>
      <trkpt lat="46.20366" lon="6.66918">
        <ele>935</ele>
        <time>2021-06-26T08:49:22Z</time>
      </trkpt>
      <trkpt lat="46.20374" lon="6.6691">
        <ele>934</ele>
        <time>2021-06-26T08:49:23Z</time>
      </trkpt>
      <trkpt lat="46.20382" lon="6.66902">
        <ele>933.2</ele>
        <time>2021-06-26T08:49:24Z</time>
      </trkpt>
      <trkpt lat="46.204" lon="6.66888">
        <ele>932</ele>
        <time>2021-06-26T08:49:26Z</time>
      </trkpt>
      <trkpt lat="46.20411" lon="6.66886">
        <ele>931.4</ele>
        <time>2021-06-26T08:49:27Z</time>
      </trkpt>
      <trkpt lat="46.20421" lon="6.66887">
        <ele>931</ele>
        <time>2021-06-26T08:49:28Z</time>
      </trkpt>
      <trkpt lat="46.20432" lon="6.66891">
        <ele>930.4</ele>
        <time>2021-06-26T08:49:29Z</time>
      </trkpt>
      <trkpt lat="46.20441" lon="6.66899">
        <ele>930</ele>
        <time>2021-06-26T08:49:30Z</time>
      </trkpt>
      <trkpt lat="46.2045" lon="6.66907">
        <ele>929.2</ele>
        <time>2021-06-26T08:49:31Z</time>
      </trkpt>
      <trkpt lat="46.20459" lon="6.66916">
        <ele>928.6</ele>
        <time>2021-06-26T08:49:32Z</time>
      </trkpt>
      <trkpt lat="46.20469" lon="6.66923">
        <ele>927.6</ele>
        <time>2021-06-26T08:49:33Z</time>
      </trkpt>
      <trkpt lat="46.20479" lon="6.66929">
        <ele>926.8</ele>
        <time>2021-06-26T08:49:34Z</time>
      </trkpt>
      <trkpt lat="46.20489" lon="6.66933">
        <ele>926.8</ele>
        <time>2021-06-26T08:49:35Z</time>
      </trkpt>
      <trkpt lat="46.205" lon="6.66935">
        <ele>926.2</ele>
        <time>2021-06-26T08:49:36Z</time>
      </trkpt>
      <trkpt lat="46.20521" lon="6.66936">
        <ele>924.8</ele>
        <time>2021-06-26T08:49:38Z</time>
      </trkpt>
      <trkpt lat="46.20531" lon="6.66936">
        <ele>924.2</ele>
        <time>2021-06-26T08:49:39Z</time>
      </trkpt>
      <trkpt lat="46.20542" lon="6.66936">
        <ele>923</ele>
        <time>2021-06-26T08:49:40Z</time>
      </trkpt>
      <trkpt lat="46.20563" lon="6.66936">
        <ele>921.6</ele>
        <time>2021-06-26T08:49:42Z</time>
      </trkpt>
      <trkpt lat="46.20574" lon="6.66936">
        <ele>921.2</ele>
        <time>2021-06-26T08:49:43Z</time>
      </trkpt>
      <trkpt lat="46.20584" lon="6.66936">
        <ele>920.8</ele>
        <time>2021-06-26T08:49:44Z</time>
      </trkpt>
      <trkpt lat="46.20605" lon="6.66936">
        <ele>919.2</ele>
        <time>2021-06-26T08:49:46Z</time>
      </trkpt>
      <trkpt lat="46.20626" lon="6.66934">
        <ele>917.4</ele>
        <time>2021-06-26T08:49:48Z</time>
      </trkpt>
      <trkpt lat="46.20636" lon="6.66933">
        <ele>916.6</ele>
        <time>2021-06-26T08:49:49Z</time>
      </trkpt>
      <trkpt lat="46.20646" lon="6.66931">
        <ele>915.6</ele>
        <time>2021-06-26T08:49:50Z</time>
      </trkpt>
      <trkpt lat="46.20656" lon="6.66928">
        <ele>915</ele>
        <time>2021-06-26T08:49:51Z</time>
      </trkpt>
      <trkpt lat="46.20665" lon="6.66925">
        <ele>914.4</ele>
        <time>2021-06-26T08:49:52Z</time>
      </trkpt>
      <trkpt lat="46.20675" lon="6.66921">
        <ele>913.6</ele>
        <time>2021-06-26T08:49:53Z</time>
      </trkpt>
      <trkpt lat="46.20684" lon="6.66916">
        <ele>912.8</ele>
        <time>2021-06-26T08:49:54Z</time>
      </trkpt>
      <trkpt lat="46.20692" lon="6.66911">
        <ele>912.2</ele>
        <time>2021-06-26T08:49:55Z</time>
      </trkpt>
      <trkpt lat="46.207" lon="6.66907">
        <ele>911.6</ele>
        <time>2021-06-26T08:49:56Z</time>
      </trkpt>
      <trkpt lat="46.20709" lon="6.66903">
        <ele>911</ele>
        <time>2021-06-26T08:49:57Z</time>
      </trkpt>
      <trkpt lat="46.20717" lon="6.669">
        <ele>911</ele>
        <time>2021-06-26T08:49:58Z</time>
      </trkpt>
      <trkpt lat="46.20725" lon="6.66896">
        <ele>910.4</ele>
        <time>2021-06-26T08:49:59Z</time>
      </trkpt>
      <trkpt lat="46.20733" lon="6.66893">
        <ele>910</ele>
        <time>2021-06-26T08:50:00Z</time>
      </trkpt>
      <trkpt lat="46.20742" lon="6.66891">
        <ele>909.8</ele>
        <time>2021-06-26T08:50:01Z</time>
      </trkpt>
      <trkpt lat="46.20759" lon="6.66888">
        <ele>909.2</ele>
        <time>2021-06-26T08:50:03Z</time>
      </trkpt>
      <trkpt lat="46.20768" lon="6.66887">
        <ele>909</ele>
        <time>2021-06-26T08:50:04Z</time>
      </trkpt>
      <trkpt lat="46.20776" lon="6.66887">
        <ele>908.4</ele>
        <time>2021-06-26T08:50:05Z</time>
      </trkpt>
      <trkpt lat="46.20785" lon="6.66886">
        <ele>908.2</ele>
        <time>2021-06-26T08:50:06Z</time>
      </trkpt>
      <trkpt lat="46.20802" lon="6.66886">
        <ele>907.6</ele>
        <time>2021-06-26T08:50:08Z</time>
      </trkpt>
      <trkpt lat="46.2081" lon="6.66885">
        <ele>907.4</ele>
        <time>2021-06-26T08:50:09Z</time>
      </trkpt>
      <trkpt lat="46.20828" lon="6.66884">
        <ele>906.4</ele>
        <time>2021-06-26T08:50:11Z</time>
      </trkpt>
      <trkpt lat="46.20836" lon="6.66883">
        <ele>905.6</ele>
        <time>2021-06-26T08:50:12Z</time>
      </trkpt>
      <trkpt lat="46.20845" lon="6.66882">
        <ele>905.2</ele>
        <time>2021-06-26T08:50:13Z</time>
      </trkpt>
      <trkpt lat="46.20879" lon="6.66881">
        <ele>903.4</ele>
        <time>2021-06-26T08:50:17Z</time>
      </trkpt>
      <trkpt lat="46.20888" lon="6.66881">
        <ele>902.8</ele>
        <time>2021-06-26T08:50:18Z</time>
      </trkpt>
      <trkpt lat="46.20905" lon="6.6688">
        <ele>901.8</ele>
        <time>2021-06-26T08:50:20Z</time>
      </trkpt>
      <trkpt lat="46.20922" lon="6.66879">
        <ele>901</ele>
        <time>2021-06-26T08:50:22Z</time>
      </trkpt>
      <trkpt lat="46.20947" lon="6.66878">
        <ele>899.2</ele>
        <time>2021-06-26T08:50:25Z</time>
      </trkpt>
      <trkpt lat="46.20964" lon="6.66877">
        <ele>898.6</ele>
        <time>2021-06-26T08:50:27Z</time>
      </trkpt>
      <trkpt lat="46.20972" lon="6.66877">
        <ele>898.4</ele>
        <time>2021-06-26T08:50:28Z</time>
      </trkpt>
      <trkpt lat="46.2098" lon="6.66876">
        <ele>898</ele>
        <time>2021-06-26T08:50:29Z</time>
      </trkpt>
      <trkpt lat="46.20989" lon="6.66876">
        <ele>897</ele>
        <time>2021-06-26T08:50:30Z</time>
      </trkpt>
      <trkpt lat="46.21013" lon="6.66876">
        <ele>895.6</ele>
        <time>2021-06-26T08:50:33Z</time>
      </trkpt>
      <trkpt lat="46.21037" lon="6.66873">
        <ele>895</ele>
        <time>2021-06-26T08:50:36Z</time>
      </trkpt>
      <trkpt lat="46.21044" lon="6.66871">
        <ele>895</ele>
        <time>2021-06-26T08:50:37Z</time>
      </trkpt>
      <trkpt lat="46.2105" lon="6.6687">
        <ele>894.8</ele>
        <time>2021-06-26T08:50:38Z</time>
      </trkpt>
      <trkpt lat="46.21055" lon="6.66868">
        <ele>895</ele>
        <time>2021-06-26T08:50:39Z</time>
      </trkpt>
      <trkpt lat="46.21058" lon="6.66866">
        <ele>894.8</ele>
        <time>2021-06-26T08:50:40Z</time>
      </trkpt>
      <trkpt lat="46.2106" lon="6.66865">
        <ele>894.4</ele>
        <time>2021-06-26T08:50:41Z</time>
      </trkpt>
      <trkpt lat="46.2106" lon="6.66865">
        <ele>894.2</ele>
        <time>2021-06-26T08:50:42Z</time>
      </trkpt>
      <trkpt lat="46.21061" lon="6.66865">
        <ele>894</ele>
        <time>2021-06-26T08:50:43Z</time>
      </trkpt>
      <trkpt lat="46.21061" lon="6.66865">
        <ele>893.8</ele>
        <time>2021-06-26T08:50:46Z</time>
      </trkpt>
      <trkpt lat="46.2106" lon="6.66863">
        <ele>894</ele>
        <time>2021-06-26T08:51:00Z</time>
      </trkpt>
      <trkpt lat="46.21061" lon="6.66862">
        <ele>894</ele>
        <time>2021-06-26T08:51:01Z</time>
      </trkpt>
      <trkpt lat="46.21062" lon="6.66861">
        <ele>893.8</ele>
        <time>2021-06-26T08:51:02Z</time>
      </trkpt>
      <trkpt lat="46.21069" lon="6.66855">
        <ele>894</ele>
        <time>2021-06-26T08:51:05Z</time>
      </trkpt>
      <trkpt lat="46.21072" lon="6.66852">
        <ele>893.8</ele>
        <time>2021-06-26T08:51:06Z</time>
      </trkpt>
      <trkpt lat="46.21087" lon="6.66843">
        <ele>893.8</ele>
        <time>2021-06-26T08:51:09Z</time>
      </trkpt>
      <trkpt lat="46.21099" lon="6.66838">
        <ele>893.8</ele>
        <time>2021-06-26T08:51:11Z</time>
      </trkpt>
      <trkpt lat="46.21126" lon="6.66831">
        <ele>892.6</ele>
        <time>2021-06-26T08:51:15Z</time>
      </trkpt>
      <trkpt lat="46.21163" lon="6.66821">
        <ele>890.6</ele>
        <time>2021-06-26T08:51:20Z</time>
      </trkpt>
      <trkpt lat="46.2118" lon="6.66815">
        <ele>888.8</ele>
        <time>2021-06-26T08:51:22Z</time>
      </trkpt>
      <trkpt lat="46.21214" lon="6.66804">
        <ele>887</ele>
        <time>2021-06-26T08:51:26Z</time>
      </trkpt>
      <trkpt lat="46.21241" lon="6.66796">
        <ele>886.2</ele>
        <time>2021-06-26T08:51:29Z</time>
      </trkpt>
      <trkpt lat="46.21251" lon="6.66794">
        <ele>885.6</ele>
        <time>2021-06-26T08:51:30Z</time>
      </trkpt>
      <trkpt lat="46.2126" lon="6.66792">
        <ele>884.8</ele>
        <time>2021-06-26T08:51:31Z</time>
      </trkpt>
      <trkpt lat="46.21289" lon="6.6679">
        <ele>883.8</ele>
        <time>2021-06-26T08:51:34Z</time>
      </trkpt>
      <trkpt lat="46.21299" lon="6.66789">
        <ele>883.6</ele>
        <time>2021-06-26T08:51:35Z</time>
      </trkpt>
      <trkpt lat="46.21309" lon="6.66787">
        <ele>883.4</ele>
        <time>2021-06-26T08:51:36Z</time>
      </trkpt>
      <trkpt lat="46.21328" lon="6.66782">
        <ele>882.4</ele>
        <time>2021-06-26T08:51:38Z</time>
      </trkpt>
      <trkpt lat="46.21338" lon="6.6678">
        <ele>881.8</ele>
        <time>2021-06-26T08:51:39Z</time>
      </trkpt>
      <trkpt lat="46.21348" lon="6.6678">
        <ele>881.2</ele>
        <time>2021-06-26T08:51:40Z</time>
      </trkpt>
      <trkpt lat="46.21358" lon="6.66782">
        <ele>881.2</ele>
        <time>2021-06-26T08:51:41Z</time>
      </trkpt>
      <trkpt lat="46.21377" lon="6.66791">
        <ele>880.4</ele>
        <time>2021-06-26T08:51:43Z</time>
      </trkpt>
      <trkpt lat="46.21396" lon="6.66802">
        <ele>879.2</ele>
        <time>2021-06-26T08:51:45Z</time>
      </trkpt>
      <trkpt lat="46.21405" lon="6.66808">
        <ele>878.2</ele>
        <time>2021-06-26T08:51:46Z</time>
      </trkpt>
      <trkpt lat="46.21423" lon="6.66819">
        <ele>877</ele>
        <time>2021-06-26T08:51:48Z</time>
      </trkpt>
      <trkpt lat="46.21432" lon="6.66824">
        <ele>875.8</ele>
        <time>2021-06-26T08:51:49Z</time>
      </trkpt>
      <trkpt lat="46.21441" lon="6.66827">
        <ele>875</ele>
        <time>2021-06-26T08:51:50Z</time>
      </trkpt>
      <trkpt lat="46.2145" lon="6.66829">
        <ele>874.2</ele>
        <time>2021-06-26T08:51:51Z</time>
      </trkpt>
      <trkpt lat="46.2146" lon="6.66829">
        <ele>873.4</ele>
        <time>2021-06-26T08:51:52Z</time>
      </trkpt>
      <trkpt lat="46.21469" lon="6.66826">
        <ele>872.6</ele>
        <time>2021-06-26T08:51:53Z</time>
      </trkpt>
      <trkpt lat="46.2148" lon="6.66823">
        <ele>872</ele>
        <time>2021-06-26T08:51:54Z</time>
      </trkpt>
      <trkpt lat="46.2149" lon="6.66819">
        <ele>871.6</ele>
        <time>2021-06-26T08:51:55Z</time>
      </trkpt>
      <trkpt lat="46.215" lon="6.66814">
        <ele>871.6</ele>
        <time>2021-06-26T08:51:56Z</time>
      </trkpt>
      <trkpt lat="46.2152" lon="6.66804">
        <ele>871</ele>
        <time>2021-06-26T08:51:58Z</time>
      </trkpt>
      <trkpt lat="46.21529" lon="6.66797">
        <ele>870.8</ele>
        <time>2021-06-26T08:51:59Z</time>
      </trkpt>
      <trkpt lat="46.21538" lon="6.66787">
        <ele>870</ele>
        <time>2021-06-26T08:52:00Z</time>
      </trkpt>
      <trkpt lat="46.21545" lon="6.66777">
        <ele>868.8</ele>
        <time>2021-06-26T08:52:01Z</time>
      </trkpt>
      <trkpt lat="46.21552" lon="6.66766">
        <ele>867.6</ele>
        <time>2021-06-26T08:52:02Z</time>
      </trkpt>
      <trkpt lat="46.2156" lon="6.66755">
        <ele>866.8</ele>
        <time>2021-06-26T08:52:03Z</time>
      </trkpt>
      <trkpt lat="46.21578" lon="6.66735">
        <ele>866</ele>
        <time>2021-06-26T08:52:05Z</time>
      </trkpt>
      <trkpt lat="46.21589" lon="6.66728">
        <ele>865</ele>
        <time>2021-06-26T08:52:06Z</time>
      </trkpt>
      <trkpt lat="46.216" lon="6.66724">
        <ele>864.6</ele>
        <time>2021-06-26T08:52:07Z</time>
      </trkpt>
      <trkpt lat="46.21612" lon="6.6672">
        <ele>863.8</ele>
        <time>2021-06-26T08:52:08Z</time>
      </trkpt>
      <trkpt lat="46.21623" lon="6.66717">
        <ele>863.4</ele>
        <time>2021-06-26T08:52:09Z</time>
      </trkpt>
      <trkpt lat="46.21645" lon="6.6671">
        <ele>861.8</ele>
        <time>2021-06-26T08:52:11Z</time>
      </trkpt>
      <trkpt lat="46.21655" lon="6.66708">
        <ele>860.6</ele>
        <time>2021-06-26T08:52:12Z</time>
      </trkpt>
      <trkpt lat="46.21664" lon="6.66705">
        <ele>859.6</ele>
        <time>2021-06-26T08:52:13Z</time>
      </trkpt>
      <trkpt lat="46.21673" lon="6.66703">
        <ele>858.8</ele>
        <time>2021-06-26T08:52:14Z</time>
      </trkpt>
      <trkpt lat="46.2168" lon="6.66704">
        <ele>858</ele>
        <time>2021-06-26T08:52:15Z</time>
      </trkpt>
      <trkpt lat="46.21686" lon="6.66709">
        <ele>857</ele>
        <time>2021-06-26T08:52:16Z</time>
      </trkpt>
      <trkpt lat="46.21691" lon="6.66716">
        <ele>855.8</ele>
        <time>2021-06-26T08:52:17Z</time>
      </trkpt>
      <trkpt lat="46.21696" lon="6.66722">
        <ele>854.6</ele>
        <time>2021-06-26T08:52:18Z</time>
      </trkpt>
      <trkpt lat="46.21699" lon="6.66728">
        <ele>853.8</ele>
        <time>2021-06-26T08:52:19Z</time>
      </trkpt>
      <trkpt lat="46.21702" lon="6.66733">
        <ele>853.6</ele>
        <time>2021-06-26T08:52:20Z</time>
      </trkpt>
      <trkpt lat="46.21703" lon="6.66737">
        <ele>853.4</ele>
        <time>2021-06-26T08:52:21Z</time>
      </trkpt>
      <trkpt lat="46.21703" lon="6.66741">
        <ele>853.4</ele>
        <time>2021-06-26T08:52:22Z</time>
      </trkpt>
      <trkpt lat="46.217" lon="6.6675">
        <ele>853.2</ele>
        <time>2021-06-26T08:52:23Z</time>
      </trkpt>
      <trkpt lat="46.21684" lon="6.66771">
        <ele>853.2</ele>
        <time>2021-06-26T08:52:29Z</time>
      </trkpt>
      <trkpt lat="46.21668" lon="6.668">
        <ele>853.2</ele>
        <time>2021-06-26T08:52:34Z</time>
      </trkpt>
      <trkpt lat="46.21661" lon="6.66812">
        <ele>853.2</ele>
        <time>2021-06-26T08:52:36Z</time>
      </trkpt>
      <trkpt lat="46.21657" lon="6.66818">
        <ele>853.2</ele>
        <time>2021-06-26T08:52:37Z</time>
      </trkpt>
      <trkpt lat="46.21637" lon="6.66848">
        <ele>853.4</ele>
        <time>2021-06-26T08:52:41Z</time>
      </trkpt>
      <trkpt lat="46.21633" lon="6.66854">
        <ele>853.6</ele>
        <time>2021-06-26T08:52:43Z</time>
      </trkpt>
      <trkpt lat="46.21618" lon="6.66869">
        <ele>853.6</ele>
        <time>2021-06-26T08:52:46Z</time>
      </trkpt>
      <trkpt lat="46.21614" lon="6.66874">
        <ele>853.6</ele>
        <time>2021-06-26T08:52:47Z</time>
      </trkpt>
      <trkpt lat="46.21603" lon="6.66883">
        <ele>853.8</ele>
        <time>2021-06-26T08:52:49Z</time>
      </trkpt>
      <trkpt lat="46.21567" lon="6.66912">
        <ele>854.2</ele>
        <time>2021-06-26T08:52:55Z</time>
      </trkpt>
      <trkpt lat="46.21562" lon="6.66917">
        <ele>854.4</ele>
        <time>2021-06-26T08:52:56Z</time>
      </trkpt>
      <trkpt lat="46.21551" lon="6.66926">
        <ele>854.4</ele>
        <time>2021-06-26T08:52:58Z</time>
      </trkpt>
      <trkpt lat="46.2154" lon="6.66935">
        <ele>854.4</ele>
        <time>2021-06-26T08:53:00Z</time>
      </trkpt>
      <trkpt lat="46.21501" lon="6.66969">
        <ele>854.6</ele>
        <time>2021-06-26T08:53:06Z</time>
      </trkpt>
      <trkpt lat="46.21489" lon="6.66978">
        <ele>854.8</ele>
        <time>2021-06-26T08:53:09Z</time>
      </trkpt>
      <trkpt lat="46.21483" lon="6.66982">
        <ele>854.8</ele>
        <time>2021-06-26T08:53:10Z</time>
      </trkpt>
      <trkpt lat="46.2147" lon="6.66988">
        <ele>855</ele>
        <time>2021-06-26T08:53:11Z</time>
      </trkpt>
      <trkpt lat="46.21464" lon="6.66991">
        <ele>855.2</ele>
        <time>2021-06-26T08:53:13Z</time>
      </trkpt>
      <trkpt lat="46.21457" lon="6.66993">
        <ele>855</ele>
        <time>2021-06-26T08:53:14Z</time>
      </trkpt>
      <trkpt lat="46.21431" lon="6.67002">
        <ele>855.6</ele>
        <time>2021-06-26T08:53:18Z</time>
      </trkpt>
      <trkpt lat="46.21418" lon="6.67006">
        <ele>855.8</ele>
        <time>2021-06-26T08:53:19Z</time>
      </trkpt>
      <trkpt lat="46.21405" lon="6.6701">
        <ele>856</ele>
        <time>2021-06-26T08:53:22Z</time>
      </trkpt>
      <trkpt lat="46.21392" lon="6.67014">
        <ele>856.2</ele>
        <time>2021-06-26T08:53:24Z</time>
      </trkpt>
      <trkpt lat="46.2138" lon="6.67018">
        <ele>856.2</ele>
        <time>2021-06-26T08:53:25Z</time>
      </trkpt>
      <trkpt lat="46.21375" lon="6.6702">
        <ele>856.4</ele>
        <time>2021-06-26T08:53:26Z</time>
      </trkpt>
      <trkpt lat="46.2137" lon="6.67023">
        <ele>856.6</ele>
        <time>2021-06-26T08:53:27Z</time>
      </trkpt>
      <trkpt lat="46.21366" lon="6.67025">
        <ele>856.8</ele>
        <time>2021-06-26T08:53:28Z</time>
      </trkpt>
      <trkpt lat="46.21362" lon="6.67026">
        <ele>857</ele>
        <time>2021-06-26T08:53:29Z</time>
      </trkpt>
      <trkpt lat="46.2136" lon="6.67026">
        <ele>857.2</ele>
        <time>2021-06-26T08:53:30Z</time>
      </trkpt>
      <trkpt lat="46.21356" lon="6.67026">
        <ele>857.4</ele>
        <time>2021-06-26T08:53:32Z</time>
      </trkpt>
      <trkpt lat="46.21356" lon="6.67027">
        <ele>857.6</ele>
        <time>2021-06-26T08:53:34Z</time>
      </trkpt>
      <trkpt lat="46.21356" lon="6.67026">
        <ele>858.2</ele>
        <time>2021-06-26T08:53:37Z</time>
      </trkpt>
      <trkpt lat="46.21354" lon="6.67025">
        <ele>858.8</ele>
        <time>2021-06-26T08:53:48Z</time>
      </trkpt>
      <trkpt lat="46.21357" lon="6.67026">
        <ele>858.8</ele>
        <time>2021-06-26T08:54:03Z</time>
      </trkpt>
      <trkpt lat="46.21358" lon="6.67026">
        <ele>858.8</ele>
        <time>2021-06-26T08:54:22Z</time>
      </trkpt>
      <trkpt lat="46.2136" lon="6.67027">
        <ele>858.6</ele>
        <time>2021-06-26T08:54:41Z</time>
      </trkpt>
      <trkpt lat="46.2136" lon="6.67028">
        <ele>858.8</ele>
        <time>2021-06-26T08:54:56Z</time>
      </trkpt>
      <trkpt lat="46.2136" lon="6.67029">
        <ele>858.6</ele>
        <time>2021-06-26T08:54:58Z</time>
      </trkpt>
      <trkpt lat="46.21359" lon="6.67031">
        <ele>858.6</ele>
        <time>2021-06-26T08:55:01Z</time>
      </trkpt>
      <trkpt lat="46.21358" lon="6.67032">
        <ele>858.6</ele>
        <time>2021-06-26T08:55:02Z</time>
      </trkpt>
      <trkpt lat="46.21358" lon="6.67032">
        <ele>858.6</ele>
        <time>2021-06-26T08:55:06Z</time>
      </trkpt>
      <trkpt lat="46.21357" lon="6.67034">
        <ele>858.6</ele>
        <time>2021-06-26T08:55:11Z</time>
      </trkpt>
      <trkpt lat="46.21356" lon="6.67035">
        <ele>858.6</ele>
        <time>2021-06-26T08:55:12Z</time>
      </trkpt>
      <trkpt lat="46.21355" lon="6.67036">
        <ele>858.6</ele>
        <time>2021-06-26T08:55:13Z</time>
      </trkpt>
      <trkpt lat="46.21351" lon="6.67039">
        <ele>858.4</ele>
        <time>2021-06-26T08:55:14Z</time>
      </trkpt>
      <trkpt lat="46.21348" lon="6.67041">
        <ele>858.6</ele>
        <time>2021-06-26T08:55:15Z</time>
      </trkpt>
      <trkpt lat="46.21333" lon="6.6705">
        <ele>858.6</ele>
        <time>2021-06-26T08:55:20Z</time>
      </trkpt>
      <trkpt lat="46.21305" lon="6.67067">
        <ele>858.6</ele>
        <time>2021-06-26T08:55:26Z</time>
      </trkpt>
      <trkpt lat="46.21262" lon="6.67095">
        <ele>858.6</ele>
        <time>2021-06-26T08:55:34Z</time>
      </trkpt>
      <trkpt lat="46.21256" lon="6.67099">
        <ele>858.8</ele>
        <time>2021-06-26T08:55:35Z</time>
      </trkpt>
      <trkpt lat="46.21217" lon="6.67125">
        <ele>859</ele>
        <time>2021-06-26T08:55:42Z</time>
      </trkpt>
      <trkpt lat="46.21212" lon="6.67129">
        <ele>859.4</ele>
        <time>2021-06-26T08:55:43Z</time>
      </trkpt>
      <trkpt lat="46.21171" lon="6.67155">
        <ele>860</ele>
        <time>2021-06-26T08:55:50Z</time>
      </trkpt>
      <trkpt lat="46.21166" lon="6.67159">
        <ele>860</ele>
        <time>2021-06-26T08:55:51Z</time>
      </trkpt>
      <trkpt lat="46.2116" lon="6.67162">
        <ele>860</ele>
        <time>2021-06-26T08:55:52Z</time>
      </trkpt>
      <trkpt lat="46.21155" lon="6.67166">
        <ele>860.4</ele>
        <time>2021-06-26T08:55:53Z</time>
      </trkpt>
      <trkpt lat="46.21149" lon="6.6717">
        <ele>860.4</ele>
        <time>2021-06-26T08:55:54Z</time>
      </trkpt>
      <trkpt lat="46.21138" lon="6.67177">
        <ele>860.6</ele>
        <time>2021-06-26T08:55:56Z</time>
      </trkpt>
      <trkpt lat="46.21132" lon="6.6718">
        <ele>860.6</ele>
        <time>2021-06-26T08:55:57Z</time>
      </trkpt>
      <trkpt lat="46.21121" lon="6.67188">
        <ele>860.6</ele>
        <time>2021-06-26T08:55:59Z</time>
      </trkpt>
      <trkpt lat="46.21116" lon="6.67191">
        <ele>860.6</ele>
        <time>2021-06-26T08:56:00Z</time>
      </trkpt>
      <trkpt lat="46.21105" lon="6.67199">
        <ele>860.6</ele>
        <time>2021-06-26T08:56:02Z</time>
      </trkpt>
      <trkpt lat="46.21077" lon="6.67218">
        <ele>861.4</ele>
        <time>2021-06-26T08:56:07Z</time>
      </trkpt>
      <trkpt lat="46.21061" lon="6.67229">
        <ele>861.8</ele>
        <time>2021-06-26T08:56:10Z</time>
      </trkpt>
      <trkpt lat="46.2105" lon="6.67236">
        <ele>862</ele>
        <time>2021-06-26T08:56:12Z</time>
      </trkpt>
      <trkpt lat="46.21044" lon="6.6724">
        <ele>862</ele>
        <time>2021-06-26T08:56:13Z</time>
      </trkpt>
      <trkpt lat="46.21028" lon="6.6725">
        <ele>862.4</ele>
        <time>2021-06-26T08:56:16Z</time>
      </trkpt>
      <trkpt lat="46.21022" lon="6.67254">
        <ele>862.4</ele>
        <time>2021-06-26T08:56:17Z</time>
      </trkpt>
      <trkpt lat="46.21016" lon="6.67257">
        <ele>862.6</ele>
        <time>2021-06-26T08:56:18Z</time>
      </trkpt>
      <trkpt lat="46.21011" lon="6.67261">
        <ele>862.6</ele>
        <time>2021-06-26T08:56:19Z</time>
      </trkpt>
      <trkpt lat="46.21005" lon="6.67265">
        <ele>863</ele>
        <time>2021-06-26T08:56:20Z</time>
      </trkpt>
      <trkpt lat="46.21" lon="6.67268">
        <ele>863</ele>
        <time>2021-06-26T08:56:21Z</time>
      </trkpt>
      <trkpt lat="46.20994" lon="6.67272">
        <ele>863.2</ele>
        <time>2021-06-26T08:56:22Z</time>
      </trkpt>
      <trkpt lat="46.20988" lon="6.67275">
        <ele>863.4</ele>
        <time>2021-06-26T08:56:23Z</time>
      </trkpt>
      <trkpt lat="46.20983" lon="6.67279">
        <ele>863.6</ele>
        <time>2021-06-26T08:56:24Z</time>
      </trkpt>
      <trkpt lat="46.20977" lon="6.67283">
        <ele>863.6</ele>
        <time>2021-06-26T08:56:25Z</time>
      </trkpt>
      <trkpt lat="46.20971" lon="6.67287">
        <ele>863.8</ele>
        <time>2021-06-26T08:56:26Z</time>
      </trkpt>
      <trkpt lat="46.20966" lon="6.6729">
        <ele>864</ele>
        <time>2021-06-26T08:56:27Z</time>
      </trkpt>
      <trkpt lat="46.2096" lon="6.67294">
        <ele>864.2</ele>
        <time>2021-06-26T08:56:28Z</time>
      </trkpt>
      <trkpt lat="46.20954" lon="6.67298">
        <ele>864</ele>
        <time>2021-06-26T08:56:29Z</time>
      </trkpt>
      <trkpt lat="46.20949" lon="6.67302">
        <ele>864.2</ele>
        <time>2021-06-26T08:56:30Z</time>
      </trkpt>
      <trkpt lat="46.20943" lon="6.67306">
        <ele>864.2</ele>
        <time>2021-06-26T08:56:31Z</time>
      </trkpt>
      <trkpt lat="46.20937" lon="6.6731">
        <ele>864.4</ele>
        <time>2021-06-26T08:56:32Z</time>
      </trkpt>
      <trkpt lat="46.20932" lon="6.67313">
        <ele>864.4</ele>
        <time>2021-06-26T08:56:33Z</time>
      </trkpt>
      <trkpt lat="46.20926" lon="6.67317">
        <ele>864.6</ele>
        <time>2021-06-26T08:56:34Z</time>
      </trkpt>
      <trkpt lat="46.20921" lon="6.67321">
        <ele>864.8</ele>
        <time>2021-06-26T08:56:35Z</time>
      </trkpt>
      <trkpt lat="46.20915" lon="6.67324">
        <ele>865</ele>
        <time>2021-06-26T08:56:36Z</time>
      </trkpt>
      <trkpt lat="46.20909" lon="6.67328">
        <ele>865.2</ele>
        <time>2021-06-26T08:56:37Z</time>
      </trkpt>
      <trkpt lat="46.20904" lon="6.67332">
        <ele>865.2</ele>
        <time>2021-06-26T08:56:38Z</time>
      </trkpt>
      <trkpt lat="46.20898" lon="6.67335">
        <ele>865.4</ele>
        <time>2021-06-26T08:56:39Z</time>
      </trkpt>
      <trkpt lat="46.20893" lon="6.67339">
        <ele>865.8</ele>
        <time>2021-06-26T08:56:40Z</time>
      </trkpt>
      <trkpt lat="46.20887" lon="6.67342">
        <ele>866</ele>
        <time>2021-06-26T08:56:41Z</time>
      </trkpt>
      <trkpt lat="46.20882" lon="6.67346">
        <ele>866.2</ele>
        <time>2021-06-26T08:56:42Z</time>
      </trkpt>
      <trkpt lat="46.20876" lon="6.6735">
        <ele>866.4</ele>
        <time>2021-06-26T08:56:43Z</time>
      </trkpt>
      <trkpt lat="46.2087" lon="6.67354">
        <ele>866.4</ele>
        <time>2021-06-26T08:56:44Z</time>
      </trkpt>
      <trkpt lat="46.20865" lon="6.67358">
        <ele>866.6</ele>
        <time>2021-06-26T08:56:45Z</time>
      </trkpt>
      <trkpt lat="46.20859" lon="6.67361">
        <ele>866.8</ele>
        <time>2021-06-26T08:56:46Z</time>
      </trkpt>
      <trkpt lat="46.20854" lon="6.67365">
        <ele>866.8</ele>
        <time>2021-06-26T08:56:47Z</time>
      </trkpt>
      <trkpt lat="46.20848" lon="6.67369">
        <ele>867</ele>
        <time>2021-06-26T08:56:48Z</time>
      </trkpt>
      <trkpt lat="46.20842" lon="6.67373">
        <ele>867</ele>
        <time>2021-06-26T08:56:49Z</time>
      </trkpt>
      <trkpt lat="46.20837" lon="6.67377">
        <ele>867.2</ele>
        <time>2021-06-26T08:56:50Z</time>
      </trkpt>
      <trkpt lat="46.20825" lon="6.67385">
        <ele>867.2</ele>
        <time>2021-06-26T08:56:51Z</time>
      </trkpt>
      <trkpt lat="46.2082" lon="6.67388">
        <ele>867.6</ele>
        <time>2021-06-26T08:56:52Z</time>
      </trkpt>
      <trkpt lat="46.20816" lon="6.6739">
        <ele>867.6</ele>
        <time>2021-06-26T08:56:53Z</time>
      </trkpt>
      <trkpt lat="46.20807" lon="6.67396">
        <ele>867.6</ele>
        <time>2021-06-26T08:56:54Z</time>
      </trkpt>
      <trkpt lat="46.20801" lon="6.674">
        <ele>868</ele>
        <time>2021-06-26T08:56:55Z</time>
      </trkpt>
      <trkpt lat="46.20795" lon="6.67404">
        <ele>868</ele>
        <time>2021-06-26T08:56:56Z</time>
      </trkpt>
      <trkpt lat="46.20789" lon="6.67408">
        <ele>868.2</ele>
        <time>2021-06-26T08:56:57Z</time>
      </trkpt>
      <trkpt lat="46.20783" lon="6.67412">
        <ele>868.2</ele>
        <time>2021-06-26T08:56:58Z</time>
      </trkpt>
      <trkpt lat="46.20777" lon="6.67416">
        <ele>868.2</ele>
        <time>2021-06-26T08:56:59Z</time>
      </trkpt>
      <trkpt lat="46.20771" lon="6.6742">
        <ele>868.6</ele>
        <time>2021-06-26T08:57:00Z</time>
      </trkpt>
      <trkpt lat="46.20765" lon="6.67424">
        <ele>868.8</ele>
        <time>2021-06-26T08:57:01Z</time>
      </trkpt>
      <trkpt lat="46.20759" lon="6.67428">
        <ele>868.6</ele>
        <time>2021-06-26T08:57:02Z</time>
      </trkpt>
      <trkpt lat="46.20754" lon="6.67432">
        <ele>868.8</ele>
        <time>2021-06-26T08:57:03Z</time>
      </trkpt>
      <trkpt lat="46.20748" lon="6.67436">
        <ele>868.8</ele>
        <time>2021-06-26T08:57:04Z</time>
      </trkpt>
      <trkpt lat="46.20742" lon="6.6744">
        <ele>869</ele>
        <time>2021-06-26T08:57:05Z</time>
      </trkpt>
      <trkpt lat="46.20737" lon="6.67443">
        <ele>869.2</ele>
        <time>2021-06-26T08:57:06Z</time>
      </trkpt>
      <trkpt lat="46.20731" lon="6.67445">
        <ele>869.2</ele>
        <time>2021-06-26T08:57:07Z</time>
      </trkpt>
      <trkpt lat="46.20725" lon="6.67446">
        <ele>869.4</ele>
        <time>2021-06-26T08:57:08Z</time>
      </trkpt>
      <trkpt lat="46.2072" lon="6.67446">
        <ele>869.6</ele>
        <time>2021-06-26T08:57:09Z</time>
      </trkpt>
      <trkpt lat="46.20714" lon="6.67446">
        <ele>869.6</ele>
        <time>2021-06-26T08:57:10Z</time>
      </trkpt>
      <trkpt lat="46.2071" lon="6.67449">
        <ele>869.6</ele>
        <time>2021-06-26T08:57:11Z</time>
      </trkpt>
      <trkpt lat="46.20705" lon="6.67454">
        <ele>869.8</ele>
        <time>2021-06-26T08:57:12Z</time>
      </trkpt>
      <trkpt lat="46.20701" lon="6.6746">
        <ele>870</ele>
        <time>2021-06-26T08:57:13Z</time>
      </trkpt>
      <trkpt lat="46.20697" lon="6.67465">
        <ele>870</ele>
        <time>2021-06-26T08:57:14Z</time>
      </trkpt>
      <trkpt lat="46.20693" lon="6.6747">
        <ele>870.2</ele>
        <time>2021-06-26T08:57:15Z</time>
      </trkpt>
      <trkpt lat="46.20688" lon="6.67473">
        <ele>870</ele>
        <time>2021-06-26T08:57:16Z</time>
      </trkpt>
      <trkpt lat="46.20683" lon="6.67477">
        <ele>870.2</ele>
        <time>2021-06-26T08:57:17Z</time>
      </trkpt>
      <trkpt lat="46.20673" lon="6.67482">
        <ele>870.2</ele>
        <time>2021-06-26T08:57:19Z</time>
      </trkpt>
      <trkpt lat="46.20668" lon="6.67485">
        <ele>870.2</ele>
        <time>2021-06-26T08:57:20Z</time>
      </trkpt>
      <trkpt lat="46.20659" lon="6.67491">
        <ele>870.6</ele>
        <time>2021-06-26T08:57:22Z</time>
      </trkpt>
      <trkpt lat="46.20643" lon="6.67502">
        <ele>870.8</ele>
        <time>2021-06-26T08:57:25Z</time>
      </trkpt>
      <trkpt lat="46.20638" lon="6.67505">
        <ele>871</ele>
        <time>2021-06-26T08:57:26Z</time>
      </trkpt>
      <trkpt lat="46.20633" lon="6.67509">
        <ele>871</ele>
        <time>2021-06-26T08:57:27Z</time>
      </trkpt>
      <trkpt lat="46.20629" lon="6.67512">
        <ele>871.2</ele>
        <time>2021-06-26T08:57:28Z</time>
      </trkpt>
      <trkpt lat="46.20624" lon="6.67516">
        <ele>871.4</ele>
        <time>2021-06-26T08:57:29Z</time>
      </trkpt>
      <trkpt lat="46.20619" lon="6.67519">
        <ele>871.4</ele>
        <time>2021-06-26T08:57:30Z</time>
      </trkpt>
      <trkpt lat="46.20614" lon="6.67522">
        <ele>871.4</ele>
        <time>2021-06-26T08:57:31Z</time>
      </trkpt>
      <trkpt lat="46.20608" lon="6.67526">
        <ele>871.6</ele>
        <time>2021-06-26T08:57:32Z</time>
      </trkpt>
      <trkpt lat="46.20603" lon="6.6753">
        <ele>871.8</ele>
        <time>2021-06-26T08:57:33Z</time>
      </trkpt>
      <trkpt lat="46.20594" lon="6.67535">
        <ele>872.2</ele>
        <time>2021-06-26T08:57:35Z</time>
      </trkpt>
      <trkpt lat="46.20589" lon="6.67538">
        <ele>872.2</ele>
        <time>2021-06-26T08:57:36Z</time>
      </trkpt>
      <trkpt lat="46.20584" lon="6.67542">
        <ele>872.4</ele>
        <time>2021-06-26T08:57:37Z</time>
      </trkpt>
      <trkpt lat="46.20574" lon="6.67549">
        <ele>872.6</ele>
        <time>2021-06-26T08:57:39Z</time>
      </trkpt>
      <trkpt lat="46.20558" lon="6.67562">
        <ele>872.8</ele>
        <time>2021-06-26T08:57:42Z</time>
      </trkpt>
      <trkpt lat="46.20552" lon="6.67565">
        <ele>873</ele>
        <time>2021-06-26T08:57:43Z</time>
      </trkpt>
      <trkpt lat="46.20547" lon="6.67569">
        <ele>873</ele>
        <time>2021-06-26T08:57:44Z</time>
      </trkpt>
      <trkpt lat="46.20541" lon="6.67572">
        <ele>873</ele>
        <time>2021-06-26T08:57:45Z</time>
      </trkpt>
      <trkpt lat="46.20536" lon="6.67576">
        <ele>873.2</ele>
        <time>2021-06-26T08:57:46Z</time>
      </trkpt>
      <trkpt lat="46.20531" lon="6.67579">
        <ele>873.4</ele>
        <time>2021-06-26T08:57:47Z</time>
      </trkpt>
      <trkpt lat="46.20526" lon="6.67582">
        <ele>873.6</ele>
        <time>2021-06-26T08:57:48Z</time>
      </trkpt>
      <trkpt lat="46.20521" lon="6.67586">
        <ele>873.6</ele>
        <time>2021-06-26T08:57:49Z</time>
      </trkpt>
      <trkpt lat="46.20516" lon="6.67589">
        <ele>873.6</ele>
        <time>2021-06-26T08:57:50Z</time>
      </trkpt>
      <trkpt lat="46.2051" lon="6.67593">
        <ele>873.8</ele>
        <time>2021-06-26T08:57:51Z</time>
      </trkpt>
      <trkpt lat="46.20505" lon="6.67596">
        <ele>874.2</ele>
        <time>2021-06-26T08:57:52Z</time>
      </trkpt>
      <trkpt lat="46.205" lon="6.676">
        <ele>874.6</ele>
        <time>2021-06-26T08:57:53Z</time>
      </trkpt>
      <trkpt lat="46.20495" lon="6.67603">
        <ele>874.8</ele>
        <time>2021-06-26T08:57:54Z</time>
      </trkpt>
      <trkpt lat="46.20491" lon="6.67606">
        <ele>875</ele>
        <time>2021-06-26T08:57:55Z</time>
      </trkpt>
      <trkpt lat="46.20485" lon="6.67609">
        <ele>875</ele>
        <time>2021-06-26T08:57:56Z</time>
      </trkpt>
      <trkpt lat="46.2048" lon="6.67612">
        <ele>875.2</ele>
        <time>2021-06-26T08:57:57Z</time>
      </trkpt>
      <trkpt lat="46.20475" lon="6.67615">
        <ele>875.4</ele>
        <time>2021-06-26T08:57:58Z</time>
      </trkpt>
      <trkpt lat="46.2047" lon="6.67618">
        <ele>875.6</ele>
        <time>2021-06-26T08:57:59Z</time>
      </trkpt>
      <trkpt lat="46.20465" lon="6.67621">
        <ele>875.8</ele>
        <time>2021-06-26T08:58:00Z</time>
      </trkpt>
      <trkpt lat="46.2046" lon="6.67623">
        <ele>876</ele>
        <time>2021-06-26T08:58:01Z</time>
      </trkpt>
      <trkpt lat="46.20456" lon="6.67626">
        <ele>876</ele>
        <time>2021-06-26T08:58:02Z</time>
      </trkpt>
      <trkpt lat="46.20451" lon="6.67629">
        <ele>876</ele>
        <time>2021-06-26T08:58:03Z</time>
      </trkpt>
      <trkpt lat="46.20446" lon="6.67632">
        <ele>876.2</ele>
        <time>2021-06-26T08:58:04Z</time>
      </trkpt>
      <trkpt lat="46.20441" lon="6.67634">
        <ele>876.2</ele>
        <time>2021-06-26T08:58:05Z</time>
      </trkpt>
      <trkpt lat="46.20439" lon="6.67636">
        <ele>876.4</ele>
        <time>2021-06-26T08:58:06Z</time>
      </trkpt>
      <trkpt lat="46.20436" lon="6.67637">
        <ele>876.8</ele>
        <time>2021-06-26T08:58:07Z</time>
      </trkpt>
      <trkpt lat="46.20431" lon="6.67641">
        <ele>877</ele>
        <time>2021-06-26T08:58:08Z</time>
      </trkpt>
      <trkpt lat="46.20426" lon="6.67645">
        <ele>877.2</ele>
        <time>2021-06-26T08:58:09Z</time>
      </trkpt>
      <trkpt lat="46.20421" lon="6.67649">
        <ele>877.4</ele>
        <time>2021-06-26T08:58:10Z</time>
      </trkpt>
      <trkpt lat="46.20416" lon="6.67652">
        <ele>877.4</ele>
        <time>2021-06-26T08:58:11Z</time>
      </trkpt>
      <trkpt lat="46.20411" lon="6.67656">
        <ele>877.8</ele>
        <time>2021-06-26T08:58:12Z</time>
      </trkpt>
      <trkpt lat="46.20407" lon="6.67659">
        <ele>878</ele>
        <time>2021-06-26T08:58:13Z</time>
      </trkpt>
      <trkpt lat="46.20402" lon="6.67663">
        <ele>878.2</ele>
        <time>2021-06-26T08:58:14Z</time>
      </trkpt>
      <trkpt lat="46.20398" lon="6.67668">
        <ele>878.2</ele>
        <time>2021-06-26T08:58:15Z</time>
      </trkpt>
      <trkpt lat="46.20395" lon="6.67673">
        <ele>878.4</ele>
        <time>2021-06-26T08:58:16Z</time>
      </trkpt>
      <trkpt lat="46.20391" lon="6.67678">
        <ele>878.4</ele>
        <time>2021-06-26T08:58:17Z</time>
      </trkpt>
      <trkpt lat="46.20388" lon="6.67684">
        <ele>878.6</ele>
        <time>2021-06-26T08:58:18Z</time>
      </trkpt>
      <trkpt lat="46.20385" lon="6.6769">
        <ele>878.8</ele>
        <time>2021-06-26T08:58:19Z</time>
      </trkpt>
      <trkpt lat="46.20383" lon="6.67697">
        <ele>878.8</ele>
        <time>2021-06-26T08:58:20Z</time>
      </trkpt>
      <trkpt lat="46.2038" lon="6.67703">
        <ele>878.8</ele>
        <time>2021-06-26T08:58:21Z</time>
      </trkpt>
      <trkpt lat="46.20379" lon="6.6771">
        <ele>879</ele>
        <time>2021-06-26T08:58:22Z</time>
      </trkpt>
      <trkpt lat="46.20378" lon="6.67717">
        <ele>879.2</ele>
        <time>2021-06-26T08:58:23Z</time>
      </trkpt>
      <trkpt lat="46.20377" lon="6.67724">
        <ele>879.2</ele>
        <time>2021-06-26T08:58:24Z</time>
      </trkpt>
      <trkpt lat="46.20376" lon="6.67732">
        <ele>879.6</ele>
        <time>2021-06-26T08:58:25Z</time>
      </trkpt>
      <trkpt lat="46.20376" lon="6.67739">
        <ele>879.8</ele>
        <time>2021-06-26T08:58:26Z</time>
      </trkpt>
      <trkpt lat="46.20376" lon="6.67746">
        <ele>879.8</ele>
        <time>2021-06-26T08:58:27Z</time>
      </trkpt>
      <trkpt lat="46.20375" lon="6.67753">
        <ele>879.8</ele>
        <time>2021-06-26T08:58:28Z</time>
      </trkpt>
      <trkpt lat="46.20375" lon="6.6776">
        <ele>880.2</ele>
        <time>2021-06-26T08:58:29Z</time>
      </trkpt>
      <trkpt lat="46.20374" lon="6.67767">
        <ele>880.2</ele>
        <time>2021-06-26T08:58:30Z</time>
      </trkpt>
      <trkpt lat="46.20373" lon="6.67773">
        <ele>880.4</ele>
        <time>2021-06-26T08:58:31Z</time>
      </trkpt>
      <trkpt lat="46.2037" lon="6.6778">
        <ele>880.6</ele>
        <time>2021-06-26T08:58:32Z</time>
      </trkpt>
      <trkpt lat="46.20368" lon="6.67787">
        <ele>880.6</ele>
        <time>2021-06-26T08:58:33Z</time>
      </trkpt>
      <trkpt lat="46.20365" lon="6.67793">
        <ele>880.8</ele>
        <time>2021-06-26T08:58:34Z</time>
      </trkpt>
      <trkpt lat="46.20362" lon="6.67799">
        <ele>881</ele>
        <time>2021-06-26T08:58:35Z</time>
      </trkpt>
      <trkpt lat="46.20359" lon="6.67804">
        <ele>881.2</ele>
        <time>2021-06-26T08:58:36Z</time>
      </trkpt>
      <trkpt lat="46.20355" lon="6.67809">
        <ele>881.2</ele>
        <time>2021-06-26T08:58:37Z</time>
      </trkpt>
      <trkpt lat="46.20351" lon="6.67814">
        <ele>881.4</ele>
        <time>2021-06-26T08:58:38Z</time>
      </trkpt>
      <trkpt lat="46.20347" lon="6.67819">
        <ele>881.6</ele>
        <time>2021-06-26T08:58:39Z</time>
      </trkpt>
      <trkpt lat="46.20344" lon="6.67824">
        <ele>881.4</ele>
        <time>2021-06-26T08:58:40Z</time>
      </trkpt>
      <trkpt lat="46.20339" lon="6.67828">
        <ele>881.8</ele>
        <time>2021-06-26T08:58:41Z</time>
      </trkpt>
      <trkpt lat="46.20335" lon="6.67832">
        <ele>881.8</ele>
        <time>2021-06-26T08:58:42Z</time>
      </trkpt>
      <trkpt lat="46.20331" lon="6.67836">
        <ele>882</ele>
        <time>2021-06-26T08:58:43Z</time>
      </trkpt>
      <trkpt lat="46.20327" lon="6.67839">
        <ele>882</ele>
        <time>2021-06-26T08:58:44Z</time>
      </trkpt>
      <trkpt lat="46.20324" lon="6.67843">
        <ele>882.2</ele>
        <time>2021-06-26T08:58:45Z</time>
      </trkpt>
      <trkpt lat="46.2032" lon="6.67847">
        <ele>882.4</ele>
        <time>2021-06-26T08:58:46Z</time>
      </trkpt>
      <trkpt lat="46.20316" lon="6.6785">
        <ele>882.4</ele>
        <time>2021-06-26T08:58:47Z</time>
      </trkpt>
      <trkpt lat="46.20312" lon="6.67855">
        <ele>882.4</ele>
        <time>2021-06-26T08:58:48Z</time>
      </trkpt>
      <trkpt lat="46.20309" lon="6.67861">
        <ele>882.6</ele>
        <time>2021-06-26T08:58:49Z</time>
      </trkpt>
      <trkpt lat="46.20306" lon="6.67866">
        <ele>882.8</ele>
        <time>2021-06-26T08:58:50Z</time>
      </trkpt>
      <trkpt lat="46.20303" lon="6.67872">
        <ele>882.8</ele>
        <time>2021-06-26T08:58:51Z</time>
      </trkpt>
      <trkpt lat="46.203" lon="6.67878">
        <ele>883</ele>
        <time>2021-06-26T08:58:52Z</time>
      </trkpt>
      <trkpt lat="46.20297" lon="6.67883">
        <ele>883.2</ele>
        <time>2021-06-26T08:58:53Z</time>
      </trkpt>
      <trkpt lat="46.20294" lon="6.6789">
        <ele>883.2</ele>
        <time>2021-06-26T08:58:54Z</time>
      </trkpt>
      <trkpt lat="46.20292" lon="6.67896">
        <ele>883.4</ele>
        <time>2021-06-26T08:58:55Z</time>
      </trkpt>
      <trkpt lat="46.20291" lon="6.67903">
        <ele>883.6</ele>
        <time>2021-06-26T08:58:56Z</time>
      </trkpt>
      <trkpt lat="46.20289" lon="6.6791">
        <ele>883.8</ele>
        <time>2021-06-26T08:58:57Z</time>
      </trkpt>
      <trkpt lat="46.20288" lon="6.67918">
        <ele>884</ele>
        <time>2021-06-26T08:58:58Z</time>
      </trkpt>
      <trkpt lat="46.20286" lon="6.67925">
        <ele>884.2</ele>
        <time>2021-06-26T08:58:59Z</time>
      </trkpt>
      <trkpt lat="46.20284" lon="6.67932">
        <ele>884.4</ele>
        <time>2021-06-26T08:59:00Z</time>
      </trkpt>
      <trkpt lat="46.20283" lon="6.67939">
        <ele>884.6</ele>
        <time>2021-06-26T08:59:01Z</time>
      </trkpt>
      <trkpt lat="46.20281" lon="6.67946">
        <ele>884.8</ele>
        <time>2021-06-26T08:59:02Z</time>
      </trkpt>
      <trkpt lat="46.2028" lon="6.67952">
        <ele>885</ele>
        <time>2021-06-26T08:59:03Z</time>
      </trkpt>
      <trkpt lat="46.20279" lon="6.67959">
        <ele>885.2</ele>
        <time>2021-06-26T08:59:04Z</time>
      </trkpt>
      <trkpt lat="46.20278" lon="6.67966">
        <ele>885.4</ele>
        <time>2021-06-26T08:59:05Z</time>
      </trkpt>
      <trkpt lat="46.20278" lon="6.67973">
        <ele>885.6</ele>
        <time>2021-06-26T08:59:06Z</time>
      </trkpt>
      <trkpt lat="46.20278" lon="6.67979">
        <ele>885.8</ele>
        <time>2021-06-26T08:59:07Z</time>
      </trkpt>
      <trkpt lat="46.20278" lon="6.67986">
        <ele>885.8</ele>
        <time>2021-06-26T08:59:08Z</time>
      </trkpt>
      <trkpt lat="46.20278" lon="6.67994">
        <ele>886.2</ele>
        <time>2021-06-26T08:59:09Z</time>
      </trkpt>
      <trkpt lat="46.20278" lon="6.68002">
        <ele>886.2</ele>
        <time>2021-06-26T08:59:10Z</time>
      </trkpt>
      <trkpt lat="46.20279" lon="6.6801">
        <ele>886.4</ele>
        <time>2021-06-26T08:59:11Z</time>
      </trkpt>
      <trkpt lat="46.20279" lon="6.68018">
        <ele>886.6</ele>
        <time>2021-06-26T08:59:12Z</time>
      </trkpt>
      <trkpt lat="46.20279" lon="6.68026">
        <ele>887</ele>
        <time>2021-06-26T08:59:13Z</time>
      </trkpt>
      <trkpt lat="46.20279" lon="6.68034">
        <ele>887</ele>
        <time>2021-06-26T08:59:14Z</time>
      </trkpt>
      <trkpt lat="46.20279" lon="6.68041">
        <ele>887.2</ele>
        <time>2021-06-26T08:59:15Z</time>
      </trkpt>
      <trkpt lat="46.20279" lon="6.68049">
        <ele>887.4</ele>
        <time>2021-06-26T08:59:16Z</time>
      </trkpt>
      <trkpt lat="46.20278" lon="6.68057">
        <ele>887.4</ele>
        <time>2021-06-26T08:59:17Z</time>
      </trkpt>
      <trkpt lat="46.20276" lon="6.68064">
        <ele>887.4</ele>
        <time>2021-06-26T08:59:18Z</time>
      </trkpt>
      <trkpt lat="46.20275" lon="6.68071">
        <ele>887.6</ele>
        <time>2021-06-26T08:59:19Z</time>
      </trkpt>
      <trkpt lat="46.20273" lon="6.68078">
        <ele>887.8</ele>
        <time>2021-06-26T08:59:20Z</time>
      </trkpt>
      <trkpt lat="46.20272" lon="6.68085">
        <ele>888</ele>
        <time>2021-06-26T08:59:21Z</time>
      </trkpt>
      <trkpt lat="46.2027" lon="6.68092">
        <ele>888</ele>
        <time>2021-06-26T08:59:22Z</time>
      </trkpt>
      <trkpt lat="46.20269" lon="6.681">
        <ele>888.2</ele>
        <time>2021-06-26T08:59:23Z</time>
      </trkpt>
      <trkpt lat="46.20267" lon="6.68107">
        <ele>888.2</ele>
        <time>2021-06-26T08:59:24Z</time>
      </trkpt>
      <trkpt lat="46.20266" lon="6.68114">
        <ele>888.4</ele>
        <time>2021-06-26T08:59:25Z</time>
      </trkpt>
      <trkpt lat="46.20264" lon="6.68121">
        <ele>888.4</ele>
        <time>2021-06-26T08:59:26Z</time>
      </trkpt>
      <trkpt lat="46.20262" lon="6.68129">
        <ele>888.6</ele>
        <time>2021-06-26T08:59:27Z</time>
      </trkpt>
      <trkpt lat="46.20261" lon="6.68136">
        <ele>888.8</ele>
        <time>2021-06-26T08:59:28Z</time>
      </trkpt>
      <trkpt lat="46.2026" lon="6.68144">
        <ele>888.8</ele>
        <time>2021-06-26T08:59:29Z</time>
      </trkpt>
      <trkpt lat="46.20259" lon="6.68152">
        <ele>888.8</ele>
        <time>2021-06-26T08:59:30Z</time>
      </trkpt>
      <trkpt lat="46.20258" lon="6.6816">
        <ele>888.8</ele>
        <time>2021-06-26T08:59:31Z</time>
      </trkpt>
      <trkpt lat="46.20256" lon="6.68168">
        <ele>889</ele>
        <time>2021-06-26T08:59:32Z</time>
      </trkpt>
      <trkpt lat="46.20255" lon="6.68176">
        <ele>889</ele>
        <time>2021-06-26T08:59:33Z</time>
      </trkpt>
      <trkpt lat="46.20254" lon="6.68184">
        <ele>889.2</ele>
        <time>2021-06-26T08:59:34Z</time>
      </trkpt>
      <trkpt lat="46.20253" lon="6.68193">
        <ele>889.2</ele>
        <time>2021-06-26T08:59:35Z</time>
      </trkpt>
      <trkpt lat="46.20251" lon="6.68201">
        <ele>889.2</ele>
        <time>2021-06-26T08:59:36Z</time>
      </trkpt>
      <trkpt lat="46.2025" lon="6.68209">
        <ele>889.4</ele>
        <time>2021-06-26T08:59:37Z</time>
      </trkpt>
      <trkpt lat="46.20244" lon="6.68243">
        <ele>889.6</ele>
        <time>2021-06-26T08:59:41Z</time>
      </trkpt>
      <trkpt lat="46.20243" lon="6.6826">
        <ele>889.8</ele>
        <time>2021-06-26T08:59:43Z</time>
      </trkpt>
      <trkpt lat="46.20242" lon="6.68268">
        <ele>889.8</ele>
        <time>2021-06-26T08:59:44Z</time>
      </trkpt>
      <trkpt lat="46.2024" lon="6.68276">
        <ele>889.8</ele>
        <time>2021-06-26T08:59:45Z</time>
      </trkpt>
      <trkpt lat="46.20238" lon="6.68284">
        <ele>889.8</ele>
        <time>2021-06-26T08:59:46Z</time>
      </trkpt>
      <trkpt lat="46.20232" lon="6.68298">
        <ele>890</ele>
        <time>2021-06-26T08:59:48Z</time>
      </trkpt>
      <trkpt lat="46.20228" lon="6.68303">
        <ele>890.2</ele>
        <time>2021-06-26T08:59:49Z</time>
      </trkpt>
      <trkpt lat="46.20223" lon="6.68308">
        <ele>890.2</ele>
        <time>2021-06-26T08:59:50Z</time>
      </trkpt>
      <trkpt lat="46.20217" lon="6.68312">
        <ele>890.4</ele>
        <time>2021-06-26T08:59:51Z</time>
      </trkpt>
      <trkpt lat="46.20211" lon="6.68314">
        <ele>890.4</ele>
        <time>2021-06-26T08:59:52Z</time>
      </trkpt>
      <trkpt lat="46.20205" lon="6.68314">
        <ele>890.4</ele>
        <time>2021-06-26T08:59:53Z</time>
      </trkpt>
      <trkpt lat="46.20199" lon="6.68315">
        <ele>890.6</ele>
        <time>2021-06-26T08:59:54Z</time>
      </trkpt>
      <trkpt lat="46.20193" lon="6.68319">
        <ele>890.6</ele>
        <time>2021-06-26T08:59:55Z</time>
      </trkpt>
      <trkpt lat="46.20189" lon="6.68325">
        <ele>890.6</ele>
        <time>2021-06-26T08:59:56Z</time>
      </trkpt>
      <trkpt lat="46.20187" lon="6.68332">
        <ele>890.8</ele>
        <time>2021-06-26T08:59:57Z</time>
      </trkpt>
      <trkpt lat="46.20184" lon="6.6834">
        <ele>890.8</ele>
        <time>2021-06-26T08:59:58Z</time>
      </trkpt>
      <trkpt lat="46.20182" lon="6.68348">
        <ele>890.8</ele>
        <time>2021-06-26T08:59:59Z</time>
      </trkpt>
      <trkpt lat="46.20179" lon="6.68353">
        <ele>890.8</ele>
        <time>2021-06-26T09:00:00Z</time>
      </trkpt>
      <trkpt lat="46.20177" lon="6.68358">
        <ele>891</ele>
        <time>2021-06-26T09:00:01Z</time>
      </trkpt>
      <trkpt lat="46.20175" lon="6.6836">
        <ele>891</ele>
        <time>2021-06-26T09:00:02Z</time>
      </trkpt>
      <trkpt lat="46.20175" lon="6.68362">
        <ele>891.2</ele>
        <time>2021-06-26T09:00:03Z</time>
      </trkpt>
      <trkpt lat="46.20176" lon="6.68362">
        <ele>892</ele>
        <time>2021-06-26T09:00:09Z</time>
      </trkpt>
      <trkpt lat="46.20176" lon="6.68362">
        <ele>892.8</ele>
        <time>2021-06-26T09:00:12Z</time>
      </trkpt>
      <trkpt lat="46.20176" lon="6.68363">
        <ele>892.8</ele>
        <time>2021-06-26T09:00:13Z</time>
      </trkpt>
      <trkpt lat="46.20175" lon="6.68365">
        <ele>893</ele>
        <time>2021-06-26T09:00:14Z</time>
      </trkpt>
      <trkpt lat="46.20172" lon="6.6837">
        <ele>893</ele>
        <time>2021-06-26T09:00:17Z</time>
      </trkpt>
      <trkpt lat="46.20162" lon="6.68382">
        <ele>893</ele>
        <time>2021-06-26T09:00:22Z</time>
      </trkpt>
      <trkpt lat="46.20148" lon="6.68395">
        <ele>893.2</ele>
        <time>2021-06-26T09:00:26Z</time>
      </trkpt>
      <trkpt lat="46.2014" lon="6.68404">
        <ele>893.2</ele>
        <time>2021-06-26T09:00:28Z</time>
      </trkpt>
      <trkpt lat="46.20134" lon="6.68415">
        <ele>893.4</ele>
        <time>2021-06-26T09:00:30Z</time>
      </trkpt>
      <trkpt lat="46.20128" lon="6.68435">
        <ele>893.4</ele>
        <time>2021-06-26T09:00:33Z</time>
      </trkpt>
      <trkpt lat="46.20124" lon="6.68449">
        <ele>893.6</ele>
        <time>2021-06-26T09:00:35Z</time>
      </trkpt>
      <trkpt lat="46.20123" lon="6.68453">
        <ele>893.8</ele>
        <time>2021-06-26T09:00:36Z</time>
      </trkpt>
      <trkpt lat="46.20121" lon="6.68454">
        <ele>893.6</ele>
        <time>2021-06-26T09:00:37Z</time>
      </trkpt>
      <trkpt lat="46.20118" lon="6.68453">
        <ele>893.8</ele>
        <time>2021-06-26T09:00:38Z</time>
      </trkpt>
      <trkpt lat="46.20117" lon="6.68451">
        <ele>893.8</ele>
        <time>2021-06-26T09:00:39Z</time>
      </trkpt>
      <trkpt lat="46.20115" lon="6.68449">
        <ele>893.8</ele>
        <time>2021-06-26T09:00:40Z</time>
      </trkpt>
      <trkpt lat="46.20114" lon="6.68447">
        <ele>893.8</ele>
        <time>2021-06-26T09:00:41Z</time>
      </trkpt>
      <trkpt lat="46.20114" lon="6.68443">
        <ele>894</ele>
        <time>2021-06-26T09:00:42Z</time>
      </trkpt>
      <trkpt lat="46.20116" lon="6.68437">
        <ele>894</ele>
        <time>2021-06-26T09:00:44Z</time>
      </trkpt>
      <trkpt lat="46.20117" lon="6.68434">
        <ele>894</ele>
        <time>2021-06-26T09:00:45Z</time>
      </trkpt>
      <trkpt lat="46.20119" lon="6.68431">
        <ele>893.8</ele>
        <time>2021-06-26T09:00:46Z</time>
      </trkpt>
      <trkpt lat="46.2012" lon="6.68428">
        <ele>893.8</ele>
        <time>2021-06-26T09:00:47Z</time>
      </trkpt>
      <trkpt lat="46.20122" lon="6.68426">
        <ele>893.8</ele>
        <time>2021-06-26T09:00:48Z</time>
      </trkpt>
      <trkpt lat="46.20123" lon="6.68425">
        <ele>893.8</ele>
        <time>2021-06-26T09:00:49Z</time>
      </trkpt>
      <trkpt lat="46.20125" lon="6.68425">
        <ele>893.8</ele>
        <time>2021-06-26T09:00:50Z</time>
      </trkpt>
      <trkpt lat="46.20126" lon="6.68425">
        <ele>893.6</ele>
        <time>2021-06-26T09:00:51Z</time>
      </trkpt>
      <trkpt lat="46.20127" lon="6.68426">
        <ele>893.8</ele>
        <time>2021-06-26T09:00:52Z</time>
      </trkpt>
      <trkpt lat="46.20128" lon="6.68426">
        <ele>893.8</ele>
        <time>2021-06-26T09:00:55Z</time>
      </trkpt>
      <trkpt lat="46.2013" lon="6.68426">
        <ele>894.4</ele>
        <time>2021-06-26T09:01:13Z</time>
      </trkpt>
      <trkpt lat="46.20131" lon="6.68429">
        <ele>894.4</ele>
        <time>2021-06-26T09:01:27Z</time>
      </trkpt>
      <trkpt lat="46.20136" lon="6.68432">
        <ele>894.2</ele>
        <time>2021-06-26T09:01:30Z</time>
      </trkpt>
      <trkpt lat="46.20139" lon="6.68434">
        <ele>894.2</ele>
        <time>2021-06-26T09:01:31Z</time>
      </trkpt>
      <trkpt lat="46.20142" lon="6.68435">
        <ele>894.4</ele>
        <time>2021-06-26T09:01:32Z</time>
      </trkpt>
      <trkpt lat="46.20144" lon="6.68436">
        <ele>894.2</ele>
        <time>2021-06-26T09:01:33Z</time>
      </trkpt>
      <trkpt lat="46.20147" lon="6.68437">
        <ele>894.4</ele>
        <time>2021-06-26T09:01:34Z</time>
      </trkpt>
      <trkpt lat="46.20149" lon="6.6844">
        <ele>894.4</ele>
        <time>2021-06-26T09:01:35Z</time>
      </trkpt>
      <trkpt lat="46.2015" lon="6.68444">
        <ele>894.4</ele>
        <time>2021-06-26T09:01:36Z</time>
      </trkpt>
      <trkpt lat="46.20152" lon="6.68447">
        <ele>894.4</ele>
        <time>2021-06-26T09:01:37Z</time>
      </trkpt>
      <trkpt lat="46.20154" lon="6.68448">
        <ele>894.4</ele>
        <time>2021-06-26T09:01:38Z</time>
      </trkpt>
      <trkpt lat="46.20156" lon="6.6845">
        <ele>894.2</ele>
        <time>2021-06-26T09:01:39Z</time>
      </trkpt>
      <trkpt lat="46.20157" lon="6.68452">
        <ele>894.4</ele>
        <time>2021-06-26T09:01:40Z</time>
      </trkpt>
      <trkpt lat="46.20158" lon="6.68455">
        <ele>894.6</ele>
        <time>2021-06-26T09:01:41Z</time>
      </trkpt>
      <trkpt lat="46.20158" lon="6.68459">
        <ele>894.8</ele>
        <time>2021-06-26T09:01:42Z</time>
      </trkpt>
      <trkpt lat="46.20159" lon="6.68462">
        <ele>894.8</ele>
        <time>2021-06-26T09:01:43Z</time>
      </trkpt>
      <trkpt lat="46.20159" lon="6.68466">
        <ele>895.4</ele>
        <time>2021-06-26T09:01:44Z</time>
      </trkpt>
      <trkpt lat="46.2016" lon="6.6847">
        <ele>896</ele>
        <time>2021-06-26T09:01:45Z</time>
      </trkpt>
      <trkpt lat="46.20161" lon="6.68474">
        <ele>896.6</ele>
        <time>2021-06-26T09:01:46Z</time>
      </trkpt>
      <trkpt lat="46.20162" lon="6.68478">
        <ele>897</ele>
        <time>2021-06-26T09:01:47Z</time>
      </trkpt>
      <trkpt lat="46.20163" lon="6.68482">
        <ele>897.2</ele>
        <time>2021-06-26T09:01:48Z</time>
      </trkpt>
      <trkpt lat="46.20164" lon="6.68486">
        <ele>897.4</ele>
        <time>2021-06-26T09:01:49Z</time>
      </trkpt>
      <trkpt lat="46.20164" lon="6.6849">
        <ele>897.6</ele>
        <time>2021-06-26T09:01:50Z</time>
      </trkpt>
      <trkpt lat="46.20164" lon="6.68494">
        <ele>897.8</ele>
        <time>2021-06-26T09:01:51Z</time>
      </trkpt>
      <trkpt lat="46.20165" lon="6.68498">
        <ele>898.4</ele>
        <time>2021-06-26T09:01:52Z</time>
      </trkpt>
      <trkpt lat="46.20166" lon="6.68502">
        <ele>898.6</ele>
        <time>2021-06-26T09:01:53Z</time>
      </trkpt>
      <trkpt lat="46.20167" lon="6.68507">
        <ele>898.6</ele>
        <time>2021-06-26T09:01:54Z</time>
      </trkpt>
      <trkpt lat="46.20167" lon="6.68511">
        <ele>899</ele>
        <time>2021-06-26T09:01:55Z</time>
      </trkpt>
      <trkpt lat="46.20167" lon="6.68515">
        <ele>899.4</ele>
        <time>2021-06-26T09:01:56Z</time>
      </trkpt>
      <trkpt lat="46.20167" lon="6.68519">
        <ele>899.8</ele>
        <time>2021-06-26T09:01:57Z</time>
      </trkpt>
      <trkpt lat="46.20167" lon="6.68523">
        <ele>900</ele>
        <time>2021-06-26T09:01:58Z</time>
      </trkpt>
      <trkpt lat="46.20167" lon="6.68528">
        <ele>900.4</ele>
        <time>2021-06-26T09:01:59Z</time>
      </trkpt>
      <trkpt lat="46.20166" lon="6.68532">
        <ele>900.8</ele>
        <time>2021-06-26T09:02:00Z</time>
      </trkpt>
      <trkpt lat="46.20166" lon="6.68536">
        <ele>901.2</ele>
        <time>2021-06-26T09:02:01Z</time>
      </trkpt>
      <trkpt lat="46.20165" lon="6.68539">
        <ele>901.4</ele>
        <time>2021-06-26T09:02:02Z</time>
      </trkpt>
      <trkpt lat="46.20163" lon="6.68543">
        <ele>901.8</ele>
        <time>2021-06-26T09:02:03Z</time>
      </trkpt>
      <trkpt lat="46.20162" lon="6.68547">
        <ele>902</ele>
        <time>2021-06-26T09:02:04Z</time>
      </trkpt>
      <trkpt lat="46.20161" lon="6.68551">
        <ele>902.6</ele>
        <time>2021-06-26T09:02:05Z</time>
      </trkpt>
      <trkpt lat="46.20161" lon="6.68555">
        <ele>902.8</ele>
        <time>2021-06-26T09:02:06Z</time>
      </trkpt>
      <trkpt lat="46.2016" lon="6.68559">
        <ele>903.2</ele>
        <time>2021-06-26T09:02:07Z</time>
      </trkpt>
      <trkpt lat="46.20159" lon="6.68563">
        <ele>903.4</ele>
        <time>2021-06-26T09:02:08Z</time>
      </trkpt>
      <trkpt lat="46.20158" lon="6.68567">
        <ele>903.8</ele>
        <time>2021-06-26T09:02:09Z</time>
      </trkpt>
      <trkpt lat="46.20157" lon="6.6857">
        <ele>903.8</ele>
        <time>2021-06-26T09:02:10Z</time>
      </trkpt>
      <trkpt lat="46.20157" lon="6.68573">
        <ele>904.2</ele>
        <time>2021-06-26T09:02:11Z</time>
      </trkpt>
      <trkpt lat="46.20156" lon="6.68577">
        <ele>904.4</ele>
        <time>2021-06-26T09:02:12Z</time>
      </trkpt>
      <trkpt lat="46.20156" lon="6.68581">
        <ele>904.8</ele>
        <time>2021-06-26T09:02:13Z</time>
      </trkpt>
      <trkpt lat="46.20156" lon="6.68585">
        <ele>905.2</ele>
        <time>2021-06-26T09:02:14Z</time>
      </trkpt>
      <trkpt lat="46.20155" lon="6.68588">
        <ele>905.6</ele>
        <time>2021-06-26T09:02:15Z</time>
      </trkpt>
      <trkpt lat="46.20155" lon="6.68592">
        <ele>905.8</ele>
        <time>2021-06-26T09:02:16Z</time>
      </trkpt>
      <trkpt lat="46.20155" lon="6.68596">
        <ele>905.8</ele>
        <time>2021-06-26T09:02:17Z</time>
      </trkpt>
      <trkpt lat="46.20154" lon="6.686">
        <ele>906.2</ele>
        <time>2021-06-26T09:02:18Z</time>
      </trkpt>
      <trkpt lat="46.20154" lon="6.68605">
        <ele>906.4</ele>
        <time>2021-06-26T09:02:19Z</time>
      </trkpt>
      <trkpt lat="46.20154" lon="6.68609">
        <ele>906.8</ele>
        <time>2021-06-26T09:02:20Z</time>
      </trkpt>
      <trkpt lat="46.20154" lon="6.68613">
        <ele>907</ele>
        <time>2021-06-26T09:02:21Z</time>
      </trkpt>
      <trkpt lat="46.20154" lon="6.68617">
        <ele>907.4</ele>
        <time>2021-06-26T09:02:22Z</time>
      </trkpt>
      <trkpt lat="46.20154" lon="6.68621">
        <ele>907.8</ele>
        <time>2021-06-26T09:02:23Z</time>
      </trkpt>
      <trkpt lat="46.20154" lon="6.68624">
        <ele>908</ele>
        <time>2021-06-26T09:02:24Z</time>
      </trkpt>
      <trkpt lat="46.20154" lon="6.68628">
        <ele>908.2</ele>
        <time>2021-06-26T09:02:25Z</time>
      </trkpt>
      <trkpt lat="46.20154" lon="6.68632">
        <ele>908.6</ele>
        <time>2021-06-26T09:02:26Z</time>
      </trkpt>
      <trkpt lat="46.20154" lon="6.68635">
        <ele>908.8</ele>
        <time>2021-06-26T09:02:27Z</time>
      </trkpt>
      <trkpt lat="46.20154" lon="6.68639">
        <ele>909.2</ele>
        <time>2021-06-26T09:02:28Z</time>
      </trkpt>
      <trkpt lat="46.20154" lon="6.68643">
        <ele>909.4</ele>
        <time>2021-06-26T09:02:29Z</time>
      </trkpt>
      <trkpt lat="46.20154" lon="6.68646">
        <ele>909.8</ele>
        <time>2021-06-26T09:02:30Z</time>
      </trkpt>
      <trkpt lat="46.20154" lon="6.6865">
        <ele>909.8</ele>
        <time>2021-06-26T09:02:31Z</time>
      </trkpt>
      <trkpt lat="46.20154" lon="6.68654">
        <ele>910.2</ele>
        <time>2021-06-26T09:02:32Z</time>
      </trkpt>
      <trkpt lat="46.20154" lon="6.68658">
        <ele>910.6</ele>
        <time>2021-06-26T09:02:33Z</time>
      </trkpt>
      <trkpt lat="46.20154" lon="6.68663">
        <ele>910.8</ele>
        <time>2021-06-26T09:02:34Z</time>
      </trkpt>
      <trkpt lat="46.20154" lon="6.68667">
        <ele>911</ele>
        <time>2021-06-26T09:02:35Z</time>
      </trkpt>
      <trkpt lat="46.20154" lon="6.68671">
        <ele>911.2</ele>
        <time>2021-06-26T09:02:36Z</time>
      </trkpt>
      <trkpt lat="46.20154" lon="6.68675">
        <ele>911.2</ele>
        <time>2021-06-26T09:02:37Z</time>
      </trkpt>
      <trkpt lat="46.20154" lon="6.68679">
        <ele>911.4</ele>
        <time>2021-06-26T09:02:38Z</time>
      </trkpt>
      <trkpt lat="46.20154" lon="6.68682">
        <ele>911.4</ele>
        <time>2021-06-26T09:02:39Z</time>
      </trkpt>
      <trkpt lat="46.20154" lon="6.68686">
        <ele>911.8</ele>
        <time>2021-06-26T09:02:40Z</time>
      </trkpt>
      <trkpt lat="46.20154" lon="6.6869">
        <ele>912</ele>
        <time>2021-06-26T09:02:41Z</time>
      </trkpt>
      <trkpt lat="46.20154" lon="6.68694">
        <ele>912.2</ele>
        <time>2021-06-26T09:02:42Z</time>
      </trkpt>
      <trkpt lat="46.20154" lon="6.68698">
        <ele>912.4</ele>
        <time>2021-06-26T09:02:43Z</time>
      </trkpt>
      <trkpt lat="46.20154" lon="6.68702">
        <ele>912.6</ele>
        <time>2021-06-26T09:02:44Z</time>
      </trkpt>
      <trkpt lat="46.20154" lon="6.68706">
        <ele>913</ele>
        <time>2021-06-26T09:02:45Z</time>
      </trkpt>
      <trkpt lat="46.20155" lon="6.68709">
        <ele>913</ele>
        <time>2021-06-26T09:02:46Z</time>
      </trkpt>
      <trkpt lat="46.20155" lon="6.68713">
        <ele>913.2</ele>
        <time>2021-06-26T09:02:47Z</time>
      </trkpt>
      <trkpt lat="46.20155" lon="6.68717">
        <ele>913.6</ele>
        <time>2021-06-26T09:02:48Z</time>
      </trkpt>
      <trkpt lat="46.20155" lon="6.68721">
        <ele>913.6</ele>
        <time>2021-06-26T09:02:49Z</time>
      </trkpt>
      <trkpt lat="46.20155" lon="6.68725">
        <ele>914</ele>
        <time>2021-06-26T09:02:50Z</time>
      </trkpt>
      <trkpt lat="46.20156" lon="6.68729">
        <ele>914.4</ele>
        <time>2021-06-26T09:02:51Z</time>
      </trkpt>
      <trkpt lat="46.20156" lon="6.68733">
        <ele>914.8</ele>
        <time>2021-06-26T09:02:52Z</time>
      </trkpt>
      <trkpt lat="46.20156" lon="6.68737">
        <ele>915</ele>
        <time>2021-06-26T09:02:53Z</time>
      </trkpt>
      <trkpt lat="46.20156" lon="6.6874">
        <ele>915.4</ele>
        <time>2021-06-26T09:02:54Z</time>
      </trkpt>
      <trkpt lat="46.20156" lon="6.68744">
        <ele>915.6</ele>
        <time>2021-06-26T09:02:55Z</time>
      </trkpt>
      <trkpt lat="46.20155" lon="6.68748">
        <ele>915.8</ele>
        <time>2021-06-26T09:02:56Z</time>
      </trkpt>
      <trkpt lat="46.20155" lon="6.68751">
        <ele>916</ele>
        <time>2021-06-26T09:02:57Z</time>
      </trkpt>
      <trkpt lat="46.20155" lon="6.68755">
        <ele>916.4</ele>
        <time>2021-06-26T09:02:58Z</time>
      </trkpt>
      <trkpt lat="46.20155" lon="6.68759">
        <ele>916.6</ele>
        <time>2021-06-26T09:02:59Z</time>
      </trkpt>
      <trkpt lat="46.20155" lon="6.68763">
        <ele>916.8</ele>
        <time>2021-06-26T09:03:00Z</time>
      </trkpt>
      <trkpt lat="46.20155" lon="6.68767">
        <ele>917</ele>
        <time>2021-06-26T09:03:01Z</time>
      </trkpt>
      <trkpt lat="46.20155" lon="6.6877">
        <ele>917</ele>
        <time>2021-06-26T09:03:02Z</time>
      </trkpt>
      <trkpt lat="46.20156" lon="6.68774">
        <ele>917.4</ele>
        <time>2021-06-26T09:03:03Z</time>
      </trkpt>
      <trkpt lat="46.20156" lon="6.68778">
        <ele>917.6</ele>
        <time>2021-06-26T09:03:04Z</time>
      </trkpt>
      <trkpt lat="46.20156" lon="6.68782">
        <ele>918</ele>
        <time>2021-06-26T09:03:05Z</time>
      </trkpt>
      <trkpt lat="46.20156" lon="6.68786">
        <ele>918.2</ele>
        <time>2021-06-26T09:03:06Z</time>
      </trkpt>
      <trkpt lat="46.20155" lon="6.6879">
        <ele>918.4</ele>
        <time>2021-06-26T09:03:07Z</time>
      </trkpt>
      <trkpt lat="46.20155" lon="6.68794">
        <ele>918.8</ele>
        <time>2021-06-26T09:03:08Z</time>
      </trkpt>
      <trkpt lat="46.20155" lon="6.68797">
        <ele>919</ele>
        <time>2021-06-26T09:03:09Z</time>
      </trkpt>
      <trkpt lat="46.20154" lon="6.68801">
        <ele>919.2</ele>
        <time>2021-06-26T09:03:10Z</time>
      </trkpt>
      <trkpt lat="46.20154" lon="6.68805">
        <ele>919.4</ele>
        <time>2021-06-26T09:03:11Z</time>
      </trkpt>
      <trkpt lat="46.20153" lon="6.68809">
        <ele>919.8</ele>
        <time>2021-06-26T09:03:12Z</time>
      </trkpt>
      <trkpt lat="46.20153" lon="6.68812">
        <ele>920.2</ele>
        <time>2021-06-26T09:03:13Z</time>
      </trkpt>
      <trkpt lat="46.20152" lon="6.68816">
        <ele>920.4</ele>
        <time>2021-06-26T09:03:14Z</time>
      </trkpt>
      <trkpt lat="46.20152" lon="6.6882">
        <ele>920.6</ele>
        <time>2021-06-26T09:03:15Z</time>
      </trkpt>
      <trkpt lat="46.20151" lon="6.68825">
        <ele>921</ele>
        <time>2021-06-26T09:03:16Z</time>
      </trkpt>
      <trkpt lat="46.20151" lon="6.68829">
        <ele>921.4</ele>
        <time>2021-06-26T09:03:17Z</time>
      </trkpt>
      <trkpt lat="46.2015" lon="6.68833">
        <ele>921.6</ele>
        <time>2021-06-26T09:03:18Z</time>
      </trkpt>
      <trkpt lat="46.2015" lon="6.68837">
        <ele>922</ele>
        <time>2021-06-26T09:03:19Z</time>
      </trkpt>
      <trkpt lat="46.2015" lon="6.68841">
        <ele>922.2</ele>
        <time>2021-06-26T09:03:20Z</time>
      </trkpt>
      <trkpt lat="46.20149" lon="6.68845">
        <ele>922.6</ele>
        <time>2021-06-26T09:03:21Z</time>
      </trkpt>
      <trkpt lat="46.20148" lon="6.68849">
        <ele>922.8</ele>
        <time>2021-06-26T09:03:22Z</time>
      </trkpt>
      <trkpt lat="46.20148" lon="6.68853">
        <ele>923.2</ele>
        <time>2021-06-26T09:03:23Z</time>
      </trkpt>
      <trkpt lat="46.20148" lon="6.68856">
        <ele>923.2</ele>
        <time>2021-06-26T09:03:24Z</time>
      </trkpt>
      <trkpt lat="46.20147" lon="6.6886">
        <ele>923.2</ele>
        <time>2021-06-26T09:03:25Z</time>
      </trkpt>
      <trkpt lat="46.20146" lon="6.68864">
        <ele>923.4</ele>
        <time>2021-06-26T09:03:26Z</time>
      </trkpt>
      <trkpt lat="46.20145" lon="6.68867">
        <ele>923.8</ele>
        <time>2021-06-26T09:03:27Z</time>
      </trkpt>
      <trkpt lat="46.20144" lon="6.6887">
        <ele>924</ele>
        <time>2021-06-26T09:03:28Z</time>
      </trkpt>
      <trkpt lat="46.20144" lon="6.68874">
        <ele>924.2</ele>
        <time>2021-06-26T09:03:29Z</time>
      </trkpt>
      <trkpt lat="46.20143" lon="6.68877">
        <ele>924.4</ele>
        <time>2021-06-26T09:03:30Z</time>
      </trkpt>
      <trkpt lat="46.20143" lon="6.68881">
        <ele>924.8</ele>
        <time>2021-06-26T09:03:31Z</time>
      </trkpt>
      <trkpt lat="46.20142" lon="6.68884">
        <ele>925</ele>
        <time>2021-06-26T09:03:32Z</time>
      </trkpt>
      <trkpt lat="46.20142" lon="6.68888">
        <ele>925.2</ele>
        <time>2021-06-26T09:03:33Z</time>
      </trkpt>
      <trkpt lat="46.20142" lon="6.68892">
        <ele>925.6</ele>
        <time>2021-06-26T09:03:34Z</time>
      </trkpt>
      <trkpt lat="46.20142" lon="6.68895">
        <ele>926</ele>
        <time>2021-06-26T09:03:35Z</time>
      </trkpt>
      <trkpt lat="46.20141" lon="6.68899">
        <ele>926.4</ele>
        <time>2021-06-26T09:03:36Z</time>
      </trkpt>
      <trkpt lat="46.20141" lon="6.68903">
        <ele>926.6</ele>
        <time>2021-06-26T09:03:37Z</time>
      </trkpt>
      <trkpt lat="46.20141" lon="6.68906">
        <ele>926.8</ele>
        <time>2021-06-26T09:03:38Z</time>
      </trkpt>
      <trkpt lat="46.20141" lon="6.6891">
        <ele>927</ele>
        <time>2021-06-26T09:03:39Z</time>
      </trkpt>
      <trkpt lat="46.20141" lon="6.68914">
        <ele>927.2</ele>
        <time>2021-06-26T09:03:40Z</time>
      </trkpt>
      <trkpt lat="46.2014" lon="6.68917">
        <ele>927.4</ele>
        <time>2021-06-26T09:03:41Z</time>
      </trkpt>
      <trkpt lat="46.2014" lon="6.68921">
        <ele>927.6</ele>
        <time>2021-06-26T09:03:42Z</time>
      </trkpt>
      <trkpt lat="46.2014" lon="6.68925">
        <ele>927.8</ele>
        <time>2021-06-26T09:03:43Z</time>
      </trkpt>
      <trkpt lat="46.2014" lon="6.68928">
        <ele>928.2</ele>
        <time>2021-06-26T09:03:44Z</time>
      </trkpt>
      <trkpt lat="46.2014" lon="6.68932">
        <ele>928.4</ele>
        <time>2021-06-26T09:03:45Z</time>
      </trkpt>
      <trkpt lat="46.2014" lon="6.68936">
        <ele>928.8</ele>
        <time>2021-06-26T09:03:46Z</time>
      </trkpt>
      <trkpt lat="46.2014" lon="6.6894">
        <ele>929</ele>
        <time>2021-06-26T09:03:47Z</time>
      </trkpt>
      <trkpt lat="46.20141" lon="6.68943">
        <ele>929</ele>
        <time>2021-06-26T09:03:48Z</time>
      </trkpt>
      <trkpt lat="46.20141" lon="6.68947">
        <ele>929.2</ele>
        <time>2021-06-26T09:03:49Z</time>
      </trkpt>
      <trkpt lat="46.20142" lon="6.68951">
        <ele>929.4</ele>
        <time>2021-06-26T09:03:50Z</time>
      </trkpt>
      <trkpt lat="46.20143" lon="6.68955">
        <ele>929.8</ele>
        <time>2021-06-26T09:03:51Z</time>
      </trkpt>
      <trkpt lat="46.20143" lon="6.68958">
        <ele>930</ele>
        <time>2021-06-26T09:03:52Z</time>
      </trkpt>
      <trkpt lat="46.20144" lon="6.68962">
        <ele>930.4</ele>
        <time>2021-06-26T09:03:53Z</time>
      </trkpt>
      <trkpt lat="46.20145" lon="6.68966">
        <ele>930.6</ele>
        <time>2021-06-26T09:03:54Z</time>
      </trkpt>
      <trkpt lat="46.20145" lon="6.68969">
        <ele>931</ele>
        <time>2021-06-26T09:03:55Z</time>
      </trkpt>
      <trkpt lat="46.20146" lon="6.68973">
        <ele>931</ele>
        <time>2021-06-26T09:03:56Z</time>
      </trkpt>
      <trkpt lat="46.20146" lon="6.68977">
        <ele>931.4</ele>
        <time>2021-06-26T09:03:57Z</time>
      </trkpt>
      <trkpt lat="46.20147" lon="6.6898">
        <ele>931.6</ele>
        <time>2021-06-26T09:03:58Z</time>
      </trkpt>
      <trkpt lat="46.20147" lon="6.68984">
        <ele>931.8</ele>
        <time>2021-06-26T09:03:59Z</time>
      </trkpt>
      <trkpt lat="46.20148" lon="6.68987">
        <ele>932</ele>
        <time>2021-06-26T09:04:00Z</time>
      </trkpt>
      <trkpt lat="46.20149" lon="6.68991">
        <ele>932</ele>
        <time>2021-06-26T09:04:01Z</time>
      </trkpt>
      <trkpt lat="46.20149" lon="6.68995">
        <ele>932.2</ele>
        <time>2021-06-26T09:04:02Z</time>
      </trkpt>
      <trkpt lat="46.2015" lon="6.68998">
        <ele>932.6</ele>
        <time>2021-06-26T09:04:03Z</time>
      </trkpt>
      <trkpt lat="46.2015" lon="6.69002">
        <ele>933</ele>
        <time>2021-06-26T09:04:04Z</time>
      </trkpt>
      <trkpt lat="46.20151" lon="6.69006">
        <ele>933.2</ele>
        <time>2021-06-26T09:04:05Z</time>
      </trkpt>
      <trkpt lat="46.20151" lon="6.69009">
        <ele>933.4</ele>
        <time>2021-06-26T09:04:06Z</time>
      </trkpt>
      <trkpt lat="46.20152" lon="6.69013">
        <ele>933.6</ele>
        <time>2021-06-26T09:04:07Z</time>
      </trkpt>
      <trkpt lat="46.20153" lon="6.69016">
        <ele>933.8</ele>
        <time>2021-06-26T09:04:08Z</time>
      </trkpt>
      <trkpt lat="46.20153" lon="6.6902">
        <ele>934.2</ele>
        <time>2021-06-26T09:04:09Z</time>
      </trkpt>
      <trkpt lat="46.20155" lon="6.69023">
        <ele>934.4</ele>
        <time>2021-06-26T09:04:10Z</time>
      </trkpt>
      <trkpt lat="46.20156" lon="6.69027">
        <ele>934.4</ele>
        <time>2021-06-26T09:04:11Z</time>
      </trkpt>
      <trkpt lat="46.20156" lon="6.6903">
        <ele>934.4</ele>
        <time>2021-06-26T09:04:12Z</time>
      </trkpt>
      <trkpt lat="46.20157" lon="6.69034">
        <ele>934.8</ele>
        <time>2021-06-26T09:04:13Z</time>
      </trkpt>
      <trkpt lat="46.20158" lon="6.69038">
        <ele>935.2</ele>
        <time>2021-06-26T09:04:14Z</time>
      </trkpt>
      <trkpt lat="46.20159" lon="6.69041">
        <ele>935</ele>
        <time>2021-06-26T09:04:15Z</time>
      </trkpt>
      <trkpt lat="46.20159" lon="6.69045">
        <ele>935.6</ele>
        <time>2021-06-26T09:04:16Z</time>
      </trkpt>
      <trkpt lat="46.2016" lon="6.69049">
        <ele>935.8</ele>
        <time>2021-06-26T09:04:17Z</time>
      </trkpt>
      <trkpt lat="46.20161" lon="6.69052">
        <ele>936.2</ele>
        <time>2021-06-26T09:04:18Z</time>
      </trkpt>
      <trkpt lat="46.20162" lon="6.69056">
        <ele>936.4</ele>
        <time>2021-06-26T09:04:19Z</time>
      </trkpt>
      <trkpt lat="46.20162" lon="6.6906">
        <ele>937</ele>
        <time>2021-06-26T09:04:20Z</time>
      </trkpt>
      <trkpt lat="46.20163" lon="6.69063">
        <ele>937.2</ele>
        <time>2021-06-26T09:04:21Z</time>
      </trkpt>
      <trkpt lat="46.20163" lon="6.69067">
        <ele>937.4</ele>
        <time>2021-06-26T09:04:22Z</time>
      </trkpt>
      <trkpt lat="46.20164" lon="6.69071">
        <ele>937.6</ele>
        <time>2021-06-26T09:04:23Z</time>
      </trkpt>
      <trkpt lat="46.20164" lon="6.69074">
        <ele>937.8</ele>
        <time>2021-06-26T09:04:24Z</time>
      </trkpt>
      <trkpt lat="46.20165" lon="6.69078">
        <ele>938.2</ele>
        <time>2021-06-26T09:04:25Z</time>
      </trkpt>
      <trkpt lat="46.20165" lon="6.69082">
        <ele>938.4</ele>
        <time>2021-06-26T09:04:26Z</time>
      </trkpt>
      <trkpt lat="46.20166" lon="6.69085">
        <ele>938.6</ele>
        <time>2021-06-26T09:04:27Z</time>
      </trkpt>
      <trkpt lat="46.20167" lon="6.69089">
        <ele>938.8</ele>
        <time>2021-06-26T09:04:28Z</time>
      </trkpt>
      <trkpt lat="46.20167" lon="6.69093">
        <ele>939</ele>
        <time>2021-06-26T09:04:29Z</time>
      </trkpt>
      <trkpt lat="46.20168" lon="6.69097">
        <ele>939.2</ele>
        <time>2021-06-26T09:04:30Z</time>
      </trkpt>
      <trkpt lat="46.20168" lon="6.691">
        <ele>939.8</ele>
        <time>2021-06-26T09:04:31Z</time>
      </trkpt>
      <trkpt lat="46.20169" lon="6.69104">
        <ele>940</ele>
        <time>2021-06-26T09:04:32Z</time>
      </trkpt>
      <trkpt lat="46.2017" lon="6.69108">
        <ele>940</ele>
        <time>2021-06-26T09:04:33Z</time>
      </trkpt>
      <trkpt lat="46.2017" lon="6.69112">
        <ele>940.4</ele>
        <time>2021-06-26T09:04:34Z</time>
      </trkpt>
      <trkpt lat="46.2017" lon="6.69115">
        <ele>940.8</ele>
        <time>2021-06-26T09:04:35Z</time>
      </trkpt>
      <trkpt lat="46.2017" lon="6.69119">
        <ele>940.8</ele>
        <time>2021-06-26T09:04:36Z</time>
      </trkpt>
      <trkpt lat="46.20171" lon="6.69123">
        <ele>941.2</ele>
        <time>2021-06-26T09:04:37Z</time>
      </trkpt>
      <trkpt lat="46.20171" lon="6.69126">
        <ele>941.4</ele>
        <time>2021-06-26T09:04:38Z</time>
      </trkpt>
      <trkpt lat="46.20172" lon="6.6913">
        <ele>941.6</ele>
        <time>2021-06-26T09:04:39Z</time>
      </trkpt>
      <trkpt lat="46.20172" lon="6.69134">
        <ele>941.8</ele>
        <time>2021-06-26T09:04:40Z</time>
      </trkpt>
      <trkpt lat="46.20172" lon="6.69138">
        <ele>941.8</ele>
        <time>2021-06-26T09:04:41Z</time>
      </trkpt>
      <trkpt lat="46.20173" lon="6.69143">
        <ele>942.2</ele>
        <time>2021-06-26T09:04:42Z</time>
      </trkpt>
      <trkpt lat="46.20174" lon="6.69147">
        <ele>942.6</ele>
        <time>2021-06-26T09:04:43Z</time>
      </trkpt>
      <trkpt lat="46.20174" lon="6.69151">
        <ele>943</ele>
        <time>2021-06-26T09:04:44Z</time>
      </trkpt>
      <trkpt lat="46.20175" lon="6.69156">
        <ele>943.2</ele>
        <time>2021-06-26T09:04:45Z</time>
      </trkpt>
      <trkpt lat="46.20176" lon="6.69161">
        <ele>943.6</ele>
        <time>2021-06-26T09:04:46Z</time>
      </trkpt>
      <trkpt lat="46.20177" lon="6.69166">
        <ele>943.6</ele>
        <time>2021-06-26T09:04:47Z</time>
      </trkpt>
      <trkpt lat="46.20178" lon="6.69171">
        <ele>943.8</ele>
        <time>2021-06-26T09:04:48Z</time>
      </trkpt>
      <trkpt lat="46.20179" lon="6.69176">
        <ele>944.2</ele>
        <time>2021-06-26T09:04:49Z</time>
      </trkpt>
      <trkpt lat="46.2018" lon="6.69181">
        <ele>944.2</ele>
        <time>2021-06-26T09:04:50Z</time>
      </trkpt>
      <trkpt lat="46.20181" lon="6.69186">
        <ele>944.4</ele>
        <time>2021-06-26T09:04:51Z</time>
      </trkpt>
      <trkpt lat="46.20181" lon="6.6919">
        <ele>944.8</ele>
        <time>2021-06-26T09:04:52Z</time>
      </trkpt>
      <trkpt lat="46.20182" lon="6.69195">
        <ele>945</ele>
        <time>2021-06-26T09:04:53Z</time>
      </trkpt>
      <trkpt lat="46.20183" lon="6.692">
        <ele>945.2</ele>
        <time>2021-06-26T09:04:54Z</time>
      </trkpt>
      <trkpt lat="46.20184" lon="6.69205">
        <ele>945.2</ele>
        <time>2021-06-26T09:04:55Z</time>
      </trkpt>
      <trkpt lat="46.20185" lon="6.6921">
        <ele>945.2</ele>
        <time>2021-06-26T09:04:56Z</time>
      </trkpt>
      <trkpt lat="46.20187" lon="6.69215">
        <ele>945.4</ele>
        <time>2021-06-26T09:04:57Z</time>
      </trkpt>
      <trkpt lat="46.20188" lon="6.69221">
        <ele>945.6</ele>
        <time>2021-06-26T09:04:58Z</time>
      </trkpt>
      <trkpt lat="46.2019" lon="6.69226">
        <ele>946</ele>
        <time>2021-06-26T09:04:59Z</time>
      </trkpt>
      <trkpt lat="46.20191" lon="6.69231">
        <ele>946</ele>
        <time>2021-06-26T09:05:00Z</time>
      </trkpt>
      <trkpt lat="46.20192" lon="6.69236">
        <ele>946.4</ele>
        <time>2021-06-26T09:05:01Z</time>
      </trkpt>
      <trkpt lat="46.20194" lon="6.69242">
        <ele>946.4</ele>
        <time>2021-06-26T09:05:02Z</time>
      </trkpt>
      <trkpt lat="46.20195" lon="6.69247">
        <ele>946.4</ele>
        <time>2021-06-26T09:05:03Z</time>
      </trkpt>
      <trkpt lat="46.20197" lon="6.69253">
        <ele>946.4</ele>
        <time>2021-06-26T09:05:04Z</time>
      </trkpt>
      <trkpt lat="46.20199" lon="6.69259">
        <ele>946.4</ele>
        <time>2021-06-26T09:05:05Z</time>
      </trkpt>
      <trkpt lat="46.20201" lon="6.69265">
        <ele>946.6</ele>
        <time>2021-06-26T09:05:06Z</time>
      </trkpt>
      <trkpt lat="46.20203" lon="6.6927">
        <ele>946.6</ele>
        <time>2021-06-26T09:05:07Z</time>
      </trkpt>
      <trkpt lat="46.20205" lon="6.69276">
        <ele>946.6</ele>
        <time>2021-06-26T09:05:08Z</time>
      </trkpt>
      <trkpt lat="46.20207" lon="6.69282">
        <ele>946.6</ele>
        <time>2021-06-26T09:05:09Z</time>
      </trkpt>
      <trkpt lat="46.20213" lon="6.693">
        <ele>946.8</ele>
        <time>2021-06-26T09:05:12Z</time>
      </trkpt>
      <trkpt lat="46.20217" lon="6.69312">
        <ele>946.8</ele>
        <time>2021-06-26T09:05:14Z</time>
      </trkpt>
      <trkpt lat="46.20222" lon="6.69324">
        <ele>946.8</ele>
        <time>2021-06-26T09:05:16Z</time>
      </trkpt>
      <trkpt lat="46.20236" lon="6.69367">
        <ele>947</ele>
        <time>2021-06-26T09:05:23Z</time>
      </trkpt>
      <trkpt lat="46.20239" lon="6.6938">
        <ele>947.2</ele>
        <time>2021-06-26T09:05:25Z</time>
      </trkpt>
      <trkpt lat="46.2024" lon="6.69386">
        <ele>947.6</ele>
        <time>2021-06-26T09:05:26Z</time>
      </trkpt>
      <trkpt lat="46.20241" lon="6.69393">
        <ele>947.6</ele>
        <time>2021-06-26T09:05:27Z</time>
      </trkpt>
      <trkpt lat="46.20242" lon="6.69399">
        <ele>947.6</ele>
        <time>2021-06-26T09:05:28Z</time>
      </trkpt>
      <trkpt lat="46.20244" lon="6.69412">
        <ele>947.6</ele>
        <time>2021-06-26T09:05:30Z</time>
      </trkpt>
      <trkpt lat="46.20244" lon="6.69418">
        <ele>947.8</ele>
        <time>2021-06-26T09:05:31Z</time>
      </trkpt>
      <trkpt lat="46.20244" lon="6.69424">
        <ele>948</ele>
        <time>2021-06-26T09:05:32Z</time>
      </trkpt>
      <trkpt lat="46.20244" lon="6.6943">
        <ele>948</ele>
        <time>2021-06-26T09:05:33Z</time>
      </trkpt>
      <trkpt lat="46.20244" lon="6.69436">
        <ele>948.4</ele>
        <time>2021-06-26T09:05:34Z</time>
      </trkpt>
      <trkpt lat="46.20244" lon="6.69441">
        <ele>948.4</ele>
        <time>2021-06-26T09:05:35Z</time>
      </trkpt>
      <trkpt lat="46.20244" lon="6.69446">
        <ele>948.8</ele>
        <time>2021-06-26T09:05:36Z</time>
      </trkpt>
      <trkpt lat="46.20244" lon="6.69451">
        <ele>949</ele>
        <time>2021-06-26T09:05:37Z</time>
      </trkpt>
      <trkpt lat="46.20243" lon="6.69456">
        <ele>949</ele>
        <time>2021-06-26T09:05:38Z</time>
      </trkpt>
      <trkpt lat="46.20241" lon="6.69461">
        <ele>949.4</ele>
        <time>2021-06-26T09:05:39Z</time>
      </trkpt>
      <trkpt lat="46.2024" lon="6.69466">
        <ele>949.6</ele>
        <time>2021-06-26T09:05:40Z</time>
      </trkpt>
      <trkpt lat="46.20239" lon="6.69471">
        <ele>949.6</ele>
        <time>2021-06-26T09:05:41Z</time>
      </trkpt>
      <trkpt lat="46.20238" lon="6.69477">
        <ele>949.8</ele>
        <time>2021-06-26T09:05:42Z</time>
      </trkpt>
      <trkpt lat="46.20238" lon="6.69482">
        <ele>950.2</ele>
        <time>2021-06-26T09:05:43Z</time>
      </trkpt>
      <trkpt lat="46.20237" lon="6.69488">
        <ele>950.6</ele>
        <time>2021-06-26T09:05:44Z</time>
      </trkpt>
      <trkpt lat="46.20237" lon="6.69493">
        <ele>950.8</ele>
        <time>2021-06-26T09:05:45Z</time>
      </trkpt>
      <trkpt lat="46.20237" lon="6.69499">
        <ele>951.2</ele>
        <time>2021-06-26T09:05:46Z</time>
      </trkpt>
      <trkpt lat="46.20237" lon="6.69505">
        <ele>951.6</ele>
        <time>2021-06-26T09:05:47Z</time>
      </trkpt>
      <trkpt lat="46.20237" lon="6.69511">
        <ele>951.8</ele>
        <time>2021-06-26T09:05:48Z</time>
      </trkpt>
      <trkpt lat="46.20237" lon="6.69517">
        <ele>952</ele>
        <time>2021-06-26T09:05:49Z</time>
      </trkpt>
      <trkpt lat="46.20238" lon="6.69523">
        <ele>952.2</ele>
        <time>2021-06-26T09:05:50Z</time>
      </trkpt>
      <trkpt lat="46.20239" lon="6.69529">
        <ele>952.6</ele>
        <time>2021-06-26T09:05:51Z</time>
      </trkpt>
      <trkpt lat="46.20241" lon="6.69535">
        <ele>952.8</ele>
        <time>2021-06-26T09:05:52Z</time>
      </trkpt>
      <trkpt lat="46.20242" lon="6.6954">
        <ele>953</ele>
        <time>2021-06-26T09:05:53Z</time>
      </trkpt>
      <trkpt lat="46.20244" lon="6.69546">
        <ele>953</ele>
        <time>2021-06-26T09:05:54Z</time>
      </trkpt>
      <trkpt lat="46.20246" lon="6.69552">
        <ele>953.2</ele>
        <time>2021-06-26T09:05:55Z</time>
      </trkpt>
      <trkpt lat="46.20248" lon="6.69557">
        <ele>953.4</ele>
        <time>2021-06-26T09:05:56Z</time>
      </trkpt>
      <trkpt lat="46.20251" lon="6.69562">
        <ele>953.6</ele>
        <time>2021-06-26T09:05:57Z</time>
      </trkpt>
      <trkpt lat="46.20253" lon="6.69567">
        <ele>953.8</ele>
        <time>2021-06-26T09:05:58Z</time>
      </trkpt>
      <trkpt lat="46.20256" lon="6.69572">
        <ele>953.8</ele>
        <time>2021-06-26T09:05:59Z</time>
      </trkpt>
      <trkpt lat="46.20259" lon="6.69577">
        <ele>954</ele>
        <time>2021-06-26T09:06:00Z</time>
      </trkpt>
      <trkpt lat="46.20262" lon="6.69581">
        <ele>954</ele>
        <time>2021-06-26T09:06:01Z</time>
      </trkpt>
      <trkpt lat="46.20265" lon="6.69586">
        <ele>954.2</ele>
        <time>2021-06-26T09:06:02Z</time>
      </trkpt>
      <trkpt lat="46.20268" lon="6.69591">
        <ele>954.2</ele>
        <time>2021-06-26T09:06:03Z</time>
      </trkpt>
      <trkpt lat="46.20271" lon="6.69595">
        <ele>954.2</ele>
        <time>2021-06-26T09:06:04Z</time>
      </trkpt>
      <trkpt lat="46.20274" lon="6.69599">
        <ele>954.2</ele>
        <time>2021-06-26T09:06:05Z</time>
      </trkpt>
      <trkpt lat="46.20277" lon="6.69603">
        <ele>954.4</ele>
        <time>2021-06-26T09:06:06Z</time>
      </trkpt>
      <trkpt lat="46.20279" lon="6.69607">
        <ele>954.4</ele>
        <time>2021-06-26T09:06:07Z</time>
      </trkpt>
      <trkpt lat="46.20282" lon="6.69611">
        <ele>954.4</ele>
        <time>2021-06-26T09:06:08Z</time>
      </trkpt>
      <trkpt lat="46.20284" lon="6.69614">
        <ele>954.6</ele>
        <time>2021-06-26T09:06:09Z</time>
      </trkpt>
      <trkpt lat="46.20287" lon="6.69617">
        <ele>954.6</ele>
        <time>2021-06-26T09:06:10Z</time>
      </trkpt>
      <trkpt lat="46.20289" lon="6.69621">
        <ele>954.8</ele>
        <time>2021-06-26T09:06:11Z</time>
      </trkpt>
      <trkpt lat="46.20292" lon="6.69624">
        <ele>954.8</ele>
        <time>2021-06-26T09:06:12Z</time>
      </trkpt>
      <trkpt lat="46.20294" lon="6.69627">
        <ele>955.4</ele>
        <time>2021-06-26T09:06:13Z</time>
      </trkpt>
      <trkpt lat="46.20296" lon="6.6963">
        <ele>955.6</ele>
        <time>2021-06-26T09:06:14Z</time>
      </trkpt>
      <trkpt lat="46.20298" lon="6.69634">
        <ele>955.6</ele>
        <time>2021-06-26T09:06:15Z</time>
      </trkpt>
      <trkpt lat="46.203" lon="6.69637">
        <ele>956.2</ele>
        <time>2021-06-26T09:06:16Z</time>
      </trkpt>
      <trkpt lat="46.20302" lon="6.69641">
        <ele>956.8</ele>
        <time>2021-06-26T09:06:17Z</time>
      </trkpt>
      <trkpt lat="46.20304" lon="6.69644">
        <ele>957</ele>
        <time>2021-06-26T09:06:18Z</time>
      </trkpt>
      <trkpt lat="46.20306" lon="6.69648">
        <ele>957.4</ele>
        <time>2021-06-26T09:06:19Z</time>
      </trkpt>
      <trkpt lat="46.20308" lon="6.69651">
        <ele>957.6</ele>
        <time>2021-06-26T09:06:20Z</time>
      </trkpt>
      <trkpt lat="46.20309" lon="6.69655">
        <ele>957.8</ele>
        <time>2021-06-26T09:06:21Z</time>
      </trkpt>
      <trkpt lat="46.20311" lon="6.69659">
        <ele>958.2</ele>
        <time>2021-06-26T09:06:22Z</time>
      </trkpt>
      <trkpt lat="46.20312" lon="6.69663">
        <ele>958.6</ele>
        <time>2021-06-26T09:06:23Z</time>
      </trkpt>
      <trkpt lat="46.20314" lon="6.69667">
        <ele>959</ele>
        <time>2021-06-26T09:06:24Z</time>
      </trkpt>
      <trkpt lat="46.20315" lon="6.69671">
        <ele>959.4</ele>
        <time>2021-06-26T09:06:25Z</time>
      </trkpt>
      <trkpt lat="46.20316" lon="6.69675">
        <ele>959.6</ele>
        <time>2021-06-26T09:06:26Z</time>
      </trkpt>
      <trkpt lat="46.20318" lon="6.69678">
        <ele>959.6</ele>
        <time>2021-06-26T09:06:27Z</time>
      </trkpt>
      <trkpt lat="46.20319" lon="6.69682">
        <ele>959.6</ele>
        <time>2021-06-26T09:06:28Z</time>
      </trkpt>
      <trkpt lat="46.2032" lon="6.69687">
        <ele>959.8</ele>
        <time>2021-06-26T09:06:29Z</time>
      </trkpt>
      <trkpt lat="46.20321" lon="6.6969">
        <ele>960.2</ele>
        <time>2021-06-26T09:06:30Z</time>
      </trkpt>
      <trkpt lat="46.20322" lon="6.69694">
        <ele>960.6</ele>
        <time>2021-06-26T09:06:31Z</time>
      </trkpt>
      <trkpt lat="46.20324" lon="6.69698">
        <ele>960.8</ele>
        <time>2021-06-26T09:06:32Z</time>
      </trkpt>
      <trkpt lat="46.20325" lon="6.69702">
        <ele>960.8</ele>
        <time>2021-06-26T09:06:33Z</time>
      </trkpt>
      <trkpt lat="46.20326" lon="6.69706">
        <ele>961.2</ele>
        <time>2021-06-26T09:06:34Z</time>
      </trkpt>
      <trkpt lat="46.20327" lon="6.69709">
        <ele>961.4</ele>
        <time>2021-06-26T09:06:35Z</time>
      </trkpt>
      <trkpt lat="46.20329" lon="6.69713">
        <ele>961.6</ele>
        <time>2021-06-26T09:06:36Z</time>
      </trkpt>
      <trkpt lat="46.2033" lon="6.69716">
        <ele>962</ele>
        <time>2021-06-26T09:06:37Z</time>
      </trkpt>
      <trkpt lat="46.20332" lon="6.6972">
        <ele>962.2</ele>
        <time>2021-06-26T09:06:38Z</time>
      </trkpt>
      <trkpt lat="46.20333" lon="6.69724">
        <ele>962.4</ele>
        <time>2021-06-26T09:06:39Z</time>
      </trkpt>
      <trkpt lat="46.20334" lon="6.69727">
        <ele>962.6</ele>
        <time>2021-06-26T09:06:40Z</time>
      </trkpt>
      <trkpt lat="46.20336" lon="6.69731">
        <ele>962.8</ele>
        <time>2021-06-26T09:06:41Z</time>
      </trkpt>
      <trkpt lat="46.20337" lon="6.69735">
        <ele>963.2</ele>
        <time>2021-06-26T09:06:42Z</time>
      </trkpt>
      <trkpt lat="46.20338" lon="6.69739">
        <ele>963.4</ele>
        <time>2021-06-26T09:06:43Z</time>
      </trkpt>
      <trkpt lat="46.20339" lon="6.69743">
        <ele>963.6</ele>
        <time>2021-06-26T09:06:44Z</time>
      </trkpt>
      <trkpt lat="46.20341" lon="6.69747">
        <ele>964</ele>
        <time>2021-06-26T09:06:45Z</time>
      </trkpt>
      <trkpt lat="46.20342" lon="6.69751">
        <ele>964.2</ele>
        <time>2021-06-26T09:06:46Z</time>
      </trkpt>
      <trkpt lat="46.20343" lon="6.69755">
        <ele>964.4</ele>
        <time>2021-06-26T09:06:47Z</time>
      </trkpt>
      <trkpt lat="46.20344" lon="6.69758">
        <ele>964.8</ele>
        <time>2021-06-26T09:06:48Z</time>
      </trkpt>
      <trkpt lat="46.20345" lon="6.69763">
        <ele>964.8</ele>
        <time>2021-06-26T09:06:49Z</time>
      </trkpt>
      <trkpt lat="46.20346" lon="6.69767">
        <ele>965</ele>
        <time>2021-06-26T09:06:50Z</time>
      </trkpt>
      <trkpt lat="46.20348" lon="6.69771">
        <ele>965</ele>
        <time>2021-06-26T09:06:51Z</time>
      </trkpt>
      <trkpt lat="46.20349" lon="6.69775">
        <ele>965.4</ele>
        <time>2021-06-26T09:06:52Z</time>
      </trkpt>
      <trkpt lat="46.2035" lon="6.69779">
        <ele>965.4</ele>
        <time>2021-06-26T09:06:53Z</time>
      </trkpt>
      <trkpt lat="46.2035" lon="6.69783">
        <ele>965.6</ele>
        <time>2021-06-26T09:06:54Z</time>
      </trkpt>
      <trkpt lat="46.20351" lon="6.69787">
        <ele>966</ele>
        <time>2021-06-26T09:06:55Z</time>
      </trkpt>
      <trkpt lat="46.2035" lon="6.69791">
        <ele>966.2</ele>
        <time>2021-06-26T09:06:56Z</time>
      </trkpt>
      <trkpt lat="46.2035" lon="6.69795">
        <ele>966.6</ele>
        <time>2021-06-26T09:06:57Z</time>
      </trkpt>
      <trkpt lat="46.20351" lon="6.69799">
        <ele>966.8</ele>
        <time>2021-06-26T09:06:58Z</time>
      </trkpt>
      <trkpt lat="46.20351" lon="6.69803">
        <ele>967.2</ele>
        <time>2021-06-26T09:06:59Z</time>
      </trkpt>
      <trkpt lat="46.20351" lon="6.69807">
        <ele>967.6</ele>
        <time>2021-06-26T09:07:00Z</time>
      </trkpt>
      <trkpt lat="46.20352" lon="6.6981">
        <ele>967.6</ele>
        <time>2021-06-26T09:07:01Z</time>
      </trkpt>
      <trkpt lat="46.20352" lon="6.69814">
        <ele>968</ele>
        <time>2021-06-26T09:07:02Z</time>
      </trkpt>
      <trkpt lat="46.20353" lon="6.69818">
        <ele>968.4</ele>
        <time>2021-06-26T09:07:03Z</time>
      </trkpt>
      <trkpt lat="46.20353" lon="6.69822">
        <ele>968.6</ele>
        <time>2021-06-26T09:07:04Z</time>
      </trkpt>
      <trkpt lat="46.20354" lon="6.69826">
        <ele>968.8</ele>
        <time>2021-06-26T09:07:05Z</time>
      </trkpt>
      <trkpt lat="46.20354" lon="6.69829">
        <ele>969</ele>
        <time>2021-06-26T09:07:06Z</time>
      </trkpt>
      <trkpt lat="46.20355" lon="6.69833">
        <ele>969.2</ele>
        <time>2021-06-26T09:07:07Z</time>
      </trkpt>
      <trkpt lat="46.20356" lon="6.69837">
        <ele>969.4</ele>
        <time>2021-06-26T09:07:08Z</time>
      </trkpt>
      <trkpt lat="46.20356" lon="6.6984">
        <ele>969.8</ele>
        <time>2021-06-26T09:07:09Z</time>
      </trkpt>
      <trkpt lat="46.20356" lon="6.69844">
        <ele>969.8</ele>
        <time>2021-06-26T09:07:10Z</time>
      </trkpt>
      <trkpt lat="46.20357" lon="6.69848">
        <ele>970</ele>
        <time>2021-06-26T09:07:11Z</time>
      </trkpt>
      <trkpt lat="46.20358" lon="6.69852">
        <ele>970</ele>
        <time>2021-06-26T09:07:12Z</time>
      </trkpt>
      <trkpt lat="46.20358" lon="6.69855">
        <ele>970.4</ele>
        <time>2021-06-26T09:07:13Z</time>
      </trkpt>
      <trkpt lat="46.20359" lon="6.69859">
        <ele>970.6</ele>
        <time>2021-06-26T09:07:14Z</time>
      </trkpt>
      <trkpt lat="46.2036" lon="6.69863">
        <ele>971</ele>
        <time>2021-06-26T09:07:15Z</time>
      </trkpt>
      <trkpt lat="46.20361" lon="6.69867">
        <ele>971.4</ele>
        <time>2021-06-26T09:07:16Z</time>
      </trkpt>
      <trkpt lat="46.20361" lon="6.69871">
        <ele>971.4</ele>
        <time>2021-06-26T09:07:17Z</time>
      </trkpt>
      <trkpt lat="46.20362" lon="6.69875">
        <ele>971.8</ele>
        <time>2021-06-26T09:07:18Z</time>
      </trkpt>
      <trkpt lat="46.20363" lon="6.69879">
        <ele>972</ele>
        <time>2021-06-26T09:07:19Z</time>
      </trkpt>
      <trkpt lat="46.20364" lon="6.69883">
        <ele>972</ele>
        <time>2021-06-26T09:07:20Z</time>
      </trkpt>
      <trkpt lat="46.20365" lon="6.69887">
        <ele>972.2</ele>
        <time>2021-06-26T09:07:21Z</time>
      </trkpt>
      <trkpt lat="46.20366" lon="6.6989">
        <ele>972.6</ele>
        <time>2021-06-26T09:07:22Z</time>
      </trkpt>
      <trkpt lat="46.20367" lon="6.69894">
        <ele>972.6</ele>
        <time>2021-06-26T09:07:23Z</time>
      </trkpt>
      <trkpt lat="46.20368" lon="6.69898">
        <ele>973</ele>
        <time>2021-06-26T09:07:24Z</time>
      </trkpt>
      <trkpt lat="46.20368" lon="6.69902">
        <ele>973.2</ele>
        <time>2021-06-26T09:07:25Z</time>
      </trkpt>
      <trkpt lat="46.20368" lon="6.69906">
        <ele>973.4</ele>
        <time>2021-06-26T09:07:26Z</time>
      </trkpt>
      <trkpt lat="46.20369" lon="6.6991">
        <ele>973.6</ele>
        <time>2021-06-26T09:07:27Z</time>
      </trkpt>
      <trkpt lat="46.20369" lon="6.69914">
        <ele>973.8</ele>
        <time>2021-06-26T09:07:28Z</time>
      </trkpt>
      <trkpt lat="46.2037" lon="6.69918">
        <ele>974</ele>
        <time>2021-06-26T09:07:29Z</time>
      </trkpt>
      <trkpt lat="46.20371" lon="6.69922">
        <ele>974.2</ele>
        <time>2021-06-26T09:07:30Z</time>
      </trkpt>
      <trkpt lat="46.20371" lon="6.69927">
        <ele>974.4</ele>
        <time>2021-06-26T09:07:31Z</time>
      </trkpt>
      <trkpt lat="46.20372" lon="6.69931">
        <ele>974.6</ele>
        <time>2021-06-26T09:07:32Z</time>
      </trkpt>
      <trkpt lat="46.20373" lon="6.69935">
        <ele>974.8</ele>
        <time>2021-06-26T09:07:33Z</time>
      </trkpt>
      <trkpt lat="46.20373" lon="6.69939">
        <ele>975</ele>
        <time>2021-06-26T09:07:34Z</time>
      </trkpt>
      <trkpt lat="46.20374" lon="6.69943">
        <ele>975</ele>
        <time>2021-06-26T09:07:35Z</time>
      </trkpt>
      <trkpt lat="46.20374" lon="6.69948">
        <ele>975.4</ele>
        <time>2021-06-26T09:07:36Z</time>
      </trkpt>
      <trkpt lat="46.20375" lon="6.69952">
        <ele>975.6</ele>
        <time>2021-06-26T09:07:37Z</time>
      </trkpt>
      <trkpt lat="46.20375" lon="6.69956">
        <ele>975.6</ele>
        <time>2021-06-26T09:07:38Z</time>
      </trkpt>
      <trkpt lat="46.20376" lon="6.69961">
        <ele>975.8</ele>
        <time>2021-06-26T09:07:39Z</time>
      </trkpt>
      <trkpt lat="46.20376" lon="6.69965">
        <ele>976</ele>
        <time>2021-06-26T09:07:40Z</time>
      </trkpt>
      <trkpt lat="46.20377" lon="6.69969">
        <ele>976.2</ele>
        <time>2021-06-26T09:07:41Z</time>
      </trkpt>
      <trkpt lat="46.20377" lon="6.69973">
        <ele>976.2</ele>
        <time>2021-06-26T09:07:42Z</time>
      </trkpt>
      <trkpt lat="46.20378" lon="6.69978">
        <ele>976.2</ele>
        <time>2021-06-26T09:07:43Z</time>
      </trkpt>
      <trkpt lat="46.20378" lon="6.69982">
        <ele>976.4</ele>
        <time>2021-06-26T09:07:44Z</time>
      </trkpt>
      <trkpt lat="46.20379" lon="6.69986">
        <ele>976.6</ele>
        <time>2021-06-26T09:07:45Z</time>
      </trkpt>
      <trkpt lat="46.20379" lon="6.69991">
        <ele>976.8</ele>
        <time>2021-06-26T09:07:46Z</time>
      </trkpt>
      <trkpt lat="46.2038" lon="6.69995">
        <ele>977</ele>
        <time>2021-06-26T09:07:47Z</time>
      </trkpt>
      <trkpt lat="46.2038" lon="6.69999">
        <ele>977.2</ele>
        <time>2021-06-26T09:07:48Z</time>
      </trkpt>
      <trkpt lat="46.20381" lon="6.70003">
        <ele>977.6</ele>
        <time>2021-06-26T09:07:49Z</time>
      </trkpt>
      <trkpt lat="46.20382" lon="6.70007">
        <ele>977.8</ele>
        <time>2021-06-26T09:07:50Z</time>
      </trkpt>
      <trkpt lat="46.20382" lon="6.70012">
        <ele>978.2</ele>
        <time>2021-06-26T09:07:51Z</time>
      </trkpt>
      <trkpt lat="46.20382" lon="6.70016">
        <ele>978.2</ele>
        <time>2021-06-26T09:07:52Z</time>
      </trkpt>
      <trkpt lat="46.20383" lon="6.7002">
        <ele>978.6</ele>
        <time>2021-06-26T09:07:53Z</time>
      </trkpt>
      <trkpt lat="46.20384" lon="6.70024">
        <ele>978.8</ele>
        <time>2021-06-26T09:07:54Z</time>
      </trkpt>
      <trkpt lat="46.20385" lon="6.70028">
        <ele>979</ele>
        <time>2021-06-26T09:07:55Z</time>
      </trkpt>
      <trkpt lat="46.20386" lon="6.70033">
        <ele>979.2</ele>
        <time>2021-06-26T09:07:56Z</time>
      </trkpt>
      <trkpt lat="46.20387" lon="6.70037">
        <ele>979.2</ele>
        <time>2021-06-26T09:07:57Z</time>
      </trkpt>
      <trkpt lat="46.20388" lon="6.70041">
        <ele>979.6</ele>
        <time>2021-06-26T09:07:58Z</time>
      </trkpt>
      <trkpt lat="46.20389" lon="6.70045">
        <ele>979.6</ele>
        <time>2021-06-26T09:07:59Z</time>
      </trkpt>
      <trkpt lat="46.20391" lon="6.70049">
        <ele>979.8</ele>
        <time>2021-06-26T09:08:00Z</time>
      </trkpt>
      <trkpt lat="46.20392" lon="6.70053">
        <ele>980</ele>
        <time>2021-06-26T09:08:01Z</time>
      </trkpt>
      <trkpt lat="46.20394" lon="6.70057">
        <ele>980.4</ele>
        <time>2021-06-26T09:08:02Z</time>
      </trkpt>
      <trkpt lat="46.20395" lon="6.70061">
        <ele>980.6</ele>
        <time>2021-06-26T09:08:03Z</time>
      </trkpt>
      <trkpt lat="46.20396" lon="6.70065">
        <ele>981</ele>
        <time>2021-06-26T09:08:04Z</time>
      </trkpt>
      <trkpt lat="46.20397" lon="6.7007">
        <ele>981</ele>
        <time>2021-06-26T09:08:05Z</time>
      </trkpt>
      <trkpt lat="46.20398" lon="6.70074">
        <ele>981.4</ele>
        <time>2021-06-26T09:08:06Z</time>
      </trkpt>
      <trkpt lat="46.20399" lon="6.70078">
        <ele>981.4</ele>
        <time>2021-06-26T09:08:07Z</time>
      </trkpt>
      <trkpt lat="46.20401" lon="6.70082">
        <ele>981.8</ele>
        <time>2021-06-26T09:08:08Z</time>
      </trkpt>
      <trkpt lat="46.20402" lon="6.70086">
        <ele>981.8</ele>
        <time>2021-06-26T09:08:09Z</time>
      </trkpt>
      <trkpt lat="46.20403" lon="6.7009">
        <ele>982.2</ele>
        <time>2021-06-26T09:08:10Z</time>
      </trkpt>
      <trkpt lat="46.20405" lon="6.70095">
        <ele>982.2</ele>
        <time>2021-06-26T09:08:11Z</time>
      </trkpt>
      <trkpt lat="46.20406" lon="6.70099">
        <ele>982.4</ele>
        <time>2021-06-26T09:08:12Z</time>
      </trkpt>
      <trkpt lat="46.20408" lon="6.70103">
        <ele>982.8</ele>
        <time>2021-06-26T09:08:13Z</time>
      </trkpt>
      <trkpt lat="46.2041" lon="6.70107">
        <ele>983.2</ele>
        <time>2021-06-26T09:08:14Z</time>
      </trkpt>
      <trkpt lat="46.20412" lon="6.70111">
        <ele>983.4</ele>
        <time>2021-06-26T09:08:15Z</time>
      </trkpt>
      <trkpt lat="46.20413" lon="6.70115">
        <ele>983.6</ele>
        <time>2021-06-26T09:08:16Z</time>
      </trkpt>
      <trkpt lat="46.20415" lon="6.70119">
        <ele>983.6</ele>
        <time>2021-06-26T09:08:17Z</time>
      </trkpt>
      <trkpt lat="46.20417" lon="6.70123">
        <ele>983.8</ele>
        <time>2021-06-26T09:08:18Z</time>
      </trkpt>
      <trkpt lat="46.2042" lon="6.70127">
        <ele>984</ele>
        <time>2021-06-26T09:08:19Z</time>
      </trkpt>
      <trkpt lat="46.20422" lon="6.70131">
        <ele>984.2</ele>
        <time>2021-06-26T09:08:20Z</time>
      </trkpt>
      <trkpt lat="46.20424" lon="6.70135">
        <ele>984.2</ele>
        <time>2021-06-26T09:08:21Z</time>
      </trkpt>
      <trkpt lat="46.20427" lon="6.70139">
        <ele>984.6</ele>
        <time>2021-06-26T09:08:22Z</time>
      </trkpt>
      <trkpt lat="46.20429" lon="6.70142">
        <ele>984.8</ele>
        <time>2021-06-26T09:08:23Z</time>
      </trkpt>
      <trkpt lat="46.20432" lon="6.70146">
        <ele>985</ele>
        <time>2021-06-26T09:08:24Z</time>
      </trkpt>
      <trkpt lat="46.20435" lon="6.70149">
        <ele>985.2</ele>
        <time>2021-06-26T09:08:25Z</time>
      </trkpt>
      <trkpt lat="46.20437" lon="6.70153">
        <ele>985.2</ele>
        <time>2021-06-26T09:08:26Z</time>
      </trkpt>
      <trkpt lat="46.2044" lon="6.70157">
        <ele>985.2</ele>
        <time>2021-06-26T09:08:27Z</time>
      </trkpt>
      <trkpt lat="46.20443" lon="6.70161">
        <ele>985.6</ele>
        <time>2021-06-26T09:08:28Z</time>
      </trkpt>
      <trkpt lat="46.20446" lon="6.70165">
        <ele>985.4</ele>
        <time>2021-06-26T09:08:29Z</time>
      </trkpt>
      <trkpt lat="46.20449" lon="6.7017">
        <ele>985.6</ele>
        <time>2021-06-26T09:08:30Z</time>
      </trkpt>
      <trkpt lat="46.20451" lon="6.70174">
        <ele>985.8</ele>
        <time>2021-06-26T09:08:31Z</time>
      </trkpt>
      <trkpt lat="46.20454" lon="6.70179">
        <ele>986</ele>
        <time>2021-06-26T09:08:32Z</time>
      </trkpt>
      <trkpt lat="46.20456" lon="6.70184">
        <ele>986</ele>
        <time>2021-06-26T09:08:33Z</time>
      </trkpt>
      <trkpt lat="46.20457" lon="6.70189">
        <ele>986.2</ele>
        <time>2021-06-26T09:08:34Z</time>
      </trkpt>
      <trkpt lat="46.20459" lon="6.70195">
        <ele>986</ele>
        <time>2021-06-26T09:08:35Z</time>
      </trkpt>
      <trkpt lat="46.2046" lon="6.70201">
        <ele>986</ele>
        <time>2021-06-26T09:08:36Z</time>
      </trkpt>
      <trkpt lat="46.20461" lon="6.70207">
        <ele>986.2</ele>
        <time>2021-06-26T09:08:37Z</time>
      </trkpt>
      <trkpt lat="46.20462" lon="6.70213">
        <ele>986.2</ele>
        <time>2021-06-26T09:08:38Z</time>
      </trkpt>
      <trkpt lat="46.20463" lon="6.70218">
        <ele>986.2</ele>
        <time>2021-06-26T09:08:39Z</time>
      </trkpt>
      <trkpt lat="46.20464" lon="6.70224">
        <ele>986.2</ele>
        <time>2021-06-26T09:08:40Z</time>
      </trkpt>
      <trkpt lat="46.20464" lon="6.7023">
        <ele>986.4</ele>
        <time>2021-06-26T09:08:41Z</time>
      </trkpt>
      <trkpt lat="46.20465" lon="6.70236">
        <ele>986.8</ele>
        <time>2021-06-26T09:08:42Z</time>
      </trkpt>
      <trkpt lat="46.20465" lon="6.70242">
        <ele>986.8</ele>
        <time>2021-06-26T09:08:43Z</time>
      </trkpt>
      <trkpt lat="46.20466" lon="6.70247">
        <ele>986.8</ele>
        <time>2021-06-26T09:08:44Z</time>
      </trkpt>
      <trkpt lat="46.20467" lon="6.70254">
        <ele>987</ele>
        <time>2021-06-26T09:08:45Z</time>
      </trkpt>
      <trkpt lat="46.20468" lon="6.7026">
        <ele>987.4</ele>
        <time>2021-06-26T09:08:46Z</time>
      </trkpt>
      <trkpt lat="46.20469" lon="6.70266">
        <ele>987.6</ele>
        <time>2021-06-26T09:08:47Z</time>
      </trkpt>
      <trkpt lat="46.20469" lon="6.70272">
        <ele>987.6</ele>
        <time>2021-06-26T09:08:48Z</time>
      </trkpt>
      <trkpt lat="46.2047" lon="6.70279">
        <ele>987.8</ele>
        <time>2021-06-26T09:08:49Z</time>
      </trkpt>
      <trkpt lat="46.20471" lon="6.70285">
        <ele>987.8</ele>
        <time>2021-06-26T09:08:50Z</time>
      </trkpt>
      <trkpt lat="46.20472" lon="6.70292">
        <ele>988</ele>
        <time>2021-06-26T09:08:51Z</time>
      </trkpt>
      <trkpt lat="46.20472" lon="6.70299">
        <ele>987.8</ele>
        <time>2021-06-26T09:08:52Z</time>
      </trkpt>
      <trkpt lat="46.20477" lon="6.70334">
        <ele>988.2</ele>
        <time>2021-06-26T09:08:57Z</time>
      </trkpt>
      <trkpt lat="46.20487" lon="6.70386">
        <ele>988.4</ele>
        <time>2021-06-26T09:09:04Z</time>
      </trkpt>
      <trkpt lat="46.20492" lon="6.70401">
        <ele>988.4</ele>
        <time>2021-06-26T09:09:06Z</time>
      </trkpt>
      <trkpt lat="46.20504" lon="6.7043">
        <ele>988.4</ele>
        <time>2021-06-26T09:09:10Z</time>
      </trkpt>
      <trkpt lat="46.20526" lon="6.70482">
        <ele>988.4</ele>
        <time>2021-06-26T09:09:17Z</time>
      </trkpt>
      <trkpt lat="46.20529" lon="6.7049">
        <ele>988.4</ele>
        <time>2021-06-26T09:09:18Z</time>
      </trkpt>
      <trkpt lat="46.20531" lon="6.70497">
        <ele>988.4</ele>
        <time>2021-06-26T09:09:19Z</time>
      </trkpt>
      <trkpt lat="46.20533" lon="6.70505">
        <ele>988.2</ele>
        <time>2021-06-26T09:09:20Z</time>
      </trkpt>
      <trkpt lat="46.20534" lon="6.70514">
        <ele>988.4</ele>
        <time>2021-06-26T09:09:21Z</time>
      </trkpt>
      <trkpt lat="46.20534" lon="6.70522">
        <ele>988.4</ele>
        <time>2021-06-26T09:09:22Z</time>
      </trkpt>
      <trkpt lat="46.20534" lon="6.7053">
        <ele>988.4</ele>
        <time>2021-06-26T09:09:23Z</time>
      </trkpt>
      <trkpt lat="46.20533" lon="6.70539">
        <ele>988.4</ele>
        <time>2021-06-26T09:09:24Z</time>
      </trkpt>
      <trkpt lat="46.20531" lon="6.70555">
        <ele>988.8</ele>
        <time>2021-06-26T09:09:26Z</time>
      </trkpt>
      <trkpt lat="46.2053" lon="6.70563">
        <ele>989</ele>
        <time>2021-06-26T09:09:27Z</time>
      </trkpt>
      <trkpt lat="46.20529" lon="6.70571">
        <ele>989</ele>
        <time>2021-06-26T09:09:28Z</time>
      </trkpt>
      <trkpt lat="46.20527" lon="6.70578">
        <ele>989</ele>
        <time>2021-06-26T09:09:29Z</time>
      </trkpt>
      <trkpt lat="46.20526" lon="6.70586">
        <ele>989.2</ele>
        <time>2021-06-26T09:09:30Z</time>
      </trkpt>
      <trkpt lat="46.20526" lon="6.70594">
        <ele>989.4</ele>
        <time>2021-06-26T09:09:31Z</time>
      </trkpt>
      <trkpt lat="46.20526" lon="6.70601">
        <ele>989.6</ele>
        <time>2021-06-26T09:09:32Z</time>
      </trkpt>
      <trkpt lat="46.20527" lon="6.70616">
        <ele>989.6</ele>
        <time>2021-06-26T09:09:34Z</time>
      </trkpt>
      <trkpt lat="46.20527" lon="6.70624">
        <ele>989.6</ele>
        <time>2021-06-26T09:09:35Z</time>
      </trkpt>
      <trkpt lat="46.20527" lon="6.70631">
        <ele>989.8</ele>
        <time>2021-06-26T09:09:36Z</time>
      </trkpt>
      <trkpt lat="46.20527" lon="6.70639">
        <ele>990</ele>
        <time>2021-06-26T09:09:37Z</time>
      </trkpt>
      <trkpt lat="46.20528" lon="6.70646">
        <ele>990.4</ele>
        <time>2021-06-26T09:09:38Z</time>
      </trkpt>
      <trkpt lat="46.20529" lon="6.70654">
        <ele>990.4</ele>
        <time>2021-06-26T09:09:39Z</time>
      </trkpt>
      <trkpt lat="46.2053" lon="6.70662">
        <ele>990.6</ele>
        <time>2021-06-26T09:09:40Z</time>
      </trkpt>
      <trkpt lat="46.2053" lon="6.7067">
        <ele>990.8</ele>
        <time>2021-06-26T09:09:41Z</time>
      </trkpt>
      <trkpt lat="46.20531" lon="6.70677">
        <ele>991.2</ele>
        <time>2021-06-26T09:09:42Z</time>
      </trkpt>
      <trkpt lat="46.20531" lon="6.70685">
        <ele>991.2</ele>
        <time>2021-06-26T09:09:43Z</time>
      </trkpt>
      <trkpt lat="46.20532" lon="6.70693">
        <ele>991.4</ele>
        <time>2021-06-26T09:09:44Z</time>
      </trkpt>
      <trkpt lat="46.20532" lon="6.70701">
        <ele>991.6</ele>
        <time>2021-06-26T09:09:45Z</time>
      </trkpt>
      <trkpt lat="46.20533" lon="6.70708">
        <ele>991.6</ele>
        <time>2021-06-26T09:09:46Z</time>
      </trkpt>
      <trkpt lat="46.20533" lon="6.70716">
        <ele>991.6</ele>
        <time>2021-06-26T09:09:47Z</time>
      </trkpt>
      <trkpt lat="46.20534" lon="6.70724">
        <ele>991.6</ele>
        <time>2021-06-26T09:09:48Z</time>
      </trkpt>
      <trkpt lat="46.20534" lon="6.70732">
        <ele>991.8</ele>
        <time>2021-06-26T09:09:49Z</time>
      </trkpt>
      <trkpt lat="46.20535" lon="6.70739">
        <ele>992</ele>
        <time>2021-06-26T09:09:50Z</time>
      </trkpt>
      <trkpt lat="46.20536" lon="6.70747">
        <ele>992</ele>
        <time>2021-06-26T09:09:51Z</time>
      </trkpt>
      <trkpt lat="46.20536" lon="6.70755">
        <ele>992.2</ele>
        <time>2021-06-26T09:09:52Z</time>
      </trkpt>
      <trkpt lat="46.20541" lon="6.70801">
        <ele>992.6</ele>
        <time>2021-06-26T09:09:58Z</time>
      </trkpt>
      <trkpt lat="46.20542" lon="6.70808">
        <ele>992.4</ele>
        <time>2021-06-26T09:09:59Z</time>
      </trkpt>
      <trkpt lat="46.20544" lon="6.70814">
        <ele>992.6</ele>
        <time>2021-06-26T09:10:00Z</time>
      </trkpt>
      <trkpt lat="46.20546" lon="6.70821">
        <ele>992.6</ele>
        <time>2021-06-26T09:10:01Z</time>
      </trkpt>
      <trkpt lat="46.20552" lon="6.70834">
        <ele>992.8</ele>
        <time>2021-06-26T09:10:03Z</time>
      </trkpt>
      <trkpt lat="46.2056" lon="6.70851">
        <ele>993</ele>
        <time>2021-06-26T09:10:06Z</time>
      </trkpt>
      <trkpt lat="46.2057" lon="6.7087">
        <ele>993.4</ele>
        <time>2021-06-26T09:10:09Z</time>
      </trkpt>
      <trkpt lat="46.20583" lon="6.70897">
        <ele>993.4</ele>
        <time>2021-06-26T09:10:13Z</time>
      </trkpt>
      <trkpt lat="46.20594" lon="6.70918">
        <ele>993.4</ele>
        <time>2021-06-26T09:10:16Z</time>
      </trkpt>
      <trkpt lat="46.206" lon="6.70932">
        <ele>993.6</ele>
        <time>2021-06-26T09:10:18Z</time>
      </trkpt>
      <trkpt lat="46.20604" lon="6.70938">
        <ele>993.6</ele>
        <time>2021-06-26T09:10:19Z</time>
      </trkpt>
      <trkpt lat="46.20621" lon="6.70973">
        <ele>993.4</ele>
        <time>2021-06-26T09:10:24Z</time>
      </trkpt>
      <trkpt lat="46.20634" lon="6.71002">
        <ele>993.2</ele>
        <time>2021-06-26T09:10:28Z</time>
      </trkpt>
      <trkpt lat="46.20637" lon="6.71009">
        <ele>993.2</ele>
        <time>2021-06-26T09:10:29Z</time>
      </trkpt>
      <trkpt lat="46.2064" lon="6.71015">
        <ele>993.2</ele>
        <time>2021-06-26T09:10:30Z</time>
      </trkpt>
      <trkpt lat="46.20646" lon="6.71029">
        <ele>993.2</ele>
        <time>2021-06-26T09:10:32Z</time>
      </trkpt>
      <trkpt lat="46.20648" lon="6.71037">
        <ele>993.2</ele>
        <time>2021-06-26T09:10:33Z</time>
      </trkpt>
      <trkpt lat="46.2065" lon="6.71044">
        <ele>993.2</ele>
        <time>2021-06-26T09:10:34Z</time>
      </trkpt>
      <trkpt lat="46.20652" lon="6.71051">
        <ele>993.4</ele>
        <time>2021-06-26T09:10:35Z</time>
      </trkpt>
      <trkpt lat="46.20655" lon="6.71065">
        <ele>993.2</ele>
        <time>2021-06-26T09:10:37Z</time>
      </trkpt>
      <trkpt lat="46.20657" lon="6.71072">
        <ele>993.4</ele>
        <time>2021-06-26T09:10:38Z</time>
      </trkpt>
      <trkpt lat="46.20658" lon="6.71079">
        <ele>993.6</ele>
        <time>2021-06-26T09:10:39Z</time>
      </trkpt>
      <trkpt lat="46.2066" lon="6.71085">
        <ele>993.6</ele>
        <time>2021-06-26T09:10:40Z</time>
      </trkpt>
      <trkpt lat="46.20661" lon="6.71092">
        <ele>993.6</ele>
        <time>2021-06-26T09:10:41Z</time>
      </trkpt>
      <trkpt lat="46.20662" lon="6.71098">
        <ele>993.6</ele>
        <time>2021-06-26T09:10:42Z</time>
      </trkpt>
      <trkpt lat="46.20663" lon="6.71104">
        <ele>993.8</ele>
        <time>2021-06-26T09:10:43Z</time>
      </trkpt>
      <trkpt lat="46.20663" lon="6.7111">
        <ele>994</ele>
        <time>2021-06-26T09:10:44Z</time>
      </trkpt>
      <trkpt lat="46.20664" lon="6.71116">
        <ele>994.2</ele>
        <time>2021-06-26T09:10:45Z</time>
      </trkpt>
      <trkpt lat="46.20665" lon="6.71122">
        <ele>994.2</ele>
        <time>2021-06-26T09:10:46Z</time>
      </trkpt>
      <trkpt lat="46.20666" lon="6.71127">
        <ele>994.4</ele>
        <time>2021-06-26T09:10:47Z</time>
      </trkpt>
      <trkpt lat="46.20667" lon="6.71133">
        <ele>994.6</ele>
        <time>2021-06-26T09:10:48Z</time>
      </trkpt>
      <trkpt lat="46.20667" lon="6.71138">
        <ele>994.8</ele>
        <time>2021-06-26T09:10:49Z</time>
      </trkpt>
      <trkpt lat="46.20668" lon="6.71143">
        <ele>995</ele>
        <time>2021-06-26T09:10:50Z</time>
      </trkpt>
      <trkpt lat="46.20668" lon="6.71147">
        <ele>995.4</ele>
        <time>2021-06-26T09:10:51Z</time>
      </trkpt>
      <trkpt lat="46.20669" lon="6.71152">
        <ele>995.6</ele>
        <time>2021-06-26T09:10:52Z</time>
      </trkpt>
      <trkpt lat="46.2067" lon="6.71156">
        <ele>995.8</ele>
        <time>2021-06-26T09:10:53Z</time>
      </trkpt>
      <trkpt lat="46.20671" lon="6.71161">
        <ele>996.2</ele>
        <time>2021-06-26T09:10:54Z</time>
      </trkpt>
      <trkpt lat="46.20672" lon="6.71165">
        <ele>996.6</ele>
        <time>2021-06-26T09:10:55Z</time>
      </trkpt>
      <trkpt lat="46.20674" lon="6.71169">
        <ele>997</ele>
        <time>2021-06-26T09:10:56Z</time>
      </trkpt>
      <trkpt lat="46.20675" lon="6.71173">
        <ele>997.2</ele>
        <time>2021-06-26T09:10:57Z</time>
      </trkpt>
      <trkpt lat="46.20677" lon="6.71178">
        <ele>997.4</ele>
        <time>2021-06-26T09:10:58Z</time>
      </trkpt>
      <trkpt lat="46.20679" lon="6.71182">
        <ele>997.4</ele>
        <time>2021-06-26T09:10:59Z</time>
      </trkpt>
      <trkpt lat="46.2068" lon="6.71186">
        <ele>997.8</ele>
        <time>2021-06-26T09:11:00Z</time>
      </trkpt>
      <trkpt lat="46.20682" lon="6.7119">
        <ele>998.2</ele>
        <time>2021-06-26T09:11:01Z</time>
      </trkpt>
      <trkpt lat="46.20684" lon="6.71194">
        <ele>998.2</ele>
        <time>2021-06-26T09:11:02Z</time>
      </trkpt>
      <trkpt lat="46.20686" lon="6.71198">
        <ele>998.6</ele>
        <time>2021-06-26T09:11:03Z</time>
      </trkpt>
      <trkpt lat="46.20687" lon="6.71202">
        <ele>998.8</ele>
        <time>2021-06-26T09:11:04Z</time>
      </trkpt>
      <trkpt lat="46.20689" lon="6.71206">
        <ele>999.2</ele>
        <time>2021-06-26T09:11:05Z</time>
      </trkpt>
      <trkpt lat="46.2069" lon="6.71209">
        <ele>999.4</ele>
        <time>2021-06-26T09:11:06Z</time>
      </trkpt>
      <trkpt lat="46.20692" lon="6.71213">
        <ele>999.6</ele>
        <time>2021-06-26T09:11:07Z</time>
      </trkpt>
      <trkpt lat="46.20695" lon="6.71216">
        <ele>999.8</ele>
        <time>2021-06-26T09:11:08Z</time>
      </trkpt>
      <trkpt lat="46.20697" lon="6.71219">
        <ele>1000</ele>
        <time>2021-06-26T09:11:09Z</time>
      </trkpt>
      <trkpt lat="46.20699" lon="6.71221">
        <ele>1000.4</ele>
        <time>2021-06-26T09:11:10Z</time>
      </trkpt>
      <trkpt lat="46.20702" lon="6.71223">
        <ele>1000.4</ele>
        <time>2021-06-26T09:11:11Z</time>
      </trkpt>
      <trkpt lat="46.20705" lon="6.71224">
        <ele>1000.8</ele>
        <time>2021-06-26T09:11:12Z</time>
      </trkpt>
      <trkpt lat="46.20708" lon="6.71224">
        <ele>1001.2</ele>
        <time>2021-06-26T09:11:13Z</time>
      </trkpt>
      <trkpt lat="46.20711" lon="6.71225">
        <ele>1001.6</ele>
        <time>2021-06-26T09:11:14Z</time>
      </trkpt>
      <trkpt lat="46.20714" lon="6.71224">
        <ele>1001.8</ele>
        <time>2021-06-26T09:11:15Z</time>
      </trkpt>
      <trkpt lat="46.20717" lon="6.71224">
        <ele>1002.2</ele>
        <time>2021-06-26T09:11:16Z</time>
      </trkpt>
      <trkpt lat="46.2072" lon="6.71223">
        <ele>1002.4</ele>
        <time>2021-06-26T09:11:17Z</time>
      </trkpt>
      <trkpt lat="46.20723" lon="6.71221">
        <ele>1002.6</ele>
        <time>2021-06-26T09:11:18Z</time>
      </trkpt>
      <trkpt lat="46.20725" lon="6.71219">
        <ele>1002.8</ele>
        <time>2021-06-26T09:11:19Z</time>
      </trkpt>
      <trkpt lat="46.20727" lon="6.71217">
        <ele>1003</ele>
        <time>2021-06-26T09:11:20Z</time>
      </trkpt>
      <trkpt lat="46.20729" lon="6.71213">
        <ele>1003.2</ele>
        <time>2021-06-26T09:11:21Z</time>
      </trkpt>
      <trkpt lat="46.20731" lon="6.7121">
        <ele>1003.2</ele>
        <time>2021-06-26T09:11:22Z</time>
      </trkpt>
      <trkpt lat="46.20733" lon="6.71206">
        <ele>1003.6</ele>
        <time>2021-06-26T09:11:23Z</time>
      </trkpt>
      <trkpt lat="46.20734" lon="6.71203">
        <ele>1003.8</ele>
        <time>2021-06-26T09:11:24Z</time>
      </trkpt>
      <trkpt lat="46.20737" lon="6.71195">
        <ele>1004.2</ele>
        <time>2021-06-26T09:11:25Z</time>
      </trkpt>
      <trkpt lat="46.20738" lon="6.71191">
        <ele>1005</ele>
        <time>2021-06-26T09:11:27Z</time>
      </trkpt>
      <trkpt lat="46.20739" lon="6.71187">
        <ele>1005.2</ele>
        <time>2021-06-26T09:11:28Z</time>
      </trkpt>
      <trkpt lat="46.20741" lon="6.71183">
        <ele>1005.4</ele>
        <time>2021-06-26T09:11:29Z</time>
      </trkpt>
      <trkpt lat="46.20742" lon="6.71179">
        <ele>1005.8</ele>
        <time>2021-06-26T09:11:30Z</time>
      </trkpt>
      <trkpt lat="46.20744" lon="6.71171">
        <ele>1005.8</ele>
        <time>2021-06-26T09:11:31Z</time>
      </trkpt>
      <trkpt lat="46.20746" lon="6.71168">
        <ele>1006.2</ele>
        <time>2021-06-26T09:11:32Z</time>
      </trkpt>
      <trkpt lat="46.20747" lon="6.71164">
        <ele>1006.6</ele>
        <time>2021-06-26T09:11:33Z</time>
      </trkpt>
      <trkpt lat="46.20748" lon="6.7116">
        <ele>1006.6</ele>
        <time>2021-06-26T09:11:34Z</time>
      </trkpt>
      <trkpt lat="46.20748" lon="6.71156">
        <ele>1006.8</ele>
        <time>2021-06-26T09:11:35Z</time>
      </trkpt>
      <trkpt lat="46.20749" lon="6.71152">
        <ele>1007.2</ele>
        <time>2021-06-26T09:11:36Z</time>
      </trkpt>
      <trkpt lat="46.2075" lon="6.71148">
        <ele>1007.4</ele>
        <time>2021-06-26T09:11:37Z</time>
      </trkpt>
      <trkpt lat="46.2075" lon="6.71145">
        <ele>1007.6</ele>
        <time>2021-06-26T09:11:38Z</time>
      </trkpt>
      <trkpt lat="46.2075" lon="6.71141">
        <ele>1007.8</ele>
        <time>2021-06-26T09:11:39Z</time>
      </trkpt>
      <trkpt lat="46.20751" lon="6.71137">
        <ele>1008</ele>
        <time>2021-06-26T09:11:40Z</time>
      </trkpt>
      <trkpt lat="46.20751" lon="6.71133">
        <ele>1008.2</ele>
        <time>2021-06-26T09:11:41Z</time>
      </trkpt>
      <trkpt lat="46.2075" lon="6.71129">
        <ele>1008.6</ele>
        <time>2021-06-26T09:11:42Z</time>
      </trkpt>
      <trkpt lat="46.2075" lon="6.71125">
        <ele>1008.6</ele>
        <time>2021-06-26T09:11:44Z</time>
      </trkpt>
      <trkpt lat="46.2075" lon="6.71121">
        <ele>1009</ele>
        <time>2021-06-26T09:11:45Z</time>
      </trkpt>
      <trkpt lat="46.2075" lon="6.71117">
        <ele>1009.2</ele>
        <time>2021-06-26T09:11:46Z</time>
      </trkpt>
      <trkpt lat="46.2075" lon="6.71114">
        <ele>1009.4</ele>
        <time>2021-06-26T09:11:47Z</time>
      </trkpt>
      <trkpt lat="46.20749" lon="6.71109">
        <ele>1009.8</ele>
        <time>2021-06-26T09:11:48Z</time>
      </trkpt>
      <trkpt lat="46.20749" lon="6.71105">
        <ele>1010</ele>
        <time>2021-06-26T09:11:49Z</time>
      </trkpt>
      <trkpt lat="46.20749" lon="6.71101">
        <ele>1010.2</ele>
        <time>2021-06-26T09:11:50Z</time>
      </trkpt>
      <trkpt lat="46.20748" lon="6.71097">
        <ele>1010.4</ele>
        <time>2021-06-26T09:11:51Z</time>
      </trkpt>
      <trkpt lat="46.20748" lon="6.71093">
        <ele>1010.4</ele>
        <time>2021-06-26T09:11:52Z</time>
      </trkpt>
      <trkpt lat="46.20748" lon="6.71089">
        <ele>1010.6</ele>
        <time>2021-06-26T09:11:53Z</time>
      </trkpt>
      <trkpt lat="46.20747" lon="6.71085">
        <ele>1010.8</ele>
        <time>2021-06-26T09:11:54Z</time>
      </trkpt>
      <trkpt lat="46.20747" lon="6.71082">
        <ele>1011</ele>
        <time>2021-06-26T09:11:55Z</time>
      </trkpt>
      <trkpt lat="46.20746" lon="6.71079">
        <ele>1011.2</ele>
        <time>2021-06-26T09:11:56Z</time>
      </trkpt>
      <trkpt lat="46.20746" lon="6.71076">
        <ele>1011.4</ele>
        <time>2021-06-26T09:11:57Z</time>
      </trkpt>
      <trkpt lat="46.20746" lon="6.71073">
        <ele>1011.8</ele>
        <time>2021-06-26T09:11:58Z</time>
      </trkpt>
      <trkpt lat="46.20746" lon="6.71069">
        <ele>1012</ele>
        <time>2021-06-26T09:11:59Z</time>
      </trkpt>
      <trkpt lat="46.20746" lon="6.71066">
        <ele>1012.2</ele>
        <time>2021-06-26T09:12:00Z</time>
      </trkpt>
      <trkpt lat="46.20746" lon="6.71063">
        <ele>1012.4</ele>
        <time>2021-06-26T09:12:01Z</time>
      </trkpt>
      <trkpt lat="46.20745" lon="6.71061">
        <ele>1012.6</ele>
        <time>2021-06-26T09:12:02Z</time>
      </trkpt>
      <trkpt lat="46.20745" lon="6.71058">
        <ele>1012.8</ele>
        <time>2021-06-26T09:12:03Z</time>
      </trkpt>
      <trkpt lat="46.20744" lon="6.71055">
        <ele>1013</ele>
        <time>2021-06-26T09:12:04Z</time>
      </trkpt>
      <trkpt lat="46.20742" lon="6.71052">
        <ele>1013.2</ele>
        <time>2021-06-26T09:12:05Z</time>
      </trkpt>
      <trkpt lat="46.20741" lon="6.71049">
        <ele>1013.6</ele>
        <time>2021-06-26T09:12:06Z</time>
      </trkpt>
      <trkpt lat="46.2074" lon="6.71047">
        <ele>1013.6</ele>
        <time>2021-06-26T09:12:07Z</time>
      </trkpt>
      <trkpt lat="46.20738" lon="6.71044">
        <ele>1013.8</ele>
        <time>2021-06-26T09:12:08Z</time>
      </trkpt>
      <trkpt lat="46.20737" lon="6.71042">
        <ele>1014.2</ele>
        <time>2021-06-26T09:12:09Z</time>
      </trkpt>
      <trkpt lat="46.20735" lon="6.71039">
        <ele>1014.2</ele>
        <time>2021-06-26T09:12:10Z</time>
      </trkpt>
      <trkpt lat="46.20734" lon="6.71037">
        <ele>1014.6</ele>
        <time>2021-06-26T09:12:11Z</time>
      </trkpt>
      <trkpt lat="46.20733" lon="6.71034">
        <ele>1014.6</ele>
        <time>2021-06-26T09:12:12Z</time>
      </trkpt>
      <trkpt lat="46.20733" lon="6.71031">
        <ele>1014.8</ele>
        <time>2021-06-26T09:12:13Z</time>
      </trkpt>
      <trkpt lat="46.20734" lon="6.71028">
        <ele>1015</ele>
        <time>2021-06-26T09:12:14Z</time>
      </trkpt>
      <trkpt lat="46.20735" lon="6.71024">
        <ele>1015.2</ele>
        <time>2021-06-26T09:12:15Z</time>
      </trkpt>
      <trkpt lat="46.20736" lon="6.71022">
        <ele>1015.4</ele>
        <time>2021-06-26T09:12:16Z</time>
      </trkpt>
      <trkpt lat="46.20738" lon="6.71019">
        <ele>1015.6</ele>
        <time>2021-06-26T09:12:17Z</time>
      </trkpt>
      <trkpt lat="46.20739" lon="6.71017">
        <ele>1015.8</ele>
        <time>2021-06-26T09:12:18Z</time>
      </trkpt>
      <trkpt lat="46.20741" lon="6.71016">
        <ele>1016</ele>
        <time>2021-06-26T09:12:19Z</time>
      </trkpt>
      <trkpt lat="46.20742" lon="6.71016">
        <ele>1016.4</ele>
        <time>2021-06-26T09:12:20Z</time>
      </trkpt>
      <trkpt lat="46.20744" lon="6.71017">
        <ele>1016.6</ele>
        <time>2021-06-26T09:12:21Z</time>
      </trkpt>
      <trkpt lat="46.20746" lon="6.71018">
        <ele>1016.8</ele>
        <time>2021-06-26T09:12:22Z</time>
      </trkpt>
      <trkpt lat="46.20747" lon="6.7102">
        <ele>1017</ele>
        <time>2021-06-26T09:12:23Z</time>
      </trkpt>
      <trkpt lat="46.20748" lon="6.71022">
        <ele>1017.4</ele>
        <time>2021-06-26T09:12:24Z</time>
      </trkpt>
      <trkpt lat="46.20749" lon="6.71024">
        <ele>1017.6</ele>
        <time>2021-06-26T09:12:25Z</time>
      </trkpt>
      <trkpt lat="46.20751" lon="6.71026">
        <ele>1017.8</ele>
        <time>2021-06-26T09:12:26Z</time>
      </trkpt>
      <trkpt lat="46.20752" lon="6.71028">
        <ele>1018</ele>
        <time>2021-06-26T09:12:27Z</time>
      </trkpt>
      <trkpt lat="46.20753" lon="6.7103">
        <ele>1018.6</ele>
        <time>2021-06-26T09:12:28Z</time>
      </trkpt>
      <trkpt lat="46.20754" lon="6.71032">
        <ele>1018.8</ele>
        <time>2021-06-26T09:12:29Z</time>
      </trkpt>
      <trkpt lat="46.20756" lon="6.71035">
        <ele>1018.8</ele>
        <time>2021-06-26T09:12:30Z</time>
      </trkpt>
      <trkpt lat="46.20757" lon="6.71037">
        <ele>1019.2</ele>
        <time>2021-06-26T09:12:31Z</time>
      </trkpt>
      <trkpt lat="46.20757" lon="6.7104">
        <ele>1019.4</ele>
        <time>2021-06-26T09:12:32Z</time>
      </trkpt>
      <trkpt lat="46.20758" lon="6.71042">
        <ele>1019.8</ele>
        <time>2021-06-26T09:12:33Z</time>
      </trkpt>
      <trkpt lat="46.20759" lon="6.71045">
        <ele>1020</ele>
        <time>2021-06-26T09:12:34Z</time>
      </trkpt>
      <trkpt lat="46.20759" lon="6.71047">
        <ele>1020.2</ele>
        <time>2021-06-26T09:12:35Z</time>
      </trkpt>
      <trkpt lat="46.2076" lon="6.7105">
        <ele>1020.4</ele>
        <time>2021-06-26T09:12:36Z</time>
      </trkpt>
      <trkpt lat="46.2076" lon="6.71052">
        <ele>1020.6</ele>
        <time>2021-06-26T09:12:37Z</time>
      </trkpt>
      <trkpt lat="46.20762" lon="6.71057">
        <ele>1020.8</ele>
        <time>2021-06-26T09:12:38Z</time>
      </trkpt>
      <trkpt lat="46.20764" lon="6.71059">
        <ele>1021.4</ele>
        <time>2021-06-26T09:12:40Z</time>
      </trkpt>
      <trkpt lat="46.20765" lon="6.71062">
        <ele>1021.4</ele>
        <time>2021-06-26T09:12:41Z</time>
      </trkpt>
      <trkpt lat="46.20767" lon="6.71064">
        <ele>1021.6</ele>
        <time>2021-06-26T09:12:42Z</time>
      </trkpt>
      <trkpt lat="46.2077" lon="6.71066">
        <ele>1021.8</ele>
        <time>2021-06-26T09:12:43Z</time>
      </trkpt>
      <trkpt lat="46.20771" lon="6.71068">
        <ele>1022</ele>
        <time>2021-06-26T09:12:44Z</time>
      </trkpt>
      <trkpt lat="46.20772" lon="6.7107">
        <ele>1022.2</ele>
        <time>2021-06-26T09:12:45Z</time>
      </trkpt>
      <trkpt lat="46.20772" lon="6.71071">
        <ele>1022.4</ele>
        <time>2021-06-26T09:12:46Z</time>
      </trkpt>
      <trkpt lat="46.20773" lon="6.71074">
        <ele>1022.4</ele>
        <time>2021-06-26T09:12:47Z</time>
      </trkpt>
      <trkpt lat="46.20774" lon="6.71076">
        <ele>1022.8</ele>
        <time>2021-06-26T09:12:48Z</time>
      </trkpt>
      <trkpt lat="46.20775" lon="6.71078">
        <ele>1023.2</ele>
        <time>2021-06-26T09:12:49Z</time>
      </trkpt>
      <trkpt lat="46.20776" lon="6.7108">
        <ele>1023.4</ele>
        <time>2021-06-26T09:12:50Z</time>
      </trkpt>
      <trkpt lat="46.20776" lon="6.71083">
        <ele>1023.6</ele>
        <time>2021-06-26T09:12:51Z</time>
      </trkpt>
      <trkpt lat="46.20778" lon="6.71086">
        <ele>1023.8</ele>
        <time>2021-06-26T09:12:52Z</time>
      </trkpt>
      <trkpt lat="46.20779" lon="6.71088">
        <ele>1023.8</ele>
        <time>2021-06-26T09:12:53Z</time>
      </trkpt>
      <trkpt lat="46.20781" lon="6.7109">
        <ele>1024</ele>
        <time>2021-06-26T09:12:54Z</time>
      </trkpt>
      <trkpt lat="46.20782" lon="6.71092">
        <ele>1024.2</ele>
        <time>2021-06-26T09:12:55Z</time>
      </trkpt>
      <trkpt lat="46.20784" lon="6.71095">
        <ele>1024.4</ele>
        <time>2021-06-26T09:12:56Z</time>
      </trkpt>
      <trkpt lat="46.20787" lon="6.711">
        <ele>1024.4</ele>
        <time>2021-06-26T09:12:57Z</time>
      </trkpt>
      <trkpt lat="46.20788" lon="6.71102">
        <ele>1024.6</ele>
        <time>2021-06-26T09:12:58Z</time>
      </trkpt>
      <trkpt lat="46.20791" lon="6.71106">
        <ele>1024.8</ele>
        <time>2021-06-26T09:12:59Z</time>
      </trkpt>
      <trkpt lat="46.20793" lon="6.71109">
        <ele>1025</ele>
        <time>2021-06-26T09:13:00Z</time>
      </trkpt>
      <trkpt lat="46.20795" lon="6.71112">
        <ele>1025.2</ele>
        <time>2021-06-26T09:13:01Z</time>
      </trkpt>
      <trkpt lat="46.20796" lon="6.71116">
        <ele>1025.4</ele>
        <time>2021-06-26T09:13:02Z</time>
      </trkpt>
      <trkpt lat="46.20798" lon="6.71118">
        <ele>1025.4</ele>
        <time>2021-06-26T09:13:03Z</time>
      </trkpt>
      <trkpt lat="46.20798" lon="6.71121">
        <ele>1025.6</ele>
        <time>2021-06-26T09:13:04Z</time>
      </trkpt>
      <trkpt lat="46.20799" lon="6.71125">
        <ele>1026</ele>
        <time>2021-06-26T09:13:05Z</time>
      </trkpt>
      <trkpt lat="46.208" lon="6.71128">
        <ele>1026.2</ele>
        <time>2021-06-26T09:13:06Z</time>
      </trkpt>
      <trkpt lat="46.20802" lon="6.71132">
        <ele>1026.4</ele>
        <time>2021-06-26T09:13:07Z</time>
      </trkpt>
      <trkpt lat="46.20804" lon="6.71136">
        <ele>1026.4</ele>
        <time>2021-06-26T09:13:08Z</time>
      </trkpt>
      <trkpt lat="46.20804" lon="6.7114">
        <ele>1027</ele>
        <time>2021-06-26T09:13:09Z</time>
      </trkpt>
      <trkpt lat="46.20804" lon="6.71143">
        <ele>1027.2</ele>
        <time>2021-06-26T09:13:10Z</time>
      </trkpt>
      <trkpt lat="46.20805" lon="6.71148">
        <ele>1027.6</ele>
        <time>2021-06-26T09:13:11Z</time>
      </trkpt>
      <trkpt lat="46.20807" lon="6.71155">
        <ele>1027.8</ele>
        <time>2021-06-26T09:13:12Z</time>
      </trkpt>
      <trkpt lat="46.20807" lon="6.71159">
        <ele>1028.2</ele>
        <time>2021-06-26T09:13:14Z</time>
      </trkpt>
      <trkpt lat="46.20808" lon="6.71164">
        <ele>1028.2</ele>
        <time>2021-06-26T09:13:15Z</time>
      </trkpt>
      <trkpt lat="46.2081" lon="6.71168">
        <ele>1028.4</ele>
        <time>2021-06-26T09:13:16Z</time>
      </trkpt>
      <trkpt lat="46.20812" lon="6.71171">
        <ele>1028.4</ele>
        <time>2021-06-26T09:13:17Z</time>
      </trkpt>
      <trkpt lat="46.20816" lon="6.71178">
        <ele>1028.6</ele>
        <time>2021-06-26T09:13:18Z</time>
      </trkpt>
      <trkpt lat="46.20818" lon="6.71182">
        <ele>1028.8</ele>
        <time>2021-06-26T09:13:19Z</time>
      </trkpt>
      <trkpt lat="46.2082" lon="6.71187">
        <ele>1029.2</ele>
        <time>2021-06-26T09:13:20Z</time>
      </trkpt>
      <trkpt lat="46.20822" lon="6.71191">
        <ele>1029.2</ele>
        <time>2021-06-26T09:13:21Z</time>
      </trkpt>
      <trkpt lat="46.20823" lon="6.71194">
        <ele>1029.4</ele>
        <time>2021-06-26T09:13:22Z</time>
      </trkpt>
      <trkpt lat="46.20825" lon="6.71198">
        <ele>1029.6</ele>
        <time>2021-06-26T09:13:23Z</time>
      </trkpt>
      <trkpt lat="46.20827" lon="6.71202">
        <ele>1029.8</ele>
        <time>2021-06-26T09:13:24Z</time>
      </trkpt>
      <trkpt lat="46.20829" lon="6.71207">
        <ele>1030</ele>
        <time>2021-06-26T09:13:25Z</time>
      </trkpt>
      <trkpt lat="46.20831" lon="6.71211">
        <ele>1030</ele>
        <time>2021-06-26T09:13:26Z</time>
      </trkpt>
      <trkpt lat="46.20832" lon="6.71216">
        <ele>1030.2</ele>
        <time>2021-06-26T09:13:27Z</time>
      </trkpt>
      <trkpt lat="46.20833" lon="6.71221">
        <ele>1030.4</ele>
        <time>2021-06-26T09:13:28Z</time>
      </trkpt>
      <trkpt lat="46.20834" lon="6.71226">
        <ele>1030.4</ele>
        <time>2021-06-26T09:13:29Z</time>
      </trkpt>
      <trkpt lat="46.20835" lon="6.71231">
        <ele>1030.6</ele>
        <time>2021-06-26T09:13:30Z</time>
      </trkpt>
      <trkpt lat="46.20836" lon="6.71236">
        <ele>1030.8</ele>
        <time>2021-06-26T09:13:31Z</time>
      </trkpt>
      <trkpt lat="46.20838" lon="6.71241">
        <ele>1030.8</ele>
        <time>2021-06-26T09:13:32Z</time>
      </trkpt>
      <trkpt lat="46.20838" lon="6.71245">
        <ele>1031.4</ele>
        <time>2021-06-26T09:13:34Z</time>
      </trkpt>
      <trkpt lat="46.20838" lon="6.7125">
        <ele>1031.6</ele>
        <time>2021-06-26T09:13:35Z</time>
      </trkpt>
      <trkpt lat="46.20838" lon="6.71254">
        <ele>1031.8</ele>
        <time>2021-06-26T09:13:36Z</time>
      </trkpt>
      <trkpt lat="46.20838" lon="6.71258">
        <ele>1032.2</ele>
        <time>2021-06-26T09:13:37Z</time>
      </trkpt>
      <trkpt lat="46.20838" lon="6.71263">
        <ele>1032.4</ele>
        <time>2021-06-26T09:13:38Z</time>
      </trkpt>
      <trkpt lat="46.20838" lon="6.71267">
        <ele>1032.4</ele>
        <time>2021-06-26T09:13:39Z</time>
      </trkpt>
      <trkpt lat="46.20838" lon="6.71272">
        <ele>1032.4</ele>
        <time>2021-06-26T09:13:40Z</time>
      </trkpt>
      <trkpt lat="46.20838" lon="6.71276">
        <ele>1032.8</ele>
        <time>2021-06-26T09:13:41Z</time>
      </trkpt>
      <trkpt lat="46.20838" lon="6.7128">
        <ele>1032.8</ele>
        <time>2021-06-26T09:13:42Z</time>
      </trkpt>
      <trkpt lat="46.20838" lon="6.71284">
        <ele>1033</ele>
        <time>2021-06-26T09:13:43Z</time>
      </trkpt>
      <trkpt lat="46.20838" lon="6.71288">
        <ele>1033.2</ele>
        <time>2021-06-26T09:13:44Z</time>
      </trkpt>
      <trkpt lat="46.20838" lon="6.71292">
        <ele>1033.4</ele>
        <time>2021-06-26T09:13:45Z</time>
      </trkpt>
      <trkpt lat="46.20838" lon="6.71297">
        <ele>1033.4</ele>
        <time>2021-06-26T09:13:46Z</time>
      </trkpt>
      <trkpt lat="46.20837" lon="6.71301">
        <ele>1033.8</ele>
        <time>2021-06-26T09:13:47Z</time>
      </trkpt>
      <trkpt lat="46.20836" lon="6.71304">
        <ele>1034</ele>
        <time>2021-06-26T09:13:48Z</time>
      </trkpt>
      <trkpt lat="46.20834" lon="6.71308">
        <ele>1034.2</ele>
        <time>2021-06-26T09:13:49Z</time>
      </trkpt>
      <trkpt lat="46.20832" lon="6.71312">
        <ele>1034.2</ele>
        <time>2021-06-26T09:13:50Z</time>
      </trkpt>
      <trkpt lat="46.20831" lon="6.71315">
        <ele>1034.6</ele>
        <time>2021-06-26T09:13:51Z</time>
      </trkpt>
      <trkpt lat="46.20829" lon="6.71318">
        <ele>1034.8</ele>
        <time>2021-06-26T09:13:52Z</time>
      </trkpt>
      <trkpt lat="46.20828" lon="6.71321">
        <ele>1035.2</ele>
        <time>2021-06-26T09:13:53Z</time>
      </trkpt>
      <trkpt lat="46.20826" lon="6.71323">
        <ele>1035.2</ele>
        <time>2021-06-26T09:13:54Z</time>
      </trkpt>
      <trkpt lat="46.20824" lon="6.71325">
        <ele>1035.6</ele>
        <time>2021-06-26T09:13:55Z</time>
      </trkpt>
      <trkpt lat="46.20821" lon="6.71327">
        <ele>1035.6</ele>
        <time>2021-06-26T09:13:56Z</time>
      </trkpt>
      <trkpt lat="46.2082" lon="6.71329">
        <ele>1036</ele>
        <time>2021-06-26T09:13:57Z</time>
      </trkpt>
      <trkpt lat="46.20818" lon="6.71331">
        <ele>1036.2</ele>
        <time>2021-06-26T09:13:58Z</time>
      </trkpt>
      <trkpt lat="46.20816" lon="6.71333">
        <ele>1036.4</ele>
        <time>2021-06-26T09:13:59Z</time>
      </trkpt>
      <trkpt lat="46.20814" lon="6.71335">
        <ele>1036.8</ele>
        <time>2021-06-26T09:14:00Z</time>
      </trkpt>
      <trkpt lat="46.20813" lon="6.71336">
        <ele>1037.2</ele>
        <time>2021-06-26T09:14:01Z</time>
      </trkpt>
      <trkpt lat="46.20811" lon="6.71338">
        <ele>1037.2</ele>
        <time>2021-06-26T09:14:02Z</time>
      </trkpt>
      <trkpt lat="46.2081" lon="6.7134">
        <ele>1037.6</ele>
        <time>2021-06-26T09:14:03Z</time>
      </trkpt>
      <trkpt lat="46.20809" lon="6.71342">
        <ele>1038</ele>
        <time>2021-06-26T09:14:04Z</time>
      </trkpt>
      <trkpt lat="46.20807" lon="6.71346">
        <ele>1038</ele>
        <time>2021-06-26T09:14:05Z</time>
      </trkpt>
      <trkpt lat="46.20805" lon="6.71349">
        <ele>1038.4</ele>
        <time>2021-06-26T09:14:06Z</time>
      </trkpt>
      <trkpt lat="46.20803" lon="6.71352">
        <ele>1038.4</ele>
        <time>2021-06-26T09:14:07Z</time>
      </trkpt>
      <trkpt lat="46.20802" lon="6.71355">
        <ele>1038.6</ele>
        <time>2021-06-26T09:14:08Z</time>
      </trkpt>
      <trkpt lat="46.20801" lon="6.71359">
        <ele>1039</ele>
        <time>2021-06-26T09:14:09Z</time>
      </trkpt>
      <trkpt lat="46.208" lon="6.71362">
        <ele>1039</ele>
        <time>2021-06-26T09:14:10Z</time>
      </trkpt>
      <trkpt lat="46.20799" lon="6.71366">
        <ele>1039.4</ele>
        <time>2021-06-26T09:14:11Z</time>
      </trkpt>
      <trkpt lat="46.20798" lon="6.71369">
        <ele>1039.6</ele>
        <time>2021-06-26T09:14:12Z</time>
      </trkpt>
      <trkpt lat="46.20797" lon="6.71373">
        <ele>1039.8</ele>
        <time>2021-06-26T09:14:13Z</time>
      </trkpt>
      <trkpt lat="46.20796" lon="6.71376">
        <ele>1040.2</ele>
        <time>2021-06-26T09:14:14Z</time>
      </trkpt>
      <trkpt lat="46.20796" lon="6.7138">
        <ele>1040.2</ele>
        <time>2021-06-26T09:14:15Z</time>
      </trkpt>
      <trkpt lat="46.20795" lon="6.71384">
        <ele>1040.4</ele>
        <time>2021-06-26T09:14:16Z</time>
      </trkpt>
      <trkpt lat="46.20795" lon="6.71387">
        <ele>1040.6</ele>
        <time>2021-06-26T09:14:17Z</time>
      </trkpt>
      <trkpt lat="46.20795" lon="6.7139">
        <ele>1040.8</ele>
        <time>2021-06-26T09:14:18Z</time>
      </trkpt>
      <trkpt lat="46.20794" lon="6.71393">
        <ele>1041</ele>
        <time>2021-06-26T09:14:19Z</time>
      </trkpt>
      <trkpt lat="46.20795" lon="6.71395">
        <ele>1041.4</ele>
        <time>2021-06-26T09:14:20Z</time>
      </trkpt>
      <trkpt lat="46.20794" lon="6.71399">
        <ele>1041.4</ele>
        <time>2021-06-26T09:14:21Z</time>
      </trkpt>
      <trkpt lat="46.20794" lon="6.71403">
        <ele>1041.6</ele>
        <time>2021-06-26T09:14:22Z</time>
      </trkpt>
      <trkpt lat="46.20793" lon="6.71407">
        <ele>1042</ele>
        <time>2021-06-26T09:14:23Z</time>
      </trkpt>
      <trkpt lat="46.20792" lon="6.71411">
        <ele>1042.2</ele>
        <time>2021-06-26T09:14:24Z</time>
      </trkpt>
      <trkpt lat="46.20792" lon="6.71414">
        <ele>1042.2</ele>
        <time>2021-06-26T09:14:25Z</time>
      </trkpt>
      <trkpt lat="46.20791" lon="6.71418">
        <ele>1042.2</ele>
        <time>2021-06-26T09:14:26Z</time>
      </trkpt>
      <trkpt lat="46.2079" lon="6.71422">
        <ele>1042.4</ele>
        <time>2021-06-26T09:14:27Z</time>
      </trkpt>
      <trkpt lat="46.20789" lon="6.71426">
        <ele>1042.6</ele>
        <time>2021-06-26T09:14:28Z</time>
      </trkpt>
      <trkpt lat="46.20787" lon="6.7143">
        <ele>1042.8</ele>
        <time>2021-06-26T09:14:29Z</time>
      </trkpt>
      <trkpt lat="46.20786" lon="6.71434">
        <ele>1043</ele>
        <time>2021-06-26T09:14:30Z</time>
      </trkpt>
      <trkpt lat="46.20784" lon="6.71436">
        <ele>1043.2</ele>
        <time>2021-06-26T09:14:31Z</time>
      </trkpt>
      <trkpt lat="46.20782" lon="6.7144">
        <ele>1043.6</ele>
        <time>2021-06-26T09:14:32Z</time>
      </trkpt>
      <trkpt lat="46.20781" lon="6.71443">
        <ele>1043.8</ele>
        <time>2021-06-26T09:14:33Z</time>
      </trkpt>
      <trkpt lat="46.20779" lon="6.71446">
        <ele>1044</ele>
        <time>2021-06-26T09:14:34Z</time>
      </trkpt>
      <trkpt lat="46.20778" lon="6.7145">
        <ele>1044</ele>
        <time>2021-06-26T09:14:35Z</time>
      </trkpt>
      <trkpt lat="46.20777" lon="6.71453">
        <ele>1044.2</ele>
        <time>2021-06-26T09:14:36Z</time>
      </trkpt>
      <trkpt lat="46.20776" lon="6.71456">
        <ele>1044.6</ele>
        <time>2021-06-26T09:14:37Z</time>
      </trkpt>
      <trkpt lat="46.20775" lon="6.7146">
        <ele>1044.8</ele>
        <time>2021-06-26T09:14:38Z</time>
      </trkpt>
      <trkpt lat="46.20774" lon="6.71463">
        <ele>1045</ele>
        <time>2021-06-26T09:14:39Z</time>
      </trkpt>
      <trkpt lat="46.20773" lon="6.71466">
        <ele>1045.4</ele>
        <time>2021-06-26T09:14:40Z</time>
      </trkpt>
      <trkpt lat="46.20772" lon="6.7147">
        <ele>1045.4</ele>
        <time>2021-06-26T09:14:41Z</time>
      </trkpt>
      <trkpt lat="46.20772" lon="6.71474">
        <ele>1045.8</ele>
        <time>2021-06-26T09:14:42Z</time>
      </trkpt>
      <trkpt lat="46.20771" lon="6.71479">
        <ele>1046</ele>
        <time>2021-06-26T09:14:43Z</time>
      </trkpt>
      <trkpt lat="46.20771" lon="6.71483">
        <ele>1046</ele>
        <time>2021-06-26T09:14:44Z</time>
      </trkpt>
      <trkpt lat="46.20772" lon="6.71488">
        <ele>1046.6</ele>
        <time>2021-06-26T09:14:45Z</time>
      </trkpt>
      <trkpt lat="46.20772" lon="6.71493">
        <ele>1046.8</ele>
        <time>2021-06-26T09:14:46Z</time>
      </trkpt>
      <trkpt lat="46.20772" lon="6.71498">
        <ele>1047</ele>
        <time>2021-06-26T09:14:47Z</time>
      </trkpt>
      <trkpt lat="46.20772" lon="6.71503">
        <ele>1047</ele>
        <time>2021-06-26T09:14:48Z</time>
      </trkpt>
      <trkpt lat="46.20772" lon="6.71507">
        <ele>1047.2</ele>
        <time>2021-06-26T09:14:49Z</time>
      </trkpt>
      <trkpt lat="46.20773" lon="6.71512">
        <ele>1047.4</ele>
        <time>2021-06-26T09:14:50Z</time>
      </trkpt>
      <trkpt lat="46.20773" lon="6.71517">
        <ele>1047.6</ele>
        <time>2021-06-26T09:14:51Z</time>
      </trkpt>
      <trkpt lat="46.20774" lon="6.71522">
        <ele>1047.8</ele>
        <time>2021-06-26T09:14:52Z</time>
      </trkpt>
      <trkpt lat="46.20775" lon="6.71527">
        <ele>1048</ele>
        <time>2021-06-26T09:14:53Z</time>
      </trkpt>
      <trkpt lat="46.20776" lon="6.71531">
        <ele>1048.2</ele>
        <time>2021-06-26T09:14:54Z</time>
      </trkpt>
      <trkpt lat="46.20777" lon="6.71536">
        <ele>1048</ele>
        <time>2021-06-26T09:14:55Z</time>
      </trkpt>
      <trkpt lat="46.20778" lon="6.7154">
        <ele>1048.4</ele>
        <time>2021-06-26T09:14:56Z</time>
      </trkpt>
      <trkpt lat="46.2078" lon="6.71544">
        <ele>1048.6</ele>
        <time>2021-06-26T09:14:57Z</time>
      </trkpt>
      <trkpt lat="46.20781" lon="6.71549">
        <ele>1049</ele>
        <time>2021-06-26T09:14:58Z</time>
      </trkpt>
      <trkpt lat="46.20783" lon="6.71552">
        <ele>1049</ele>
        <time>2021-06-26T09:14:59Z</time>
      </trkpt>
      <trkpt lat="46.20784" lon="6.71556">
        <ele>1049.2</ele>
        <time>2021-06-26T09:15:00Z</time>
      </trkpt>
      <trkpt lat="46.20785" lon="6.7156">
        <ele>1049.4</ele>
        <time>2021-06-26T09:15:01Z</time>
      </trkpt>
      <trkpt lat="46.20787" lon="6.71564">
        <ele>1049.6</ele>
        <time>2021-06-26T09:15:02Z</time>
      </trkpt>
      <trkpt lat="46.20788" lon="6.71567">
        <ele>1049.8</ele>
        <time>2021-06-26T09:15:03Z</time>
      </trkpt>
      <trkpt lat="46.20789" lon="6.71572">
        <ele>1049.8</ele>
        <time>2021-06-26T09:15:04Z</time>
      </trkpt>
      <trkpt lat="46.20791" lon="6.71575">
        <ele>1050</ele>
        <time>2021-06-26T09:15:05Z</time>
      </trkpt>
      <trkpt lat="46.20792" lon="6.71579">
        <ele>1050</ele>
        <time>2021-06-26T09:15:06Z</time>
      </trkpt>
      <trkpt lat="46.20794" lon="6.71582">
        <ele>1050.4</ele>
        <time>2021-06-26T09:15:07Z</time>
      </trkpt>
      <trkpt lat="46.20795" lon="6.71586">
        <ele>1050.4</ele>
        <time>2021-06-26T09:15:08Z</time>
      </trkpt>
      <trkpt lat="46.20796" lon="6.71589">
        <ele>1050.6</ele>
        <time>2021-06-26T09:15:09Z</time>
      </trkpt>
      <trkpt lat="46.20798" lon="6.71592">
        <ele>1050.8</ele>
        <time>2021-06-26T09:15:10Z</time>
      </trkpt>
      <trkpt lat="46.20799" lon="6.71595">
        <ele>1050.8</ele>
        <time>2021-06-26T09:15:11Z</time>
      </trkpt>
      <trkpt lat="46.208" lon="6.71598">
        <ele>1051</ele>
        <time>2021-06-26T09:15:12Z</time>
      </trkpt>
      <trkpt lat="46.20801" lon="6.71601">
        <ele>1051.2</ele>
        <time>2021-06-26T09:15:13Z</time>
      </trkpt>
      <trkpt lat="46.20803" lon="6.71604">
        <ele>1051.2</ele>
        <time>2021-06-26T09:15:14Z</time>
      </trkpt>
      <trkpt lat="46.20804" lon="6.71607">
        <ele>1051.4</ele>
        <time>2021-06-26T09:15:15Z</time>
      </trkpt>
      <trkpt lat="46.20805" lon="6.7161">
        <ele>1051.8</ele>
        <time>2021-06-26T09:15:16Z</time>
      </trkpt>
      <trkpt lat="46.20806" lon="6.71613">
        <ele>1051.8</ele>
        <time>2021-06-26T09:15:17Z</time>
      </trkpt>
      <trkpt lat="46.20808" lon="6.71615">
        <ele>1052.4</ele>
        <time>2021-06-26T09:15:18Z</time>
      </trkpt>
      <trkpt lat="46.20809" lon="6.71618">
        <ele>1052.8</ele>
        <time>2021-06-26T09:15:19Z</time>
      </trkpt>
      <trkpt lat="46.20811" lon="6.71621">
        <ele>1053</ele>
        <time>2021-06-26T09:15:20Z</time>
      </trkpt>
      <trkpt lat="46.20813" lon="6.71623">
        <ele>1053.2</ele>
        <time>2021-06-26T09:15:21Z</time>
      </trkpt>
      <trkpt lat="46.20815" lon="6.71625">
        <ele>1053.4</ele>
        <time>2021-06-26T09:15:22Z</time>
      </trkpt>
      <trkpt lat="46.20816" lon="6.71628">
        <ele>1053.6</ele>
        <time>2021-06-26T09:15:23Z</time>
      </trkpt>
      <trkpt lat="46.20818" lon="6.7163">
        <ele>1054</ele>
        <time>2021-06-26T09:15:24Z</time>
      </trkpt>
      <trkpt lat="46.2082" lon="6.71633">
        <ele>1054.2</ele>
        <time>2021-06-26T09:15:25Z</time>
      </trkpt>
      <trkpt lat="46.20821" lon="6.71636">
        <ele>1054.8</ele>
        <time>2021-06-26T09:15:26Z</time>
      </trkpt>
      <trkpt lat="46.20823" lon="6.7164">
        <ele>1055</ele>
        <time>2021-06-26T09:15:27Z</time>
      </trkpt>
      <trkpt lat="46.20825" lon="6.71643">
        <ele>1055</ele>
        <time>2021-06-26T09:15:28Z</time>
      </trkpt>
      <trkpt lat="46.20826" lon="6.71646">
        <ele>1055.2</ele>
        <time>2021-06-26T09:15:29Z</time>
      </trkpt>
      <trkpt lat="46.20828" lon="6.7165">
        <ele>1055.4</ele>
        <time>2021-06-26T09:15:30Z</time>
      </trkpt>
      <trkpt lat="46.2083" lon="6.71654">
        <ele>1055.6</ele>
        <time>2021-06-26T09:15:31Z</time>
      </trkpt>
      <trkpt lat="46.20832" lon="6.71657">
        <ele>1055.6</ele>
        <time>2021-06-26T09:15:32Z</time>
      </trkpt>
      <trkpt lat="46.20834" lon="6.7166">
        <ele>1055.6</ele>
        <time>2021-06-26T09:15:33Z</time>
      </trkpt>
      <trkpt lat="46.20835" lon="6.71664">
        <ele>1055.8</ele>
        <time>2021-06-26T09:15:34Z</time>
      </trkpt>
      <trkpt lat="46.20837" lon="6.71667">
        <ele>1056</ele>
        <time>2021-06-26T09:15:35Z</time>
      </trkpt>
      <trkpt lat="46.20839" lon="6.71671">
        <ele>1056.2</ele>
        <time>2021-06-26T09:15:36Z</time>
      </trkpt>
      <trkpt lat="46.20839" lon="6.71675">
        <ele>1056.4</ele>
        <time>2021-06-26T09:15:37Z</time>
      </trkpt>
      <trkpt lat="46.2084" lon="6.7168">
        <ele>1056.2</ele>
        <time>2021-06-26T09:15:38Z</time>
      </trkpt>
      <trkpt lat="46.2084" lon="6.71684">
        <ele>1056.4</ele>
        <time>2021-06-26T09:15:39Z</time>
      </trkpt>
      <trkpt lat="46.20841" lon="6.71688">
        <ele>1056.6</ele>
        <time>2021-06-26T09:15:40Z</time>
      </trkpt>
      <trkpt lat="46.20841" lon="6.71692">
        <ele>1057</ele>
        <time>2021-06-26T09:15:41Z</time>
      </trkpt>
      <trkpt lat="46.20842" lon="6.71696">
        <ele>1057.2</ele>
        <time>2021-06-26T09:15:42Z</time>
      </trkpt>
      <trkpt lat="46.20842" lon="6.71701">
        <ele>1057.4</ele>
        <time>2021-06-26T09:15:43Z</time>
      </trkpt>
      <trkpt lat="46.20843" lon="6.71705">
        <ele>1057.6</ele>
        <time>2021-06-26T09:15:44Z</time>
      </trkpt>
      <trkpt lat="46.20843" lon="6.71708">
        <ele>1057.8</ele>
        <time>2021-06-26T09:15:45Z</time>
      </trkpt>
      <trkpt lat="46.20844" lon="6.71712">
        <ele>1058</ele>
        <time>2021-06-26T09:15:46Z</time>
      </trkpt>
      <trkpt lat="46.20844" lon="6.71716">
        <ele>1058.2</ele>
        <time>2021-06-26T09:15:47Z</time>
      </trkpt>
      <trkpt lat="46.20845" lon="6.7172">
        <ele>1058.4</ele>
        <time>2021-06-26T09:15:48Z</time>
      </trkpt>
      <trkpt lat="46.20844" lon="6.71725">
        <ele>1058.6</ele>
        <time>2021-06-26T09:15:49Z</time>
      </trkpt>
      <trkpt lat="46.20845" lon="6.71729">
        <ele>1059</ele>
        <time>2021-06-26T09:15:50Z</time>
      </trkpt>
      <trkpt lat="46.20845" lon="6.71733">
        <ele>1059.2</ele>
        <time>2021-06-26T09:15:51Z</time>
      </trkpt>
      <trkpt lat="46.20846" lon="6.71737">
        <ele>1059.2</ele>
        <time>2021-06-26T09:15:52Z</time>
      </trkpt>
      <trkpt lat="46.20846" lon="6.71741">
        <ele>1059.4</ele>
        <time>2021-06-26T09:15:53Z</time>
      </trkpt>
      <trkpt lat="46.20847" lon="6.71745">
        <ele>1059.8</ele>
        <time>2021-06-26T09:15:54Z</time>
      </trkpt>
      <trkpt lat="46.20848" lon="6.71748">
        <ele>1059.8</ele>
        <time>2021-06-26T09:15:55Z</time>
      </trkpt>
      <trkpt lat="46.20848" lon="6.71752">
        <ele>1059.8</ele>
        <time>2021-06-26T09:15:56Z</time>
      </trkpt>
      <trkpt lat="46.20849" lon="6.71756">
        <ele>1060.2</ele>
        <time>2021-06-26T09:15:57Z</time>
      </trkpt>
      <trkpt lat="46.20849" lon="6.71761">
        <ele>1060.2</ele>
        <time>2021-06-26T09:15:58Z</time>
      </trkpt>
      <trkpt lat="46.2085" lon="6.71765">
        <ele>1060.4</ele>
        <time>2021-06-26T09:15:59Z</time>
      </trkpt>
      <trkpt lat="46.2085" lon="6.71769">
        <ele>1060.6</ele>
        <time>2021-06-26T09:16:00Z</time>
      </trkpt>
      <trkpt lat="46.2085" lon="6.71772">
        <ele>1060.6</ele>
        <time>2021-06-26T09:16:01Z</time>
      </trkpt>
      <trkpt lat="46.2085" lon="6.71775">
        <ele>1060.8</ele>
        <time>2021-06-26T09:16:02Z</time>
      </trkpt>
      <trkpt lat="46.2085" lon="6.71778">
        <ele>1061.2</ele>
        <time>2021-06-26T09:16:03Z</time>
      </trkpt>
      <trkpt lat="46.2085" lon="6.71781">
        <ele>1061.4</ele>
        <time>2021-06-26T09:16:04Z</time>
      </trkpt>
      <trkpt lat="46.20849" lon="6.71784">
        <ele>1061.6</ele>
        <time>2021-06-26T09:16:05Z</time>
      </trkpt>
      <trkpt lat="46.20849" lon="6.71791">
        <ele>1062</ele>
        <time>2021-06-26T09:16:06Z</time>
      </trkpt>
      <trkpt lat="46.2085" lon="6.71795">
        <ele>1062.4</ele>
        <time>2021-06-26T09:16:08Z</time>
      </trkpt>
      <trkpt lat="46.20851" lon="6.71798">
        <ele>1062.8</ele>
        <time>2021-06-26T09:16:09Z</time>
      </trkpt>
      <trkpt lat="46.20852" lon="6.71802">
        <ele>1063.2</ele>
        <time>2021-06-26T09:16:10Z</time>
      </trkpt>
      <trkpt lat="46.20854" lon="6.71805">
        <ele>1063.4</ele>
        <time>2021-06-26T09:16:11Z</time>
      </trkpt>
      <trkpt lat="46.20855" lon="6.71809">
        <ele>1063.8</ele>
        <time>2021-06-26T09:16:12Z</time>
      </trkpt>
      <trkpt lat="46.20857" lon="6.71812">
        <ele>1064</ele>
        <time>2021-06-26T09:16:13Z</time>
      </trkpt>
      <trkpt lat="46.20859" lon="6.71816">
        <ele>1064.2</ele>
        <time>2021-06-26T09:16:14Z</time>
      </trkpt>
      <trkpt lat="46.2086" lon="6.7182">
        <ele>1064.2</ele>
        <time>2021-06-26T09:16:15Z</time>
      </trkpt>
      <trkpt lat="46.20862" lon="6.71824">
        <ele>1064.4</ele>
        <time>2021-06-26T09:16:16Z</time>
      </trkpt>
      <trkpt lat="46.20863" lon="6.71829">
        <ele>1064.4</ele>
        <time>2021-06-26T09:16:17Z</time>
      </trkpt>
      <trkpt lat="46.20865" lon="6.71833">
        <ele>1064.4</ele>
        <time>2021-06-26T09:16:18Z</time>
      </trkpt>
      <trkpt lat="46.20866" lon="6.71838">
        <ele>1064.4</ele>
        <time>2021-06-26T09:16:19Z</time>
      </trkpt>
      <trkpt lat="46.20867" lon="6.71844">
        <ele>1064.6</ele>
        <time>2021-06-26T09:16:20Z</time>
      </trkpt>
      <trkpt lat="46.20867" lon="6.71849">
        <ele>1064.6</ele>
        <time>2021-06-26T09:16:21Z</time>
      </trkpt>
      <trkpt lat="46.20868" lon="6.71854">
        <ele>1064.8</ele>
        <time>2021-06-26T09:16:22Z</time>
      </trkpt>
      <trkpt lat="46.20869" lon="6.71859">
        <ele>1064.8</ele>
        <time>2021-06-26T09:16:23Z</time>
      </trkpt>
      <trkpt lat="46.2087" lon="6.71863">
        <ele>1065</ele>
        <time>2021-06-26T09:16:24Z</time>
      </trkpt>
      <trkpt lat="46.20871" lon="6.71868">
        <ele>1065.4</ele>
        <time>2021-06-26T09:16:25Z</time>
      </trkpt>
      <trkpt lat="46.20871" lon="6.71872">
        <ele>1065.4</ele>
        <time>2021-06-26T09:16:26Z</time>
      </trkpt>
      <trkpt lat="46.20871" lon="6.71877">
        <ele>1065.6</ele>
        <time>2021-06-26T09:16:27Z</time>
      </trkpt>
      <trkpt lat="46.20871" lon="6.71881">
        <ele>1065.6</ele>
        <time>2021-06-26T09:16:28Z</time>
      </trkpt>
      <trkpt lat="46.20872" lon="6.71886">
        <ele>1065.8</ele>
        <time>2021-06-26T09:16:29Z</time>
      </trkpt>
      <trkpt lat="46.20872" lon="6.7189">
        <ele>1065.8</ele>
        <time>2021-06-26T09:16:30Z</time>
      </trkpt>
      <trkpt lat="46.20872" lon="6.71895">
        <ele>1065.8</ele>
        <time>2021-06-26T09:16:31Z</time>
      </trkpt>
      <trkpt lat="46.20873" lon="6.71901">
        <ele>1066</ele>
        <time>2021-06-26T09:16:32Z</time>
      </trkpt>
      <trkpt lat="46.20873" lon="6.71907">
        <ele>1065.8</ele>
        <time>2021-06-26T09:16:33Z</time>
      </trkpt>
      <trkpt lat="46.20874" lon="6.71913">
        <ele>1066.2</ele>
        <time>2021-06-26T09:16:34Z</time>
      </trkpt>
      <trkpt lat="46.20875" lon="6.71919">
        <ele>1066.4</ele>
        <time>2021-06-26T09:16:35Z</time>
      </trkpt>
      <trkpt lat="46.20876" lon="6.71925">
        <ele>1066.6</ele>
        <time>2021-06-26T09:16:36Z</time>
      </trkpt>
      <trkpt lat="46.20877" lon="6.7193">
        <ele>1066.6</ele>
        <time>2021-06-26T09:16:37Z</time>
      </trkpt>
      <trkpt lat="46.20878" lon="6.71936">
        <ele>1066.6</ele>
        <time>2021-06-26T09:16:38Z</time>
      </trkpt>
      <trkpt lat="46.20879" lon="6.71942">
        <ele>1066.8</ele>
        <time>2021-06-26T09:16:39Z</time>
      </trkpt>
      <trkpt lat="46.20879" lon="6.71948">
        <ele>1067</ele>
        <time>2021-06-26T09:16:40Z</time>
      </trkpt>
      <trkpt lat="46.2088" lon="6.71954">
        <ele>1067</ele>
        <time>2021-06-26T09:16:41Z</time>
      </trkpt>
      <trkpt lat="46.20881" lon="6.7196">
        <ele>1067</ele>
        <time>2021-06-26T09:16:42Z</time>
      </trkpt>
      <trkpt lat="46.20883" lon="6.71967">
        <ele>1067.2</ele>
        <time>2021-06-26T09:16:43Z</time>
      </trkpt>
      <trkpt lat="46.20884" lon="6.71973">
        <ele>1067.2</ele>
        <time>2021-06-26T09:16:44Z</time>
      </trkpt>
      <trkpt lat="46.20886" lon="6.71979">
        <ele>1067.4</ele>
        <time>2021-06-26T09:16:45Z</time>
      </trkpt>
      <trkpt lat="46.20888" lon="6.71985">
        <ele>1067.6</ele>
        <time>2021-06-26T09:16:46Z</time>
      </trkpt>
      <trkpt lat="46.20889" lon="6.71991">
        <ele>1067.8</ele>
        <time>2021-06-26T09:16:47Z</time>
      </trkpt>
      <trkpt lat="46.20891" lon="6.71997">
        <ele>1068</ele>
        <time>2021-06-26T09:16:48Z</time>
      </trkpt>
      <trkpt lat="46.20893" lon="6.72003">
        <ele>1068</ele>
        <time>2021-06-26T09:16:49Z</time>
      </trkpt>
      <trkpt lat="46.20894" lon="6.72009">
        <ele>1068</ele>
        <time>2021-06-26T09:16:50Z</time>
      </trkpt>
      <trkpt lat="46.20896" lon="6.72014">
        <ele>1068.2</ele>
        <time>2021-06-26T09:16:51Z</time>
      </trkpt>
      <trkpt lat="46.20898" lon="6.7202">
        <ele>1068.4</ele>
        <time>2021-06-26T09:16:52Z</time>
      </trkpt>
      <trkpt lat="46.20901" lon="6.72026">
        <ele>1068.4</ele>
        <time>2021-06-26T09:16:53Z</time>
      </trkpt>
      <trkpt lat="46.20903" lon="6.72031">
        <ele>1068.4</ele>
        <time>2021-06-26T09:16:54Z</time>
      </trkpt>
      <trkpt lat="46.20906" lon="6.72035">
        <ele>1068.6</ele>
        <time>2021-06-26T09:16:55Z</time>
      </trkpt>
      <trkpt lat="46.20909" lon="6.7204">
        <ele>1068.8</ele>
        <time>2021-06-26T09:16:56Z</time>
      </trkpt>
      <trkpt lat="46.20913" lon="6.72044">
        <ele>1068.8</ele>
        <time>2021-06-26T09:16:57Z</time>
      </trkpt>
      <trkpt lat="46.20916" lon="6.72048">
        <ele>1068.8</ele>
        <time>2021-06-26T09:16:58Z</time>
      </trkpt>
      <trkpt lat="46.2092" lon="6.72052">
        <ele>1069</ele>
        <time>2021-06-26T09:16:59Z</time>
      </trkpt>
      <trkpt lat="46.20923" lon="6.72055">
        <ele>1069.2</ele>
        <time>2021-06-26T09:17:00Z</time>
      </trkpt>
      <trkpt lat="46.20927" lon="6.72058">
        <ele>1069.2</ele>
        <time>2021-06-26T09:17:01Z</time>
      </trkpt>
      <trkpt lat="46.2093" lon="6.7206">
        <ele>1069.4</ele>
        <time>2021-06-26T09:17:02Z</time>
      </trkpt>
      <trkpt lat="46.20934" lon="6.72063">
        <ele>1069.4</ele>
        <time>2021-06-26T09:17:03Z</time>
      </trkpt>
      <trkpt lat="46.20937" lon="6.72065">
        <ele>1069.8</ele>
        <time>2021-06-26T09:17:04Z</time>
      </trkpt>
      <trkpt lat="46.2094" lon="6.72067">
        <ele>1069.8</ele>
        <time>2021-06-26T09:17:05Z</time>
      </trkpt>
      <trkpt lat="46.20943" lon="6.72069">
        <ele>1069.8</ele>
        <time>2021-06-26T09:17:06Z</time>
      </trkpt>
      <trkpt lat="46.2095" lon="6.72074">
        <ele>1070</ele>
        <time>2021-06-26T09:17:07Z</time>
      </trkpt>
      <trkpt lat="46.20951" lon="6.72075">
        <ele>1070</ele>
        <time>2021-06-26T09:17:08Z</time>
      </trkpt>
      <trkpt lat="46.20953" lon="6.72076">
        <ele>1070.2</ele>
        <time>2021-06-26T09:17:09Z</time>
      </trkpt>
      <trkpt lat="46.20957" lon="6.72079">
        <ele>1070.4</ele>
        <time>2021-06-26T09:17:10Z</time>
      </trkpt>
      <trkpt lat="46.20961" lon="6.72081">
        <ele>1070.4</ele>
        <time>2021-06-26T09:17:11Z</time>
      </trkpt>
      <trkpt lat="46.20965" lon="6.72083">
        <ele>1070.8</ele>
        <time>2021-06-26T09:17:12Z</time>
      </trkpt>
      <trkpt lat="46.2097" lon="6.72086">
        <ele>1070.8</ele>
        <time>2021-06-26T09:17:13Z</time>
      </trkpt>
      <trkpt lat="46.20974" lon="6.72089">
        <ele>1071</ele>
        <time>2021-06-26T09:17:14Z</time>
      </trkpt>
      <trkpt lat="46.20978" lon="6.72093">
        <ele>1071</ele>
        <time>2021-06-26T09:17:15Z</time>
      </trkpt>
      <trkpt lat="46.20982" lon="6.72096">
        <ele>1071</ele>
        <time>2021-06-26T09:17:16Z</time>
      </trkpt>
      <trkpt lat="46.20986" lon="6.721">
        <ele>1071</ele>
        <time>2021-06-26T09:17:17Z</time>
      </trkpt>
      <trkpt lat="46.2099" lon="6.72104">
        <ele>1071.2</ele>
        <time>2021-06-26T09:17:18Z</time>
      </trkpt>
      <trkpt lat="46.20999" lon="6.72113">
        <ele>1071</ele>
        <time>2021-06-26T09:17:20Z</time>
      </trkpt>
      <trkpt lat="46.21009" lon="6.72124">
        <ele>1071.2</ele>
        <time>2021-06-26T09:17:22Z</time>
      </trkpt>
      <trkpt lat="46.21021" lon="6.72143">
        <ele>1071.2</ele>
        <time>2021-06-26T09:17:25Z</time>
      </trkpt>
      <trkpt lat="46.21024" lon="6.7215">
        <ele>1071</ele>
        <time>2021-06-26T09:17:26Z</time>
      </trkpt>
      <trkpt lat="46.21027" lon="6.72157">
        <ele>1071</ele>
        <time>2021-06-26T09:17:27Z</time>
      </trkpt>
      <trkpt lat="46.21032" lon="6.72173">
        <ele>1071.2</ele>
        <time>2021-06-26T09:17:28Z</time>
      </trkpt>
      <trkpt lat="46.21039" lon="6.72207">
        <ele>1071.2</ele>
        <time>2021-06-26T09:17:32Z</time>
      </trkpt>
      <trkpt lat="46.21048" lon="6.7224">
        <ele>1071</ele>
        <time>2021-06-26T09:17:36Z</time>
      </trkpt>
      <trkpt lat="46.21056" lon="6.72265">
        <ele>1071.6</ele>
        <time>2021-06-26T09:17:39Z</time>
      </trkpt>
      <trkpt lat="46.21058" lon="6.72274">
        <ele>1071.8</ele>
        <time>2021-06-26T09:17:40Z</time>
      </trkpt>
      <trkpt lat="46.21059" lon="6.72292">
        <ele>1071.8</ele>
        <time>2021-06-26T09:17:42Z</time>
      </trkpt>
      <trkpt lat="46.21059" lon="6.72301">
        <ele>1072</ele>
        <time>2021-06-26T09:17:43Z</time>
      </trkpt>
      <trkpt lat="46.21058" lon="6.7231">
        <ele>1071.8</ele>
        <time>2021-06-26T09:17:44Z</time>
      </trkpt>
      <trkpt lat="46.21057" lon="6.72318">
        <ele>1072</ele>
        <time>2021-06-26T09:17:45Z</time>
      </trkpt>
      <trkpt lat="46.21055" lon="6.72327">
        <ele>1071.8</ele>
        <time>2021-06-26T09:17:46Z</time>
      </trkpt>
      <trkpt lat="46.21052" lon="6.72344">
        <ele>1072</ele>
        <time>2021-06-26T09:17:49Z</time>
      </trkpt>
      <trkpt lat="46.21048" lon="6.72361">
        <ele>1072</ele>
        <time>2021-06-26T09:17:51Z</time>
      </trkpt>
      <trkpt lat="46.21046" lon="6.7237">
        <ele>1072</ele>
        <time>2021-06-26T09:17:52Z</time>
      </trkpt>
      <trkpt lat="46.21037" lon="6.72413">
        <ele>1072.2</ele>
        <time>2021-06-26T09:17:57Z</time>
      </trkpt>
      <trkpt lat="46.21036" lon="6.72422">
        <ele>1072.4</ele>
        <time>2021-06-26T09:17:58Z</time>
      </trkpt>
      <trkpt lat="46.21034" lon="6.72466">
        <ele>1073.4</ele>
        <time>2021-06-26T09:18:03Z</time>
      </trkpt>
      <trkpt lat="46.21032" lon="6.72503">
        <ele>1074</ele>
        <time>2021-06-26T09:18:07Z</time>
      </trkpt>
      <trkpt lat="46.21032" lon="6.72521">
        <ele>1074</ele>
        <time>2021-06-26T09:18:09Z</time>
      </trkpt>
      <trkpt lat="46.21032" lon="6.72539">
        <ele>1074</ele>
        <time>2021-06-26T09:18:11Z</time>
      </trkpt>
      <trkpt lat="46.2103" lon="6.72576">
        <ele>1074.4</ele>
        <time>2021-06-26T09:18:15Z</time>
      </trkpt>
      <trkpt lat="46.21028" lon="6.72593">
        <ele>1074.4</ele>
        <time>2021-06-26T09:18:16Z</time>
      </trkpt>
      <trkpt lat="46.21028" lon="6.72602">
        <ele>1074.4</ele>
        <time>2021-06-26T09:18:18Z</time>
      </trkpt>
      <trkpt lat="46.21027" lon="6.7261">
        <ele>1074.6</ele>
        <time>2021-06-26T09:18:19Z</time>
      </trkpt>
      <trkpt lat="46.21026" lon="6.72618">
        <ele>1074.6</ele>
        <time>2021-06-26T09:18:20Z</time>
      </trkpt>
      <trkpt lat="46.21025" lon="6.72634">
        <ele>1074.6</ele>
        <time>2021-06-26T09:18:22Z</time>
      </trkpt>
      <trkpt lat="46.21025" lon="6.72649">
        <ele>1074.6</ele>
        <time>2021-06-26T09:18:23Z</time>
      </trkpt>
      <trkpt lat="46.21026" lon="6.72653">
        <ele>1074.6</ele>
        <time>2021-06-26T09:18:24Z</time>
      </trkpt>
      <trkpt lat="46.21026" lon="6.72657">
        <ele>1074.6</ele>
        <time>2021-06-26T09:18:25Z</time>
      </trkpt>
      <trkpt lat="46.21027" lon="6.72665">
        <ele>1074.8</ele>
        <time>2021-06-26T09:18:26Z</time>
      </trkpt>
      <trkpt lat="46.21031" lon="6.72699">
        <ele>1075.4</ele>
        <time>2021-06-26T09:18:30Z</time>
      </trkpt>
      <trkpt lat="46.21032" lon="6.72707">
        <ele>1075.6</ele>
        <time>2021-06-26T09:18:31Z</time>
      </trkpt>
      <trkpt lat="46.21033" lon="6.72716">
        <ele>1075.8</ele>
        <time>2021-06-26T09:18:32Z</time>
      </trkpt>
      <trkpt lat="46.21034" lon="6.72725">
        <ele>1076</ele>
        <time>2021-06-26T09:18:33Z</time>
      </trkpt>
      <trkpt lat="46.21034" lon="6.72733">
        <ele>1076.2</ele>
        <time>2021-06-26T09:18:34Z</time>
      </trkpt>
      <trkpt lat="46.21034" lon="6.72742">
        <ele>1076.2</ele>
        <time>2021-06-26T09:18:35Z</time>
      </trkpt>
      <trkpt lat="46.21034" lon="6.7275">
        <ele>1076.4</ele>
        <time>2021-06-26T09:18:36Z</time>
      </trkpt>
      <trkpt lat="46.21034" lon="6.72759">
        <ele>1076.6</ele>
        <time>2021-06-26T09:18:37Z</time>
      </trkpt>
      <trkpt lat="46.21034" lon="6.72767">
        <ele>1076.6</ele>
        <time>2021-06-26T09:18:38Z</time>
      </trkpt>
      <trkpt lat="46.21034" lon="6.72775">
        <ele>1076.6</ele>
        <time>2021-06-26T09:18:39Z</time>
      </trkpt>
      <trkpt lat="46.21034" lon="6.72783">
        <ele>1076.8</ele>
        <time>2021-06-26T09:18:40Z</time>
      </trkpt>
      <trkpt lat="46.21033" lon="6.72792">
        <ele>1077</ele>
        <time>2021-06-26T09:18:41Z</time>
      </trkpt>
      <trkpt lat="46.21033" lon="6.728">
        <ele>1077</ele>
        <time>2021-06-26T09:18:42Z</time>
      </trkpt>
      <trkpt lat="46.21033" lon="6.72808">
        <ele>1077.2</ele>
        <time>2021-06-26T09:18:43Z</time>
      </trkpt>
      <trkpt lat="46.21033" lon="6.72816">
        <ele>1077.2</ele>
        <time>2021-06-26T09:18:44Z</time>
      </trkpt>
      <trkpt lat="46.21033" lon="6.72824">
        <ele>1077.2</ele>
        <time>2021-06-26T09:18:45Z</time>
      </trkpt>
      <trkpt lat="46.21033" lon="6.72832">
        <ele>1077.4</ele>
        <time>2021-06-26T09:18:46Z</time>
      </trkpt>
      <trkpt lat="46.21034" lon="6.72858">
        <ele>1077.4</ele>
        <time>2021-06-26T09:18:49Z</time>
      </trkpt>
      <trkpt lat="46.21034" lon="6.72866">
        <ele>1077.6</ele>
        <time>2021-06-26T09:18:50Z</time>
      </trkpt>
      <trkpt lat="46.21034" lon="6.72875">
        <ele>1077.6</ele>
        <time>2021-06-26T09:18:51Z</time>
      </trkpt>
      <trkpt lat="46.21037" lon="6.72918">
        <ele>1078</ele>
        <time>2021-06-26T09:18:56Z</time>
      </trkpt>
      <trkpt lat="46.21042" lon="6.7298">
        <ele>1078.2</ele>
        <time>2021-06-26T09:19:03Z</time>
      </trkpt>
      <trkpt lat="46.21044" lon="6.72997">
        <ele>1078.4</ele>
        <time>2021-06-26T09:19:05Z</time>
      </trkpt>
      <trkpt lat="46.21046" lon="6.73023">
        <ele>1078.4</ele>
        <time>2021-06-26T09:19:08Z</time>
      </trkpt>
      <trkpt lat="46.21046" lon="6.73032">
        <ele>1078.4</ele>
        <time>2021-06-26T09:19:09Z</time>
      </trkpt>
      <trkpt lat="46.21046" lon="6.73041">
        <ele>1078.4</ele>
        <time>2021-06-26T09:19:10Z</time>
      </trkpt>
      <trkpt lat="46.21045" lon="6.73067">
        <ele>1078.4</ele>
        <time>2021-06-26T09:19:12Z</time>
      </trkpt>
      <trkpt lat="46.21044" lon="6.73075">
        <ele>1078.4</ele>
        <time>2021-06-26T09:19:14Z</time>
      </trkpt>
      <trkpt lat="46.21044" lon="6.73083">
        <ele>1078.4</ele>
        <time>2021-06-26T09:19:15Z</time>
      </trkpt>
      <trkpt lat="46.21042" lon="6.73092">
        <ele>1078.4</ele>
        <time>2021-06-26T09:19:16Z</time>
      </trkpt>
      <trkpt lat="46.21038" lon="6.7311">
        <ele>1078.2</ele>
        <time>2021-06-26T09:19:18Z</time>
      </trkpt>
      <trkpt lat="46.21033" lon="6.7314">
        <ele>1078.2</ele>
        <time>2021-06-26T09:19:21Z</time>
      </trkpt>
      <trkpt lat="46.21033" lon="6.73171">
        <ele>1078</ele>
        <time>2021-06-26T09:19:24Z</time>
      </trkpt>
      <trkpt lat="46.21034" lon="6.73181">
        <ele>1078</ele>
        <time>2021-06-26T09:19:25Z</time>
      </trkpt>
      <trkpt lat="46.21035" lon="6.7319">
        <ele>1078</ele>
        <time>2021-06-26T09:19:26Z</time>
      </trkpt>
      <trkpt lat="46.21036" lon="6.732">
        <ele>1077.8</ele>
        <time>2021-06-26T09:19:27Z</time>
      </trkpt>
      <trkpt lat="46.21037" lon="6.73209">
        <ele>1077.6</ele>
        <time>2021-06-26T09:19:28Z</time>
      </trkpt>
      <trkpt lat="46.21038" lon="6.73219">
        <ele>1077.4</ele>
        <time>2021-06-26T09:19:29Z</time>
      </trkpt>
      <trkpt lat="46.21044" lon="6.73248">
        <ele>1077.4</ele>
        <time>2021-06-26T09:19:32Z</time>
      </trkpt>
      <trkpt lat="46.21046" lon="6.73257">
        <ele>1077.2</ele>
        <time>2021-06-26T09:19:33Z</time>
      </trkpt>
      <trkpt lat="46.21048" lon="6.73267">
        <ele>1077.4</ele>
        <time>2021-06-26T09:19:34Z</time>
      </trkpt>
      <trkpt lat="46.21064" lon="6.73343">
        <ele>1077.6</ele>
        <time>2021-06-26T09:19:42Z</time>
      </trkpt>
      <trkpt lat="46.21065" lon="6.73353">
        <ele>1077.6</ele>
        <time>2021-06-26T09:19:43Z</time>
      </trkpt>
      <trkpt lat="46.21067" lon="6.73363">
        <ele>1077.4</ele>
        <time>2021-06-26T09:19:44Z</time>
      </trkpt>
      <trkpt lat="46.21069" lon="6.73372">
        <ele>1077.4</ele>
        <time>2021-06-26T09:19:45Z</time>
      </trkpt>
      <trkpt lat="46.21072" lon="6.73391">
        <ele>1077.6</ele>
        <time>2021-06-26T09:19:47Z</time>
      </trkpt>
      <trkpt lat="46.21077" lon="6.73428">
        <ele>1077.8</ele>
        <time>2021-06-26T09:19:51Z</time>
      </trkpt>
      <trkpt lat="46.21081" lon="6.73476">
        <ele>1078</ele>
        <time>2021-06-26T09:19:56Z</time>
      </trkpt>
      <trkpt lat="46.21082" lon="6.73486">
        <ele>1078</ele>
        <time>2021-06-26T09:19:57Z</time>
      </trkpt>
      <trkpt lat="46.21083" lon="6.73495">
        <ele>1078</ele>
        <time>2021-06-26T09:19:58Z</time>
      </trkpt>
      <trkpt lat="46.21083" lon="6.73505">
        <ele>1078</ele>
        <time>2021-06-26T09:19:59Z</time>
      </trkpt>
      <trkpt lat="46.21084" lon="6.73514">
        <ele>1078</ele>
        <time>2021-06-26T09:20:00Z</time>
      </trkpt>
      <trkpt lat="46.21087" lon="6.73561">
        <ele>1078.2</ele>
        <time>2021-06-26T09:20:05Z</time>
      </trkpt>
      <trkpt lat="46.21088" lon="6.7357">
        <ele>1078.2</ele>
        <time>2021-06-26T09:20:06Z</time>
      </trkpt>
      <trkpt lat="46.21089" lon="6.73579">
        <ele>1078.2</ele>
        <time>2021-06-26T09:20:07Z</time>
      </trkpt>
      <trkpt lat="46.21092" lon="6.73596">
        <ele>1078.4</ele>
        <time>2021-06-26T09:20:08Z</time>
      </trkpt>
      <trkpt lat="46.21093" lon="6.736">
        <ele>1078.6</ele>
        <time>2021-06-26T09:20:09Z</time>
      </trkpt>
      <trkpt lat="46.21093" lon="6.73604">
        <ele>1078.4</ele>
        <time>2021-06-26T09:20:10Z</time>
      </trkpt>
      <trkpt lat="46.21095" lon="6.73612">
        <ele>1078.6</ele>
        <time>2021-06-26T09:20:11Z</time>
      </trkpt>
      <trkpt lat="46.21097" lon="6.7362">
        <ele>1078.6</ele>
        <time>2021-06-26T09:20:12Z</time>
      </trkpt>
      <trkpt lat="46.21098" lon="6.73628">
        <ele>1078.6</ele>
        <time>2021-06-26T09:20:13Z</time>
      </trkpt>
      <trkpt lat="46.21099" lon="6.73634">
        <ele>1078.8</ele>
        <time>2021-06-26T09:20:14Z</time>
      </trkpt>
      <trkpt lat="46.211" lon="6.73641">
        <ele>1078.8</ele>
        <time>2021-06-26T09:20:15Z</time>
      </trkpt>
      <trkpt lat="46.211" lon="6.73647">
        <ele>1078.8</ele>
        <time>2021-06-26T09:20:16Z</time>
      </trkpt>
      <trkpt lat="46.21101" lon="6.73652">
        <ele>1078.8</ele>
        <time>2021-06-26T09:20:17Z</time>
      </trkpt>
      <trkpt lat="46.21101" lon="6.73657">
        <ele>1079</ele>
        <time>2021-06-26T09:20:18Z</time>
      </trkpt>
      <trkpt lat="46.21102" lon="6.73662">
        <ele>1079.2</ele>
        <time>2021-06-26T09:20:19Z</time>
      </trkpt>
      <trkpt lat="46.21103" lon="6.73666">
        <ele>1079.4</ele>
        <time>2021-06-26T09:20:20Z</time>
      </trkpt>
      <trkpt lat="46.21103" lon="6.73671">
        <ele>1079.8</ele>
        <time>2021-06-26T09:20:21Z</time>
      </trkpt>
      <trkpt lat="46.21105" lon="6.73675">
        <ele>1080.2</ele>
        <time>2021-06-26T09:20:22Z</time>
      </trkpt>
      <trkpt lat="46.21106" lon="6.73679">
        <ele>1080.8</ele>
        <time>2021-06-26T09:20:23Z</time>
      </trkpt>
      <trkpt lat="46.21106" lon="6.73683">
        <ele>1081.4</ele>
        <time>2021-06-26T09:20:24Z</time>
      </trkpt>
      <trkpt lat="46.21107" lon="6.73687">
        <ele>1081.8</ele>
        <time>2021-06-26T09:20:25Z</time>
      </trkpt>
      <trkpt lat="46.21107" lon="6.73691">
        <ele>1082.2</ele>
        <time>2021-06-26T09:20:26Z</time>
      </trkpt>
      <trkpt lat="46.21107" lon="6.73695">
        <ele>1082.6</ele>
        <time>2021-06-26T09:20:27Z</time>
      </trkpt>
      <trkpt lat="46.21107" lon="6.737">
        <ele>1083</ele>
        <time>2021-06-26T09:20:28Z</time>
      </trkpt>
      <trkpt lat="46.21107" lon="6.73704">
        <ele>1083</ele>
        <time>2021-06-26T09:20:29Z</time>
      </trkpt>
      <trkpt lat="46.21107" lon="6.73709">
        <ele>1083.4</ele>
        <time>2021-06-26T09:20:30Z</time>
      </trkpt>
      <trkpt lat="46.21108" lon="6.73712">
        <ele>1083.8</ele>
        <time>2021-06-26T09:20:31Z</time>
      </trkpt>
      <trkpt lat="46.21107" lon="6.73716">
        <ele>1084</ele>
        <time>2021-06-26T09:20:32Z</time>
      </trkpt>
      <trkpt lat="46.21107" lon="6.7372">
        <ele>1084.4</ele>
        <time>2021-06-26T09:20:33Z</time>
      </trkpt>
      <trkpt lat="46.21107" lon="6.73723">
        <ele>1084.4</ele>
        <time>2021-06-26T09:20:34Z</time>
      </trkpt>
      <trkpt lat="46.21106" lon="6.73727">
        <ele>1084.8</ele>
        <time>2021-06-26T09:20:35Z</time>
      </trkpt>
      <trkpt lat="46.21107" lon="6.7373">
        <ele>1085.4</ele>
        <time>2021-06-26T09:20:36Z</time>
      </trkpt>
      <trkpt lat="46.21107" lon="6.73734">
        <ele>1085.8</ele>
        <time>2021-06-26T09:20:37Z</time>
      </trkpt>
      <trkpt lat="46.21107" lon="6.73738">
        <ele>1086</ele>
        <time>2021-06-26T09:20:38Z</time>
      </trkpt>
      <trkpt lat="46.21107" lon="6.73743">
        <ele>1086.2</ele>
        <time>2021-06-26T09:20:39Z</time>
      </trkpt>
      <trkpt lat="46.21107" lon="6.73746">
        <ele>1086.8</ele>
        <time>2021-06-26T09:20:40Z</time>
      </trkpt>
      <trkpt lat="46.21108" lon="6.7375">
        <ele>1087.2</ele>
        <time>2021-06-26T09:20:41Z</time>
      </trkpt>
      <trkpt lat="46.21108" lon="6.73754">
        <ele>1087.6</ele>
        <time>2021-06-26T09:20:42Z</time>
      </trkpt>
      <trkpt lat="46.21109" lon="6.73758">
        <ele>1088.2</ele>
        <time>2021-06-26T09:20:43Z</time>
      </trkpt>
      <trkpt lat="46.21109" lon="6.73762">
        <ele>1088.4</ele>
        <time>2021-06-26T09:20:44Z</time>
      </trkpt>
      <trkpt lat="46.21109" lon="6.73766">
        <ele>1088.6</ele>
        <time>2021-06-26T09:20:45Z</time>
      </trkpt>
      <trkpt lat="46.2111" lon="6.7377">
        <ele>1089</ele>
        <time>2021-06-26T09:20:46Z</time>
      </trkpt>
      <trkpt lat="46.2111" lon="6.73774">
        <ele>1089.2</ele>
        <time>2021-06-26T09:20:47Z</time>
      </trkpt>
      <trkpt lat="46.2111" lon="6.73779">
        <ele>1089.4</ele>
        <time>2021-06-26T09:20:48Z</time>
      </trkpt>
      <trkpt lat="46.2111" lon="6.73783">
        <ele>1089.8</ele>
        <time>2021-06-26T09:20:49Z</time>
      </trkpt>
      <trkpt lat="46.21111" lon="6.73787">
        <ele>1090</ele>
        <time>2021-06-26T09:20:50Z</time>
      </trkpt>
      <trkpt lat="46.21112" lon="6.73792">
        <ele>1090</ele>
        <time>2021-06-26T09:20:51Z</time>
      </trkpt>
      <trkpt lat="46.21112" lon="6.73795">
        <ele>1090.2</ele>
        <time>2021-06-26T09:20:52Z</time>
      </trkpt>
      <trkpt lat="46.21113" lon="6.73799">
        <ele>1090.8</ele>
        <time>2021-06-26T09:20:53Z</time>
      </trkpt>
      <trkpt lat="46.21114" lon="6.73802">
        <ele>1091</ele>
        <time>2021-06-26T09:20:54Z</time>
      </trkpt>
      <trkpt lat="46.21115" lon="6.73805">
        <ele>1091.2</ele>
        <time>2021-06-26T09:20:55Z</time>
      </trkpt>
      <trkpt lat="46.21116" lon="6.73809">
        <ele>1091.6</ele>
        <time>2021-06-26T09:20:56Z</time>
      </trkpt>
      <trkpt lat="46.21116" lon="6.73812">
        <ele>1091.8</ele>
        <time>2021-06-26T09:20:57Z</time>
      </trkpt>
      <trkpt lat="46.21118" lon="6.73815">
        <ele>1092</ele>
        <time>2021-06-26T09:20:58Z</time>
      </trkpt>
      <trkpt lat="46.21119" lon="6.73818">
        <ele>1092</ele>
        <time>2021-06-26T09:20:59Z</time>
      </trkpt>
      <trkpt lat="46.21121" lon="6.73822">
        <ele>1092.2</ele>
        <time>2021-06-26T09:21:00Z</time>
      </trkpt>
      <trkpt lat="46.21123" lon="6.73825">
        <ele>1092.4</ele>
        <time>2021-06-26T09:21:01Z</time>
      </trkpt>
      <trkpt lat="46.21124" lon="6.73829">
        <ele>1092.6</ele>
        <time>2021-06-26T09:21:02Z</time>
      </trkpt>
      <trkpt lat="46.21126" lon="6.73833">
        <ele>1092.8</ele>
        <time>2021-06-26T09:21:03Z</time>
      </trkpt>
      <trkpt lat="46.21127" lon="6.73837">
        <ele>1093.2</ele>
        <time>2021-06-26T09:21:04Z</time>
      </trkpt>
      <trkpt lat="46.21127" lon="6.73841">
        <ele>1093.4</ele>
        <time>2021-06-26T09:21:05Z</time>
      </trkpt>
      <trkpt lat="46.21129" lon="6.73844">
        <ele>1093.4</ele>
        <time>2021-06-26T09:21:06Z</time>
      </trkpt>
      <trkpt lat="46.2113" lon="6.73848">
        <ele>1093.6</ele>
        <time>2021-06-26T09:21:07Z</time>
      </trkpt>
      <trkpt lat="46.21131" lon="6.73852">
        <ele>1093.8</ele>
        <time>2021-06-26T09:21:08Z</time>
      </trkpt>
      <trkpt lat="46.21132" lon="6.73856">
        <ele>1094.2</ele>
        <time>2021-06-26T09:21:09Z</time>
      </trkpt>
      <trkpt lat="46.21132" lon="6.7386">
        <ele>1094.6</ele>
        <time>2021-06-26T09:21:10Z</time>
      </trkpt>
      <trkpt lat="46.21132" lon="6.73864">
        <ele>1094.8</ele>
        <time>2021-06-26T09:21:11Z</time>
      </trkpt>
      <trkpt lat="46.21133" lon="6.73868">
        <ele>1095</ele>
        <time>2021-06-26T09:21:12Z</time>
      </trkpt>
      <trkpt lat="46.21134" lon="6.73872">
        <ele>1095.2</ele>
        <time>2021-06-26T09:21:13Z</time>
      </trkpt>
      <trkpt lat="46.21134" lon="6.73875">
        <ele>1095.2</ele>
        <time>2021-06-26T09:21:14Z</time>
      </trkpt>
      <trkpt lat="46.21135" lon="6.73879">
        <ele>1095.4</ele>
        <time>2021-06-26T09:21:15Z</time>
      </trkpt>
      <trkpt lat="46.21135" lon="6.73883">
        <ele>1095.6</ele>
        <time>2021-06-26T09:21:16Z</time>
      </trkpt>
      <trkpt lat="46.21135" lon="6.73887">
        <ele>1095.6</ele>
        <time>2021-06-26T09:21:17Z</time>
      </trkpt>
      <trkpt lat="46.21136" lon="6.73892">
        <ele>1096</ele>
        <time>2021-06-26T09:21:18Z</time>
      </trkpt>
      <trkpt lat="46.21136" lon="6.73896">
        <ele>1096.2</ele>
        <time>2021-06-26T09:21:19Z</time>
      </trkpt>
      <trkpt lat="46.21137" lon="6.739">
        <ele>1096.6</ele>
        <time>2021-06-26T09:21:20Z</time>
      </trkpt>
      <trkpt lat="46.21137" lon="6.73904">
        <ele>1096.8</ele>
        <time>2021-06-26T09:21:21Z</time>
      </trkpt>
      <trkpt lat="46.21138" lon="6.73908">
        <ele>1097</ele>
        <time>2021-06-26T09:21:22Z</time>
      </trkpt>
      <trkpt lat="46.21138" lon="6.73912">
        <ele>1097</ele>
        <time>2021-06-26T09:21:23Z</time>
      </trkpt>
      <trkpt lat="46.21138" lon="6.73916">
        <ele>1097.6</ele>
        <time>2021-06-26T09:21:24Z</time>
      </trkpt>
      <trkpt lat="46.21139" lon="6.73919">
        <ele>1097.8</ele>
        <time>2021-06-26T09:21:25Z</time>
      </trkpt>
      <trkpt lat="46.21139" lon="6.73923">
        <ele>1097.8</ele>
        <time>2021-06-26T09:21:26Z</time>
      </trkpt>
      <trkpt lat="46.2114" lon="6.73927">
        <ele>1098</ele>
        <time>2021-06-26T09:21:27Z</time>
      </trkpt>
      <trkpt lat="46.21141" lon="6.7393">
        <ele>1098.2</ele>
        <time>2021-06-26T09:21:28Z</time>
      </trkpt>
      <trkpt lat="46.21142" lon="6.73934">
        <ele>1098.4</ele>
        <time>2021-06-26T09:21:29Z</time>
      </trkpt>
      <trkpt lat="46.21142" lon="6.73938">
        <ele>1098.6</ele>
        <time>2021-06-26T09:21:30Z</time>
      </trkpt>
      <trkpt lat="46.21142" lon="6.73943">
        <ele>1098.8</ele>
        <time>2021-06-26T09:21:31Z</time>
      </trkpt>
      <trkpt lat="46.21142" lon="6.73948">
        <ele>1099</ele>
        <time>2021-06-26T09:21:32Z</time>
      </trkpt>
      <trkpt lat="46.21142" lon="6.73952">
        <ele>1099.2</ele>
        <time>2021-06-26T09:21:33Z</time>
      </trkpt>
      <trkpt lat="46.21142" lon="6.73956">
        <ele>1099.4</ele>
        <time>2021-06-26T09:21:34Z</time>
      </trkpt>
      <trkpt lat="46.21142" lon="6.73961">
        <ele>1099.4</ele>
        <time>2021-06-26T09:21:35Z</time>
      </trkpt>
      <trkpt lat="46.21143" lon="6.73965">
        <ele>1099.8</ele>
        <time>2021-06-26T09:21:36Z</time>
      </trkpt>
      <trkpt lat="46.21143" lon="6.73969">
        <ele>1099.8</ele>
        <time>2021-06-26T09:21:37Z</time>
      </trkpt>
      <trkpt lat="46.21144" lon="6.73973">
        <ele>1100.2</ele>
        <time>2021-06-26T09:21:38Z</time>
      </trkpt>
      <trkpt lat="46.21144" lon="6.73977">
        <ele>1100.4</ele>
        <time>2021-06-26T09:21:39Z</time>
      </trkpt>
      <trkpt lat="46.21145" lon="6.73981">
        <ele>1100.8</ele>
        <time>2021-06-26T09:21:40Z</time>
      </trkpt>
      <trkpt lat="46.21146" lon="6.73985">
        <ele>1101</ele>
        <time>2021-06-26T09:21:41Z</time>
      </trkpt>
      <trkpt lat="46.21147" lon="6.7399">
        <ele>1101.2</ele>
        <time>2021-06-26T09:21:42Z</time>
      </trkpt>
      <trkpt lat="46.21148" lon="6.73993">
        <ele>1101.2</ele>
        <time>2021-06-26T09:21:43Z</time>
      </trkpt>
      <trkpt lat="46.21148" lon="6.73997">
        <ele>1101.4</ele>
        <time>2021-06-26T09:21:44Z</time>
      </trkpt>
      <trkpt lat="46.21149" lon="6.74001">
        <ele>1101.6</ele>
        <time>2021-06-26T09:21:45Z</time>
      </trkpt>
      <trkpt lat="46.2115" lon="6.74005">
        <ele>1102</ele>
        <time>2021-06-26T09:21:46Z</time>
      </trkpt>
      <trkpt lat="46.2115" lon="6.74009">
        <ele>1102.2</ele>
        <time>2021-06-26T09:21:47Z</time>
      </trkpt>
      <trkpt lat="46.21151" lon="6.74012">
        <ele>1102.4</ele>
        <time>2021-06-26T09:21:48Z</time>
      </trkpt>
      <trkpt lat="46.21152" lon="6.74016">
        <ele>1102.6</ele>
        <time>2021-06-26T09:21:49Z</time>
      </trkpt>
      <trkpt lat="46.21153" lon="6.7402">
        <ele>1102.8</ele>
        <time>2021-06-26T09:21:50Z</time>
      </trkpt>
      <trkpt lat="46.21154" lon="6.74024">
        <ele>1102.8</ele>
        <time>2021-06-26T09:21:51Z</time>
      </trkpt>
      <trkpt lat="46.21154" lon="6.74027">
        <ele>1103</ele>
        <time>2021-06-26T09:21:52Z</time>
      </trkpt>
      <trkpt lat="46.21155" lon="6.74031">
        <ele>1103.4</ele>
        <time>2021-06-26T09:21:53Z</time>
      </trkpt>
      <trkpt lat="46.21155" lon="6.74035">
        <ele>1103.6</ele>
        <time>2021-06-26T09:21:54Z</time>
      </trkpt>
      <trkpt lat="46.21156" lon="6.74039">
        <ele>1104</ele>
        <time>2021-06-26T09:21:55Z</time>
      </trkpt>
      <trkpt lat="46.21156" lon="6.74042">
        <ele>1104</ele>
        <time>2021-06-26T09:21:56Z</time>
      </trkpt>
      <trkpt lat="46.21157" lon="6.74046">
        <ele>1104.2</ele>
        <time>2021-06-26T09:21:57Z</time>
      </trkpt>
      <trkpt lat="46.21158" lon="6.7405">
        <ele>1104.4</ele>
        <time>2021-06-26T09:21:58Z</time>
      </trkpt>
      <trkpt lat="46.21158" lon="6.74054">
        <ele>1104.4</ele>
        <time>2021-06-26T09:21:59Z</time>
      </trkpt>
      <trkpt lat="46.21159" lon="6.74058">
        <ele>1104.6</ele>
        <time>2021-06-26T09:22:00Z</time>
      </trkpt>
      <trkpt lat="46.2116" lon="6.74062">
        <ele>1105</ele>
        <time>2021-06-26T09:22:01Z</time>
      </trkpt>
      <trkpt lat="46.21161" lon="6.74066">
        <ele>1105</ele>
        <time>2021-06-26T09:22:02Z</time>
      </trkpt>
      <trkpt lat="46.21161" lon="6.7407">
        <ele>1105.2</ele>
        <time>2021-06-26T09:22:03Z</time>
      </trkpt>
      <trkpt lat="46.21162" lon="6.74074">
        <ele>1105.4</ele>
        <time>2021-06-26T09:22:04Z</time>
      </trkpt>
      <trkpt lat="46.21163" lon="6.74078">
        <ele>1105.8</ele>
        <time>2021-06-26T09:22:05Z</time>
      </trkpt>
      <trkpt lat="46.21163" lon="6.74082">
        <ele>1106</ele>
        <time>2021-06-26T09:22:06Z</time>
      </trkpt>
      <trkpt lat="46.21164" lon="6.74086">
        <ele>1106.2</ele>
        <time>2021-06-26T09:22:07Z</time>
      </trkpt>
      <trkpt lat="46.21165" lon="6.7409">
        <ele>1106.4</ele>
        <time>2021-06-26T09:22:08Z</time>
      </trkpt>
      <trkpt lat="46.21165" lon="6.74094">
        <ele>1106.6</ele>
        <time>2021-06-26T09:22:09Z</time>
      </trkpt>
      <trkpt lat="46.21166" lon="6.74098">
        <ele>1106.8</ele>
        <time>2021-06-26T09:22:10Z</time>
      </trkpt>
      <trkpt lat="46.21167" lon="6.74102">
        <ele>1107.2</ele>
        <time>2021-06-26T09:22:11Z</time>
      </trkpt>
      <trkpt lat="46.21167" lon="6.74106">
        <ele>1107.4</ele>
        <time>2021-06-26T09:22:12Z</time>
      </trkpt>
      <trkpt lat="46.21167" lon="6.7411">
        <ele>1107.4</ele>
        <time>2021-06-26T09:22:13Z</time>
      </trkpt>
      <trkpt lat="46.21168" lon="6.74114">
        <ele>1107.8</ele>
        <time>2021-06-26T09:22:14Z</time>
      </trkpt>
      <trkpt lat="46.21168" lon="6.74118">
        <ele>1108</ele>
        <time>2021-06-26T09:22:15Z</time>
      </trkpt>
      <trkpt lat="46.21169" lon="6.74121">
        <ele>1108.4</ele>
        <time>2021-06-26T09:22:16Z</time>
      </trkpt>
      <trkpt lat="46.21169" lon="6.74125">
        <ele>1108.4</ele>
        <time>2021-06-26T09:22:17Z</time>
      </trkpt>
      <trkpt lat="46.2117" lon="6.74129">
        <ele>1108.6</ele>
        <time>2021-06-26T09:22:18Z</time>
      </trkpt>
      <trkpt lat="46.2117" lon="6.74133">
        <ele>1108.8</ele>
        <time>2021-06-26T09:22:19Z</time>
      </trkpt>
      <trkpt lat="46.21171" lon="6.74137">
        <ele>1109.2</ele>
        <time>2021-06-26T09:22:20Z</time>
      </trkpt>
      <trkpt lat="46.21171" lon="6.74141">
        <ele>1109.4</ele>
        <time>2021-06-26T09:22:21Z</time>
      </trkpt>
      <trkpt lat="46.21171" lon="6.74145">
        <ele>1109.4</ele>
        <time>2021-06-26T09:22:22Z</time>
      </trkpt>
      <trkpt lat="46.21171" lon="6.74149">
        <ele>1109.6</ele>
        <time>2021-06-26T09:22:23Z</time>
      </trkpt>
      <trkpt lat="46.21171" lon="6.74152">
        <ele>1109.8</ele>
        <time>2021-06-26T09:22:24Z</time>
      </trkpt>
      <trkpt lat="46.21171" lon="6.74156">
        <ele>1110.2</ele>
        <time>2021-06-26T09:22:25Z</time>
      </trkpt>
      <trkpt lat="46.21172" lon="6.7416">
        <ele>1110.4</ele>
        <time>2021-06-26T09:22:26Z</time>
      </trkpt>
      <trkpt lat="46.21172" lon="6.74164">
        <ele>1110.6</ele>
        <time>2021-06-26T09:22:27Z</time>
      </trkpt>
      <trkpt lat="46.21173" lon="6.74168">
        <ele>1110.8</ele>
        <time>2021-06-26T09:22:28Z</time>
      </trkpt>
      <trkpt lat="46.21173" lon="6.74172">
        <ele>1111</ele>
        <time>2021-06-26T09:22:29Z</time>
      </trkpt>
      <trkpt lat="46.21174" lon="6.74176">
        <ele>1111.2</ele>
        <time>2021-06-26T09:22:30Z</time>
      </trkpt>
      <trkpt lat="46.21174" lon="6.74179">
        <ele>1111.6</ele>
        <time>2021-06-26T09:22:31Z</time>
      </trkpt>
      <trkpt lat="46.21175" lon="6.74183">
        <ele>1111.6</ele>
        <time>2021-06-26T09:22:32Z</time>
      </trkpt>
      <trkpt lat="46.21175" lon="6.74187">
        <ele>1112</ele>
        <time>2021-06-26T09:22:33Z</time>
      </trkpt>
      <trkpt lat="46.21175" lon="6.74191">
        <ele>1112.4</ele>
        <time>2021-06-26T09:22:34Z</time>
      </trkpt>
      <trkpt lat="46.21176" lon="6.74195">
        <ele>1112.4</ele>
        <time>2021-06-26T09:22:35Z</time>
      </trkpt>
      <trkpt lat="46.21176" lon="6.74199">
        <ele>1112.6</ele>
        <time>2021-06-26T09:22:36Z</time>
      </trkpt>
      <trkpt lat="46.21177" lon="6.74204">
        <ele>1112.8</ele>
        <time>2021-06-26T09:22:37Z</time>
      </trkpt>
      <trkpt lat="46.21177" lon="6.74208">
        <ele>1113</ele>
        <time>2021-06-26T09:22:38Z</time>
      </trkpt>
      <trkpt lat="46.21177" lon="6.74212">
        <ele>1113.2</ele>
        <time>2021-06-26T09:22:39Z</time>
      </trkpt>
      <trkpt lat="46.21178" lon="6.74216">
        <ele>1113.4</ele>
        <time>2021-06-26T09:22:40Z</time>
      </trkpt>
      <trkpt lat="46.21178" lon="6.7422">
        <ele>1113.6</ele>
        <time>2021-06-26T09:22:41Z</time>
      </trkpt>
      <trkpt lat="46.21179" lon="6.74223">
        <ele>1113.6</ele>
        <time>2021-06-26T09:22:42Z</time>
      </trkpt>
      <trkpt lat="46.21179" lon="6.74227">
        <ele>1114</ele>
        <time>2021-06-26T09:22:43Z</time>
      </trkpt>
      <trkpt lat="46.2118" lon="6.74231">
        <ele>1114.2</ele>
        <time>2021-06-26T09:22:44Z</time>
      </trkpt>
      <trkpt lat="46.2118" lon="6.74235">
        <ele>1114.2</ele>
        <time>2021-06-26T09:22:45Z</time>
      </trkpt>
      <trkpt lat="46.21181" lon="6.74238">
        <ele>1114.2</ele>
        <time>2021-06-26T09:22:46Z</time>
      </trkpt>
      <trkpt lat="46.21182" lon="6.74242">
        <ele>1114.4</ele>
        <time>2021-06-26T09:22:47Z</time>
      </trkpt>
      <trkpt lat="46.21183" lon="6.74246">
        <ele>1114.6</ele>
        <time>2021-06-26T09:22:48Z</time>
      </trkpt>
      <trkpt lat="46.21184" lon="6.7425">
        <ele>1114.8</ele>
        <time>2021-06-26T09:22:49Z</time>
      </trkpt>
      <trkpt lat="46.21185" lon="6.74253">
        <ele>1115</ele>
        <time>2021-06-26T09:22:50Z</time>
      </trkpt>
      <trkpt lat="46.21187" lon="6.74257">
        <ele>1115.2</ele>
        <time>2021-06-26T09:22:51Z</time>
      </trkpt>
      <trkpt lat="46.21188" lon="6.7426">
        <ele>1115.6</ele>
        <time>2021-06-26T09:22:52Z</time>
      </trkpt>
      <trkpt lat="46.21189" lon="6.74263">
        <ele>1115.6</ele>
        <time>2021-06-26T09:22:53Z</time>
      </trkpt>
      <trkpt lat="46.21191" lon="6.74266">
        <ele>1115.8</ele>
        <time>2021-06-26T09:22:54Z</time>
      </trkpt>
      <trkpt lat="46.21192" lon="6.74268">
        <ele>1116</ele>
        <time>2021-06-26T09:22:55Z</time>
      </trkpt>
      <trkpt lat="46.21194" lon="6.74271">
        <ele>1116.2</ele>
        <time>2021-06-26T09:22:56Z</time>
      </trkpt>
      <trkpt lat="46.21195" lon="6.74273">
        <ele>1116.4</ele>
        <time>2021-06-26T09:22:57Z</time>
      </trkpt>
      <trkpt lat="46.21197" lon="6.74275">
        <ele>1116.8</ele>
        <time>2021-06-26T09:22:58Z</time>
      </trkpt>
      <trkpt lat="46.21198" lon="6.74277">
        <ele>1117</ele>
        <time>2021-06-26T09:22:59Z</time>
      </trkpt>
      <trkpt lat="46.212" lon="6.74278">
        <ele>1117.2</ele>
        <time>2021-06-26T09:23:00Z</time>
      </trkpt>
      <trkpt lat="46.21201" lon="6.7428">
        <ele>1117.4</ele>
        <time>2021-06-26T09:23:01Z</time>
      </trkpt>
      <trkpt lat="46.21203" lon="6.74281">
        <ele>1117.8</ele>
        <time>2021-06-26T09:23:02Z</time>
      </trkpt>
      <trkpt lat="46.21205" lon="6.74283">
        <ele>1118</ele>
        <time>2021-06-26T09:23:03Z</time>
      </trkpt>
      <trkpt lat="46.21208" lon="6.74285">
        <ele>1118.4</ele>
        <time>2021-06-26T09:23:04Z</time>
      </trkpt>
      <trkpt lat="46.2121" lon="6.74288">
        <ele>1118.6</ele>
        <time>2021-06-26T09:23:05Z</time>
      </trkpt>
      <trkpt lat="46.21213" lon="6.7429">
        <ele>1118.8</ele>
        <time>2021-06-26T09:23:06Z</time>
      </trkpt>
      <trkpt lat="46.21216" lon="6.74293">
        <ele>1119</ele>
        <time>2021-06-26T09:23:07Z</time>
      </trkpt>
      <trkpt lat="46.21218" lon="6.74296">
        <ele>1119</ele>
        <time>2021-06-26T09:23:08Z</time>
      </trkpt>
      <trkpt lat="46.2122" lon="6.74299">
        <ele>1119.2</ele>
        <time>2021-06-26T09:23:09Z</time>
      </trkpt>
      <trkpt lat="46.21222" lon="6.74302">
        <ele>1119.6</ele>
        <time>2021-06-26T09:23:10Z</time>
      </trkpt>
      <trkpt lat="46.21224" lon="6.74305">
        <ele>1119.8</ele>
        <time>2021-06-26T09:23:11Z</time>
      </trkpt>
      <trkpt lat="46.21226" lon="6.74308">
        <ele>1119.8</ele>
        <time>2021-06-26T09:23:12Z</time>
      </trkpt>
      <trkpt lat="46.21228" lon="6.74311">
        <ele>1120.2</ele>
        <time>2021-06-26T09:23:13Z</time>
      </trkpt>
      <trkpt lat="46.2123" lon="6.74315">
        <ele>1120.4</ele>
        <time>2021-06-26T09:23:14Z</time>
      </trkpt>
      <trkpt lat="46.21231" lon="6.74319">
        <ele>1120.4</ele>
        <time>2021-06-26T09:23:15Z</time>
      </trkpt>
      <trkpt lat="46.21232" lon="6.74323">
        <ele>1120.8</ele>
        <time>2021-06-26T09:23:16Z</time>
      </trkpt>
      <trkpt lat="46.21232" lon="6.74327">
        <ele>1121</ele>
        <time>2021-06-26T09:23:17Z</time>
      </trkpt>
      <trkpt lat="46.21232" lon="6.74331">
        <ele>1121.2</ele>
        <time>2021-06-26T09:23:18Z</time>
      </trkpt>
      <trkpt lat="46.21232" lon="6.74338">
        <ele>1121.4</ele>
        <time>2021-06-26T09:23:19Z</time>
      </trkpt>
      <trkpt lat="46.21232" lon="6.74341">
        <ele>1121.6</ele>
        <time>2021-06-26T09:23:20Z</time>
      </trkpt>
      <trkpt lat="46.21232" lon="6.74345">
        <ele>1121.8</ele>
        <time>2021-06-26T09:23:21Z</time>
      </trkpt>
      <trkpt lat="46.21232" lon="6.74349">
        <ele>1122</ele>
        <time>2021-06-26T09:23:22Z</time>
      </trkpt>
      <trkpt lat="46.21232" lon="6.74352">
        <ele>1122.2</ele>
        <time>2021-06-26T09:23:23Z</time>
      </trkpt>
      <trkpt lat="46.21232" lon="6.74357">
        <ele>1122.4</ele>
        <time>2021-06-26T09:23:24Z</time>
      </trkpt>
      <trkpt lat="46.21232" lon="6.7436">
        <ele>1122.6</ele>
        <time>2021-06-26T09:23:25Z</time>
      </trkpt>
      <trkpt lat="46.21233" lon="6.74364">
        <ele>1123</ele>
        <time>2021-06-26T09:23:26Z</time>
      </trkpt>
      <trkpt lat="46.21234" lon="6.74368">
        <ele>1123.2</ele>
        <time>2021-06-26T09:23:27Z</time>
      </trkpt>
      <trkpt lat="46.21234" lon="6.74372">
        <ele>1123.6</ele>
        <time>2021-06-26T09:23:29Z</time>
      </trkpt>
      <trkpt lat="46.21235" lon="6.7438">
        <ele>1124</ele>
        <time>2021-06-26T09:23:30Z</time>
      </trkpt>
      <trkpt lat="46.21236" lon="6.74384">
        <ele>1124</ele>
        <time>2021-06-26T09:23:31Z</time>
      </trkpt>
      <trkpt lat="46.21237" lon="6.74387">
        <ele>1124.2</ele>
        <time>2021-06-26T09:23:32Z</time>
      </trkpt>
      <trkpt lat="46.21239" lon="6.74391">
        <ele>1125</ele>
        <time>2021-06-26T09:23:34Z</time>
      </trkpt>
      <trkpt lat="46.2124" lon="6.74394">
        <ele>1125.4</ele>
        <time>2021-06-26T09:23:35Z</time>
      </trkpt>
      <trkpt lat="46.21241" lon="6.74401">
        <ele>1125.4</ele>
        <time>2021-06-26T09:23:36Z</time>
      </trkpt>
      <trkpt lat="46.21242" lon="6.74404">
        <ele>1126</ele>
        <time>2021-06-26T09:23:38Z</time>
      </trkpt>
      <trkpt lat="46.21244" lon="6.74411">
        <ele>1126.2</ele>
        <time>2021-06-26T09:23:39Z</time>
      </trkpt>
      <trkpt lat="46.21245" lon="6.74415">
        <ele>1126.4</ele>
        <time>2021-06-26T09:23:40Z</time>
      </trkpt>
      <trkpt lat="46.21246" lon="6.74418">
        <ele>1126.6</ele>
        <time>2021-06-26T09:23:41Z</time>
      </trkpt>
      <trkpt lat="46.21247" lon="6.74422">
        <ele>1127</ele>
        <time>2021-06-26T09:23:43Z</time>
      </trkpt>
      <trkpt lat="46.21248" lon="6.74425">
        <ele>1127.2</ele>
        <time>2021-06-26T09:23:44Z</time>
      </trkpt>
      <trkpt lat="46.21249" lon="6.74433">
        <ele>1127.4</ele>
        <time>2021-06-26T09:23:45Z</time>
      </trkpt>
      <trkpt lat="46.2125" lon="6.74436">
        <ele>1127.4</ele>
        <time>2021-06-26T09:23:46Z</time>
      </trkpt>
      <trkpt lat="46.2125" lon="6.7444">
        <ele>1127.8</ele>
        <time>2021-06-26T09:23:48Z</time>
      </trkpt>
      <trkpt lat="46.21251" lon="6.74443">
        <ele>1128</ele>
        <time>2021-06-26T09:23:49Z</time>
      </trkpt>
      <trkpt lat="46.21251" lon="6.74447">
        <ele>1128.2</ele>
        <time>2021-06-26T09:23:50Z</time>
      </trkpt>
      <trkpt lat="46.21251" lon="6.7445">
        <ele>1128.4</ele>
        <time>2021-06-26T09:23:51Z</time>
      </trkpt>
      <trkpt lat="46.21251" lon="6.74454">
        <ele>1128.6</ele>
        <time>2021-06-26T09:23:52Z</time>
      </trkpt>
      <trkpt lat="46.21253" lon="6.74459">
        <ele>1128.6</ele>
        <time>2021-06-26T09:23:53Z</time>
      </trkpt>
      <trkpt lat="46.21256" lon="6.74467">
        <ele>1128.8</ele>
        <time>2021-06-26T09:23:54Z</time>
      </trkpt>
      <trkpt lat="46.21256" lon="6.74471">
        <ele>1129</ele>
        <time>2021-06-26T09:23:55Z</time>
      </trkpt>
      <trkpt lat="46.21257" lon="6.74475">
        <ele>1129.6</ele>
        <time>2021-06-26T09:23:57Z</time>
      </trkpt>
      <trkpt lat="46.21257" lon="6.74478">
        <ele>1129.6</ele>
        <time>2021-06-26T09:23:58Z</time>
      </trkpt>
      <trkpt lat="46.21257" lon="6.74482">
        <ele>1129.6</ele>
        <time>2021-06-26T09:23:59Z</time>
      </trkpt>
      <trkpt lat="46.21257" lon="6.74485">
        <ele>1130</ele>
        <time>2021-06-26T09:24:00Z</time>
      </trkpt>
      <trkpt lat="46.21257" lon="6.74489">
        <ele>1130.2</ele>
        <time>2021-06-26T09:24:01Z</time>
      </trkpt>
      <trkpt lat="46.21256" lon="6.74493">
        <ele>1130.2</ele>
        <time>2021-06-26T09:24:02Z</time>
      </trkpt>
      <trkpt lat="46.21256" lon="6.74496">
        <ele>1130.4</ele>
        <time>2021-06-26T09:24:03Z</time>
      </trkpt>
      <trkpt lat="46.21255" lon="6.745">
        <ele>1130.8</ele>
        <time>2021-06-26T09:24:04Z</time>
      </trkpt>
      <trkpt lat="46.21254" lon="6.74504">
        <ele>1131</ele>
        <time>2021-06-26T09:24:05Z</time>
      </trkpt>
      <trkpt lat="46.21254" lon="6.74507">
        <ele>1131.2</ele>
        <time>2021-06-26T09:24:06Z</time>
      </trkpt>
      <trkpt lat="46.21254" lon="6.74511">
        <ele>1131.4</ele>
        <time>2021-06-26T09:24:07Z</time>
      </trkpt>
      <trkpt lat="46.21254" lon="6.74515">
        <ele>1131.6</ele>
        <time>2021-06-26T09:24:08Z</time>
      </trkpt>
      <trkpt lat="46.21254" lon="6.7452">
        <ele>1132</ele>
        <time>2021-06-26T09:24:09Z</time>
      </trkpt>
      <trkpt lat="46.21254" lon="6.74524">
        <ele>1132</ele>
        <time>2021-06-26T09:24:10Z</time>
      </trkpt>
      <trkpt lat="46.21254" lon="6.74528">
        <ele>1132.2</ele>
        <time>2021-06-26T09:24:11Z</time>
      </trkpt>
      <trkpt lat="46.21255" lon="6.74532">
        <ele>1132.4</ele>
        <time>2021-06-26T09:24:12Z</time>
      </trkpt>
      <trkpt lat="46.21255" lon="6.74536">
        <ele>1132.6</ele>
        <time>2021-06-26T09:24:13Z</time>
      </trkpt>
      <trkpt lat="46.21255" lon="6.7454">
        <ele>1132.8</ele>
        <time>2021-06-26T09:24:14Z</time>
      </trkpt>
      <trkpt lat="46.21256" lon="6.74543">
        <ele>1133.2</ele>
        <time>2021-06-26T09:24:15Z</time>
      </trkpt>
      <trkpt lat="46.21257" lon="6.74547">
        <ele>1133.2</ele>
        <time>2021-06-26T09:24:16Z</time>
      </trkpt>
      <trkpt lat="46.21257" lon="6.74551">
        <ele>1133.4</ele>
        <time>2021-06-26T09:24:17Z</time>
      </trkpt>
      <trkpt lat="46.21257" lon="6.74555">
        <ele>1133.6</ele>
        <time>2021-06-26T09:24:18Z</time>
      </trkpt>
      <trkpt lat="46.21258" lon="6.74559">
        <ele>1133.8</ele>
        <time>2021-06-26T09:24:19Z</time>
      </trkpt>
      <trkpt lat="46.21259" lon="6.74563">
        <ele>1133.8</ele>
        <time>2021-06-26T09:24:20Z</time>
      </trkpt>
      <trkpt lat="46.2126" lon="6.74566">
        <ele>1134.2</ele>
        <time>2021-06-26T09:24:21Z</time>
      </trkpt>
      <trkpt lat="46.21261" lon="6.7457">
        <ele>1134.2</ele>
        <time>2021-06-26T09:24:22Z</time>
      </trkpt>
      <trkpt lat="46.21262" lon="6.74574">
        <ele>1134.6</ele>
        <time>2021-06-26T09:24:23Z</time>
      </trkpt>
      <trkpt lat="46.21263" lon="6.74577">
        <ele>1134.8</ele>
        <time>2021-06-26T09:24:24Z</time>
      </trkpt>
      <trkpt lat="46.21264" lon="6.74581">
        <ele>1135</ele>
        <time>2021-06-26T09:24:25Z</time>
      </trkpt>
      <trkpt lat="46.21265" lon="6.74584">
        <ele>1135.2</ele>
        <time>2021-06-26T09:24:26Z</time>
      </trkpt>
      <trkpt lat="46.21265" lon="6.74588">
        <ele>1135.4</ele>
        <time>2021-06-26T09:24:27Z</time>
      </trkpt>
      <trkpt lat="46.21266" lon="6.74591">
        <ele>1135.6</ele>
        <time>2021-06-26T09:24:28Z</time>
      </trkpt>
      <trkpt lat="46.21266" lon="6.74595">
        <ele>1135.8</ele>
        <time>2021-06-26T09:24:29Z</time>
      </trkpt>
      <trkpt lat="46.21267" lon="6.74598">
        <ele>1136</ele>
        <time>2021-06-26T09:24:30Z</time>
      </trkpt>
      <trkpt lat="46.21268" lon="6.74601">
        <ele>1136.2</ele>
        <time>2021-06-26T09:24:31Z</time>
      </trkpt>
      <trkpt lat="46.21269" lon="6.74605">
        <ele>1136.4</ele>
        <time>2021-06-26T09:24:32Z</time>
      </trkpt>
      <trkpt lat="46.21269" lon="6.74609">
        <ele>1136.6</ele>
        <time>2021-06-26T09:24:33Z</time>
      </trkpt>
      <trkpt lat="46.2127" lon="6.74612">
        <ele>1136.8</ele>
        <time>2021-06-26T09:24:34Z</time>
      </trkpt>
      <trkpt lat="46.2127" lon="6.74616">
        <ele>1136.8</ele>
        <time>2021-06-26T09:24:35Z</time>
      </trkpt>
      <trkpt lat="46.21271" lon="6.74619">
        <ele>1137.2</ele>
        <time>2021-06-26T09:24:36Z</time>
      </trkpt>
      <trkpt lat="46.21272" lon="6.74622">
        <ele>1137.4</ele>
        <time>2021-06-26T09:24:37Z</time>
      </trkpt>
      <trkpt lat="46.21274" lon="6.74626">
        <ele>1137.6</ele>
        <time>2021-06-26T09:24:38Z</time>
      </trkpt>
      <trkpt lat="46.21275" lon="6.7463">
        <ele>1137.6</ele>
        <time>2021-06-26T09:24:39Z</time>
      </trkpt>
      <trkpt lat="46.21276" lon="6.74633">
        <ele>1138</ele>
        <time>2021-06-26T09:24:40Z</time>
      </trkpt>
      <trkpt lat="46.21277" lon="6.74637">
        <ele>1138.2</ele>
        <time>2021-06-26T09:24:41Z</time>
      </trkpt>
      <trkpt lat="46.21277" lon="6.7464">
        <ele>1138.4</ele>
        <time>2021-06-26T09:24:42Z</time>
      </trkpt>
      <trkpt lat="46.21278" lon="6.74643">
        <ele>1138.6</ele>
        <time>2021-06-26T09:24:43Z</time>
      </trkpt>
      <trkpt lat="46.21278" lon="6.74646">
        <ele>1138.8</ele>
        <time>2021-06-26T09:24:44Z</time>
      </trkpt>
      <trkpt lat="46.21279" lon="6.7465">
        <ele>1139</ele>
        <time>2021-06-26T09:24:45Z</time>
      </trkpt>
      <trkpt lat="46.2128" lon="6.74653">
        <ele>1139.2</ele>
        <time>2021-06-26T09:24:46Z</time>
      </trkpt>
      <trkpt lat="46.21282" lon="6.74656">
        <ele>1139.4</ele>
        <time>2021-06-26T09:24:47Z</time>
      </trkpt>
      <trkpt lat="46.21283" lon="6.7466">
        <ele>1139.6</ele>
        <time>2021-06-26T09:24:48Z</time>
      </trkpt>
      <trkpt lat="46.21283" lon="6.74663">
        <ele>1139.8</ele>
        <time>2021-06-26T09:24:49Z</time>
      </trkpt>
      <trkpt lat="46.21285" lon="6.74666">
        <ele>1140</ele>
        <time>2021-06-26T09:24:50Z</time>
      </trkpt>
      <trkpt lat="46.21286" lon="6.7467">
        <ele>1140.4</ele>
        <time>2021-06-26T09:24:51Z</time>
      </trkpt>
      <trkpt lat="46.21289" lon="6.74676">
        <ele>1140.4</ele>
        <time>2021-06-26T09:24:52Z</time>
      </trkpt>
      <trkpt lat="46.2129" lon="6.74679">
        <ele>1140.4</ele>
        <time>2021-06-26T09:24:53Z</time>
      </trkpt>
      <trkpt lat="46.21292" lon="6.74682">
        <ele>1140.6</ele>
        <time>2021-06-26T09:24:54Z</time>
      </trkpt>
      <trkpt lat="46.21293" lon="6.74685">
        <ele>1141</ele>
        <time>2021-06-26T09:24:55Z</time>
      </trkpt>
      <trkpt lat="46.21294" lon="6.74688">
        <ele>1141.4</ele>
        <time>2021-06-26T09:24:56Z</time>
      </trkpt>
      <trkpt lat="46.21295" lon="6.74691">
        <ele>1141.4</ele>
        <time>2021-06-26T09:24:57Z</time>
      </trkpt>
      <trkpt lat="46.21296" lon="6.74694">
        <ele>1141.6</ele>
        <time>2021-06-26T09:24:58Z</time>
      </trkpt>
      <trkpt lat="46.21297" lon="6.74696">
        <ele>1142</ele>
        <time>2021-06-26T09:24:59Z</time>
      </trkpt>
      <trkpt lat="46.21298" lon="6.74699">
        <ele>1142.4</ele>
        <time>2021-06-26T09:25:01Z</time>
      </trkpt>
      <trkpt lat="46.21299" lon="6.74702">
        <ele>1142.4</ele>
        <time>2021-06-26T09:25:02Z</time>
      </trkpt>
      <trkpt lat="46.21301" lon="6.74705">
        <ele>1142.6</ele>
        <time>2021-06-26T09:25:03Z</time>
      </trkpt>
      <trkpt lat="46.21302" lon="6.74707">
        <ele>1142.8</ele>
        <time>2021-06-26T09:25:04Z</time>
      </trkpt>
      <trkpt lat="46.21303" lon="6.7471">
        <ele>1143</ele>
        <time>2021-06-26T09:25:05Z</time>
      </trkpt>
      <trkpt lat="46.21305" lon="6.74712">
        <ele>1143.2</ele>
        <time>2021-06-26T09:25:06Z</time>
      </trkpt>
      <trkpt lat="46.21306" lon="6.74715">
        <ele>1143.4</ele>
        <time>2021-06-26T09:25:07Z</time>
      </trkpt>
      <trkpt lat="46.21307" lon="6.74717">
        <ele>1143.6</ele>
        <time>2021-06-26T09:25:08Z</time>
      </trkpt>
      <trkpt lat="46.21309" lon="6.7472">
        <ele>1143.8</ele>
        <time>2021-06-26T09:25:09Z</time>
      </trkpt>
      <trkpt lat="46.21311" lon="6.74722">
        <ele>1144</ele>
        <time>2021-06-26T09:25:10Z</time>
      </trkpt>
      <trkpt lat="46.21315" lon="6.74727">
        <ele>1144.2</ele>
        <time>2021-06-26T09:25:11Z</time>
      </trkpt>
      <trkpt lat="46.21318" lon="6.7473">
        <ele>1144.4</ele>
        <time>2021-06-26T09:25:12Z</time>
      </trkpt>
      <trkpt lat="46.21321" lon="6.74733">
        <ele>1144.8</ele>
        <time>2021-06-26T09:25:13Z</time>
      </trkpt>
      <trkpt lat="46.21323" lon="6.74735">
        <ele>1145</ele>
        <time>2021-06-26T09:25:14Z</time>
      </trkpt>
      <trkpt lat="46.21325" lon="6.74738">
        <ele>1145.2</ele>
        <time>2021-06-26T09:25:15Z</time>
      </trkpt>
      <trkpt lat="46.21326" lon="6.74741">
        <ele>1145.2</ele>
        <time>2021-06-26T09:25:16Z</time>
      </trkpt>
      <trkpt lat="46.21328" lon="6.74744">
        <ele>1145.4</ele>
        <time>2021-06-26T09:25:17Z</time>
      </trkpt>
      <trkpt lat="46.21331" lon="6.74747">
        <ele>1145.6</ele>
        <time>2021-06-26T09:25:18Z</time>
      </trkpt>
      <trkpt lat="46.21333" lon="6.7475">
        <ele>1145.8</ele>
        <time>2021-06-26T09:25:19Z</time>
      </trkpt>
      <trkpt lat="46.21336" lon="6.74753">
        <ele>1146.2</ele>
        <time>2021-06-26T09:25:20Z</time>
      </trkpt>
      <trkpt lat="46.21338" lon="6.74755">
        <ele>1146.4</ele>
        <time>2021-06-26T09:25:22Z</time>
      </trkpt>
      <trkpt lat="46.21341" lon="6.7476">
        <ele>1146.6</ele>
        <time>2021-06-26T09:25:23Z</time>
      </trkpt>
      <trkpt lat="46.21343" lon="6.74763">
        <ele>1146.6</ele>
        <time>2021-06-26T09:25:24Z</time>
      </trkpt>
      <trkpt lat="46.21345" lon="6.74766">
        <ele>1146.8</ele>
        <time>2021-06-26T09:25:25Z</time>
      </trkpt>
      <trkpt lat="46.21349" lon="6.7477">
        <ele>1147</ele>
        <time>2021-06-26T09:25:26Z</time>
      </trkpt>
      <trkpt lat="46.21352" lon="6.74773">
        <ele>1147.2</ele>
        <time>2021-06-26T09:25:27Z</time>
      </trkpt>
      <trkpt lat="46.21354" lon="6.74775">
        <ele>1147.6</ele>
        <time>2021-06-26T09:25:28Z</time>
      </trkpt>
      <trkpt lat="46.21355" lon="6.74778">
        <ele>1147.8</ele>
        <time>2021-06-26T09:25:29Z</time>
      </trkpt>
      <trkpt lat="46.21357" lon="6.74782">
        <ele>1148</ele>
        <time>2021-06-26T09:25:30Z</time>
      </trkpt>
      <trkpt lat="46.21358" lon="6.74784">
        <ele>1148.2</ele>
        <time>2021-06-26T09:25:31Z</time>
      </trkpt>
      <trkpt lat="46.21359" lon="6.74787">
        <ele>1148.4</ele>
        <time>2021-06-26T09:25:32Z</time>
      </trkpt>
      <trkpt lat="46.21361" lon="6.74789">
        <ele>1148.6</ele>
        <time>2021-06-26T09:25:33Z</time>
      </trkpt>
      <trkpt lat="46.21362" lon="6.74793">
        <ele>1149</ele>
        <time>2021-06-26T09:25:34Z</time>
      </trkpt>
      <trkpt lat="46.21364" lon="6.74796">
        <ele>1149.2</ele>
        <time>2021-06-26T09:25:35Z</time>
      </trkpt>
      <trkpt lat="46.21364" lon="6.74799">
        <ele>1149.2</ele>
        <time>2021-06-26T09:25:36Z</time>
      </trkpt>
      <trkpt lat="46.21365" lon="6.74802">
        <ele>1149.4</ele>
        <time>2021-06-26T09:25:37Z</time>
      </trkpt>
      <trkpt lat="46.21365" lon="6.74806">
        <ele>1149.6</ele>
        <time>2021-06-26T09:25:38Z</time>
      </trkpt>
      <trkpt lat="46.21365" lon="6.74809">
        <ele>1149.8</ele>
        <time>2021-06-26T09:25:39Z</time>
      </trkpt>
      <trkpt lat="46.21366" lon="6.74812">
        <ele>1150.2</ele>
        <time>2021-06-26T09:25:40Z</time>
      </trkpt>
      <trkpt lat="46.21367" lon="6.74815">
        <ele>1150.4</ele>
        <time>2021-06-26T09:25:41Z</time>
      </trkpt>
      <trkpt lat="46.21368" lon="6.74819">
        <ele>1150.6</ele>
        <time>2021-06-26T09:25:42Z</time>
      </trkpt>
      <trkpt lat="46.21369" lon="6.74823">
        <ele>1150.8</ele>
        <time>2021-06-26T09:25:43Z</time>
      </trkpt>
      <trkpt lat="46.2137" lon="6.74826">
        <ele>1151</ele>
        <time>2021-06-26T09:25:44Z</time>
      </trkpt>
      <trkpt lat="46.21371" lon="6.74829">
        <ele>1151.4</ele>
        <time>2021-06-26T09:25:45Z</time>
      </trkpt>
      <trkpt lat="46.21372" lon="6.74833">
        <ele>1151.6</ele>
        <time>2021-06-26T09:25:46Z</time>
      </trkpt>
      <trkpt lat="46.21373" lon="6.74837">
        <ele>1151.6</ele>
        <time>2021-06-26T09:25:47Z</time>
      </trkpt>
      <trkpt lat="46.21374" lon="6.7484">
        <ele>1152</ele>
        <time>2021-06-26T09:25:48Z</time>
      </trkpt>
      <trkpt lat="46.21375" lon="6.74844">
        <ele>1152.2</ele>
        <time>2021-06-26T09:25:49Z</time>
      </trkpt>
      <trkpt lat="46.21377" lon="6.74848">
        <ele>1152.4</ele>
        <time>2021-06-26T09:25:50Z</time>
      </trkpt>
      <trkpt lat="46.21378" lon="6.74851">
        <ele>1152.6</ele>
        <time>2021-06-26T09:25:51Z</time>
      </trkpt>
      <trkpt lat="46.21379" lon="6.74855">
        <ele>1152.8</ele>
        <time>2021-06-26T09:25:52Z</time>
      </trkpt>
      <trkpt lat="46.21381" lon="6.74859">
        <ele>1153</ele>
        <time>2021-06-26T09:25:53Z</time>
      </trkpt>
      <trkpt lat="46.21382" lon="6.74862">
        <ele>1153.2</ele>
        <time>2021-06-26T09:25:54Z</time>
      </trkpt>
      <trkpt lat="46.21385" lon="6.74866">
        <ele>1153.6</ele>
        <time>2021-06-26T09:25:55Z</time>
      </trkpt>
      <trkpt lat="46.21387" lon="6.7487">
        <ele>1154</ele>
        <time>2021-06-26T09:25:56Z</time>
      </trkpt>
      <trkpt lat="46.21389" lon="6.74873">
        <ele>1154</ele>
        <time>2021-06-26T09:25:57Z</time>
      </trkpt>
      <trkpt lat="46.21391" lon="6.74877">
        <ele>1154.2</ele>
        <time>2021-06-26T09:25:58Z</time>
      </trkpt>
      <trkpt lat="46.21393" lon="6.74881">
        <ele>1154.2</ele>
        <time>2021-06-26T09:25:59Z</time>
      </trkpt>
      <trkpt lat="46.21395" lon="6.74884">
        <ele>1154.4</ele>
        <time>2021-06-26T09:26:00Z</time>
      </trkpt>
      <trkpt lat="46.21396" lon="6.74888">
        <ele>1154.6</ele>
        <time>2021-06-26T09:26:01Z</time>
      </trkpt>
      <trkpt lat="46.21398" lon="6.74891">
        <ele>1154.8</ele>
        <time>2021-06-26T09:26:02Z</time>
      </trkpt>
      <trkpt lat="46.214" lon="6.74894">
        <ele>1154.8</ele>
        <time>2021-06-26T09:26:03Z</time>
      </trkpt>
      <trkpt lat="46.21401" lon="6.74897">
        <ele>1155</ele>
        <time>2021-06-26T09:26:04Z</time>
      </trkpt>
      <trkpt lat="46.21402" lon="6.749">
        <ele>1155.2</ele>
        <time>2021-06-26T09:26:05Z</time>
      </trkpt>
      <trkpt lat="46.21404" lon="6.74904">
        <ele>1155.4</ele>
        <time>2021-06-26T09:26:06Z</time>
      </trkpt>
      <trkpt lat="46.21405" lon="6.74907">
        <ele>1155.8</ele>
        <time>2021-06-26T09:26:07Z</time>
      </trkpt>
      <trkpt lat="46.21407" lon="6.74911">
        <ele>1156</ele>
        <time>2021-06-26T09:26:08Z</time>
      </trkpt>
      <trkpt lat="46.21409" lon="6.74914">
        <ele>1156.2</ele>
        <time>2021-06-26T09:26:09Z</time>
      </trkpt>
      <trkpt lat="46.2141" lon="6.74918">
        <ele>1156.2</ele>
        <time>2021-06-26T09:26:10Z</time>
      </trkpt>
      <trkpt lat="46.21411" lon="6.74922">
        <ele>1156.4</ele>
        <time>2021-06-26T09:26:11Z</time>
      </trkpt>
      <trkpt lat="46.21413" lon="6.74925">
        <ele>1156.6</ele>
        <time>2021-06-26T09:26:12Z</time>
      </trkpt>
      <trkpt lat="46.21414" lon="6.74929">
        <ele>1157</ele>
        <time>2021-06-26T09:26:13Z</time>
      </trkpt>
      <trkpt lat="46.21415" lon="6.74932">
        <ele>1157.2</ele>
        <time>2021-06-26T09:26:14Z</time>
      </trkpt>
      <trkpt lat="46.21417" lon="6.74936">
        <ele>1157.4</ele>
        <time>2021-06-26T09:26:15Z</time>
      </trkpt>
      <trkpt lat="46.21418" lon="6.74939">
        <ele>1157.6</ele>
        <time>2021-06-26T09:26:16Z</time>
      </trkpt>
      <trkpt lat="46.2142" lon="6.74943">
        <ele>1158</ele>
        <time>2021-06-26T09:26:17Z</time>
      </trkpt>
      <trkpt lat="46.21422" lon="6.74946">
        <ele>1158.2</ele>
        <time>2021-06-26T09:26:18Z</time>
      </trkpt>
      <trkpt lat="46.21424" lon="6.7495">
        <ele>1158.4</ele>
        <time>2021-06-26T09:26:19Z</time>
      </trkpt>
      <trkpt lat="46.21426" lon="6.74953">
        <ele>1158.8</ele>
        <time>2021-06-26T09:26:20Z</time>
      </trkpt>
      <trkpt lat="46.21427" lon="6.74956">
        <ele>1159</ele>
        <time>2021-06-26T09:26:21Z</time>
      </trkpt>
      <trkpt lat="46.21428" lon="6.7496">
        <ele>1159</ele>
        <time>2021-06-26T09:26:22Z</time>
      </trkpt>
      <trkpt lat="46.21429" lon="6.74964">
        <ele>1159.6</ele>
        <time>2021-06-26T09:26:23Z</time>
      </trkpt>
      <trkpt lat="46.2143" lon="6.74967">
        <ele>1159.8</ele>
        <time>2021-06-26T09:26:24Z</time>
      </trkpt>
      <trkpt lat="46.21431" lon="6.7497">
        <ele>1160</ele>
        <time>2021-06-26T09:26:25Z</time>
      </trkpt>
      <trkpt lat="46.21432" lon="6.74973">
        <ele>1160.2</ele>
        <time>2021-06-26T09:26:26Z</time>
      </trkpt>
      <trkpt lat="46.21433" lon="6.74976">
        <ele>1160.6</ele>
        <time>2021-06-26T09:26:27Z</time>
      </trkpt>
      <trkpt lat="46.21433" lon="6.74979">
        <ele>1160.8</ele>
        <time>2021-06-26T09:26:28Z</time>
      </trkpt>
      <trkpt lat="46.21434" lon="6.74983">
        <ele>1161</ele>
        <time>2021-06-26T09:26:29Z</time>
      </trkpt>
      <trkpt lat="46.21436" lon="6.74986">
        <ele>1161</ele>
        <time>2021-06-26T09:26:30Z</time>
      </trkpt>
      <trkpt lat="46.21437" lon="6.74989">
        <ele>1161.4</ele>
        <time>2021-06-26T09:26:31Z</time>
      </trkpt>
      <trkpt lat="46.21438" lon="6.74992">
        <ele>1161.6</ele>
        <time>2021-06-26T09:26:32Z</time>
      </trkpt>
      <trkpt lat="46.21439" lon="6.74995">
        <ele>1161.6</ele>
        <time>2021-06-26T09:26:33Z</time>
      </trkpt>
      <trkpt lat="46.2144" lon="6.74998">
        <ele>1162</ele>
        <time>2021-06-26T09:26:34Z</time>
      </trkpt>
      <trkpt lat="46.21441" lon="6.75001">
        <ele>1162</ele>
        <time>2021-06-26T09:26:35Z</time>
      </trkpt>
      <trkpt lat="46.21442" lon="6.75004">
        <ele>1162.2</ele>
        <time>2021-06-26T09:26:36Z</time>
      </trkpt>
      <trkpt lat="46.21444" lon="6.75007">
        <ele>1162.4</ele>
        <time>2021-06-26T09:26:37Z</time>
      </trkpt>
      <trkpt lat="46.21445" lon="6.7501">
        <ele>1162.8</ele>
        <time>2021-06-26T09:26:38Z</time>
      </trkpt>
      <trkpt lat="46.21446" lon="6.75013">
        <ele>1162.8</ele>
        <time>2021-06-26T09:26:39Z</time>
      </trkpt>
      <trkpt lat="46.21447" lon="6.75016">
        <ele>1163</ele>
        <time>2021-06-26T09:26:40Z</time>
      </trkpt>
      <trkpt lat="46.21448" lon="6.75019">
        <ele>1163.2</ele>
        <time>2021-06-26T09:26:41Z</time>
      </trkpt>
      <trkpt lat="46.2145" lon="6.75023">
        <ele>1163.6</ele>
        <time>2021-06-26T09:26:42Z</time>
      </trkpt>
      <trkpt lat="46.21451" lon="6.75026">
        <ele>1163.6</ele>
        <time>2021-06-26T09:26:43Z</time>
      </trkpt>
      <trkpt lat="46.21453" lon="6.75029">
        <ele>1163.8</ele>
        <time>2021-06-26T09:26:44Z</time>
      </trkpt>
      <trkpt lat="46.21455" lon="6.75033">
        <ele>1164</ele>
        <time>2021-06-26T09:26:45Z</time>
      </trkpt>
      <trkpt lat="46.21456" lon="6.75036">
        <ele>1164.2</ele>
        <time>2021-06-26T09:26:46Z</time>
      </trkpt>
      <trkpt lat="46.21458" lon="6.75039">
        <ele>1164.4</ele>
        <time>2021-06-26T09:26:47Z</time>
      </trkpt>
      <trkpt lat="46.21459" lon="6.75042">
        <ele>1164.6</ele>
        <time>2021-06-26T09:26:48Z</time>
      </trkpt>
      <trkpt lat="46.21461" lon="6.75046">
        <ele>1164.8</ele>
        <time>2021-06-26T09:26:49Z</time>
      </trkpt>
      <trkpt lat="46.21463" lon="6.75049">
        <ele>1164.8</ele>
        <time>2021-06-26T09:26:50Z</time>
      </trkpt>
      <trkpt lat="46.21464" lon="6.75053">
        <ele>1165</ele>
        <time>2021-06-26T09:26:51Z</time>
      </trkpt>
      <trkpt lat="46.21466" lon="6.75056">
        <ele>1165.4</ele>
        <time>2021-06-26T09:26:52Z</time>
      </trkpt>
      <trkpt lat="46.21468" lon="6.75059">
        <ele>1165.4</ele>
        <time>2021-06-26T09:26:53Z</time>
      </trkpt>
      <trkpt lat="46.21469" lon="6.75062">
        <ele>1165.8</ele>
        <time>2021-06-26T09:26:54Z</time>
      </trkpt>
      <trkpt lat="46.21471" lon="6.75065">
        <ele>1165.8</ele>
        <time>2021-06-26T09:26:55Z</time>
      </trkpt>
      <trkpt lat="46.21472" lon="6.75069">
        <ele>1165.8</ele>
        <time>2021-06-26T09:26:56Z</time>
      </trkpt>
      <trkpt lat="46.21474" lon="6.75072">
        <ele>1166.2</ele>
        <time>2021-06-26T09:26:57Z</time>
      </trkpt>
      <trkpt lat="46.21475" lon="6.75075">
        <ele>1166.4</ele>
        <time>2021-06-26T09:26:58Z</time>
      </trkpt>
      <trkpt lat="46.21477" lon="6.75078">
        <ele>1166.6</ele>
        <time>2021-06-26T09:26:59Z</time>
      </trkpt>
      <trkpt lat="46.21479" lon="6.75081">
        <ele>1166.6</ele>
        <time>2021-06-26T09:27:00Z</time>
      </trkpt>
      <trkpt lat="46.21481" lon="6.75085">
        <ele>1166.8</ele>
        <time>2021-06-26T09:27:01Z</time>
      </trkpt>
      <trkpt lat="46.21482" lon="6.75088">
        <ele>1167</ele>
        <time>2021-06-26T09:27:02Z</time>
      </trkpt>
      <trkpt lat="46.21484" lon="6.7509">
        <ele>1167.2</ele>
        <time>2021-06-26T09:27:03Z</time>
      </trkpt>
      <trkpt lat="46.21485" lon="6.75093">
        <ele>1167.4</ele>
        <time>2021-06-26T09:27:04Z</time>
      </trkpt>
      <trkpt lat="46.21486" lon="6.75095">
        <ele>1167.6</ele>
        <time>2021-06-26T09:27:05Z</time>
      </trkpt>
      <trkpt lat="46.21487" lon="6.75098">
        <ele>1167.8</ele>
        <time>2021-06-26T09:27:06Z</time>
      </trkpt>
      <trkpt lat="46.21488" lon="6.751">
        <ele>1168</ele>
        <time>2021-06-26T09:27:07Z</time>
      </trkpt>
      <trkpt lat="46.21488" lon="6.75104">
        <ele>1168</ele>
        <time>2021-06-26T09:27:08Z</time>
      </trkpt>
      <trkpt lat="46.21489" lon="6.75107">
        <ele>1168.2</ele>
        <time>2021-06-26T09:27:09Z</time>
      </trkpt>
      <trkpt lat="46.2149" lon="6.75109">
        <ele>1168.4</ele>
        <time>2021-06-26T09:27:10Z</time>
      </trkpt>
      <trkpt lat="46.2149" lon="6.7511">
        <ele>1168.8</ele>
        <time>2021-06-26T09:27:11Z</time>
      </trkpt>
      <trkpt lat="46.2149" lon="6.75112">
        <ele>1168.8</ele>
        <time>2021-06-26T09:27:12Z</time>
      </trkpt>
      <trkpt lat="46.21491" lon="6.75113">
        <ele>1169</ele>
        <time>2021-06-26T09:27:13Z</time>
      </trkpt>
      <trkpt lat="46.21492" lon="6.75114">
        <ele>1169.2</ele>
        <time>2021-06-26T09:27:14Z</time>
      </trkpt>
      <trkpt lat="46.21493" lon="6.75116">
        <ele>1169.4</ele>
        <time>2021-06-26T09:27:15Z</time>
      </trkpt>
      <trkpt lat="46.21494" lon="6.75119">
        <ele>1169.6</ele>
        <time>2021-06-26T09:27:16Z</time>
      </trkpt>
      <trkpt lat="46.21495" lon="6.75122">
        <ele>1169.8</ele>
        <time>2021-06-26T09:27:17Z</time>
      </trkpt>
      <trkpt lat="46.21497" lon="6.75122">
        <ele>1170.2</ele>
        <time>2021-06-26T09:27:18Z</time>
      </trkpt>
      <trkpt lat="46.21498" lon="6.75123">
        <ele>1170.2</ele>
        <time>2021-06-26T09:27:19Z</time>
      </trkpt>
      <trkpt lat="46.215" lon="6.75126">
        <ele>1170.4</ele>
        <time>2021-06-26T09:27:20Z</time>
      </trkpt>
      <trkpt lat="46.21499" lon="6.75129">
        <ele>1170.6</ele>
        <time>2021-06-26T09:27:21Z</time>
      </trkpt>
      <trkpt lat="46.21499" lon="6.75131">
        <ele>1170.8</ele>
        <time>2021-06-26T09:27:22Z</time>
      </trkpt>
      <trkpt lat="46.215" lon="6.75133">
        <ele>1171</ele>
        <time>2021-06-26T09:27:23Z</time>
      </trkpt>
      <trkpt lat="46.21502" lon="6.75134">
        <ele>1171.4</ele>
        <time>2021-06-26T09:27:24Z</time>
      </trkpt>
      <trkpt lat="46.21501" lon="6.75138">
        <ele>1171.4</ele>
        <time>2021-06-26T09:27:25Z</time>
      </trkpt>
      <trkpt lat="46.21501" lon="6.75142">
        <ele>1171.8</ele>
        <time>2021-06-26T09:27:26Z</time>
      </trkpt>
      <trkpt lat="46.215" lon="6.75146">
        <ele>1171.8</ele>
        <time>2021-06-26T09:27:27Z</time>
      </trkpt>
      <trkpt lat="46.215" lon="6.7515">
        <ele>1172.2</ele>
        <time>2021-06-26T09:27:28Z</time>
      </trkpt>
      <trkpt lat="46.215" lon="6.75155">
        <ele>1172.4</ele>
        <time>2021-06-26T09:27:29Z</time>
      </trkpt>
      <trkpt lat="46.21465" lon="6.7521">
        <ele>1172.8</ele>
        <time>2021-06-26T09:27:31Z</time>
      </trkpt>
      <trkpt lat="46.21463" lon="6.75214">
        <ele>1173</ele>
        <time>2021-06-26T09:27:32Z</time>
      </trkpt>
      <trkpt lat="46.21462" lon="6.75221">
        <ele>1173.2</ele>
        <time>2021-06-26T09:27:33Z</time>
      </trkpt>
      <trkpt lat="46.21461" lon="6.75224">
        <ele>1173.4</ele>
        <time>2021-06-26T09:27:34Z</time>
      </trkpt>
      <trkpt lat="46.2146" lon="6.7523">
        <ele>1173.6</ele>
        <time>2021-06-26T09:27:35Z</time>
      </trkpt>
      <trkpt lat="46.21459" lon="6.75235">
        <ele>1173.8</ele>
        <time>2021-06-26T09:27:36Z</time>
      </trkpt>
      <trkpt lat="46.21375" lon="6.75345">
        <ele>1174</ele>
        <time>2021-06-26T09:27:37Z</time>
      </trkpt>
      <trkpt lat="46.21291" lon="6.75455">
        <ele>1174.4</ele>
        <time>2021-06-26T09:27:38Z</time>
      </trkpt>
      <trkpt lat="46.21176" lon="6.75628">
        <ele>1174.6</ele>
        <time>2021-06-26T09:27:39Z</time>
      </trkpt>
      <trkpt lat="46.21163" lon="6.75644">
        <ele>1174.6</ele>
        <time>2021-06-26T09:27:40Z</time>
      </trkpt>
      <trkpt lat="46.21149" lon="6.75659">
        <ele>1174.6</ele>
        <time>2021-06-26T09:27:41Z</time>
      </trkpt>
      <trkpt lat="46.21137" lon="6.75675">
        <ele>1175</ele>
        <time>2021-06-26T09:27:42Z</time>
      </trkpt>
      <trkpt lat="46.21125" lon="6.75689">
        <ele>1175.2</ele>
        <time>2021-06-26T09:27:43Z</time>
      </trkpt>
      <trkpt lat="46.21114" lon="6.75702">
        <ele>1175.6</ele>
        <time>2021-06-26T09:27:44Z</time>
      </trkpt>
      <trkpt lat="46.21104" lon="6.75715">
        <ele>1175.6</ele>
        <time>2021-06-26T09:27:45Z</time>
      </trkpt>
      <trkpt lat="46.21093" lon="6.75727">
        <ele>1176</ele>
        <time>2021-06-26T09:27:46Z</time>
      </trkpt>
      <trkpt lat="46.21083" lon="6.75738">
        <ele>1176.2</ele>
        <time>2021-06-26T09:27:47Z</time>
      </trkpt>
      <trkpt lat="46.21071" lon="6.7575">
        <ele>1176.4</ele>
        <time>2021-06-26T09:27:48Z</time>
      </trkpt>
      <trkpt lat="46.21058" lon="6.75763">
        <ele>1176.8</ele>
        <time>2021-06-26T09:27:49Z</time>
      </trkpt>
      <trkpt lat="46.21046" lon="6.75775">
        <ele>1177</ele>
        <time>2021-06-26T09:27:50Z</time>
      </trkpt>
      <trkpt lat="46.21033" lon="6.75787">
        <ele>1177.2</ele>
        <time>2021-06-26T09:27:51Z</time>
      </trkpt>
      <trkpt lat="46.2102" lon="6.758">
        <ele>1177</ele>
        <time>2021-06-26T09:27:52Z</time>
      </trkpt>
      <trkpt lat="46.21008" lon="6.75812">
        <ele>1177.4</ele>
        <time>2021-06-26T09:27:53Z</time>
      </trkpt>
      <trkpt lat="46.20932" lon="6.75886">
        <ele>1177.6</ele>
        <time>2021-06-26T09:27:54Z</time>
      </trkpt>
      <trkpt lat="46.20922" lon="6.75898">
        <ele>1177.8</ele>
        <time>2021-06-26T09:27:55Z</time>
      </trkpt>
      <trkpt lat="46.20955" lon="6.75857">
        <ele>1178.6</ele>
        <time>2021-06-26T09:28:01Z</time>
      </trkpt>
      <trkpt lat="46.20953" lon="6.75859">
        <ele>1179</ele>
        <time>2021-06-26T09:28:02Z</time>
      </trkpt>
      <trkpt lat="46.20951" lon="6.75861">
        <ele>1179.2</ele>
        <time>2021-06-26T09:28:03Z</time>
      </trkpt>
      <trkpt lat="46.2095" lon="6.75863">
        <ele>1179.2</ele>
        <time>2021-06-26T09:28:04Z</time>
      </trkpt>
      <trkpt lat="46.2095" lon="6.75864">
        <ele>1179.2</ele>
        <time>2021-06-26T09:28:05Z</time>
      </trkpt>
      <trkpt lat="46.2095" lon="6.75867">
        <ele>1179.6</ele>
        <time>2021-06-26T09:28:06Z</time>
      </trkpt>
      <trkpt lat="46.21038" lon="6.75765">
        <ele>1179.8</ele>
        <time>2021-06-26T09:28:07Z</time>
      </trkpt>
      <trkpt lat="46.21125" lon="6.75664">
        <ele>1180.2</ele>
        <time>2021-06-26T09:28:08Z</time>
      </trkpt>
      <trkpt lat="46.21212" lon="6.75562">
        <ele>1180.4</ele>
        <time>2021-06-26T09:28:09Z</time>
      </trkpt>
      <trkpt lat="46.21473" lon="6.75256">
        <ele>1180.8</ele>
        <time>2021-06-26T09:28:10Z</time>
      </trkpt>
      <trkpt lat="46.21496" lon="6.75295">
        <ele>1180.8</ele>
        <time>2021-06-26T09:28:11Z</time>
      </trkpt>
      <trkpt lat="46.21502" lon="6.75312">
        <ele>1181.2</ele>
        <time>2021-06-26T09:28:12Z</time>
      </trkpt>
      <trkpt lat="46.21505" lon="6.75324">
        <ele>1181.6</ele>
        <time>2021-06-26T09:28:13Z</time>
      </trkpt>
      <trkpt lat="46.21508" lon="6.75332">
        <ele>1181.8</ele>
        <time>2021-06-26T09:28:14Z</time>
      </trkpt>
      <trkpt lat="46.21508" lon="6.75337">
        <ele>1182</ele>
        <time>2021-06-26T09:28:15Z</time>
      </trkpt>
      <trkpt lat="46.21507" lon="6.75341">
        <ele>1182.2</ele>
        <time>2021-06-26T09:28:16Z</time>
      </trkpt>
      <trkpt lat="46.21506" lon="6.75345">
        <ele>1182.6</ele>
        <time>2021-06-26T09:28:17Z</time>
      </trkpt>
      <trkpt lat="46.21504" lon="6.75349">
        <ele>1182.8</ele>
        <time>2021-06-26T09:28:18Z</time>
      </trkpt>
      <trkpt lat="46.21503" lon="6.75352">
        <ele>1183</ele>
        <time>2021-06-26T09:28:19Z</time>
      </trkpt>
      <trkpt lat="46.21502" lon="6.75357">
        <ele>1183.2</ele>
        <time>2021-06-26T09:28:20Z</time>
      </trkpt>
      <trkpt lat="46.21502" lon="6.75361">
        <ele>1183.4</ele>
        <time>2021-06-26T09:28:21Z</time>
      </trkpt>
      <trkpt lat="46.21501" lon="6.75364">
        <ele>1183.6</ele>
        <time>2021-06-26T09:28:22Z</time>
      </trkpt>
      <trkpt lat="46.21501" lon="6.75368">
        <ele>1183.8</ele>
        <time>2021-06-26T09:28:23Z</time>
      </trkpt>
      <trkpt lat="46.21501" lon="6.75373">
        <ele>1184</ele>
        <time>2021-06-26T09:28:24Z</time>
      </trkpt>
      <trkpt lat="46.21501" lon="6.75378">
        <ele>1184.6</ele>
        <time>2021-06-26T09:28:25Z</time>
      </trkpt>
      <trkpt lat="46.21501" lon="6.75383">
        <ele>1184.8</ele>
        <time>2021-06-26T09:28:26Z</time>
      </trkpt>
      <trkpt lat="46.21501" lon="6.75388">
        <ele>1184.8</ele>
        <time>2021-06-26T09:28:27Z</time>
      </trkpt>
      <trkpt lat="46.21502" lon="6.75394">
        <ele>1184.8</ele>
        <time>2021-06-26T09:28:28Z</time>
      </trkpt>
      <trkpt lat="46.21502" lon="6.75399">
        <ele>1185</ele>
        <time>2021-06-26T09:28:29Z</time>
      </trkpt>
      <trkpt lat="46.21502" lon="6.75404">
        <ele>1185.2</ele>
        <time>2021-06-26T09:28:30Z</time>
      </trkpt>
      <trkpt lat="46.21503" lon="6.7541">
        <ele>1185.4</ele>
        <time>2021-06-26T09:28:31Z</time>
      </trkpt>
      <trkpt lat="46.21503" lon="6.75415">
        <ele>1185.4</ele>
        <time>2021-06-26T09:28:32Z</time>
      </trkpt>
      <trkpt lat="46.21503" lon="6.75421">
        <ele>1185.4</ele>
        <time>2021-06-26T09:28:33Z</time>
      </trkpt>
      <trkpt lat="46.21504" lon="6.75427">
        <ele>1185.6</ele>
        <time>2021-06-26T09:28:34Z</time>
      </trkpt>
      <trkpt lat="46.21504" lon="6.75432">
        <ele>1185.8</ele>
        <time>2021-06-26T09:28:35Z</time>
      </trkpt>
      <trkpt lat="46.21505" lon="6.75437">
        <ele>1185.8</ele>
        <time>2021-06-26T09:28:36Z</time>
      </trkpt>
      <trkpt lat="46.21505" lon="6.75443">
        <ele>1185.8</ele>
        <time>2021-06-26T09:28:37Z</time>
      </trkpt>
      <trkpt lat="46.21505" lon="6.75448">
        <ele>1186</ele>
        <time>2021-06-26T09:28:38Z</time>
      </trkpt>
      <trkpt lat="46.21506" lon="6.75454">
        <ele>1186</ele>
        <time>2021-06-26T09:28:39Z</time>
      </trkpt>
      <trkpt lat="46.21506" lon="6.7546">
        <ele>1186.2</ele>
        <time>2021-06-26T09:28:40Z</time>
      </trkpt>
      <trkpt lat="46.21506" lon="6.75465">
        <ele>1186.2</ele>
        <time>2021-06-26T09:28:41Z</time>
      </trkpt>
      <trkpt lat="46.21505" lon="6.75471">
        <ele>1186.2</ele>
        <time>2021-06-26T09:28:42Z</time>
      </trkpt>
      <trkpt lat="46.21504" lon="6.75477">
        <ele>1186.4</ele>
        <time>2021-06-26T09:28:43Z</time>
      </trkpt>
      <trkpt lat="46.21503" lon="6.75482">
        <ele>1186.6</ele>
        <time>2021-06-26T09:28:44Z</time>
      </trkpt>
      <trkpt lat="46.21502" lon="6.75488">
        <ele>1186.6</ele>
        <time>2021-06-26T09:28:45Z</time>
      </trkpt>
      <trkpt lat="46.21501" lon="6.75493">
        <ele>1186.6</ele>
        <time>2021-06-26T09:28:46Z</time>
      </trkpt>
      <trkpt lat="46.215" lon="6.75499">
        <ele>1186.8</ele>
        <time>2021-06-26T09:28:47Z</time>
      </trkpt>
      <trkpt lat="46.21498" lon="6.75504">
        <ele>1186.8</ele>
        <time>2021-06-26T09:28:48Z</time>
      </trkpt>
      <trkpt lat="46.21495" lon="6.75509">
        <ele>1186.8</ele>
        <time>2021-06-26T09:28:49Z</time>
      </trkpt>
      <trkpt lat="46.21489" lon="6.75526">
        <ele>1187</ele>
        <time>2021-06-26T09:28:52Z</time>
      </trkpt>
      <trkpt lat="46.21488" lon="6.75532">
        <ele>1187</ele>
        <time>2021-06-26T09:28:53Z</time>
      </trkpt>
      <trkpt lat="46.21486" lon="6.75559">
        <ele>1187.2</ele>
        <time>2021-06-26T09:28:57Z</time>
      </trkpt>
      <trkpt lat="46.21486" lon="6.75566">
        <ele>1187.4</ele>
        <time>2021-06-26T09:28:58Z</time>
      </trkpt>
      <trkpt lat="46.21485" lon="6.75572">
        <ele>1187.2</ele>
        <time>2021-06-26T09:28:59Z</time>
      </trkpt>
      <trkpt lat="46.21486" lon="6.75599">
        <ele>1187.6</ele>
        <time>2021-06-26T09:29:03Z</time>
      </trkpt>
      <trkpt lat="46.21487" lon="6.75613">
        <ele>1187.8</ele>
        <time>2021-06-26T09:29:05Z</time>
      </trkpt>
      <trkpt lat="46.21489" lon="6.75632">
        <ele>1188</ele>
        <time>2021-06-26T09:29:08Z</time>
      </trkpt>
      <trkpt lat="46.21495" lon="6.75665">
        <ele>1188.4</ele>
        <time>2021-06-26T09:29:13Z</time>
      </trkpt>
      <trkpt lat="46.2151" lon="6.75713">
        <ele>1189.4</ele>
        <time>2021-06-26T09:29:20Z</time>
      </trkpt>
      <trkpt lat="46.21514" lon="6.75727">
        <ele>1189.6</ele>
        <time>2021-06-26T09:29:22Z</time>
      </trkpt>
      <trkpt lat="46.21516" lon="6.75734">
        <ele>1189.6</ele>
        <time>2021-06-26T09:29:23Z</time>
      </trkpt>
      <trkpt lat="46.21518" lon="6.7574">
        <ele>1189.8</ele>
        <time>2021-06-26T09:29:24Z</time>
      </trkpt>
      <trkpt lat="46.2152" lon="6.75746">
        <ele>1189.6</ele>
        <time>2021-06-26T09:29:25Z</time>
      </trkpt>
      <trkpt lat="46.21522" lon="6.75751">
        <ele>1189.6</ele>
        <time>2021-06-26T09:29:26Z</time>
      </trkpt>
      <trkpt lat="46.21524" lon="6.75756">
        <ele>1189.6</ele>
        <time>2021-06-26T09:29:27Z</time>
      </trkpt>
      <trkpt lat="46.21526" lon="6.7576">
        <ele>1189.6</ele>
        <time>2021-06-26T09:29:28Z</time>
      </trkpt>
      <trkpt lat="46.21527" lon="6.75765">
        <ele>1189.8</ele>
        <time>2021-06-26T09:29:29Z</time>
      </trkpt>
      <trkpt lat="46.21528" lon="6.75769">
        <ele>1189.8</ele>
        <time>2021-06-26T09:29:30Z</time>
      </trkpt>
      <trkpt lat="46.2153" lon="6.75772">
        <ele>1189.8</ele>
        <time>2021-06-26T09:29:31Z</time>
      </trkpt>
      <trkpt lat="46.21531" lon="6.75776">
        <ele>1190</ele>
        <time>2021-06-26T09:29:32Z</time>
      </trkpt>
      <trkpt lat="46.21532" lon="6.7578">
        <ele>1190.2</ele>
        <time>2021-06-26T09:29:33Z</time>
      </trkpt>
      <trkpt lat="46.21534" lon="6.75784">
        <ele>1190.6</ele>
        <time>2021-06-26T09:29:34Z</time>
      </trkpt>
      <trkpt lat="46.21535" lon="6.75788">
        <ele>1190.6</ele>
        <time>2021-06-26T09:29:35Z</time>
      </trkpt>
      <trkpt lat="46.21536" lon="6.75792">
        <ele>1191</ele>
        <time>2021-06-26T09:29:36Z</time>
      </trkpt>
      <trkpt lat="46.21536" lon="6.75796">
        <ele>1191.4</ele>
        <time>2021-06-26T09:29:37Z</time>
      </trkpt>
      <trkpt lat="46.21538" lon="6.75799">
        <ele>1191.8</ele>
        <time>2021-06-26T09:29:38Z</time>
      </trkpt>
      <trkpt lat="46.21538" lon="6.75803">
        <ele>1192.2</ele>
        <time>2021-06-26T09:29:39Z</time>
      </trkpt>
      <trkpt lat="46.21539" lon="6.75806">
        <ele>1192.6</ele>
        <time>2021-06-26T09:29:40Z</time>
      </trkpt>
      <trkpt lat="46.2154" lon="6.7581">
        <ele>1193</ele>
        <time>2021-06-26T09:29:41Z</time>
      </trkpt>
      <trkpt lat="46.21541" lon="6.75813">
        <ele>1193.2</ele>
        <time>2021-06-26T09:29:42Z</time>
      </trkpt>
      <trkpt lat="46.21542" lon="6.75817">
        <ele>1193.6</ele>
        <time>2021-06-26T09:29:43Z</time>
      </trkpt>
      <trkpt lat="46.21544" lon="6.7582">
        <ele>1193.8</ele>
        <time>2021-06-26T09:29:44Z</time>
      </trkpt>
      <trkpt lat="46.21545" lon="6.75823">
        <ele>1194</ele>
        <time>2021-06-26T09:29:45Z</time>
      </trkpt>
      <trkpt lat="46.21546" lon="6.75827">
        <ele>1194.4</ele>
        <time>2021-06-26T09:29:46Z</time>
      </trkpt>
      <trkpt lat="46.21547" lon="6.7583">
        <ele>1194.6</ele>
        <time>2021-06-26T09:29:47Z</time>
      </trkpt>
      <trkpt lat="46.21548" lon="6.75833">
        <ele>1194.8</ele>
        <time>2021-06-26T09:29:48Z</time>
      </trkpt>
      <trkpt lat="46.21549" lon="6.75837">
        <ele>1195.2</ele>
        <time>2021-06-26T09:29:49Z</time>
      </trkpt>
      <trkpt lat="46.2155" lon="6.7584">
        <ele>1195.6</ele>
        <time>2021-06-26T09:29:50Z</time>
      </trkpt>
      <trkpt lat="46.21551" lon="6.75843">
        <ele>1195.6</ele>
        <time>2021-06-26T09:29:51Z</time>
      </trkpt>
      <trkpt lat="46.21553" lon="6.75847">
        <ele>1196</ele>
        <time>2021-06-26T09:29:52Z</time>
      </trkpt>
      <trkpt lat="46.21554" lon="6.7585">
        <ele>1196.2</ele>
        <time>2021-06-26T09:29:53Z</time>
      </trkpt>
      <trkpt lat="46.21555" lon="6.75854">
        <ele>1196.4</ele>
        <time>2021-06-26T09:29:54Z</time>
      </trkpt>
      <trkpt lat="46.21556" lon="6.75857">
        <ele>1196.8</ele>
        <time>2021-06-26T09:29:55Z</time>
      </trkpt>
      <trkpt lat="46.21557" lon="6.7586">
        <ele>1197</ele>
        <time>2021-06-26T09:29:56Z</time>
      </trkpt>
      <trkpt lat="46.21558" lon="6.75864">
        <ele>1197.2</ele>
        <time>2021-06-26T09:29:57Z</time>
      </trkpt>
      <trkpt lat="46.21559" lon="6.75867">
        <ele>1197.4</ele>
        <time>2021-06-26T09:29:58Z</time>
      </trkpt>
      <trkpt lat="46.2156" lon="6.7587">
        <ele>1197.4</ele>
        <time>2021-06-26T09:29:59Z</time>
      </trkpt>
      <trkpt lat="46.21562" lon="6.75874">
        <ele>1197.6</ele>
        <time>2021-06-26T09:30:00Z</time>
      </trkpt>
      <trkpt lat="46.21563" lon="6.75877">
        <ele>1197.8</ele>
        <time>2021-06-26T09:30:01Z</time>
      </trkpt>
      <trkpt lat="46.21564" lon="6.7588">
        <ele>1198</ele>
        <time>2021-06-26T09:30:02Z</time>
      </trkpt>
      <trkpt lat="46.21565" lon="6.75884">
        <ele>1198</ele>
        <time>2021-06-26T09:30:03Z</time>
      </trkpt>
      <trkpt lat="46.21566" lon="6.75887">
        <ele>1198.4</ele>
        <time>2021-06-26T09:30:04Z</time>
      </trkpt>
      <trkpt lat="46.21567" lon="6.75891">
        <ele>1198.4</ele>
        <time>2021-06-26T09:30:05Z</time>
      </trkpt>
      <trkpt lat="46.21568" lon="6.75894">
        <ele>1198.8</ele>
        <time>2021-06-26T09:30:06Z</time>
      </trkpt>
      <trkpt lat="46.21569" lon="6.75897">
        <ele>1199</ele>
        <time>2021-06-26T09:30:07Z</time>
      </trkpt>
      <trkpt lat="46.2157" lon="6.75901">
        <ele>1199.2</ele>
        <time>2021-06-26T09:30:08Z</time>
      </trkpt>
      <trkpt lat="46.21571" lon="6.75904">
        <ele>1199.6</ele>
        <time>2021-06-26T09:30:09Z</time>
      </trkpt>
      <trkpt lat="46.21572" lon="6.75908">
        <ele>1199.8</ele>
        <time>2021-06-26T09:30:10Z</time>
      </trkpt>
      <trkpt lat="46.21573" lon="6.75911">
        <ele>1200</ele>
        <time>2021-06-26T09:30:11Z</time>
      </trkpt>
      <trkpt lat="46.21574" lon="6.75914">
        <ele>1200.2</ele>
        <time>2021-06-26T09:30:12Z</time>
      </trkpt>
      <trkpt lat="46.21575" lon="6.75918">
        <ele>1200.4</ele>
        <time>2021-06-26T09:30:13Z</time>
      </trkpt>
      <trkpt lat="46.21576" lon="6.75922">
        <ele>1200.6</ele>
        <time>2021-06-26T09:30:14Z</time>
      </trkpt>
      <trkpt lat="46.21577" lon="6.75925">
        <ele>1200.8</ele>
        <time>2021-06-26T09:30:15Z</time>
      </trkpt>
      <trkpt lat="46.21578" lon="6.75929">
        <ele>1201.2</ele>
        <time>2021-06-26T09:30:16Z</time>
      </trkpt>
      <trkpt lat="46.21578" lon="6.75932">
        <ele>1201.4</ele>
        <time>2021-06-26T09:30:17Z</time>
      </trkpt>
      <trkpt lat="46.21579" lon="6.75936">
        <ele>1201.8</ele>
        <time>2021-06-26T09:30:18Z</time>
      </trkpt>
      <trkpt lat="46.21579" lon="6.7594">
        <ele>1202.2</ele>
        <time>2021-06-26T09:30:19Z</time>
      </trkpt>
      <trkpt lat="46.2158" lon="6.75943">
        <ele>1202.4</ele>
        <time>2021-06-26T09:30:20Z</time>
      </trkpt>
      <trkpt lat="46.2158" lon="6.75946">
        <ele>1202.8</ele>
        <time>2021-06-26T09:30:21Z</time>
      </trkpt>
      <trkpt lat="46.21581" lon="6.7595">
        <ele>1202.8</ele>
        <time>2021-06-26T09:30:22Z</time>
      </trkpt>
      <trkpt lat="46.2158" lon="6.75954">
        <ele>1203.2</ele>
        <time>2021-06-26T09:30:23Z</time>
      </trkpt>
      <trkpt lat="46.2158" lon="6.75958">
        <ele>1203.4</ele>
        <time>2021-06-26T09:30:24Z</time>
      </trkpt>
      <trkpt lat="46.2158" lon="6.75961">
        <ele>1203.6</ele>
        <time>2021-06-26T09:30:25Z</time>
      </trkpt>
      <trkpt lat="46.21579" lon="6.75965">
        <ele>1203.8</ele>
        <time>2021-06-26T09:30:26Z</time>
      </trkpt>
      <trkpt lat="46.21579" lon="6.75968">
        <ele>1204</ele>
        <time>2021-06-26T09:30:27Z</time>
      </trkpt>
      <trkpt lat="46.21578" lon="6.75972">
        <ele>1204.2</ele>
        <time>2021-06-26T09:30:28Z</time>
      </trkpt>
      <trkpt lat="46.21577" lon="6.75975">
        <ele>1204.6</ele>
        <time>2021-06-26T09:30:29Z</time>
      </trkpt>
      <trkpt lat="46.21576" lon="6.75978">
        <ele>1204.8</ele>
        <time>2021-06-26T09:30:30Z</time>
      </trkpt>
      <trkpt lat="46.21575" lon="6.75981">
        <ele>1204.8</ele>
        <time>2021-06-26T09:30:31Z</time>
      </trkpt>
      <trkpt lat="46.21575" lon="6.75984">
        <ele>1205.2</ele>
        <time>2021-06-26T09:30:32Z</time>
      </trkpt>
      <trkpt lat="46.21574" lon="6.75987">
        <ele>1205.6</ele>
        <time>2021-06-26T09:30:33Z</time>
      </trkpt>
      <trkpt lat="46.21573" lon="6.7599">
        <ele>1205.8</ele>
        <time>2021-06-26T09:30:34Z</time>
      </trkpt>
      <trkpt lat="46.21572" lon="6.75993">
        <ele>1206</ele>
        <time>2021-06-26T09:30:35Z</time>
      </trkpt>
      <trkpt lat="46.21571" lon="6.75996">
        <ele>1206.2</ele>
        <time>2021-06-26T09:30:36Z</time>
      </trkpt>
      <trkpt lat="46.2157" lon="6.76">
        <ele>1206.6</ele>
        <time>2021-06-26T09:30:37Z</time>
      </trkpt>
      <trkpt lat="46.2157" lon="6.76003">
        <ele>1206.8</ele>
        <time>2021-06-26T09:30:38Z</time>
      </trkpt>
      <trkpt lat="46.21569" lon="6.76006">
        <ele>1207</ele>
        <time>2021-06-26T09:30:39Z</time>
      </trkpt>
      <trkpt lat="46.21568" lon="6.76009">
        <ele>1207.2</ele>
        <time>2021-06-26T09:30:40Z</time>
      </trkpt>
      <trkpt lat="46.21568" lon="6.76012">
        <ele>1207.6</ele>
        <time>2021-06-26T09:30:41Z</time>
      </trkpt>
      <trkpt lat="46.21567" lon="6.76015">
        <ele>1207.8</ele>
        <time>2021-06-26T09:30:42Z</time>
      </trkpt>
      <trkpt lat="46.21566" lon="6.76018">
        <ele>1208</ele>
        <time>2021-06-26T09:30:43Z</time>
      </trkpt>
      <trkpt lat="46.21566" lon="6.76022">
        <ele>1208</ele>
        <time>2021-06-26T09:30:44Z</time>
      </trkpt>
      <trkpt lat="46.21566" lon="6.76026">
        <ele>1208.2</ele>
        <time>2021-06-26T09:30:45Z</time>
      </trkpt>
      <trkpt lat="46.21566" lon="6.76029">
        <ele>1208.4</ele>
        <time>2021-06-26T09:30:46Z</time>
      </trkpt>
      <trkpt lat="46.21565" lon="6.76032">
        <ele>1208.6</ele>
        <time>2021-06-26T09:30:47Z</time>
      </trkpt>
      <trkpt lat="46.21564" lon="6.76036">
        <ele>1209</ele>
        <time>2021-06-26T09:30:48Z</time>
      </trkpt>
      <trkpt lat="46.21563" lon="6.76039">
        <ele>1209.2</ele>
        <time>2021-06-26T09:30:49Z</time>
      </trkpt>
      <trkpt lat="46.21562" lon="6.76042">
        <ele>1209.4</ele>
        <time>2021-06-26T09:30:50Z</time>
      </trkpt>
      <trkpt lat="46.21561" lon="6.76046">
        <ele>1209.6</ele>
        <time>2021-06-26T09:30:51Z</time>
      </trkpt>
      <trkpt lat="46.2156" lon="6.76049">
        <ele>1209.8</ele>
        <time>2021-06-26T09:30:52Z</time>
      </trkpt>
      <trkpt lat="46.21559" lon="6.76053">
        <ele>1210.2</ele>
        <time>2021-06-26T09:30:53Z</time>
      </trkpt>
      <trkpt lat="46.21558" lon="6.76057">
        <ele>1210.2</ele>
        <time>2021-06-26T09:30:54Z</time>
      </trkpt>
      <trkpt lat="46.21556" lon="6.7606">
        <ele>1210.6</ele>
        <time>2021-06-26T09:30:55Z</time>
      </trkpt>
      <trkpt lat="46.21555" lon="6.76063">
        <ele>1210.8</ele>
        <time>2021-06-26T09:30:56Z</time>
      </trkpt>
      <trkpt lat="46.21554" lon="6.76067">
        <ele>1211</ele>
        <time>2021-06-26T09:30:57Z</time>
      </trkpt>
      <trkpt lat="46.21554" lon="6.76069">
        <ele>1211.4</ele>
        <time>2021-06-26T09:30:58Z</time>
      </trkpt>
      <trkpt lat="46.21553" lon="6.76072">
        <ele>1211.8</ele>
        <time>2021-06-26T09:30:59Z</time>
      </trkpt>
      <trkpt lat="46.21551" lon="6.76074">
        <ele>1212</ele>
        <time>2021-06-26T09:31:00Z</time>
      </trkpt>
      <trkpt lat="46.2155" lon="6.76077">
        <ele>1212.4</ele>
        <time>2021-06-26T09:31:01Z</time>
      </trkpt>
      <trkpt lat="46.21549" lon="6.76079">
        <ele>1212.6</ele>
        <time>2021-06-26T09:31:02Z</time>
      </trkpt>
      <trkpt lat="46.21549" lon="6.76083">
        <ele>1213</ele>
        <time>2021-06-26T09:31:03Z</time>
      </trkpt>
      <trkpt lat="46.21549" lon="6.76086">
        <ele>1213.2</ele>
        <time>2021-06-26T09:31:04Z</time>
      </trkpt>
      <trkpt lat="46.2155" lon="6.7609">
        <ele>1213.6</ele>
        <time>2021-06-26T09:31:05Z</time>
      </trkpt>
      <trkpt lat="46.21551" lon="6.76093">
        <ele>1213.8</ele>
        <time>2021-06-26T09:31:06Z</time>
      </trkpt>
      <trkpt lat="46.21551" lon="6.76096">
        <ele>1213.8</ele>
        <time>2021-06-26T09:31:07Z</time>
      </trkpt>
      <trkpt lat="46.21552" lon="6.76099">
        <ele>1214</ele>
        <time>2021-06-26T09:31:08Z</time>
      </trkpt>
      <trkpt lat="46.21552" lon="6.76102">
        <ele>1214.2</ele>
        <time>2021-06-26T09:31:09Z</time>
      </trkpt>
      <trkpt lat="46.21552" lon="6.76105">
        <ele>1214.4</ele>
        <time>2021-06-26T09:31:10Z</time>
      </trkpt>
      <trkpt lat="46.21553" lon="6.76108">
        <ele>1214.8</ele>
        <time>2021-06-26T09:31:11Z</time>
      </trkpt>
      <trkpt lat="46.21554" lon="6.76111">
        <ele>1214.8</ele>
        <time>2021-06-26T09:31:12Z</time>
      </trkpt>
      <trkpt lat="46.21554" lon="6.76114">
        <ele>1215</ele>
        <time>2021-06-26T09:31:13Z</time>
      </trkpt>
      <trkpt lat="46.21554" lon="6.76117">
        <ele>1215.2</ele>
        <time>2021-06-26T09:31:14Z</time>
      </trkpt>
      <trkpt lat="46.21554" lon="6.76119">
        <ele>1215.4</ele>
        <time>2021-06-26T09:31:15Z</time>
      </trkpt>
      <trkpt lat="46.21554" lon="6.76121">
        <ele>1215.6</ele>
        <time>2021-06-26T09:31:16Z</time>
      </trkpt>
      <trkpt lat="46.21554" lon="6.76123">
        <ele>1215.6</ele>
        <time>2021-06-26T09:31:17Z</time>
      </trkpt>
      <trkpt lat="46.21554" lon="6.76125">
        <ele>1215.8</ele>
        <time>2021-06-26T09:31:18Z</time>
      </trkpt>
      <trkpt lat="46.21554" lon="6.76127">
        <ele>1216.2</ele>
        <time>2021-06-26T09:31:19Z</time>
      </trkpt>
      <trkpt lat="46.21553" lon="6.7613">
        <ele>1216.2</ele>
        <time>2021-06-26T09:31:20Z</time>
      </trkpt>
      <trkpt lat="46.21553" lon="6.76134">
        <ele>1216.6</ele>
        <time>2021-06-26T09:31:21Z</time>
      </trkpt>
      <trkpt lat="46.21552" lon="6.76137">
        <ele>1217</ele>
        <time>2021-06-26T09:31:22Z</time>
      </trkpt>
      <trkpt lat="46.21551" lon="6.7614">
        <ele>1217.2</ele>
        <time>2021-06-26T09:31:23Z</time>
      </trkpt>
      <trkpt lat="46.2155" lon="6.76143">
        <ele>1217.4</ele>
        <time>2021-06-26T09:31:24Z</time>
      </trkpt>
      <trkpt lat="46.21549" lon="6.76146">
        <ele>1217.8</ele>
        <time>2021-06-26T09:31:25Z</time>
      </trkpt>
      <trkpt lat="46.21548" lon="6.7615">
        <ele>1217.8</ele>
        <time>2021-06-26T09:31:26Z</time>
      </trkpt>
      <trkpt lat="46.21547" lon="6.76153">
        <ele>1218.2</ele>
        <time>2021-06-26T09:31:27Z</time>
      </trkpt>
      <trkpt lat="46.21546" lon="6.76157">
        <ele>1218.6</ele>
        <time>2021-06-26T09:31:28Z</time>
      </trkpt>
      <trkpt lat="46.21545" lon="6.76161">
        <ele>1218.8</ele>
        <time>2021-06-26T09:31:29Z</time>
      </trkpt>
      <trkpt lat="46.21543" lon="6.76164">
        <ele>1218.8</ele>
        <time>2021-06-26T09:31:30Z</time>
      </trkpt>
      <trkpt lat="46.21542" lon="6.76167">
        <ele>1219</ele>
        <time>2021-06-26T09:31:31Z</time>
      </trkpt>
      <trkpt lat="46.21541" lon="6.76171">
        <ele>1219.2</ele>
        <time>2021-06-26T09:31:32Z</time>
      </trkpt>
      <trkpt lat="46.2154" lon="6.76174">
        <ele>1219.4</ele>
        <time>2021-06-26T09:31:33Z</time>
      </trkpt>
      <trkpt lat="46.21538" lon="6.76177">
        <ele>1219.8</ele>
        <time>2021-06-26T09:31:34Z</time>
      </trkpt>
      <trkpt lat="46.21537" lon="6.7618">
        <ele>1220</ele>
        <time>2021-06-26T09:31:35Z</time>
      </trkpt>
      <trkpt lat="46.21536" lon="6.76184">
        <ele>1220.2</ele>
        <time>2021-06-26T09:31:36Z</time>
      </trkpt>
      <trkpt lat="46.21535" lon="6.76187">
        <ele>1220.4</ele>
        <time>2021-06-26T09:31:37Z</time>
      </trkpt>
      <trkpt lat="46.21534" lon="6.76191">
        <ele>1220.6</ele>
        <time>2021-06-26T09:31:38Z</time>
      </trkpt>
      <trkpt lat="46.21533" lon="6.76195">
        <ele>1221</ele>
        <time>2021-06-26T09:31:39Z</time>
      </trkpt>
      <trkpt lat="46.21531" lon="6.76198">
        <ele>1221.2</ele>
        <time>2021-06-26T09:31:40Z</time>
      </trkpt>
      <trkpt lat="46.2153" lon="6.76201">
        <ele>1221.4</ele>
        <time>2021-06-26T09:31:41Z</time>
      </trkpt>
      <trkpt lat="46.21529" lon="6.76204">
        <ele>1221.8</ele>
        <time>2021-06-26T09:31:42Z</time>
      </trkpt>
      <trkpt lat="46.21527" lon="6.76207">
        <ele>1222</ele>
        <time>2021-06-26T09:31:43Z</time>
      </trkpt>
      <trkpt lat="46.21526" lon="6.7621">
        <ele>1222.2</ele>
        <time>2021-06-26T09:31:44Z</time>
      </trkpt>
      <trkpt lat="46.21524" lon="6.76213">
        <ele>1222.4</ele>
        <time>2021-06-26T09:31:45Z</time>
      </trkpt>
      <trkpt lat="46.21524" lon="6.76217">
        <ele>1222.6</ele>
        <time>2021-06-26T09:31:46Z</time>
      </trkpt>
      <trkpt lat="46.21522" lon="6.7622">
        <ele>1222.8</ele>
        <time>2021-06-26T09:31:47Z</time>
      </trkpt>
      <trkpt lat="46.21522" lon="6.76224">
        <ele>1223</ele>
        <time>2021-06-26T09:31:48Z</time>
      </trkpt>
      <trkpt lat="46.21522" lon="6.76228">
        <ele>1223.4</ele>
        <time>2021-06-26T09:31:49Z</time>
      </trkpt>
      <trkpt lat="46.21522" lon="6.76232">
        <ele>1223.4</ele>
        <time>2021-06-26T09:31:50Z</time>
      </trkpt>
      <trkpt lat="46.21522" lon="6.76236">
        <ele>1223.8</ele>
        <time>2021-06-26T09:31:51Z</time>
      </trkpt>
      <trkpt lat="46.21522" lon="6.7624">
        <ele>1223.8</ele>
        <time>2021-06-26T09:31:52Z</time>
      </trkpt>
      <trkpt lat="46.21521" lon="6.76245">
        <ele>1223.8</ele>
        <time>2021-06-26T09:31:53Z</time>
      </trkpt>
      <trkpt lat="46.21522" lon="6.76249">
        <ele>1224.2</ele>
        <time>2021-06-26T09:31:54Z</time>
      </trkpt>
      <trkpt lat="46.21521" lon="6.76253">
        <ele>1224.4</ele>
        <time>2021-06-26T09:31:55Z</time>
      </trkpt>
      <trkpt lat="46.21522" lon="6.76258">
        <ele>1224.6</ele>
        <time>2021-06-26T09:31:56Z</time>
      </trkpt>
      <trkpt lat="46.21521" lon="6.76262">
        <ele>1224.8</ele>
        <time>2021-06-26T09:31:57Z</time>
      </trkpt>
      <trkpt lat="46.21521" lon="6.76266">
        <ele>1224.8</ele>
        <time>2021-06-26T09:31:58Z</time>
      </trkpt>
      <trkpt lat="46.21521" lon="6.7627">
        <ele>1225.2</ele>
        <time>2021-06-26T09:31:59Z</time>
      </trkpt>
      <trkpt lat="46.2152" lon="6.76274">
        <ele>1225.4</ele>
        <time>2021-06-26T09:32:00Z</time>
      </trkpt>
      <trkpt lat="46.21519" lon="6.76277">
        <ele>1225.6</ele>
        <time>2021-06-26T09:32:01Z</time>
      </trkpt>
      <trkpt lat="46.21519" lon="6.76282">
        <ele>1225.6</ele>
        <time>2021-06-26T09:32:02Z</time>
      </trkpt>
      <trkpt lat="46.21518" lon="6.76286">
        <ele>1225.8</ele>
        <time>2021-06-26T09:32:03Z</time>
      </trkpt>
      <trkpt lat="46.21517" lon="6.76291">
        <ele>1226.2</ele>
        <time>2021-06-26T09:32:04Z</time>
      </trkpt>
      <trkpt lat="46.21517" lon="6.76295">
        <ele>1226.4</ele>
        <time>2021-06-26T09:32:05Z</time>
      </trkpt>
      <trkpt lat="46.21517" lon="6.763">
        <ele>1226.6</ele>
        <time>2021-06-26T09:32:06Z</time>
      </trkpt>
      <trkpt lat="46.21517" lon="6.76304">
        <ele>1227</ele>
        <time>2021-06-26T09:32:07Z</time>
      </trkpt>
      <trkpt lat="46.21516" lon="6.76308">
        <ele>1227.4</ele>
        <time>2021-06-26T09:32:08Z</time>
      </trkpt>
      <trkpt lat="46.21515" lon="6.76312">
        <ele>1227.6</ele>
        <time>2021-06-26T09:32:09Z</time>
      </trkpt>
      <trkpt lat="46.21514" lon="6.76315">
        <ele>1227.8</ele>
        <time>2021-06-26T09:32:10Z</time>
      </trkpt>
      <trkpt lat="46.21513" lon="6.76319">
        <ele>1228</ele>
        <time>2021-06-26T09:32:11Z</time>
      </trkpt>
      <trkpt lat="46.21512" lon="6.76322">
        <ele>1228.2</ele>
        <time>2021-06-26T09:32:12Z</time>
      </trkpt>
      <trkpt lat="46.21511" lon="6.76326">
        <ele>1228.2</ele>
        <time>2021-06-26T09:32:13Z</time>
      </trkpt>
      <trkpt lat="46.2151" lon="6.7633">
        <ele>1228.4</ele>
        <time>2021-06-26T09:32:14Z</time>
      </trkpt>
      <trkpt lat="46.21509" lon="6.76333">
        <ele>1228.8</ele>
        <time>2021-06-26T09:32:15Z</time>
      </trkpt>
      <trkpt lat="46.21508" lon="6.76337">
        <ele>1228.8</ele>
        <time>2021-06-26T09:32:16Z</time>
      </trkpt>
      <trkpt lat="46.21507" lon="6.7634">
        <ele>1228.8</ele>
        <time>2021-06-26T09:32:17Z</time>
      </trkpt>
      <trkpt lat="46.21505" lon="6.76344">
        <ele>1229</ele>
        <time>2021-06-26T09:32:18Z</time>
      </trkpt>
      <trkpt lat="46.21504" lon="6.76348">
        <ele>1229.4</ele>
        <time>2021-06-26T09:32:19Z</time>
      </trkpt>
      <trkpt lat="46.21502" lon="6.76351">
        <ele>1229.8</ele>
        <time>2021-06-26T09:32:20Z</time>
      </trkpt>
      <trkpt lat="46.215" lon="6.76354">
        <ele>1230</ele>
        <time>2021-06-26T09:32:21Z</time>
      </trkpt>
      <trkpt lat="46.21498" lon="6.76357">
        <ele>1230.2</ele>
        <time>2021-06-26T09:32:22Z</time>
      </trkpt>
      <trkpt lat="46.21496" lon="6.7636">
        <ele>1230.4</ele>
        <time>2021-06-26T09:32:23Z</time>
      </trkpt>
      <trkpt lat="46.21494" lon="6.76364">
        <ele>1230.8</ele>
        <time>2021-06-26T09:32:24Z</time>
      </trkpt>
      <trkpt lat="46.21493" lon="6.76367">
        <ele>1231</ele>
        <time>2021-06-26T09:32:25Z</time>
      </trkpt>
      <trkpt lat="46.21491" lon="6.7637">
        <ele>1231</ele>
        <time>2021-06-26T09:32:26Z</time>
      </trkpt>
      <trkpt lat="46.2149" lon="6.76374">
        <ele>1231.2</ele>
        <time>2021-06-26T09:32:27Z</time>
      </trkpt>
      <trkpt lat="46.21488" lon="6.76376">
        <ele>1231.4</ele>
        <time>2021-06-26T09:32:28Z</time>
      </trkpt>
      <trkpt lat="46.21486" lon="6.76379">
        <ele>1231.8</ele>
        <time>2021-06-26T09:32:29Z</time>
      </trkpt>
      <trkpt lat="46.21485" lon="6.76382">
        <ele>1232.2</ele>
        <time>2021-06-26T09:32:30Z</time>
      </trkpt>
      <trkpt lat="46.21483" lon="6.76384">
        <ele>1232.6</ele>
        <time>2021-06-26T09:32:31Z</time>
      </trkpt>
      <trkpt lat="46.21481" lon="6.76388">
        <ele>1232.6</ele>
        <time>2021-06-26T09:32:32Z</time>
      </trkpt>
      <trkpt lat="46.2148" lon="6.7639">
        <ele>1232.8</ele>
        <time>2021-06-26T09:32:33Z</time>
      </trkpt>
      <trkpt lat="46.21478" lon="6.76393">
        <ele>1233</ele>
        <time>2021-06-26T09:32:34Z</time>
      </trkpt>
      <trkpt lat="46.21477" lon="6.76396">
        <ele>1233</ele>
        <time>2021-06-26T09:32:35Z</time>
      </trkpt>
      <trkpt lat="46.21476" lon="6.76399">
        <ele>1233.4</ele>
        <time>2021-06-26T09:32:36Z</time>
      </trkpt>
      <trkpt lat="46.21474" lon="6.76402">
        <ele>1233.6</ele>
        <time>2021-06-26T09:32:37Z</time>
      </trkpt>
      <trkpt lat="46.21474" lon="6.76406">
        <ele>1233.6</ele>
        <time>2021-06-26T09:32:38Z</time>
      </trkpt>
      <trkpt lat="46.21473" lon="6.7641">
        <ele>1233.8</ele>
        <time>2021-06-26T09:32:39Z</time>
      </trkpt>
      <trkpt lat="46.21472" lon="6.76414">
        <ele>1234</ele>
        <time>2021-06-26T09:32:40Z</time>
      </trkpt>
      <trkpt lat="46.21471" lon="6.76417">
        <ele>1234.4</ele>
        <time>2021-06-26T09:32:41Z</time>
      </trkpt>
      <trkpt lat="46.2147" lon="6.7642">
        <ele>1234.6</ele>
        <time>2021-06-26T09:32:42Z</time>
      </trkpt>
      <trkpt lat="46.21468" lon="6.76423">
        <ele>1234.6</ele>
        <time>2021-06-26T09:32:43Z</time>
      </trkpt>
      <trkpt lat="46.21467" lon="6.76427">
        <ele>1235</ele>
        <time>2021-06-26T09:32:44Z</time>
      </trkpt>
      <trkpt lat="46.21466" lon="6.76431">
        <ele>1235.2</ele>
        <time>2021-06-26T09:32:45Z</time>
      </trkpt>
      <trkpt lat="46.21464" lon="6.76434">
        <ele>1235.2</ele>
        <time>2021-06-26T09:32:46Z</time>
      </trkpt>
      <trkpt lat="46.21462" lon="6.76437">
        <ele>1235.6</ele>
        <time>2021-06-26T09:32:47Z</time>
      </trkpt>
      <trkpt lat="46.21461" lon="6.76439">
        <ele>1235.8</ele>
        <time>2021-06-26T09:32:48Z</time>
      </trkpt>
      <trkpt lat="46.21459" lon="6.76442">
        <ele>1236</ele>
        <time>2021-06-26T09:32:49Z</time>
      </trkpt>
      <trkpt lat="46.21457" lon="6.76445">
        <ele>1236.4</ele>
        <time>2021-06-26T09:32:50Z</time>
      </trkpt>
      <trkpt lat="46.21456" lon="6.76448">
        <ele>1236.6</ele>
        <time>2021-06-26T09:32:51Z</time>
      </trkpt>
      <trkpt lat="46.21454" lon="6.7645">
        <ele>1236.8</ele>
        <time>2021-06-26T09:32:52Z</time>
      </trkpt>
      <trkpt lat="46.21452" lon="6.76453">
        <ele>1237</ele>
        <time>2021-06-26T09:32:53Z</time>
      </trkpt>
      <trkpt lat="46.2145" lon="6.76456">
        <ele>1237</ele>
        <time>2021-06-26T09:32:54Z</time>
      </trkpt>
      <trkpt lat="46.21449" lon="6.76459">
        <ele>1237.4</ele>
        <time>2021-06-26T09:32:55Z</time>
      </trkpt>
      <trkpt lat="46.21447" lon="6.76462">
        <ele>1237.6</ele>
        <time>2021-06-26T09:32:56Z</time>
      </trkpt>
      <trkpt lat="46.21446" lon="6.76465">
        <ele>1237.6</ele>
        <time>2021-06-26T09:32:57Z</time>
      </trkpt>
      <trkpt lat="46.21444" lon="6.76468">
        <ele>1238</ele>
        <time>2021-06-26T09:32:58Z</time>
      </trkpt>
      <trkpt lat="46.21443" lon="6.76471">
        <ele>1238.4</ele>
        <time>2021-06-26T09:32:59Z</time>
      </trkpt>
      <trkpt lat="46.21443" lon="6.76474">
        <ele>1238.4</ele>
        <time>2021-06-26T09:33:00Z</time>
      </trkpt>
      <trkpt lat="46.21441" lon="6.76476">
        <ele>1238.4</ele>
        <time>2021-06-26T09:33:01Z</time>
      </trkpt>
      <trkpt lat="46.2144" lon="6.7648">
        <ele>1238.6</ele>
        <time>2021-06-26T09:33:02Z</time>
      </trkpt>
      <trkpt lat="46.21439" lon="6.76483">
        <ele>1239</ele>
        <time>2021-06-26T09:33:03Z</time>
      </trkpt>
      <trkpt lat="46.21437" lon="6.76486">
        <ele>1239</ele>
        <time>2021-06-26T09:33:04Z</time>
      </trkpt>
      <trkpt lat="46.21436" lon="6.76489">
        <ele>1239.4</ele>
        <time>2021-06-26T09:33:05Z</time>
      </trkpt>
      <trkpt lat="46.21434" lon="6.76492">
        <ele>1239.6</ele>
        <time>2021-06-26T09:33:06Z</time>
      </trkpt>
      <trkpt lat="46.21433" lon="6.76495">
        <ele>1239.8</ele>
        <time>2021-06-26T09:33:07Z</time>
      </trkpt>
      <trkpt lat="46.21431" lon="6.76498">
        <ele>1240</ele>
        <time>2021-06-26T09:33:08Z</time>
      </trkpt>
      <trkpt lat="46.2143" lon="6.76501">
        <ele>1240.2</ele>
        <time>2021-06-26T09:33:09Z</time>
      </trkpt>
      <trkpt lat="46.21429" lon="6.76503">
        <ele>1240.4</ele>
        <time>2021-06-26T09:33:10Z</time>
      </trkpt>
      <trkpt lat="46.21428" lon="6.76506">
        <ele>1240.6</ele>
        <time>2021-06-26T09:33:11Z</time>
      </trkpt>
      <trkpt lat="46.21426" lon="6.76509">
        <ele>1240.8</ele>
        <time>2021-06-26T09:33:12Z</time>
      </trkpt>
      <trkpt lat="46.21425" lon="6.76512">
        <ele>1241</ele>
        <time>2021-06-26T09:33:13Z</time>
      </trkpt>
      <trkpt lat="46.21424" lon="6.76515">
        <ele>1241.4</ele>
        <time>2021-06-26T09:33:14Z</time>
      </trkpt>
      <trkpt lat="46.21423" lon="6.76517">
        <ele>1241.4</ele>
        <time>2021-06-26T09:33:15Z</time>
      </trkpt>
      <trkpt lat="46.21422" lon="6.76521">
        <ele>1241.8</ele>
        <time>2021-06-26T09:33:16Z</time>
      </trkpt>
      <trkpt lat="46.21422" lon="6.76524">
        <ele>1242</ele>
        <time>2021-06-26T09:33:17Z</time>
      </trkpt>
      <trkpt lat="46.21421" lon="6.76527">
        <ele>1242.2</ele>
        <time>2021-06-26T09:33:18Z</time>
      </trkpt>
      <trkpt lat="46.2142" lon="6.7653">
        <ele>1242.4</ele>
        <time>2021-06-26T09:33:19Z</time>
      </trkpt>
      <trkpt lat="46.21418" lon="6.76533">
        <ele>1242.6</ele>
        <time>2021-06-26T09:33:20Z</time>
      </trkpt>
      <trkpt lat="46.21417" lon="6.76536">
        <ele>1243.2</ele>
        <time>2021-06-26T09:33:21Z</time>
      </trkpt>
      <trkpt lat="46.21415" lon="6.76539">
        <ele>1243.4</ele>
        <time>2021-06-26T09:33:22Z</time>
      </trkpt>
      <trkpt lat="46.21414" lon="6.76542">
        <ele>1243.6</ele>
        <time>2021-06-26T09:33:23Z</time>
      </trkpt>
      <trkpt lat="46.21412" lon="6.76544">
        <ele>1243.6</ele>
        <time>2021-06-26T09:33:24Z</time>
      </trkpt>
      <trkpt lat="46.2141" lon="6.76547">
        <ele>1243.8</ele>
        <time>2021-06-26T09:33:25Z</time>
      </trkpt>
      <trkpt lat="46.21408" lon="6.76549">
        <ele>1244</ele>
        <time>2021-06-26T09:33:26Z</time>
      </trkpt>
      <trkpt lat="46.21407" lon="6.76552">
        <ele>1244.4</ele>
        <time>2021-06-26T09:33:27Z</time>
      </trkpt>
      <trkpt lat="46.21404" lon="6.76554">
        <ele>1244.4</ele>
        <time>2021-06-26T09:33:28Z</time>
      </trkpt>
      <trkpt lat="46.21402" lon="6.76556">
        <ele>1244.6</ele>
        <time>2021-06-26T09:33:29Z</time>
      </trkpt>
      <trkpt lat="46.21401" lon="6.76559">
        <ele>1244.6</ele>
        <time>2021-06-26T09:33:30Z</time>
      </trkpt>
      <trkpt lat="46.21399" lon="6.76562">
        <ele>1245</ele>
        <time>2021-06-26T09:33:31Z</time>
      </trkpt>
      <trkpt lat="46.21397" lon="6.76565">
        <ele>1245.2</ele>
        <time>2021-06-26T09:33:32Z</time>
      </trkpt>
      <trkpt lat="46.21395" lon="6.76567">
        <ele>1245.8</ele>
        <time>2021-06-26T09:33:33Z</time>
      </trkpt>
      <trkpt lat="46.21393" lon="6.76569">
        <ele>1246</ele>
        <time>2021-06-26T09:33:34Z</time>
      </trkpt>
      <trkpt lat="46.21391" lon="6.76572">
        <ele>1246.4</ele>
        <time>2021-06-26T09:33:35Z</time>
      </trkpt>
      <trkpt lat="46.21389" lon="6.76575">
        <ele>1246.6</ele>
        <time>2021-06-26T09:33:36Z</time>
      </trkpt>
      <trkpt lat="46.21387" lon="6.76578">
        <ele>1246.8</ele>
        <time>2021-06-26T09:33:37Z</time>
      </trkpt>
      <trkpt lat="46.21385" lon="6.7658">
        <ele>1247</ele>
        <time>2021-06-26T09:33:38Z</time>
      </trkpt>
      <trkpt lat="46.21383" lon="6.76583">
        <ele>1247.2</ele>
        <time>2021-06-26T09:33:39Z</time>
      </trkpt>
      <trkpt lat="46.2138" lon="6.76584">
        <ele>1247.4</ele>
        <time>2021-06-26T09:33:40Z</time>
      </trkpt>
      <trkpt lat="46.21378" lon="6.76586">
        <ele>1247.4</ele>
        <time>2021-06-26T09:33:41Z</time>
      </trkpt>
      <trkpt lat="46.21375" lon="6.76589">
        <ele>1247.8</ele>
        <time>2021-06-26T09:33:42Z</time>
      </trkpt>
      <trkpt lat="46.21372" lon="6.76591">
        <ele>1248</ele>
        <time>2021-06-26T09:33:43Z</time>
      </trkpt>
      <trkpt lat="46.21369" lon="6.76594">
        <ele>1248</ele>
        <time>2021-06-26T09:33:44Z</time>
      </trkpt>
      <trkpt lat="46.21368" lon="6.76598">
        <ele>1248.4</ele>
        <time>2021-06-26T09:33:45Z</time>
      </trkpt>
      <trkpt lat="46.21367" lon="6.76602">
        <ele>1248.4</ele>
        <time>2021-06-26T09:33:46Z</time>
      </trkpt>
      <trkpt lat="46.21367" lon="6.76605">
        <ele>1248.4</ele>
        <time>2021-06-26T09:33:47Z</time>
      </trkpt>
      <trkpt lat="46.21368" lon="6.76609">
        <ele>1248.6</ele>
        <time>2021-06-26T09:33:48Z</time>
      </trkpt>
      <trkpt lat="46.2137" lon="6.76611">
        <ele>1248.6</ele>
        <time>2021-06-26T09:33:49Z</time>
      </trkpt>
      <trkpt lat="46.21372" lon="6.76612">
        <ele>1248.6</ele>
        <time>2021-06-26T09:33:50Z</time>
      </trkpt>
      <trkpt lat="46.21374" lon="6.76612">
        <ele>1248.8</ele>
        <time>2021-06-26T09:33:51Z</time>
      </trkpt>
      <trkpt lat="46.21376" lon="6.76611">
        <ele>1249</ele>
        <time>2021-06-26T09:33:52Z</time>
      </trkpt>
      <trkpt lat="46.21378" lon="6.76609">
        <ele>1249</ele>
        <time>2021-06-26T09:33:53Z</time>
      </trkpt>
      <trkpt lat="46.2138" lon="6.76607">
        <ele>1249</ele>
        <time>2021-06-26T09:33:54Z</time>
      </trkpt>
      <trkpt lat="46.21382" lon="6.76605">
        <ele>1249.2</ele>
        <time>2021-06-26T09:33:55Z</time>
      </trkpt>
      <trkpt lat="46.21384" lon="6.76602">
        <ele>1249.6</ele>
        <time>2021-06-26T09:33:56Z</time>
      </trkpt>
      <trkpt lat="46.21385" lon="6.76599">
        <ele>1249.8</ele>
        <time>2021-06-26T09:33:57Z</time>
      </trkpt>
      <trkpt lat="46.21387" lon="6.76595">
        <ele>1250</ele>
        <time>2021-06-26T09:33:58Z</time>
      </trkpt>
      <trkpt lat="46.21389" lon="6.76593">
        <ele>1250.4</ele>
        <time>2021-06-26T09:33:59Z</time>
      </trkpt>
      <trkpt lat="46.21391" lon="6.76591">
        <ele>1250.4</ele>
        <time>2021-06-26T09:34:00Z</time>
      </trkpt>
      <trkpt lat="46.21392" lon="6.76588">
        <ele>1250.6</ele>
        <time>2021-06-26T09:34:01Z</time>
      </trkpt>
      <trkpt lat="46.21394" lon="6.76586">
        <ele>1251</ele>
        <time>2021-06-26T09:34:02Z</time>
      </trkpt>
      <trkpt lat="46.21396" lon="6.76583">
        <ele>1251.2</ele>
        <time>2021-06-26T09:34:03Z</time>
      </trkpt>
      <trkpt lat="46.21398" lon="6.76581">
        <ele>1251.2</ele>
        <time>2021-06-26T09:34:04Z</time>
      </trkpt>
      <trkpt lat="46.214" lon="6.76579">
        <ele>1251.4</ele>
        <time>2021-06-26T09:34:05Z</time>
      </trkpt>
      <trkpt lat="46.21402" lon="6.76577">
        <ele>1251.6</ele>
        <time>2021-06-26T09:34:06Z</time>
      </trkpt>
      <trkpt lat="46.21404" lon="6.76575">
        <ele>1252</ele>
        <time>2021-06-26T09:34:07Z</time>
      </trkpt>
      <trkpt lat="46.21406" lon="6.76574">
        <ele>1252.2</ele>
        <time>2021-06-26T09:34:08Z</time>
      </trkpt>
      <trkpt lat="46.21408" lon="6.76572">
        <ele>1252.6</ele>
        <time>2021-06-26T09:34:09Z</time>
      </trkpt>
      <trkpt lat="46.21409" lon="6.7657">
        <ele>1252.6</ele>
        <time>2021-06-26T09:34:10Z</time>
      </trkpt>
      <trkpt lat="46.21411" lon="6.76567">
        <ele>1252.6</ele>
        <time>2021-06-26T09:34:11Z</time>
      </trkpt>
      <trkpt lat="46.21412" lon="6.76565">
        <ele>1253</ele>
        <time>2021-06-26T09:34:12Z</time>
      </trkpt>
      <trkpt lat="46.21414" lon="6.76562">
        <ele>1253.2</ele>
        <time>2021-06-26T09:34:13Z</time>
      </trkpt>
      <trkpt lat="46.21416" lon="6.76561">
        <ele>1253.4</ele>
        <time>2021-06-26T09:34:14Z</time>
      </trkpt>
      <trkpt lat="46.21418" lon="6.7656">
        <ele>1253.8</ele>
        <time>2021-06-26T09:34:15Z</time>
      </trkpt>
      <trkpt lat="46.2142" lon="6.76559">
        <ele>1254</ele>
        <time>2021-06-26T09:34:16Z</time>
      </trkpt>
      <trkpt lat="46.21422" lon="6.76557">
        <ele>1254.2</ele>
        <time>2021-06-26T09:34:17Z</time>
      </trkpt>
      <trkpt lat="46.21424" lon="6.76556">
        <ele>1254.4</ele>
        <time>2021-06-26T09:34:18Z</time>
      </trkpt>
      <trkpt lat="46.21426" lon="6.76556">
        <ele>1254.6</ele>
        <time>2021-06-26T09:34:19Z</time>
      </trkpt>
      <trkpt lat="46.21428" lon="6.76555">
        <ele>1255</ele>
        <time>2021-06-26T09:34:20Z</time>
      </trkpt>
      <trkpt lat="46.2143" lon="6.76553">
        <ele>1255.2</ele>
        <time>2021-06-26T09:34:21Z</time>
      </trkpt>
      <trkpt lat="46.21431" lon="6.76552">
        <ele>1255.6</ele>
        <time>2021-06-26T09:34:22Z</time>
      </trkpt>
      <trkpt lat="46.21433" lon="6.76551">
        <ele>1255.8</ele>
        <time>2021-06-26T09:34:23Z</time>
      </trkpt>
      <trkpt lat="46.21435" lon="6.76551">
        <ele>1256.2</ele>
        <time>2021-06-26T09:34:24Z</time>
      </trkpt>
      <trkpt lat="46.21438" lon="6.7655">
        <ele>1256.2</ele>
        <time>2021-06-26T09:34:25Z</time>
      </trkpt>
      <trkpt lat="46.21439" lon="6.76544">
        <ele>1256.6</ele>
        <time>2021-06-26T09:34:26Z</time>
      </trkpt>
      <trkpt lat="46.21441" lon="6.76541">
        <ele>1256.6</ele>
        <time>2021-06-26T09:34:27Z</time>
      </trkpt>
      <trkpt lat="46.21443" lon="6.76539">
        <ele>1257</ele>
        <time>2021-06-26T09:34:28Z</time>
      </trkpt>
      <trkpt lat="46.21445" lon="6.76538">
        <ele>1257.2</ele>
        <time>2021-06-26T09:34:29Z</time>
      </trkpt>
      <trkpt lat="46.21447" lon="6.76536">
        <ele>1257.4</ele>
        <time>2021-06-26T09:34:30Z</time>
      </trkpt>
      <trkpt lat="46.21449" lon="6.76533">
        <ele>1257.8</ele>
        <time>2021-06-26T09:34:31Z</time>
      </trkpt>
      <trkpt lat="46.21451" lon="6.76532">
        <ele>1258</ele>
        <time>2021-06-26T09:34:32Z</time>
      </trkpt>
      <trkpt lat="46.21453" lon="6.76529">
        <ele>1258</ele>
        <time>2021-06-26T09:34:33Z</time>
      </trkpt>
      <trkpt lat="46.21455" lon="6.76527">
        <ele>1258.2</ele>
        <time>2021-06-26T09:34:34Z</time>
      </trkpt>
      <trkpt lat="46.21456" lon="6.76521">
        <ele>1258.4</ele>
        <time>2021-06-26T09:34:35Z</time>
      </trkpt>
      <trkpt lat="46.21458" lon="6.76519">
        <ele>1258.6</ele>
        <time>2021-06-26T09:34:36Z</time>
      </trkpt>
      <trkpt lat="46.2146" lon="6.76515">
        <ele>1258.8</ele>
        <time>2021-06-26T09:34:37Z</time>
      </trkpt>
      <trkpt lat="46.21462" lon="6.76512">
        <ele>1259</ele>
        <time>2021-06-26T09:34:38Z</time>
      </trkpt>
      <trkpt lat="46.21463" lon="6.76509">
        <ele>1259.4</ele>
        <time>2021-06-26T09:34:39Z</time>
      </trkpt>
      <trkpt lat="46.21466" lon="6.76506">
        <ele>1259.6</ele>
        <time>2021-06-26T09:34:40Z</time>
      </trkpt>
      <trkpt lat="46.21468" lon="6.76503">
        <ele>1259.8</ele>
        <time>2021-06-26T09:34:41Z</time>
      </trkpt>
      <trkpt lat="46.21469" lon="6.765">
        <ele>1260.2</ele>
        <time>2021-06-26T09:34:42Z</time>
      </trkpt>
      <trkpt lat="46.21471" lon="6.76498">
        <ele>1260.2</ele>
        <time>2021-06-26T09:34:43Z</time>
      </trkpt>
      <trkpt lat="46.21473" lon="6.76496">
        <ele>1260.6</ele>
        <time>2021-06-26T09:34:44Z</time>
      </trkpt>
      <trkpt lat="46.21475" lon="6.76494">
        <ele>1260.8</ele>
        <time>2021-06-26T09:34:45Z</time>
      </trkpt>
      <trkpt lat="46.21477" lon="6.76492">
        <ele>1260.8</ele>
        <time>2021-06-26T09:34:46Z</time>
      </trkpt>
      <trkpt lat="46.21479" lon="6.76489">
        <ele>1261.2</ele>
        <time>2021-06-26T09:34:47Z</time>
      </trkpt>
      <trkpt lat="46.2148" lon="6.76488">
        <ele>1261.4</ele>
        <time>2021-06-26T09:34:48Z</time>
      </trkpt>
      <trkpt lat="46.21482" lon="6.76486">
        <ele>1261.6</ele>
        <time>2021-06-26T09:34:49Z</time>
      </trkpt>
      <trkpt lat="46.21484" lon="6.76485">
        <ele>1261.8</ele>
        <time>2021-06-26T09:34:50Z</time>
      </trkpt>
      <trkpt lat="46.21487" lon="6.76484">
        <ele>1262</ele>
        <time>2021-06-26T09:34:51Z</time>
      </trkpt>
      <trkpt lat="46.21489" lon="6.76483">
        <ele>1262.2</ele>
        <time>2021-06-26T09:34:52Z</time>
      </trkpt>
      <trkpt lat="46.21491" lon="6.76481">
        <ele>1262.6</ele>
        <time>2021-06-26T09:34:53Z</time>
      </trkpt>
      <trkpt lat="46.21493" lon="6.76481">
        <ele>1263</ele>
        <time>2021-06-26T09:34:54Z</time>
      </trkpt>
      <trkpt lat="46.21495" lon="6.7648">
        <ele>1263</ele>
        <time>2021-06-26T09:34:55Z</time>
      </trkpt>
      <trkpt lat="46.21498" lon="6.7648">
        <ele>1263.2</ele>
        <time>2021-06-26T09:34:56Z</time>
      </trkpt>
      <trkpt lat="46.215" lon="6.7648">
        <ele>1263.4</ele>
        <time>2021-06-26T09:34:57Z</time>
      </trkpt>
      <trkpt lat="46.21502" lon="6.76479">
        <ele>1263.6</ele>
        <time>2021-06-26T09:34:58Z</time>
      </trkpt>
      <trkpt lat="46.21505" lon="6.76478">
        <ele>1263.8</ele>
        <time>2021-06-26T09:34:59Z</time>
      </trkpt>
      <trkpt lat="46.21507" lon="6.76478">
        <ele>1264</ele>
        <time>2021-06-26T09:35:00Z</time>
      </trkpt>
      <trkpt lat="46.21509" lon="6.76477">
        <ele>1264.4</ele>
        <time>2021-06-26T09:35:01Z</time>
      </trkpt>
      <trkpt lat="46.21512" lon="6.76477">
        <ele>1264.6</ele>
        <time>2021-06-26T09:35:02Z</time>
      </trkpt>
      <trkpt lat="46.21514" lon="6.76476">
        <ele>1265</ele>
        <time>2021-06-26T09:35:03Z</time>
      </trkpt>
      <trkpt lat="46.21516" lon="6.76472">
        <ele>1265.4</ele>
        <time>2021-06-26T09:35:04Z</time>
      </trkpt>
      <trkpt lat="46.21518" lon="6.7647">
        <ele>1265.6</ele>
        <time>2021-06-26T09:35:05Z</time>
      </trkpt>
      <trkpt lat="46.21519" lon="6.76467">
        <ele>1265.8</ele>
        <time>2021-06-26T09:35:06Z</time>
      </trkpt>
      <trkpt lat="46.21521" lon="6.76463">
        <ele>1266.2</ele>
        <time>2021-06-26T09:35:07Z</time>
      </trkpt>
      <trkpt lat="46.21523" lon="6.76461">
        <ele>1266.6</ele>
        <time>2021-06-26T09:35:08Z</time>
      </trkpt>
      <trkpt lat="46.21524" lon="6.76457">
        <ele>1266.8</ele>
        <time>2021-06-26T09:35:09Z</time>
      </trkpt>
      <trkpt lat="46.21526" lon="6.76454">
        <ele>1267.2</ele>
        <time>2021-06-26T09:35:10Z</time>
      </trkpt>
      <trkpt lat="46.21527" lon="6.76452">
        <ele>1267.4</ele>
        <time>2021-06-26T09:35:11Z</time>
      </trkpt>
      <trkpt lat="46.21528" lon="6.7645">
        <ele>1267.8</ele>
        <time>2021-06-26T09:35:12Z</time>
      </trkpt>
      <trkpt lat="46.21529" lon="6.76449">
        <ele>1268</ele>
        <time>2021-06-26T09:35:13Z</time>
      </trkpt>
      <trkpt lat="46.21531" lon="6.76447">
        <ele>1268.4</ele>
        <time>2021-06-26T09:35:14Z</time>
      </trkpt>
      <trkpt lat="46.21532" lon="6.76444">
        <ele>1268.6</ele>
        <time>2021-06-26T09:35:15Z</time>
      </trkpt>
      <trkpt lat="46.21533" lon="6.7644">
        <ele>1268.8</ele>
        <time>2021-06-26T09:35:16Z</time>
      </trkpt>
      <trkpt lat="46.21535" lon="6.76437">
        <ele>1269.2</ele>
        <time>2021-06-26T09:35:17Z</time>
      </trkpt>
      <trkpt lat="46.21537" lon="6.76434">
        <ele>1269.2</ele>
        <time>2021-06-26T09:35:18Z</time>
      </trkpt>
      <trkpt lat="46.21539" lon="6.76432">
        <ele>1269.4</ele>
        <time>2021-06-26T09:35:19Z</time>
      </trkpt>
      <trkpt lat="46.21541" lon="6.76429">
        <ele>1269.6</ele>
        <time>2021-06-26T09:35:20Z</time>
      </trkpt>
      <trkpt lat="46.21543" lon="6.76426">
        <ele>1270</ele>
        <time>2021-06-26T09:35:21Z</time>
      </trkpt>
      <trkpt lat="46.21544" lon="6.76423">
        <ele>1270</ele>
        <time>2021-06-26T09:35:22Z</time>
      </trkpt>
      <trkpt lat="46.21545" lon="6.76419">
        <ele>1270.4</ele>
        <time>2021-06-26T09:35:23Z</time>
      </trkpt>
      <trkpt lat="46.21547" lon="6.76416">
        <ele>1270.6</ele>
        <time>2021-06-26T09:35:24Z</time>
      </trkpt>
      <trkpt lat="46.21548" lon="6.76414">
        <ele>1270.8</ele>
        <time>2021-06-26T09:35:25Z</time>
      </trkpt>
      <trkpt lat="46.2155" lon="6.76411">
        <ele>1271.2</ele>
        <time>2021-06-26T09:35:26Z</time>
      </trkpt>
      <trkpt lat="46.21551" lon="6.76409">
        <ele>1271.4</ele>
        <time>2021-06-26T09:35:27Z</time>
      </trkpt>
      <trkpt lat="46.21553" lon="6.76407">
        <ele>1271.6</ele>
        <time>2021-06-26T09:35:28Z</time>
      </trkpt>
      <trkpt lat="46.21555" lon="6.76404">
        <ele>1271.8</ele>
        <time>2021-06-26T09:35:29Z</time>
      </trkpt>
      <trkpt lat="46.21556" lon="6.76402">
        <ele>1272.2</ele>
        <time>2021-06-26T09:35:30Z</time>
      </trkpt>
      <trkpt lat="46.21558" lon="6.76399">
        <ele>1272.6</ele>
        <time>2021-06-26T09:35:31Z</time>
      </trkpt>
      <trkpt lat="46.21559" lon="6.76397">
        <ele>1272.8</ele>
        <time>2021-06-26T09:35:32Z</time>
      </trkpt>
      <trkpt lat="46.21561" lon="6.76394">
        <ele>1273.2</ele>
        <time>2021-06-26T09:35:33Z</time>
      </trkpt>
      <trkpt lat="46.21563" lon="6.76392">
        <ele>1273.4</ele>
        <time>2021-06-26T09:35:34Z</time>
      </trkpt>
      <trkpt lat="46.21565" lon="6.7639">
        <ele>1273.6</ele>
        <time>2021-06-26T09:35:35Z</time>
      </trkpt>
      <trkpt lat="46.21567" lon="6.76387">
        <ele>1274</ele>
        <time>2021-06-26T09:35:36Z</time>
      </trkpt>
      <trkpt lat="46.21568" lon="6.76383">
        <ele>1274.2</ele>
        <time>2021-06-26T09:35:37Z</time>
      </trkpt>
      <trkpt lat="46.2157" lon="6.7638">
        <ele>1274.6</ele>
        <time>2021-06-26T09:35:38Z</time>
      </trkpt>
      <trkpt lat="46.21572" lon="6.76377">
        <ele>1274.8</ele>
        <time>2021-06-26T09:35:39Z</time>
      </trkpt>
      <trkpt lat="46.21572" lon="6.76374">
        <ele>1274.8</ele>
        <time>2021-06-26T09:35:40Z</time>
      </trkpt>
      <trkpt lat="46.21574" lon="6.76371">
        <ele>1274.8</ele>
        <time>2021-06-26T09:35:41Z</time>
      </trkpt>
      <trkpt lat="46.21575" lon="6.76369">
        <ele>1275.2</ele>
        <time>2021-06-26T09:35:42Z</time>
      </trkpt>
      <trkpt lat="46.21576" lon="6.76368">
        <ele>1275.6</ele>
        <time>2021-06-26T09:35:43Z</time>
      </trkpt>
      <trkpt lat="46.21577" lon="6.76368">
        <ele>1275.8</ele>
        <time>2021-06-26T09:35:44Z</time>
      </trkpt>
      <trkpt lat="46.21578" lon="6.76369">
        <ele>1275.8</ele>
        <time>2021-06-26T09:35:45Z</time>
      </trkpt>
      <trkpt lat="46.21578" lon="6.76371">
        <ele>1276</ele>
        <time>2021-06-26T09:35:46Z</time>
      </trkpt>
      <trkpt lat="46.21578" lon="6.76374">
        <ele>1276.4</ele>
        <time>2021-06-26T09:35:47Z</time>
      </trkpt>
      <trkpt lat="46.21578" lon="6.76376">
        <ele>1276.6</ele>
        <time>2021-06-26T09:35:48Z</time>
      </trkpt>
      <trkpt lat="46.21578" lon="6.76378">
        <ele>1276.6</ele>
        <time>2021-06-26T09:35:49Z</time>
      </trkpt>
      <trkpt lat="46.21577" lon="6.76381">
        <ele>1276.8</ele>
        <time>2021-06-26T09:35:50Z</time>
      </trkpt>
      <trkpt lat="46.21576" lon="6.76384">
        <ele>1277</ele>
        <time>2021-06-26T09:35:51Z</time>
      </trkpt>
      <trkpt lat="46.21574" lon="6.76386">
        <ele>1277.4</ele>
        <time>2021-06-26T09:35:52Z</time>
      </trkpt>
      <trkpt lat="46.21573" lon="6.76388">
        <ele>1277.6</ele>
        <time>2021-06-26T09:35:53Z</time>
      </trkpt>
      <trkpt lat="46.21572" lon="6.76391">
        <ele>1278</ele>
        <time>2021-06-26T09:35:54Z</time>
      </trkpt>
      <trkpt lat="46.21571" lon="6.76394">
        <ele>1278.2</ele>
        <time>2021-06-26T09:35:55Z</time>
      </trkpt>
      <trkpt lat="46.21569" lon="6.76397">
        <ele>1278.6</ele>
        <time>2021-06-26T09:35:56Z</time>
      </trkpt>
      <trkpt lat="46.21569" lon="6.764">
        <ele>1279</ele>
        <time>2021-06-26T09:35:57Z</time>
      </trkpt>
      <trkpt lat="46.21567" lon="6.76403">
        <ele>1279.2</ele>
        <time>2021-06-26T09:35:58Z</time>
      </trkpt>
      <trkpt lat="46.21567" lon="6.76407">
        <ele>1279.4</ele>
        <time>2021-06-26T09:35:59Z</time>
      </trkpt>
      <trkpt lat="46.21566" lon="6.76411">
        <ele>1279.8</ele>
        <time>2021-06-26T09:36:00Z</time>
      </trkpt>
      <trkpt lat="46.21565" lon="6.76414">
        <ele>1280</ele>
        <time>2021-06-26T09:36:01Z</time>
      </trkpt>
      <trkpt lat="46.21564" lon="6.76418">
        <ele>1280.2</ele>
        <time>2021-06-26T09:36:02Z</time>
      </trkpt>
      <trkpt lat="46.21564" lon="6.76421">
        <ele>1280.4</ele>
        <time>2021-06-26T09:36:03Z</time>
      </trkpt>
      <trkpt lat="46.21563" lon="6.76425">
        <ele>1280.6</ele>
        <time>2021-06-26T09:36:04Z</time>
      </trkpt>
      <trkpt lat="46.21562" lon="6.76429">
        <ele>1280.8</ele>
        <time>2021-06-26T09:36:05Z</time>
      </trkpt>
      <trkpt lat="46.21562" lon="6.76432">
        <ele>1281</ele>
        <time>2021-06-26T09:36:06Z</time>
      </trkpt>
      <trkpt lat="46.21561" lon="6.76435">
        <ele>1281.4</ele>
        <time>2021-06-26T09:36:07Z</time>
      </trkpt>
      <trkpt lat="46.21559" lon="6.76438">
        <ele>1281.4</ele>
        <time>2021-06-26T09:36:08Z</time>
      </trkpt>
      <trkpt lat="46.21558" lon="6.76441">
        <ele>1281.4</ele>
        <time>2021-06-26T09:36:09Z</time>
      </trkpt>
      <trkpt lat="46.21557" lon="6.76444">
        <ele>1281.8</ele>
        <time>2021-06-26T09:36:10Z</time>
      </trkpt>
      <trkpt lat="46.21556" lon="6.76447">
        <ele>1282</ele>
        <time>2021-06-26T09:36:11Z</time>
      </trkpt>
      <trkpt lat="46.21555" lon="6.7645">
        <ele>1282.4</ele>
        <time>2021-06-26T09:36:12Z</time>
      </trkpt>
      <trkpt lat="46.21554" lon="6.76453">
        <ele>1282.6</ele>
        <time>2021-06-26T09:36:13Z</time>
      </trkpt>
      <trkpt lat="46.21553" lon="6.76456">
        <ele>1282.8</ele>
        <time>2021-06-26T09:36:14Z</time>
      </trkpt>
      <trkpt lat="46.21552" lon="6.7646">
        <ele>1283.2</ele>
        <time>2021-06-26T09:36:15Z</time>
      </trkpt>
      <trkpt lat="46.21552" lon="6.76463">
        <ele>1283.4</ele>
        <time>2021-06-26T09:36:16Z</time>
      </trkpt>
      <trkpt lat="46.21551" lon="6.76466">
        <ele>1283.6</ele>
        <time>2021-06-26T09:36:17Z</time>
      </trkpt>
      <trkpt lat="46.2155" lon="6.7647">
        <ele>1283.8</ele>
        <time>2021-06-26T09:36:18Z</time>
      </trkpt>
      <trkpt lat="46.21549" lon="6.76473">
        <ele>1284.2</ele>
        <time>2021-06-26T09:36:19Z</time>
      </trkpt>
      <trkpt lat="46.21548" lon="6.76475">
        <ele>1284.4</ele>
        <time>2021-06-26T09:36:20Z</time>
      </trkpt>
      <trkpt lat="46.21547" lon="6.76478">
        <ele>1284.6</ele>
        <time>2021-06-26T09:36:21Z</time>
      </trkpt>
      <trkpt lat="46.21545" lon="6.7648">
        <ele>1285</ele>
        <time>2021-06-26T09:36:22Z</time>
      </trkpt>
      <trkpt lat="46.21544" lon="6.76483">
        <ele>1285.2</ele>
        <time>2021-06-26T09:36:23Z</time>
      </trkpt>
      <trkpt lat="46.21543" lon="6.76486">
        <ele>1285.4</ele>
        <time>2021-06-26T09:36:24Z</time>
      </trkpt>
      <trkpt lat="46.21543" lon="6.7649">
        <ele>1285.8</ele>
        <time>2021-06-26T09:36:25Z</time>
      </trkpt>
      <trkpt lat="46.21542" lon="6.76493">
        <ele>1286</ele>
        <time>2021-06-26T09:36:26Z</time>
      </trkpt>
      <trkpt lat="46.21541" lon="6.76496">
        <ele>1286.4</ele>
        <time>2021-06-26T09:36:27Z</time>
      </trkpt>
      <trkpt lat="46.2154" lon="6.76499">
        <ele>1286.4</ele>
        <time>2021-06-26T09:36:28Z</time>
      </trkpt>
      <trkpt lat="46.21539" lon="6.76502">
        <ele>1286.8</ele>
        <time>2021-06-26T09:36:29Z</time>
      </trkpt>
      <trkpt lat="46.21539" lon="6.76505">
        <ele>1286.8</ele>
        <time>2021-06-26T09:36:30Z</time>
      </trkpt>
      <trkpt lat="46.21539" lon="6.76507">
        <ele>1287.2</ele>
        <time>2021-06-26T09:36:31Z</time>
      </trkpt>
      <trkpt lat="46.21539" lon="6.7651">
        <ele>1287.4</ele>
        <time>2021-06-26T09:36:32Z</time>
      </trkpt>
      <trkpt lat="46.21538" lon="6.76512">
        <ele>1287.4</ele>
        <time>2021-06-26T09:36:33Z</time>
      </trkpt>
      <trkpt lat="46.21537" lon="6.76515">
        <ele>1287.8</ele>
        <time>2021-06-26T09:36:34Z</time>
      </trkpt>
      <trkpt lat="46.21536" lon="6.76518">
        <ele>1288</ele>
        <time>2021-06-26T09:36:35Z</time>
      </trkpt>
      <trkpt lat="46.21535" lon="6.7652">
        <ele>1288.4</ele>
        <time>2021-06-26T09:36:36Z</time>
      </trkpt>
      <trkpt lat="46.21534" lon="6.76523">
        <ele>1288.8</ele>
        <time>2021-06-26T09:36:37Z</time>
      </trkpt>
      <trkpt lat="46.21533" lon="6.76525">
        <ele>1289</ele>
        <time>2021-06-26T09:36:38Z</time>
      </trkpt>
      <trkpt lat="46.21532" lon="6.76527">
        <ele>1289.2</ele>
        <time>2021-06-26T09:36:39Z</time>
      </trkpt>
      <trkpt lat="46.21531" lon="6.7653">
        <ele>1289.6</ele>
        <time>2021-06-26T09:36:40Z</time>
      </trkpt>
      <trkpt lat="46.2153" lon="6.76532">
        <ele>1290</ele>
        <time>2021-06-26T09:36:41Z</time>
      </trkpt>
      <trkpt lat="46.21529" lon="6.76534">
        <ele>1290.2</ele>
        <time>2021-06-26T09:36:42Z</time>
      </trkpt>
      <trkpt lat="46.21528" lon="6.76536">
        <ele>1290.4</ele>
        <time>2021-06-26T09:36:43Z</time>
      </trkpt>
      <trkpt lat="46.21526" lon="6.76539">
        <ele>1290.6</ele>
        <time>2021-06-26T09:36:44Z</time>
      </trkpt>
      <trkpt lat="46.21525" lon="6.76541">
        <ele>1290.8</ele>
        <time>2021-06-26T09:36:45Z</time>
      </trkpt>
      <trkpt lat="46.21523" lon="6.76542">
        <ele>1291</ele>
        <time>2021-06-26T09:36:46Z</time>
      </trkpt>
      <trkpt lat="46.21522" lon="6.76541">
        <ele>1291.2</ele>
        <time>2021-06-26T09:36:47Z</time>
      </trkpt>
      <trkpt lat="46.2152" lon="6.7654">
        <ele>1291.8</ele>
        <time>2021-06-26T09:36:48Z</time>
      </trkpt>
      <trkpt lat="46.21518" lon="6.76539">
        <ele>1292.2</ele>
        <time>2021-06-26T09:36:49Z</time>
      </trkpt>
      <trkpt lat="46.21517" lon="6.76538">
        <ele>1292.4</ele>
        <time>2021-06-26T09:36:50Z</time>
      </trkpt>
      <trkpt lat="46.21515" lon="6.76537">
        <ele>1292.8</ele>
        <time>2021-06-26T09:36:51Z</time>
      </trkpt>
      <trkpt lat="46.21514" lon="6.76536">
        <ele>1292.8</ele>
        <time>2021-06-26T09:36:52Z</time>
      </trkpt>
      <trkpt lat="46.21512" lon="6.76535">
        <ele>1293</ele>
        <time>2021-06-26T09:36:53Z</time>
      </trkpt>
      <trkpt lat="46.21511" lon="6.76533">
        <ele>1293.2</ele>
        <time>2021-06-26T09:36:54Z</time>
      </trkpt>
      <trkpt lat="46.21505" lon="6.76524">
        <ele>1293.6</ele>
        <time>2021-06-26T09:36:55Z</time>
      </trkpt>
      <trkpt lat="46.21502" lon="6.76522">
        <ele>1294</ele>
        <time>2021-06-26T09:36:56Z</time>
      </trkpt>
      <trkpt lat="46.21499" lon="6.76522">
        <ele>1294.2</ele>
        <time>2021-06-26T09:36:57Z</time>
      </trkpt>
      <trkpt lat="46.21497" lon="6.76523">
        <ele>1294.4</ele>
        <time>2021-06-26T09:36:58Z</time>
      </trkpt>
      <trkpt lat="46.21496" lon="6.76524">
        <ele>1294.6</ele>
        <time>2021-06-26T09:36:59Z</time>
      </trkpt>
      <trkpt lat="46.21495" lon="6.76526">
        <ele>1294.8</ele>
        <time>2021-06-26T09:37:00Z</time>
      </trkpt>
      <trkpt lat="46.21493" lon="6.76528">
        <ele>1295</ele>
        <time>2021-06-26T09:37:01Z</time>
      </trkpt>
      <trkpt lat="46.21492" lon="6.7653">
        <ele>1295.4</ele>
        <time>2021-06-26T09:37:02Z</time>
      </trkpt>
      <trkpt lat="46.21491" lon="6.76533">
        <ele>1295.4</ele>
        <time>2021-06-26T09:37:03Z</time>
      </trkpt>
      <trkpt lat="46.2149" lon="6.76535">
        <ele>1295.8</ele>
        <time>2021-06-26T09:37:04Z</time>
      </trkpt>
      <trkpt lat="46.2149" lon="6.76538">
        <ele>1296</ele>
        <time>2021-06-26T09:37:05Z</time>
      </trkpt>
      <trkpt lat="46.2149" lon="6.76541">
        <ele>1296.2</ele>
        <time>2021-06-26T09:37:06Z</time>
      </trkpt>
      <trkpt lat="46.2149" lon="6.76543">
        <ele>1296.2</ele>
        <time>2021-06-26T09:37:07Z</time>
      </trkpt>
      <trkpt lat="46.21491" lon="6.76545">
        <ele>1296.6</ele>
        <time>2021-06-26T09:37:08Z</time>
      </trkpt>
      <trkpt lat="46.21492" lon="6.76547">
        <ele>1297</ele>
        <time>2021-06-26T09:37:09Z</time>
      </trkpt>
      <trkpt lat="46.21493" lon="6.7655">
        <ele>1297.2</ele>
        <time>2021-06-26T09:37:10Z</time>
      </trkpt>
      <trkpt lat="46.21494" lon="6.76552">
        <ele>1297.4</ele>
        <time>2021-06-26T09:37:11Z</time>
      </trkpt>
      <trkpt lat="46.21496" lon="6.76553">
        <ele>1297.6</ele>
        <time>2021-06-26T09:37:12Z</time>
      </trkpt>
      <trkpt lat="46.21498" lon="6.76555">
        <ele>1297.8</ele>
        <time>2021-06-26T09:37:13Z</time>
      </trkpt>
      <trkpt lat="46.21499" lon="6.76557">
        <ele>1298.2</ele>
        <time>2021-06-26T09:37:14Z</time>
      </trkpt>
      <trkpt lat="46.215" lon="6.76559">
        <ele>1298.2</ele>
        <time>2021-06-26T09:37:15Z</time>
      </trkpt>
      <trkpt lat="46.21502" lon="6.76561">
        <ele>1298.4</ele>
        <time>2021-06-26T09:37:16Z</time>
      </trkpt>
      <trkpt lat="46.21503" lon="6.76564">
        <ele>1298.8</ele>
        <time>2021-06-26T09:37:17Z</time>
      </trkpt>
      <trkpt lat="46.21504" lon="6.76566">
        <ele>1299</ele>
        <time>2021-06-26T09:37:18Z</time>
      </trkpt>
      <trkpt lat="46.21504" lon="6.76569">
        <ele>1299.2</ele>
        <time>2021-06-26T09:37:19Z</time>
      </trkpt>
      <trkpt lat="46.21504" lon="6.76571">
        <ele>1299.6</ele>
        <time>2021-06-26T09:37:20Z</time>
      </trkpt>
      <trkpt lat="46.21504" lon="6.76574">
        <ele>1299.8</ele>
        <time>2021-06-26T09:37:21Z</time>
      </trkpt>
      <trkpt lat="46.21504" lon="6.76576">
        <ele>1300.2</ele>
        <time>2021-06-26T09:37:22Z</time>
      </trkpt>
      <trkpt lat="46.21503" lon="6.76579">
        <ele>1300.4</ele>
        <time>2021-06-26T09:37:23Z</time>
      </trkpt>
      <trkpt lat="46.21502" lon="6.76582">
        <ele>1300.8</ele>
        <time>2021-06-26T09:37:24Z</time>
      </trkpt>
      <trkpt lat="46.21502" lon="6.76584">
        <ele>1301</ele>
        <time>2021-06-26T09:37:25Z</time>
      </trkpt>
      <trkpt lat="46.215" lon="6.76585">
        <ele>1301.2</ele>
        <time>2021-06-26T09:37:26Z</time>
      </trkpt>
      <trkpt lat="46.21498" lon="6.76586">
        <ele>1301.4</ele>
        <time>2021-06-26T09:37:27Z</time>
      </trkpt>
      <trkpt lat="46.21497" lon="6.76586">
        <ele>1301.6</ele>
        <time>2021-06-26T09:37:28Z</time>
      </trkpt>
      <trkpt lat="46.21496" lon="6.76587">
        <ele>1301.8</ele>
        <time>2021-06-26T09:37:29Z</time>
      </trkpt>
      <trkpt lat="46.21494" lon="6.76586">
        <ele>1302.2</ele>
        <time>2021-06-26T09:37:30Z</time>
      </trkpt>
      <trkpt lat="46.21492" lon="6.76585">
        <ele>1302.4</ele>
        <time>2021-06-26T09:37:31Z</time>
      </trkpt>
      <trkpt lat="46.21491" lon="6.76584">
        <ele>1302.8</ele>
        <time>2021-06-26T09:37:32Z</time>
      </trkpt>
      <trkpt lat="46.2149" lon="6.76583">
        <ele>1303</ele>
        <time>2021-06-26T09:37:33Z</time>
      </trkpt>
      <trkpt lat="46.21489" lon="6.76582">
        <ele>1303.4</ele>
        <time>2021-06-26T09:37:34Z</time>
      </trkpt>
      <trkpt lat="46.21487" lon="6.7658">
        <ele>1303.8</ele>
        <time>2021-06-26T09:37:35Z</time>
      </trkpt>
      <trkpt lat="46.21486" lon="6.76578">
        <ele>1304</ele>
        <time>2021-06-26T09:37:36Z</time>
      </trkpt>
      <trkpt lat="46.21485" lon="6.76576">
        <ele>1304</ele>
        <time>2021-06-26T09:37:37Z</time>
      </trkpt>
      <trkpt lat="46.21484" lon="6.76574">
        <ele>1304.2</ele>
        <time>2021-06-26T09:37:38Z</time>
      </trkpt>
      <trkpt lat="46.21482" lon="6.76572">
        <ele>1304.4</ele>
        <time>2021-06-26T09:37:39Z</time>
      </trkpt>
      <trkpt lat="46.21482" lon="6.7657">
        <ele>1304.6</ele>
        <time>2021-06-26T09:37:40Z</time>
      </trkpt>
      <trkpt lat="46.21481" lon="6.76568">
        <ele>1304.8</ele>
        <time>2021-06-26T09:37:41Z</time>
      </trkpt>
      <trkpt lat="46.2148" lon="6.76566">
        <ele>1305</ele>
        <time>2021-06-26T09:37:42Z</time>
      </trkpt>
      <trkpt lat="46.2148" lon="6.76565">
        <ele>1305.2</ele>
        <time>2021-06-26T09:37:43Z</time>
      </trkpt>
      <trkpt lat="46.2148" lon="6.76563">
        <ele>1305.4</ele>
        <time>2021-06-26T09:37:44Z</time>
      </trkpt>
      <trkpt lat="46.21478" lon="6.76561">
        <ele>1305.6</ele>
        <time>2021-06-26T09:37:45Z</time>
      </trkpt>
      <trkpt lat="46.21476" lon="6.7656">
        <ele>1305.8</ele>
        <time>2021-06-26T09:37:46Z</time>
      </trkpt>
      <trkpt lat="46.21474" lon="6.76559">
        <ele>1306</ele>
        <time>2021-06-26T09:37:47Z</time>
      </trkpt>
      <trkpt lat="46.21471" lon="6.76558">
        <ele>1306.2</ele>
        <time>2021-06-26T09:37:48Z</time>
      </trkpt>
      <trkpt lat="46.21469" lon="6.76557">
        <ele>1306.6</ele>
        <time>2021-06-26T09:37:49Z</time>
      </trkpt>
      <trkpt lat="46.21467" lon="6.76558">
        <ele>1306.8</ele>
        <time>2021-06-26T09:37:50Z</time>
      </trkpt>
      <trkpt lat="46.21466" lon="6.76558">
        <ele>1307</ele>
        <time>2021-06-26T09:37:51Z</time>
      </trkpt>
      <trkpt lat="46.21464" lon="6.7656">
        <ele>1307.2</ele>
        <time>2021-06-26T09:37:52Z</time>
      </trkpt>
      <trkpt lat="46.21463" lon="6.76562">
        <ele>1307.4</ele>
        <time>2021-06-26T09:37:53Z</time>
      </trkpt>
      <trkpt lat="46.21462" lon="6.76565">
        <ele>1307.6</ele>
        <time>2021-06-26T09:37:54Z</time>
      </trkpt>
      <trkpt lat="46.21461" lon="6.76569">
        <ele>1308</ele>
        <time>2021-06-26T09:37:55Z</time>
      </trkpt>
      <trkpt lat="46.21462" lon="6.76572">
        <ele>1308.2</ele>
        <time>2021-06-26T09:37:56Z</time>
      </trkpt>
      <trkpt lat="46.21462" lon="6.76575">
        <ele>1308.4</ele>
        <time>2021-06-26T09:37:57Z</time>
      </trkpt>
      <trkpt lat="46.21463" lon="6.76577">
        <ele>1308.6</ele>
        <time>2021-06-26T09:37:58Z</time>
      </trkpt>
      <trkpt lat="46.21465" lon="6.7658">
        <ele>1309</ele>
        <time>2021-06-26T09:37:59Z</time>
      </trkpt>
      <trkpt lat="46.21467" lon="6.76582">
        <ele>1309</ele>
        <time>2021-06-26T09:38:00Z</time>
      </trkpt>
      <trkpt lat="46.21468" lon="6.76584">
        <ele>1309.2</ele>
        <time>2021-06-26T09:38:01Z</time>
      </trkpt>
      <trkpt lat="46.2147" lon="6.76586">
        <ele>1309.4</ele>
        <time>2021-06-26T09:38:02Z</time>
      </trkpt>
      <trkpt lat="46.21471" lon="6.76588">
        <ele>1309.6</ele>
        <time>2021-06-26T09:38:03Z</time>
      </trkpt>
      <trkpt lat="46.21472" lon="6.76591">
        <ele>1309.6</ele>
        <time>2021-06-26T09:38:04Z</time>
      </trkpt>
      <trkpt lat="46.21473" lon="6.76594">
        <ele>1310</ele>
        <time>2021-06-26T09:38:05Z</time>
      </trkpt>
      <trkpt lat="46.21474" lon="6.76597">
        <ele>1310</ele>
        <time>2021-06-26T09:38:06Z</time>
      </trkpt>
      <trkpt lat="46.21474" lon="6.766">
        <ele>1310.2</ele>
        <time>2021-06-26T09:38:07Z</time>
      </trkpt>
      <trkpt lat="46.21474" lon="6.76602">
        <ele>1310.6</ele>
        <time>2021-06-26T09:38:08Z</time>
      </trkpt>
      <trkpt lat="46.21474" lon="6.76605">
        <ele>1310.8</ele>
        <time>2021-06-26T09:38:09Z</time>
      </trkpt>
      <trkpt lat="46.21473" lon="6.76608">
        <ele>1311</ele>
        <time>2021-06-26T09:38:10Z</time>
      </trkpt>
      <trkpt lat="46.21473" lon="6.76611">
        <ele>1311.4</ele>
        <time>2021-06-26T09:38:11Z</time>
      </trkpt>
      <trkpt lat="46.21472" lon="6.76614">
        <ele>1311.6</ele>
        <time>2021-06-26T09:38:12Z</time>
      </trkpt>
      <trkpt lat="46.21472" lon="6.76617">
        <ele>1312</ele>
        <time>2021-06-26T09:38:13Z</time>
      </trkpt>
      <trkpt lat="46.21471" lon="6.7662">
        <ele>1312.2</ele>
        <time>2021-06-26T09:38:14Z</time>
      </trkpt>
      <trkpt lat="46.21469" lon="6.76623">
        <ele>1312.4</ele>
        <time>2021-06-26T09:38:15Z</time>
      </trkpt>
      <trkpt lat="46.21468" lon="6.76626">
        <ele>1312.6</ele>
        <time>2021-06-26T09:38:16Z</time>
      </trkpt>
      <trkpt lat="46.21467" lon="6.76629">
        <ele>1312.8</ele>
        <time>2021-06-26T09:38:17Z</time>
      </trkpt>
      <trkpt lat="46.21466" lon="6.76631">
        <ele>1313</ele>
        <time>2021-06-26T09:38:18Z</time>
      </trkpt>
      <trkpt lat="46.21464" lon="6.76634">
        <ele>1313.2</ele>
        <time>2021-06-26T09:38:19Z</time>
      </trkpt>
      <trkpt lat="46.21463" lon="6.76636">
        <ele>1313.4</ele>
        <time>2021-06-26T09:38:20Z</time>
      </trkpt>
      <trkpt lat="46.21461" lon="6.76638">
        <ele>1314</ele>
        <time>2021-06-26T09:38:21Z</time>
      </trkpt>
      <trkpt lat="46.2146" lon="6.7664">
        <ele>1314.2</ele>
        <time>2021-06-26T09:38:22Z</time>
      </trkpt>
      <trkpt lat="46.21459" lon="6.76642">
        <ele>1314.2</ele>
        <time>2021-06-26T09:38:23Z</time>
      </trkpt>
      <trkpt lat="46.21457" lon="6.76644">
        <ele>1314.4</ele>
        <time>2021-06-26T09:38:24Z</time>
      </trkpt>
      <trkpt lat="46.21456" lon="6.76647">
        <ele>1314.8</ele>
        <time>2021-06-26T09:38:25Z</time>
      </trkpt>
      <trkpt lat="46.21454" lon="6.76649">
        <ele>1315</ele>
        <time>2021-06-26T09:38:26Z</time>
      </trkpt>
      <trkpt lat="46.21453" lon="6.76652">
        <ele>1315.4</ele>
        <time>2021-06-26T09:38:27Z</time>
      </trkpt>
      <trkpt lat="46.21452" lon="6.76654">
        <ele>1315.6</ele>
        <time>2021-06-26T09:38:28Z</time>
      </trkpt>
      <trkpt lat="46.2145" lon="6.76657">
        <ele>1315.8</ele>
        <time>2021-06-26T09:38:29Z</time>
      </trkpt>
      <trkpt lat="46.21448" lon="6.7666">
        <ele>1316</ele>
        <time>2021-06-26T09:38:30Z</time>
      </trkpt>
      <trkpt lat="46.21446" lon="6.76663">
        <ele>1316.2</ele>
        <time>2021-06-26T09:38:31Z</time>
      </trkpt>
      <trkpt lat="46.21445" lon="6.76666">
        <ele>1316.6</ele>
        <time>2021-06-26T09:38:32Z</time>
      </trkpt>
      <trkpt lat="46.21444" lon="6.7667">
        <ele>1317</ele>
        <time>2021-06-26T09:38:33Z</time>
      </trkpt>
      <trkpt lat="46.21445" lon="6.76673">
        <ele>1317.2</ele>
        <time>2021-06-26T09:38:34Z</time>
      </trkpt>
      <trkpt lat="46.21445" lon="6.76676">
        <ele>1317.6</ele>
        <time>2021-06-26T09:38:35Z</time>
      </trkpt>
      <trkpt lat="46.21446" lon="6.76679">
        <ele>1318</ele>
        <time>2021-06-26T09:38:36Z</time>
      </trkpt>
      <trkpt lat="46.21446" lon="6.76682">
        <ele>1318.2</ele>
        <time>2021-06-26T09:38:37Z</time>
      </trkpt>
      <trkpt lat="46.21447" lon="6.76684">
        <ele>1318.4</ele>
        <time>2021-06-26T09:38:38Z</time>
      </trkpt>
      <trkpt lat="46.21449" lon="6.76687">
        <ele>1318.6</ele>
        <time>2021-06-26T09:38:39Z</time>
      </trkpt>
      <trkpt lat="46.2145" lon="6.76689">
        <ele>1319</ele>
        <time>2021-06-26T09:38:40Z</time>
      </trkpt>
      <trkpt lat="46.21452" lon="6.76691">
        <ele>1319.2</ele>
        <time>2021-06-26T09:38:41Z</time>
      </trkpt>
      <trkpt lat="46.21454" lon="6.76692">
        <ele>1319.4</ele>
        <time>2021-06-26T09:38:42Z</time>
      </trkpt>
      <trkpt lat="46.21456" lon="6.76694">
        <ele>1320</ele>
        <time>2021-06-26T09:38:43Z</time>
      </trkpt>
      <trkpt lat="46.21459" lon="6.76697">
        <ele>1320</ele>
        <time>2021-06-26T09:38:44Z</time>
      </trkpt>
      <trkpt lat="46.21461" lon="6.76699">
        <ele>1320.2</ele>
        <time>2021-06-26T09:38:45Z</time>
      </trkpt>
      <trkpt lat="46.21463" lon="6.76701">
        <ele>1320.2</ele>
        <time>2021-06-26T09:38:46Z</time>
      </trkpt>
      <trkpt lat="46.21465" lon="6.76703">
        <ele>1320.4</ele>
        <time>2021-06-26T09:38:47Z</time>
      </trkpt>
      <trkpt lat="46.21467" lon="6.76705">
        <ele>1320.8</ele>
        <time>2021-06-26T09:38:48Z</time>
      </trkpt>
      <trkpt lat="46.2147" lon="6.76707">
        <ele>1321</ele>
        <time>2021-06-26T09:38:49Z</time>
      </trkpt>
      <trkpt lat="46.21472" lon="6.76708">
        <ele>1321.2</ele>
        <time>2021-06-26T09:38:50Z</time>
      </trkpt>
      <trkpt lat="46.21474" lon="6.76709">
        <ele>1321.4</ele>
        <time>2021-06-26T09:38:51Z</time>
      </trkpt>
      <trkpt lat="46.21477" lon="6.7671">
        <ele>1321.4</ele>
        <time>2021-06-26T09:38:52Z</time>
      </trkpt>
      <trkpt lat="46.21479" lon="6.76711">
        <ele>1321.6</ele>
        <time>2021-06-26T09:38:53Z</time>
      </trkpt>
      <trkpt lat="46.21481" lon="6.76713">
        <ele>1321.8</ele>
        <time>2021-06-26T09:38:54Z</time>
      </trkpt>
      <trkpt lat="46.21483" lon="6.76715">
        <ele>1322.2</ele>
        <time>2021-06-26T09:38:55Z</time>
      </trkpt>
      <trkpt lat="46.21485" lon="6.76716">
        <ele>1322.4</ele>
        <time>2021-06-26T09:38:56Z</time>
      </trkpt>
      <trkpt lat="46.21487" lon="6.76718">
        <ele>1322.8</ele>
        <time>2021-06-26T09:38:57Z</time>
      </trkpt>
      <trkpt lat="46.21488" lon="6.7672">
        <ele>1323</ele>
        <time>2021-06-26T09:38:58Z</time>
      </trkpt>
      <trkpt lat="46.21488" lon="6.76723">
        <ele>1323.2</ele>
        <time>2021-06-26T09:38:59Z</time>
      </trkpt>
      <trkpt lat="46.21488" lon="6.76726">
        <ele>1323.6</ele>
        <time>2021-06-26T09:39:00Z</time>
      </trkpt>
      <trkpt lat="46.21488" lon="6.76729">
        <ele>1324</ele>
        <time>2021-06-26T09:39:01Z</time>
      </trkpt>
      <trkpt lat="46.21488" lon="6.76731">
        <ele>1324.2</ele>
        <time>2021-06-26T09:39:02Z</time>
      </trkpt>
      <trkpt lat="46.21487" lon="6.76733">
        <ele>1324.4</ele>
        <time>2021-06-26T09:39:03Z</time>
      </trkpt>
      <trkpt lat="46.21485" lon="6.76735">
        <ele>1324.6</ele>
        <time>2021-06-26T09:39:04Z</time>
      </trkpt>
      <trkpt lat="46.21484" lon="6.76736">
        <ele>1324.8</ele>
        <time>2021-06-26T09:39:05Z</time>
      </trkpt>
      <trkpt lat="46.21482" lon="6.76738">
        <ele>1325</ele>
        <time>2021-06-26T09:39:06Z</time>
      </trkpt>
      <trkpt lat="46.2148" lon="6.76739">
        <ele>1325.2</ele>
        <time>2021-06-26T09:39:07Z</time>
      </trkpt>
      <trkpt lat="46.21478" lon="6.7674">
        <ele>1325.8</ele>
        <time>2021-06-26T09:39:08Z</time>
      </trkpt>
      <trkpt lat="46.21476" lon="6.76741">
        <ele>1325.8</ele>
        <time>2021-06-26T09:39:09Z</time>
      </trkpt>
      <trkpt lat="46.21474" lon="6.76743">
        <ele>1326</ele>
        <time>2021-06-26T09:39:10Z</time>
      </trkpt>
      <trkpt lat="46.21472" lon="6.76744">
        <ele>1326.6</ele>
        <time>2021-06-26T09:39:11Z</time>
      </trkpt>
      <trkpt lat="46.2147" lon="6.76745">
        <ele>1326.8</ele>
        <time>2021-06-26T09:39:12Z</time>
      </trkpt>
      <trkpt lat="46.21468" lon="6.76745">
        <ele>1327.2</ele>
        <time>2021-06-26T09:39:13Z</time>
      </trkpt>
      <trkpt lat="46.21466" lon="6.76746">
        <ele>1327.4</ele>
        <time>2021-06-26T09:39:14Z</time>
      </trkpt>
      <trkpt lat="46.21464" lon="6.76747">
        <ele>1327.4</ele>
        <time>2021-06-26T09:39:15Z</time>
      </trkpt>
      <trkpt lat="46.21461" lon="6.76747">
        <ele>1327.8</ele>
        <time>2021-06-26T09:39:16Z</time>
      </trkpt>
      <trkpt lat="46.21459" lon="6.76749">
        <ele>1328.2</ele>
        <time>2021-06-26T09:39:17Z</time>
      </trkpt>
      <trkpt lat="46.21457" lon="6.76751">
        <ele>1328.4</ele>
        <time>2021-06-26T09:39:18Z</time>
      </trkpt>
      <trkpt lat="46.21455" lon="6.76752">
        <ele>1328.6</ele>
        <time>2021-06-26T09:39:19Z</time>
      </trkpt>
      <trkpt lat="46.21453" lon="6.76754">
        <ele>1329</ele>
        <time>2021-06-26T09:39:20Z</time>
      </trkpt>
      <trkpt lat="46.21452" lon="6.76755">
        <ele>1329</ele>
        <time>2021-06-26T09:39:21Z</time>
      </trkpt>
      <trkpt lat="46.2145" lon="6.76756">
        <ele>1329.4</ele>
        <time>2021-06-26T09:39:22Z</time>
      </trkpt>
      <trkpt lat="46.21448" lon="6.76758">
        <ele>1329.6</ele>
        <time>2021-06-26T09:39:23Z</time>
      </trkpt>
      <trkpt lat="46.21445" lon="6.7676">
        <ele>1329.8</ele>
        <time>2021-06-26T09:39:24Z</time>
      </trkpt>
      <trkpt lat="46.21443" lon="6.76763">
        <ele>1330.2</ele>
        <time>2021-06-26T09:39:25Z</time>
      </trkpt>
      <trkpt lat="46.21441" lon="6.76766">
        <ele>1330.2</ele>
        <time>2021-06-26T09:39:26Z</time>
      </trkpt>
      <trkpt lat="46.2144" lon="6.76768">
        <ele>1330.4</ele>
        <time>2021-06-26T09:39:27Z</time>
      </trkpt>
      <trkpt lat="46.21438" lon="6.76771">
        <ele>1330.8</ele>
        <time>2021-06-26T09:39:28Z</time>
      </trkpt>
      <trkpt lat="46.21437" lon="6.76773">
        <ele>1330.8</ele>
        <time>2021-06-26T09:39:29Z</time>
      </trkpt>
      <trkpt lat="46.21435" lon="6.76776">
        <ele>1331.2</ele>
        <time>2021-06-26T09:39:30Z</time>
      </trkpt>
      <trkpt lat="46.21433" lon="6.76778">
        <ele>1331.4</ele>
        <time>2021-06-26T09:39:31Z</time>
      </trkpt>
      <trkpt lat="46.21432" lon="6.76781">
        <ele>1331.4</ele>
        <time>2021-06-26T09:39:32Z</time>
      </trkpt>
      <trkpt lat="46.2143" lon="6.76784">
        <ele>1331.6</ele>
        <time>2021-06-26T09:39:33Z</time>
      </trkpt>
      <trkpt lat="46.21429" lon="6.76787">
        <ele>1332</ele>
        <time>2021-06-26T09:39:34Z</time>
      </trkpt>
      <trkpt lat="46.21428" lon="6.7679">
        <ele>1332.2</ele>
        <time>2021-06-26T09:39:35Z</time>
      </trkpt>
      <trkpt lat="46.21426" lon="6.76792">
        <ele>1332.4</ele>
        <time>2021-06-26T09:39:36Z</time>
      </trkpt>
      <trkpt lat="46.21425" lon="6.76795">
        <ele>1332.6</ele>
        <time>2021-06-26T09:39:37Z</time>
      </trkpt>
      <trkpt lat="46.21424" lon="6.76798">
        <ele>1333</ele>
        <time>2021-06-26T09:39:38Z</time>
      </trkpt>
      <trkpt lat="46.21423" lon="6.76801">
        <ele>1333.2</ele>
        <time>2021-06-26T09:39:39Z</time>
      </trkpt>
      <trkpt lat="46.21422" lon="6.76803">
        <ele>1333.4</ele>
        <time>2021-06-26T09:39:40Z</time>
      </trkpt>
      <trkpt lat="46.2142" lon="6.76806">
        <ele>1333.6</ele>
        <time>2021-06-26T09:39:41Z</time>
      </trkpt>
      <trkpt lat="46.21419" lon="6.76809">
        <ele>1333.8</ele>
        <time>2021-06-26T09:39:42Z</time>
      </trkpt>
      <trkpt lat="46.21418" lon="6.76812">
        <ele>1334.2</ele>
        <time>2021-06-26T09:39:43Z</time>
      </trkpt>
      <trkpt lat="46.21416" lon="6.76814">
        <ele>1334.4</ele>
        <time>2021-06-26T09:39:44Z</time>
      </trkpt>
      <trkpt lat="46.21415" lon="6.76817">
        <ele>1334.6</ele>
        <time>2021-06-26T09:39:45Z</time>
      </trkpt>
      <trkpt lat="46.21413" lon="6.7682">
        <ele>1334.8</ele>
        <time>2021-06-26T09:39:46Z</time>
      </trkpt>
      <trkpt lat="46.21412" lon="6.76822">
        <ele>1335.4</ele>
        <time>2021-06-26T09:39:47Z</time>
      </trkpt>
      <trkpt lat="46.2141" lon="6.76825">
        <ele>1335.4</ele>
        <time>2021-06-26T09:39:48Z</time>
      </trkpt>
      <trkpt lat="46.21409" lon="6.76828">
        <ele>1335.8</ele>
        <time>2021-06-26T09:39:49Z</time>
      </trkpt>
      <trkpt lat="46.21408" lon="6.7683">
        <ele>1336</ele>
        <time>2021-06-26T09:39:50Z</time>
      </trkpt>
      <trkpt lat="46.21406" lon="6.76833">
        <ele>1336.2</ele>
        <time>2021-06-26T09:39:51Z</time>
      </trkpt>
      <trkpt lat="46.21405" lon="6.76836">
        <ele>1336.4</ele>
        <time>2021-06-26T09:39:52Z</time>
      </trkpt>
      <trkpt lat="46.21404" lon="6.76838">
        <ele>1336.6</ele>
        <time>2021-06-26T09:39:53Z</time>
      </trkpt>
      <trkpt lat="46.21402" lon="6.76841">
        <ele>1336.8</ele>
        <time>2021-06-26T09:39:54Z</time>
      </trkpt>
      <trkpt lat="46.21401" lon="6.76844">
        <ele>1336.8</ele>
        <time>2021-06-26T09:39:55Z</time>
      </trkpt>
      <trkpt lat="46.214" lon="6.76847">
        <ele>1337</ele>
        <time>2021-06-26T09:39:56Z</time>
      </trkpt>
      <trkpt lat="46.21399" lon="6.7685">
        <ele>1337.2</ele>
        <time>2021-06-26T09:39:57Z</time>
      </trkpt>
      <trkpt lat="46.21398" lon="6.76853">
        <ele>1337.4</ele>
        <time>2021-06-26T09:39:58Z</time>
      </trkpt>
      <trkpt lat="46.21397" lon="6.76855">
        <ele>1337.6</ele>
        <time>2021-06-26T09:39:59Z</time>
      </trkpt>
      <trkpt lat="46.21395" lon="6.76858">
        <ele>1338</ele>
        <time>2021-06-26T09:40:00Z</time>
      </trkpt>
      <trkpt lat="46.21394" lon="6.76861">
        <ele>1338.2</ele>
        <time>2021-06-26T09:40:01Z</time>
      </trkpt>
      <trkpt lat="46.21393" lon="6.76864">
        <ele>1338.4</ele>
        <time>2021-06-26T09:40:02Z</time>
      </trkpt>
      <trkpt lat="46.21392" lon="6.76867">
        <ele>1338.6</ele>
        <time>2021-06-26T09:40:03Z</time>
      </trkpt>
      <trkpt lat="46.21391" lon="6.7687">
        <ele>1338.8</ele>
        <time>2021-06-26T09:40:04Z</time>
      </trkpt>
      <trkpt lat="46.2139" lon="6.76873">
        <ele>1339.2</ele>
        <time>2021-06-26T09:40:05Z</time>
      </trkpt>
      <trkpt lat="46.21389" lon="6.76876">
        <ele>1339.4</ele>
        <time>2021-06-26T09:40:06Z</time>
      </trkpt>
      <trkpt lat="46.21388" lon="6.76879">
        <ele>1339.4</ele>
        <time>2021-06-26T09:40:07Z</time>
      </trkpt>
      <trkpt lat="46.21387" lon="6.76882">
        <ele>1339.6</ele>
        <time>2021-06-26T09:40:08Z</time>
      </trkpt>
      <trkpt lat="46.21385" lon="6.76885">
        <ele>1339.8</ele>
        <time>2021-06-26T09:40:09Z</time>
      </trkpt>
      <trkpt lat="46.21384" lon="6.76888">
        <ele>1340</ele>
        <time>2021-06-26T09:40:10Z</time>
      </trkpt>
      <trkpt lat="46.21383" lon="6.76891">
        <ele>1340.4</ele>
        <time>2021-06-26T09:40:11Z</time>
      </trkpt>
      <trkpt lat="46.21382" lon="6.76894">
        <ele>1340.4</ele>
        <time>2021-06-26T09:40:12Z</time>
      </trkpt>
      <trkpt lat="46.21381" lon="6.76897">
        <ele>1340.8</ele>
        <time>2021-06-26T09:40:13Z</time>
      </trkpt>
      <trkpt lat="46.2138" lon="6.769">
        <ele>1341</ele>
        <time>2021-06-26T09:40:14Z</time>
      </trkpt>
      <trkpt lat="46.21379" lon="6.76903">
        <ele>1341.2</ele>
        <time>2021-06-26T09:40:15Z</time>
      </trkpt>
      <trkpt lat="46.21377" lon="6.76905">
        <ele>1341.6</ele>
        <time>2021-06-26T09:40:16Z</time>
      </trkpt>
      <trkpt lat="46.21376" lon="6.76908">
        <ele>1341.6</ele>
        <time>2021-06-26T09:40:17Z</time>
      </trkpt>
      <trkpt lat="46.21375" lon="6.7691">
        <ele>1341.6</ele>
        <time>2021-06-26T09:40:18Z</time>
      </trkpt>
      <trkpt lat="46.21373" lon="6.76913">
        <ele>1341.8</ele>
        <time>2021-06-26T09:40:19Z</time>
      </trkpt>
      <trkpt lat="46.21372" lon="6.76915">
        <ele>1342.2</ele>
        <time>2021-06-26T09:40:20Z</time>
      </trkpt>
      <trkpt lat="46.21371" lon="6.76918">
        <ele>1342.6</ele>
        <time>2021-06-26T09:40:21Z</time>
      </trkpt>
      <trkpt lat="46.21369" lon="6.7692">
        <ele>1343</ele>
        <time>2021-06-26T09:40:22Z</time>
      </trkpt>
      <trkpt lat="46.21368" lon="6.76923">
        <ele>1343.2</ele>
        <time>2021-06-26T09:40:23Z</time>
      </trkpt>
      <trkpt lat="46.21367" lon="6.76926">
        <ele>1343.6</ele>
        <time>2021-06-26T09:40:24Z</time>
      </trkpt>
      <trkpt lat="46.21366" lon="6.76928">
        <ele>1343.6</ele>
        <time>2021-06-26T09:40:25Z</time>
      </trkpt>
      <trkpt lat="46.21365" lon="6.76931">
        <ele>1344</ele>
        <time>2021-06-26T09:40:26Z</time>
      </trkpt>
      <trkpt lat="46.21364" lon="6.76935">
        <ele>1344</ele>
        <time>2021-06-26T09:40:27Z</time>
      </trkpt>
      <trkpt lat="46.21364" lon="6.76938">
        <ele>1344.4</ele>
        <time>2021-06-26T09:40:28Z</time>
      </trkpt>
      <trkpt lat="46.21364" lon="6.76941">
        <ele>1344.6</ele>
        <time>2021-06-26T09:40:29Z</time>
      </trkpt>
      <trkpt lat="46.21364" lon="6.76944">
        <ele>1344.8</ele>
        <time>2021-06-26T09:40:30Z</time>
      </trkpt>
      <trkpt lat="46.21365" lon="6.76947">
        <ele>1345</ele>
        <time>2021-06-26T09:40:31Z</time>
      </trkpt>
      <trkpt lat="46.21367" lon="6.7695">
        <ele>1345.2</ele>
        <time>2021-06-26T09:40:32Z</time>
      </trkpt>
      <trkpt lat="46.21368" lon="6.76951">
        <ele>1345.6</ele>
        <time>2021-06-26T09:40:33Z</time>
      </trkpt>
      <trkpt lat="46.2137" lon="6.76953">
        <ele>1345.8</ele>
        <time>2021-06-26T09:40:34Z</time>
      </trkpt>
      <trkpt lat="46.21372" lon="6.76954">
        <ele>1346</ele>
        <time>2021-06-26T09:40:35Z</time>
      </trkpt>
      <trkpt lat="46.21374" lon="6.76955">
        <ele>1346.4</ele>
        <time>2021-06-26T09:40:36Z</time>
      </trkpt>
      <trkpt lat="46.21376" lon="6.76954">
        <ele>1346.6</ele>
        <time>2021-06-26T09:40:37Z</time>
      </trkpt>
      <trkpt lat="46.21379" lon="6.76953">
        <ele>1346.8</ele>
        <time>2021-06-26T09:40:38Z</time>
      </trkpt>
      <trkpt lat="46.21381" lon="6.76952">
        <ele>1347</ele>
        <time>2021-06-26T09:40:39Z</time>
      </trkpt>
      <trkpt lat="46.21383" lon="6.7695">
        <ele>1347</ele>
        <time>2021-06-26T09:40:40Z</time>
      </trkpt>
      <trkpt lat="46.21385" lon="6.76947">
        <ele>1347.4</ele>
        <time>2021-06-26T09:40:41Z</time>
      </trkpt>
      <trkpt lat="46.21386" lon="6.76944">
        <ele>1347.8</ele>
        <time>2021-06-26T09:40:42Z</time>
      </trkpt>
      <trkpt lat="46.21388" lon="6.76942">
        <ele>1348.2</ele>
        <time>2021-06-26T09:40:43Z</time>
      </trkpt>
      <trkpt lat="46.2139" lon="6.7694">
        <ele>1348.4</ele>
        <time>2021-06-26T09:40:44Z</time>
      </trkpt>
      <trkpt lat="46.21391" lon="6.76937">
        <ele>1348.6</ele>
        <time>2021-06-26T09:40:45Z</time>
      </trkpt>
      <trkpt lat="46.21393" lon="6.76936">
        <ele>1348.8</ele>
        <time>2021-06-26T09:40:46Z</time>
      </trkpt>
      <trkpt lat="46.21395" lon="6.76934">
        <ele>1349</ele>
        <time>2021-06-26T09:40:47Z</time>
      </trkpt>
      <trkpt lat="46.21397" lon="6.76932">
        <ele>1349</ele>
        <time>2021-06-26T09:40:48Z</time>
      </trkpt>
      <trkpt lat="46.21399" lon="6.7693">
        <ele>1349.2</ele>
        <time>2021-06-26T09:40:49Z</time>
      </trkpt>
      <trkpt lat="46.21401" lon="6.76929">
        <ele>1349.4</ele>
        <time>2021-06-26T09:40:50Z</time>
      </trkpt>
      <trkpt lat="46.21403" lon="6.76927">
        <ele>1349.6</ele>
        <time>2021-06-26T09:40:51Z</time>
      </trkpt>
      <trkpt lat="46.21405" lon="6.76925">
        <ele>1349.8</ele>
        <time>2021-06-26T09:40:52Z</time>
      </trkpt>
      <trkpt lat="46.21407" lon="6.76923">
        <ele>1350.2</ele>
        <time>2021-06-26T09:40:53Z</time>
      </trkpt>
      <trkpt lat="46.21409" lon="6.76921">
        <ele>1350.2</ele>
        <time>2021-06-26T09:40:54Z</time>
      </trkpt>
      <trkpt lat="46.21411" lon="6.7692">
        <ele>1350.6</ele>
        <time>2021-06-26T09:40:55Z</time>
      </trkpt>
      <trkpt lat="46.21413" lon="6.76918">
        <ele>1350.6</ele>
        <time>2021-06-26T09:40:56Z</time>
      </trkpt>
      <trkpt lat="46.21415" lon="6.76916">
        <ele>1350.8</ele>
        <time>2021-06-26T09:40:57Z</time>
      </trkpt>
      <trkpt lat="46.21417" lon="6.76915">
        <ele>1351.2</ele>
        <time>2021-06-26T09:40:58Z</time>
      </trkpt>
      <trkpt lat="46.21419" lon="6.76913">
        <ele>1351.2</ele>
        <time>2021-06-26T09:40:59Z</time>
      </trkpt>
      <trkpt lat="46.21421" lon="6.76911">
        <ele>1351.4</ele>
        <time>2021-06-26T09:41:00Z</time>
      </trkpt>
      <trkpt lat="46.21423" lon="6.7691">
        <ele>1351.8</ele>
        <time>2021-06-26T09:41:01Z</time>
      </trkpt>
      <trkpt lat="46.21425" lon="6.76908">
        <ele>1352</ele>
        <time>2021-06-26T09:41:02Z</time>
      </trkpt>
      <trkpt lat="46.21427" lon="6.76906">
        <ele>1352</ele>
        <time>2021-06-26T09:41:03Z</time>
      </trkpt>
      <trkpt lat="46.21429" lon="6.76905">
        <ele>1352.4</ele>
        <time>2021-06-26T09:41:04Z</time>
      </trkpt>
      <trkpt lat="46.21431" lon="6.76903">
        <ele>1352.6</ele>
        <time>2021-06-26T09:41:05Z</time>
      </trkpt>
      <trkpt lat="46.21433" lon="6.76901">
        <ele>1352.8</ele>
        <time>2021-06-26T09:41:06Z</time>
      </trkpt>
      <trkpt lat="46.21435" lon="6.76899">
        <ele>1353</ele>
        <time>2021-06-26T09:41:07Z</time>
      </trkpt>
      <trkpt lat="46.21437" lon="6.76898">
        <ele>1353.2</ele>
        <time>2021-06-26T09:41:08Z</time>
      </trkpt>
      <trkpt lat="46.21439" lon="6.76896">
        <ele>1353.6</ele>
        <time>2021-06-26T09:41:09Z</time>
      </trkpt>
      <trkpt lat="46.21441" lon="6.76894">
        <ele>1354</ele>
        <time>2021-06-26T09:41:10Z</time>
      </trkpt>
      <trkpt lat="46.21443" lon="6.76892">
        <ele>1354.2</ele>
        <time>2021-06-26T09:41:11Z</time>
      </trkpt>
      <trkpt lat="46.21445" lon="6.76891">
        <ele>1354.6</ele>
        <time>2021-06-26T09:41:12Z</time>
      </trkpt>
      <trkpt lat="46.21447" lon="6.76889">
        <ele>1354.6</ele>
        <time>2021-06-26T09:41:13Z</time>
      </trkpt>
      <trkpt lat="46.2145" lon="6.76888">
        <ele>1354.8</ele>
        <time>2021-06-26T09:41:14Z</time>
      </trkpt>
      <trkpt lat="46.21452" lon="6.76886">
        <ele>1355</ele>
        <time>2021-06-26T09:41:15Z</time>
      </trkpt>
      <trkpt lat="46.21454" lon="6.76885">
        <ele>1355.4</ele>
        <time>2021-06-26T09:41:16Z</time>
      </trkpt>
      <trkpt lat="46.21456" lon="6.76884">
        <ele>1355.6</ele>
        <time>2021-06-26T09:41:17Z</time>
      </trkpt>
      <trkpt lat="46.21458" lon="6.76883">
        <ele>1355.6</ele>
        <time>2021-06-26T09:41:18Z</time>
      </trkpt>
      <trkpt lat="46.21461" lon="6.76883">
        <ele>1356</ele>
        <time>2021-06-26T09:41:19Z</time>
      </trkpt>
      <trkpt lat="46.21463" lon="6.76884">
        <ele>1356</ele>
        <time>2021-06-26T09:41:20Z</time>
      </trkpt>
      <trkpt lat="46.21465" lon="6.76885">
        <ele>1356.4</ele>
        <time>2021-06-26T09:41:21Z</time>
      </trkpt>
      <trkpt lat="46.21466" lon="6.76887">
        <ele>1356.6</ele>
        <time>2021-06-26T09:41:22Z</time>
      </trkpt>
      <trkpt lat="46.21467" lon="6.7689">
        <ele>1356.8</ele>
        <time>2021-06-26T09:41:23Z</time>
      </trkpt>
      <trkpt lat="46.21466" lon="6.76893">
        <ele>1357</ele>
        <time>2021-06-26T09:41:24Z</time>
      </trkpt>
      <trkpt lat="46.21466" lon="6.76896">
        <ele>1357.2</ele>
        <time>2021-06-26T09:41:25Z</time>
      </trkpt>
      <trkpt lat="46.21465" lon="6.76898">
        <ele>1357.2</ele>
        <time>2021-06-26T09:41:26Z</time>
      </trkpt>
      <trkpt lat="46.21463" lon="6.769">
        <ele>1357.4</ele>
        <time>2021-06-26T09:41:27Z</time>
      </trkpt>
      <trkpt lat="46.21461" lon="6.76901">
        <ele>1357.6</ele>
        <time>2021-06-26T09:41:28Z</time>
      </trkpt>
      <trkpt lat="46.2146" lon="6.76903">
        <ele>1358</ele>
        <time>2021-06-26T09:41:29Z</time>
      </trkpt>
      <trkpt lat="46.21458" lon="6.76904">
        <ele>1358.2</ele>
        <time>2021-06-26T09:41:30Z</time>
      </trkpt>
      <trkpt lat="46.21455" lon="6.76905">
        <ele>1358.6</ele>
        <time>2021-06-26T09:41:31Z</time>
      </trkpt>
      <trkpt lat="46.21453" lon="6.76907">
        <ele>1359</ele>
        <time>2021-06-26T09:41:32Z</time>
      </trkpt>
      <trkpt lat="46.21451" lon="6.76908">
        <ele>1359.2</ele>
        <time>2021-06-26T09:41:33Z</time>
      </trkpt>
      <trkpt lat="46.21448" lon="6.7691">
        <ele>1359.4</ele>
        <time>2021-06-26T09:41:34Z</time>
      </trkpt>
      <trkpt lat="46.21446" lon="6.76912">
        <ele>1359.4</ele>
        <time>2021-06-26T09:41:35Z</time>
      </trkpt>
      <trkpt lat="46.21444" lon="6.76914">
        <ele>1359.6</ele>
        <time>2021-06-26T09:41:36Z</time>
      </trkpt>
      <trkpt lat="46.21442" lon="6.76917">
        <ele>1359.8</ele>
        <time>2021-06-26T09:41:37Z</time>
      </trkpt>
      <trkpt lat="46.2144" lon="6.76919">
        <ele>1360</ele>
        <time>2021-06-26T09:41:38Z</time>
      </trkpt>
      <trkpt lat="46.21438" lon="6.76921">
        <ele>1360.4</ele>
        <time>2021-06-26T09:41:39Z</time>
      </trkpt>
      <trkpt lat="46.21436" lon="6.76924">
        <ele>1360.6</ele>
        <time>2021-06-26T09:41:40Z</time>
      </trkpt>
      <trkpt lat="46.21434" lon="6.76926">
        <ele>1360.8</ele>
        <time>2021-06-26T09:41:41Z</time>
      </trkpt>
      <trkpt lat="46.21432" lon="6.76929">
        <ele>1361</ele>
        <time>2021-06-26T09:41:42Z</time>
      </trkpt>
      <trkpt lat="46.21431" lon="6.76932">
        <ele>1361</ele>
        <time>2021-06-26T09:41:43Z</time>
      </trkpt>
      <trkpt lat="46.21429" lon="6.76934">
        <ele>1361.4</ele>
        <time>2021-06-26T09:41:44Z</time>
      </trkpt>
      <trkpt lat="46.21427" lon="6.76937">
        <ele>1361.8</ele>
        <time>2021-06-26T09:41:45Z</time>
      </trkpt>
      <trkpt lat="46.21426" lon="6.76939">
        <ele>1362.2</ele>
        <time>2021-06-26T09:41:46Z</time>
      </trkpt>
      <trkpt lat="46.21424" lon="6.76942">
        <ele>1362.2</ele>
        <time>2021-06-26T09:41:47Z</time>
      </trkpt>
      <trkpt lat="46.21423" lon="6.76945">
        <ele>1362.2</ele>
        <time>2021-06-26T09:41:48Z</time>
      </trkpt>
      <trkpt lat="46.21421" lon="6.76948">
        <ele>1362.4</ele>
        <time>2021-06-26T09:41:49Z</time>
      </trkpt>
      <trkpt lat="46.21419" lon="6.7695">
        <ele>1362.6</ele>
        <time>2021-06-26T09:41:50Z</time>
      </trkpt>
      <trkpt lat="46.21418" lon="6.76953">
        <ele>1362.8</ele>
        <time>2021-06-26T09:41:51Z</time>
      </trkpt>
      <trkpt lat="46.21417" lon="6.76955">
        <ele>1363</ele>
        <time>2021-06-26T09:41:52Z</time>
      </trkpt>
      <trkpt lat="46.21415" lon="6.76958">
        <ele>1363.2</ele>
        <time>2021-06-26T09:41:53Z</time>
      </trkpt>
      <trkpt lat="46.21414" lon="6.76961">
        <ele>1363.6</ele>
        <time>2021-06-26T09:41:54Z</time>
      </trkpt>
      <trkpt lat="46.21413" lon="6.76964">
        <ele>1363.8</ele>
        <time>2021-06-26T09:41:55Z</time>
      </trkpt>
      <trkpt lat="46.21412" lon="6.76967">
        <ele>1364.2</ele>
        <time>2021-06-26T09:41:56Z</time>
      </trkpt>
      <trkpt lat="46.21411" lon="6.7697">
        <ele>1364.4</ele>
        <time>2021-06-26T09:41:57Z</time>
      </trkpt>
      <trkpt lat="46.2141" lon="6.76973">
        <ele>1364.6</ele>
        <time>2021-06-26T09:41:58Z</time>
      </trkpt>
      <trkpt lat="46.2141" lon="6.76976">
        <ele>1364.8</ele>
        <time>2021-06-26T09:41:59Z</time>
      </trkpt>
      <trkpt lat="46.21409" lon="6.76979">
        <ele>1365.2</ele>
        <time>2021-06-26T09:42:00Z</time>
      </trkpt>
      <trkpt lat="46.21409" lon="6.76982">
        <ele>1365.6</ele>
        <time>2021-06-26T09:42:01Z</time>
      </trkpt>
      <trkpt lat="46.21409" lon="6.76986">
        <ele>1365.8</ele>
        <time>2021-06-26T09:42:02Z</time>
      </trkpt>
      <trkpt lat="46.21408" lon="6.76989">
        <ele>1366</ele>
        <time>2021-06-26T09:42:03Z</time>
      </trkpt>
      <trkpt lat="46.21408" lon="6.76992">
        <ele>1366.4</ele>
        <time>2021-06-26T09:42:04Z</time>
      </trkpt>
      <trkpt lat="46.21408" lon="6.76995">
        <ele>1366.4</ele>
        <time>2021-06-26T09:42:05Z</time>
      </trkpt>
      <trkpt lat="46.21408" lon="6.76998">
        <ele>1366.8</ele>
        <time>2021-06-26T09:42:06Z</time>
      </trkpt>
      <trkpt lat="46.21407" lon="6.77001">
        <ele>1366.8</ele>
        <time>2021-06-26T09:42:07Z</time>
      </trkpt>
      <trkpt lat="46.21407" lon="6.77004">
        <ele>1367.2</ele>
        <time>2021-06-26T09:42:08Z</time>
      </trkpt>
      <trkpt lat="46.21406" lon="6.77008">
        <ele>1367.4</ele>
        <time>2021-06-26T09:42:09Z</time>
      </trkpt>
      <trkpt lat="46.21405" lon="6.77011">
        <ele>1367.6</ele>
        <time>2021-06-26T09:42:10Z</time>
      </trkpt>
      <trkpt lat="46.21405" lon="6.77014">
        <ele>1367.6</ele>
        <time>2021-06-26T09:42:11Z</time>
      </trkpt>
      <trkpt lat="46.21404" lon="6.77016">
        <ele>1368</ele>
        <time>2021-06-26T09:42:12Z</time>
      </trkpt>
      <trkpt lat="46.21403" lon="6.77019">
        <ele>1368</ele>
        <time>2021-06-26T09:42:13Z</time>
      </trkpt>
      <trkpt lat="46.21402" lon="6.77021">
        <ele>1368.4</ele>
        <time>2021-06-26T09:42:14Z</time>
      </trkpt>
      <trkpt lat="46.21401" lon="6.77023">
        <ele>1368.6</ele>
        <time>2021-06-26T09:42:15Z</time>
      </trkpt>
      <trkpt lat="46.21399" lon="6.77025">
        <ele>1368.8</ele>
        <time>2021-06-26T09:42:16Z</time>
      </trkpt>
      <trkpt lat="46.21398" lon="6.77027">
        <ele>1369</ele>
        <time>2021-06-26T09:42:17Z</time>
      </trkpt>
      <trkpt lat="46.21396" lon="6.77029">
        <ele>1369</ele>
        <time>2021-06-26T09:42:18Z</time>
      </trkpt>
      <trkpt lat="46.21394" lon="6.77031">
        <ele>1369.2</ele>
        <time>2021-06-26T09:42:19Z</time>
      </trkpt>
      <trkpt lat="46.21392" lon="6.77032">
        <ele>1369.4</ele>
        <time>2021-06-26T09:42:20Z</time>
      </trkpt>
      <trkpt lat="46.2139" lon="6.77034">
        <ele>1369.6</ele>
        <time>2021-06-26T09:42:21Z</time>
      </trkpt>
      <trkpt lat="46.21388" lon="6.77035">
        <ele>1369.8</ele>
        <time>2021-06-26T09:42:22Z</time>
      </trkpt>
      <trkpt lat="46.21386" lon="6.77036">
        <ele>1370.2</ele>
        <time>2021-06-26T09:42:23Z</time>
      </trkpt>
      <trkpt lat="46.21384" lon="6.77038">
        <ele>1370.4</ele>
        <time>2021-06-26T09:42:24Z</time>
      </trkpt>
      <trkpt lat="46.21382" lon="6.77039">
        <ele>1370.6</ele>
        <time>2021-06-26T09:42:25Z</time>
      </trkpt>
      <trkpt lat="46.2138" lon="6.77041">
        <ele>1371</ele>
        <time>2021-06-26T09:42:26Z</time>
      </trkpt>
      <trkpt lat="46.21378" lon="6.77042">
        <ele>1371.2</ele>
        <time>2021-06-26T09:42:27Z</time>
      </trkpt>
      <trkpt lat="46.21377" lon="6.77044">
        <ele>1371.6</ele>
        <time>2021-06-26T09:42:28Z</time>
      </trkpt>
      <trkpt lat="46.21375" lon="6.77045">
        <ele>1371.8</ele>
        <time>2021-06-26T09:42:29Z</time>
      </trkpt>
      <trkpt lat="46.21373" lon="6.77046">
        <ele>1372.2</ele>
        <time>2021-06-26T09:42:30Z</time>
      </trkpt>
      <trkpt lat="46.21371" lon="6.77048">
        <ele>1372.4</ele>
        <time>2021-06-26T09:42:31Z</time>
      </trkpt>
      <trkpt lat="46.21369" lon="6.77049">
        <ele>1372.6</ele>
        <time>2021-06-26T09:42:32Z</time>
      </trkpt>
      <trkpt lat="46.21367" lon="6.77051">
        <ele>1372.8</ele>
        <time>2021-06-26T09:42:33Z</time>
      </trkpt>
      <trkpt lat="46.21365" lon="6.77052">
        <ele>1372.8</ele>
        <time>2021-06-26T09:42:34Z</time>
      </trkpt>
      <trkpt lat="46.21363" lon="6.77054">
        <ele>1373</ele>
        <time>2021-06-26T09:42:35Z</time>
      </trkpt>
      <trkpt lat="46.21362" lon="6.77056">
        <ele>1373.2</ele>
        <time>2021-06-26T09:42:36Z</time>
      </trkpt>
      <trkpt lat="46.2136" lon="6.77058">
        <ele>1373.4</ele>
        <time>2021-06-26T09:42:37Z</time>
      </trkpt>
      <trkpt lat="46.21358" lon="6.7706">
        <ele>1373.8</ele>
        <time>2021-06-26T09:42:38Z</time>
      </trkpt>
      <trkpt lat="46.21356" lon="6.77062">
        <ele>1374.2</ele>
        <time>2021-06-26T09:42:39Z</time>
      </trkpt>
      <trkpt lat="46.21355" lon="6.77064">
        <ele>1374.4</ele>
        <time>2021-06-26T09:42:40Z</time>
      </trkpt>
      <trkpt lat="46.21353" lon="6.77067">
        <ele>1374.6</ele>
        <time>2021-06-26T09:42:41Z</time>
      </trkpt>
      <trkpt lat="46.21352" lon="6.77069">
        <ele>1374.8</ele>
        <time>2021-06-26T09:42:42Z</time>
      </trkpt>
      <trkpt lat="46.2135" lon="6.77071">
        <ele>1375.2</ele>
        <time>2021-06-26T09:42:43Z</time>
      </trkpt>
      <trkpt lat="46.21348" lon="6.77074">
        <ele>1375.4</ele>
        <time>2021-06-26T09:42:44Z</time>
      </trkpt>
      <trkpt lat="46.21347" lon="6.77076">
        <ele>1375.6</ele>
        <time>2021-06-26T09:42:45Z</time>
      </trkpt>
      <trkpt lat="46.21346" lon="6.77078">
        <ele>1375.8</ele>
        <time>2021-06-26T09:42:46Z</time>
      </trkpt>
      <trkpt lat="46.21344" lon="6.7708">
        <ele>1376.2</ele>
        <time>2021-06-26T09:42:47Z</time>
      </trkpt>
      <trkpt lat="46.21343" lon="6.77083">
        <ele>1376.2</ele>
        <time>2021-06-26T09:42:48Z</time>
      </trkpt>
      <trkpt lat="46.21341" lon="6.77085">
        <ele>1376.4</ele>
        <time>2021-06-26T09:42:49Z</time>
      </trkpt>
      <trkpt lat="46.2134" lon="6.77087">
        <ele>1376.6</ele>
        <time>2021-06-26T09:42:50Z</time>
      </trkpt>
      <trkpt lat="46.21338" lon="6.77089">
        <ele>1377</ele>
        <time>2021-06-26T09:42:51Z</time>
      </trkpt>
      <trkpt lat="46.21336" lon="6.77091">
        <ele>1377.2</ele>
        <time>2021-06-26T09:42:52Z</time>
      </trkpt>
      <trkpt lat="46.21335" lon="6.77094">
        <ele>1377.6</ele>
        <time>2021-06-26T09:42:53Z</time>
      </trkpt>
      <trkpt lat="46.21334" lon="6.77096">
        <ele>1378</ele>
        <time>2021-06-26T09:42:54Z</time>
      </trkpt>
      <trkpt lat="46.21333" lon="6.77099">
        <ele>1378.2</ele>
        <time>2021-06-26T09:42:55Z</time>
      </trkpt>
      <trkpt lat="46.21333" lon="6.77102">
        <ele>1378.2</ele>
        <time>2021-06-26T09:42:56Z</time>
      </trkpt>
      <trkpt lat="46.21332" lon="6.77104">
        <ele>1378.4</ele>
        <time>2021-06-26T09:42:57Z</time>
      </trkpt>
      <trkpt lat="46.21332" lon="6.77106">
        <ele>1378.6</ele>
        <time>2021-06-26T09:42:58Z</time>
      </trkpt>
      <trkpt lat="46.21332" lon="6.77108">
        <ele>1379</ele>
        <time>2021-06-26T09:42:59Z</time>
      </trkpt>
      <trkpt lat="46.21333" lon="6.77111">
        <ele>1379</ele>
        <time>2021-06-26T09:43:00Z</time>
      </trkpt>
      <trkpt lat="46.21335" lon="6.77114">
        <ele>1379.4</ele>
        <time>2021-06-26T09:43:01Z</time>
      </trkpt>
      <trkpt lat="46.21337" lon="6.77116">
        <ele>1379.6</ele>
        <time>2021-06-26T09:43:02Z</time>
      </trkpt>
      <trkpt lat="46.21339" lon="6.77117">
        <ele>1380</ele>
        <time>2021-06-26T09:43:03Z</time>
      </trkpt>
      <trkpt lat="46.21342" lon="6.77118">
        <ele>1380.2</ele>
        <time>2021-06-26T09:43:04Z</time>
      </trkpt>
      <trkpt lat="46.21345" lon="6.77118">
        <ele>1380.2</ele>
        <time>2021-06-26T09:43:05Z</time>
      </trkpt>
      <trkpt lat="46.21347" lon="6.77117">
        <ele>1380.6</ele>
        <time>2021-06-26T09:43:06Z</time>
      </trkpt>
      <trkpt lat="46.21349" lon="6.77115">
        <ele>1380.8</ele>
        <time>2021-06-26T09:43:07Z</time>
      </trkpt>
      <trkpt lat="46.21351" lon="6.77113">
        <ele>1381</ele>
        <time>2021-06-26T09:43:08Z</time>
      </trkpt>
      <trkpt lat="46.21353" lon="6.7711">
        <ele>1381.4</ele>
        <time>2021-06-26T09:43:09Z</time>
      </trkpt>
      <trkpt lat="46.21355" lon="6.77108">
        <ele>1381.6</ele>
        <time>2021-06-26T09:43:10Z</time>
      </trkpt>
      <trkpt lat="46.21357" lon="6.77106">
        <ele>1381.8</ele>
        <time>2021-06-26T09:43:11Z</time>
      </trkpt>
      <trkpt lat="46.21359" lon="6.77104">
        <ele>1381.8</ele>
        <time>2021-06-26T09:43:12Z</time>
      </trkpt>
      <trkpt lat="46.21361" lon="6.77101">
        <ele>1382.2</ele>
        <time>2021-06-26T09:43:13Z</time>
      </trkpt>
      <trkpt lat="46.21362" lon="6.77099">
        <ele>1382.2</ele>
        <time>2021-06-26T09:43:14Z</time>
      </trkpt>
      <trkpt lat="46.21364" lon="6.77096">
        <ele>1382.6</ele>
        <time>2021-06-26T09:43:15Z</time>
      </trkpt>
      <trkpt lat="46.21365" lon="6.77094">
        <ele>1382.8</ele>
        <time>2021-06-26T09:43:16Z</time>
      </trkpt>
      <trkpt lat="46.21367" lon="6.77092">
        <ele>1383</ele>
        <time>2021-06-26T09:43:17Z</time>
      </trkpt>
      <trkpt lat="46.21369" lon="6.7709">
        <ele>1383.2</ele>
        <time>2021-06-26T09:43:18Z</time>
      </trkpt>
      <trkpt lat="46.21371" lon="6.77089">
        <ele>1383.2</ele>
        <time>2021-06-26T09:43:19Z</time>
      </trkpt>
      <trkpt lat="46.21373" lon="6.77087">
        <ele>1383.4</ele>
        <time>2021-06-26T09:43:20Z</time>
      </trkpt>
      <trkpt lat="46.21375" lon="6.77086">
        <ele>1383.6</ele>
        <time>2021-06-26T09:43:21Z</time>
      </trkpt>
      <trkpt lat="46.21378" lon="6.77086">
        <ele>1383.8</ele>
        <time>2021-06-26T09:43:22Z</time>
      </trkpt>
      <trkpt lat="46.2138" lon="6.77085">
        <ele>1384</ele>
        <time>2021-06-26T09:43:23Z</time>
      </trkpt>
      <trkpt lat="46.21382" lon="6.77085">
        <ele>1384.2</ele>
        <time>2021-06-26T09:43:24Z</time>
      </trkpt>
      <trkpt lat="46.21384" lon="6.77085">
        <ele>1384.4</ele>
        <time>2021-06-26T09:43:25Z</time>
      </trkpt>
      <trkpt lat="46.21387" lon="6.77084">
        <ele>1384.6</ele>
        <time>2021-06-26T09:43:26Z</time>
      </trkpt>
      <trkpt lat="46.21389" lon="6.77084">
        <ele>1385</ele>
        <time>2021-06-26T09:43:27Z</time>
      </trkpt>
      <trkpt lat="46.21391" lon="6.77084">
        <ele>1385.2</ele>
        <time>2021-06-26T09:43:28Z</time>
      </trkpt>
      <trkpt lat="46.21394" lon="6.77084">
        <ele>1385.4</ele>
        <time>2021-06-26T09:43:29Z</time>
      </trkpt>
      <trkpt lat="46.21396" lon="6.77084">
        <ele>1385.6</ele>
        <time>2021-06-26T09:43:30Z</time>
      </trkpt>
      <trkpt lat="46.21398" lon="6.77084">
        <ele>1385.8</ele>
        <time>2021-06-26T09:43:31Z</time>
      </trkpt>
      <trkpt lat="46.21401" lon="6.77083">
        <ele>1386.2</ele>
        <time>2021-06-26T09:43:32Z</time>
      </trkpt>
      <trkpt lat="46.21403" lon="6.77083">
        <ele>1386.4</ele>
        <time>2021-06-26T09:43:33Z</time>
      </trkpt>
      <trkpt lat="46.21406" lon="6.77083">
        <ele>1386.6</ele>
        <time>2021-06-26T09:43:34Z</time>
      </trkpt>
      <trkpt lat="46.21408" lon="6.77083">
        <ele>1386.8</ele>
        <time>2021-06-26T09:43:35Z</time>
      </trkpt>
      <trkpt lat="46.21411" lon="6.77082">
        <ele>1387</ele>
        <time>2021-06-26T09:43:36Z</time>
      </trkpt>
      <trkpt lat="46.21413" lon="6.77082">
        <ele>1387.2</ele>
        <time>2021-06-26T09:43:37Z</time>
      </trkpt>
      <trkpt lat="46.21416" lon="6.77081">
        <ele>1387.4</ele>
        <time>2021-06-26T09:43:38Z</time>
      </trkpt>
      <trkpt lat="46.21418" lon="6.7708">
        <ele>1387.6</ele>
        <time>2021-06-26T09:43:39Z</time>
      </trkpt>
      <trkpt lat="46.2142" lon="6.77079">
        <ele>1387.8</ele>
        <time>2021-06-26T09:43:40Z</time>
      </trkpt>
      <trkpt lat="46.21422" lon="6.77077">
        <ele>1388.4</ele>
        <time>2021-06-26T09:43:41Z</time>
      </trkpt>
      <trkpt lat="46.21424" lon="6.77074">
        <ele>1388.4</ele>
        <time>2021-06-26T09:43:42Z</time>
      </trkpt>
      <trkpt lat="46.21425" lon="6.77072">
        <ele>1388.6</ele>
        <time>2021-06-26T09:43:43Z</time>
      </trkpt>
      <trkpt lat="46.21427" lon="6.7707">
        <ele>1388.8</ele>
        <time>2021-06-26T09:43:44Z</time>
      </trkpt>
      <trkpt lat="46.21429" lon="6.77069">
        <ele>1389.2</ele>
        <time>2021-06-26T09:43:45Z</time>
      </trkpt>
      <trkpt lat="46.21431" lon="6.77067">
        <ele>1389.4</ele>
        <time>2021-06-26T09:43:46Z</time>
      </trkpt>
      <trkpt lat="46.21433" lon="6.77066">
        <ele>1389.6</ele>
        <time>2021-06-26T09:43:47Z</time>
      </trkpt>
      <trkpt lat="46.21435" lon="6.77064">
        <ele>1389.8</ele>
        <time>2021-06-26T09:43:48Z</time>
      </trkpt>
      <trkpt lat="46.21437" lon="6.77063">
        <ele>1389.8</ele>
        <time>2021-06-26T09:43:49Z</time>
      </trkpt>
      <trkpt lat="46.21439" lon="6.77061">
        <ele>1390.2</ele>
        <time>2021-06-26T09:43:50Z</time>
      </trkpt>
      <trkpt lat="46.21441" lon="6.7706">
        <ele>1390.4</ele>
        <time>2021-06-26T09:43:51Z</time>
      </trkpt>
      <trkpt lat="46.21443" lon="6.77059">
        <ele>1390.6</ele>
        <time>2021-06-26T09:43:52Z</time>
      </trkpt>
      <trkpt lat="46.21445" lon="6.77057">
        <ele>1391</ele>
        <time>2021-06-26T09:43:53Z</time>
      </trkpt>
      <trkpt lat="46.21447" lon="6.77057">
        <ele>1391</ele>
        <time>2021-06-26T09:43:54Z</time>
      </trkpt>
      <trkpt lat="46.21449" lon="6.77057">
        <ele>1391.2</ele>
        <time>2021-06-26T09:43:55Z</time>
      </trkpt>
      <trkpt lat="46.21451" lon="6.77057">
        <ele>1391.4</ele>
        <time>2021-06-26T09:43:56Z</time>
      </trkpt>
      <trkpt lat="46.21452" lon="6.77059">
        <ele>1391.8</ele>
        <time>2021-06-26T09:43:57Z</time>
      </trkpt>
      <trkpt lat="46.21453" lon="6.77061">
        <ele>1392</ele>
        <time>2021-06-26T09:43:58Z</time>
      </trkpt>
      <trkpt lat="46.21454" lon="6.77063">
        <ele>1392.2</ele>
        <time>2021-06-26T09:43:59Z</time>
      </trkpt>
      <trkpt lat="46.21454" lon="6.77065">
        <ele>1392.4</ele>
        <time>2021-06-26T09:44:00Z</time>
      </trkpt>
      <trkpt lat="46.21453" lon="6.77067">
        <ele>1392.6</ele>
        <time>2021-06-26T09:44:01Z</time>
      </trkpt>
      <trkpt lat="46.21452" lon="6.77069">
        <ele>1392.8</ele>
        <time>2021-06-26T09:44:02Z</time>
      </trkpt>
      <trkpt lat="46.2145" lon="6.7707">
        <ele>1393</ele>
        <time>2021-06-26T09:44:03Z</time>
      </trkpt>
      <trkpt lat="46.21448" lon="6.77072">
        <ele>1393</ele>
        <time>2021-06-26T09:44:04Z</time>
      </trkpt>
      <trkpt lat="46.21447" lon="6.77073">
        <ele>1393.2</ele>
        <time>2021-06-26T09:44:05Z</time>
      </trkpt>
      <trkpt lat="46.21445" lon="6.77074">
        <ele>1393.2</ele>
        <time>2021-06-26T09:44:06Z</time>
      </trkpt>
      <trkpt lat="46.21443" lon="6.77075">
        <ele>1393.6</ele>
        <time>2021-06-26T09:44:07Z</time>
      </trkpt>
      <trkpt lat="46.21441" lon="6.77077">
        <ele>1394.2</ele>
        <time>2021-06-26T09:44:08Z</time>
      </trkpt>
      <trkpt lat="46.2144" lon="6.77079">
        <ele>1394.4</ele>
        <time>2021-06-26T09:44:09Z</time>
      </trkpt>
      <trkpt lat="46.21437" lon="6.7708">
        <ele>1394.8</ele>
        <time>2021-06-26T09:44:10Z</time>
      </trkpt>
      <trkpt lat="46.21434" lon="6.77082">
        <ele>1395.2</ele>
        <time>2021-06-26T09:44:11Z</time>
      </trkpt>
      <trkpt lat="46.21432" lon="6.77084">
        <ele>1395.6</ele>
        <time>2021-06-26T09:44:12Z</time>
      </trkpt>
      <trkpt lat="46.21431" lon="6.77085">
        <ele>1396</ele>
        <time>2021-06-26T09:44:13Z</time>
      </trkpt>
      <trkpt lat="46.21429" lon="6.77087">
        <ele>1396.2</ele>
        <time>2021-06-26T09:44:14Z</time>
      </trkpt>
      <trkpt lat="46.21427" lon="6.77088">
        <ele>1396.6</ele>
        <time>2021-06-26T09:44:15Z</time>
      </trkpt>
      <trkpt lat="46.21424" lon="6.7709">
        <ele>1396.8</ele>
        <time>2021-06-26T09:44:16Z</time>
      </trkpt>
      <trkpt lat="46.21422" lon="6.77092">
        <ele>1397</ele>
        <time>2021-06-26T09:44:17Z</time>
      </trkpt>
      <trkpt lat="46.21419" lon="6.77094">
        <ele>1397.4</ele>
        <time>2021-06-26T09:44:18Z</time>
      </trkpt>
      <trkpt lat="46.21417" lon="6.77096">
        <ele>1397.4</ele>
        <time>2021-06-26T09:44:19Z</time>
      </trkpt>
      <trkpt lat="46.21415" lon="6.77098">
        <ele>1397.6</ele>
        <time>2021-06-26T09:44:20Z</time>
      </trkpt>
      <trkpt lat="46.21413" lon="6.77099">
        <ele>1397.8</ele>
        <time>2021-06-26T09:44:21Z</time>
      </trkpt>
      <trkpt lat="46.2141" lon="6.771">
        <ele>1398.2</ele>
        <time>2021-06-26T09:44:22Z</time>
      </trkpt>
      <trkpt lat="46.21408" lon="6.77101">
        <ele>1398.4</ele>
        <time>2021-06-26T09:44:23Z</time>
      </trkpt>
      <trkpt lat="46.21406" lon="6.77102">
        <ele>1398.6</ele>
        <time>2021-06-26T09:44:24Z</time>
      </trkpt>
      <trkpt lat="46.21404" lon="6.77103">
        <ele>1398.8</ele>
        <time>2021-06-26T09:44:25Z</time>
      </trkpt>
      <trkpt lat="46.21401" lon="6.77104">
        <ele>1399</ele>
        <time>2021-06-26T09:44:26Z</time>
      </trkpt>
      <trkpt lat="46.21399" lon="6.77105">
        <ele>1399</ele>
        <time>2021-06-26T09:44:27Z</time>
      </trkpt>
      <trkpt lat="46.21397" lon="6.77106">
        <ele>1399.2</ele>
        <time>2021-06-26T09:44:28Z</time>
      </trkpt>
      <trkpt lat="46.21394" lon="6.77106">
        <ele>1399.4</ele>
        <time>2021-06-26T09:44:29Z</time>
      </trkpt>
      <trkpt lat="46.21392" lon="6.77107">
        <ele>1399.6</ele>
        <time>2021-06-26T09:44:30Z</time>
      </trkpt>
      <trkpt lat="46.2139" lon="6.77108">
        <ele>1399.8</ele>
        <time>2021-06-26T09:44:31Z</time>
      </trkpt>
      <trkpt lat="46.21388" lon="6.7711">
        <ele>1400.2</ele>
        <time>2021-06-26T09:44:32Z</time>
      </trkpt>
      <trkpt lat="46.21386" lon="6.77111">
        <ele>1400.6</ele>
        <time>2021-06-26T09:44:33Z</time>
      </trkpt>
      <trkpt lat="46.21385" lon="6.77114">
        <ele>1400.6</ele>
        <time>2021-06-26T09:44:34Z</time>
      </trkpt>
      <trkpt lat="46.21383" lon="6.77116">
        <ele>1400.8</ele>
        <time>2021-06-26T09:44:35Z</time>
      </trkpt>
      <trkpt lat="46.21381" lon="6.77118">
        <ele>1401</ele>
        <time>2021-06-26T09:44:36Z</time>
      </trkpt>
      <trkpt lat="46.2138" lon="6.77121">
        <ele>1401.4</ele>
        <time>2021-06-26T09:44:37Z</time>
      </trkpt>
      <trkpt lat="46.21379" lon="6.77124">
        <ele>1401.6</ele>
        <time>2021-06-26T09:44:38Z</time>
      </trkpt>
      <trkpt lat="46.21378" lon="6.77127">
        <ele>1401.8</ele>
        <time>2021-06-26T09:44:39Z</time>
      </trkpt>
      <trkpt lat="46.21376" lon="6.7713">
        <ele>1402</ele>
        <time>2021-06-26T09:44:40Z</time>
      </trkpt>
      <trkpt lat="46.21375" lon="6.77133">
        <ele>1402.4</ele>
        <time>2021-06-26T09:44:41Z</time>
      </trkpt>
      <trkpt lat="46.21373" lon="6.77135">
        <ele>1402.8</ele>
        <time>2021-06-26T09:44:42Z</time>
      </trkpt>
      <trkpt lat="46.21372" lon="6.77138">
        <ele>1402.8</ele>
        <time>2021-06-26T09:44:43Z</time>
      </trkpt>
      <trkpt lat="46.21371" lon="6.77141">
        <ele>1403</ele>
        <time>2021-06-26T09:44:44Z</time>
      </trkpt>
      <trkpt lat="46.2137" lon="6.77144">
        <ele>1403.2</ele>
        <time>2021-06-26T09:44:45Z</time>
      </trkpt>
      <trkpt lat="46.21368" lon="6.77146">
        <ele>1403.4</ele>
        <time>2021-06-26T09:44:46Z</time>
      </trkpt>
      <trkpt lat="46.21366" lon="6.77148">
        <ele>1403.4</ele>
        <time>2021-06-26T09:44:47Z</time>
      </trkpt>
      <trkpt lat="46.21365" lon="6.7715">
        <ele>1403.6</ele>
        <time>2021-06-26T09:44:48Z</time>
      </trkpt>
      <trkpt lat="46.21363" lon="6.77151">
        <ele>1403.8</ele>
        <time>2021-06-26T09:44:49Z</time>
      </trkpt>
      <trkpt lat="46.21361" lon="6.77152">
        <ele>1403.8</ele>
        <time>2021-06-26T09:44:50Z</time>
      </trkpt>
      <trkpt lat="46.21359" lon="6.77153">
        <ele>1404</ele>
        <time>2021-06-26T09:44:51Z</time>
      </trkpt>
      <trkpt lat="46.21357" lon="6.77154">
        <ele>1404.4</ele>
        <time>2021-06-26T09:44:52Z</time>
      </trkpt>
      <trkpt lat="46.21356" lon="6.77155">
        <ele>1404.4</ele>
        <time>2021-06-26T09:44:53Z</time>
      </trkpt>
      <trkpt lat="46.21355" lon="6.77156">
        <ele>1404.8</ele>
        <time>2021-06-26T09:44:54Z</time>
      </trkpt>
      <trkpt lat="46.21353" lon="6.77157">
        <ele>1405</ele>
        <time>2021-06-26T09:44:55Z</time>
      </trkpt>
      <trkpt lat="46.21351" lon="6.77158">
        <ele>1405.6</ele>
        <time>2021-06-26T09:44:56Z</time>
      </trkpt>
      <trkpt lat="46.21349" lon="6.77159">
        <ele>1405.8</ele>
        <time>2021-06-26T09:44:57Z</time>
      </trkpt>
      <trkpt lat="46.21346" lon="6.7716">
        <ele>1406</ele>
        <time>2021-06-26T09:44:58Z</time>
      </trkpt>
      <trkpt lat="46.21344" lon="6.77162">
        <ele>1406.4</ele>
        <time>2021-06-26T09:44:59Z</time>
      </trkpt>
      <trkpt lat="46.21342" lon="6.77163">
        <ele>1406.8</ele>
        <time>2021-06-26T09:45:00Z</time>
      </trkpt>
      <trkpt lat="46.2134" lon="6.77164">
        <ele>1407</ele>
        <time>2021-06-26T09:45:01Z</time>
      </trkpt>
      <trkpt lat="46.21337" lon="6.77164">
        <ele>1407.4</ele>
        <time>2021-06-26T09:45:02Z</time>
      </trkpt>
      <trkpt lat="46.21335" lon="6.77165">
        <ele>1407.6</ele>
        <time>2021-06-26T09:45:03Z</time>
      </trkpt>
      <trkpt lat="46.21333" lon="6.77166">
        <ele>1407.8</ele>
        <time>2021-06-26T09:45:04Z</time>
      </trkpt>
      <trkpt lat="46.2133" lon="6.77167">
        <ele>1408</ele>
        <time>2021-06-26T09:45:05Z</time>
      </trkpt>
      <trkpt lat="46.21328" lon="6.77168">
        <ele>1408.4</ele>
        <time>2021-06-26T09:45:06Z</time>
      </trkpt>
      <trkpt lat="46.21326" lon="6.77169">
        <ele>1408.8</ele>
        <time>2021-06-26T09:45:07Z</time>
      </trkpt>
      <trkpt lat="46.21325" lon="6.7717">
        <ele>1409.2</ele>
        <time>2021-06-26T09:45:08Z</time>
      </trkpt>
      <trkpt lat="46.21322" lon="6.7717">
        <ele>1409.4</ele>
        <time>2021-06-26T09:45:09Z</time>
      </trkpt>
      <trkpt lat="46.2132" lon="6.77169">
        <ele>1409.8</ele>
        <time>2021-06-26T09:45:10Z</time>
      </trkpt>
      <trkpt lat="46.21318" lon="6.77171">
        <ele>1410</ele>
        <time>2021-06-26T09:45:11Z</time>
      </trkpt>
      <trkpt lat="46.21315" lon="6.7717">
        <ele>1410</ele>
        <time>2021-06-26T09:45:12Z</time>
      </trkpt>
      <trkpt lat="46.21313" lon="6.7717">
        <ele>1410.4</ele>
        <time>2021-06-26T09:45:13Z</time>
      </trkpt>
      <trkpt lat="46.2131" lon="6.77171">
        <ele>1410.4</ele>
        <time>2021-06-26T09:45:14Z</time>
      </trkpt>
      <trkpt lat="46.21308" lon="6.77171">
        <ele>1410.8</ele>
        <time>2021-06-26T09:45:15Z</time>
      </trkpt>
      <trkpt lat="46.21306" lon="6.77171">
        <ele>1411</ele>
        <time>2021-06-26T09:45:16Z</time>
      </trkpt>
      <trkpt lat="46.21304" lon="6.77172">
        <ele>1411.2</ele>
        <time>2021-06-26T09:45:17Z</time>
      </trkpt>
      <trkpt lat="46.21302" lon="6.77172">
        <ele>1411.6</ele>
        <time>2021-06-26T09:45:18Z</time>
      </trkpt>
      <trkpt lat="46.213" lon="6.77172">
        <ele>1411.8</ele>
        <time>2021-06-26T09:45:19Z</time>
      </trkpt>
      <trkpt lat="46.21298" lon="6.77173">
        <ele>1412</ele>
        <time>2021-06-26T09:45:20Z</time>
      </trkpt>
      <trkpt lat="46.21297" lon="6.77174">
        <ele>1412.4</ele>
        <time>2021-06-26T09:45:21Z</time>
      </trkpt>
      <trkpt lat="46.21295" lon="6.77174">
        <ele>1412.6</ele>
        <time>2021-06-26T09:45:22Z</time>
      </trkpt>
      <trkpt lat="46.21293" lon="6.77175">
        <ele>1412.8</ele>
        <time>2021-06-26T09:45:23Z</time>
      </trkpt>
      <trkpt lat="46.21291" lon="6.77175">
        <ele>1413</ele>
        <time>2021-06-26T09:45:24Z</time>
      </trkpt>
      <trkpt lat="46.21289" lon="6.77176">
        <ele>1413.4</ele>
        <time>2021-06-26T09:45:25Z</time>
      </trkpt>
      <trkpt lat="46.21287" lon="6.77176">
        <ele>1413.4</ele>
        <time>2021-06-26T09:45:26Z</time>
      </trkpt>
      <trkpt lat="46.21285" lon="6.77177">
        <ele>1413.8</ele>
        <time>2021-06-26T09:45:27Z</time>
      </trkpt>
      <trkpt lat="46.21283" lon="6.77176">
        <ele>1414</ele>
        <time>2021-06-26T09:45:28Z</time>
      </trkpt>
      <trkpt lat="46.21281" lon="6.77176">
        <ele>1414.4</ele>
        <time>2021-06-26T09:45:29Z</time>
      </trkpt>
      <trkpt lat="46.21278" lon="6.77176">
        <ele>1414.4</ele>
        <time>2021-06-26T09:45:30Z</time>
      </trkpt>
      <trkpt lat="46.21276" lon="6.77175">
        <ele>1414.8</ele>
        <time>2021-06-26T09:45:31Z</time>
      </trkpt>
      <trkpt lat="46.21273" lon="6.77174">
        <ele>1415</ele>
        <time>2021-06-26T09:45:32Z</time>
      </trkpt>
      <trkpt lat="46.21271" lon="6.77173">
        <ele>1415.4</ele>
        <time>2021-06-26T09:45:33Z</time>
      </trkpt>
      <trkpt lat="46.21269" lon="6.77173">
        <ele>1415.6</ele>
        <time>2021-06-26T09:45:34Z</time>
      </trkpt>
      <trkpt lat="46.21267" lon="6.77174">
        <ele>1415.6</ele>
        <time>2021-06-26T09:45:35Z</time>
      </trkpt>
      <trkpt lat="46.21266" lon="6.77174">
        <ele>1415.8</ele>
        <time>2021-06-26T09:45:36Z</time>
      </trkpt>
      <trkpt lat="46.21265" lon="6.77174">
        <ele>1416</ele>
        <time>2021-06-26T09:45:37Z</time>
      </trkpt>
      <trkpt lat="46.21264" lon="6.77174">
        <ele>1416.2</ele>
        <time>2021-06-26T09:45:38Z</time>
      </trkpt>
      <trkpt lat="46.21262" lon="6.77175">
        <ele>1416.4</ele>
        <time>2021-06-26T09:45:39Z</time>
      </trkpt>
      <trkpt lat="46.21261" lon="6.77175">
        <ele>1416.6</ele>
        <time>2021-06-26T09:45:40Z</time>
      </trkpt>
      <trkpt lat="46.21259" lon="6.77176">
        <ele>1416.8</ele>
        <time>2021-06-26T09:45:41Z</time>
      </trkpt>
      <trkpt lat="46.21257" lon="6.77176">
        <ele>1417.2</ele>
        <time>2021-06-26T09:45:42Z</time>
      </trkpt>
      <trkpt lat="46.21255" lon="6.77177">
        <ele>1417.4</ele>
        <time>2021-06-26T09:45:43Z</time>
      </trkpt>
      <trkpt lat="46.21253" lon="6.77178">
        <ele>1417.4</ele>
        <time>2021-06-26T09:45:44Z</time>
      </trkpt>
      <trkpt lat="46.21252" lon="6.77178">
        <ele>1417.6</ele>
        <time>2021-06-26T09:45:45Z</time>
      </trkpt>
      <trkpt lat="46.2125" lon="6.77179">
        <ele>1417.8</ele>
        <time>2021-06-26T09:45:46Z</time>
      </trkpt>
      <trkpt lat="46.21247" lon="6.77179">
        <ele>1418.4</ele>
        <time>2021-06-26T09:45:47Z</time>
      </trkpt>
      <trkpt lat="46.21245" lon="6.7718">
        <ele>1418.6</ele>
        <time>2021-06-26T09:45:48Z</time>
      </trkpt>
      <trkpt lat="46.21243" lon="6.7718">
        <ele>1419</ele>
        <time>2021-06-26T09:45:49Z</time>
      </trkpt>
      <trkpt lat="46.21239" lon="6.7718">
        <ele>1419.2</ele>
        <time>2021-06-26T09:45:50Z</time>
      </trkpt>
      <trkpt lat="46.21236" lon="6.7718">
        <ele>1419.4</ele>
        <time>2021-06-26T09:45:51Z</time>
      </trkpt>
      <trkpt lat="46.21234" lon="6.7718">
        <ele>1419.6</ele>
        <time>2021-06-26T09:45:52Z</time>
      </trkpt>
      <trkpt lat="46.2123" lon="6.7718">
        <ele>1419.8</ele>
        <time>2021-06-26T09:45:53Z</time>
      </trkpt>
      <trkpt lat="46.21227" lon="6.7718">
        <ele>1420</ele>
        <time>2021-06-26T09:45:54Z</time>
      </trkpt>
      <trkpt lat="46.21225" lon="6.77181">
        <ele>1420.4</ele>
        <time>2021-06-26T09:45:55Z</time>
      </trkpt>
      <trkpt lat="46.21223" lon="6.77181">
        <ele>1420.6</ele>
        <time>2021-06-26T09:45:56Z</time>
      </trkpt>
      <trkpt lat="46.21221" lon="6.77182">
        <ele>1420.6</ele>
        <time>2021-06-26T09:45:57Z</time>
      </trkpt>
      <trkpt lat="46.21219" lon="6.77184">
        <ele>1420.8</ele>
        <time>2021-06-26T09:45:58Z</time>
      </trkpt>
      <trkpt lat="46.21217" lon="6.77185">
        <ele>1421</ele>
        <time>2021-06-26T09:45:59Z</time>
      </trkpt>
      <trkpt lat="46.21215" lon="6.77186">
        <ele>1421.2</ele>
        <time>2021-06-26T09:46:00Z</time>
      </trkpt>
      <trkpt lat="46.21213" lon="6.77187">
        <ele>1421.6</ele>
        <time>2021-06-26T09:46:01Z</time>
      </trkpt>
      <trkpt lat="46.2121" lon="6.77188">
        <ele>1421.8</ele>
        <time>2021-06-26T09:46:02Z</time>
      </trkpt>
      <trkpt lat="46.21208" lon="6.77189">
        <ele>1422</ele>
        <time>2021-06-26T09:46:03Z</time>
      </trkpt>
      <trkpt lat="46.21206" lon="6.7719">
        <ele>1422.4</ele>
        <time>2021-06-26T09:46:04Z</time>
      </trkpt>
      <trkpt lat="46.21203" lon="6.77192">
        <ele>1422.6</ele>
        <time>2021-06-26T09:46:05Z</time>
      </trkpt>
      <trkpt lat="46.21201" lon="6.77193">
        <ele>1423</ele>
        <time>2021-06-26T09:46:06Z</time>
      </trkpt>
      <trkpt lat="46.21199" lon="6.77194">
        <ele>1423.2</ele>
        <time>2021-06-26T09:46:07Z</time>
      </trkpt>
      <trkpt lat="46.21197" lon="6.77196">
        <ele>1423.4</ele>
        <time>2021-06-26T09:46:08Z</time>
      </trkpt>
      <trkpt lat="46.21195" lon="6.77198">
        <ele>1423.8</ele>
        <time>2021-06-26T09:46:09Z</time>
      </trkpt>
      <trkpt lat="46.21193" lon="6.77199">
        <ele>1424.2</ele>
        <time>2021-06-26T09:46:10Z</time>
      </trkpt>
      <trkpt lat="46.2119" lon="6.77201">
        <ele>1424.2</ele>
        <time>2021-06-26T09:46:11Z</time>
      </trkpt>
      <trkpt lat="46.21188" lon="6.77203">
        <ele>1424.6</ele>
        <time>2021-06-26T09:46:12Z</time>
      </trkpt>
      <trkpt lat="46.21186" lon="6.77205">
        <ele>1425</ele>
        <time>2021-06-26T09:46:13Z</time>
      </trkpt>
      <trkpt lat="46.21183" lon="6.77207">
        <ele>1425.2</ele>
        <time>2021-06-26T09:46:14Z</time>
      </trkpt>
      <trkpt lat="46.21181" lon="6.77209">
        <ele>1425.4</ele>
        <time>2021-06-26T09:46:15Z</time>
      </trkpt>
      <trkpt lat="46.21179" lon="6.77212">
        <ele>1425.8</ele>
        <time>2021-06-26T09:46:16Z</time>
      </trkpt>
      <trkpt lat="46.21177" lon="6.77214">
        <ele>1425.8</ele>
        <time>2021-06-26T09:46:17Z</time>
      </trkpt>
      <trkpt lat="46.21175" lon="6.77216">
        <ele>1426.2</ele>
        <time>2021-06-26T09:46:18Z</time>
      </trkpt>
      <trkpt lat="46.21173" lon="6.77219">
        <ele>1426.6</ele>
        <time>2021-06-26T09:46:19Z</time>
      </trkpt>
      <trkpt lat="46.21171" lon="6.77221">
        <ele>1426.6</ele>
        <time>2021-06-26T09:46:20Z</time>
      </trkpt>
      <trkpt lat="46.2117" lon="6.77224">
        <ele>1426.8</ele>
        <time>2021-06-26T09:46:21Z</time>
      </trkpt>
      <trkpt lat="46.21168" lon="6.77226">
        <ele>1427</ele>
        <time>2021-06-26T09:46:22Z</time>
      </trkpt>
      <trkpt lat="46.21166" lon="6.77229">
        <ele>1427.4</ele>
        <time>2021-06-26T09:46:23Z</time>
      </trkpt>
      <trkpt lat="46.21164" lon="6.77231">
        <ele>1427.6</ele>
        <time>2021-06-26T09:46:24Z</time>
      </trkpt>
      <trkpt lat="46.21162" lon="6.77233">
        <ele>1427.8</ele>
        <time>2021-06-26T09:46:25Z</time>
      </trkpt>
      <trkpt lat="46.2116" lon="6.77235">
        <ele>1428.2</ele>
        <time>2021-06-26T09:46:26Z</time>
      </trkpt>
      <trkpt lat="46.21158" lon="6.77238">
        <ele>1428.4</ele>
        <time>2021-06-26T09:46:27Z</time>
      </trkpt>
      <trkpt lat="46.21156" lon="6.7724">
        <ele>1428.8</ele>
        <time>2021-06-26T09:46:28Z</time>
      </trkpt>
      <trkpt lat="46.21154" lon="6.77242">
        <ele>1429</ele>
        <time>2021-06-26T09:46:29Z</time>
      </trkpt>
      <trkpt lat="46.21152" lon="6.77244">
        <ele>1429.2</ele>
        <time>2021-06-26T09:46:30Z</time>
      </trkpt>
      <trkpt lat="46.2115" lon="6.77246">
        <ele>1429.4</ele>
        <time>2021-06-26T09:46:31Z</time>
      </trkpt>
      <trkpt lat="46.21148" lon="6.77248">
        <ele>1429.6</ele>
        <time>2021-06-26T09:46:32Z</time>
      </trkpt>
      <trkpt lat="46.21147" lon="6.77251">
        <ele>1430</ele>
        <time>2021-06-26T09:46:33Z</time>
      </trkpt>
      <trkpt lat="46.21145" lon="6.77253">
        <ele>1430.2</ele>
        <time>2021-06-26T09:46:34Z</time>
      </trkpt>
      <trkpt lat="46.21143" lon="6.77255">
        <ele>1430.4</ele>
        <time>2021-06-26T09:46:35Z</time>
      </trkpt>
      <trkpt lat="46.21141" lon="6.77257">
        <ele>1430.6</ele>
        <time>2021-06-26T09:46:36Z</time>
      </trkpt>
      <trkpt lat="46.21139" lon="6.77259">
        <ele>1431</ele>
        <time>2021-06-26T09:46:37Z</time>
      </trkpt>
      <trkpt lat="46.21137" lon="6.77261">
        <ele>1431.2</ele>
        <time>2021-06-26T09:46:38Z</time>
      </trkpt>
      <trkpt lat="46.21135" lon="6.77264">
        <ele>1431.2</ele>
        <time>2021-06-26T09:46:39Z</time>
      </trkpt>
      <trkpt lat="46.21133" lon="6.77266">
        <ele>1431.6</ele>
        <time>2021-06-26T09:46:40Z</time>
      </trkpt>
      <trkpt lat="46.21131" lon="6.77268">
        <ele>1431.6</ele>
        <time>2021-06-26T09:46:41Z</time>
      </trkpt>
      <trkpt lat="46.2113" lon="6.7727">
        <ele>1431.8</ele>
        <time>2021-06-26T09:46:42Z</time>
      </trkpt>
      <trkpt lat="46.21128" lon="6.77273">
        <ele>1431.8</ele>
        <time>2021-06-26T09:46:43Z</time>
      </trkpt>
      <trkpt lat="46.21126" lon="6.77275">
        <ele>1432.2</ele>
        <time>2021-06-26T09:46:44Z</time>
      </trkpt>
      <trkpt lat="46.21124" lon="6.77277">
        <ele>1432.4</ele>
        <time>2021-06-26T09:46:45Z</time>
      </trkpt>
      <trkpt lat="46.21122" lon="6.7728">
        <ele>1432.8</ele>
        <time>2021-06-26T09:46:46Z</time>
      </trkpt>
      <trkpt lat="46.21121" lon="6.77282">
        <ele>1433</ele>
        <time>2021-06-26T09:46:47Z</time>
      </trkpt>
      <trkpt lat="46.21119" lon="6.77284">
        <ele>1433.4</ele>
        <time>2021-06-26T09:46:48Z</time>
      </trkpt>
      <trkpt lat="46.21117" lon="6.77287">
        <ele>1433.6</ele>
        <time>2021-06-26T09:46:49Z</time>
      </trkpt>
      <trkpt lat="46.21115" lon="6.77289">
        <ele>1433.8</ele>
        <time>2021-06-26T09:46:50Z</time>
      </trkpt>
      <trkpt lat="46.21113" lon="6.77291">
        <ele>1434</ele>
        <time>2021-06-26T09:46:51Z</time>
      </trkpt>
      <trkpt lat="46.2111" lon="6.77293">
        <ele>1434.2</ele>
        <time>2021-06-26T09:46:52Z</time>
      </trkpt>
      <trkpt lat="46.21108" lon="6.77295">
        <ele>1434.2</ele>
        <time>2021-06-26T09:46:53Z</time>
      </trkpt>
      <trkpt lat="46.21106" lon="6.77297">
        <ele>1434.6</ele>
        <time>2021-06-26T09:46:54Z</time>
      </trkpt>
      <trkpt lat="46.21104" lon="6.77299">
        <ele>1434.8</ele>
        <time>2021-06-26T09:46:55Z</time>
      </trkpt>
      <trkpt lat="46.21102" lon="6.77301">
        <ele>1435.2</ele>
        <time>2021-06-26T09:46:56Z</time>
      </trkpt>
      <trkpt lat="46.21101" lon="6.77303">
        <ele>1435.4</ele>
        <time>2021-06-26T09:46:57Z</time>
      </trkpt>
      <trkpt lat="46.21099" lon="6.77304">
        <ele>1435.8</ele>
        <time>2021-06-26T09:46:58Z</time>
      </trkpt>
      <trkpt lat="46.21096" lon="6.77306">
        <ele>1436</ele>
        <time>2021-06-26T09:46:59Z</time>
      </trkpt>
      <trkpt lat="46.21093" lon="6.77307">
        <ele>1436</ele>
        <time>2021-06-26T09:47:00Z</time>
      </trkpt>
      <trkpt lat="46.21091" lon="6.77307">
        <ele>1436.4</ele>
        <time>2021-06-26T09:47:01Z</time>
      </trkpt>
      <trkpt lat="46.21088" lon="6.77307">
        <ele>1436.6</ele>
        <time>2021-06-26T09:47:02Z</time>
      </trkpt>
      <trkpt lat="46.21085" lon="6.77307">
        <ele>1436.8</ele>
        <time>2021-06-26T09:47:03Z</time>
      </trkpt>
      <trkpt lat="46.21082" lon="6.77306">
        <ele>1436.8</ele>
        <time>2021-06-26T09:47:04Z</time>
      </trkpt>
      <trkpt lat="46.21079" lon="6.77304">
        <ele>1436.8</ele>
        <time>2021-06-26T09:47:05Z</time>
      </trkpt>
      <trkpt lat="46.21077" lon="6.77304">
        <ele>1437.2</ele>
        <time>2021-06-26T09:47:06Z</time>
      </trkpt>
      <trkpt lat="46.21074" lon="6.77302">
        <ele>1437.6</ele>
        <time>2021-06-26T09:47:07Z</time>
      </trkpt>
      <trkpt lat="46.21071" lon="6.77301">
        <ele>1437.8</ele>
        <time>2021-06-26T09:47:08Z</time>
      </trkpt>
      <trkpt lat="46.21068" lon="6.77299">
        <ele>1438</ele>
        <time>2021-06-26T09:47:09Z</time>
      </trkpt>
      <trkpt lat="46.21066" lon="6.77298">
        <ele>1438.2</ele>
        <time>2021-06-26T09:47:10Z</time>
      </trkpt>
      <trkpt lat="46.21064" lon="6.77298">
        <ele>1438.2</ele>
        <time>2021-06-26T09:47:11Z</time>
      </trkpt>
      <trkpt lat="46.21062" lon="6.77298">
        <ele>1438.4</ele>
        <time>2021-06-26T09:47:12Z</time>
      </trkpt>
      <trkpt lat="46.2106" lon="6.77297">
        <ele>1438.8</ele>
        <time>2021-06-26T09:47:13Z</time>
      </trkpt>
      <trkpt lat="46.21058" lon="6.77297">
        <ele>1439</ele>
        <time>2021-06-26T09:47:14Z</time>
      </trkpt>
      <trkpt lat="46.21056" lon="6.77297">
        <ele>1439.2</ele>
        <time>2021-06-26T09:47:15Z</time>
      </trkpt>
      <trkpt lat="46.21054" lon="6.77297">
        <ele>1439.6</ele>
        <time>2021-06-26T09:47:16Z</time>
      </trkpt>
      <trkpt lat="46.21051" lon="6.77298">
        <ele>1440</ele>
        <time>2021-06-26T09:47:17Z</time>
      </trkpt>
      <trkpt lat="46.21049" lon="6.77298">
        <ele>1440.4</ele>
        <time>2021-06-26T09:47:18Z</time>
      </trkpt>
      <trkpt lat="46.21047" lon="6.77299">
        <ele>1440.6</ele>
        <time>2021-06-26T09:47:19Z</time>
      </trkpt>
      <trkpt lat="46.21044" lon="6.773">
        <ele>1441</ele>
        <time>2021-06-26T09:47:20Z</time>
      </trkpt>
      <trkpt lat="46.21042" lon="6.77301">
        <ele>1441.4</ele>
        <time>2021-06-26T09:47:21Z</time>
      </trkpt>
      <trkpt lat="46.2104" lon="6.77302">
        <ele>1441.6</ele>
        <time>2021-06-26T09:47:22Z</time>
      </trkpt>
      <trkpt lat="46.21038" lon="6.77303">
        <ele>1441.8</ele>
        <time>2021-06-26T09:47:23Z</time>
      </trkpt>
      <trkpt lat="46.21036" lon="6.77304">
        <ele>1442.2</ele>
        <time>2021-06-26T09:47:24Z</time>
      </trkpt>
      <trkpt lat="46.21034" lon="6.77305">
        <ele>1442.4</ele>
        <time>2021-06-26T09:47:25Z</time>
      </trkpt>
      <trkpt lat="46.21031" lon="6.77306">
        <ele>1442.6</ele>
        <time>2021-06-26T09:47:26Z</time>
      </trkpt>
      <trkpt lat="46.2103" lon="6.77307">
        <ele>1442.8</ele>
        <time>2021-06-26T09:47:27Z</time>
      </trkpt>
      <trkpt lat="46.21028" lon="6.77308">
        <ele>1442.8</ele>
        <time>2021-06-26T09:47:28Z</time>
      </trkpt>
      <trkpt lat="46.21026" lon="6.7731">
        <ele>1443</ele>
        <time>2021-06-26T09:47:29Z</time>
      </trkpt>
      <trkpt lat="46.21024" lon="6.77311">
        <ele>1443.2</ele>
        <time>2021-06-26T09:47:30Z</time>
      </trkpt>
      <trkpt lat="46.21023" lon="6.77313">
        <ele>1443.4</ele>
        <time>2021-06-26T09:47:31Z</time>
      </trkpt>
      <trkpt lat="46.21021" lon="6.77314">
        <ele>1443.6</ele>
        <time>2021-06-26T09:47:32Z</time>
      </trkpt>
      <trkpt lat="46.21019" lon="6.77316">
        <ele>1444</ele>
        <time>2021-06-26T09:47:33Z</time>
      </trkpt>
      <trkpt lat="46.21017" lon="6.77319">
        <ele>1444.2</ele>
        <time>2021-06-26T09:47:34Z</time>
      </trkpt>
      <trkpt lat="46.21016" lon="6.77321">
        <ele>1444.6</ele>
        <time>2021-06-26T09:47:35Z</time>
      </trkpt>
      <trkpt lat="46.21013" lon="6.77324">
        <ele>1444.8</ele>
        <time>2021-06-26T09:47:36Z</time>
      </trkpt>
      <trkpt lat="46.21012" lon="6.77327">
        <ele>1445</ele>
        <time>2021-06-26T09:47:37Z</time>
      </trkpt>
      <trkpt lat="46.21011" lon="6.7733">
        <ele>1445.2</ele>
        <time>2021-06-26T09:47:38Z</time>
      </trkpt>
      <trkpt lat="46.21011" lon="6.77333">
        <ele>1445.6</ele>
        <time>2021-06-26T09:47:39Z</time>
      </trkpt>
      <trkpt lat="46.21012" lon="6.77336">
        <ele>1445.8</ele>
        <time>2021-06-26T09:47:40Z</time>
      </trkpt>
      <trkpt lat="46.21013" lon="6.7734">
        <ele>1446</ele>
        <time>2021-06-26T09:47:41Z</time>
      </trkpt>
      <trkpt lat="46.21015" lon="6.77342">
        <ele>1446.4</ele>
        <time>2021-06-26T09:47:42Z</time>
      </trkpt>
      <trkpt lat="46.21017" lon="6.77345">
        <ele>1446.8</ele>
        <time>2021-06-26T09:47:43Z</time>
      </trkpt>
      <trkpt lat="46.21018" lon="6.77347">
        <ele>1447</ele>
        <time>2021-06-26T09:47:44Z</time>
      </trkpt>
      <trkpt lat="46.2102" lon="6.77349">
        <ele>1447.2</ele>
        <time>2021-06-26T09:47:45Z</time>
      </trkpt>
      <trkpt lat="46.21022" lon="6.7735">
        <ele>1447.4</ele>
        <time>2021-06-26T09:47:46Z</time>
      </trkpt>
      <trkpt lat="46.21024" lon="6.77352">
        <ele>1447.4</ele>
        <time>2021-06-26T09:47:47Z</time>
      </trkpt>
      <trkpt lat="46.21026" lon="6.77354">
        <ele>1447.8</ele>
        <time>2021-06-26T09:47:48Z</time>
      </trkpt>
      <trkpt lat="46.21028" lon="6.77356">
        <ele>1447.8</ele>
        <time>2021-06-26T09:47:49Z</time>
      </trkpt>
      <trkpt lat="46.2103" lon="6.77357">
        <ele>1447.8</ele>
        <time>2021-06-26T09:47:50Z</time>
      </trkpt>
      <trkpt lat="46.21032" lon="6.77358">
        <ele>1448</ele>
        <time>2021-06-26T09:47:51Z</time>
      </trkpt>
      <trkpt lat="46.21034" lon="6.77359">
        <ele>1448.4</ele>
        <time>2021-06-26T09:47:52Z</time>
      </trkpt>
      <trkpt lat="46.21036" lon="6.7736">
        <ele>1448.4</ele>
        <time>2021-06-26T09:47:53Z</time>
      </trkpt>
      <trkpt lat="46.21038" lon="6.77361">
        <ele>1448.8</ele>
        <time>2021-06-26T09:47:54Z</time>
      </trkpt>
      <trkpt lat="46.21041" lon="6.77361">
        <ele>1448.6</ele>
        <time>2021-06-26T09:47:55Z</time>
      </trkpt>
      <trkpt lat="46.21043" lon="6.77361">
        <ele>1449</ele>
        <time>2021-06-26T09:47:56Z</time>
      </trkpt>
      <trkpt lat="46.21046" lon="6.77361">
        <ele>1449.4</ele>
        <time>2021-06-26T09:47:57Z</time>
      </trkpt>
      <trkpt lat="46.21048" lon="6.77361">
        <ele>1449.6</ele>
        <time>2021-06-26T09:47:58Z</time>
      </trkpt>
      <trkpt lat="46.21051" lon="6.77361">
        <ele>1449.8</ele>
        <time>2021-06-26T09:47:59Z</time>
      </trkpt>
      <trkpt lat="46.21054" lon="6.77361">
        <ele>1450.2</ele>
        <time>2021-06-26T09:48:00Z</time>
      </trkpt>
      <trkpt lat="46.21056" lon="6.77361">
        <ele>1450.2</ele>
        <time>2021-06-26T09:48:01Z</time>
      </trkpt>
      <trkpt lat="46.21059" lon="6.77361">
        <ele>1450.4</ele>
        <time>2021-06-26T09:48:02Z</time>
      </trkpt>
      <trkpt lat="46.21062" lon="6.7736">
        <ele>1450.6</ele>
        <time>2021-06-26T09:48:03Z</time>
      </trkpt>
      <trkpt lat="46.21064" lon="6.7736">
        <ele>1450.8</ele>
        <time>2021-06-26T09:48:04Z</time>
      </trkpt>
      <trkpt lat="46.21067" lon="6.7736">
        <ele>1451</ele>
        <time>2021-06-26T09:48:05Z</time>
      </trkpt>
      <trkpt lat="46.21069" lon="6.7736">
        <ele>1451.2</ele>
        <time>2021-06-26T09:48:06Z</time>
      </trkpt>
      <trkpt lat="46.21072" lon="6.7736">
        <ele>1451.4</ele>
        <time>2021-06-26T09:48:07Z</time>
      </trkpt>
      <trkpt lat="46.21075" lon="6.7736">
        <ele>1451.8</ele>
        <time>2021-06-26T09:48:08Z</time>
      </trkpt>
      <trkpt lat="46.21077" lon="6.7736">
        <ele>1452</ele>
        <time>2021-06-26T09:48:09Z</time>
      </trkpt>
      <trkpt lat="46.2108" lon="6.7736">
        <ele>1452.2</ele>
        <time>2021-06-26T09:48:10Z</time>
      </trkpt>
      <trkpt lat="46.21082" lon="6.7736">
        <ele>1452.4</ele>
        <time>2021-06-26T09:48:11Z</time>
      </trkpt>
      <trkpt lat="46.21085" lon="6.7736">
        <ele>1452.8</ele>
        <time>2021-06-26T09:48:12Z</time>
      </trkpt>
      <trkpt lat="46.21087" lon="6.77361">
        <ele>1452.8</ele>
        <time>2021-06-26T09:48:13Z</time>
      </trkpt>
      <trkpt lat="46.21089" lon="6.77361">
        <ele>1453</ele>
        <time>2021-06-26T09:48:14Z</time>
      </trkpt>
      <trkpt lat="46.21091" lon="6.77362">
        <ele>1453.2</ele>
        <time>2021-06-26T09:48:15Z</time>
      </trkpt>
      <trkpt lat="46.21092" lon="6.77364">
        <ele>1453.4</ele>
        <time>2021-06-26T09:48:16Z</time>
      </trkpt>
      <trkpt lat="46.21094" lon="6.77366">
        <ele>1453.6</ele>
        <time>2021-06-26T09:48:17Z</time>
      </trkpt>
      <trkpt lat="46.21095" lon="6.77369">
        <ele>1453.8</ele>
        <time>2021-06-26T09:48:18Z</time>
      </trkpt>
      <trkpt lat="46.21096" lon="6.77371">
        <ele>1454</ele>
        <time>2021-06-26T09:48:19Z</time>
      </trkpt>
      <trkpt lat="46.21096" lon="6.77373">
        <ele>1454.2</ele>
        <time>2021-06-26T09:48:20Z</time>
      </trkpt>
      <trkpt lat="46.21097" lon="6.77375">
        <ele>1454.6</ele>
        <time>2021-06-26T09:48:21Z</time>
      </trkpt>
      <trkpt lat="46.21096" lon="6.77377">
        <ele>1454.8</ele>
        <time>2021-06-26T09:48:22Z</time>
      </trkpt>
      <trkpt lat="46.21096" lon="6.7738">
        <ele>1455</ele>
        <time>2021-06-26T09:48:23Z</time>
      </trkpt>
      <trkpt lat="46.21096" lon="6.77382">
        <ele>1455.2</ele>
        <time>2021-06-26T09:48:24Z</time>
      </trkpt>
      <trkpt lat="46.21096" lon="6.77384">
        <ele>1455.6</ele>
        <time>2021-06-26T09:48:25Z</time>
      </trkpt>
      <trkpt lat="46.21095" lon="6.77386">
        <ele>1455.8</ele>
        <time>2021-06-26T09:48:26Z</time>
      </trkpt>
      <trkpt lat="46.21095" lon="6.77389">
        <ele>1456</ele>
        <time>2021-06-26T09:48:27Z</time>
      </trkpt>
      <trkpt lat="46.21095" lon="6.77392">
        <ele>1456.2</ele>
        <time>2021-06-26T09:48:28Z</time>
      </trkpt>
      <trkpt lat="46.21094" lon="6.77395">
        <ele>1456.6</ele>
        <time>2021-06-26T09:48:29Z</time>
      </trkpt>
      <trkpt lat="46.21093" lon="6.77397">
        <ele>1456.6</ele>
        <time>2021-06-26T09:48:30Z</time>
      </trkpt>
      <trkpt lat="46.21092" lon="6.774">
        <ele>1456.8</ele>
        <time>2021-06-26T09:48:31Z</time>
      </trkpt>
      <trkpt lat="46.21092" lon="6.77402">
        <ele>1457</ele>
        <time>2021-06-26T09:48:32Z</time>
      </trkpt>
      <trkpt lat="46.21091" lon="6.77405">
        <ele>1457.2</ele>
        <time>2021-06-26T09:48:33Z</time>
      </trkpt>
      <trkpt lat="46.21089" lon="6.77408">
        <ele>1457.4</ele>
        <time>2021-06-26T09:48:34Z</time>
      </trkpt>
      <trkpt lat="46.21088" lon="6.7741">
        <ele>1457.4</ele>
        <time>2021-06-26T09:48:35Z</time>
      </trkpt>
      <trkpt lat="46.21086" lon="6.77412">
        <ele>1457.4</ele>
        <time>2021-06-26T09:48:36Z</time>
      </trkpt>
      <trkpt lat="46.21084" lon="6.77414">
        <ele>1457.6</ele>
        <time>2021-06-26T09:48:37Z</time>
      </trkpt>
      <trkpt lat="46.21082" lon="6.77415">
        <ele>1458</ele>
        <time>2021-06-26T09:48:38Z</time>
      </trkpt>
      <trkpt lat="46.21079" lon="6.77417">
        <ele>1458</ele>
        <time>2021-06-26T09:48:39Z</time>
      </trkpt>
      <trkpt lat="46.21077" lon="6.77419">
        <ele>1458.2</ele>
        <time>2021-06-26T09:48:40Z</time>
      </trkpt>
      <trkpt lat="46.21075" lon="6.77421">
        <ele>1458.4</ele>
        <time>2021-06-26T09:48:41Z</time>
      </trkpt>
      <trkpt lat="46.21073" lon="6.77423">
        <ele>1458.6</ele>
        <time>2021-06-26T09:48:42Z</time>
      </trkpt>
      <trkpt lat="46.21071" lon="6.77425">
        <ele>1458.6</ele>
        <time>2021-06-26T09:48:43Z</time>
      </trkpt>
      <trkpt lat="46.21069" lon="6.77426">
        <ele>1459</ele>
        <time>2021-06-26T09:48:44Z</time>
      </trkpt>
      <trkpt lat="46.21065" lon="6.77428">
        <ele>1459.2</ele>
        <time>2021-06-26T09:48:45Z</time>
      </trkpt>
      <trkpt lat="46.21062" lon="6.77429">
        <ele>1459.2</ele>
        <time>2021-06-26T09:48:46Z</time>
      </trkpt>
      <trkpt lat="46.21059" lon="6.7743">
        <ele>1459.6</ele>
        <time>2021-06-26T09:48:47Z</time>
      </trkpt>
      <trkpt lat="46.21057" lon="6.77432">
        <ele>1459.8</ele>
        <time>2021-06-26T09:48:48Z</time>
      </trkpt>
      <trkpt lat="46.21054" lon="6.77433">
        <ele>1459.8</ele>
        <time>2021-06-26T09:48:49Z</time>
      </trkpt>
      <trkpt lat="46.21052" lon="6.77435">
        <ele>1460.2</ele>
        <time>2021-06-26T09:48:50Z</time>
      </trkpt>
      <trkpt lat="46.21049" lon="6.77436">
        <ele>1460.4</ele>
        <time>2021-06-26T09:48:51Z</time>
      </trkpt>
      <trkpt lat="46.21046" lon="6.77436">
        <ele>1460.4</ele>
        <time>2021-06-26T09:48:52Z</time>
      </trkpt>
      <trkpt lat="46.21043" lon="6.77437">
        <ele>1460.4</ele>
        <time>2021-06-26T09:48:53Z</time>
      </trkpt>
      <trkpt lat="46.21041" lon="6.77439">
        <ele>1460.4</ele>
        <time>2021-06-26T09:48:54Z</time>
      </trkpt>
      <trkpt lat="46.21038" lon="6.7744">
        <ele>1460.6</ele>
        <time>2021-06-26T09:48:55Z</time>
      </trkpt>
      <trkpt lat="46.21036" lon="6.77441">
        <ele>1460.8</ele>
        <time>2021-06-26T09:48:56Z</time>
      </trkpt>
      <trkpt lat="46.21034" lon="6.77442">
        <ele>1460.8</ele>
        <time>2021-06-26T09:48:57Z</time>
      </trkpt>
      <trkpt lat="46.21032" lon="6.77444">
        <ele>1460.8</ele>
        <time>2021-06-26T09:48:58Z</time>
      </trkpt>
      <trkpt lat="46.2103" lon="6.77445">
        <ele>1461.2</ele>
        <time>2021-06-26T09:48:59Z</time>
      </trkpt>
      <trkpt lat="46.21028" lon="6.77447">
        <ele>1461.4</ele>
        <time>2021-06-26T09:49:00Z</time>
      </trkpt>
      <trkpt lat="46.21026" lon="6.77447">
        <ele>1461.6</ele>
        <time>2021-06-26T09:49:01Z</time>
      </trkpt>
      <trkpt lat="46.21024" lon="6.77448">
        <ele>1461.8</ele>
        <time>2021-06-26T09:49:02Z</time>
      </trkpt>
      <trkpt lat="46.21023" lon="6.77449">
        <ele>1462</ele>
        <time>2021-06-26T09:49:03Z</time>
      </trkpt>
      <trkpt lat="46.2102" lon="6.77448">
        <ele>1462.2</ele>
        <time>2021-06-26T09:49:04Z</time>
      </trkpt>
      <trkpt lat="46.21016" lon="6.77448">
        <ele>1462.6</ele>
        <time>2021-06-26T09:49:05Z</time>
      </trkpt>
      <trkpt lat="46.21013" lon="6.77448">
        <ele>1462.8</ele>
        <time>2021-06-26T09:49:06Z</time>
      </trkpt>
      <trkpt lat="46.2101" lon="6.77448">
        <ele>1463.2</ele>
        <time>2021-06-26T09:49:07Z</time>
      </trkpt>
      <trkpt lat="46.21007" lon="6.77448">
        <ele>1463.4</ele>
        <time>2021-06-26T09:49:08Z</time>
      </trkpt>
      <trkpt lat="46.21005" lon="6.77449">
        <ele>1463.6</ele>
        <time>2021-06-26T09:49:09Z</time>
      </trkpt>
      <trkpt lat="46.21002" lon="6.77449">
        <ele>1464</ele>
        <time>2021-06-26T09:49:10Z</time>
      </trkpt>
      <trkpt lat="46.21" lon="6.77448">
        <ele>1464.2</ele>
        <time>2021-06-26T09:49:11Z</time>
      </trkpt>
      <trkpt lat="46.20997" lon="6.77448">
        <ele>1464.2</ele>
        <time>2021-06-26T09:49:12Z</time>
      </trkpt>
      <trkpt lat="46.20994" lon="6.77447">
        <ele>1464.6</ele>
        <time>2021-06-26T09:49:13Z</time>
      </trkpt>
      <trkpt lat="46.20991" lon="6.77447">
        <ele>1464.8</ele>
        <time>2021-06-26T09:49:14Z</time>
      </trkpt>
      <trkpt lat="46.20988" lon="6.77446">
        <ele>1465</ele>
        <time>2021-06-26T09:49:15Z</time>
      </trkpt>
      <trkpt lat="46.20986" lon="6.77446">
        <ele>1465.2</ele>
        <time>2021-06-26T09:49:16Z</time>
      </trkpt>
      <trkpt lat="46.20984" lon="6.77445">
        <ele>1465.6</ele>
        <time>2021-06-26T09:49:17Z</time>
      </trkpt>
      <trkpt lat="46.20981" lon="6.77444">
        <ele>1465.8</ele>
        <time>2021-06-26T09:49:18Z</time>
      </trkpt>
      <trkpt lat="46.20979" lon="6.77443">
        <ele>1466</ele>
        <time>2021-06-26T09:49:19Z</time>
      </trkpt>
      <trkpt lat="46.20977" lon="6.77442">
        <ele>1466</ele>
        <time>2021-06-26T09:49:20Z</time>
      </trkpt>
      <trkpt lat="46.20974" lon="6.7744">
        <ele>1466.2</ele>
        <time>2021-06-26T09:49:21Z</time>
      </trkpt>
      <trkpt lat="46.20971" lon="6.77439">
        <ele>1466.6</ele>
        <time>2021-06-26T09:49:22Z</time>
      </trkpt>
      <trkpt lat="46.20969" lon="6.77438">
        <ele>1466.8</ele>
        <time>2021-06-26T09:49:23Z</time>
      </trkpt>
      <trkpt lat="46.20967" lon="6.77439">
        <ele>1467</ele>
        <time>2021-06-26T09:49:24Z</time>
      </trkpt>
      <trkpt lat="46.20965" lon="6.77439">
        <ele>1467.2</ele>
        <time>2021-06-26T09:49:25Z</time>
      </trkpt>
      <trkpt lat="46.20962" lon="6.7744">
        <ele>1467.4</ele>
        <time>2021-06-26T09:49:26Z</time>
      </trkpt>
      <trkpt lat="46.2096" lon="6.77441">
        <ele>1467.8</ele>
        <time>2021-06-26T09:49:27Z</time>
      </trkpt>
      <trkpt lat="46.20958" lon="6.77442">
        <ele>1468</ele>
        <time>2021-06-26T09:49:28Z</time>
      </trkpt>
      <trkpt lat="46.20956" lon="6.77444">
        <ele>1468.2</ele>
        <time>2021-06-26T09:49:29Z</time>
      </trkpt>
      <trkpt lat="46.20954" lon="6.77446">
        <ele>1468.2</ele>
        <time>2021-06-26T09:49:30Z</time>
      </trkpt>
      <trkpt lat="46.20952" lon="6.77448">
        <ele>1468.4</ele>
        <time>2021-06-26T09:49:31Z</time>
      </trkpt>
      <trkpt lat="46.2095" lon="6.77451">
        <ele>1468.6</ele>
        <time>2021-06-26T09:49:32Z</time>
      </trkpt>
      <trkpt lat="46.20948" lon="6.77454">
        <ele>1469</ele>
        <time>2021-06-26T09:49:33Z</time>
      </trkpt>
      <trkpt lat="46.20947" lon="6.77456">
        <ele>1469</ele>
        <time>2021-06-26T09:49:34Z</time>
      </trkpt>
      <trkpt lat="46.20945" lon="6.77459">
        <ele>1469.4</ele>
        <time>2021-06-26T09:49:35Z</time>
      </trkpt>
      <trkpt lat="46.20943" lon="6.77462">
        <ele>1469.8</ele>
        <time>2021-06-26T09:49:36Z</time>
      </trkpt>
      <trkpt lat="46.20941" lon="6.77464">
        <ele>1469.8</ele>
        <time>2021-06-26T09:49:37Z</time>
      </trkpt>
      <trkpt lat="46.2094" lon="6.77467">
        <ele>1470.2</ele>
        <time>2021-06-26T09:49:38Z</time>
      </trkpt>
      <trkpt lat="46.20938" lon="6.77469">
        <ele>1470.4</ele>
        <time>2021-06-26T09:49:39Z</time>
      </trkpt>
      <trkpt lat="46.20936" lon="6.77472">
        <ele>1470.6</ele>
        <time>2021-06-26T09:49:40Z</time>
      </trkpt>
      <trkpt lat="46.20934" lon="6.77474">
        <ele>1471</ele>
        <time>2021-06-26T09:49:41Z</time>
      </trkpt>
      <trkpt lat="46.20932" lon="6.77476">
        <ele>1471.2</ele>
        <time>2021-06-26T09:49:42Z</time>
      </trkpt>
      <trkpt lat="46.2093" lon="6.77478">
        <ele>1471.2</ele>
        <time>2021-06-26T09:49:43Z</time>
      </trkpt>
      <trkpt lat="46.20928" lon="6.77479">
        <ele>1471.4</ele>
        <time>2021-06-26T09:49:44Z</time>
      </trkpt>
      <trkpt lat="46.20926" lon="6.77481">
        <ele>1471.8</ele>
        <time>2021-06-26T09:49:45Z</time>
      </trkpt>
      <trkpt lat="46.20924" lon="6.77482">
        <ele>1472</ele>
        <time>2021-06-26T09:49:46Z</time>
      </trkpt>
      <trkpt lat="46.20922" lon="6.77484">
        <ele>1472.2</ele>
        <time>2021-06-26T09:49:47Z</time>
      </trkpt>
      <trkpt lat="46.2092" lon="6.77486">
        <ele>1472.6</ele>
        <time>2021-06-26T09:49:48Z</time>
      </trkpt>
      <trkpt lat="46.20918" lon="6.77488">
        <ele>1472.8</ele>
        <time>2021-06-26T09:49:49Z</time>
      </trkpt>
      <trkpt lat="46.20917" lon="6.7749">
        <ele>1473.2</ele>
        <time>2021-06-26T09:49:50Z</time>
      </trkpt>
      <trkpt lat="46.20915" lon="6.77492">
        <ele>1473.2</ele>
        <time>2021-06-26T09:49:51Z</time>
      </trkpt>
      <trkpt lat="46.20914" lon="6.77495">
        <ele>1473.6</ele>
        <time>2021-06-26T09:49:52Z</time>
      </trkpt>
      <trkpt lat="46.20913" lon="6.77498">
        <ele>1473.8</ele>
        <time>2021-06-26T09:49:53Z</time>
      </trkpt>
      <trkpt lat="46.20912" lon="6.77502">
        <ele>1474.2</ele>
        <time>2021-06-26T09:49:54Z</time>
      </trkpt>
      <trkpt lat="46.20912" lon="6.77505">
        <ele>1474.6</ele>
        <time>2021-06-26T09:49:55Z</time>
      </trkpt>
      <trkpt lat="46.20911" lon="6.77508">
        <ele>1475</ele>
        <time>2021-06-26T09:49:56Z</time>
      </trkpt>
      <trkpt lat="46.20911" lon="6.77511">
        <ele>1475.2</ele>
        <time>2021-06-26T09:49:57Z</time>
      </trkpt>
      <trkpt lat="46.2091" lon="6.77514">
        <ele>1475.4</ele>
        <time>2021-06-26T09:49:58Z</time>
      </trkpt>
      <trkpt lat="46.20909" lon="6.77517">
        <ele>1475.8</ele>
        <time>2021-06-26T09:49:59Z</time>
      </trkpt>
      <trkpt lat="46.20908" lon="6.7752">
        <ele>1476</ele>
        <time>2021-06-26T09:50:00Z</time>
      </trkpt>
      <trkpt lat="46.20907" lon="6.77523">
        <ele>1476.2</ele>
        <time>2021-06-26T09:50:01Z</time>
      </trkpt>
      <trkpt lat="46.20906" lon="6.77526">
        <ele>1476.6</ele>
        <time>2021-06-26T09:50:02Z</time>
      </trkpt>
      <trkpt lat="46.20904" lon="6.77529">
        <ele>1476.8</ele>
        <time>2021-06-26T09:50:03Z</time>
      </trkpt>
      <trkpt lat="46.20903" lon="6.77532">
        <ele>1476.8</ele>
        <time>2021-06-26T09:50:04Z</time>
      </trkpt>
      <trkpt lat="46.20901" lon="6.77534">
        <ele>1476.8</ele>
        <time>2021-06-26T09:50:05Z</time>
      </trkpt>
      <trkpt lat="46.209" lon="6.77536">
        <ele>1477.2</ele>
        <time>2021-06-26T09:50:06Z</time>
      </trkpt>
      <trkpt lat="46.20898" lon="6.77538">
        <ele>1477.6</ele>
        <time>2021-06-26T09:50:07Z</time>
      </trkpt>
      <trkpt lat="46.20896" lon="6.7754">
        <ele>1477.6</ele>
        <time>2021-06-26T09:50:08Z</time>
      </trkpt>
      <trkpt lat="46.20894" lon="6.77542">
        <ele>1477.8</ele>
        <time>2021-06-26T09:50:09Z</time>
      </trkpt>
      <trkpt lat="46.20892" lon="6.77544">
        <ele>1478</ele>
        <time>2021-06-26T09:50:10Z</time>
      </trkpt>
      <trkpt lat="46.20891" lon="6.77546">
        <ele>1478.4</ele>
        <time>2021-06-26T09:50:11Z</time>
      </trkpt>
      <trkpt lat="46.20889" lon="6.77549">
        <ele>1478.6</ele>
        <time>2021-06-26T09:50:12Z</time>
      </trkpt>
      <trkpt lat="46.20886" lon="6.7755">
        <ele>1479</ele>
        <time>2021-06-26T09:50:13Z</time>
      </trkpt>
      <trkpt lat="46.20884" lon="6.77552">
        <ele>1479.2</ele>
        <time>2021-06-26T09:50:14Z</time>
      </trkpt>
      <trkpt lat="46.20881" lon="6.77553">
        <ele>1479.4</ele>
        <time>2021-06-26T09:50:15Z</time>
      </trkpt>
      <trkpt lat="46.20879" lon="6.77554">
        <ele>1479.6</ele>
        <time>2021-06-26T09:50:16Z</time>
      </trkpt>
      <trkpt lat="46.20876" lon="6.77554">
        <ele>1479.8</ele>
        <time>2021-06-26T09:50:17Z</time>
      </trkpt>
      <trkpt lat="46.20874" lon="6.77555">
        <ele>1480.2</ele>
        <time>2021-06-26T09:50:18Z</time>
      </trkpt>
      <trkpt lat="46.20871" lon="6.77555">
        <ele>1480.4</ele>
        <time>2021-06-26T09:50:19Z</time>
      </trkpt>
      <trkpt lat="46.20868" lon="6.77556">
        <ele>1480.4</ele>
        <time>2021-06-26T09:50:20Z</time>
      </trkpt>
      <trkpt lat="46.20865" lon="6.77556">
        <ele>1480.8</ele>
        <time>2021-06-26T09:50:21Z</time>
      </trkpt>
      <trkpt lat="46.20862" lon="6.77557">
        <ele>1481</ele>
        <time>2021-06-26T09:50:22Z</time>
      </trkpt>
      <trkpt lat="46.20859" lon="6.77557">
        <ele>1481.4</ele>
        <time>2021-06-26T09:50:23Z</time>
      </trkpt>
      <trkpt lat="46.20856" lon="6.77557">
        <ele>1481.4</ele>
        <time>2021-06-26T09:50:24Z</time>
      </trkpt>
      <trkpt lat="46.20853" lon="6.77557">
        <ele>1481.6</ele>
        <time>2021-06-26T09:50:25Z</time>
      </trkpt>
      <trkpt lat="46.2085" lon="6.77557">
        <ele>1481.8</ele>
        <time>2021-06-26T09:50:26Z</time>
      </trkpt>
      <trkpt lat="46.20846" lon="6.77558">
        <ele>1481.8</ele>
        <time>2021-06-26T09:50:27Z</time>
      </trkpt>
      <trkpt lat="46.20843" lon="6.77558">
        <ele>1481.8</ele>
        <time>2021-06-26T09:50:28Z</time>
      </trkpt>
      <trkpt lat="46.2084" lon="6.77558">
        <ele>1482.2</ele>
        <time>2021-06-26T09:50:29Z</time>
      </trkpt>
      <trkpt lat="46.20836" lon="6.77558">
        <ele>1482.2</ele>
        <time>2021-06-26T09:50:30Z</time>
      </trkpt>
      <trkpt lat="46.20833" lon="6.77558">
        <ele>1482.4</ele>
        <time>2021-06-26T09:50:31Z</time>
      </trkpt>
      <trkpt lat="46.20829" lon="6.77558">
        <ele>1482.6</ele>
        <time>2021-06-26T09:50:32Z</time>
      </trkpt>
      <trkpt lat="46.20826" lon="6.77559">
        <ele>1482.6</ele>
        <time>2021-06-26T09:50:33Z</time>
      </trkpt>
      <trkpt lat="46.20823" lon="6.77559">
        <ele>1482.6</ele>
        <time>2021-06-26T09:50:34Z</time>
      </trkpt>
      <trkpt lat="46.2082" lon="6.7756">
        <ele>1482.6</ele>
        <time>2021-06-26T09:50:35Z</time>
      </trkpt>
      <trkpt lat="46.20817" lon="6.7756">
        <ele>1482.8</ele>
        <time>2021-06-26T09:50:36Z</time>
      </trkpt>
      <trkpt lat="46.20814" lon="6.7756">
        <ele>1482.8</ele>
        <time>2021-06-26T09:50:37Z</time>
      </trkpt>
      <trkpt lat="46.20811" lon="6.7756">
        <ele>1483</ele>
        <time>2021-06-26T09:50:38Z</time>
      </trkpt>
      <trkpt lat="46.20807" lon="6.7756">
        <ele>1483.2</ele>
        <time>2021-06-26T09:50:39Z</time>
      </trkpt>
      <trkpt lat="46.20804" lon="6.7756">
        <ele>1483.2</ele>
        <time>2021-06-26T09:50:40Z</time>
      </trkpt>
      <trkpt lat="46.20801" lon="6.7756">
        <ele>1483.4</ele>
        <time>2021-06-26T09:50:41Z</time>
      </trkpt>
      <trkpt lat="46.20798" lon="6.7756">
        <ele>1483.6</ele>
        <time>2021-06-26T09:50:42Z</time>
      </trkpt>
      <trkpt lat="46.20795" lon="6.77561">
        <ele>1483.6</ele>
        <time>2021-06-26T09:50:43Z</time>
      </trkpt>
      <trkpt lat="46.20792" lon="6.77562">
        <ele>1483.8</ele>
        <time>2021-06-26T09:50:44Z</time>
      </trkpt>
      <trkpt lat="46.20789" lon="6.77562">
        <ele>1483.8</ele>
        <time>2021-06-26T09:50:45Z</time>
      </trkpt>
      <trkpt lat="46.20786" lon="6.77562">
        <ele>1483.8</ele>
        <time>2021-06-26T09:50:46Z</time>
      </trkpt>
      <trkpt lat="46.20783" lon="6.77563">
        <ele>1483.8</ele>
        <time>2021-06-26T09:50:47Z</time>
      </trkpt>
      <trkpt lat="46.2078" lon="6.77564">
        <ele>1484</ele>
        <time>2021-06-26T09:50:48Z</time>
      </trkpt>
      <trkpt lat="46.20777" lon="6.77565">
        <ele>1484</ele>
        <time>2021-06-26T09:50:49Z</time>
      </trkpt>
      <trkpt lat="46.20774" lon="6.77566">
        <ele>1484</ele>
        <time>2021-06-26T09:50:50Z</time>
      </trkpt>
      <trkpt lat="46.20771" lon="6.77567">
        <ele>1484.4</ele>
        <time>2021-06-26T09:50:51Z</time>
      </trkpt>
      <trkpt lat="46.20769" lon="6.77569">
        <ele>1484.4</ele>
        <time>2021-06-26T09:50:52Z</time>
      </trkpt>
      <trkpt lat="46.20766" lon="6.7757">
        <ele>1484.6</ele>
        <time>2021-06-26T09:50:53Z</time>
      </trkpt>
      <trkpt lat="46.20763" lon="6.77572">
        <ele>1485</ele>
        <time>2021-06-26T09:50:54Z</time>
      </trkpt>
      <trkpt lat="46.2076" lon="6.77574">
        <ele>1485.2</ele>
        <time>2021-06-26T09:50:55Z</time>
      </trkpt>
      <trkpt lat="46.20757" lon="6.77576">
        <ele>1485.4</ele>
        <time>2021-06-26T09:50:56Z</time>
      </trkpt>
      <trkpt lat="46.20755" lon="6.77577">
        <ele>1485.6</ele>
        <time>2021-06-26T09:50:57Z</time>
      </trkpt>
      <trkpt lat="46.20752" lon="6.77579">
        <ele>1485.4</ele>
        <time>2021-06-26T09:50:58Z</time>
      </trkpt>
      <trkpt lat="46.2075" lon="6.77581">
        <ele>1485.8</ele>
        <time>2021-06-26T09:50:59Z</time>
      </trkpt>
      <trkpt lat="46.20747" lon="6.77583">
        <ele>1486</ele>
        <time>2021-06-26T09:51:00Z</time>
      </trkpt>
      <trkpt lat="46.20744" lon="6.77585">
        <ele>1486.2</ele>
        <time>2021-06-26T09:51:01Z</time>
      </trkpt>
      <trkpt lat="46.20741" lon="6.77587">
        <ele>1486.4</ele>
        <time>2021-06-26T09:51:02Z</time>
      </trkpt>
      <trkpt lat="46.20738" lon="6.77588">
        <ele>1486.6</ele>
        <time>2021-06-26T09:51:03Z</time>
      </trkpt>
      <trkpt lat="46.20735" lon="6.77589">
        <ele>1486.8</ele>
        <time>2021-06-26T09:51:04Z</time>
      </trkpt>
      <trkpt lat="46.20732" lon="6.7759">
        <ele>1487</ele>
        <time>2021-06-26T09:51:05Z</time>
      </trkpt>
      <trkpt lat="46.20729" lon="6.77591">
        <ele>1487.2</ele>
        <time>2021-06-26T09:51:06Z</time>
      </trkpt>
      <trkpt lat="46.20726" lon="6.77591">
        <ele>1487.4</ele>
        <time>2021-06-26T09:51:07Z</time>
      </trkpt>
      <trkpt lat="46.20722" lon="6.77592">
        <ele>1487.8</ele>
        <time>2021-06-26T09:51:08Z</time>
      </trkpt>
      <trkpt lat="46.20719" lon="6.77592">
        <ele>1488</ele>
        <time>2021-06-26T09:51:09Z</time>
      </trkpt>
      <trkpt lat="46.20715" lon="6.77592">
        <ele>1488.2</ele>
        <time>2021-06-26T09:51:10Z</time>
      </trkpt>
      <trkpt lat="46.20712" lon="6.77592">
        <ele>1488.4</ele>
        <time>2021-06-26T09:51:11Z</time>
      </trkpt>
      <trkpt lat="46.20709" lon="6.77593">
        <ele>1488.6</ele>
        <time>2021-06-26T09:51:12Z</time>
      </trkpt>
      <trkpt lat="46.20706" lon="6.77593">
        <ele>1488.6</ele>
        <time>2021-06-26T09:51:13Z</time>
      </trkpt>
      <trkpt lat="46.20702" lon="6.77593">
        <ele>1488.8</ele>
        <time>2021-06-26T09:51:14Z</time>
      </trkpt>
      <trkpt lat="46.20699" lon="6.77594">
        <ele>1489</ele>
        <time>2021-06-26T09:51:15Z</time>
      </trkpt>
      <trkpt lat="46.20696" lon="6.77594">
        <ele>1489.4</ele>
        <time>2021-06-26T09:51:16Z</time>
      </trkpt>
      <trkpt lat="46.20693" lon="6.77595">
        <ele>1489.4</ele>
        <time>2021-06-26T09:51:17Z</time>
      </trkpt>
      <trkpt lat="46.2069" lon="6.77595">
        <ele>1489.6</ele>
        <time>2021-06-26T09:51:18Z</time>
      </trkpt>
      <trkpt lat="46.20687" lon="6.77596">
        <ele>1489.6</ele>
        <time>2021-06-26T09:51:19Z</time>
      </trkpt>
      <trkpt lat="46.20684" lon="6.77598">
        <ele>1490</ele>
        <time>2021-06-26T09:51:20Z</time>
      </trkpt>
      <trkpt lat="46.20681" lon="6.77599">
        <ele>1490.2</ele>
        <time>2021-06-26T09:51:21Z</time>
      </trkpt>
      <trkpt lat="46.20679" lon="6.77601">
        <ele>1490.2</ele>
        <time>2021-06-26T09:51:22Z</time>
      </trkpt>
      <trkpt lat="46.20676" lon="6.77603">
        <ele>1490.4</ele>
        <time>2021-06-26T09:51:23Z</time>
      </trkpt>
      <trkpt lat="46.20673" lon="6.77605">
        <ele>1490.6</ele>
        <time>2021-06-26T09:51:24Z</time>
      </trkpt>
      <trkpt lat="46.20671" lon="6.77607">
        <ele>1490.8</ele>
        <time>2021-06-26T09:51:25Z</time>
      </trkpt>
      <trkpt lat="46.20668" lon="6.7761">
        <ele>1490.8</ele>
        <time>2021-06-26T09:51:26Z</time>
      </trkpt>
      <trkpt lat="46.20666" lon="6.77612">
        <ele>1491</ele>
        <time>2021-06-26T09:51:27Z</time>
      </trkpt>
      <trkpt lat="46.20663" lon="6.77615">
        <ele>1491.4</ele>
        <time>2021-06-26T09:51:28Z</time>
      </trkpt>
      <trkpt lat="46.20661" lon="6.77617">
        <ele>1491.4</ele>
        <time>2021-06-26T09:51:29Z</time>
      </trkpt>
      <trkpt lat="46.20658" lon="6.7762">
        <ele>1491.8</ele>
        <time>2021-06-26T09:51:30Z</time>
      </trkpt>
      <trkpt lat="46.20656" lon="6.77623">
        <ele>1491.8</ele>
        <time>2021-06-26T09:51:31Z</time>
      </trkpt>
      <trkpt lat="46.20653" lon="6.77626">
        <ele>1492</ele>
        <time>2021-06-26T09:51:32Z</time>
      </trkpt>
      <trkpt lat="46.20651" lon="6.77629">
        <ele>1492.2</ele>
        <time>2021-06-26T09:51:33Z</time>
      </trkpt>
      <trkpt lat="46.20648" lon="6.77632">
        <ele>1492.4</ele>
        <time>2021-06-26T09:51:34Z</time>
      </trkpt>
      <trkpt lat="46.20646" lon="6.77635">
        <ele>1492.4</ele>
        <time>2021-06-26T09:51:35Z</time>
      </trkpt>
      <trkpt lat="46.20644" lon="6.77637">
        <ele>1492.4</ele>
        <time>2021-06-26T09:51:36Z</time>
      </trkpt>
      <trkpt lat="46.20642" lon="6.7764">
        <ele>1492.8</ele>
        <time>2021-06-26T09:51:37Z</time>
      </trkpt>
      <trkpt lat="46.20639" lon="6.77641">
        <ele>1493</ele>
        <time>2021-06-26T09:51:38Z</time>
      </trkpt>
      <trkpt lat="46.20636" lon="6.77643">
        <ele>1493</ele>
        <time>2021-06-26T09:51:39Z</time>
      </trkpt>
      <trkpt lat="46.20633" lon="6.77642">
        <ele>1493.2</ele>
        <time>2021-06-26T09:51:40Z</time>
      </trkpt>
      <trkpt lat="46.20631" lon="6.7764">
        <ele>1493.6</ele>
        <time>2021-06-26T09:51:41Z</time>
      </trkpt>
      <trkpt lat="46.2063" lon="6.77637">
        <ele>1493.8</ele>
        <time>2021-06-26T09:51:42Z</time>
      </trkpt>
      <trkpt lat="46.2063" lon="6.77633">
        <ele>1493.8</ele>
        <time>2021-06-26T09:51:43Z</time>
      </trkpt>
      <trkpt lat="46.20631" lon="6.7763">
        <ele>1494.2</ele>
        <time>2021-06-26T09:51:44Z</time>
      </trkpt>
      <trkpt lat="46.20632" lon="6.77626">
        <ele>1494.4</ele>
        <time>2021-06-26T09:51:45Z</time>
      </trkpt>
      <trkpt lat="46.20635" lon="6.77623">
        <ele>1494.6</ele>
        <time>2021-06-26T09:51:46Z</time>
      </trkpt>
      <trkpt lat="46.20637" lon="6.7762">
        <ele>1494.6</ele>
        <time>2021-06-26T09:51:47Z</time>
      </trkpt>
      <trkpt lat="46.2064" lon="6.77618">
        <ele>1495</ele>
        <time>2021-06-26T09:51:48Z</time>
      </trkpt>
      <trkpt lat="46.20643" lon="6.77617">
        <ele>1495.2</ele>
        <time>2021-06-26T09:51:49Z</time>
      </trkpt>
      <trkpt lat="46.20646" lon="6.77615">
        <ele>1495.4</ele>
        <time>2021-06-26T09:51:50Z</time>
      </trkpt>
      <trkpt lat="46.2065" lon="6.77612">
        <ele>1495.6</ele>
        <time>2021-06-26T09:51:51Z</time>
      </trkpt>
      <trkpt lat="46.20652" lon="6.7761">
        <ele>1495.4</ele>
        <time>2021-06-26T09:51:52Z</time>
      </trkpt>
      <trkpt lat="46.20655" lon="6.77607">
        <ele>1495.6</ele>
        <time>2021-06-26T09:51:53Z</time>
      </trkpt>
      <trkpt lat="46.20657" lon="6.77603">
        <ele>1495.8</ele>
        <time>2021-06-26T09:51:54Z</time>
      </trkpt>
      <trkpt lat="46.2066" lon="6.776">
        <ele>1495.8</ele>
        <time>2021-06-26T09:51:55Z</time>
      </trkpt>
      <trkpt lat="46.20662" lon="6.77597">
        <ele>1496</ele>
        <time>2021-06-26T09:51:56Z</time>
      </trkpt>
      <trkpt lat="46.20665" lon="6.77594">
        <ele>1496.2</ele>
        <time>2021-06-26T09:51:57Z</time>
      </trkpt>
      <trkpt lat="46.20668" lon="6.77591">
        <ele>1496.2</ele>
        <time>2021-06-26T09:51:58Z</time>
      </trkpt>
      <trkpt lat="46.2067" lon="6.77588">
        <ele>1496.4</ele>
        <time>2021-06-26T09:51:59Z</time>
      </trkpt>
      <trkpt lat="46.20672" lon="6.77584">
        <ele>1496.6</ele>
        <time>2021-06-26T09:52:00Z</time>
      </trkpt>
      <trkpt lat="46.20675" lon="6.77581">
        <ele>1496.6</ele>
        <time>2021-06-26T09:52:01Z</time>
      </trkpt>
      <trkpt lat="46.20677" lon="6.77578">
        <ele>1496.8</ele>
        <time>2021-06-26T09:52:02Z</time>
      </trkpt>
      <trkpt lat="46.2068" lon="6.77575">
        <ele>1497</ele>
        <time>2021-06-26T09:52:03Z</time>
      </trkpt>
      <trkpt lat="46.20683" lon="6.77573">
        <ele>1497.2</ele>
        <time>2021-06-26T09:52:04Z</time>
      </trkpt>
      <trkpt lat="46.20685" lon="6.7757">
        <ele>1497.4</ele>
        <time>2021-06-26T09:52:05Z</time>
      </trkpt>
      <trkpt lat="46.20688" lon="6.77568">
        <ele>1497.6</ele>
        <time>2021-06-26T09:52:06Z</time>
      </trkpt>
      <trkpt lat="46.20691" lon="6.77567">
        <ele>1497.8</ele>
        <time>2021-06-26T09:52:07Z</time>
      </trkpt>
      <trkpt lat="46.20694" lon="6.77566">
        <ele>1497.8</ele>
        <time>2021-06-26T09:52:08Z</time>
      </trkpt>
      <trkpt lat="46.20698" lon="6.77565">
        <ele>1498.2</ele>
        <time>2021-06-26T09:52:09Z</time>
      </trkpt>
      <trkpt lat="46.20701" lon="6.77564">
        <ele>1498.6</ele>
        <time>2021-06-26T09:52:10Z</time>
      </trkpt>
      <trkpt lat="46.20704" lon="6.77563">
        <ele>1498.6</ele>
        <time>2021-06-26T09:52:11Z</time>
      </trkpt>
      <trkpt lat="46.20707" lon="6.77562">
        <ele>1498.8</ele>
        <time>2021-06-26T09:52:12Z</time>
      </trkpt>
      <trkpt lat="46.2071" lon="6.77561">
        <ele>1499</ele>
        <time>2021-06-26T09:52:13Z</time>
      </trkpt>
      <trkpt lat="46.20712" lon="6.7756">
        <ele>1499</ele>
        <time>2021-06-26T09:52:14Z</time>
      </trkpt>
      <trkpt lat="46.20715" lon="6.77559">
        <ele>1499.2</ele>
        <time>2021-06-26T09:52:15Z</time>
      </trkpt>
      <trkpt lat="46.20718" lon="6.77557">
        <ele>1499.4</ele>
        <time>2021-06-26T09:52:16Z</time>
      </trkpt>
      <trkpt lat="46.20721" lon="6.77555">
        <ele>1499.6</ele>
        <time>2021-06-26T09:52:17Z</time>
      </trkpt>
      <trkpt lat="46.20723" lon="6.77553">
        <ele>1499.4</ele>
        <time>2021-06-26T09:52:18Z</time>
      </trkpt>
      <trkpt lat="46.20726" lon="6.77551">
        <ele>1499.8</ele>
        <time>2021-06-26T09:52:19Z</time>
      </trkpt>
      <trkpt lat="46.20729" lon="6.77549">
        <ele>1499.8</ele>
        <time>2021-06-26T09:52:20Z</time>
      </trkpt>
      <trkpt lat="46.20731" lon="6.77547">
        <ele>1499.8</ele>
        <time>2021-06-26T09:52:21Z</time>
      </trkpt>
      <trkpt lat="46.20734" lon="6.77544">
        <ele>1500</ele>
        <time>2021-06-26T09:52:22Z</time>
      </trkpt>
      <trkpt lat="46.20737" lon="6.77542">
        <ele>1500.2</ele>
        <time>2021-06-26T09:52:23Z</time>
      </trkpt>
      <trkpt lat="46.20739" lon="6.77541">
        <ele>1500.4</ele>
        <time>2021-06-26T09:52:24Z</time>
      </trkpt>
      <trkpt lat="46.20742" lon="6.77539">
        <ele>1500.6</ele>
        <time>2021-06-26T09:52:25Z</time>
      </trkpt>
      <trkpt lat="46.20745" lon="6.77536">
        <ele>1500.6</ele>
        <time>2021-06-26T09:52:26Z</time>
      </trkpt>
      <trkpt lat="46.20748" lon="6.77534">
        <ele>1500.8</ele>
        <time>2021-06-26T09:52:27Z</time>
      </trkpt>
      <trkpt lat="46.2075" lon="6.77532">
        <ele>1501</ele>
        <time>2021-06-26T09:52:28Z</time>
      </trkpt>
      <trkpt lat="46.20753" lon="6.7753">
        <ele>1501.2</ele>
        <time>2021-06-26T09:52:29Z</time>
      </trkpt>
      <trkpt lat="46.20756" lon="6.77528">
        <ele>1501.2</ele>
        <time>2021-06-26T09:52:30Z</time>
      </trkpt>
      <trkpt lat="46.20758" lon="6.77526">
        <ele>1501.4</ele>
        <time>2021-06-26T09:52:31Z</time>
      </trkpt>
      <trkpt lat="46.20761" lon="6.77524">
        <ele>1501.6</ele>
        <time>2021-06-26T09:52:32Z</time>
      </trkpt>
      <trkpt lat="46.20764" lon="6.77521">
        <ele>1501.6</ele>
        <time>2021-06-26T09:52:33Z</time>
      </trkpt>
      <trkpt lat="46.20766" lon="6.77518">
        <ele>1501.8</ele>
        <time>2021-06-26T09:52:34Z</time>
      </trkpt>
      <trkpt lat="46.20769" lon="6.77516">
        <ele>1502</ele>
        <time>2021-06-26T09:52:35Z</time>
      </trkpt>
      <trkpt lat="46.20772" lon="6.77513">
        <ele>1502.2</ele>
        <time>2021-06-26T09:52:36Z</time>
      </trkpt>
      <trkpt lat="46.20774" lon="6.7751">
        <ele>1502.4</ele>
        <time>2021-06-26T09:52:37Z</time>
      </trkpt>
      <trkpt lat="46.20777" lon="6.77508">
        <ele>1502.8</ele>
        <time>2021-06-26T09:52:38Z</time>
      </trkpt>
      <trkpt lat="46.20779" lon="6.77505">
        <ele>1502.8</ele>
        <time>2021-06-26T09:52:39Z</time>
      </trkpt>
      <trkpt lat="46.20782" lon="6.77503">
        <ele>1503.2</ele>
        <time>2021-06-26T09:52:40Z</time>
      </trkpt>
      <trkpt lat="46.20785" lon="6.775">
        <ele>1503.2</ele>
        <time>2021-06-26T09:52:41Z</time>
      </trkpt>
      <trkpt lat="46.20787" lon="6.77498">
        <ele>1503.4</ele>
        <time>2021-06-26T09:52:42Z</time>
      </trkpt>
      <trkpt lat="46.2079" lon="6.77496">
        <ele>1503.4</ele>
        <time>2021-06-26T09:52:43Z</time>
      </trkpt>
      <trkpt lat="46.20792" lon="6.77494">
        <ele>1503.6</ele>
        <time>2021-06-26T09:52:44Z</time>
      </trkpt>
      <trkpt lat="46.20795" lon="6.77492">
        <ele>1503.6</ele>
        <time>2021-06-26T09:52:45Z</time>
      </trkpt>
      <trkpt lat="46.20798" lon="6.7749">
        <ele>1504</ele>
        <time>2021-06-26T09:52:46Z</time>
      </trkpt>
      <trkpt lat="46.20801" lon="6.77488">
        <ele>1504</ele>
        <time>2021-06-26T09:52:47Z</time>
      </trkpt>
      <trkpt lat="46.20804" lon="6.77485">
        <ele>1504.2</ele>
        <time>2021-06-26T09:52:48Z</time>
      </trkpt>
      <trkpt lat="46.20807" lon="6.77483">
        <ele>1504.4</ele>
        <time>2021-06-26T09:52:49Z</time>
      </trkpt>
      <trkpt lat="46.2081" lon="6.7748">
        <ele>1504.4</ele>
        <time>2021-06-26T09:52:50Z</time>
      </trkpt>
      <trkpt lat="46.20813" lon="6.77478">
        <ele>1504.8</ele>
        <time>2021-06-26T09:52:51Z</time>
      </trkpt>
      <trkpt lat="46.20815" lon="6.77475">
        <ele>1504.8</ele>
        <time>2021-06-26T09:52:52Z</time>
      </trkpt>
      <trkpt lat="46.20818" lon="6.77472">
        <ele>1505.2</ele>
        <time>2021-06-26T09:52:53Z</time>
      </trkpt>
      <trkpt lat="46.20821" lon="6.7747">
        <ele>1505.4</ele>
        <time>2021-06-26T09:52:54Z</time>
      </trkpt>
      <trkpt lat="46.20824" lon="6.77467">
        <ele>1505.2</ele>
        <time>2021-06-26T09:52:55Z</time>
      </trkpt>
      <trkpt lat="46.20827" lon="6.77464">
        <ele>1505.6</ele>
        <time>2021-06-26T09:52:56Z</time>
      </trkpt>
      <trkpt lat="46.2083" lon="6.77461">
        <ele>1505.8</ele>
        <time>2021-06-26T09:52:57Z</time>
      </trkpt>
      <trkpt lat="46.20832" lon="6.77459">
        <ele>1505.8</ele>
        <time>2021-06-26T09:52:58Z</time>
      </trkpt>
      <trkpt lat="46.20835" lon="6.77455">
        <ele>1506</ele>
        <time>2021-06-26T09:52:59Z</time>
      </trkpt>
      <trkpt lat="46.20838" lon="6.77452">
        <ele>1506.2</ele>
        <time>2021-06-26T09:53:00Z</time>
      </trkpt>
      <trkpt lat="46.2084" lon="6.77448">
        <ele>1506.4</ele>
        <time>2021-06-26T09:53:01Z</time>
      </trkpt>
      <trkpt lat="46.20843" lon="6.77444">
        <ele>1506.6</ele>
        <time>2021-06-26T09:53:02Z</time>
      </trkpt>
      <trkpt lat="46.20845" lon="6.7744">
        <ele>1507</ele>
        <time>2021-06-26T09:53:03Z</time>
      </trkpt>
      <trkpt lat="46.20847" lon="6.77436">
        <ele>1507</ele>
        <time>2021-06-26T09:53:04Z</time>
      </trkpt>
      <trkpt lat="46.20849" lon="6.77432">
        <ele>1507</ele>
        <time>2021-06-26T09:53:05Z</time>
      </trkpt>
      <trkpt lat="46.20851" lon="6.77427">
        <ele>1507.2</ele>
        <time>2021-06-26T09:53:06Z</time>
      </trkpt>
      <trkpt lat="46.20852" lon="6.77422">
        <ele>1507.2</ele>
        <time>2021-06-26T09:53:07Z</time>
      </trkpt>
      <trkpt lat="46.20853" lon="6.77417">
        <ele>1507.4</ele>
        <time>2021-06-26T09:53:08Z</time>
      </trkpt>
      <trkpt lat="46.20854" lon="6.77412">
        <ele>1507.6</ele>
        <time>2021-06-26T09:53:09Z</time>
      </trkpt>
      <trkpt lat="46.20855" lon="6.77407">
        <ele>1507.8</ele>
        <time>2021-06-26T09:53:10Z</time>
      </trkpt>
      <trkpt lat="46.20856" lon="6.77402">
        <ele>1508</ele>
        <time>2021-06-26T09:53:11Z</time>
      </trkpt>
      <trkpt lat="46.20857" lon="6.77397">
        <ele>1508</ele>
        <time>2021-06-26T09:53:12Z</time>
      </trkpt>
      <trkpt lat="46.20858" lon="6.77392">
        <ele>1508.4</ele>
        <time>2021-06-26T09:53:13Z</time>
      </trkpt>
      <trkpt lat="46.20859" lon="6.77387">
        <ele>1508.6</ele>
        <time>2021-06-26T09:53:14Z</time>
      </trkpt>
      <trkpt lat="46.20859" lon="6.77383">
        <ele>1508.6</ele>
        <time>2021-06-26T09:53:15Z</time>
      </trkpt>
      <trkpt lat="46.2086" lon="6.77378">
        <ele>1508.8</ele>
        <time>2021-06-26T09:53:16Z</time>
      </trkpt>
      <trkpt lat="46.2086" lon="6.77373">
        <ele>1509</ele>
        <time>2021-06-26T09:53:17Z</time>
      </trkpt>
      <trkpt lat="46.2086" lon="6.77368">
        <ele>1509.2</ele>
        <time>2021-06-26T09:53:18Z</time>
      </trkpt>
      <trkpt lat="46.2086" lon="6.77363">
        <ele>1509.4</ele>
        <time>2021-06-26T09:53:19Z</time>
      </trkpt>
      <trkpt lat="46.20861" lon="6.77358">
        <ele>1509.6</ele>
        <time>2021-06-26T09:53:20Z</time>
      </trkpt>
      <trkpt lat="46.20861" lon="6.77353">
        <ele>1510</ele>
        <time>2021-06-26T09:53:21Z</time>
      </trkpt>
      <trkpt lat="46.20861" lon="6.77349">
        <ele>1510</ele>
        <time>2021-06-26T09:53:22Z</time>
      </trkpt>
      <trkpt lat="46.20862" lon="6.77344">
        <ele>1510.4</ele>
        <time>2021-06-26T09:53:23Z</time>
      </trkpt>
      <trkpt lat="46.20862" lon="6.7734">
        <ele>1510.6</ele>
        <time>2021-06-26T09:53:24Z</time>
      </trkpt>
      <trkpt lat="46.20862" lon="6.77336">
        <ele>1510.6</ele>
        <time>2021-06-26T09:53:25Z</time>
      </trkpt>
      <trkpt lat="46.20862" lon="6.77332">
        <ele>1510.6</ele>
        <time>2021-06-26T09:53:26Z</time>
      </trkpt>
      <trkpt lat="46.20861" lon="6.77328">
        <ele>1510.8</ele>
        <time>2021-06-26T09:53:27Z</time>
      </trkpt>
      <trkpt lat="46.2086" lon="6.77324">
        <ele>1510.8</ele>
        <time>2021-06-26T09:53:28Z</time>
      </trkpt>
      <trkpt lat="46.20857" lon="6.7732">
        <ele>1511</ele>
        <time>2021-06-26T09:53:29Z</time>
      </trkpt>
      <trkpt lat="46.20854" lon="6.77318">
        <ele>1511.4</ele>
        <time>2021-06-26T09:53:30Z</time>
      </trkpt>
      <trkpt lat="46.20852" lon="6.77317">
        <ele>1511.4</ele>
        <time>2021-06-26T09:53:31Z</time>
      </trkpt>
      <trkpt lat="46.20849" lon="6.77317">
        <ele>1511.6</ele>
        <time>2021-06-26T09:53:32Z</time>
      </trkpt>
      <trkpt lat="46.20847" lon="6.77318">
        <ele>1512</ele>
        <time>2021-06-26T09:53:33Z</time>
      </trkpt>
      <trkpt lat="46.20845" lon="6.7732">
        <ele>1512.2</ele>
        <time>2021-06-26T09:53:34Z</time>
      </trkpt>
      <trkpt lat="46.20842" lon="6.77322">
        <ele>1512.2</ele>
        <time>2021-06-26T09:53:35Z</time>
      </trkpt>
      <trkpt lat="46.2084" lon="6.77325">
        <ele>1512.2</ele>
        <time>2021-06-26T09:53:36Z</time>
      </trkpt>
      <trkpt lat="46.20836" lon="6.77327">
        <ele>1512.4</ele>
        <time>2021-06-26T09:53:37Z</time>
      </trkpt>
      <trkpt lat="46.20833" lon="6.77329">
        <ele>1512.6</ele>
        <time>2021-06-26T09:53:38Z</time>
      </trkpt>
      <trkpt lat="46.20829" lon="6.7733">
        <ele>1512.6</ele>
        <time>2021-06-26T09:53:39Z</time>
      </trkpt>
      <trkpt lat="46.20826" lon="6.7733">
        <ele>1512.8</ele>
        <time>2021-06-26T09:53:40Z</time>
      </trkpt>
      <trkpt lat="46.20823" lon="6.77328">
        <ele>1513.2</ele>
        <time>2021-06-26T09:53:41Z</time>
      </trkpt>
      <trkpt lat="46.2082" lon="6.77326">
        <ele>1513.2</ele>
        <time>2021-06-26T09:53:42Z</time>
      </trkpt>
      <trkpt lat="46.20818" lon="6.77323">
        <ele>1513.6</ele>
        <time>2021-06-26T09:53:43Z</time>
      </trkpt>
      <trkpt lat="46.20817" lon="6.77319">
        <ele>1513.6</ele>
        <time>2021-06-26T09:53:44Z</time>
      </trkpt>
      <trkpt lat="46.20816" lon="6.77314">
        <ele>1513.6</ele>
        <time>2021-06-26T09:53:45Z</time>
      </trkpt>
      <trkpt lat="46.20816" lon="6.7731">
        <ele>1513.8</ele>
        <time>2021-06-26T09:53:46Z</time>
      </trkpt>
      <trkpt lat="46.20816" lon="6.77304">
        <ele>1514</ele>
        <time>2021-06-26T09:53:47Z</time>
      </trkpt>
      <trkpt lat="46.20816" lon="6.77299">
        <ele>1513.8</ele>
        <time>2021-06-26T09:53:48Z</time>
      </trkpt>
      <trkpt lat="46.20816" lon="6.77294">
        <ele>1514.2</ele>
        <time>2021-06-26T09:53:49Z</time>
      </trkpt>
      <trkpt lat="46.20817" lon="6.77288">
        <ele>1514.4</ele>
        <time>2021-06-26T09:53:50Z</time>
      </trkpt>
      <trkpt lat="46.20817" lon="6.77283">
        <ele>1514.4</ele>
        <time>2021-06-26T09:53:51Z</time>
      </trkpt>
      <trkpt lat="46.20817" lon="6.77278">
        <ele>1514.4</ele>
        <time>2021-06-26T09:53:52Z</time>
      </trkpt>
      <trkpt lat="46.20818" lon="6.77272">
        <ele>1514.6</ele>
        <time>2021-06-26T09:53:53Z</time>
      </trkpt>
      <trkpt lat="46.20818" lon="6.77267">
        <ele>1514.8</ele>
        <time>2021-06-26T09:53:54Z</time>
      </trkpt>
      <trkpt lat="46.20818" lon="6.77262">
        <ele>1515</ele>
        <time>2021-06-26T09:53:55Z</time>
      </trkpt>
      <trkpt lat="46.20818" lon="6.77257">
        <ele>1515.2</ele>
        <time>2021-06-26T09:53:56Z</time>
      </trkpt>
      <trkpt lat="46.20818" lon="6.77251">
        <ele>1515.4</ele>
        <time>2021-06-26T09:53:57Z</time>
      </trkpt>
      <trkpt lat="46.20818" lon="6.77246">
        <ele>1515.4</ele>
        <time>2021-06-26T09:53:58Z</time>
      </trkpt>
      <trkpt lat="46.20818" lon="6.77241">
        <ele>1515.6</ele>
        <time>2021-06-26T09:53:59Z</time>
      </trkpt>
      <trkpt lat="46.20818" lon="6.77235">
        <ele>1516</ele>
        <time>2021-06-26T09:54:00Z</time>
      </trkpt>
      <trkpt lat="46.20816" lon="6.77231">
        <ele>1516.2</ele>
        <time>2021-06-26T09:54:01Z</time>
      </trkpt>
      <trkpt lat="46.20814" lon="6.77226">
        <ele>1516.4</ele>
        <time>2021-06-26T09:54:02Z</time>
      </trkpt>
      <trkpt lat="46.20813" lon="6.77222">
        <ele>1516.6</ele>
        <time>2021-06-26T09:54:03Z</time>
      </trkpt>
      <trkpt lat="46.2081" lon="6.77218">
        <ele>1516.6</ele>
        <time>2021-06-26T09:54:04Z</time>
      </trkpt>
      <trkpt lat="46.20808" lon="6.77215">
        <ele>1516.8</ele>
        <time>2021-06-26T09:54:05Z</time>
      </trkpt>
      <trkpt lat="46.20804" lon="6.77212">
        <ele>1517</ele>
        <time>2021-06-26T09:54:06Z</time>
      </trkpt>
      <trkpt lat="46.208" lon="6.77209">
        <ele>1517.4</ele>
        <time>2021-06-26T09:54:07Z</time>
      </trkpt>
      <trkpt lat="46.20796" lon="6.77208">
        <ele>1517.4</ele>
        <time>2021-06-26T09:54:08Z</time>
      </trkpt>
      <trkpt lat="46.20791" lon="6.77207">
        <ele>1517.6</ele>
        <time>2021-06-26T09:54:09Z</time>
      </trkpt>
      <trkpt lat="46.20787" lon="6.77207">
        <ele>1517.8</ele>
        <time>2021-06-26T09:54:10Z</time>
      </trkpt>
      <trkpt lat="46.20783" lon="6.77207">
        <ele>1518</ele>
        <time>2021-06-26T09:54:11Z</time>
      </trkpt>
      <trkpt lat="46.20779" lon="6.77208">
        <ele>1518.2</ele>
        <time>2021-06-26T09:54:12Z</time>
      </trkpt>
      <trkpt lat="46.20776" lon="6.77208">
        <ele>1518.2</ele>
        <time>2021-06-26T09:54:13Z</time>
      </trkpt>
      <trkpt lat="46.20772" lon="6.77209">
        <ele>1518.4</ele>
        <time>2021-06-26T09:54:14Z</time>
      </trkpt>
      <trkpt lat="46.20768" lon="6.7721">
        <ele>1518.6</ele>
        <time>2021-06-26T09:54:15Z</time>
      </trkpt>
      <trkpt lat="46.20765" lon="6.7721">
        <ele>1518.6</ele>
        <time>2021-06-26T09:54:16Z</time>
      </trkpt>
      <trkpt lat="46.20761" lon="6.77209">
        <ele>1518.8</ele>
        <time>2021-06-26T09:54:17Z</time>
      </trkpt>
      <trkpt lat="46.20757" lon="6.77208">
        <ele>1519</ele>
        <time>2021-06-26T09:54:18Z</time>
      </trkpt>
      <trkpt lat="46.20754" lon="6.77206">
        <ele>1519.2</ele>
        <time>2021-06-26T09:54:19Z</time>
      </trkpt>
      <trkpt lat="46.20751" lon="6.77204">
        <ele>1519.4</ele>
        <time>2021-06-26T09:54:20Z</time>
      </trkpt>
      <trkpt lat="46.20748" lon="6.77201">
        <ele>1519.4</ele>
        <time>2021-06-26T09:54:21Z</time>
      </trkpt>
      <trkpt lat="46.20745" lon="6.77199">
        <ele>1519.6</ele>
        <time>2021-06-26T09:54:22Z</time>
      </trkpt>
      <trkpt lat="46.20743" lon="6.77197">
        <ele>1519.8</ele>
        <time>2021-06-26T09:54:23Z</time>
      </trkpt>
      <trkpt lat="46.20741" lon="6.77194">
        <ele>1520</ele>
        <time>2021-06-26T09:54:24Z</time>
      </trkpt>
      <trkpt lat="46.20739" lon="6.77192">
        <ele>1520.2</ele>
        <time>2021-06-26T09:54:25Z</time>
      </trkpt>
      <trkpt lat="46.20738" lon="6.77189">
        <ele>1520</ele>
        <time>2021-06-26T09:54:26Z</time>
      </trkpt>
      <trkpt lat="46.20736" lon="6.77187">
        <ele>1520.4</ele>
        <time>2021-06-26T09:54:27Z</time>
      </trkpt>
      <trkpt lat="46.20734" lon="6.77184">
        <ele>1520.4</ele>
        <time>2021-06-26T09:54:28Z</time>
      </trkpt>
      <trkpt lat="46.20732" lon="6.77181">
        <ele>1520.6</ele>
        <time>2021-06-26T09:54:29Z</time>
      </trkpt>
      <trkpt lat="46.20731" lon="6.77178">
        <ele>1521</ele>
        <time>2021-06-26T09:54:30Z</time>
      </trkpt>
      <trkpt lat="46.20729" lon="6.77175">
        <ele>1521</ele>
        <time>2021-06-26T09:54:31Z</time>
      </trkpt>
      <trkpt lat="46.20727" lon="6.77172">
        <ele>1521</ele>
        <time>2021-06-26T09:54:32Z</time>
      </trkpt>
      <trkpt lat="46.20725" lon="6.77169">
        <ele>1521.6</ele>
        <time>2021-06-26T09:54:33Z</time>
      </trkpt>
      <trkpt lat="46.20724" lon="6.77165">
        <ele>1521.6</ele>
        <time>2021-06-26T09:54:34Z</time>
      </trkpt>
      <trkpt lat="46.20722" lon="6.77162">
        <ele>1521.6</ele>
        <time>2021-06-26T09:54:35Z</time>
      </trkpt>
      <trkpt lat="46.2072" lon="6.77158">
        <ele>1521.8</ele>
        <time>2021-06-26T09:54:36Z</time>
      </trkpt>
      <trkpt lat="46.20718" lon="6.77155">
        <ele>1522.2</ele>
        <time>2021-06-26T09:54:37Z</time>
      </trkpt>
      <trkpt lat="46.20716" lon="6.77151">
        <ele>1522.2</ele>
        <time>2021-06-26T09:54:38Z</time>
      </trkpt>
      <trkpt lat="46.20715" lon="6.77147">
        <ele>1522.6</ele>
        <time>2021-06-26T09:54:39Z</time>
      </trkpt>
      <trkpt lat="46.20713" lon="6.77143">
        <ele>1522.8</ele>
        <time>2021-06-26T09:54:40Z</time>
      </trkpt>
      <trkpt lat="46.20713" lon="6.77139">
        <ele>1523</ele>
        <time>2021-06-26T09:54:41Z</time>
      </trkpt>
      <trkpt lat="46.20713" lon="6.77135">
        <ele>1523</ele>
        <time>2021-06-26T09:54:42Z</time>
      </trkpt>
      <trkpt lat="46.20713" lon="6.77131">
        <ele>1523.6</ele>
        <time>2021-06-26T09:54:43Z</time>
      </trkpt>
      <trkpt lat="46.20714" lon="6.77126">
        <ele>1523.8</ele>
        <time>2021-06-26T09:54:44Z</time>
      </trkpt>
      <trkpt lat="46.20714" lon="6.77122">
        <ele>1523.8</ele>
        <time>2021-06-26T09:54:45Z</time>
      </trkpt>
      <trkpt lat="46.20715" lon="6.77118">
        <ele>1524.2</ele>
        <time>2021-06-26T09:54:46Z</time>
      </trkpt>
      <trkpt lat="46.20717" lon="6.77114">
        <ele>1524.2</ele>
        <time>2021-06-26T09:54:47Z</time>
      </trkpt>
      <trkpt lat="46.20719" lon="6.7711">
        <ele>1524.2</ele>
        <time>2021-06-26T09:54:48Z</time>
      </trkpt>
      <trkpt lat="46.2072" lon="6.77106">
        <ele>1524.6</ele>
        <time>2021-06-26T09:54:49Z</time>
      </trkpt>
      <trkpt lat="46.20722" lon="6.77102">
        <ele>1524.8</ele>
        <time>2021-06-26T09:54:50Z</time>
      </trkpt>
      <trkpt lat="46.20724" lon="6.77099">
        <ele>1524.8</ele>
        <time>2021-06-26T09:54:51Z</time>
      </trkpt>
      <trkpt lat="46.20726" lon="6.77094">
        <ele>1525.2</ele>
        <time>2021-06-26T09:54:52Z</time>
      </trkpt>
      <trkpt lat="46.20727" lon="6.7709">
        <ele>1525.4</ele>
        <time>2021-06-26T09:54:53Z</time>
      </trkpt>
      <trkpt lat="46.20728" lon="6.77085">
        <ele>1525.8</ele>
        <time>2021-06-26T09:54:54Z</time>
      </trkpt>
      <trkpt lat="46.2073" lon="6.77081">
        <ele>1525.8</ele>
        <time>2021-06-26T09:54:55Z</time>
      </trkpt>
      <trkpt lat="46.20731" lon="6.77077">
        <ele>1525.8</ele>
        <time>2021-06-26T09:54:56Z</time>
      </trkpt>
      <trkpt lat="46.20733" lon="6.77073">
        <ele>1525.8</ele>
        <time>2021-06-26T09:54:57Z</time>
      </trkpt>
      <trkpt lat="46.20735" lon="6.77069">
        <ele>1526</ele>
        <time>2021-06-26T09:54:58Z</time>
      </trkpt>
      <trkpt lat="46.20736" lon="6.77065">
        <ele>1526.2</ele>
        <time>2021-06-26T09:54:59Z</time>
      </trkpt>
      <trkpt lat="46.20737" lon="6.77061">
        <ele>1526.4</ele>
        <time>2021-06-26T09:55:00Z</time>
      </trkpt>
      <trkpt lat="46.20738" lon="6.77057">
        <ele>1526.8</ele>
        <time>2021-06-26T09:55:01Z</time>
      </trkpt>
      <trkpt lat="46.20739" lon="6.77053">
        <ele>1527.2</ele>
        <time>2021-06-26T09:55:02Z</time>
      </trkpt>
      <trkpt lat="46.20739" lon="6.77049">
        <ele>1527.2</ele>
        <time>2021-06-26T09:55:03Z</time>
      </trkpt>
      <trkpt lat="46.2074" lon="6.77045">
        <ele>1527.6</ele>
        <time>2021-06-26T09:55:04Z</time>
      </trkpt>
      <trkpt lat="46.20741" lon="6.7704">
        <ele>1527.6</ele>
        <time>2021-06-26T09:55:05Z</time>
      </trkpt>
      <trkpt lat="46.20741" lon="6.77035">
        <ele>1527.8</ele>
        <time>2021-06-26T09:55:06Z</time>
      </trkpt>
      <trkpt lat="46.20742" lon="6.7703">
        <ele>1527.8</ele>
        <time>2021-06-26T09:55:07Z</time>
      </trkpt>
      <trkpt lat="46.20742" lon="6.77025">
        <ele>1528.2</ele>
        <time>2021-06-26T09:55:08Z</time>
      </trkpt>
      <trkpt lat="46.20742" lon="6.7702">
        <ele>1528.6</ele>
        <time>2021-06-26T09:55:09Z</time>
      </trkpt>
      <trkpt lat="46.20742" lon="6.77015">
        <ele>1529</ele>
        <time>2021-06-26T09:55:10Z</time>
      </trkpt>
      <trkpt lat="46.20741" lon="6.7701">
        <ele>1529</ele>
        <time>2021-06-26T09:55:11Z</time>
      </trkpt>
      <trkpt lat="46.20741" lon="6.77006">
        <ele>1529.2</ele>
        <time>2021-06-26T09:55:12Z</time>
      </trkpt>
      <trkpt lat="46.20741" lon="6.77001">
        <ele>1529.2</ele>
        <time>2021-06-26T09:55:13Z</time>
      </trkpt>
      <trkpt lat="46.2074" lon="6.76996">
        <ele>1529.4</ele>
        <time>2021-06-26T09:55:14Z</time>
      </trkpt>
      <trkpt lat="46.2074" lon="6.76992">
        <ele>1529.4</ele>
        <time>2021-06-26T09:55:15Z</time>
      </trkpt>
      <trkpt lat="46.2074" lon="6.76987">
        <ele>1529.6</ele>
        <time>2021-06-26T09:55:16Z</time>
      </trkpt>
      <trkpt lat="46.2074" lon="6.76983">
        <ele>1529.8</ele>
        <time>2021-06-26T09:55:17Z</time>
      </trkpt>
      <trkpt lat="46.20739" lon="6.76978">
        <ele>1530</ele>
        <time>2021-06-26T09:55:18Z</time>
      </trkpt>
      <trkpt lat="46.20739" lon="6.76974">
        <ele>1530.4</ele>
        <time>2021-06-26T09:55:19Z</time>
      </trkpt>
      <trkpt lat="46.20739" lon="6.76969">
        <ele>1530.4</ele>
        <time>2021-06-26T09:55:20Z</time>
      </trkpt>
      <trkpt lat="46.20739" lon="6.76964">
        <ele>1530.4</ele>
        <time>2021-06-26T09:55:21Z</time>
      </trkpt>
      <trkpt lat="46.20738" lon="6.7696">
        <ele>1530.6</ele>
        <time>2021-06-26T09:55:22Z</time>
      </trkpt>
      <trkpt lat="46.20738" lon="6.76955">
        <ele>1531</ele>
        <time>2021-06-26T09:55:23Z</time>
      </trkpt>
      <trkpt lat="46.20738" lon="6.7695">
        <ele>1531</ele>
        <time>2021-06-26T09:55:24Z</time>
      </trkpt>
      <trkpt lat="46.20738" lon="6.76946">
        <ele>1531.4</ele>
        <time>2021-06-26T09:55:25Z</time>
      </trkpt>
      <trkpt lat="46.20739" lon="6.76941">
        <ele>1531.6</ele>
        <time>2021-06-26T09:55:26Z</time>
      </trkpt>
      <trkpt lat="46.20739" lon="6.76936">
        <ele>1531.8</ele>
        <time>2021-06-26T09:55:27Z</time>
      </trkpt>
      <trkpt lat="46.20739" lon="6.76932">
        <ele>1531.8</ele>
        <time>2021-06-26T09:55:28Z</time>
      </trkpt>
      <trkpt lat="46.2074" lon="6.76927">
        <ele>1532</ele>
        <time>2021-06-26T09:55:29Z</time>
      </trkpt>
      <trkpt lat="46.2074" lon="6.76923">
        <ele>1532.4</ele>
        <time>2021-06-26T09:55:30Z</time>
      </trkpt>
      <trkpt lat="46.20739" lon="6.76919">
        <ele>1532.4</ele>
        <time>2021-06-26T09:55:31Z</time>
      </trkpt>
      <trkpt lat="46.20739" lon="6.76914">
        <ele>1532.4</ele>
        <time>2021-06-26T09:55:32Z</time>
      </trkpt>
      <trkpt lat="46.20739" lon="6.7691">
        <ele>1532.8</ele>
        <time>2021-06-26T09:55:33Z</time>
      </trkpt>
      <trkpt lat="46.20737" lon="6.76906">
        <ele>1533</ele>
        <time>2021-06-26T09:55:34Z</time>
      </trkpt>
      <trkpt lat="46.20737" lon="6.76901">
        <ele>1533</ele>
        <time>2021-06-26T09:55:35Z</time>
      </trkpt>
      <trkpt lat="46.20736" lon="6.76897">
        <ele>1533.2</ele>
        <time>2021-06-26T09:55:36Z</time>
      </trkpt>
      <trkpt lat="46.20735" lon="6.76893">
        <ele>1533.4</ele>
        <time>2021-06-26T09:55:37Z</time>
      </trkpt>
      <trkpt lat="46.20735" lon="6.76888">
        <ele>1533.6</ele>
        <time>2021-06-26T09:55:38Z</time>
      </trkpt>
      <trkpt lat="46.20734" lon="6.76884">
        <ele>1534</ele>
        <time>2021-06-26T09:55:39Z</time>
      </trkpt>
      <trkpt lat="46.20733" lon="6.7688">
        <ele>1534.2</ele>
        <time>2021-06-26T09:55:40Z</time>
      </trkpt>
      <trkpt lat="46.20733" lon="6.76876">
        <ele>1534.2</ele>
        <time>2021-06-26T09:55:41Z</time>
      </trkpt>
      <trkpt lat="46.20732" lon="6.76872">
        <ele>1534.4</ele>
        <time>2021-06-26T09:55:42Z</time>
      </trkpt>
      <trkpt lat="46.20731" lon="6.76868">
        <ele>1534.4</ele>
        <time>2021-06-26T09:55:43Z</time>
      </trkpt>
      <trkpt lat="46.2073" lon="6.76864">
        <ele>1534.6</ele>
        <time>2021-06-26T09:55:44Z</time>
      </trkpt>
      <trkpt lat="46.20729" lon="6.7686">
        <ele>1534.8</ele>
        <time>2021-06-26T09:55:45Z</time>
      </trkpt>
      <trkpt lat="46.20727" lon="6.76856">
        <ele>1534.8</ele>
        <time>2021-06-26T09:55:46Z</time>
      </trkpt>
      <trkpt lat="46.20725" lon="6.76852">
        <ele>1535.2</ele>
        <time>2021-06-26T09:55:47Z</time>
      </trkpt>
      <trkpt lat="46.20724" lon="6.76848">
        <ele>1535.4</ele>
        <time>2021-06-26T09:55:48Z</time>
      </trkpt>
      <trkpt lat="46.20724" lon="6.76844">
        <ele>1535.6</ele>
        <time>2021-06-26T09:55:49Z</time>
      </trkpt>
      <trkpt lat="46.20723" lon="6.76841">
        <ele>1536</ele>
        <time>2021-06-26T09:55:50Z</time>
      </trkpt>
      <trkpt lat="46.20722" lon="6.76837">
        <ele>1536.2</ele>
        <time>2021-06-26T09:55:51Z</time>
      </trkpt>
      <trkpt lat="46.20721" lon="6.76833">
        <ele>1536.4</ele>
        <time>2021-06-26T09:55:52Z</time>
      </trkpt>
      <trkpt lat="46.2072" lon="6.7683">
        <ele>1536.6</ele>
        <time>2021-06-26T09:55:53Z</time>
      </trkpt>
      <trkpt lat="46.20718" lon="6.76826">
        <ele>1536.8</ele>
        <time>2021-06-26T09:55:54Z</time>
      </trkpt>
      <trkpt lat="46.20716" lon="6.76823">
        <ele>1537</ele>
        <time>2021-06-26T09:55:55Z</time>
      </trkpt>
      <trkpt lat="46.20714" lon="6.7682">
        <ele>1537.2</ele>
        <time>2021-06-26T09:55:56Z</time>
      </trkpt>
      <trkpt lat="46.20712" lon="6.76817">
        <ele>1537.4</ele>
        <time>2021-06-26T09:55:57Z</time>
      </trkpt>
      <trkpt lat="46.2071" lon="6.76815">
        <ele>1537.6</ele>
        <time>2021-06-26T09:55:58Z</time>
      </trkpt>
      <trkpt lat="46.20707" lon="6.76812">
        <ele>1538</ele>
        <time>2021-06-26T09:55:59Z</time>
      </trkpt>
      <trkpt lat="46.20705" lon="6.7681">
        <ele>1538.2</ele>
        <time>2021-06-26T09:56:00Z</time>
      </trkpt>
      <trkpt lat="46.20702" lon="6.76808">
        <ele>1538.4</ele>
        <time>2021-06-26T09:56:01Z</time>
      </trkpt>
      <trkpt lat="46.207" lon="6.76805">
        <ele>1538.4</ele>
        <time>2021-06-26T09:56:02Z</time>
      </trkpt>
      <trkpt lat="46.20698" lon="6.76803">
        <ele>1538.6</ele>
        <time>2021-06-26T09:56:03Z</time>
      </trkpt>
      <trkpt lat="46.20695" lon="6.76801">
        <ele>1538.6</ele>
        <time>2021-06-26T09:56:04Z</time>
      </trkpt>
      <trkpt lat="46.20693" lon="6.76798">
        <ele>1538.8</ele>
        <time>2021-06-26T09:56:05Z</time>
      </trkpt>
      <trkpt lat="46.20692" lon="6.76795">
        <ele>1539</ele>
        <time>2021-06-26T09:56:06Z</time>
      </trkpt>
      <trkpt lat="46.20691" lon="6.76792">
        <ele>1539</ele>
        <time>2021-06-26T09:56:07Z</time>
      </trkpt>
      <trkpt lat="46.20689" lon="6.76788">
        <ele>1539.2</ele>
        <time>2021-06-26T09:56:08Z</time>
      </trkpt>
      <trkpt lat="46.20689" lon="6.76785">
        <ele>1539.6</ele>
        <time>2021-06-26T09:56:09Z</time>
      </trkpt>
      <trkpt lat="46.20688" lon="6.76781">
        <ele>1539.6</ele>
        <time>2021-06-26T09:56:10Z</time>
      </trkpt>
      <trkpt lat="46.20688" lon="6.76777">
        <ele>1539.8</ele>
        <time>2021-06-26T09:56:11Z</time>
      </trkpt>
      <trkpt lat="46.20687" lon="6.76772">
        <ele>1540</ele>
        <time>2021-06-26T09:56:12Z</time>
      </trkpt>
      <trkpt lat="46.20687" lon="6.76767">
        <ele>1540</ele>
        <time>2021-06-26T09:56:13Z</time>
      </trkpt>
      <trkpt lat="46.20686" lon="6.76762">
        <ele>1540.4</ele>
        <time>2021-06-26T09:56:14Z</time>
      </trkpt>
      <trkpt lat="46.20686" lon="6.76757">
        <ele>1540.6</ele>
        <time>2021-06-26T09:56:15Z</time>
      </trkpt>
      <trkpt lat="46.20685" lon="6.76753">
        <ele>1540.6</ele>
        <time>2021-06-26T09:56:16Z</time>
      </trkpt>
      <trkpt lat="46.20685" lon="6.76749">
        <ele>1540.8</ele>
        <time>2021-06-26T09:56:17Z</time>
      </trkpt>
      <trkpt lat="46.20685" lon="6.76744">
        <ele>1541</ele>
        <time>2021-06-26T09:56:18Z</time>
      </trkpt>
      <trkpt lat="46.20685" lon="6.76739">
        <ele>1541.2</ele>
        <time>2021-06-26T09:56:19Z</time>
      </trkpt>
      <trkpt lat="46.20686" lon="6.76735">
        <ele>1541.2</ele>
        <time>2021-06-26T09:56:20Z</time>
      </trkpt>
      <trkpt lat="46.20687" lon="6.7673">
        <ele>1541.4</ele>
        <time>2021-06-26T09:56:21Z</time>
      </trkpt>
      <trkpt lat="46.20687" lon="6.76724">
        <ele>1541.6</ele>
        <time>2021-06-26T09:56:22Z</time>
      </trkpt>
      <trkpt lat="46.20688" lon="6.76719">
        <ele>1541.8</ele>
        <time>2021-06-26T09:56:23Z</time>
      </trkpt>
      <trkpt lat="46.20689" lon="6.76714">
        <ele>1542</ele>
        <time>2021-06-26T09:56:24Z</time>
      </trkpt>
      <trkpt lat="46.2069" lon="6.7671">
        <ele>1542.2</ele>
        <time>2021-06-26T09:56:25Z</time>
      </trkpt>
      <trkpt lat="46.20692" lon="6.76705">
        <ele>1542.4</ele>
        <time>2021-06-26T09:56:26Z</time>
      </trkpt>
      <trkpt lat="46.20693" lon="6.76701">
        <ele>1542.4</ele>
        <time>2021-06-26T09:56:27Z</time>
      </trkpt>
      <trkpt lat="46.20695" lon="6.76696">
        <ele>1542.6</ele>
        <time>2021-06-26T09:56:28Z</time>
      </trkpt>
      <trkpt lat="46.20695" lon="6.76692">
        <ele>1542.8</ele>
        <time>2021-06-26T09:56:29Z</time>
      </trkpt>
      <trkpt lat="46.20697" lon="6.76687">
        <ele>1542.8</ele>
        <time>2021-06-26T09:56:30Z</time>
      </trkpt>
      <trkpt lat="46.20698" lon="6.76683">
        <ele>1543</ele>
        <time>2021-06-26T09:56:31Z</time>
      </trkpt>
      <trkpt lat="46.20699" lon="6.76679">
        <ele>1543.2</ele>
        <time>2021-06-26T09:56:32Z</time>
      </trkpt>
      <trkpt lat="46.207" lon="6.76674">
        <ele>1543.4</ele>
        <time>2021-06-26T09:56:33Z</time>
      </trkpt>
      <trkpt lat="46.20701" lon="6.76669">
        <ele>1543.6</ele>
        <time>2021-06-26T09:56:34Z</time>
      </trkpt>
      <trkpt lat="46.20703" lon="6.76664">
        <ele>1543.8</ele>
        <time>2021-06-26T09:56:35Z</time>
      </trkpt>
      <trkpt lat="46.20704" lon="6.7666">
        <ele>1544</ele>
        <time>2021-06-26T09:56:36Z</time>
      </trkpt>
      <trkpt lat="46.20705" lon="6.76655">
        <ele>1544.4</ele>
        <time>2021-06-26T09:56:37Z</time>
      </trkpt>
      <trkpt lat="46.20707" lon="6.7665">
        <ele>1544.6</ele>
        <time>2021-06-26T09:56:38Z</time>
      </trkpt>
      <trkpt lat="46.20708" lon="6.76646">
        <ele>1544.8</ele>
        <time>2021-06-26T09:56:39Z</time>
      </trkpt>
      <trkpt lat="46.2071" lon="6.76642">
        <ele>1545</ele>
        <time>2021-06-26T09:56:40Z</time>
      </trkpt>
      <trkpt lat="46.20712" lon="6.76638">
        <ele>1545.4</ele>
        <time>2021-06-26T09:56:41Z</time>
      </trkpt>
      <trkpt lat="46.20714" lon="6.76634">
        <ele>1545.4</ele>
        <time>2021-06-26T09:56:42Z</time>
      </trkpt>
      <trkpt lat="46.20715" lon="6.7663">
        <ele>1545.8</ele>
        <time>2021-06-26T09:56:43Z</time>
      </trkpt>
      <trkpt lat="46.20718" lon="6.76627">
        <ele>1545.8</ele>
        <time>2021-06-26T09:56:44Z</time>
      </trkpt>
      <trkpt lat="46.2072" lon="6.76623">
        <ele>1546.2</ele>
        <time>2021-06-26T09:56:45Z</time>
      </trkpt>
      <trkpt lat="46.20722" lon="6.76619">
        <ele>1546.2</ele>
        <time>2021-06-26T09:56:46Z</time>
      </trkpt>
      <trkpt lat="46.20724" lon="6.76615">
        <ele>1546.4</ele>
        <time>2021-06-26T09:56:47Z</time>
      </trkpt>
      <trkpt lat="46.20726" lon="6.76611">
        <ele>1546.6</ele>
        <time>2021-06-26T09:56:48Z</time>
      </trkpt>
      <trkpt lat="46.20727" lon="6.76608">
        <ele>1546.6</ele>
        <time>2021-06-26T09:56:49Z</time>
      </trkpt>
      <trkpt lat="46.20729" lon="6.76604">
        <ele>1546.6</ele>
        <time>2021-06-26T09:56:50Z</time>
      </trkpt>
      <trkpt lat="46.20731" lon="6.766">
        <ele>1547</ele>
        <time>2021-06-26T09:56:51Z</time>
      </trkpt>
      <trkpt lat="46.20733" lon="6.76596">
        <ele>1547.2</ele>
        <time>2021-06-26T09:56:52Z</time>
      </trkpt>
      <trkpt lat="46.20735" lon="6.76592">
        <ele>1547.6</ele>
        <time>2021-06-26T09:56:53Z</time>
      </trkpt>
      <trkpt lat="46.20737" lon="6.76587">
        <ele>1547.6</ele>
        <time>2021-06-26T09:56:54Z</time>
      </trkpt>
      <trkpt lat="46.20738" lon="6.76583">
        <ele>1548</ele>
        <time>2021-06-26T09:56:55Z</time>
      </trkpt>
      <trkpt lat="46.2074" lon="6.76578">
        <ele>1548.2</ele>
        <time>2021-06-26T09:56:56Z</time>
      </trkpt>
      <trkpt lat="46.20741" lon="6.76574">
        <ele>1548.6</ele>
        <time>2021-06-26T09:56:57Z</time>
      </trkpt>
      <trkpt lat="46.20743" lon="6.76569">
        <ele>1549</ele>
        <time>2021-06-26T09:56:58Z</time>
      </trkpt>
      <trkpt lat="46.20744" lon="6.76565">
        <ele>1549.2</ele>
        <time>2021-06-26T09:56:59Z</time>
      </trkpt>
      <trkpt lat="46.20746" lon="6.76561">
        <ele>1549.2</ele>
        <time>2021-06-26T09:57:00Z</time>
      </trkpt>
      <trkpt lat="46.20747" lon="6.76557">
        <ele>1549.6</ele>
        <time>2021-06-26T09:57:01Z</time>
      </trkpt>
      <trkpt lat="46.20749" lon="6.76552">
        <ele>1549.6</ele>
        <time>2021-06-26T09:57:02Z</time>
      </trkpt>
      <trkpt lat="46.2075" lon="6.76548">
        <ele>1549.8</ele>
        <time>2021-06-26T09:57:03Z</time>
      </trkpt>
      <trkpt lat="46.20751" lon="6.76543">
        <ele>1550</ele>
        <time>2021-06-26T09:57:04Z</time>
      </trkpt>
      <trkpt lat="46.20753" lon="6.76539">
        <ele>1550.2</ele>
        <time>2021-06-26T09:57:05Z</time>
      </trkpt>
      <trkpt lat="46.20754" lon="6.76535">
        <ele>1550.2</ele>
        <time>2021-06-26T09:57:06Z</time>
      </trkpt>
      <trkpt lat="46.20756" lon="6.7653">
        <ele>1550.6</ele>
        <time>2021-06-26T09:57:07Z</time>
      </trkpt>
      <trkpt lat="46.20757" lon="6.76526">
        <ele>1550.6</ele>
        <time>2021-06-26T09:57:08Z</time>
      </trkpt>
      <trkpt lat="46.20758" lon="6.76521">
        <ele>1550.8</ele>
        <time>2021-06-26T09:57:09Z</time>
      </trkpt>
      <trkpt lat="46.20759" lon="6.76517">
        <ele>1551.2</ele>
        <time>2021-06-26T09:57:10Z</time>
      </trkpt>
      <trkpt lat="46.2076" lon="6.76512">
        <ele>1551.4</ele>
        <time>2021-06-26T09:57:11Z</time>
      </trkpt>
      <trkpt lat="46.20761" lon="6.76508">
        <ele>1551.4</ele>
        <time>2021-06-26T09:57:12Z</time>
      </trkpt>
      <trkpt lat="46.20762" lon="6.76504">
        <ele>1551.6</ele>
        <time>2021-06-26T09:57:13Z</time>
      </trkpt>
      <trkpt lat="46.20763" lon="6.765">
        <ele>1551.8</ele>
        <time>2021-06-26T09:57:14Z</time>
      </trkpt>
      <trkpt lat="46.20765" lon="6.76496">
        <ele>1551.8</ele>
        <time>2021-06-26T09:57:15Z</time>
      </trkpt>
      <trkpt lat="46.20766" lon="6.76492">
        <ele>1551.8</ele>
        <time>2021-06-26T09:57:16Z</time>
      </trkpt>
      <trkpt lat="46.20767" lon="6.76487">
        <ele>1552.4</ele>
        <time>2021-06-26T09:57:17Z</time>
      </trkpt>
      <trkpt lat="46.20768" lon="6.76483">
        <ele>1552.6</ele>
        <time>2021-06-26T09:57:18Z</time>
      </trkpt>
      <trkpt lat="46.2077" lon="6.76479">
        <ele>1553</ele>
        <time>2021-06-26T09:57:19Z</time>
      </trkpt>
      <trkpt lat="46.2077" lon="6.76475">
        <ele>1553</ele>
        <time>2021-06-26T09:57:20Z</time>
      </trkpt>
      <trkpt lat="46.20771" lon="6.7647">
        <ele>1553.4</ele>
        <time>2021-06-26T09:57:21Z</time>
      </trkpt>
      <trkpt lat="46.20772" lon="6.76466">
        <ele>1553.6</ele>
        <time>2021-06-26T09:57:22Z</time>
      </trkpt>
      <trkpt lat="46.20772" lon="6.76461">
        <ele>1553.6</ele>
        <time>2021-06-26T09:57:23Z</time>
      </trkpt>
      <trkpt lat="46.20772" lon="6.76457">
        <ele>1554</ele>
        <time>2021-06-26T09:57:24Z</time>
      </trkpt>
      <trkpt lat="46.20773" lon="6.76453">
        <ele>1554.2</ele>
        <time>2021-06-26T09:57:25Z</time>
      </trkpt>
      <trkpt lat="46.20773" lon="6.76448">
        <ele>1554.2</ele>
        <time>2021-06-26T09:57:26Z</time>
      </trkpt>
      <trkpt lat="46.20773" lon="6.76443">
        <ele>1554.4</ele>
        <time>2021-06-26T09:57:27Z</time>
      </trkpt>
      <trkpt lat="46.20773" lon="6.76439">
        <ele>1554.4</ele>
        <time>2021-06-26T09:57:28Z</time>
      </trkpt>
      <trkpt lat="46.20773" lon="6.76435">
        <ele>1554.6</ele>
        <time>2021-06-26T09:57:29Z</time>
      </trkpt>
      <trkpt lat="46.20773" lon="6.7643">
        <ele>1554.8</ele>
        <time>2021-06-26T09:57:30Z</time>
      </trkpt>
      <trkpt lat="46.20772" lon="6.76426">
        <ele>1555.2</ele>
        <time>2021-06-26T09:57:31Z</time>
      </trkpt>
      <trkpt lat="46.20772" lon="6.76421">
        <ele>1555.4</ele>
        <time>2021-06-26T09:57:32Z</time>
      </trkpt>
      <trkpt lat="46.2077" lon="6.76418">
        <ele>1555.6</ele>
        <time>2021-06-26T09:57:33Z</time>
      </trkpt>
      <trkpt lat="46.20768" lon="6.76414">
        <ele>1555.8</ele>
        <time>2021-06-26T09:57:34Z</time>
      </trkpt>
      <trkpt lat="46.20765" lon="6.76412">
        <ele>1555.8</ele>
        <time>2021-06-26T09:57:35Z</time>
      </trkpt>
      <trkpt lat="46.20762" lon="6.7641">
        <ele>1555.8</ele>
        <time>2021-06-26T09:57:36Z</time>
      </trkpt>
      <trkpt lat="46.20758" lon="6.76409">
        <ele>1556.2</ele>
        <time>2021-06-26T09:57:37Z</time>
      </trkpt>
      <trkpt lat="46.20755" lon="6.76408">
        <ele>1556.2</ele>
        <time>2021-06-26T09:57:38Z</time>
      </trkpt>
      <trkpt lat="46.20751" lon="6.76407">
        <ele>1556.4</ele>
        <time>2021-06-26T09:57:39Z</time>
      </trkpt>
      <trkpt lat="46.20748" lon="6.76407">
        <ele>1556.8</ele>
        <time>2021-06-26T09:57:40Z</time>
      </trkpt>
      <trkpt lat="46.20745" lon="6.76406">
        <ele>1557</ele>
        <time>2021-06-26T09:57:41Z</time>
      </trkpt>
      <trkpt lat="46.20741" lon="6.76406">
        <ele>1557.2</ele>
        <time>2021-06-26T09:57:42Z</time>
      </trkpt>
      <trkpt lat="46.20738" lon="6.76406">
        <ele>1557.4</ele>
        <time>2021-06-26T09:57:43Z</time>
      </trkpt>
      <trkpt lat="46.20734" lon="6.76405">
        <ele>1557.4</ele>
        <time>2021-06-26T09:57:44Z</time>
      </trkpt>
      <trkpt lat="46.2073" lon="6.76405">
        <ele>1557.8</ele>
        <time>2021-06-26T09:57:45Z</time>
      </trkpt>
      <trkpt lat="46.20727" lon="6.76404">
        <ele>1558</ele>
        <time>2021-06-26T09:57:46Z</time>
      </trkpt>
      <trkpt lat="46.20723" lon="6.76404">
        <ele>1558.2</ele>
        <time>2021-06-26T09:57:47Z</time>
      </trkpt>
      <trkpt lat="46.2072" lon="6.76403">
        <ele>1558.4</ele>
        <time>2021-06-26T09:57:48Z</time>
      </trkpt>
      <trkpt lat="46.20716" lon="6.76402">
        <ele>1558.4</ele>
        <time>2021-06-26T09:57:49Z</time>
      </trkpt>
      <trkpt lat="46.20712" lon="6.76401">
        <ele>1558.6</ele>
        <time>2021-06-26T09:57:50Z</time>
      </trkpt>
      <trkpt lat="46.20708" lon="6.764">
        <ele>1558.8</ele>
        <time>2021-06-26T09:57:51Z</time>
      </trkpt>
      <trkpt lat="46.20704" lon="6.76399">
        <ele>1559</ele>
        <time>2021-06-26T09:57:52Z</time>
      </trkpt>
      <trkpt lat="46.20701" lon="6.76399">
        <ele>1559</ele>
        <time>2021-06-26T09:57:53Z</time>
      </trkpt>
      <trkpt lat="46.20697" lon="6.76398">
        <ele>1559.2</ele>
        <time>2021-06-26T09:57:54Z</time>
      </trkpt>
      <trkpt lat="46.20693" lon="6.76398">
        <ele>1559.4</ele>
        <time>2021-06-26T09:57:55Z</time>
      </trkpt>
      <trkpt lat="46.2069" lon="6.76397">
        <ele>1559.4</ele>
        <time>2021-06-26T09:57:56Z</time>
      </trkpt>
      <trkpt lat="46.20686" lon="6.76397">
        <ele>1559.4</ele>
        <time>2021-06-26T09:57:57Z</time>
      </trkpt>
      <trkpt lat="46.20682" lon="6.76397">
        <ele>1559.6</ele>
        <time>2021-06-26T09:57:58Z</time>
      </trkpt>
      <trkpt lat="46.20678" lon="6.76396">
        <ele>1560</ele>
        <time>2021-06-26T09:57:59Z</time>
      </trkpt>
      <trkpt lat="46.20673" lon="6.76395">
        <ele>1560.2</ele>
        <time>2021-06-26T09:58:00Z</time>
      </trkpt>
      <trkpt lat="46.20669" lon="6.76395">
        <ele>1560.4</ele>
        <time>2021-06-26T09:58:01Z</time>
      </trkpt>
      <trkpt lat="46.20665" lon="6.76393">
        <ele>1560.2</ele>
        <time>2021-06-26T09:58:02Z</time>
      </trkpt>
      <trkpt lat="46.20661" lon="6.76392">
        <ele>1560.4</ele>
        <time>2021-06-26T09:58:03Z</time>
      </trkpt>
      <trkpt lat="46.20657" lon="6.76391">
        <ele>1560.4</ele>
        <time>2021-06-26T09:58:04Z</time>
      </trkpt>
      <trkpt lat="46.20654" lon="6.76389">
        <ele>1560.6</ele>
        <time>2021-06-26T09:58:05Z</time>
      </trkpt>
      <trkpt lat="46.20651" lon="6.76387">
        <ele>1560.6</ele>
        <time>2021-06-26T09:58:06Z</time>
      </trkpt>
      <trkpt lat="46.20648" lon="6.76383">
        <ele>1560.6</ele>
        <time>2021-06-26T09:58:07Z</time>
      </trkpt>
      <trkpt lat="46.20644" lon="6.76379">
        <ele>1560.8</ele>
        <time>2021-06-26T09:58:08Z</time>
      </trkpt>
      <trkpt lat="46.20641" lon="6.76376">
        <ele>1561</ele>
        <time>2021-06-26T09:58:09Z</time>
      </trkpt>
      <trkpt lat="46.20639" lon="6.76371">
        <ele>1561</ele>
        <time>2021-06-26T09:58:10Z</time>
      </trkpt>
      <trkpt lat="46.20636" lon="6.76366">
        <ele>1561.2</ele>
        <time>2021-06-26T09:58:11Z</time>
      </trkpt>
      <trkpt lat="46.20634" lon="6.76361">
        <ele>1561.2</ele>
        <time>2021-06-26T09:58:12Z</time>
      </trkpt>
      <trkpt lat="46.20634" lon="6.76354">
        <ele>1561.6</ele>
        <time>2021-06-26T09:58:13Z</time>
      </trkpt>
      <trkpt lat="46.20634" lon="6.76348">
        <ele>1561.6</ele>
        <time>2021-06-26T09:58:14Z</time>
      </trkpt>
      <trkpt lat="46.20634" lon="6.76341">
        <ele>1561.4</ele>
        <time>2021-06-26T09:58:15Z</time>
      </trkpt>
      <trkpt lat="46.20635" lon="6.76334">
        <ele>1561.6</ele>
        <time>2021-06-26T09:58:16Z</time>
      </trkpt>
      <trkpt lat="46.20637" lon="6.76328">
        <ele>1561.6</ele>
        <time>2021-06-26T09:58:17Z</time>
      </trkpt>
      <trkpt lat="46.20639" lon="6.76322">
        <ele>1561.8</ele>
        <time>2021-06-26T09:58:18Z</time>
      </trkpt>
      <trkpt lat="46.20642" lon="6.76309">
        <ele>1562</ele>
        <time>2021-06-26T09:58:20Z</time>
      </trkpt>
      <trkpt lat="46.20642" lon="6.76296">
        <ele>1562.2</ele>
        <time>2021-06-26T09:58:22Z</time>
      </trkpt>
      <trkpt lat="46.20642" lon="6.76291">
        <ele>1562.2</ele>
        <time>2021-06-26T09:58:23Z</time>
      </trkpt>
      <trkpt lat="46.2064" lon="6.76285">
        <ele>1562.2</ele>
        <time>2021-06-26T09:58:24Z</time>
      </trkpt>
      <trkpt lat="46.20637" lon="6.76281">
        <ele>1562.4</ele>
        <time>2021-06-26T09:58:25Z</time>
      </trkpt>
      <trkpt lat="46.20634" lon="6.76277">
        <ele>1562.4</ele>
        <time>2021-06-26T09:58:26Z</time>
      </trkpt>
      <trkpt lat="46.20631" lon="6.76274">
        <ele>1562.6</ele>
        <time>2021-06-26T09:58:27Z</time>
      </trkpt>
      <trkpt lat="46.20627" lon="6.76271">
        <ele>1562.8</ele>
        <time>2021-06-26T09:58:28Z</time>
      </trkpt>
      <trkpt lat="46.20623" lon="6.76269">
        <ele>1562.8</ele>
        <time>2021-06-26T09:58:29Z</time>
      </trkpt>
      <trkpt lat="46.2062" lon="6.76267">
        <ele>1563</ele>
        <time>2021-06-26T09:58:30Z</time>
      </trkpt>
      <trkpt lat="46.20617" lon="6.76263">
        <ele>1563</ele>
        <time>2021-06-26T09:58:31Z</time>
      </trkpt>
      <trkpt lat="46.20613" lon="6.76258">
        <ele>1563.2</ele>
        <time>2021-06-26T09:58:32Z</time>
      </trkpt>
      <trkpt lat="46.2061" lon="6.76253">
        <ele>1563.4</ele>
        <time>2021-06-26T09:58:33Z</time>
      </trkpt>
      <trkpt lat="46.20608" lon="6.76247">
        <ele>1563.6</ele>
        <time>2021-06-26T09:58:34Z</time>
      </trkpt>
      <trkpt lat="46.20606" lon="6.7624">
        <ele>1563.8</ele>
        <time>2021-06-26T09:58:35Z</time>
      </trkpt>
      <trkpt lat="46.20605" lon="6.76232">
        <ele>1563.8</ele>
        <time>2021-06-26T09:58:36Z</time>
      </trkpt>
      <trkpt lat="46.20605" lon="6.76225">
        <ele>1564</ele>
        <time>2021-06-26T09:58:37Z</time>
      </trkpt>
      <trkpt lat="46.20606" lon="6.76218">
        <ele>1564.2</ele>
        <time>2021-06-26T09:58:38Z</time>
      </trkpt>
      <trkpt lat="46.20607" lon="6.7621">
        <ele>1564.4</ele>
        <time>2021-06-26T09:58:39Z</time>
      </trkpt>
      <trkpt lat="46.2061" lon="6.76203">
        <ele>1564.2</ele>
        <time>2021-06-26T09:58:40Z</time>
      </trkpt>
      <trkpt lat="46.20612" lon="6.76197">
        <ele>1564.4</ele>
        <time>2021-06-26T09:58:41Z</time>
      </trkpt>
      <trkpt lat="46.20614" lon="6.7619">
        <ele>1564.4</ele>
        <time>2021-06-26T09:58:42Z</time>
      </trkpt>
      <trkpt lat="46.20616" lon="6.76183">
        <ele>1564.4</ele>
        <time>2021-06-26T09:58:43Z</time>
      </trkpt>
      <trkpt lat="46.20617" lon="6.76176">
        <ele>1564.6</ele>
        <time>2021-06-26T09:58:44Z</time>
      </trkpt>
      <trkpt lat="46.20617" lon="6.76169">
        <ele>1564.8</ele>
        <time>2021-06-26T09:58:45Z</time>
      </trkpt>
      <trkpt lat="46.20616" lon="6.76163">
        <ele>1565.2</ele>
        <time>2021-06-26T09:58:46Z</time>
      </trkpt>
      <trkpt lat="46.20613" lon="6.76157">
        <ele>1565.2</ele>
        <time>2021-06-26T09:58:47Z</time>
      </trkpt>
      <trkpt lat="46.20608" lon="6.76154">
        <ele>1565.2</ele>
        <time>2021-06-26T09:58:48Z</time>
      </trkpt>
      <trkpt lat="46.20603" lon="6.76153">
        <ele>1565.4</ele>
        <time>2021-06-26T09:58:49Z</time>
      </trkpt>
      <trkpt lat="46.20599" lon="6.76154">
        <ele>1565.4</ele>
        <time>2021-06-26T09:58:50Z</time>
      </trkpt>
      <trkpt lat="46.20595" lon="6.76157">
        <ele>1565.6</ele>
        <time>2021-06-26T09:58:51Z</time>
      </trkpt>
      <trkpt lat="46.20591" lon="6.76161">
        <ele>1565.4</ele>
        <time>2021-06-26T09:58:52Z</time>
      </trkpt>
      <trkpt lat="46.20589" lon="6.76167">
        <ele>1565.6</ele>
        <time>2021-06-26T09:58:53Z</time>
      </trkpt>
      <trkpt lat="46.20586" lon="6.76173">
        <ele>1565.8</ele>
        <time>2021-06-26T09:58:54Z</time>
      </trkpt>
      <trkpt lat="46.20584" lon="6.76179">
        <ele>1565.8</ele>
        <time>2021-06-26T09:58:55Z</time>
      </trkpt>
      <trkpt lat="46.20583" lon="6.76185">
        <ele>1566</ele>
        <time>2021-06-26T09:58:56Z</time>
      </trkpt>
      <trkpt lat="46.20582" lon="6.76192">
        <ele>1566</ele>
        <time>2021-06-26T09:58:57Z</time>
      </trkpt>
      <trkpt lat="46.2058" lon="6.76199">
        <ele>1566.4</ele>
        <time>2021-06-26T09:58:58Z</time>
      </trkpt>
      <trkpt lat="46.20579" lon="6.76205">
        <ele>1566.6</ele>
        <time>2021-06-26T09:58:59Z</time>
      </trkpt>
      <trkpt lat="46.20577" lon="6.76212">
        <ele>1566.8</ele>
        <time>2021-06-26T09:59:00Z</time>
      </trkpt>
      <trkpt lat="46.20576" lon="6.76218">
        <ele>1567</ele>
        <time>2021-06-26T09:59:01Z</time>
      </trkpt>
      <trkpt lat="46.20575" lon="6.76225">
        <ele>1567.2</ele>
        <time>2021-06-26T09:59:02Z</time>
      </trkpt>
      <trkpt lat="46.20573" lon="6.76231">
        <ele>1567.6</ele>
        <time>2021-06-26T09:59:03Z</time>
      </trkpt>
      <trkpt lat="46.20569" lon="6.76237">
        <ele>1567.8</ele>
        <time>2021-06-26T09:59:04Z</time>
      </trkpt>
      <trkpt lat="46.20566" lon="6.76242">
        <ele>1568.2</ele>
        <time>2021-06-26T09:59:05Z</time>
      </trkpt>
      <trkpt lat="46.20563" lon="6.76246">
        <ele>1568.2</ele>
        <time>2021-06-26T09:59:06Z</time>
      </trkpt>
      <trkpt lat="46.2056" lon="6.76249">
        <ele>1568</ele>
        <time>2021-06-26T09:59:07Z</time>
      </trkpt>
      <trkpt lat="46.20557" lon="6.76252">
        <ele>1568.2</ele>
        <time>2021-06-26T09:59:08Z</time>
      </trkpt>
      <trkpt lat="46.20554" lon="6.76254">
        <ele>1568.6</ele>
        <time>2021-06-26T09:59:09Z</time>
      </trkpt>
      <trkpt lat="46.20551" lon="6.76257">
        <ele>1568.8</ele>
        <time>2021-06-26T09:59:10Z</time>
      </trkpt>
      <trkpt lat="46.20549" lon="6.7626">
        <ele>1569</ele>
        <time>2021-06-26T09:59:11Z</time>
      </trkpt>
      <trkpt lat="46.20546" lon="6.76263">
        <ele>1569.4</ele>
        <time>2021-06-26T09:59:12Z</time>
      </trkpt>
      <trkpt lat="46.20544" lon="6.76266">
        <ele>1569.6</ele>
        <time>2021-06-26T09:59:13Z</time>
      </trkpt>
      <trkpt lat="46.20541" lon="6.76269">
        <ele>1569.8</ele>
        <time>2021-06-26T09:59:14Z</time>
      </trkpt>
      <trkpt lat="46.20539" lon="6.76271">
        <ele>1570.2</ele>
        <time>2021-06-26T09:59:15Z</time>
      </trkpt>
      <trkpt lat="46.20537" lon="6.76274">
        <ele>1570.4</ele>
        <time>2021-06-26T09:59:16Z</time>
      </trkpt>
      <trkpt lat="46.20535" lon="6.76277">
        <ele>1570.8</ele>
        <time>2021-06-26T09:59:17Z</time>
      </trkpt>
      <trkpt lat="46.20533" lon="6.7628">
        <ele>1571.2</ele>
        <time>2021-06-26T09:59:18Z</time>
      </trkpt>
      <trkpt lat="46.20531" lon="6.76283">
        <ele>1571.6</ele>
        <time>2021-06-26T09:59:19Z</time>
      </trkpt>
      <trkpt lat="46.20529" lon="6.76286">
        <ele>1572</ele>
        <time>2021-06-26T09:59:20Z</time>
      </trkpt>
      <trkpt lat="46.20527" lon="6.76289">
        <ele>1572.2</ele>
        <time>2021-06-26T09:59:21Z</time>
      </trkpt>
      <trkpt lat="46.20526" lon="6.76292">
        <ele>1572.4</ele>
        <time>2021-06-26T09:59:22Z</time>
      </trkpt>
      <trkpt lat="46.20524" lon="6.76295">
        <ele>1572.8</ele>
        <time>2021-06-26T09:59:23Z</time>
      </trkpt>
      <trkpt lat="46.20523" lon="6.76298">
        <ele>1573.2</ele>
        <time>2021-06-26T09:59:24Z</time>
      </trkpt>
      <trkpt lat="46.20521" lon="6.76302">
        <ele>1573.2</ele>
        <time>2021-06-26T09:59:25Z</time>
      </trkpt>
      <trkpt lat="46.2052" lon="6.76305">
        <ele>1573.4</ele>
        <time>2021-06-26T09:59:26Z</time>
      </trkpt>
      <trkpt lat="46.20518" lon="6.76309">
        <ele>1573.8</ele>
        <time>2021-06-26T09:59:27Z</time>
      </trkpt>
      <trkpt lat="46.20517" lon="6.76312">
        <ele>1574.2</ele>
        <time>2021-06-26T09:59:28Z</time>
      </trkpt>
      <trkpt lat="46.20516" lon="6.76316">
        <ele>1574.2</ele>
        <time>2021-06-26T09:59:29Z</time>
      </trkpt>
      <trkpt lat="46.20514" lon="6.7632">
        <ele>1574.6</ele>
        <time>2021-06-26T09:59:30Z</time>
      </trkpt>
      <trkpt lat="46.20513" lon="6.76324">
        <ele>1574.8</ele>
        <time>2021-06-26T09:59:31Z</time>
      </trkpt>
      <trkpt lat="46.20513" lon="6.76327">
        <ele>1575</ele>
        <time>2021-06-26T09:59:32Z</time>
      </trkpt>
      <trkpt lat="46.20511" lon="6.7633">
        <ele>1575.4</ele>
        <time>2021-06-26T09:59:33Z</time>
      </trkpt>
      <trkpt lat="46.2051" lon="6.76334">
        <ele>1575.6</ele>
        <time>2021-06-26T09:59:34Z</time>
      </trkpt>
      <trkpt lat="46.2051" lon="6.76337">
        <ele>1576</ele>
        <time>2021-06-26T09:59:35Z</time>
      </trkpt>
      <trkpt lat="46.2051" lon="6.7634">
        <ele>1576</ele>
        <time>2021-06-26T09:59:36Z</time>
      </trkpt>
      <trkpt lat="46.20509" lon="6.76343">
        <ele>1576.4</ele>
        <time>2021-06-26T09:59:37Z</time>
      </trkpt>
      <trkpt lat="46.20508" lon="6.76346">
        <ele>1576.6</ele>
        <time>2021-06-26T09:59:38Z</time>
      </trkpt>
      <trkpt lat="46.20508" lon="6.76349">
        <ele>1576.8</ele>
        <time>2021-06-26T09:59:39Z</time>
      </trkpt>
      <trkpt lat="46.20508" lon="6.76354">
        <ele>1577</ele>
        <time>2021-06-26T09:59:40Z</time>
      </trkpt>
      <trkpt lat="46.20508" lon="6.76357">
        <ele>1577.4</ele>
        <time>2021-06-26T09:59:41Z</time>
      </trkpt>
      <trkpt lat="46.20507" lon="6.76362">
        <ele>1577.8</ele>
        <time>2021-06-26T09:59:42Z</time>
      </trkpt>
      <trkpt lat="46.20507" lon="6.76366">
        <ele>1578</ele>
        <time>2021-06-26T09:59:43Z</time>
      </trkpt>
      <trkpt lat="46.20507" lon="6.76371">
        <ele>1578.4</ele>
        <time>2021-06-26T09:59:44Z</time>
      </trkpt>
      <trkpt lat="46.20507" lon="6.76374">
        <ele>1578.6</ele>
        <time>2021-06-26T09:59:45Z</time>
      </trkpt>
      <trkpt lat="46.20508" lon="6.76378">
        <ele>1578.8</ele>
        <time>2021-06-26T09:59:46Z</time>
      </trkpt>
      <trkpt lat="46.20508" lon="6.76382">
        <ele>1579.2</ele>
        <time>2021-06-26T09:59:47Z</time>
      </trkpt>
      <trkpt lat="46.20509" lon="6.76386">
        <ele>1579.2</ele>
        <time>2021-06-26T09:59:48Z</time>
      </trkpt>
      <trkpt lat="46.20511" lon="6.76389">
        <ele>1579.6</ele>
        <time>2021-06-26T09:59:49Z</time>
      </trkpt>
      <trkpt lat="46.20512" lon="6.76393">
        <ele>1579.8</ele>
        <time>2021-06-26T09:59:50Z</time>
      </trkpt>
      <trkpt lat="46.20513" lon="6.76396">
        <ele>1580</ele>
        <time>2021-06-26T09:59:51Z</time>
      </trkpt>
      <trkpt lat="46.20515" lon="6.764">
        <ele>1580</ele>
        <time>2021-06-26T09:59:52Z</time>
      </trkpt>
      <trkpt lat="46.20516" lon="6.76403">
        <ele>1580.4</ele>
        <time>2021-06-26T09:59:53Z</time>
      </trkpt>
      <trkpt lat="46.20516" lon="6.76406">
        <ele>1580.4</ele>
        <time>2021-06-26T09:59:54Z</time>
      </trkpt>
      <trkpt lat="46.20517" lon="6.7641">
        <ele>1580.8</ele>
        <time>2021-06-26T09:59:55Z</time>
      </trkpt>
      <trkpt lat="46.20517" lon="6.76413">
        <ele>1581</ele>
        <time>2021-06-26T09:59:56Z</time>
      </trkpt>
      <trkpt lat="46.20517" lon="6.76416">
        <ele>1581.4</ele>
        <time>2021-06-26T09:59:57Z</time>
      </trkpt>
      <trkpt lat="46.20516" lon="6.76418">
        <ele>1581.6</ele>
        <time>2021-06-26T09:59:58Z</time>
      </trkpt>
      <trkpt lat="46.20515" lon="6.76421">
        <ele>1582</ele>
        <time>2021-06-26T09:59:59Z</time>
      </trkpt>
      <trkpt lat="46.20515" lon="6.76424">
        <ele>1582</ele>
        <time>2021-06-26T10:00:00Z</time>
      </trkpt>
      <trkpt lat="46.20514" lon="6.76426">
        <ele>1582.2</ele>
        <time>2021-06-26T10:00:01Z</time>
      </trkpt>
      <trkpt lat="46.20512" lon="6.76429">
        <ele>1582.6</ele>
        <time>2021-06-26T10:00:02Z</time>
      </trkpt>
      <trkpt lat="46.20511" lon="6.76431">
        <ele>1582.8</ele>
        <time>2021-06-26T10:00:03Z</time>
      </trkpt>
      <trkpt lat="46.20509" lon="6.76433">
        <ele>1582.8</ele>
        <time>2021-06-26T10:00:04Z</time>
      </trkpt>
      <trkpt lat="46.20507" lon="6.76435">
        <ele>1583.2</ele>
        <time>2021-06-26T10:00:05Z</time>
      </trkpt>
      <trkpt lat="46.20504" lon="6.76437">
        <ele>1583.4</ele>
        <time>2021-06-26T10:00:06Z</time>
      </trkpt>
      <trkpt lat="46.20502" lon="6.76439">
        <ele>1583.6</ele>
        <time>2021-06-26T10:00:07Z</time>
      </trkpt>
      <trkpt lat="46.205" lon="6.7644">
        <ele>1583.8</ele>
        <time>2021-06-26T10:00:08Z</time>
      </trkpt>
      <trkpt lat="46.20497" lon="6.76441">
        <ele>1584</ele>
        <time>2021-06-26T10:00:09Z</time>
      </trkpt>
      <trkpt lat="46.20495" lon="6.76442">
        <ele>1584.2</ele>
        <time>2021-06-26T10:00:10Z</time>
      </trkpt>
      <trkpt lat="46.20493" lon="6.76444">
        <ele>1584.4</ele>
        <time>2021-06-26T10:00:11Z</time>
      </trkpt>
      <trkpt lat="46.20491" lon="6.76445">
        <ele>1584.8</ele>
        <time>2021-06-26T10:00:12Z</time>
      </trkpt>
      <trkpt lat="46.20489" lon="6.76446">
        <ele>1585</ele>
        <time>2021-06-26T10:00:13Z</time>
      </trkpt>
      <trkpt lat="46.20487" lon="6.76447">
        <ele>1585.2</ele>
        <time>2021-06-26T10:00:14Z</time>
      </trkpt>
      <trkpt lat="46.20485" lon="6.76447">
        <ele>1585.2</ele>
        <time>2021-06-26T10:00:15Z</time>
      </trkpt>
      <trkpt lat="46.20483" lon="6.76448">
        <ele>1585.2</ele>
        <time>2021-06-26T10:00:16Z</time>
      </trkpt>
      <trkpt lat="46.20482" lon="6.76449">
        <ele>1585.6</ele>
        <time>2021-06-26T10:00:17Z</time>
      </trkpt>
      <trkpt lat="46.20479" lon="6.76449">
        <ele>1585.8</ele>
        <time>2021-06-26T10:00:18Z</time>
      </trkpt>
      <trkpt lat="46.20477" lon="6.7645">
        <ele>1586</ele>
        <time>2021-06-26T10:00:19Z</time>
      </trkpt>
      <trkpt lat="46.20475" lon="6.7645">
        <ele>1586.4</ele>
        <time>2021-06-26T10:00:20Z</time>
      </trkpt>
      <trkpt lat="46.20473" lon="6.76451">
        <ele>1586.6</ele>
        <time>2021-06-26T10:00:21Z</time>
      </trkpt>
      <trkpt lat="46.2047" lon="6.76452">
        <ele>1587</ele>
        <time>2021-06-26T10:00:22Z</time>
      </trkpt>
      <trkpt lat="46.20468" lon="6.76453">
        <ele>1587.2</ele>
        <time>2021-06-26T10:00:23Z</time>
      </trkpt>
      <trkpt lat="46.20466" lon="6.76453">
        <ele>1587.4</ele>
        <time>2021-06-26T10:00:24Z</time>
      </trkpt>
      <trkpt lat="46.20463" lon="6.76454">
        <ele>1587.6</ele>
        <time>2021-06-26T10:00:25Z</time>
      </trkpt>
      <trkpt lat="46.20461" lon="6.76454">
        <ele>1587.6</ele>
        <time>2021-06-26T10:00:26Z</time>
      </trkpt>
      <trkpt lat="46.20458" lon="6.76455">
        <ele>1588</ele>
        <time>2021-06-26T10:00:27Z</time>
      </trkpt>
      <trkpt lat="46.20456" lon="6.76455">
        <ele>1588.2</ele>
        <time>2021-06-26T10:00:28Z</time>
      </trkpt>
      <trkpt lat="46.20453" lon="6.76456">
        <ele>1588.4</ele>
        <time>2021-06-26T10:00:29Z</time>
      </trkpt>
      <trkpt lat="46.20451" lon="6.76456">
        <ele>1588.6</ele>
        <time>2021-06-26T10:00:30Z</time>
      </trkpt>
      <trkpt lat="46.20449" lon="6.76456">
        <ele>1589</ele>
        <time>2021-06-26T10:00:31Z</time>
      </trkpt>
      <trkpt lat="46.20447" lon="6.76457">
        <ele>1589</ele>
        <time>2021-06-26T10:00:32Z</time>
      </trkpt>
      <trkpt lat="46.20445" lon="6.76457">
        <ele>1589.4</ele>
        <time>2021-06-26T10:00:33Z</time>
      </trkpt>
      <trkpt lat="46.20443" lon="6.76458">
        <ele>1589.6</ele>
        <time>2021-06-26T10:00:34Z</time>
      </trkpt>
      <trkpt lat="46.20441" lon="6.76459">
        <ele>1590</ele>
        <time>2021-06-26T10:00:35Z</time>
      </trkpt>
      <trkpt lat="46.20438" lon="6.7646">
        <ele>1590.2</ele>
        <time>2021-06-26T10:00:36Z</time>
      </trkpt>
      <trkpt lat="46.20436" lon="6.76461">
        <ele>1590.2</ele>
        <time>2021-06-26T10:00:37Z</time>
      </trkpt>
      <trkpt lat="46.20433" lon="6.76461">
        <ele>1590.4</ele>
        <time>2021-06-26T10:00:38Z</time>
      </trkpt>
      <trkpt lat="46.20431" lon="6.76461">
        <ele>1590.8</ele>
        <time>2021-06-26T10:00:39Z</time>
      </trkpt>
      <trkpt lat="46.20429" lon="6.76461">
        <ele>1591</ele>
        <time>2021-06-26T10:00:40Z</time>
      </trkpt>
      <trkpt lat="46.20426" lon="6.76461">
        <ele>1591.2</ele>
        <time>2021-06-26T10:00:41Z</time>
      </trkpt>
      <trkpt lat="46.20424" lon="6.76462">
        <ele>1591.4</ele>
        <time>2021-06-26T10:00:42Z</time>
      </trkpt>
      <trkpt lat="46.20421" lon="6.76461">
        <ele>1591.8</ele>
        <time>2021-06-26T10:00:43Z</time>
      </trkpt>
      <trkpt lat="46.20419" lon="6.76461">
        <ele>1591.8</ele>
        <time>2021-06-26T10:00:44Z</time>
      </trkpt>
      <trkpt lat="46.20416" lon="6.76461">
        <ele>1592</ele>
        <time>2021-06-26T10:00:45Z</time>
      </trkpt>
      <trkpt lat="46.20413" lon="6.7646">
        <ele>1592.2</ele>
        <time>2021-06-26T10:00:46Z</time>
      </trkpt>
      <trkpt lat="46.2041" lon="6.76459">
        <ele>1592.6</ele>
        <time>2021-06-26T10:00:47Z</time>
      </trkpt>
      <trkpt lat="46.20407" lon="6.76458">
        <ele>1592.8</ele>
        <time>2021-06-26T10:00:48Z</time>
      </trkpt>
      <trkpt lat="46.20404" lon="6.76457">
        <ele>1592.8</ele>
        <time>2021-06-26T10:00:49Z</time>
      </trkpt>
      <trkpt lat="46.20402" lon="6.76456">
        <ele>1593</ele>
        <time>2021-06-26T10:00:50Z</time>
      </trkpt>
      <trkpt lat="46.20399" lon="6.76454">
        <ele>1593.2</ele>
        <time>2021-06-26T10:00:51Z</time>
      </trkpt>
      <trkpt lat="46.20396" lon="6.76453">
        <ele>1593.6</ele>
        <time>2021-06-26T10:00:52Z</time>
      </trkpt>
      <trkpt lat="46.20394" lon="6.76452">
        <ele>1593.8</ele>
        <time>2021-06-26T10:00:53Z</time>
      </trkpt>
      <trkpt lat="46.20391" lon="6.7645">
        <ele>1594</ele>
        <time>2021-06-26T10:00:54Z</time>
      </trkpt>
      <trkpt lat="46.20389" lon="6.76448">
        <ele>1594.2</ele>
        <time>2021-06-26T10:00:55Z</time>
      </trkpt>
      <trkpt lat="46.20387" lon="6.76446">
        <ele>1594.6</ele>
        <time>2021-06-26T10:00:56Z</time>
      </trkpt>
      <trkpt lat="46.20385" lon="6.76445">
        <ele>1594.6</ele>
        <time>2021-06-26T10:00:57Z</time>
      </trkpt>
      <trkpt lat="46.20382" lon="6.76443">
        <ele>1594.8</ele>
        <time>2021-06-26T10:00:58Z</time>
      </trkpt>
      <trkpt lat="46.2038" lon="6.76442">
        <ele>1595</ele>
        <time>2021-06-26T10:00:59Z</time>
      </trkpt>
      <trkpt lat="46.20378" lon="6.7644">
        <ele>1595</ele>
        <time>2021-06-26T10:01:00Z</time>
      </trkpt>
      <trkpt lat="46.20376" lon="6.76439">
        <ele>1595.2</ele>
        <time>2021-06-26T10:01:01Z</time>
      </trkpt>
      <trkpt lat="46.20373" lon="6.76438">
        <ele>1595.6</ele>
        <time>2021-06-26T10:01:02Z</time>
      </trkpt>
      <trkpt lat="46.20371" lon="6.76436">
        <ele>1595.6</ele>
        <time>2021-06-26T10:01:03Z</time>
      </trkpt>
      <trkpt lat="46.20368" lon="6.76436">
        <ele>1595.6</ele>
        <time>2021-06-26T10:01:04Z</time>
      </trkpt>
      <trkpt lat="46.20365" lon="6.76435">
        <ele>1596</ele>
        <time>2021-06-26T10:01:05Z</time>
      </trkpt>
      <trkpt lat="46.20362" lon="6.76434">
        <ele>1596</ele>
        <time>2021-06-26T10:01:06Z</time>
      </trkpt>
      <trkpt lat="46.20359" lon="6.76434">
        <ele>1596.2</ele>
        <time>2021-06-26T10:01:07Z</time>
      </trkpt>
      <trkpt lat="46.20357" lon="6.76434">
        <ele>1596.4</ele>
        <time>2021-06-26T10:01:08Z</time>
      </trkpt>
      <trkpt lat="46.20355" lon="6.76434">
        <ele>1596.6</ele>
        <time>2021-06-26T10:01:09Z</time>
      </trkpt>
      <trkpt lat="46.20352" lon="6.76435">
        <ele>1596.6</ele>
        <time>2021-06-26T10:01:10Z</time>
      </trkpt>
      <trkpt lat="46.2035" lon="6.76435">
        <ele>1597</ele>
        <time>2021-06-26T10:01:11Z</time>
      </trkpt>
      <trkpt lat="46.20347" lon="6.76436">
        <ele>1597.2</ele>
        <time>2021-06-26T10:01:12Z</time>
      </trkpt>
      <trkpt lat="46.20345" lon="6.76436">
        <ele>1597.4</ele>
        <time>2021-06-26T10:01:13Z</time>
      </trkpt>
      <trkpt lat="46.20342" lon="6.76436">
        <ele>1597.6</ele>
        <time>2021-06-26T10:01:14Z</time>
      </trkpt>
      <trkpt lat="46.2034" lon="6.76436">
        <ele>1597.8</ele>
        <time>2021-06-26T10:01:15Z</time>
      </trkpt>
      <trkpt lat="46.20338" lon="6.76437">
        <ele>1598</ele>
        <time>2021-06-26T10:01:16Z</time>
      </trkpt>
      <trkpt lat="46.20335" lon="6.76437">
        <ele>1598.2</ele>
        <time>2021-06-26T10:01:17Z</time>
      </trkpt>
      <trkpt lat="46.20333" lon="6.76437">
        <ele>1598.6</ele>
        <time>2021-06-26T10:01:18Z</time>
      </trkpt>
      <trkpt lat="46.20331" lon="6.76438">
        <ele>1598.6</ele>
        <time>2021-06-26T10:01:19Z</time>
      </trkpt>
      <trkpt lat="46.20329" lon="6.76438">
        <ele>1598.6</ele>
        <time>2021-06-26T10:01:20Z</time>
      </trkpt>
      <trkpt lat="46.20327" lon="6.76438">
        <ele>1599</ele>
        <time>2021-06-26T10:01:21Z</time>
      </trkpt>
      <trkpt lat="46.20324" lon="6.76439">
        <ele>1599.2</ele>
        <time>2021-06-26T10:01:22Z</time>
      </trkpt>
      <trkpt lat="46.20321" lon="6.76439">
        <ele>1599.2</ele>
        <time>2021-06-26T10:01:23Z</time>
      </trkpt>
      <trkpt lat="46.20318" lon="6.7644">
        <ele>1599.2</ele>
        <time>2021-06-26T10:01:24Z</time>
      </trkpt>
      <trkpt lat="46.20315" lon="6.76441">
        <ele>1599.4</ele>
        <time>2021-06-26T10:01:25Z</time>
      </trkpt>
      <trkpt lat="46.20312" lon="6.76442">
        <ele>1599.6</ele>
        <time>2021-06-26T10:01:26Z</time>
      </trkpt>
      <trkpt lat="46.20309" lon="6.76443">
        <ele>1599.8</ele>
        <time>2021-06-26T10:01:27Z</time>
      </trkpt>
      <trkpt lat="46.20306" lon="6.76444">
        <ele>1600</ele>
        <time>2021-06-26T10:01:28Z</time>
      </trkpt>
      <trkpt lat="46.20302" lon="6.76446">
        <ele>1600.4</ele>
        <time>2021-06-26T10:01:29Z</time>
      </trkpt>
      <trkpt lat="46.203" lon="6.76448">
        <ele>1600.8</ele>
        <time>2021-06-26T10:01:30Z</time>
      </trkpt>
      <trkpt lat="46.20297" lon="6.7645">
        <ele>1600.8</ele>
        <time>2021-06-26T10:01:31Z</time>
      </trkpt>
      <trkpt lat="46.20295" lon="6.76452">
        <ele>1601</ele>
        <time>2021-06-26T10:01:32Z</time>
      </trkpt>
      <trkpt lat="46.20293" lon="6.76455">
        <ele>1601.2</ele>
        <time>2021-06-26T10:01:33Z</time>
      </trkpt>
      <trkpt lat="46.2029" lon="6.76458">
        <ele>1601.6</ele>
        <time>2021-06-26T10:01:34Z</time>
      </trkpt>
      <trkpt lat="46.20287" lon="6.76462">
        <ele>1601.8</ele>
        <time>2021-06-26T10:01:35Z</time>
      </trkpt>
      <trkpt lat="46.20285" lon="6.76465">
        <ele>1601.8</ele>
        <time>2021-06-26T10:01:36Z</time>
      </trkpt>
      <trkpt lat="46.20283" lon="6.76468">
        <ele>1602</ele>
        <time>2021-06-26T10:01:37Z</time>
      </trkpt>
      <trkpt lat="46.20281" lon="6.76471">
        <ele>1602.2</ele>
        <time>2021-06-26T10:01:38Z</time>
      </trkpt>
      <trkpt lat="46.20279" lon="6.76475">
        <ele>1602.4</ele>
        <time>2021-06-26T10:01:39Z</time>
      </trkpt>
      <trkpt lat="46.20277" lon="6.76478">
        <ele>1602.6</ele>
        <time>2021-06-26T10:01:40Z</time>
      </trkpt>
      <trkpt lat="46.20275" lon="6.76481">
        <ele>1602.8</ele>
        <time>2021-06-26T10:01:41Z</time>
      </trkpt>
      <trkpt lat="46.20273" lon="6.76483">
        <ele>1603</ele>
        <time>2021-06-26T10:01:42Z</time>
      </trkpt>
      <trkpt lat="46.20271" lon="6.76487">
        <ele>1603</ele>
        <time>2021-06-26T10:01:43Z</time>
      </trkpt>
      <trkpt lat="46.20269" lon="6.7649">
        <ele>1603.2</ele>
        <time>2021-06-26T10:01:44Z</time>
      </trkpt>
      <trkpt lat="46.20268" lon="6.76493">
        <ele>1603.2</ele>
        <time>2021-06-26T10:01:45Z</time>
      </trkpt>
      <trkpt lat="46.20265" lon="6.76494">
        <ele>1603.4</ele>
        <time>2021-06-26T10:01:46Z</time>
      </trkpt>
      <trkpt lat="46.20263" lon="6.76495">
        <ele>1603.4</ele>
        <time>2021-06-26T10:01:47Z</time>
      </trkpt>
      <trkpt lat="46.20261" lon="6.76496">
        <ele>1603.6</ele>
        <time>2021-06-26T10:01:48Z</time>
      </trkpt>
      <trkpt lat="46.20259" lon="6.76495">
        <ele>1603.8</ele>
        <time>2021-06-26T10:01:49Z</time>
      </trkpt>
      <trkpt lat="46.20258" lon="6.76494">
        <ele>1603.8</ele>
        <time>2021-06-26T10:01:50Z</time>
      </trkpt>
      <trkpt lat="46.20256" lon="6.76491">
        <ele>1604</ele>
        <time>2021-06-26T10:01:51Z</time>
      </trkpt>
      <trkpt lat="46.20254" lon="6.76488">
        <ele>1604.2</ele>
        <time>2021-06-26T10:01:52Z</time>
      </trkpt>
      <trkpt lat="46.20254" lon="6.76484">
        <ele>1604.4</ele>
        <time>2021-06-26T10:01:53Z</time>
      </trkpt>
      <trkpt lat="46.20255" lon="6.7648">
        <ele>1604.4</ele>
        <time>2021-06-26T10:01:54Z</time>
      </trkpt>
      <trkpt lat="46.20256" lon="6.76477">
        <ele>1604.6</ele>
        <time>2021-06-26T10:01:55Z</time>
      </trkpt>
      <trkpt lat="46.20257" lon="6.76473">
        <ele>1604.6</ele>
        <time>2021-06-26T10:01:56Z</time>
      </trkpt>
      <trkpt lat="46.20259" lon="6.7647">
        <ele>1605</ele>
        <time>2021-06-26T10:01:57Z</time>
      </trkpt>
      <trkpt lat="46.20261" lon="6.76466">
        <ele>1605.2</ele>
        <time>2021-06-26T10:01:58Z</time>
      </trkpt>
      <trkpt lat="46.20263" lon="6.76463">
        <ele>1605.4</ele>
        <time>2021-06-26T10:01:59Z</time>
      </trkpt>
      <trkpt lat="46.20265" lon="6.7646">
        <ele>1605.8</ele>
        <time>2021-06-26T10:02:00Z</time>
      </trkpt>
      <trkpt lat="46.20268" lon="6.76457">
        <ele>1605.8</ele>
        <time>2021-06-26T10:02:01Z</time>
      </trkpt>
      <trkpt lat="46.2027" lon="6.76454">
        <ele>1606.4</ele>
        <time>2021-06-26T10:02:02Z</time>
      </trkpt>
      <trkpt lat="46.20272" lon="6.76451">
        <ele>1606.4</ele>
        <time>2021-06-26T10:02:03Z</time>
      </trkpt>
      <trkpt lat="46.20273" lon="6.76448">
        <ele>1606.6</ele>
        <time>2021-06-26T10:02:04Z</time>
      </trkpt>
      <trkpt lat="46.20274" lon="6.76444">
        <ele>1606.6</ele>
        <time>2021-06-26T10:02:05Z</time>
      </trkpt>
      <trkpt lat="46.20274" lon="6.76442">
        <ele>1607</ele>
        <time>2021-06-26T10:02:06Z</time>
      </trkpt>
      <trkpt lat="46.20274" lon="6.76439">
        <ele>1607</ele>
        <time>2021-06-26T10:02:07Z</time>
      </trkpt>
      <trkpt lat="46.20274" lon="6.76436">
        <ele>1607.4</ele>
        <time>2021-06-26T10:02:08Z</time>
      </trkpt>
      <trkpt lat="46.20275" lon="6.76433">
        <ele>1607.4</ele>
        <time>2021-06-26T10:02:09Z</time>
      </trkpt>
      <trkpt lat="46.20275" lon="6.7643">
        <ele>1607.4</ele>
        <time>2021-06-26T10:02:10Z</time>
      </trkpt>
      <trkpt lat="46.20275" lon="6.76427">
        <ele>1607.6</ele>
        <time>2021-06-26T10:02:11Z</time>
      </trkpt>
      <trkpt lat="46.20275" lon="6.76424">
        <ele>1607.6</ele>
        <time>2021-06-26T10:02:12Z</time>
      </trkpt>
      <trkpt lat="46.20274" lon="6.76421">
        <ele>1607.8</ele>
        <time>2021-06-26T10:02:13Z</time>
      </trkpt>
      <trkpt lat="46.20274" lon="6.76417">
        <ele>1608.2</ele>
        <time>2021-06-26T10:02:14Z</time>
      </trkpt>
      <trkpt lat="46.20274" lon="6.76413">
        <ele>1608.4</ele>
        <time>2021-06-26T10:02:15Z</time>
      </trkpt>
      <trkpt lat="46.20274" lon="6.76409">
        <ele>1608.6</ele>
        <time>2021-06-26T10:02:16Z</time>
      </trkpt>
      <trkpt lat="46.20274" lon="6.76406">
        <ele>1608.6</ele>
        <time>2021-06-26T10:02:17Z</time>
      </trkpt>
      <trkpt lat="46.20274" lon="6.76402">
        <ele>1609</ele>
        <time>2021-06-26T10:02:18Z</time>
      </trkpt>
      <trkpt lat="46.20275" lon="6.76398">
        <ele>1609.2</ele>
        <time>2021-06-26T10:02:19Z</time>
      </trkpt>
      <trkpt lat="46.20275" lon="6.76394">
        <ele>1609.4</ele>
        <time>2021-06-26T10:02:20Z</time>
      </trkpt>
      <trkpt lat="46.20275" lon="6.7639">
        <ele>1609.8</ele>
        <time>2021-06-26T10:02:21Z</time>
      </trkpt>
      <trkpt lat="46.20276" lon="6.76386">
        <ele>1610</ele>
        <time>2021-06-26T10:02:22Z</time>
      </trkpt>
      <trkpt lat="46.20277" lon="6.76382">
        <ele>1610.2</ele>
        <time>2021-06-26T10:02:23Z</time>
      </trkpt>
      <trkpt lat="46.20277" lon="6.76377">
        <ele>1610.6</ele>
        <time>2021-06-26T10:02:24Z</time>
      </trkpt>
      <trkpt lat="46.20278" lon="6.76374">
        <ele>1610.8</ele>
        <time>2021-06-26T10:02:25Z</time>
      </trkpt>
      <trkpt lat="46.2028" lon="6.7637">
        <ele>1611.2</ele>
        <time>2021-06-26T10:02:26Z</time>
      </trkpt>
      <trkpt lat="46.20281" lon="6.76366">
        <ele>1611.8</ele>
        <time>2021-06-26T10:02:27Z</time>
      </trkpt>
      <trkpt lat="46.20282" lon="6.76362">
        <ele>1612</ele>
        <time>2021-06-26T10:02:28Z</time>
      </trkpt>
      <trkpt lat="46.20284" lon="6.76358">
        <ele>1612.2</ele>
        <time>2021-06-26T10:02:29Z</time>
      </trkpt>
      <trkpt lat="46.20285" lon="6.76354">
        <ele>1612.4</ele>
        <time>2021-06-26T10:02:30Z</time>
      </trkpt>
      <trkpt lat="46.20286" lon="6.76351">
        <ele>1612.6</ele>
        <time>2021-06-26T10:02:31Z</time>
      </trkpt>
      <trkpt lat="46.20287" lon="6.76348">
        <ele>1612.8</ele>
        <time>2021-06-26T10:02:32Z</time>
      </trkpt>
      <trkpt lat="46.20288" lon="6.76344">
        <ele>1612.8</ele>
        <time>2021-06-26T10:02:33Z</time>
      </trkpt>
      <trkpt lat="46.2029" lon="6.76341">
        <ele>1613.2</ele>
        <time>2021-06-26T10:02:34Z</time>
      </trkpt>
      <trkpt lat="46.20291" lon="6.76338">
        <ele>1613.6</ele>
        <time>2021-06-26T10:02:35Z</time>
      </trkpt>
      <trkpt lat="46.20292" lon="6.76335">
        <ele>1613.8</ele>
        <time>2021-06-26T10:02:36Z</time>
      </trkpt>
      <trkpt lat="46.20292" lon="6.76332">
        <ele>1613.8</ele>
        <time>2021-06-26T10:02:37Z</time>
      </trkpt>
      <trkpt lat="46.20293" lon="6.76329">
        <ele>1614</ele>
        <time>2021-06-26T10:02:38Z</time>
      </trkpt>
      <trkpt lat="46.20293" lon="6.76326">
        <ele>1614.2</ele>
        <time>2021-06-26T10:02:39Z</time>
      </trkpt>
      <trkpt lat="46.20293" lon="6.76323">
        <ele>1614.6</ele>
        <time>2021-06-26T10:02:40Z</time>
      </trkpt>
      <trkpt lat="46.20293" lon="6.76319">
        <ele>1614.8</ele>
        <time>2021-06-26T10:02:41Z</time>
      </trkpt>
      <trkpt lat="46.20294" lon="6.76315">
        <ele>1615</ele>
        <time>2021-06-26T10:02:42Z</time>
      </trkpt>
      <trkpt lat="46.20295" lon="6.76312">
        <ele>1615.2</ele>
        <time>2021-06-26T10:02:43Z</time>
      </trkpt>
      <trkpt lat="46.20296" lon="6.76308">
        <ele>1615.6</ele>
        <time>2021-06-26T10:02:44Z</time>
      </trkpt>
      <trkpt lat="46.20297" lon="6.76305">
        <ele>1615.6</ele>
        <time>2021-06-26T10:02:45Z</time>
      </trkpt>
      <trkpt lat="46.20298" lon="6.76302">
        <ele>1615.8</ele>
        <time>2021-06-26T10:02:46Z</time>
      </trkpt>
      <trkpt lat="46.20299" lon="6.76299">
        <ele>1616</ele>
        <time>2021-06-26T10:02:47Z</time>
      </trkpt>
      <trkpt lat="46.203" lon="6.76295">
        <ele>1616.2</ele>
        <time>2021-06-26T10:02:48Z</time>
      </trkpt>
      <trkpt lat="46.20301" lon="6.76291">
        <ele>1616.4</ele>
        <time>2021-06-26T10:02:49Z</time>
      </trkpt>
      <trkpt lat="46.20302" lon="6.76287">
        <ele>1616.6</ele>
        <time>2021-06-26T10:02:50Z</time>
      </trkpt>
      <trkpt lat="46.20303" lon="6.76283">
        <ele>1617</ele>
        <time>2021-06-26T10:02:51Z</time>
      </trkpt>
      <trkpt lat="46.20305" lon="6.7628">
        <ele>1617.2</ele>
        <time>2021-06-26T10:02:52Z</time>
      </trkpt>
      <trkpt lat="46.20306" lon="6.76277">
        <ele>1617.4</ele>
        <time>2021-06-26T10:02:53Z</time>
      </trkpt>
      <trkpt lat="46.20308" lon="6.76275">
        <ele>1617.8</ele>
        <time>2021-06-26T10:02:54Z</time>
      </trkpt>
      <trkpt lat="46.20311" lon="6.76273">
        <ele>1618</ele>
        <time>2021-06-26T10:02:55Z</time>
      </trkpt>
      <trkpt lat="46.20313" lon="6.76271">
        <ele>1618</ele>
        <time>2021-06-26T10:02:56Z</time>
      </trkpt>
      <trkpt lat="46.20314" lon="6.7627">
        <ele>1618.4</ele>
        <time>2021-06-26T10:02:57Z</time>
      </trkpt>
      <trkpt lat="46.20316" lon="6.76268">
        <ele>1618.6</ele>
        <time>2021-06-26T10:02:58Z</time>
      </trkpt>
      <trkpt lat="46.20318" lon="6.76266">
        <ele>1618.8</ele>
        <time>2021-06-26T10:02:59Z</time>
      </trkpt>
      <trkpt lat="46.2032" lon="6.76264">
        <ele>1619.2</ele>
        <time>2021-06-26T10:03:00Z</time>
      </trkpt>
      <trkpt lat="46.20322" lon="6.76261">
        <ele>1619.2</ele>
        <time>2021-06-26T10:03:01Z</time>
      </trkpt>
      <trkpt lat="46.20323" lon="6.76258">
        <ele>1619.6</ele>
        <time>2021-06-26T10:03:02Z</time>
      </trkpt>
      <trkpt lat="46.20325" lon="6.76254">
        <ele>1619.8</ele>
        <time>2021-06-26T10:03:03Z</time>
      </trkpt>
      <trkpt lat="46.20326" lon="6.76251">
        <ele>1620</ele>
        <time>2021-06-26T10:03:04Z</time>
      </trkpt>
      <trkpt lat="46.20327" lon="6.76247">
        <ele>1620.2</ele>
        <time>2021-06-26T10:03:05Z</time>
      </trkpt>
      <trkpt lat="46.20327" lon="6.76243">
        <ele>1620.6</ele>
        <time>2021-06-26T10:03:06Z</time>
      </trkpt>
      <trkpt lat="46.20328" lon="6.7624">
        <ele>1620.8</ele>
        <time>2021-06-26T10:03:07Z</time>
      </trkpt>
      <trkpt lat="46.20328" lon="6.76236">
        <ele>1621</ele>
        <time>2021-06-26T10:03:08Z</time>
      </trkpt>
      <trkpt lat="46.20328" lon="6.76233">
        <ele>1621.2</ele>
        <time>2021-06-26T10:03:09Z</time>
      </trkpt>
      <trkpt lat="46.20327" lon="6.7623">
        <ele>1621.6</ele>
        <time>2021-06-26T10:03:10Z</time>
      </trkpt>
      <trkpt lat="46.20327" lon="6.76227">
        <ele>1621.8</ele>
        <time>2021-06-26T10:03:11Z</time>
      </trkpt>
      <trkpt lat="46.20327" lon="6.76223">
        <ele>1622</ele>
        <time>2021-06-26T10:03:12Z</time>
      </trkpt>
      <trkpt lat="46.20327" lon="6.76219">
        <ele>1622.2</ele>
        <time>2021-06-26T10:03:13Z</time>
      </trkpt>
      <trkpt lat="46.20326" lon="6.76216">
        <ele>1622.4</ele>
        <time>2021-06-26T10:03:14Z</time>
      </trkpt>
      <trkpt lat="46.20326" lon="6.76213">
        <ele>1622.6</ele>
        <time>2021-06-26T10:03:15Z</time>
      </trkpt>
      <trkpt lat="46.20326" lon="6.7621">
        <ele>1622.8</ele>
        <time>2021-06-26T10:03:16Z</time>
      </trkpt>
      <trkpt lat="46.20326" lon="6.76208">
        <ele>1623</ele>
        <time>2021-06-26T10:03:17Z</time>
      </trkpt>
      <trkpt lat="46.20327" lon="6.76206">
        <ele>1623.2</ele>
        <time>2021-06-26T10:03:18Z</time>
      </trkpt>
      <trkpt lat="46.20327" lon="6.76203">
        <ele>1623.2</ele>
        <time>2021-06-26T10:03:19Z</time>
      </trkpt>
      <trkpt lat="46.20328" lon="6.76201">
        <ele>1623.4</ele>
        <time>2021-06-26T10:03:20Z</time>
      </trkpt>
      <trkpt lat="46.20328" lon="6.76198">
        <ele>1623.6</ele>
        <time>2021-06-26T10:03:21Z</time>
      </trkpt>
      <trkpt lat="46.20329" lon="6.76195">
        <ele>1623.6</ele>
        <time>2021-06-26T10:03:22Z</time>
      </trkpt>
      <trkpt lat="46.20331" lon="6.76192">
        <ele>1623.8</ele>
        <time>2021-06-26T10:03:23Z</time>
      </trkpt>
      <trkpt lat="46.20331" lon="6.76189">
        <ele>1624.2</ele>
        <time>2021-06-26T10:03:24Z</time>
      </trkpt>
      <trkpt lat="46.20332" lon="6.76186">
        <ele>1624.4</ele>
        <time>2021-06-26T10:03:25Z</time>
      </trkpt>
      <trkpt lat="46.20332" lon="6.76182">
        <ele>1624.4</ele>
        <time>2021-06-26T10:03:26Z</time>
      </trkpt>
      <trkpt lat="46.20331" lon="6.76178">
        <ele>1624.8</ele>
        <time>2021-06-26T10:03:27Z</time>
      </trkpt>
      <trkpt lat="46.2033" lon="6.76174">
        <ele>1625</ele>
        <time>2021-06-26T10:03:28Z</time>
      </trkpt>
      <trkpt lat="46.20329" lon="6.76171">
        <ele>1625.2</ele>
        <time>2021-06-26T10:03:29Z</time>
      </trkpt>
      <trkpt lat="46.20327" lon="6.76168">
        <ele>1625.6</ele>
        <time>2021-06-26T10:03:30Z</time>
      </trkpt>
      <trkpt lat="46.20326" lon="6.76165">
        <ele>1625.8</ele>
        <time>2021-06-26T10:03:31Z</time>
      </trkpt>
      <trkpt lat="46.20324" lon="6.76162">
        <ele>1625.8</ele>
        <time>2021-06-26T10:03:32Z</time>
      </trkpt>
      <trkpt lat="46.20321" lon="6.76161">
        <ele>1626.2</ele>
        <time>2021-06-26T10:03:33Z</time>
      </trkpt>
      <trkpt lat="46.20319" lon="6.7616">
        <ele>1626.2</ele>
        <time>2021-06-26T10:03:34Z</time>
      </trkpt>
      <trkpt lat="46.20316" lon="6.7616">
        <ele>1626.4</ele>
        <time>2021-06-26T10:03:35Z</time>
      </trkpt>
      <trkpt lat="46.20313" lon="6.76162">
        <ele>1626.6</ele>
        <time>2021-06-26T10:03:36Z</time>
      </trkpt>
      <trkpt lat="46.20311" lon="6.76163">
        <ele>1626.8</ele>
        <time>2021-06-26T10:03:37Z</time>
      </trkpt>
      <trkpt lat="46.20308" lon="6.76165">
        <ele>1627</ele>
        <time>2021-06-26T10:03:38Z</time>
      </trkpt>
      <trkpt lat="46.20306" lon="6.76167">
        <ele>1627</ele>
        <time>2021-06-26T10:03:39Z</time>
      </trkpt>
      <trkpt lat="46.20303" lon="6.76169">
        <ele>1627.4</ele>
        <time>2021-06-26T10:03:40Z</time>
      </trkpt>
      <trkpt lat="46.20301" lon="6.7617">
        <ele>1627.6</ele>
        <time>2021-06-26T10:03:41Z</time>
      </trkpt>
      <trkpt lat="46.20299" lon="6.76172">
        <ele>1627.6</ele>
        <time>2021-06-26T10:03:42Z</time>
      </trkpt>
      <trkpt lat="46.20297" lon="6.76175">
        <ele>1627.8</ele>
        <time>2021-06-26T10:03:43Z</time>
      </trkpt>
      <trkpt lat="46.20294" lon="6.76177">
        <ele>1627.8</ele>
        <time>2021-06-26T10:03:44Z</time>
      </trkpt>
      <trkpt lat="46.20292" lon="6.76179">
        <ele>1628.4</ele>
        <time>2021-06-26T10:03:45Z</time>
      </trkpt>
      <trkpt lat="46.2029" lon="6.76181">
        <ele>1628.6</ele>
        <time>2021-06-26T10:03:46Z</time>
      </trkpt>
      <trkpt lat="46.20288" lon="6.76183">
        <ele>1628.6</ele>
        <time>2021-06-26T10:03:47Z</time>
      </trkpt>
      <trkpt lat="46.20286" lon="6.76185">
        <ele>1628.8</ele>
        <time>2021-06-26T10:03:48Z</time>
      </trkpt>
      <trkpt lat="46.20285" lon="6.76186">
        <ele>1628.8</ele>
        <time>2021-06-26T10:03:49Z</time>
      </trkpt>
      <trkpt lat="46.20283" lon="6.76188">
        <ele>1629.2</ele>
        <time>2021-06-26T10:03:50Z</time>
      </trkpt>
      <trkpt lat="46.20282" lon="6.7619">
        <ele>1629.4</ele>
        <time>2021-06-26T10:03:51Z</time>
      </trkpt>
      <trkpt lat="46.2028" lon="6.76192">
        <ele>1629.6</ele>
        <time>2021-06-26T10:03:52Z</time>
      </trkpt>
      <trkpt lat="46.20279" lon="6.76194">
        <ele>1629.8</ele>
        <time>2021-06-26T10:03:53Z</time>
      </trkpt>
      <trkpt lat="46.20277" lon="6.76195">
        <ele>1630.2</ele>
        <time>2021-06-26T10:03:54Z</time>
      </trkpt>
      <trkpt lat="46.20275" lon="6.76197">
        <ele>1630.2</ele>
        <time>2021-06-26T10:03:55Z</time>
      </trkpt>
      <trkpt lat="46.20273" lon="6.76199">
        <ele>1630.4</ele>
        <time>2021-06-26T10:03:56Z</time>
      </trkpt>
      <trkpt lat="46.20271" lon="6.76201">
        <ele>1630.6</ele>
        <time>2021-06-26T10:03:57Z</time>
      </trkpt>
      <trkpt lat="46.20269" lon="6.76203">
        <ele>1630.8</ele>
        <time>2021-06-26T10:03:58Z</time>
      </trkpt>
      <trkpt lat="46.20267" lon="6.76204">
        <ele>1631.2</ele>
        <time>2021-06-26T10:03:59Z</time>
      </trkpt>
      <trkpt lat="46.20265" lon="6.76206">
        <ele>1631.4</ele>
        <time>2021-06-26T10:04:00Z</time>
      </trkpt>
      <trkpt lat="46.20263" lon="6.76208">
        <ele>1631.6</ele>
        <time>2021-06-26T10:04:01Z</time>
      </trkpt>
      <trkpt lat="46.2026" lon="6.7621">
        <ele>1631.8</ele>
        <time>2021-06-26T10:04:02Z</time>
      </trkpt>
      <trkpt lat="46.20258" lon="6.76211">
        <ele>1632</ele>
        <time>2021-06-26T10:04:03Z</time>
      </trkpt>
      <trkpt lat="46.20255" lon="6.76213">
        <ele>1632.2</ele>
        <time>2021-06-26T10:04:04Z</time>
      </trkpt>
      <trkpt lat="46.20253" lon="6.76215">
        <ele>1632.2</ele>
        <time>2021-06-26T10:04:05Z</time>
      </trkpt>
      <trkpt lat="46.20251" lon="6.76216">
        <ele>1632.4</ele>
        <time>2021-06-26T10:04:06Z</time>
      </trkpt>
      <trkpt lat="46.20249" lon="6.76218">
        <ele>1632.6</ele>
        <time>2021-06-26T10:04:07Z</time>
      </trkpt>
      <trkpt lat="46.20247" lon="6.7622">
        <ele>1632.8</ele>
        <time>2021-06-26T10:04:08Z</time>
      </trkpt>
      <trkpt lat="46.20245" lon="6.76222">
        <ele>1633</ele>
        <time>2021-06-26T10:04:09Z</time>
      </trkpt>
      <trkpt lat="46.20244" lon="6.76225">
        <ele>1633.2</ele>
        <time>2021-06-26T10:04:10Z</time>
      </trkpt>
      <trkpt lat="46.20242" lon="6.76227">
        <ele>1633.6</ele>
        <time>2021-06-26T10:04:11Z</time>
      </trkpt>
      <trkpt lat="46.2024" lon="6.7623">
        <ele>1633.8</ele>
        <time>2021-06-26T10:04:12Z</time>
      </trkpt>
      <trkpt lat="46.20238" lon="6.76232">
        <ele>1634</ele>
        <time>2021-06-26T10:04:13Z</time>
      </trkpt>
      <trkpt lat="46.20236" lon="6.76233">
        <ele>1634.2</ele>
        <time>2021-06-26T10:04:14Z</time>
      </trkpt>
      <trkpt lat="46.20234" lon="6.76235">
        <ele>1634.6</ele>
        <time>2021-06-26T10:04:15Z</time>
      </trkpt>
      <trkpt lat="46.20232" lon="6.76236">
        <ele>1634.8</ele>
        <time>2021-06-26T10:04:16Z</time>
      </trkpt>
      <trkpt lat="46.2023" lon="6.76238">
        <ele>1635</ele>
        <time>2021-06-26T10:04:17Z</time>
      </trkpt>
      <trkpt lat="46.20228" lon="6.76239">
        <ele>1635.2</ele>
        <time>2021-06-26T10:04:18Z</time>
      </trkpt>
      <trkpt lat="46.20226" lon="6.76239">
        <ele>1635.4</ele>
        <time>2021-06-26T10:04:19Z</time>
      </trkpt>
      <trkpt lat="46.20224" lon="6.76239">
        <ele>1635.4</ele>
        <time>2021-06-26T10:04:20Z</time>
      </trkpt>
      <trkpt lat="46.20223" lon="6.76239">
        <ele>1635.8</ele>
        <time>2021-06-26T10:04:21Z</time>
      </trkpt>
      <trkpt lat="46.20221" lon="6.76239">
        <ele>1636</ele>
        <time>2021-06-26T10:04:22Z</time>
      </trkpt>
      <trkpt lat="46.2022" lon="6.7624">
        <ele>1636.2</ele>
        <time>2021-06-26T10:04:23Z</time>
      </trkpt>
      <trkpt lat="46.20218" lon="6.7624">
        <ele>1636.4</ele>
        <time>2021-06-26T10:04:24Z</time>
      </trkpt>
      <trkpt lat="46.20215" lon="6.76239">
        <ele>1636.8</ele>
        <time>2021-06-26T10:04:25Z</time>
      </trkpt>
      <trkpt lat="46.20212" lon="6.76239">
        <ele>1637</ele>
        <time>2021-06-26T10:04:26Z</time>
      </trkpt>
      <trkpt lat="46.2021" lon="6.76238">
        <ele>1637</ele>
        <time>2021-06-26T10:04:27Z</time>
      </trkpt>
      <trkpt lat="46.20208" lon="6.76237">
        <ele>1637</ele>
        <time>2021-06-26T10:04:28Z</time>
      </trkpt>
      <trkpt lat="46.20205" lon="6.76237">
        <ele>1637.4</ele>
        <time>2021-06-26T10:04:29Z</time>
      </trkpt>
      <trkpt lat="46.20203" lon="6.76236">
        <ele>1637.6</ele>
        <time>2021-06-26T10:04:30Z</time>
      </trkpt>
      <trkpt lat="46.202" lon="6.76235">
        <ele>1637.8</ele>
        <time>2021-06-26T10:04:31Z</time>
      </trkpt>
      <trkpt lat="46.20196" lon="6.76235">
        <ele>1638</ele>
        <time>2021-06-26T10:04:32Z</time>
      </trkpt>
      <trkpt lat="46.20193" lon="6.76234">
        <ele>1638.2</ele>
        <time>2021-06-26T10:04:33Z</time>
      </trkpt>
      <trkpt lat="46.20191" lon="6.76233">
        <ele>1638.4</ele>
        <time>2021-06-26T10:04:34Z</time>
      </trkpt>
      <trkpt lat="46.20188" lon="6.76233">
        <ele>1638.8</ele>
        <time>2021-06-26T10:04:35Z</time>
      </trkpt>
      <trkpt lat="46.20185" lon="6.76233">
        <ele>1639</ele>
        <time>2021-06-26T10:04:36Z</time>
      </trkpt>
      <trkpt lat="46.20183" lon="6.76233">
        <ele>1639.4</ele>
        <time>2021-06-26T10:04:37Z</time>
      </trkpt>
      <trkpt lat="46.2018" lon="6.76234">
        <ele>1639.4</ele>
        <time>2021-06-26T10:04:38Z</time>
      </trkpt>
      <trkpt lat="46.20177" lon="6.76235">
        <ele>1639.8</ele>
        <time>2021-06-26T10:04:39Z</time>
      </trkpt>
      <trkpt lat="46.20175" lon="6.76236">
        <ele>1640</ele>
        <time>2021-06-26T10:04:40Z</time>
      </trkpt>
      <trkpt lat="46.20172" lon="6.76237">
        <ele>1640.2</ele>
        <time>2021-06-26T10:04:41Z</time>
      </trkpt>
      <trkpt lat="46.2017" lon="6.76239">
        <ele>1640.4</ele>
        <time>2021-06-26T10:04:42Z</time>
      </trkpt>
      <trkpt lat="46.20168" lon="6.7624">
        <ele>1640.8</ele>
        <time>2021-06-26T10:04:43Z</time>
      </trkpt>
      <trkpt lat="46.20166" lon="6.76242">
        <ele>1641.2</ele>
        <time>2021-06-26T10:04:44Z</time>
      </trkpt>
      <trkpt lat="46.20163" lon="6.76244">
        <ele>1641.2</ele>
        <time>2021-06-26T10:04:45Z</time>
      </trkpt>
      <trkpt lat="46.20161" lon="6.76246">
        <ele>1641.6</ele>
        <time>2021-06-26T10:04:46Z</time>
      </trkpt>
      <trkpt lat="46.20159" lon="6.76248">
        <ele>1641.8</ele>
        <time>2021-06-26T10:04:47Z</time>
      </trkpt>
      <trkpt lat="46.20156" lon="6.76251">
        <ele>1641.8</ele>
        <time>2021-06-26T10:04:48Z</time>
      </trkpt>
      <trkpt lat="46.20154" lon="6.76253">
        <ele>1642</ele>
        <time>2021-06-26T10:04:49Z</time>
      </trkpt>
      <trkpt lat="46.20152" lon="6.76256">
        <ele>1642</ele>
        <time>2021-06-26T10:04:50Z</time>
      </trkpt>
      <trkpt lat="46.20151" lon="6.76259">
        <ele>1642.4</ele>
        <time>2021-06-26T10:04:51Z</time>
      </trkpt>
      <trkpt lat="46.20149" lon="6.76263">
        <ele>1642.4</ele>
        <time>2021-06-26T10:04:52Z</time>
      </trkpt>
      <trkpt lat="46.20148" lon="6.76266">
        <ele>1642.8</ele>
        <time>2021-06-26T10:04:53Z</time>
      </trkpt>
      <trkpt lat="46.20148" lon="6.7627">
        <ele>1643</ele>
        <time>2021-06-26T10:04:54Z</time>
      </trkpt>
      <trkpt lat="46.20147" lon="6.76274">
        <ele>1643.2</ele>
        <time>2021-06-26T10:04:55Z</time>
      </trkpt>
      <trkpt lat="46.20147" lon="6.76277">
        <ele>1643.6</ele>
        <time>2021-06-26T10:04:56Z</time>
      </trkpt>
      <trkpt lat="46.20148" lon="6.76281">
        <ele>1643.8</ele>
        <time>2021-06-26T10:04:57Z</time>
      </trkpt>
      <trkpt lat="46.20149" lon="6.76285">
        <ele>1644</ele>
        <time>2021-06-26T10:04:58Z</time>
      </trkpt>
      <trkpt lat="46.20149" lon="6.76288">
        <ele>1644.2</ele>
        <time>2021-06-26T10:04:59Z</time>
      </trkpt>
      <trkpt lat="46.2015" lon="6.76292">
        <ele>1644.4</ele>
        <time>2021-06-26T10:05:00Z</time>
      </trkpt>
      <trkpt lat="46.20151" lon="6.76296">
        <ele>1644.6</ele>
        <time>2021-06-26T10:05:01Z</time>
      </trkpt>
      <trkpt lat="46.20151" lon="6.76299">
        <ele>1644.8</ele>
        <time>2021-06-26T10:05:02Z</time>
      </trkpt>
      <trkpt lat="46.20152" lon="6.76303">
        <ele>1645</ele>
        <time>2021-06-26T10:05:03Z</time>
      </trkpt>
      <trkpt lat="46.20153" lon="6.76306">
        <ele>1645.2</ele>
        <time>2021-06-26T10:05:04Z</time>
      </trkpt>
      <trkpt lat="46.20154" lon="6.76309">
        <ele>1645.6</ele>
        <time>2021-06-26T10:05:05Z</time>
      </trkpt>
      <trkpt lat="46.20154" lon="6.76313">
        <ele>1645.6</ele>
        <time>2021-06-26T10:05:06Z</time>
      </trkpt>
      <trkpt lat="46.20154" lon="6.76316">
        <ele>1646</ele>
        <time>2021-06-26T10:05:07Z</time>
      </trkpt>
      <trkpt lat="46.20153" lon="6.76319">
        <ele>1646.2</ele>
        <time>2021-06-26T10:05:08Z</time>
      </trkpt>
      <trkpt lat="46.20153" lon="6.76323">
        <ele>1646.6</ele>
        <time>2021-06-26T10:05:09Z</time>
      </trkpt>
      <trkpt lat="46.20152" lon="6.76326">
        <ele>1646.8</ele>
        <time>2021-06-26T10:05:10Z</time>
      </trkpt>
      <trkpt lat="46.20152" lon="6.76329">
        <ele>1647</ele>
        <time>2021-06-26T10:05:11Z</time>
      </trkpt>
      <trkpt lat="46.20151" lon="6.76331">
        <ele>1647.4</ele>
        <time>2021-06-26T10:05:12Z</time>
      </trkpt>
      <trkpt lat="46.20149" lon="6.76333">
        <ele>1647.4</ele>
        <time>2021-06-26T10:05:13Z</time>
      </trkpt>
      <trkpt lat="46.20148" lon="6.76335">
        <ele>1647.6</ele>
        <time>2021-06-26T10:05:14Z</time>
      </trkpt>
      <trkpt lat="46.20147" lon="6.76338">
        <ele>1647.6</ele>
        <time>2021-06-26T10:05:15Z</time>
      </trkpt>
      <trkpt lat="46.20145" lon="6.7634">
        <ele>1647.8</ele>
        <time>2021-06-26T10:05:16Z</time>
      </trkpt>
      <trkpt lat="46.20144" lon="6.76342">
        <ele>1648.2</ele>
        <time>2021-06-26T10:05:17Z</time>
      </trkpt>
      <trkpt lat="46.20142" lon="6.76344">
        <ele>1648.2</ele>
        <time>2021-06-26T10:05:18Z</time>
      </trkpt>
      <trkpt lat="46.20141" lon="6.76345">
        <ele>1648.6</ele>
        <time>2021-06-26T10:05:19Z</time>
      </trkpt>
      <trkpt lat="46.20139" lon="6.76346">
        <ele>1648.8</ele>
        <time>2021-06-26T10:05:20Z</time>
      </trkpt>
      <trkpt lat="46.20138" lon="6.76347">
        <ele>1649</ele>
        <time>2021-06-26T10:05:21Z</time>
      </trkpt>
      <trkpt lat="46.20136" lon="6.76348">
        <ele>1649.2</ele>
        <time>2021-06-26T10:05:22Z</time>
      </trkpt>
      <trkpt lat="46.20134" lon="6.76348">
        <ele>1649.6</ele>
        <time>2021-06-26T10:05:23Z</time>
      </trkpt>
      <trkpt lat="46.20131" lon="6.76348">
        <ele>1649.8</ele>
        <time>2021-06-26T10:05:24Z</time>
      </trkpt>
      <trkpt lat="46.20129" lon="6.76348">
        <ele>1650</ele>
        <time>2021-06-26T10:05:25Z</time>
      </trkpt>
      <trkpt lat="46.20126" lon="6.76349">
        <ele>1650.2</ele>
        <time>2021-06-26T10:05:26Z</time>
      </trkpt>
      <trkpt lat="46.20124" lon="6.7635">
        <ele>1650.6</ele>
        <time>2021-06-26T10:05:27Z</time>
      </trkpt>
      <trkpt lat="46.20121" lon="6.76351">
        <ele>1650.8</ele>
        <time>2021-06-26T10:05:28Z</time>
      </trkpt>
      <trkpt lat="46.20119" lon="6.76352">
        <ele>1651</ele>
        <time>2021-06-26T10:05:29Z</time>
      </trkpt>
      <trkpt lat="46.20117" lon="6.76354">
        <ele>1651.2</ele>
        <time>2021-06-26T10:05:30Z</time>
      </trkpt>
      <trkpt lat="46.20115" lon="6.76356">
        <ele>1651.2</ele>
        <time>2021-06-26T10:05:31Z</time>
      </trkpt>
      <trkpt lat="46.20113" lon="6.76359">
        <ele>1651.4</ele>
        <time>2021-06-26T10:05:32Z</time>
      </trkpt>
      <trkpt lat="46.20112" lon="6.76361">
        <ele>1651.8</ele>
        <time>2021-06-26T10:05:33Z</time>
      </trkpt>
      <trkpt lat="46.2011" lon="6.76364">
        <ele>1652</ele>
        <time>2021-06-26T10:05:34Z</time>
      </trkpt>
      <trkpt lat="46.20109" lon="6.76367">
        <ele>1652</ele>
        <time>2021-06-26T10:05:35Z</time>
      </trkpt>
      <trkpt lat="46.20108" lon="6.7637">
        <ele>1652.2</ele>
        <time>2021-06-26T10:05:36Z</time>
      </trkpt>
      <trkpt lat="46.20107" lon="6.76373">
        <ele>1652.4</ele>
        <time>2021-06-26T10:05:37Z</time>
      </trkpt>
      <trkpt lat="46.20106" lon="6.76376">
        <ele>1652.6</ele>
        <time>2021-06-26T10:05:38Z</time>
      </trkpt>
      <trkpt lat="46.20105" lon="6.7638">
        <ele>1652.8</ele>
        <time>2021-06-26T10:05:39Z</time>
      </trkpt>
      <trkpt lat="46.20105" lon="6.76383">
        <ele>1653.2</ele>
        <time>2021-06-26T10:05:40Z</time>
      </trkpt>
      <trkpt lat="46.20104" lon="6.76386">
        <ele>1653.6</ele>
        <time>2021-06-26T10:05:41Z</time>
      </trkpt>
      <trkpt lat="46.20104" lon="6.7639">
        <ele>1653.6</ele>
        <time>2021-06-26T10:05:42Z</time>
      </trkpt>
      <trkpt lat="46.20104" lon="6.76394">
        <ele>1654</ele>
        <time>2021-06-26T10:05:43Z</time>
      </trkpt>
      <trkpt lat="46.20103" lon="6.76398">
        <ele>1654.2</ele>
        <time>2021-06-26T10:05:44Z</time>
      </trkpt>
      <trkpt lat="46.20104" lon="6.76401">
        <ele>1654.4</ele>
        <time>2021-06-26T10:05:45Z</time>
      </trkpt>
      <trkpt lat="46.20104" lon="6.76405">
        <ele>1654.4</ele>
        <time>2021-06-26T10:05:46Z</time>
      </trkpt>
      <trkpt lat="46.20104" lon="6.76408">
        <ele>1654.8</ele>
        <time>2021-06-26T10:05:47Z</time>
      </trkpt>
      <trkpt lat="46.20104" lon="6.76411">
        <ele>1655.2</ele>
        <time>2021-06-26T10:05:48Z</time>
      </trkpt>
      <trkpt lat="46.20104" lon="6.76415">
        <ele>1655.2</ele>
        <time>2021-06-26T10:05:49Z</time>
      </trkpt>
      <trkpt lat="46.20104" lon="6.76418">
        <ele>1655.4</ele>
        <time>2021-06-26T10:05:50Z</time>
      </trkpt>
      <trkpt lat="46.20104" lon="6.76422">
        <ele>1655.4</ele>
        <time>2021-06-26T10:05:51Z</time>
      </trkpt>
      <trkpt lat="46.20104" lon="6.76425">
        <ele>1655.8</ele>
        <time>2021-06-26T10:05:52Z</time>
      </trkpt>
      <trkpt lat="46.20104" lon="6.76429">
        <ele>1656</ele>
        <time>2021-06-26T10:05:53Z</time>
      </trkpt>
      <trkpt lat="46.20103" lon="6.76432">
        <ele>1656.2</ele>
        <time>2021-06-26T10:05:54Z</time>
      </trkpt>
      <trkpt lat="46.20103" lon="6.76435">
        <ele>1656.4</ele>
        <time>2021-06-26T10:05:55Z</time>
      </trkpt>
      <trkpt lat="46.20103" lon="6.76439">
        <ele>1656.4</ele>
        <time>2021-06-26T10:05:56Z</time>
      </trkpt>
      <trkpt lat="46.20103" lon="6.76442">
        <ele>1656.8</ele>
        <time>2021-06-26T10:05:57Z</time>
      </trkpt>
      <trkpt lat="46.20103" lon="6.76446">
        <ele>1656.8</ele>
        <time>2021-06-26T10:05:58Z</time>
      </trkpt>
      <trkpt lat="46.20103" lon="6.76449">
        <ele>1657</ele>
        <time>2021-06-26T10:05:59Z</time>
      </trkpt>
      <trkpt lat="46.20103" lon="6.76453">
        <ele>1657.2</ele>
        <time>2021-06-26T10:06:00Z</time>
      </trkpt>
      <trkpt lat="46.20102" lon="6.76456">
        <ele>1657.4</ele>
        <time>2021-06-26T10:06:01Z</time>
      </trkpt>
      <trkpt lat="46.20102" lon="6.7646">
        <ele>1657.8</ele>
        <time>2021-06-26T10:06:02Z</time>
      </trkpt>
      <trkpt lat="46.20101" lon="6.76464">
        <ele>1657.8</ele>
        <time>2021-06-26T10:06:03Z</time>
      </trkpt>
      <trkpt lat="46.20101" lon="6.76467">
        <ele>1658</ele>
        <time>2021-06-26T10:06:04Z</time>
      </trkpt>
      <trkpt lat="46.20101" lon="6.76471">
        <ele>1658.2</ele>
        <time>2021-06-26T10:06:05Z</time>
      </trkpt>
      <trkpt lat="46.20101" lon="6.76475">
        <ele>1658.4</ele>
        <time>2021-06-26T10:06:06Z</time>
      </trkpt>
      <trkpt lat="46.201" lon="6.76479">
        <ele>1658.4</ele>
        <time>2021-06-26T10:06:07Z</time>
      </trkpt>
      <trkpt lat="46.20098" lon="6.76482">
        <ele>1658.6</ele>
        <time>2021-06-26T10:06:08Z</time>
      </trkpt>
      <trkpt lat="46.20096" lon="6.76484">
        <ele>1658.8</ele>
        <time>2021-06-26T10:06:09Z</time>
      </trkpt>
      <trkpt lat="46.20094" lon="6.76485">
        <ele>1659</ele>
        <time>2021-06-26T10:06:10Z</time>
      </trkpt>
      <trkpt lat="46.20093" lon="6.76484">
        <ele>1659</ele>
        <time>2021-06-26T10:06:11Z</time>
      </trkpt>
      <trkpt lat="46.20091" lon="6.76483">
        <ele>1659.2</ele>
        <time>2021-06-26T10:06:12Z</time>
      </trkpt>
      <trkpt lat="46.20089" lon="6.76481">
        <ele>1659.2</ele>
        <time>2021-06-26T10:06:13Z</time>
      </trkpt>
      <trkpt lat="46.20088" lon="6.76477">
        <ele>1659.2</ele>
        <time>2021-06-26T10:06:14Z</time>
      </trkpt>
      <trkpt lat="46.20088" lon="6.76473">
        <ele>1659.6</ele>
        <time>2021-06-26T10:06:15Z</time>
      </trkpt>
      <trkpt lat="46.20088" lon="6.76469">
        <ele>1659.8</ele>
        <time>2021-06-26T10:06:16Z</time>
      </trkpt>
      <trkpt lat="46.20089" lon="6.76465">
        <ele>1660</ele>
        <time>2021-06-26T10:06:17Z</time>
      </trkpt>
      <trkpt lat="46.20089" lon="6.76461">
        <ele>1660.2</ele>
        <time>2021-06-26T10:06:18Z</time>
      </trkpt>
      <trkpt lat="46.20089" lon="6.76458">
        <ele>1660.4</ele>
        <time>2021-06-26T10:06:19Z</time>
      </trkpt>
      <trkpt lat="46.20089" lon="6.76454">
        <ele>1660.8</ele>
        <time>2021-06-26T10:06:20Z</time>
      </trkpt>
      <trkpt lat="46.2009" lon="6.7645">
        <ele>1660.8</ele>
        <time>2021-06-26T10:06:21Z</time>
      </trkpt>
      <trkpt lat="46.2009" lon="6.76447">
        <ele>1661.2</ele>
        <time>2021-06-26T10:06:22Z</time>
      </trkpt>
      <trkpt lat="46.2009" lon="6.76443">
        <ele>1661.6</ele>
        <time>2021-06-26T10:06:23Z</time>
      </trkpt>
      <trkpt lat="46.20091" lon="6.7644">
        <ele>1661.8</ele>
        <time>2021-06-26T10:06:24Z</time>
      </trkpt>
      <trkpt lat="46.20091" lon="6.76436">
        <ele>1662</ele>
        <time>2021-06-26T10:06:25Z</time>
      </trkpt>
      <trkpt lat="46.20091" lon="6.76433">
        <ele>1662</ele>
        <time>2021-06-26T10:06:26Z</time>
      </trkpt>
      <trkpt lat="46.20091" lon="6.76429">
        <ele>1662.2</ele>
        <time>2021-06-26T10:06:27Z</time>
      </trkpt>
      <trkpt lat="46.20091" lon="6.76426">
        <ele>1662.2</ele>
        <time>2021-06-26T10:06:28Z</time>
      </trkpt>
      <trkpt lat="46.2009" lon="6.76423">
        <ele>1662.8</ele>
        <time>2021-06-26T10:06:29Z</time>
      </trkpt>
      <trkpt lat="46.2009" lon="6.7642">
        <ele>1663</ele>
        <time>2021-06-26T10:06:30Z</time>
      </trkpt>
      <trkpt lat="46.20089" lon="6.76418">
        <ele>1663.2</ele>
        <time>2021-06-26T10:06:31Z</time>
      </trkpt>
      <trkpt lat="46.20089" lon="6.76415">
        <ele>1663.6</ele>
        <time>2021-06-26T10:06:32Z</time>
      </trkpt>
      <trkpt lat="46.20088" lon="6.76412">
        <ele>1663.6</ele>
        <time>2021-06-26T10:06:33Z</time>
      </trkpt>
      <trkpt lat="46.20087" lon="6.76408">
        <ele>1664</ele>
        <time>2021-06-26T10:06:34Z</time>
      </trkpt>
      <trkpt lat="46.20087" lon="6.76405">
        <ele>1664</ele>
        <time>2021-06-26T10:06:35Z</time>
      </trkpt>
      <trkpt lat="46.20086" lon="6.76402">
        <ele>1664.4</ele>
        <time>2021-06-26T10:06:36Z</time>
      </trkpt>
      <trkpt lat="46.20085" lon="6.76399">
        <ele>1664.4</ele>
        <time>2021-06-26T10:06:37Z</time>
      </trkpt>
      <trkpt lat="46.20084" lon="6.76396">
        <ele>1664.8</ele>
        <time>2021-06-26T10:06:38Z</time>
      </trkpt>
      <trkpt lat="46.20083" lon="6.76393">
        <ele>1664.8</ele>
        <time>2021-06-26T10:06:39Z</time>
      </trkpt>
      <trkpt lat="46.20082" lon="6.7639">
        <ele>1665</ele>
        <time>2021-06-26T10:06:40Z</time>
      </trkpt>
      <trkpt lat="46.20082" lon="6.76387">
        <ele>1665.2</ele>
        <time>2021-06-26T10:06:41Z</time>
      </trkpt>
      <trkpt lat="46.20081" lon="6.76384">
        <ele>1665.4</ele>
        <time>2021-06-26T10:06:42Z</time>
      </trkpt>
      <trkpt lat="46.20081" lon="6.76381">
        <ele>1665.4</ele>
        <time>2021-06-26T10:06:43Z</time>
      </trkpt>
      <trkpt lat="46.2008" lon="6.76377">
        <ele>1665.6</ele>
        <time>2021-06-26T10:06:44Z</time>
      </trkpt>
      <trkpt lat="46.20079" lon="6.76373">
        <ele>1666</ele>
        <time>2021-06-26T10:06:45Z</time>
      </trkpt>
      <trkpt lat="46.20079" lon="6.7637">
        <ele>1666.2</ele>
        <time>2021-06-26T10:06:46Z</time>
      </trkpt>
      <trkpt lat="46.20079" lon="6.76366">
        <ele>1666.6</ele>
        <time>2021-06-26T10:06:47Z</time>
      </trkpt>
      <trkpt lat="46.20078" lon="6.76363">
        <ele>1666.8</ele>
        <time>2021-06-26T10:06:48Z</time>
      </trkpt>
      <trkpt lat="46.20078" lon="6.76359">
        <ele>1666.8</ele>
        <time>2021-06-26T10:06:49Z</time>
      </trkpt>
      <trkpt lat="46.20077" lon="6.76355">
        <ele>1666.8</ele>
        <time>2021-06-26T10:06:50Z</time>
      </trkpt>
      <trkpt lat="46.20077" lon="6.76352">
        <ele>1667.2</ele>
        <time>2021-06-26T10:06:51Z</time>
      </trkpt>
      <trkpt lat="46.20077" lon="6.76348">
        <ele>1667.4</ele>
        <time>2021-06-26T10:06:52Z</time>
      </trkpt>
      <trkpt lat="46.20077" lon="6.76344">
        <ele>1667.6</ele>
        <time>2021-06-26T10:06:53Z</time>
      </trkpt>
      <trkpt lat="46.20076" lon="6.76341">
        <ele>1668</ele>
        <time>2021-06-26T10:06:54Z</time>
      </trkpt>
      <trkpt lat="46.20076" lon="6.76337">
        <ele>1668</ele>
        <time>2021-06-26T10:06:55Z</time>
      </trkpt>
      <trkpt lat="46.20076" lon="6.76333">
        <ele>1668</ele>
        <time>2021-06-26T10:06:56Z</time>
      </trkpt>
      <trkpt lat="46.20076" lon="6.76329">
        <ele>1668.4</ele>
        <time>2021-06-26T10:06:57Z</time>
      </trkpt>
      <trkpt lat="46.20075" lon="6.76326">
        <ele>1668.6</ele>
        <time>2021-06-26T10:06:58Z</time>
      </trkpt>
      <trkpt lat="46.20075" lon="6.76322">
        <ele>1668.8</ele>
        <time>2021-06-26T10:06:59Z</time>
      </trkpt>
      <trkpt lat="46.20075" lon="6.76318">
        <ele>1669.2</ele>
        <time>2021-06-26T10:07:00Z</time>
      </trkpt>
      <trkpt lat="46.20075" lon="6.76315">
        <ele>1669.4</ele>
        <time>2021-06-26T10:07:01Z</time>
      </trkpt>
      <trkpt lat="46.20075" lon="6.76311">
        <ele>1669.6</ele>
        <time>2021-06-26T10:07:02Z</time>
      </trkpt>
      <trkpt lat="46.20075" lon="6.76307">
        <ele>1669.8</ele>
        <time>2021-06-26T10:07:03Z</time>
      </trkpt>
      <trkpt lat="46.20075" lon="6.76304">
        <ele>1670.2</ele>
        <time>2021-06-26T10:07:04Z</time>
      </trkpt>
      <trkpt lat="46.20075" lon="6.763">
        <ele>1670.4</ele>
        <time>2021-06-26T10:07:05Z</time>
      </trkpt>
      <trkpt lat="46.20074" lon="6.76297">
        <ele>1670.4</ele>
        <time>2021-06-26T10:07:06Z</time>
      </trkpt>
      <trkpt lat="46.20074" lon="6.76293">
        <ele>1670.4</ele>
        <time>2021-06-26T10:07:07Z</time>
      </trkpt>
      <trkpt lat="46.20074" lon="6.76289">
        <ele>1670.6</ele>
        <time>2021-06-26T10:07:08Z</time>
      </trkpt>
      <trkpt lat="46.20073" lon="6.76286">
        <ele>1670.8</ele>
        <time>2021-06-26T10:07:09Z</time>
      </trkpt>
      <trkpt lat="46.20073" lon="6.76282">
        <ele>1671</ele>
        <time>2021-06-26T10:07:10Z</time>
      </trkpt>
      <trkpt lat="46.20073" lon="6.76278">
        <ele>1671.2</ele>
        <time>2021-06-26T10:07:11Z</time>
      </trkpt>
      <trkpt lat="46.20073" lon="6.76275">
        <ele>1671.4</ele>
        <time>2021-06-26T10:07:12Z</time>
      </trkpt>
      <trkpt lat="46.20073" lon="6.76271">
        <ele>1671.4</ele>
        <time>2021-06-26T10:07:13Z</time>
      </trkpt>
      <trkpt lat="46.20073" lon="6.76267">
        <ele>1671.6</ele>
        <time>2021-06-26T10:07:14Z</time>
      </trkpt>
      <trkpt lat="46.20073" lon="6.76263">
        <ele>1672</ele>
        <time>2021-06-26T10:07:15Z</time>
      </trkpt>
      <trkpt lat="46.20073" lon="6.76259">
        <ele>1672.4</ele>
        <time>2021-06-26T10:07:16Z</time>
      </trkpt>
      <trkpt lat="46.20073" lon="6.76256">
        <ele>1672.6</ele>
        <time>2021-06-26T10:07:17Z</time>
      </trkpt>
      <trkpt lat="46.20072" lon="6.76252">
        <ele>1672.8</ele>
        <time>2021-06-26T10:07:18Z</time>
      </trkpt>
      <trkpt lat="46.20072" lon="6.76248">
        <ele>1673</ele>
        <time>2021-06-26T10:07:19Z</time>
      </trkpt>
      <trkpt lat="46.20072" lon="6.76244">
        <ele>1673.2</ele>
        <time>2021-06-26T10:07:20Z</time>
      </trkpt>
      <trkpt lat="46.20072" lon="6.7624">
        <ele>1673.4</ele>
        <time>2021-06-26T10:07:21Z</time>
      </trkpt>
      <trkpt lat="46.20071" lon="6.76237">
        <ele>1673.4</ele>
        <time>2021-06-26T10:07:22Z</time>
      </trkpt>
      <trkpt lat="46.20071" lon="6.76233">
        <ele>1673.8</ele>
        <time>2021-06-26T10:07:23Z</time>
      </trkpt>
      <trkpt lat="46.20072" lon="6.76229">
        <ele>1674</ele>
        <time>2021-06-26T10:07:24Z</time>
      </trkpt>
      <trkpt lat="46.20072" lon="6.76225">
        <ele>1674</ele>
        <time>2021-06-26T10:07:25Z</time>
      </trkpt>
      <trkpt lat="46.20071" lon="6.76221">
        <ele>1674.4</ele>
        <time>2021-06-26T10:07:26Z</time>
      </trkpt>
      <trkpt lat="46.20071" lon="6.76218">
        <ele>1674.8</ele>
        <time>2021-06-26T10:07:27Z</time>
      </trkpt>
      <trkpt lat="46.20072" lon="6.76214">
        <ele>1675</ele>
        <time>2021-06-26T10:07:28Z</time>
      </trkpt>
      <trkpt lat="46.20072" lon="6.7621">
        <ele>1675</ele>
        <time>2021-06-26T10:07:29Z</time>
      </trkpt>
      <trkpt lat="46.20072" lon="6.76207">
        <ele>1675.4</ele>
        <time>2021-06-26T10:07:30Z</time>
      </trkpt>
      <trkpt lat="46.20073" lon="6.76203">
        <ele>1675.6</ele>
        <time>2021-06-26T10:07:31Z</time>
      </trkpt>
      <trkpt lat="46.20073" lon="6.76199">
        <ele>1675.8</ele>
        <time>2021-06-26T10:07:32Z</time>
      </trkpt>
      <trkpt lat="46.20074" lon="6.76195">
        <ele>1676</ele>
        <time>2021-06-26T10:07:33Z</time>
      </trkpt>
      <trkpt lat="46.20074" lon="6.76192">
        <ele>1676.4</ele>
        <time>2021-06-26T10:07:34Z</time>
      </trkpt>
      <trkpt lat="46.20075" lon="6.76188">
        <ele>1676.6</ele>
        <time>2021-06-26T10:07:35Z</time>
      </trkpt>
      <trkpt lat="46.20076" lon="6.76185">
        <ele>1676.8</ele>
        <time>2021-06-26T10:07:36Z</time>
      </trkpt>
      <trkpt lat="46.20077" lon="6.76182">
        <ele>1677</ele>
        <time>2021-06-26T10:07:37Z</time>
      </trkpt>
      <trkpt lat="46.20078" lon="6.76179">
        <ele>1677.2</ele>
        <time>2021-06-26T10:07:38Z</time>
      </trkpt>
      <trkpt lat="46.20079" lon="6.76176">
        <ele>1677.4</ele>
        <time>2021-06-26T10:07:39Z</time>
      </trkpt>
      <trkpt lat="46.20081" lon="6.76173">
        <ele>1677.4</ele>
        <time>2021-06-26T10:07:40Z</time>
      </trkpt>
      <trkpt lat="46.20082" lon="6.7617">
        <ele>1677.4</ele>
        <time>2021-06-26T10:07:41Z</time>
      </trkpt>
      <trkpt lat="46.20084" lon="6.76167">
        <ele>1677.6</ele>
        <time>2021-06-26T10:07:42Z</time>
      </trkpt>
      <trkpt lat="46.20085" lon="6.76164">
        <ele>1678</ele>
        <time>2021-06-26T10:07:43Z</time>
      </trkpt>
      <trkpt lat="46.20087" lon="6.76161">
        <ele>1678.2</ele>
        <time>2021-06-26T10:07:44Z</time>
      </trkpt>
      <trkpt lat="46.20088" lon="6.76158">
        <ele>1678.4</ele>
        <time>2021-06-26T10:07:45Z</time>
      </trkpt>
      <trkpt lat="46.2009" lon="6.76155">
        <ele>1678.8</ele>
        <time>2021-06-26T10:07:46Z</time>
      </trkpt>
      <trkpt lat="46.20091" lon="6.76153">
        <ele>1678.8</ele>
        <time>2021-06-26T10:07:47Z</time>
      </trkpt>
      <trkpt lat="46.20092" lon="6.7615">
        <ele>1679.2</ele>
        <time>2021-06-26T10:07:48Z</time>
      </trkpt>
      <trkpt lat="46.20094" lon="6.76148">
        <ele>1679.4</ele>
        <time>2021-06-26T10:07:49Z</time>
      </trkpt>
      <trkpt lat="46.20095" lon="6.76145">
        <ele>1679.4</ele>
        <time>2021-06-26T10:07:50Z</time>
      </trkpt>
      <trkpt lat="46.20097" lon="6.76143">
        <ele>1679.8</ele>
        <time>2021-06-26T10:07:51Z</time>
      </trkpt>
      <trkpt lat="46.20098" lon="6.7614">
        <ele>1679.8</ele>
        <time>2021-06-26T10:07:52Z</time>
      </trkpt>
      <trkpt lat="46.20099" lon="6.76137">
        <ele>1680</ele>
        <time>2021-06-26T10:07:53Z</time>
      </trkpt>
      <trkpt lat="46.20101" lon="6.76134">
        <ele>1680.2</ele>
        <time>2021-06-26T10:07:54Z</time>
      </trkpt>
      <trkpt lat="46.20102" lon="6.76131">
        <ele>1680.2</ele>
        <time>2021-06-26T10:07:55Z</time>
      </trkpt>
      <trkpt lat="46.20103" lon="6.76127">
        <ele>1680.4</ele>
        <time>2021-06-26T10:07:56Z</time>
      </trkpt>
      <trkpt lat="46.20103" lon="6.76124">
        <ele>1680.6</ele>
        <time>2021-06-26T10:07:57Z</time>
      </trkpt>
      <trkpt lat="46.20104" lon="6.7612">
        <ele>1680.8</ele>
        <time>2021-06-26T10:07:58Z</time>
      </trkpt>
      <trkpt lat="46.20104" lon="6.76117">
        <ele>1681</ele>
        <time>2021-06-26T10:07:59Z</time>
      </trkpt>
      <trkpt lat="46.20105" lon="6.76113">
        <ele>1681.2</ele>
        <time>2021-06-26T10:08:00Z</time>
      </trkpt>
      <trkpt lat="46.20105" lon="6.76109">
        <ele>1681.4</ele>
        <time>2021-06-26T10:08:01Z</time>
      </trkpt>
      <trkpt lat="46.20106" lon="6.76106">
        <ele>1681.8</ele>
        <time>2021-06-26T10:08:02Z</time>
      </trkpt>
      <trkpt lat="46.20105" lon="6.76102">
        <ele>1682.2</ele>
        <time>2021-06-26T10:08:03Z</time>
      </trkpt>
      <trkpt lat="46.20105" lon="6.76098">
        <ele>1682.4</ele>
        <time>2021-06-26T10:08:04Z</time>
      </trkpt>
      <trkpt lat="46.20106" lon="6.76095">
        <ele>1682.6</ele>
        <time>2021-06-26T10:08:05Z</time>
      </trkpt>
      <trkpt lat="46.20106" lon="6.76091">
        <ele>1682.8</ele>
        <time>2021-06-26T10:08:06Z</time>
      </trkpt>
      <trkpt lat="46.20106" lon="6.76087">
        <ele>1682.8</ele>
        <time>2021-06-26T10:08:07Z</time>
      </trkpt>
      <trkpt lat="46.20106" lon="6.76084">
        <ele>1683.2</ele>
        <time>2021-06-26T10:08:08Z</time>
      </trkpt>
      <trkpt lat="46.20106" lon="6.7608">
        <ele>1683.6</ele>
        <time>2021-06-26T10:08:09Z</time>
      </trkpt>
      <trkpt lat="46.20106" lon="6.76076">
        <ele>1683.8</ele>
        <time>2021-06-26T10:08:10Z</time>
      </trkpt>
      <trkpt lat="46.20106" lon="6.76073">
        <ele>1684</ele>
        <time>2021-06-26T10:08:11Z</time>
      </trkpt>
      <trkpt lat="46.20106" lon="6.76069">
        <ele>1684</ele>
        <time>2021-06-26T10:08:12Z</time>
      </trkpt>
      <trkpt lat="46.20106" lon="6.76066">
        <ele>1684.2</ele>
        <time>2021-06-26T10:08:13Z</time>
      </trkpt>
      <trkpt lat="46.20106" lon="6.76062">
        <ele>1684.2</ele>
        <time>2021-06-26T10:08:14Z</time>
      </trkpt>
      <trkpt lat="46.20106" lon="6.76058">
        <ele>1684.4</ele>
        <time>2021-06-26T10:08:15Z</time>
      </trkpt>
      <trkpt lat="46.20106" lon="6.76055">
        <ele>1684.6</ele>
        <time>2021-06-26T10:08:16Z</time>
      </trkpt>
      <trkpt lat="46.20107" lon="6.76051">
        <ele>1685</ele>
        <time>2021-06-26T10:08:17Z</time>
      </trkpt>
      <trkpt lat="46.20107" lon="6.76047">
        <ele>1685.2</ele>
        <time>2021-06-26T10:08:18Z</time>
      </trkpt>
      <trkpt lat="46.20107" lon="6.76043">
        <ele>1685.2</ele>
        <time>2021-06-26T10:08:19Z</time>
      </trkpt>
      <trkpt lat="46.20108" lon="6.7604">
        <ele>1685.6</ele>
        <time>2021-06-26T10:08:20Z</time>
      </trkpt>
      <trkpt lat="46.20108" lon="6.76036">
        <ele>1685.6</ele>
        <time>2021-06-26T10:08:21Z</time>
      </trkpt>
      <trkpt lat="46.20109" lon="6.76033">
        <ele>1685.8</ele>
        <time>2021-06-26T10:08:22Z</time>
      </trkpt>
      <trkpt lat="46.20109" lon="6.76029">
        <ele>1686.2</ele>
        <time>2021-06-26T10:08:23Z</time>
      </trkpt>
      <trkpt lat="46.2011" lon="6.76026">
        <ele>1686.6</ele>
        <time>2021-06-26T10:08:24Z</time>
      </trkpt>
      <trkpt lat="46.20111" lon="6.76023">
        <ele>1686.8</ele>
        <time>2021-06-26T10:08:25Z</time>
      </trkpt>
      <trkpt lat="46.20112" lon="6.76019">
        <ele>1687</ele>
        <time>2021-06-26T10:08:26Z</time>
      </trkpt>
      <trkpt lat="46.20113" lon="6.76016">
        <ele>1687.2</ele>
        <time>2021-06-26T10:08:27Z</time>
      </trkpt>
      <trkpt lat="46.20114" lon="6.76013">
        <ele>1687.4</ele>
        <time>2021-06-26T10:08:28Z</time>
      </trkpt>
      <trkpt lat="46.20115" lon="6.7601">
        <ele>1687.8</ele>
        <time>2021-06-26T10:08:29Z</time>
      </trkpt>
      <trkpt lat="46.20116" lon="6.76006">
        <ele>1687.8</ele>
        <time>2021-06-26T10:08:30Z</time>
      </trkpt>
      <trkpt lat="46.20116" lon="6.76003">
        <ele>1688.2</ele>
        <time>2021-06-26T10:08:31Z</time>
      </trkpt>
      <trkpt lat="46.20117" lon="6.76">
        <ele>1688.6</ele>
        <time>2021-06-26T10:08:32Z</time>
      </trkpt>
      <trkpt lat="46.20118" lon="6.75996">
        <ele>1688.6</ele>
        <time>2021-06-26T10:08:33Z</time>
      </trkpt>
      <trkpt lat="46.20119" lon="6.75993">
        <ele>1689</ele>
        <time>2021-06-26T10:08:34Z</time>
      </trkpt>
      <trkpt lat="46.2012" lon="6.7599">
        <ele>1689.2</ele>
        <time>2021-06-26T10:08:35Z</time>
      </trkpt>
      <trkpt lat="46.20121" lon="6.75986">
        <ele>1689.2</ele>
        <time>2021-06-26T10:08:36Z</time>
      </trkpt>
      <trkpt lat="46.20123" lon="6.75983">
        <ele>1689.4</ele>
        <time>2021-06-26T10:08:37Z</time>
      </trkpt>
      <trkpt lat="46.20124" lon="6.75981">
        <ele>1689.6</ele>
        <time>2021-06-26T10:08:38Z</time>
      </trkpt>
      <trkpt lat="46.20126" lon="6.75978">
        <ele>1690</ele>
        <time>2021-06-26T10:08:39Z</time>
      </trkpt>
      <trkpt lat="46.20128" lon="6.75975">
        <ele>1690.2</ele>
        <time>2021-06-26T10:08:40Z</time>
      </trkpt>
      <trkpt lat="46.20129" lon="6.75973">
        <ele>1690.4</ele>
        <time>2021-06-26T10:08:41Z</time>
      </trkpt>
      <trkpt lat="46.20131" lon="6.75971">
        <ele>1690.6</ele>
        <time>2021-06-26T10:08:42Z</time>
      </trkpt>
      <trkpt lat="46.20133" lon="6.75969">
        <ele>1690.6</ele>
        <time>2021-06-26T10:08:43Z</time>
      </trkpt>
      <trkpt lat="46.20135" lon="6.75966">
        <ele>1691</ele>
        <time>2021-06-26T10:08:44Z</time>
      </trkpt>
      <trkpt lat="46.20137" lon="6.75964">
        <ele>1691</ele>
        <time>2021-06-26T10:08:45Z</time>
      </trkpt>
      <trkpt lat="46.20139" lon="6.75962">
        <ele>1691.4</ele>
        <time>2021-06-26T10:08:46Z</time>
      </trkpt>
      <trkpt lat="46.20141" lon="6.7596">
        <ele>1691.4</ele>
        <time>2021-06-26T10:08:47Z</time>
      </trkpt>
      <trkpt lat="46.20144" lon="6.75958">
        <ele>1691.6</ele>
        <time>2021-06-26T10:08:48Z</time>
      </trkpt>
      <trkpt lat="46.20146" lon="6.75955">
        <ele>1692</ele>
        <time>2021-06-26T10:08:49Z</time>
      </trkpt>
      <trkpt lat="46.20148" lon="6.75953">
        <ele>1692.2</ele>
        <time>2021-06-26T10:08:50Z</time>
      </trkpt>
      <trkpt lat="46.2015" lon="6.75951">
        <ele>1692.4</ele>
        <time>2021-06-26T10:08:51Z</time>
      </trkpt>
      <trkpt lat="46.20152" lon="6.75949">
        <ele>1692.8</ele>
        <time>2021-06-26T10:08:52Z</time>
      </trkpt>
      <trkpt lat="46.20154" lon="6.75947">
        <ele>1693</ele>
        <time>2021-06-26T10:08:53Z</time>
      </trkpt>
      <trkpt lat="46.20156" lon="6.75945">
        <ele>1693</ele>
        <time>2021-06-26T10:08:54Z</time>
      </trkpt>
      <trkpt lat="46.20159" lon="6.75944">
        <ele>1693.4</ele>
        <time>2021-06-26T10:08:55Z</time>
      </trkpt>
      <trkpt lat="46.20161" lon="6.75942">
        <ele>1693.4</ele>
        <time>2021-06-26T10:08:56Z</time>
      </trkpt>
      <trkpt lat="46.20163" lon="6.7594">
        <ele>1693.6</ele>
        <time>2021-06-26T10:08:57Z</time>
      </trkpt>
      <trkpt lat="46.20165" lon="6.75939">
        <ele>1693.6</ele>
        <time>2021-06-26T10:08:58Z</time>
      </trkpt>
      <trkpt lat="46.20167" lon="6.75937">
        <ele>1693.6</ele>
        <time>2021-06-26T10:08:59Z</time>
      </trkpt>
      <trkpt lat="46.20169" lon="6.75936">
        <ele>1693.8</ele>
        <time>2021-06-26T10:09:00Z</time>
      </trkpt>
      <trkpt lat="46.20172" lon="6.75935">
        <ele>1694</ele>
        <time>2021-06-26T10:09:01Z</time>
      </trkpt>
      <trkpt lat="46.20174" lon="6.75933">
        <ele>1694.2</ele>
        <time>2021-06-26T10:09:02Z</time>
      </trkpt>
      <trkpt lat="46.20177" lon="6.75932">
        <ele>1694.6</ele>
        <time>2021-06-26T10:09:03Z</time>
      </trkpt>
      <trkpt lat="46.20179" lon="6.7593">
        <ele>1694.6</ele>
        <time>2021-06-26T10:09:04Z</time>
      </trkpt>
      <trkpt lat="46.20181" lon="6.75928">
        <ele>1695</ele>
        <time>2021-06-26T10:09:05Z</time>
      </trkpt>
      <trkpt lat="46.20183" lon="6.75926">
        <ele>1695.2</ele>
        <time>2021-06-26T10:09:06Z</time>
      </trkpt>
      <trkpt lat="46.20186" lon="6.75924">
        <ele>1695.4</ele>
        <time>2021-06-26T10:09:07Z</time>
      </trkpt>
      <trkpt lat="46.20188" lon="6.75922">
        <ele>1695.4</ele>
        <time>2021-06-26T10:09:08Z</time>
      </trkpt>
      <trkpt lat="46.2019" lon="6.7592">
        <ele>1695.6</ele>
        <time>2021-06-26T10:09:09Z</time>
      </trkpt>
      <trkpt lat="46.20192" lon="6.75917">
        <ele>1696</ele>
        <time>2021-06-26T10:09:10Z</time>
      </trkpt>
      <trkpt lat="46.20194" lon="6.75915">
        <ele>1696</ele>
        <time>2021-06-26T10:09:11Z</time>
      </trkpt>
      <trkpt lat="46.20196" lon="6.75913">
        <ele>1696.2</ele>
        <time>2021-06-26T10:09:12Z</time>
      </trkpt>
      <trkpt lat="46.20198" lon="6.7591">
        <ele>1696.4</ele>
        <time>2021-06-26T10:09:13Z</time>
      </trkpt>
      <trkpt lat="46.202" lon="6.75908">
        <ele>1696.4</ele>
        <time>2021-06-26T10:09:14Z</time>
      </trkpt>
      <trkpt lat="46.20202" lon="6.75906">
        <ele>1696.8</ele>
        <time>2021-06-26T10:09:15Z</time>
      </trkpt>
      <trkpt lat="46.20204" lon="6.75904">
        <ele>1697</ele>
        <time>2021-06-26T10:09:16Z</time>
      </trkpt>
      <trkpt lat="46.20206" lon="6.75901">
        <ele>1697</ele>
        <time>2021-06-26T10:09:17Z</time>
      </trkpt>
      <trkpt lat="46.20208" lon="6.75899">
        <ele>1697.2</ele>
        <time>2021-06-26T10:09:18Z</time>
      </trkpt>
      <trkpt lat="46.2021" lon="6.75896">
        <ele>1697.6</ele>
        <time>2021-06-26T10:09:19Z</time>
      </trkpt>
      <trkpt lat="46.20212" lon="6.75894">
        <ele>1697.8</ele>
        <time>2021-06-26T10:09:20Z</time>
      </trkpt>
      <trkpt lat="46.20214" lon="6.75891">
        <ele>1698.2</ele>
        <time>2021-06-26T10:09:21Z</time>
      </trkpt>
      <trkpt lat="46.20216" lon="6.75889">
        <ele>1698.2</ele>
        <time>2021-06-26T10:09:22Z</time>
      </trkpt>
      <trkpt lat="46.20218" lon="6.75886">
        <ele>1698.4</ele>
        <time>2021-06-26T10:09:23Z</time>
      </trkpt>
      <trkpt lat="46.20219" lon="6.75883">
        <ele>1698.6</ele>
        <time>2021-06-26T10:09:24Z</time>
      </trkpt>
      <trkpt lat="46.20221" lon="6.7588">
        <ele>1698.8</ele>
        <time>2021-06-26T10:09:25Z</time>
      </trkpt>
      <trkpt lat="46.20223" lon="6.75877">
        <ele>1699.2</ele>
        <time>2021-06-26T10:09:26Z</time>
      </trkpt>
      <trkpt lat="46.20224" lon="6.75874">
        <ele>1699.6</ele>
        <time>2021-06-26T10:09:27Z</time>
      </trkpt>
      <trkpt lat="46.20225" lon="6.7587">
        <ele>1699.8</ele>
        <time>2021-06-26T10:09:28Z</time>
      </trkpt>
      <trkpt lat="46.20227" lon="6.75867">
        <ele>1700</ele>
        <time>2021-06-26T10:09:29Z</time>
      </trkpt>
      <trkpt lat="46.20228" lon="6.75864">
        <ele>1700.2</ele>
        <time>2021-06-26T10:09:30Z</time>
      </trkpt>
      <trkpt lat="46.2023" lon="6.75861">
        <ele>1700.4</ele>
        <time>2021-06-26T10:09:31Z</time>
      </trkpt>
      <trkpt lat="46.20232" lon="6.75859">
        <ele>1700.8</ele>
        <time>2021-06-26T10:09:32Z</time>
      </trkpt>
      <trkpt lat="46.20234" lon="6.75856">
        <ele>1701</ele>
        <time>2021-06-26T10:09:33Z</time>
      </trkpt>
      <trkpt lat="46.20236" lon="6.75854">
        <ele>1701.2</ele>
        <time>2021-06-26T10:09:34Z</time>
      </trkpt>
      <trkpt lat="46.20238" lon="6.75851">
        <ele>1701.4</ele>
        <time>2021-06-26T10:09:35Z</time>
      </trkpt>
      <trkpt lat="46.2024" lon="6.75849">
        <ele>1701.6</ele>
        <time>2021-06-26T10:09:36Z</time>
      </trkpt>
      <trkpt lat="46.20242" lon="6.75848">
        <ele>1701.8</ele>
        <time>2021-06-26T10:09:37Z</time>
      </trkpt>
      <trkpt lat="46.20244" lon="6.75846">
        <ele>1702</ele>
        <time>2021-06-26T10:09:38Z</time>
      </trkpt>
      <trkpt lat="46.20247" lon="6.75845">
        <ele>1702.2</ele>
        <time>2021-06-26T10:09:39Z</time>
      </trkpt>
      <trkpt lat="46.20249" lon="6.75844">
        <ele>1702</ele>
        <time>2021-06-26T10:09:40Z</time>
      </trkpt>
      <trkpt lat="46.20251" lon="6.75843">
        <ele>1702.4</ele>
        <time>2021-06-26T10:09:41Z</time>
      </trkpt>
      <trkpt lat="46.20254" lon="6.75842">
        <ele>1702.6</ele>
        <time>2021-06-26T10:09:42Z</time>
      </trkpt>
      <trkpt lat="46.20256" lon="6.75842">
        <ele>1702.8</ele>
        <time>2021-06-26T10:09:43Z</time>
      </trkpt>
      <trkpt lat="46.20259" lon="6.75841">
        <ele>1702.8</ele>
        <time>2021-06-26T10:09:44Z</time>
      </trkpt>
      <trkpt lat="46.20261" lon="6.75841">
        <ele>1703</ele>
        <time>2021-06-26T10:09:45Z</time>
      </trkpt>
      <trkpt lat="46.20263" lon="6.75841">
        <ele>1703.2</ele>
        <time>2021-06-26T10:09:46Z</time>
      </trkpt>
      <trkpt lat="46.20265" lon="6.75841">
        <ele>1703.4</ele>
        <time>2021-06-26T10:09:47Z</time>
      </trkpt>
      <trkpt lat="46.20267" lon="6.7584">
        <ele>1703.8</ele>
        <time>2021-06-26T10:09:48Z</time>
      </trkpt>
      <trkpt lat="46.20269" lon="6.7584">
        <ele>1704</ele>
        <time>2021-06-26T10:09:49Z</time>
      </trkpt>
      <trkpt lat="46.20272" lon="6.7584">
        <ele>1704.2</ele>
        <time>2021-06-26T10:09:50Z</time>
      </trkpt>
      <trkpt lat="46.20274" lon="6.75839">
        <ele>1704.4</ele>
        <time>2021-06-26T10:09:51Z</time>
      </trkpt>
      <trkpt lat="46.20276" lon="6.75839">
        <ele>1704.6</ele>
        <time>2021-06-26T10:09:52Z</time>
      </trkpt>
      <trkpt lat="46.20278" lon="6.75838">
        <ele>1704.8</ele>
        <time>2021-06-26T10:09:53Z</time>
      </trkpt>
      <trkpt lat="46.20281" lon="6.75837">
        <ele>1705</ele>
        <time>2021-06-26T10:09:54Z</time>
      </trkpt>
      <trkpt lat="46.20283" lon="6.75836">
        <ele>1705.2</ele>
        <time>2021-06-26T10:09:55Z</time>
      </trkpt>
      <trkpt lat="46.20286" lon="6.75835">
        <ele>1705.2</ele>
        <time>2021-06-26T10:09:56Z</time>
      </trkpt>
      <trkpt lat="46.20288" lon="6.75833">
        <ele>1705.6</ele>
        <time>2021-06-26T10:09:57Z</time>
      </trkpt>
      <trkpt lat="46.2029" lon="6.75832">
        <ele>1705.8</ele>
        <time>2021-06-26T10:09:58Z</time>
      </trkpt>
      <trkpt lat="46.20293" lon="6.7583">
        <ele>1706</ele>
        <time>2021-06-26T10:09:59Z</time>
      </trkpt>
      <trkpt lat="46.20295" lon="6.75828">
        <ele>1706.4</ele>
        <time>2021-06-26T10:10:00Z</time>
      </trkpt>
      <trkpt lat="46.20297" lon="6.75826">
        <ele>1706.6</ele>
        <time>2021-06-26T10:10:01Z</time>
      </trkpt>
      <trkpt lat="46.20299" lon="6.75823">
        <ele>1706.6</ele>
        <time>2021-06-26T10:10:02Z</time>
      </trkpt>
      <trkpt lat="46.20301" lon="6.7582">
        <ele>1706.8</ele>
        <time>2021-06-26T10:10:03Z</time>
      </trkpt>
      <trkpt lat="46.20303" lon="6.75818">
        <ele>1707.2</ele>
        <time>2021-06-26T10:10:04Z</time>
      </trkpt>
      <trkpt lat="46.20304" lon="6.75814">
        <ele>1707.2</ele>
        <time>2021-06-26T10:10:05Z</time>
      </trkpt>
      <trkpt lat="46.20305" lon="6.75811">
        <ele>1707.4</ele>
        <time>2021-06-26T10:10:06Z</time>
      </trkpt>
      <trkpt lat="46.20306" lon="6.75807">
        <ele>1707.4</ele>
        <time>2021-06-26T10:10:07Z</time>
      </trkpt>
      <trkpt lat="46.20306" lon="6.75804">
        <ele>1707.6</ele>
        <time>2021-06-26T10:10:08Z</time>
      </trkpt>
      <trkpt lat="46.20306" lon="6.758">
        <ele>1708</ele>
        <time>2021-06-26T10:10:09Z</time>
      </trkpt>
      <trkpt lat="46.20305" lon="6.75796">
        <ele>1708</ele>
        <time>2021-06-26T10:10:10Z</time>
      </trkpt>
      <trkpt lat="46.20303" lon="6.75793">
        <ele>1708.2</ele>
        <time>2021-06-26T10:10:11Z</time>
      </trkpt>
      <trkpt lat="46.20301" lon="6.7579">
        <ele>1708.2</ele>
        <time>2021-06-26T10:10:12Z</time>
      </trkpt>
      <trkpt lat="46.20299" lon="6.75789">
        <ele>1708.4</ele>
        <time>2021-06-26T10:10:13Z</time>
      </trkpt>
      <trkpt lat="46.20296" lon="6.75788">
        <ele>1708.6</ele>
        <time>2021-06-26T10:10:14Z</time>
      </trkpt>
      <trkpt lat="46.20294" lon="6.75788">
        <ele>1708.8</ele>
        <time>2021-06-26T10:10:15Z</time>
      </trkpt>
      <trkpt lat="46.20291" lon="6.75789">
        <ele>1709</ele>
        <time>2021-06-26T10:10:16Z</time>
      </trkpt>
      <trkpt lat="46.20289" lon="6.75791">
        <ele>1709.2</ele>
        <time>2021-06-26T10:10:17Z</time>
      </trkpt>
      <trkpt lat="46.20286" lon="6.75793">
        <ele>1709.4</ele>
        <time>2021-06-26T10:10:18Z</time>
      </trkpt>
      <trkpt lat="46.20284" lon="6.75795">
        <ele>1709.4</ele>
        <time>2021-06-26T10:10:19Z</time>
      </trkpt>
      <trkpt lat="46.20282" lon="6.75798">
        <ele>1709.6</ele>
        <time>2021-06-26T10:10:20Z</time>
      </trkpt>
      <trkpt lat="46.2028" lon="6.758">
        <ele>1709.8</ele>
        <time>2021-06-26T10:10:21Z</time>
      </trkpt>
      <trkpt lat="46.20278" lon="6.75802">
        <ele>1709.8</ele>
        <time>2021-06-26T10:10:22Z</time>
      </trkpt>
      <trkpt lat="46.20276" lon="6.75805">
        <ele>1710.2</ele>
        <time>2021-06-26T10:10:23Z</time>
      </trkpt>
      <trkpt lat="46.20274" lon="6.75807">
        <ele>1710.4</ele>
        <time>2021-06-26T10:10:24Z</time>
      </trkpt>
      <trkpt lat="46.20272" lon="6.75809">
        <ele>1710.8</ele>
        <time>2021-06-26T10:10:25Z</time>
      </trkpt>
      <trkpt lat="46.2027" lon="6.75811">
        <ele>1711</ele>
        <time>2021-06-26T10:10:26Z</time>
      </trkpt>
      <trkpt lat="46.20268" lon="6.75813">
        <ele>1711.2</ele>
        <time>2021-06-26T10:10:27Z</time>
      </trkpt>
      <trkpt lat="46.20265" lon="6.75814">
        <ele>1711.2</ele>
        <time>2021-06-26T10:10:28Z</time>
      </trkpt>
      <trkpt lat="46.20263" lon="6.75814">
        <ele>1711.6</ele>
        <time>2021-06-26T10:10:29Z</time>
      </trkpt>
      <trkpt lat="46.2026" lon="6.75814">
        <ele>1711.6</ele>
        <time>2021-06-26T10:10:30Z</time>
      </trkpt>
      <trkpt lat="46.20257" lon="6.75815">
        <ele>1711.8</ele>
        <time>2021-06-26T10:10:31Z</time>
      </trkpt>
      <trkpt lat="46.20254" lon="6.75815">
        <ele>1712</ele>
        <time>2021-06-26T10:10:32Z</time>
      </trkpt>
      <trkpt lat="46.20252" lon="6.75814">
        <ele>1712.2</ele>
        <time>2021-06-26T10:10:33Z</time>
      </trkpt>
      <trkpt lat="46.20249" lon="6.75814">
        <ele>1712.2</ele>
        <time>2021-06-26T10:10:34Z</time>
      </trkpt>
      <trkpt lat="46.20247" lon="6.75814">
        <ele>1712.6</ele>
        <time>2021-06-26T10:10:35Z</time>
      </trkpt>
      <trkpt lat="46.20244" lon="6.75814">
        <ele>1712.8</ele>
        <time>2021-06-26T10:10:36Z</time>
      </trkpt>
      <trkpt lat="46.20241" lon="6.75814">
        <ele>1713</ele>
        <time>2021-06-26T10:10:37Z</time>
      </trkpt>
      <trkpt lat="46.20239" lon="6.75813">
        <ele>1713.2</ele>
        <time>2021-06-26T10:10:38Z</time>
      </trkpt>
      <trkpt lat="46.20236" lon="6.75813">
        <ele>1713.2</ele>
        <time>2021-06-26T10:10:39Z</time>
      </trkpt>
      <trkpt lat="46.20233" lon="6.75813">
        <ele>1713.6</ele>
        <time>2021-06-26T10:10:40Z</time>
      </trkpt>
      <trkpt lat="46.20231" lon="6.75814">
        <ele>1713.8</ele>
        <time>2021-06-26T10:10:41Z</time>
      </trkpt>
      <trkpt lat="46.20228" lon="6.75814">
        <ele>1714</ele>
        <time>2021-06-26T10:10:42Z</time>
      </trkpt>
      <trkpt lat="46.20225" lon="6.75815">
        <ele>1714.2</ele>
        <time>2021-06-26T10:10:43Z</time>
      </trkpt>
      <trkpt lat="46.20223" lon="6.75815">
        <ele>1714.4</ele>
        <time>2021-06-26T10:10:44Z</time>
      </trkpt>
      <trkpt lat="46.2022" lon="6.75816">
        <ele>1714.6</ele>
        <time>2021-06-26T10:10:45Z</time>
      </trkpt>
      <trkpt lat="46.20218" lon="6.75818">
        <ele>1714.8</ele>
        <time>2021-06-26T10:10:46Z</time>
      </trkpt>
      <trkpt lat="46.20215" lon="6.75819">
        <ele>1714.8</ele>
        <time>2021-06-26T10:10:47Z</time>
      </trkpt>
      <trkpt lat="46.20212" lon="6.7582">
        <ele>1715</ele>
        <time>2021-06-26T10:10:48Z</time>
      </trkpt>
      <trkpt lat="46.2021" lon="6.75822">
        <ele>1715.4</ele>
        <time>2021-06-26T10:10:49Z</time>
      </trkpt>
      <trkpt lat="46.20207" lon="6.75823">
        <ele>1715.6</ele>
        <time>2021-06-26T10:10:50Z</time>
      </trkpt>
      <trkpt lat="46.20205" lon="6.75825">
        <ele>1715.8</ele>
        <time>2021-06-26T10:10:51Z</time>
      </trkpt>
      <trkpt lat="46.20202" lon="6.75827">
        <ele>1715.8</ele>
        <time>2021-06-26T10:10:52Z</time>
      </trkpt>
      <trkpt lat="46.202" lon="6.75828">
        <ele>1715.8</ele>
        <time>2021-06-26T10:10:53Z</time>
      </trkpt>
      <trkpt lat="46.20198" lon="6.7583">
        <ele>1716.2</ele>
        <time>2021-06-26T10:10:54Z</time>
      </trkpt>
      <trkpt lat="46.20195" lon="6.75832">
        <ele>1716.2</ele>
        <time>2021-06-26T10:10:55Z</time>
      </trkpt>
      <trkpt lat="46.20193" lon="6.75833">
        <ele>1716.4</ele>
        <time>2021-06-26T10:10:56Z</time>
      </trkpt>
      <trkpt lat="46.2019" lon="6.75835">
        <ele>1716.8</ele>
        <time>2021-06-26T10:10:57Z</time>
      </trkpt>
      <trkpt lat="46.20187" lon="6.75837">
        <ele>1716.8</ele>
        <time>2021-06-26T10:10:58Z</time>
      </trkpt>
      <trkpt lat="46.20185" lon="6.75839">
        <ele>1717.2</ele>
        <time>2021-06-26T10:10:59Z</time>
      </trkpt>
      <trkpt lat="46.20183" lon="6.75841">
        <ele>1717.2</ele>
        <time>2021-06-26T10:11:00Z</time>
      </trkpt>
      <trkpt lat="46.2018" lon="6.75843">
        <ele>1717.4</ele>
        <time>2021-06-26T10:11:01Z</time>
      </trkpt>
      <trkpt lat="46.20178" lon="6.75844">
        <ele>1717.4</ele>
        <time>2021-06-26T10:11:02Z</time>
      </trkpt>
      <trkpt lat="46.20175" lon="6.75846">
        <ele>1717.6</ele>
        <time>2021-06-26T10:11:03Z</time>
      </trkpt>
      <trkpt lat="46.20173" lon="6.75848">
        <ele>1717.8</ele>
        <time>2021-06-26T10:11:04Z</time>
      </trkpt>
      <trkpt lat="46.2017" lon="6.7585">
        <ele>1718.2</ele>
        <time>2021-06-26T10:11:05Z</time>
      </trkpt>
      <trkpt lat="46.20167" lon="6.75852">
        <ele>1718.4</ele>
        <time>2021-06-26T10:11:06Z</time>
      </trkpt>
      <trkpt lat="46.20165" lon="6.75854">
        <ele>1718.6</ele>
        <time>2021-06-26T10:11:07Z</time>
      </trkpt>
      <trkpt lat="46.20162" lon="6.75855">
        <ele>1718.8</ele>
        <time>2021-06-26T10:11:08Z</time>
      </trkpt>
      <trkpt lat="46.2016" lon="6.75857">
        <ele>1719.2</ele>
        <time>2021-06-26T10:11:09Z</time>
      </trkpt>
      <trkpt lat="46.20157" lon="6.75859">
        <ele>1719.4</ele>
        <time>2021-06-26T10:11:10Z</time>
      </trkpt>
      <trkpt lat="46.20155" lon="6.75861">
        <ele>1719.4</ele>
        <time>2021-06-26T10:11:11Z</time>
      </trkpt>
      <trkpt lat="46.20153" lon="6.75862">
        <ele>1719.4</ele>
        <time>2021-06-26T10:11:12Z</time>
      </trkpt>
      <trkpt lat="46.2015" lon="6.75864">
        <ele>1719.6</ele>
        <time>2021-06-26T10:11:13Z</time>
      </trkpt>
      <trkpt lat="46.20148" lon="6.75866">
        <ele>1720</ele>
        <time>2021-06-26T10:11:14Z</time>
      </trkpt>
      <trkpt lat="46.20146" lon="6.75868">
        <ele>1720</ele>
        <time>2021-06-26T10:11:15Z</time>
      </trkpt>
      <trkpt lat="46.20143" lon="6.75869">
        <ele>1720</ele>
        <time>2021-06-26T10:11:16Z</time>
      </trkpt>
      <trkpt lat="46.20141" lon="6.75871">
        <ele>1720.4</ele>
        <time>2021-06-26T10:11:17Z</time>
      </trkpt>
      <trkpt lat="46.20139" lon="6.75873">
        <ele>1720.4</ele>
        <time>2021-06-26T10:11:18Z</time>
      </trkpt>
      <trkpt lat="46.20136" lon="6.75875">
        <ele>1720.8</ele>
        <time>2021-06-26T10:11:19Z</time>
      </trkpt>
      <trkpt lat="46.20134" lon="6.75877">
        <ele>1720.8</ele>
        <time>2021-06-26T10:11:20Z</time>
      </trkpt>
      <trkpt lat="46.20132" lon="6.75879">
        <ele>1721.2</ele>
        <time>2021-06-26T10:11:21Z</time>
      </trkpt>
      <trkpt lat="46.20129" lon="6.75881">
        <ele>1721.4</ele>
        <time>2021-06-26T10:11:22Z</time>
      </trkpt>
      <trkpt lat="46.20127" lon="6.75882">
        <ele>1721.4</ele>
        <time>2021-06-26T10:11:23Z</time>
      </trkpt>
      <trkpt lat="46.20125" lon="6.75884">
        <ele>1721.8</ele>
        <time>2021-06-26T10:11:24Z</time>
      </trkpt>
      <trkpt lat="46.20122" lon="6.75886">
        <ele>1722</ele>
        <time>2021-06-26T10:11:25Z</time>
      </trkpt>
      <trkpt lat="46.2012" lon="6.75887">
        <ele>1722.2</ele>
        <time>2021-06-26T10:11:26Z</time>
      </trkpt>
      <trkpt lat="46.20117" lon="6.75889">
        <ele>1722.2</ele>
        <time>2021-06-26T10:11:27Z</time>
      </trkpt>
      <trkpt lat="46.20115" lon="6.75891">
        <ele>1722.6</ele>
        <time>2021-06-26T10:11:28Z</time>
      </trkpt>
      <trkpt lat="46.20113" lon="6.75893">
        <ele>1722.8</ele>
        <time>2021-06-26T10:11:29Z</time>
      </trkpt>
      <trkpt lat="46.2011" lon="6.75895">
        <ele>1722.8</ele>
        <time>2021-06-26T10:11:30Z</time>
      </trkpt>
      <trkpt lat="46.20108" lon="6.75898">
        <ele>1723</ele>
        <time>2021-06-26T10:11:31Z</time>
      </trkpt>
      <trkpt lat="46.20106" lon="6.759">
        <ele>1723.2</ele>
        <time>2021-06-26T10:11:32Z</time>
      </trkpt>
      <trkpt lat="46.20104" lon="6.75903">
        <ele>1723.4</ele>
        <time>2021-06-26T10:11:33Z</time>
      </trkpt>
      <trkpt lat="46.20102" lon="6.75905">
        <ele>1723.6</ele>
        <time>2021-06-26T10:11:34Z</time>
      </trkpt>
      <trkpt lat="46.201" lon="6.75908">
        <ele>1723.8</ele>
        <time>2021-06-26T10:11:35Z</time>
      </trkpt>
      <trkpt lat="46.20098" lon="6.7591">
        <ele>1724.2</ele>
        <time>2021-06-26T10:11:36Z</time>
      </trkpt>
      <trkpt lat="46.20095" lon="6.75913">
        <ele>1724.2</ele>
        <time>2021-06-26T10:11:37Z</time>
      </trkpt>
      <trkpt lat="46.20093" lon="6.75915">
        <ele>1724.4</ele>
        <time>2021-06-26T10:11:38Z</time>
      </trkpt>
      <trkpt lat="46.20091" lon="6.75917">
        <ele>1724.4</ele>
        <time>2021-06-26T10:11:39Z</time>
      </trkpt>
      <trkpt lat="46.20088" lon="6.75919">
        <ele>1724.8</ele>
        <time>2021-06-26T10:11:40Z</time>
      </trkpt>
      <trkpt lat="46.20086" lon="6.75921">
        <ele>1725.2</ele>
        <time>2021-06-26T10:11:41Z</time>
      </trkpt>
      <trkpt lat="46.20083" lon="6.75924">
        <ele>1725.4</ele>
        <time>2021-06-26T10:11:42Z</time>
      </trkpt>
      <trkpt lat="46.20081" lon="6.75926">
        <ele>1725.6</ele>
        <time>2021-06-26T10:11:43Z</time>
      </trkpt>
      <trkpt lat="46.20079" lon="6.75928">
        <ele>1725.8</ele>
        <time>2021-06-26T10:11:44Z</time>
      </trkpt>
      <trkpt lat="46.20077" lon="6.75931">
        <ele>1726</ele>
        <time>2021-06-26T10:11:45Z</time>
      </trkpt>
      <trkpt lat="46.20074" lon="6.75933">
        <ele>1726</ele>
        <time>2021-06-26T10:11:46Z</time>
      </trkpt>
      <trkpt lat="46.20072" lon="6.75936">
        <ele>1726.2</ele>
        <time>2021-06-26T10:11:47Z</time>
      </trkpt>
      <trkpt lat="46.2007" lon="6.75938">
        <ele>1726.6</ele>
        <time>2021-06-26T10:11:48Z</time>
      </trkpt>
      <trkpt lat="46.20068" lon="6.7594">
        <ele>1726.6</ele>
        <time>2021-06-26T10:11:49Z</time>
      </trkpt>
      <trkpt lat="46.20066" lon="6.75943">
        <ele>1726.8</ele>
        <time>2021-06-26T10:11:50Z</time>
      </trkpt>
      <trkpt lat="46.20063" lon="6.75945">
        <ele>1727</ele>
        <time>2021-06-26T10:11:51Z</time>
      </trkpt>
      <trkpt lat="46.20061" lon="6.75946">
        <ele>1727.2</ele>
        <time>2021-06-26T10:11:52Z</time>
      </trkpt>
      <trkpt lat="46.20058" lon="6.75947">
        <ele>1727.4</ele>
        <time>2021-06-26T10:11:53Z</time>
      </trkpt>
      <trkpt lat="46.20055" lon="6.75947">
        <ele>1727.6</ele>
        <time>2021-06-26T10:11:54Z</time>
      </trkpt>
      <trkpt lat="46.20053" lon="6.75945">
        <ele>1727.8</ele>
        <time>2021-06-26T10:11:55Z</time>
      </trkpt>
      <trkpt lat="46.20051" lon="6.75943">
        <ele>1728</ele>
        <time>2021-06-26T10:11:56Z</time>
      </trkpt>
      <trkpt lat="46.2005" lon="6.75939">
        <ele>1728.4</ele>
        <time>2021-06-26T10:11:57Z</time>
      </trkpt>
      <trkpt lat="46.2005" lon="6.75936">
        <ele>1728.4</ele>
        <time>2021-06-26T10:11:58Z</time>
      </trkpt>
      <trkpt lat="46.20051" lon="6.75932">
        <ele>1728.6</ele>
        <time>2021-06-26T10:11:59Z</time>
      </trkpt>
      <trkpt lat="46.20052" lon="6.75929">
        <ele>1728.6</ele>
        <time>2021-06-26T10:12:00Z</time>
      </trkpt>
      <trkpt lat="46.20054" lon="6.75926">
        <ele>1728.8</ele>
        <time>2021-06-26T10:12:01Z</time>
      </trkpt>
      <trkpt lat="46.20056" lon="6.75923">
        <ele>1729</ele>
        <time>2021-06-26T10:12:02Z</time>
      </trkpt>
      <trkpt lat="46.20059" lon="6.75922">
        <ele>1729</ele>
        <time>2021-06-26T10:12:03Z</time>
      </trkpt>
      <trkpt lat="46.20061" lon="6.7592">
        <ele>1729.2</ele>
        <time>2021-06-26T10:12:04Z</time>
      </trkpt>
      <trkpt lat="46.20064" lon="6.75919">
        <ele>1729.4</ele>
        <time>2021-06-26T10:12:05Z</time>
      </trkpt>
      <trkpt lat="46.20066" lon="6.75917">
        <ele>1729.6</ele>
        <time>2021-06-26T10:12:06Z</time>
      </trkpt>
      <trkpt lat="46.20069" lon="6.75916">
        <ele>1729.8</ele>
        <time>2021-06-26T10:12:07Z</time>
      </trkpt>
      <trkpt lat="46.20071" lon="6.75915">
        <ele>1729.8</ele>
        <time>2021-06-26T10:12:08Z</time>
      </trkpt>
      <trkpt lat="46.20074" lon="6.75913">
        <ele>1730.2</ele>
        <time>2021-06-26T10:12:09Z</time>
      </trkpt>
      <trkpt lat="46.20076" lon="6.75912">
        <ele>1730.2</ele>
        <time>2021-06-26T10:12:10Z</time>
      </trkpt>
      <trkpt lat="46.20078" lon="6.7591">
        <ele>1730.4</ele>
        <time>2021-06-26T10:12:11Z</time>
      </trkpt>
      <trkpt lat="46.20081" lon="6.75908">
        <ele>1730.4</ele>
        <time>2021-06-26T10:12:12Z</time>
      </trkpt>
      <trkpt lat="46.20083" lon="6.75906">
        <ele>1730.8</ele>
        <time>2021-06-26T10:12:13Z</time>
      </trkpt>
      <trkpt lat="46.20085" lon="6.75904">
        <ele>1731</ele>
        <time>2021-06-26T10:12:14Z</time>
      </trkpt>
      <trkpt lat="46.20087" lon="6.75901">
        <ele>1731.4</ele>
        <time>2021-06-26T10:12:15Z</time>
      </trkpt>
      <trkpt lat="46.20089" lon="6.75898">
        <ele>1731.6</ele>
        <time>2021-06-26T10:12:16Z</time>
      </trkpt>
      <trkpt lat="46.2009" lon="6.75894">
        <ele>1731.8</ele>
        <time>2021-06-26T10:12:17Z</time>
      </trkpt>
      <trkpt lat="46.2009" lon="6.7589">
        <ele>1732.4</ele>
        <time>2021-06-26T10:12:18Z</time>
      </trkpt>
      <trkpt lat="46.20089" lon="6.75887">
        <ele>1732.4</ele>
        <time>2021-06-26T10:12:19Z</time>
      </trkpt>
      <trkpt lat="46.20088" lon="6.75884">
        <ele>1732.8</ele>
        <time>2021-06-26T10:12:20Z</time>
      </trkpt>
      <trkpt lat="46.20085" lon="6.75882">
        <ele>1732.8</ele>
        <time>2021-06-26T10:12:21Z</time>
      </trkpt>
      <trkpt lat="46.20082" lon="6.75881">
        <ele>1733.2</ele>
        <time>2021-06-26T10:12:22Z</time>
      </trkpt>
      <trkpt lat="46.20079" lon="6.75881">
        <ele>1733.2</ele>
        <time>2021-06-26T10:12:23Z</time>
      </trkpt>
      <trkpt lat="46.20077" lon="6.75881">
        <ele>1733.2</ele>
        <time>2021-06-26T10:12:24Z</time>
      </trkpt>
      <trkpt lat="46.20074" lon="6.75882">
        <ele>1733.4</ele>
        <time>2021-06-26T10:12:25Z</time>
      </trkpt>
      <trkpt lat="46.20071" lon="6.75884">
        <ele>1733.6</ele>
        <time>2021-06-26T10:12:26Z</time>
      </trkpt>
      <trkpt lat="46.20068" lon="6.75885">
        <ele>1733.6</ele>
        <time>2021-06-26T10:12:27Z</time>
      </trkpt>
      <trkpt lat="46.20065" lon="6.75887">
        <ele>1733.8</ele>
        <time>2021-06-26T10:12:28Z</time>
      </trkpt>
      <trkpt lat="46.20062" lon="6.75888">
        <ele>1733.8</ele>
        <time>2021-06-26T10:12:29Z</time>
      </trkpt>
      <trkpt lat="46.2006" lon="6.75889">
        <ele>1733.8</ele>
        <time>2021-06-26T10:12:30Z</time>
      </trkpt>
      <trkpt lat="46.20057" lon="6.75891">
        <ele>1734.2</ele>
        <time>2021-06-26T10:12:31Z</time>
      </trkpt>
      <trkpt lat="46.20054" lon="6.75893">
        <ele>1734.4</ele>
        <time>2021-06-26T10:12:32Z</time>
      </trkpt>
      <trkpt lat="46.20051" lon="6.75894">
        <ele>1734.4</ele>
        <time>2021-06-26T10:12:33Z</time>
      </trkpt>
      <trkpt lat="46.20049" lon="6.75896">
        <ele>1734.6</ele>
        <time>2021-06-26T10:12:34Z</time>
      </trkpt>
      <trkpt lat="46.20046" lon="6.75898">
        <ele>1734.6</ele>
        <time>2021-06-26T10:12:35Z</time>
      </trkpt>
      <trkpt lat="46.20043" lon="6.759">
        <ele>1734.8</ele>
        <time>2021-06-26T10:12:36Z</time>
      </trkpt>
      <trkpt lat="46.2004" lon="6.75902">
        <ele>1734.8</ele>
        <time>2021-06-26T10:12:37Z</time>
      </trkpt>
      <trkpt lat="46.20038" lon="6.75904">
        <ele>1735</ele>
        <time>2021-06-26T10:12:38Z</time>
      </trkpt>
      <trkpt lat="46.20035" lon="6.75906">
        <ele>1735.4</ele>
        <time>2021-06-26T10:12:39Z</time>
      </trkpt>
      <trkpt lat="46.20032" lon="6.75908">
        <ele>1735.4</ele>
        <time>2021-06-26T10:12:40Z</time>
      </trkpt>
      <trkpt lat="46.2003" lon="6.75911">
        <ele>1735.8</ele>
        <time>2021-06-26T10:12:41Z</time>
      </trkpt>
      <trkpt lat="46.20027" lon="6.75914">
        <ele>1736</ele>
        <time>2021-06-26T10:12:42Z</time>
      </trkpt>
      <trkpt lat="46.20024" lon="6.75917">
        <ele>1736.2</ele>
        <time>2021-06-26T10:12:43Z</time>
      </trkpt>
      <trkpt lat="46.20021" lon="6.75919">
        <ele>1736.6</ele>
        <time>2021-06-26T10:12:44Z</time>
      </trkpt>
      <trkpt lat="46.20019" lon="6.75922">
        <ele>1736.6</ele>
        <time>2021-06-26T10:12:45Z</time>
      </trkpt>
      <trkpt lat="46.20016" lon="6.75923">
        <ele>1736.6</ele>
        <time>2021-06-26T10:12:46Z</time>
      </trkpt>
      <trkpt lat="46.20014" lon="6.75923">
        <ele>1737</ele>
        <time>2021-06-26T10:12:47Z</time>
      </trkpt>
      <trkpt lat="46.20012" lon="6.75921">
        <ele>1737.2</ele>
        <time>2021-06-26T10:12:48Z</time>
      </trkpt>
      <trkpt lat="46.20012" lon="6.75919">
        <ele>1737.4</ele>
        <time>2021-06-26T10:12:49Z</time>
      </trkpt>
      <trkpt lat="46.20012" lon="6.75919">
        <ele>1737.4</ele>
        <time>2021-06-26T10:12:50Z</time>
      </trkpt>
      <trkpt lat="46.20012" lon="6.75919">
        <ele>1738</ele>
        <time>2021-06-26T10:12:54Z</time>
      </trkpt>
      <trkpt lat="46.20013" lon="6.75919">
        <ele>1738</ele>
        <time>2021-06-26T10:12:56Z</time>
      </trkpt>
      <trkpt lat="46.20013" lon="6.75919">
        <ele>1738.2</ele>
        <time>2021-06-26T10:12:57Z</time>
      </trkpt>
      <trkpt lat="46.20014" lon="6.75919">
        <ele>1738.4</ele>
        <time>2021-06-26T10:12:58Z</time>
      </trkpt>
      <trkpt lat="46.20014" lon="6.75918">
        <ele>1738.6</ele>
        <time>2021-06-26T10:12:59Z</time>
      </trkpt>
      <trkpt lat="46.20014" lon="6.7592">
        <ele>1738.6</ele>
        <time>2021-06-26T10:13:01Z</time>
      </trkpt>
      <trkpt lat="46.20014" lon="6.75919">
        <ele>1738.6</ele>
        <time>2021-06-26T10:13:10Z</time>
      </trkpt>
      <trkpt lat="46.20015" lon="6.75918">
        <ele>1738.4</ele>
        <time>2021-06-26T10:14:02Z</time>
      </trkpt>
      <trkpt lat="46.20013" lon="6.75919">
        <ele>1738.8</ele>
        <time>2021-06-26T10:14:46Z</time>
      </trkpt>
      <trkpt lat="46.20013" lon="6.75919">
        <ele>1738.6</ele>
        <time>2021-06-26T10:14:47Z</time>
      </trkpt>
      <trkpt lat="46.20012" lon="6.75919">
        <ele>1738.6</ele>
        <time>2021-06-26T10:14:48Z</time>
      </trkpt>
      <trkpt lat="46.20013" lon="6.75919">
        <ele>1738.8</ele>
        <time>2021-06-26T10:14:58Z</time>
      </trkpt>
      <trkpt lat="46.20012" lon="6.75916">
        <ele>1739</ele>
        <time>2021-06-26T10:15:23Z</time>
      </trkpt>
      <trkpt lat="46.20013" lon="6.75912">
        <ele>1739</ele>
        <time>2021-06-26T10:15:25Z</time>
      </trkpt>
      <trkpt lat="46.20019" lon="6.75889">
        <ele>1739</ele>
        <time>2021-06-26T10:15:31Z</time>
      </trkpt>
      <trkpt lat="46.20023" lon="6.75874">
        <ele>1738.8</ele>
        <time>2021-06-26T10:15:34Z</time>
      </trkpt>
      <trkpt lat="46.20027" lon="6.75858">
        <ele>1738.8</ele>
        <time>2021-06-26T10:15:37Z</time>
      </trkpt>
      <trkpt lat="46.20028" lon="6.75852">
        <ele>1738.8</ele>
        <time>2021-06-26T10:15:38Z</time>
      </trkpt>
      <trkpt lat="46.20031" lon="6.75834">
        <ele>1738</ele>
        <time>2021-06-26T10:15:41Z</time>
      </trkpt>
      <trkpt lat="46.20032" lon="6.75829">
        <ele>1738</ele>
        <time>2021-06-26T10:15:42Z</time>
      </trkpt>
      <trkpt lat="46.20033" lon="6.75825">
        <ele>1737.8</ele>
        <time>2021-06-26T10:15:43Z</time>
      </trkpt>
      <trkpt lat="46.20034" lon="6.75823">
        <ele>1737.4</ele>
        <time>2021-06-26T10:15:44Z</time>
      </trkpt>
      <trkpt lat="46.20034" lon="6.75822">
        <ele>1737</ele>
        <time>2021-06-26T10:15:45Z</time>
      </trkpt>
      <trkpt lat="46.20034" lon="6.75821">
        <ele>1736.2</ele>
        <time>2021-06-26T10:15:48Z</time>
      </trkpt>
      <trkpt lat="46.20034" lon="6.75821">
        <ele>1735</ele>
        <time>2021-06-26T10:15:58Z</time>
      </trkpt>
      <trkpt lat="46.20034" lon="6.75821">
        <ele>1734.4</ele>
        <time>2021-06-26T10:16:18Z</time>
      </trkpt>
      <trkpt lat="46.20034" lon="6.75821">
        <ele>1734.2</ele>
        <time>2021-06-26T10:17:17Z</time>
      </trkpt>
      <trkpt lat="46.20033" lon="6.75821">
        <ele>1734</ele>
        <time>2021-06-26T10:17:22Z</time>
      </trkpt>
      <trkpt lat="46.20035" lon="6.75814">
        <ele>1734</ele>
        <time>2021-06-26T10:17:31Z</time>
      </trkpt>
      <trkpt lat="46.20036" lon="6.7581">
        <ele>1733.8</ele>
        <time>2021-06-26T10:17:32Z</time>
      </trkpt>
      <trkpt lat="46.20038" lon="6.758">
        <ele>1734</ele>
        <time>2021-06-26T10:17:34Z</time>
      </trkpt>
      <trkpt lat="46.20039" lon="6.75793">
        <ele>1734</ele>
        <time>2021-06-26T10:17:35Z</time>
      </trkpt>
      <trkpt lat="46.20042" lon="6.75779">
        <ele>1733.8</ele>
        <time>2021-06-26T10:17:37Z</time>
      </trkpt>
      <trkpt lat="46.20047" lon="6.75754">
        <ele>1733.4</ele>
        <time>2021-06-26T10:17:40Z</time>
      </trkpt>
      <trkpt lat="46.2005" lon="6.75734">
        <ele>1733</ele>
        <time>2021-06-26T10:17:42Z</time>
      </trkpt>
      <trkpt lat="46.20056" lon="6.75699">
        <ele>1731.6</ele>
        <time>2021-06-26T10:17:45Z</time>
      </trkpt>
      <trkpt lat="46.20058" lon="6.75673">
        <ele>1730.4</ele>
        <time>2021-06-26T10:17:47Z</time>
      </trkpt>
      <trkpt lat="46.20057" lon="6.75645">
        <ele>1729</ele>
        <time>2021-06-26T10:17:49Z</time>
      </trkpt>
      <trkpt lat="46.20056" lon="6.75631">
        <ele>1728.4</ele>
        <time>2021-06-26T10:17:50Z</time>
      </trkpt>
      <trkpt lat="46.20054" lon="6.75616">
        <ele>1727.8</ele>
        <time>2021-06-26T10:17:51Z</time>
      </trkpt>
      <trkpt lat="46.20051" lon="6.75586">
        <ele>1727.2</ele>
        <time>2021-06-26T10:17:53Z</time>
      </trkpt>
      <trkpt lat="46.2005" lon="6.75571">
        <ele>1726.4</ele>
        <time>2021-06-26T10:17:54Z</time>
      </trkpt>
      <trkpt lat="46.20047" lon="6.75539">
        <ele>1724.8</ele>
        <time>2021-06-26T10:17:56Z</time>
      </trkpt>
      <trkpt lat="46.20046" lon="6.75522">
        <ele>1724.2</ele>
        <time>2021-06-26T10:17:57Z</time>
      </trkpt>
      <trkpt lat="46.20045" lon="6.75488">
        <ele>1722</ele>
        <time>2021-06-26T10:17:59Z</time>
      </trkpt>
      <trkpt lat="46.20043" lon="6.7547">
        <ele>1720.4</ele>
        <time>2021-06-26T10:18:00Z</time>
      </trkpt>
      <trkpt lat="46.20042" lon="6.75453">
        <ele>1720.4</ele>
        <time>2021-06-26T10:18:01Z</time>
      </trkpt>
      <trkpt lat="46.2004" lon="6.75417">
        <ele>1718.6</ele>
        <time>2021-06-26T10:18:03Z</time>
      </trkpt>
      <trkpt lat="46.2004" lon="6.75398">
        <ele>1717.6</ele>
        <time>2021-06-26T10:18:04Z</time>
      </trkpt>
      <trkpt lat="46.2004" lon="6.7538">
        <ele>1716.8</ele>
        <time>2021-06-26T10:18:05Z</time>
      </trkpt>
      <trkpt lat="46.20042" lon="6.75362">
        <ele>1716</ele>
        <time>2021-06-26T10:18:06Z</time>
      </trkpt>
      <trkpt lat="46.20045" lon="6.75326">
        <ele>1714</ele>
        <time>2021-06-26T10:18:08Z</time>
      </trkpt>
      <trkpt lat="46.20047" lon="6.75307">
        <ele>1712.8</ele>
        <time>2021-06-26T10:18:09Z</time>
      </trkpt>
      <trkpt lat="46.2005" lon="6.7527">
        <ele>1710.2</ele>
        <time>2021-06-26T10:18:11Z</time>
      </trkpt>
      <trkpt lat="46.20053" lon="6.75233">
        <ele>1707.8</ele>
        <time>2021-06-26T10:18:13Z</time>
      </trkpt>
      <trkpt lat="46.20054" lon="6.75214">
        <ele>1706.4</ele>
        <time>2021-06-26T10:18:14Z</time>
      </trkpt>
      <trkpt lat="46.20053" lon="6.75196">
        <ele>1705.2</ele>
        <time>2021-06-26T10:18:15Z</time>
      </trkpt>
      <trkpt lat="46.20051" lon="6.75177">
        <ele>1704</ele>
        <time>2021-06-26T10:18:16Z</time>
      </trkpt>
      <trkpt lat="46.20047" lon="6.75159">
        <ele>1703.2</ele>
        <time>2021-06-26T10:18:17Z</time>
      </trkpt>
      <trkpt lat="46.20035" lon="6.75125">
        <ele>1701.2</ele>
        <time>2021-06-26T10:18:19Z</time>
      </trkpt>
      <trkpt lat="46.2002" lon="6.75092">
        <ele>1699.2</ele>
        <time>2021-06-26T10:18:21Z</time>
      </trkpt>
      <trkpt lat="46.20014" lon="6.75075">
        <ele>1698</ele>
        <time>2021-06-26T10:18:22Z</time>
      </trkpt>
      <trkpt lat="46.20007" lon="6.75058">
        <ele>1696.6</ele>
        <time>2021-06-26T10:18:23Z</time>
      </trkpt>
      <trkpt lat="46.19998" lon="6.75022">
        <ele>1695.8</ele>
        <time>2021-06-26T10:18:25Z</time>
      </trkpt>
      <trkpt lat="46.19994" lon="6.75004">
        <ele>1695</ele>
        <time>2021-06-26T10:18:26Z</time>
      </trkpt>
      <trkpt lat="46.1999" lon="6.74986">
        <ele>1693.8</ele>
        <time>2021-06-26T10:18:27Z</time>
      </trkpt>
      <trkpt lat="46.19986" lon="6.74969">
        <ele>1693</ele>
        <time>2021-06-26T10:18:28Z</time>
      </trkpt>
      <trkpt lat="46.19982" lon="6.74951">
        <ele>1692.2</ele>
        <time>2021-06-26T10:18:29Z</time>
      </trkpt>
      <trkpt lat="46.19978" lon="6.74933">
        <ele>1691.6</ele>
        <time>2021-06-26T10:18:30Z</time>
      </trkpt>
      <trkpt lat="46.19975" lon="6.74916">
        <ele>1690</ele>
        <time>2021-06-26T10:18:31Z</time>
      </trkpt>
      <trkpt lat="46.19971" lon="6.74898">
        <ele>1688.2</ele>
        <time>2021-06-26T10:18:32Z</time>
      </trkpt>
      <trkpt lat="46.19967" lon="6.7488">
        <ele>1686.6</ele>
        <time>2021-06-26T10:18:33Z</time>
      </trkpt>
      <trkpt lat="46.19963" lon="6.74863">
        <ele>1685.2</ele>
        <time>2021-06-26T10:18:34Z</time>
      </trkpt>
      <trkpt lat="46.19959" lon="6.74845">
        <ele>1683.6</ele>
        <time>2021-06-26T10:18:35Z</time>
      </trkpt>
      <trkpt lat="46.19956" lon="6.74827">
        <ele>1682.8</ele>
        <time>2021-06-26T10:18:36Z</time>
      </trkpt>
      <trkpt lat="46.19948" lon="6.74791">
        <ele>1681.6</ele>
        <time>2021-06-26T10:18:38Z</time>
      </trkpt>
      <trkpt lat="46.19939" lon="6.74756">
        <ele>1680.2</ele>
        <time>2021-06-26T10:18:40Z</time>
      </trkpt>
      <trkpt lat="46.19934" lon="6.74738">
        <ele>1679</ele>
        <time>2021-06-26T10:18:41Z</time>
      </trkpt>
      <trkpt lat="46.19922" lon="6.74703">
        <ele>1676.8</ele>
        <time>2021-06-26T10:18:43Z</time>
      </trkpt>
      <trkpt lat="46.19916" lon="6.74686">
        <ele>1675.6</ele>
        <time>2021-06-26T10:18:44Z</time>
      </trkpt>
      <trkpt lat="46.1991" lon="6.74669">
        <ele>1674.2</ele>
        <time>2021-06-26T10:18:45Z</time>
      </trkpt>
      <trkpt lat="46.19895" lon="6.74638">
        <ele>1673.2</ele>
        <time>2021-06-26T10:18:47Z</time>
      </trkpt>
      <trkpt lat="46.19886" lon="6.74625">
        <ele>1672.6</ele>
        <time>2021-06-26T10:18:48Z</time>
      </trkpt>
      <trkpt lat="46.19877" lon="6.74613">
        <ele>1671.8</ele>
        <time>2021-06-26T10:18:49Z</time>
      </trkpt>
      <trkpt lat="46.19866" lon="6.74602">
        <ele>1671</ele>
        <time>2021-06-26T10:18:50Z</time>
      </trkpt>
      <trkpt lat="46.19856" lon="6.74592">
        <ele>1670.4</ele>
        <time>2021-06-26T10:18:51Z</time>
      </trkpt>
      <trkpt lat="46.19845" lon="6.74582">
        <ele>1669.2</ele>
        <time>2021-06-26T10:18:52Z</time>
      </trkpt>
      <trkpt lat="46.19834" lon="6.74574">
        <ele>1668.6</ele>
        <time>2021-06-26T10:18:53Z</time>
      </trkpt>
      <trkpt lat="46.19823" lon="6.74567">
        <ele>1667.8</ele>
        <time>2021-06-26T10:18:54Z</time>
      </trkpt>
      <trkpt lat="46.19812" lon="6.74561">
        <ele>1666</ele>
        <time>2021-06-26T10:18:55Z</time>
      </trkpt>
      <trkpt lat="46.19801" lon="6.74555">
        <ele>1664.6</ele>
        <time>2021-06-26T10:18:56Z</time>
      </trkpt>
      <trkpt lat="46.1979" lon="6.74548">
        <ele>1663.8</ele>
        <time>2021-06-26T10:18:57Z</time>
      </trkpt>
      <trkpt lat="46.19779" lon="6.74541">
        <ele>1663.2</ele>
        <time>2021-06-26T10:18:58Z</time>
      </trkpt>
      <trkpt lat="46.19769" lon="6.74533">
        <ele>1662.8</ele>
        <time>2021-06-26T10:18:59Z</time>
      </trkpt>
      <trkpt lat="46.1976" lon="6.74522">
        <ele>1661.6</ele>
        <time>2021-06-26T10:19:00Z</time>
      </trkpt>
      <trkpt lat="46.19754" lon="6.74508">
        <ele>1660.2</ele>
        <time>2021-06-26T10:19:01Z</time>
      </trkpt>
      <trkpt lat="46.19751" lon="6.74492">
        <ele>1659.4</ele>
        <time>2021-06-26T10:19:02Z</time>
      </trkpt>
      <trkpt lat="46.19749" lon="6.74475">
        <ele>1658.6</ele>
        <time>2021-06-26T10:19:03Z</time>
      </trkpt>
      <trkpt lat="46.19748" lon="6.74458">
        <ele>1658.2</ele>
        <time>2021-06-26T10:19:04Z</time>
      </trkpt>
      <trkpt lat="46.19748" lon="6.74441">
        <ele>1657.8</ele>
        <time>2021-06-26T10:19:05Z</time>
      </trkpt>
      <trkpt lat="46.19747" lon="6.74424">
        <ele>1657.2</ele>
        <time>2021-06-26T10:19:06Z</time>
      </trkpt>
      <trkpt lat="46.19746" lon="6.74407">
        <ele>1656</ele>
        <time>2021-06-26T10:19:07Z</time>
      </trkpt>
      <trkpt lat="46.19744" lon="6.74374">
        <ele>1655</ele>
        <time>2021-06-26T10:19:09Z</time>
      </trkpt>
      <trkpt lat="46.19743" lon="6.74357">
        <ele>1654.2</ele>
        <time>2021-06-26T10:19:10Z</time>
      </trkpt>
      <trkpt lat="46.19741" lon="6.74341">
        <ele>1653.4</ele>
        <time>2021-06-26T10:19:11Z</time>
      </trkpt>
      <trkpt lat="46.19738" lon="6.74325">
        <ele>1653</ele>
        <time>2021-06-26T10:19:12Z</time>
      </trkpt>
      <trkpt lat="46.19733" lon="6.7431">
        <ele>1652.8</ele>
        <time>2021-06-26T10:19:13Z</time>
      </trkpt>
      <trkpt lat="46.19727" lon="6.74297">
        <ele>1652.2</ele>
        <time>2021-06-26T10:19:14Z</time>
      </trkpt>
      <trkpt lat="46.1972" lon="6.74284">
        <ele>1651.6</ele>
        <time>2021-06-26T10:19:15Z</time>
      </trkpt>
      <trkpt lat="46.19712" lon="6.74273">
        <ele>1650.6</ele>
        <time>2021-06-26T10:19:16Z</time>
      </trkpt>
      <trkpt lat="46.19704" lon="6.74262">
        <ele>1649.4</ele>
        <time>2021-06-26T10:19:17Z</time>
      </trkpt>
      <trkpt lat="46.19696" lon="6.74251">
        <ele>1648.4</ele>
        <time>2021-06-26T10:19:18Z</time>
      </trkpt>
      <trkpt lat="46.19679" lon="6.74229">
        <ele>1647.2</ele>
        <time>2021-06-26T10:19:20Z</time>
      </trkpt>
      <trkpt lat="46.19662" lon="6.74207">
        <ele>1645.6</ele>
        <time>2021-06-26T10:19:22Z</time>
      </trkpt>
      <trkpt lat="46.19646" lon="6.74185">
        <ele>1643.6</ele>
        <time>2021-06-26T10:19:24Z</time>
      </trkpt>
      <trkpt lat="46.19638" lon="6.74174">
        <ele>1643</ele>
        <time>2021-06-26T10:19:25Z</time>
      </trkpt>
      <trkpt lat="46.19629" lon="6.74163">
        <ele>1642.6</ele>
        <time>2021-06-26T10:19:26Z</time>
      </trkpt>
      <trkpt lat="46.19621" lon="6.74152">
        <ele>1641.6</ele>
        <time>2021-06-26T10:19:27Z</time>
      </trkpt>
      <trkpt lat="46.19604" lon="6.7413">
        <ele>1640.2</ele>
        <time>2021-06-26T10:19:29Z</time>
      </trkpt>
      <trkpt lat="46.19581" lon="6.74093">
        <ele>1638.4</ele>
        <time>2021-06-26T10:19:32Z</time>
      </trkpt>
      <trkpt lat="46.19573" lon="6.7408">
        <ele>1637.8</ele>
        <time>2021-06-26T10:19:33Z</time>
      </trkpt>
      <trkpt lat="46.19559" lon="6.74054">
        <ele>1636.8</ele>
        <time>2021-06-26T10:19:35Z</time>
      </trkpt>
      <trkpt lat="46.19542" lon="6.74032">
        <ele>1635.4</ele>
        <time>2021-06-26T10:19:37Z</time>
      </trkpt>
      <trkpt lat="46.19532" lon="6.74024">
        <ele>1634.6</ele>
        <time>2021-06-26T10:19:38Z</time>
      </trkpt>
      <trkpt lat="46.19521" lon="6.74018">
        <ele>1633.8</ele>
        <time>2021-06-26T10:19:39Z</time>
      </trkpt>
      <trkpt lat="46.19509" lon="6.74016">
        <ele>1633.4</ele>
        <time>2021-06-26T10:19:40Z</time>
      </trkpt>
      <trkpt lat="46.19498" lon="6.74016">
        <ele>1632.6</ele>
        <time>2021-06-26T10:19:41Z</time>
      </trkpt>
      <trkpt lat="46.19486" lon="6.74015">
        <ele>1631.4</ele>
        <time>2021-06-26T10:19:42Z</time>
      </trkpt>
      <trkpt lat="46.19475" lon="6.74013">
        <ele>1630.6</ele>
        <time>2021-06-26T10:19:43Z</time>
      </trkpt>
      <trkpt lat="46.19464" lon="6.74008">
        <ele>1630</ele>
        <time>2021-06-26T10:19:44Z</time>
      </trkpt>
      <trkpt lat="46.19454" lon="6.73999">
        <ele>1629.6</ele>
        <time>2021-06-26T10:19:45Z</time>
      </trkpt>
      <trkpt lat="46.19446" lon="6.73988">
        <ele>1629</ele>
        <time>2021-06-26T10:19:46Z</time>
      </trkpt>
      <trkpt lat="46.19438" lon="6.73976">
        <ele>1627.4</ele>
        <time>2021-06-26T10:19:47Z</time>
      </trkpt>
      <trkpt lat="46.1943" lon="6.73965">
        <ele>1626.4</ele>
        <time>2021-06-26T10:19:48Z</time>
      </trkpt>
      <trkpt lat="46.19421" lon="6.73956">
        <ele>1625.6</ele>
        <time>2021-06-26T10:19:49Z</time>
      </trkpt>
      <trkpt lat="46.19412" lon="6.7395">
        <ele>1625</ele>
        <time>2021-06-26T10:19:50Z</time>
      </trkpt>
      <trkpt lat="46.19401" lon="6.73946">
        <ele>1624.4</ele>
        <time>2021-06-26T10:19:51Z</time>
      </trkpt>
      <trkpt lat="46.19391" lon="6.73944">
        <ele>1623.4</ele>
        <time>2021-06-26T10:19:52Z</time>
      </trkpt>
      <trkpt lat="46.1938" lon="6.73942">
        <ele>1622.2</ele>
        <time>2021-06-26T10:19:53Z</time>
      </trkpt>
      <trkpt lat="46.19369" lon="6.73939">
        <ele>1622.2</ele>
        <time>2021-06-26T10:19:54Z</time>
      </trkpt>
      <trkpt lat="46.19359" lon="6.73934">
        <ele>1621.2</ele>
        <time>2021-06-26T10:19:55Z</time>
      </trkpt>
      <trkpt lat="46.1935" lon="6.73927">
        <ele>1620.6</ele>
        <time>2021-06-26T10:19:56Z</time>
      </trkpt>
      <trkpt lat="46.19341" lon="6.73917">
        <ele>1620.4</ele>
        <time>2021-06-26T10:19:57Z</time>
      </trkpt>
      <trkpt lat="46.19333" lon="6.73907">
        <ele>1620</ele>
        <time>2021-06-26T10:19:58Z</time>
      </trkpt>
      <trkpt lat="46.19326" lon="6.73895">
        <ele>1619.2</ele>
        <time>2021-06-26T10:19:59Z</time>
      </trkpt>
      <trkpt lat="46.1932" lon="6.73882">
        <ele>1617.4</ele>
        <time>2021-06-26T10:20:00Z</time>
      </trkpt>
      <trkpt lat="46.19304" lon="6.7384">
        <ele>1615.6</ele>
        <time>2021-06-26T10:20:03Z</time>
      </trkpt>
      <trkpt lat="46.193" lon="6.73824">
        <ele>1614.8</ele>
        <time>2021-06-26T10:20:04Z</time>
      </trkpt>
      <trkpt lat="46.19298" lon="6.73808">
        <ele>1614.2</ele>
        <time>2021-06-26T10:20:05Z</time>
      </trkpt>
      <trkpt lat="46.19296" lon="6.73792">
        <ele>1613.6</ele>
        <time>2021-06-26T10:20:06Z</time>
      </trkpt>
      <trkpt lat="46.19295" lon="6.73775">
        <ele>1612.8</ele>
        <time>2021-06-26T10:20:07Z</time>
      </trkpt>
      <trkpt lat="46.19298" lon="6.73758">
        <ele>1612</ele>
        <time>2021-06-26T10:20:08Z</time>
      </trkpt>
      <trkpt lat="46.19302" lon="6.73742">
        <ele>1611.2</ele>
        <time>2021-06-26T10:20:09Z</time>
      </trkpt>
      <trkpt lat="46.19307" lon="6.73726">
        <ele>1610.4</ele>
        <time>2021-06-26T10:20:10Z</time>
      </trkpt>
      <trkpt lat="46.1931" lon="6.73709">
        <ele>1610</ele>
        <time>2021-06-26T10:20:11Z</time>
      </trkpt>
      <trkpt lat="46.1931" lon="6.73692">
        <ele>1609.6</ele>
        <time>2021-06-26T10:20:12Z</time>
      </trkpt>
      <trkpt lat="46.19306" lon="6.73676">
        <ele>1609.4</ele>
        <time>2021-06-26T10:20:13Z</time>
      </trkpt>
      <trkpt lat="46.19299" lon="6.73664">
        <ele>1608.6</ele>
        <time>2021-06-26T10:20:14Z</time>
      </trkpt>
      <trkpt lat="46.1929" lon="6.73653">
        <ele>1607.6</ele>
        <time>2021-06-26T10:20:15Z</time>
      </trkpt>
      <trkpt lat="46.19282" lon="6.73643">
        <ele>1607.6</ele>
        <time>2021-06-26T10:20:16Z</time>
      </trkpt>
      <trkpt lat="46.19274" lon="6.7363">
        <ele>1606.6</ele>
        <time>2021-06-26T10:20:17Z</time>
      </trkpt>
      <trkpt lat="46.19267" lon="6.73617">
        <ele>1605.8</ele>
        <time>2021-06-26T10:20:18Z</time>
      </trkpt>
      <trkpt lat="46.19262" lon="6.73603">
        <ele>1605.4</ele>
        <time>2021-06-26T10:20:19Z</time>
      </trkpt>
      <trkpt lat="46.19258" lon="6.73587">
        <ele>1604.6</ele>
        <time>2021-06-26T10:20:20Z</time>
      </trkpt>
      <trkpt lat="46.19256" lon="6.73571">
        <ele>1603.4</ele>
        <time>2021-06-26T10:20:21Z</time>
      </trkpt>
      <trkpt lat="46.19254" lon="6.73555">
        <ele>1602.2</ele>
        <time>2021-06-26T10:20:22Z</time>
      </trkpt>
      <trkpt lat="46.19253" lon="6.73538">
        <ele>1600.8</ele>
        <time>2021-06-26T10:20:23Z</time>
      </trkpt>
      <trkpt lat="46.19252" lon="6.73522">
        <ele>1599.4</ele>
        <time>2021-06-26T10:20:24Z</time>
      </trkpt>
      <trkpt lat="46.19248" lon="6.73507">
        <ele>1598.6</ele>
        <time>2021-06-26T10:20:25Z</time>
      </trkpt>
      <trkpt lat="46.19241" lon="6.73494">
        <ele>1598</ele>
        <time>2021-06-26T10:20:26Z</time>
      </trkpt>
      <trkpt lat="46.19233" lon="6.73484">
        <ele>1597.2</ele>
        <time>2021-06-26T10:20:27Z</time>
      </trkpt>
      <trkpt lat="46.19223" lon="6.73476">
        <ele>1596.4</ele>
        <time>2021-06-26T10:20:28Z</time>
      </trkpt>
      <trkpt lat="46.19213" lon="6.73469">
        <ele>1595.4</ele>
        <time>2021-06-26T10:20:29Z</time>
      </trkpt>
      <trkpt lat="46.19202" lon="6.73462">
        <ele>1594.6</ele>
        <time>2021-06-26T10:20:30Z</time>
      </trkpt>
      <trkpt lat="46.19192" lon="6.73454">
        <ele>1594</ele>
        <time>2021-06-26T10:20:31Z</time>
      </trkpt>
      <trkpt lat="46.19183" lon="6.73444">
        <ele>1593.4</ele>
        <time>2021-06-26T10:20:32Z</time>
      </trkpt>
      <trkpt lat="46.19174" lon="6.73432">
        <ele>1592.4</ele>
        <time>2021-06-26T10:20:33Z</time>
      </trkpt>
      <trkpt lat="46.19167" lon="6.73419">
        <ele>1591.6</ele>
        <time>2021-06-26T10:20:34Z</time>
      </trkpt>
      <trkpt lat="46.1916" lon="6.73405">
        <ele>1591</ele>
        <time>2021-06-26T10:20:35Z</time>
      </trkpt>
      <trkpt lat="46.19145" lon="6.73376">
        <ele>1589.4</ele>
        <time>2021-06-26T10:20:37Z</time>
      </trkpt>
      <trkpt lat="46.19138" lon="6.73361">
        <ele>1588.6</ele>
        <time>2021-06-26T10:20:38Z</time>
      </trkpt>
      <trkpt lat="46.19122" lon="6.7333">
        <ele>1587.6</ele>
        <time>2021-06-26T10:20:40Z</time>
      </trkpt>
      <trkpt lat="46.19115" lon="6.73314">
        <ele>1587</ele>
        <time>2021-06-26T10:20:41Z</time>
      </trkpt>
      <trkpt lat="46.19109" lon="6.73296">
        <ele>1586.2</ele>
        <time>2021-06-26T10:20:42Z</time>
      </trkpt>
      <trkpt lat="46.19103" lon="6.73279">
        <ele>1585.2</ele>
        <time>2021-06-26T10:20:43Z</time>
      </trkpt>
      <trkpt lat="46.19098" lon="6.73261">
        <ele>1584.8</ele>
        <time>2021-06-26T10:20:44Z</time>
      </trkpt>
      <trkpt lat="46.19092" lon="6.73243">
        <ele>1583.8</ele>
        <time>2021-06-26T10:20:45Z</time>
      </trkpt>
      <trkpt lat="46.19087" lon="6.73226">
        <ele>1583.2</ele>
        <time>2021-06-26T10:20:46Z</time>
      </trkpt>
      <trkpt lat="46.19082" lon="6.73208">
        <ele>1582</ele>
        <time>2021-06-26T10:20:47Z</time>
      </trkpt>
      <trkpt lat="46.19077" lon="6.7319">
        <ele>1580.2</ele>
        <time>2021-06-26T10:20:48Z</time>
      </trkpt>
      <trkpt lat="46.19072" lon="6.73171">
        <ele>1579</ele>
        <time>2021-06-26T10:20:49Z</time>
      </trkpt>
      <trkpt lat="46.19068" lon="6.73153">
        <ele>1577.6</ele>
        <time>2021-06-26T10:20:50Z</time>
      </trkpt>
      <trkpt lat="46.19065" lon="6.73134">
        <ele>1576</ele>
        <time>2021-06-26T10:20:51Z</time>
      </trkpt>
      <trkpt lat="46.19064" lon="6.73114">
        <ele>1574.8</ele>
        <time>2021-06-26T10:20:52Z</time>
      </trkpt>
      <trkpt lat="46.19064" lon="6.73095">
        <ele>1573.8</ele>
        <time>2021-06-26T10:20:53Z</time>
      </trkpt>
      <trkpt lat="46.19064" lon="6.73076">
        <ele>1571.8</ele>
        <time>2021-06-26T10:20:54Z</time>
      </trkpt>
      <trkpt lat="46.19065" lon="6.73056">
        <ele>1570.2</ele>
        <time>2021-06-26T10:20:55Z</time>
      </trkpt>
      <trkpt lat="46.19067" lon="6.73037">
        <ele>1569</ele>
        <time>2021-06-26T10:20:56Z</time>
      </trkpt>
      <trkpt lat="46.19068" lon="6.73018">
        <ele>1567.6</ele>
        <time>2021-06-26T10:20:57Z</time>
      </trkpt>
      <trkpt lat="46.19069" lon="6.72999">
        <ele>1566.4</ele>
        <time>2021-06-26T10:20:58Z</time>
      </trkpt>
      <trkpt lat="46.1907" lon="6.7298">
        <ele>1565.2</ele>
        <time>2021-06-26T10:20:59Z</time>
      </trkpt>
      <trkpt lat="46.19074" lon="6.72923">
        <ele>1563</ele>
        <time>2021-06-26T10:21:02Z</time>
      </trkpt>
      <trkpt lat="46.19074" lon="6.72903">
        <ele>1562.2</ele>
        <time>2021-06-26T10:21:03Z</time>
      </trkpt>
      <trkpt lat="46.19075" lon="6.72884">
        <ele>1561.2</ele>
        <time>2021-06-26T10:21:04Z</time>
      </trkpt>
      <trkpt lat="46.19073" lon="6.72865">
        <ele>1559.8</ele>
        <time>2021-06-26T10:21:05Z</time>
      </trkpt>
      <trkpt lat="46.1907" lon="6.72846">
        <ele>1558.2</ele>
        <time>2021-06-26T10:21:06Z</time>
      </trkpt>
      <trkpt lat="46.19065" lon="6.72828">
        <ele>1556.8</ele>
        <time>2021-06-26T10:21:07Z</time>
      </trkpt>
      <trkpt lat="46.19061" lon="6.7281">
        <ele>1555.8</ele>
        <time>2021-06-26T10:21:08Z</time>
      </trkpt>
      <trkpt lat="46.19058" lon="6.72791">
        <ele>1555.2</ele>
        <time>2021-06-26T10:21:09Z</time>
      </trkpt>
      <trkpt lat="46.19056" lon="6.72772">
        <ele>1554.6</ele>
        <time>2021-06-26T10:21:10Z</time>
      </trkpt>
      <trkpt lat="46.19056" lon="6.72753">
        <ele>1553.4</ele>
        <time>2021-06-26T10:21:11Z</time>
      </trkpt>
      <trkpt lat="46.19056" lon="6.72714">
        <ele>1550.6</ele>
        <time>2021-06-26T10:21:13Z</time>
      </trkpt>
      <trkpt lat="46.19056" lon="6.72694">
        <ele>1549.8</ele>
        <time>2021-06-26T10:21:14Z</time>
      </trkpt>
      <trkpt lat="46.19055" lon="6.72675">
        <ele>1548.4</ele>
        <time>2021-06-26T10:21:15Z</time>
      </trkpt>
      <trkpt lat="46.19056" lon="6.72656">
        <ele>1547</ele>
        <time>2021-06-26T10:21:16Z</time>
      </trkpt>
      <trkpt lat="46.19058" lon="6.72637">
        <ele>1545.8</ele>
        <time>2021-06-26T10:21:17Z</time>
      </trkpt>
      <trkpt lat="46.19064" lon="6.726">
        <ele>1544</ele>
        <time>2021-06-26T10:21:19Z</time>
      </trkpt>
      <trkpt lat="46.1906" lon="6.72564">
        <ele>1541.4</ele>
        <time>2021-06-26T10:21:21Z</time>
      </trkpt>
      <trkpt lat="46.19055" lon="6.72547">
        <ele>1540.2</ele>
        <time>2021-06-26T10:21:22Z</time>
      </trkpt>
      <trkpt lat="46.19051" lon="6.72531">
        <ele>1538.6</ele>
        <time>2021-06-26T10:21:23Z</time>
      </trkpt>
      <trkpt lat="46.19047" lon="6.72515">
        <ele>1538.6</ele>
        <time>2021-06-26T10:21:24Z</time>
      </trkpt>
      <trkpt lat="46.19044" lon="6.72499">
        <ele>1536.8</ele>
        <time>2021-06-26T10:21:25Z</time>
      </trkpt>
      <trkpt lat="46.19041" lon="6.72484">
        <ele>1535.4</ele>
        <time>2021-06-26T10:21:26Z</time>
      </trkpt>
      <trkpt lat="46.19038" lon="6.72451">
        <ele>1533.6</ele>
        <time>2021-06-26T10:21:28Z</time>
      </trkpt>
      <trkpt lat="46.19038" lon="6.72434">
        <ele>1532.6</ele>
        <time>2021-06-26T10:21:29Z</time>
      </trkpt>
      <trkpt lat="46.19039" lon="6.72399">
        <ele>1531.2</ele>
        <time>2021-06-26T10:21:31Z</time>
      </trkpt>
      <trkpt lat="46.19041" lon="6.72382">
        <ele>1531</ele>
        <time>2021-06-26T10:21:32Z</time>
      </trkpt>
      <trkpt lat="46.19044" lon="6.72365">
        <ele>1530.8</ele>
        <time>2021-06-26T10:21:33Z</time>
      </trkpt>
      <trkpt lat="46.19049" lon="6.72331">
        <ele>1530.2</ele>
        <time>2021-06-26T10:21:35Z</time>
      </trkpt>
      <trkpt lat="46.19053" lon="6.72298">
        <ele>1529</ele>
        <time>2021-06-26T10:21:37Z</time>
      </trkpt>
      <trkpt lat="46.19057" lon="6.72282">
        <ele>1527.8</ele>
        <time>2021-06-26T10:21:38Z</time>
      </trkpt>
      <trkpt lat="46.19062" lon="6.72267">
        <ele>1526.6</ele>
        <time>2021-06-26T10:21:39Z</time>
      </trkpt>
      <trkpt lat="46.19068" lon="6.72255">
        <ele>1525.8</ele>
        <time>2021-06-26T10:21:40Z</time>
      </trkpt>
      <trkpt lat="46.19074" lon="6.72244">
        <ele>1524.6</ele>
        <time>2021-06-26T10:21:41Z</time>
      </trkpt>
      <trkpt lat="46.19077" lon="6.72233">
        <ele>1523</ele>
        <time>2021-06-26T10:21:42Z</time>
      </trkpt>
      <trkpt lat="46.19077" lon="6.72223">
        <ele>1522</ele>
        <time>2021-06-26T10:21:43Z</time>
      </trkpt>
      <trkpt lat="46.19074" lon="6.72216">
        <ele>1521</ele>
        <time>2021-06-26T10:21:44Z</time>
      </trkpt>
      <trkpt lat="46.19068" lon="6.72214">
        <ele>1520</ele>
        <time>2021-06-26T10:21:45Z</time>
      </trkpt>
      <trkpt lat="46.19062" lon="6.72218">
        <ele>1519.2</ele>
        <time>2021-06-26T10:21:46Z</time>
      </trkpt>
      <trkpt lat="46.19052" lon="6.72235">
        <ele>1518.8</ele>
        <time>2021-06-26T10:21:48Z</time>
      </trkpt>
      <trkpt lat="46.19043" lon="6.72258">
        <ele>1518.2</ele>
        <time>2021-06-26T10:21:50Z</time>
      </trkpt>
      <trkpt lat="46.19032" lon="6.72281">
        <ele>1518.2</ele>
        <time>2021-06-26T10:21:52Z</time>
      </trkpt>
      <trkpt lat="46.19025" lon="6.72293">
        <ele>1518</ele>
        <time>2021-06-26T10:21:53Z</time>
      </trkpt>
      <trkpt lat="46.19017" lon="6.72304">
        <ele>1517.8</ele>
        <time>2021-06-26T10:21:54Z</time>
      </trkpt>
      <trkpt lat="46.19009" lon="6.72315">
        <ele>1517.6</ele>
        <time>2021-06-26T10:21:55Z</time>
      </trkpt>
      <trkpt lat="46.19001" lon="6.72327">
        <ele>1517.4</ele>
        <time>2021-06-26T10:21:56Z</time>
      </trkpt>
      <trkpt lat="46.18993" lon="6.72339">
        <ele>1517.2</ele>
        <time>2021-06-26T10:21:57Z</time>
      </trkpt>
      <trkpt lat="46.18986" lon="6.72352">
        <ele>1517</ele>
        <time>2021-06-26T10:21:58Z</time>
      </trkpt>
      <trkpt lat="46.18981" lon="6.72366">
        <ele>1516.4</ele>
        <time>2021-06-26T10:21:59Z</time>
      </trkpt>
      <trkpt lat="46.18977" lon="6.72379">
        <ele>1515.8</ele>
        <time>2021-06-26T10:22:00Z</time>
      </trkpt>
      <trkpt lat="46.18973" lon="6.72389">
        <ele>1514.8</ele>
        <time>2021-06-26T10:22:01Z</time>
      </trkpt>
      <trkpt lat="46.18968" lon="6.72395">
        <ele>1514</ele>
        <time>2021-06-26T10:22:02Z</time>
      </trkpt>
      <trkpt lat="46.18962" lon="6.72395">
        <ele>1513.2</ele>
        <time>2021-06-26T10:22:03Z</time>
      </trkpt>
      <trkpt lat="46.18957" lon="6.72388">
        <ele>1511.8</ele>
        <time>2021-06-26T10:22:04Z</time>
      </trkpt>
      <trkpt lat="46.18957" lon="6.72378">
        <ele>1510.8</ele>
        <time>2021-06-26T10:22:05Z</time>
      </trkpt>
      <trkpt lat="46.18958" lon="6.72367">
        <ele>1509.6</ele>
        <time>2021-06-26T10:22:06Z</time>
      </trkpt>
      <trkpt lat="46.1896" lon="6.72355">
        <ele>1508.6</ele>
        <time>2021-06-26T10:22:07Z</time>
      </trkpt>
      <trkpt lat="46.18962" lon="6.72342">
        <ele>1508.2</ele>
        <time>2021-06-26T10:22:08Z</time>
      </trkpt>
      <trkpt lat="46.18964" lon="6.72329">
        <ele>1508</ele>
        <time>2021-06-26T10:22:09Z</time>
      </trkpt>
      <trkpt lat="46.18967" lon="6.72315">
        <ele>1508</ele>
        <time>2021-06-26T10:22:10Z</time>
      </trkpt>
      <trkpt lat="46.18975" lon="6.72287">
        <ele>1507.4</ele>
        <time>2021-06-26T10:22:12Z</time>
      </trkpt>
      <trkpt lat="46.18974" lon="6.72264">
        <ele>1506.4</ele>
        <time>2021-06-26T10:22:14Z</time>
      </trkpt>
      <trkpt lat="46.18969" lon="6.72259">
        <ele>1506</ele>
        <time>2021-06-26T10:22:15Z</time>
      </trkpt>
      <trkpt lat="46.18962" lon="6.7226">
        <ele>1505.4</ele>
        <time>2021-06-26T10:22:16Z</time>
      </trkpt>
      <trkpt lat="46.18952" lon="6.72277">
        <ele>1503.4</ele>
        <time>2021-06-26T10:22:18Z</time>
      </trkpt>
      <trkpt lat="46.18948" lon="6.72289">
        <ele>1501.8</ele>
        <time>2021-06-26T10:22:19Z</time>
      </trkpt>
      <trkpt lat="46.18943" lon="6.72301">
        <ele>1500.8</ele>
        <time>2021-06-26T10:22:20Z</time>
      </trkpt>
      <trkpt lat="46.18937" lon="6.72313">
        <ele>1499.8</ele>
        <time>2021-06-26T10:22:21Z</time>
      </trkpt>
      <trkpt lat="46.18931" lon="6.72326">
        <ele>1499.6</ele>
        <time>2021-06-26T10:22:22Z</time>
      </trkpt>
      <trkpt lat="46.18925" lon="6.72339">
        <ele>1499.2</ele>
        <time>2021-06-26T10:22:23Z</time>
      </trkpt>
      <trkpt lat="46.18915" lon="6.72369">
        <ele>1498.6</ele>
        <time>2021-06-26T10:22:25Z</time>
      </trkpt>
      <trkpt lat="46.18911" lon="6.72385">
        <ele>1498.4</ele>
        <time>2021-06-26T10:22:26Z</time>
      </trkpt>
      <trkpt lat="46.18909" lon="6.72402">
        <ele>1498.2</ele>
        <time>2021-06-26T10:22:27Z</time>
      </trkpt>
      <trkpt lat="46.18909" lon="6.72417">
        <ele>1497.2</ele>
        <time>2021-06-26T10:22:28Z</time>
      </trkpt>
      <trkpt lat="46.18909" lon="6.72431">
        <ele>1496.2</ele>
        <time>2021-06-26T10:22:29Z</time>
      </trkpt>
      <trkpt lat="46.18909" lon="6.72442">
        <ele>1495.4</ele>
        <time>2021-06-26T10:22:30Z</time>
      </trkpt>
      <trkpt lat="46.18906" lon="6.72451">
        <ele>1494.6</ele>
        <time>2021-06-26T10:22:31Z</time>
      </trkpt>
      <trkpt lat="46.18901" lon="6.72454">
        <ele>1493.2</ele>
        <time>2021-06-26T10:22:32Z</time>
      </trkpt>
      <trkpt lat="46.18896" lon="6.7245">
        <ele>1493.2</ele>
        <time>2021-06-26T10:22:33Z</time>
      </trkpt>
      <trkpt lat="46.18894" lon="6.72442">
        <ele>1492.4</ele>
        <time>2021-06-26T10:22:34Z</time>
      </trkpt>
      <trkpt lat="46.18892" lon="6.72431">
        <ele>1491.4</ele>
        <time>2021-06-26T10:22:35Z</time>
      </trkpt>
      <trkpt lat="46.18889" lon="6.72406">
        <ele>1489.8</ele>
        <time>2021-06-26T10:22:37Z</time>
      </trkpt>
      <trkpt lat="46.18888" lon="6.72393">
        <ele>1489.4</ele>
        <time>2021-06-26T10:22:38Z</time>
      </trkpt>
      <trkpt lat="46.18887" lon="6.72378">
        <ele>1489.2</ele>
        <time>2021-06-26T10:22:39Z</time>
      </trkpt>
      <trkpt lat="46.18887" lon="6.72347">
        <ele>1488.4</ele>
        <time>2021-06-26T10:22:41Z</time>
      </trkpt>
      <trkpt lat="46.18887" lon="6.72331">
        <ele>1488</ele>
        <time>2021-06-26T10:22:42Z</time>
      </trkpt>
      <trkpt lat="46.18888" lon="6.72314">
        <ele>1487.6</ele>
        <time>2021-06-26T10:22:43Z</time>
      </trkpt>
      <trkpt lat="46.18889" lon="6.72296">
        <ele>1486.8</ele>
        <time>2021-06-26T10:22:44Z</time>
      </trkpt>
      <trkpt lat="46.18889" lon="6.72279">
        <ele>1486.4</ele>
        <time>2021-06-26T10:22:45Z</time>
      </trkpt>
      <trkpt lat="46.1889" lon="6.72242">
        <ele>1484</ele>
        <time>2021-06-26T10:22:47Z</time>
      </trkpt>
      <trkpt lat="46.18891" lon="6.72224">
        <ele>1482.8</ele>
        <time>2021-06-26T10:22:48Z</time>
      </trkpt>
      <trkpt lat="46.18894" lon="6.72206">
        <ele>1481.6</ele>
        <time>2021-06-26T10:22:49Z</time>
      </trkpt>
      <trkpt lat="46.18905" lon="6.72173">
        <ele>1479.6</ele>
        <time>2021-06-26T10:22:51Z</time>
      </trkpt>
      <trkpt lat="46.1891" lon="6.72157">
        <ele>1478.4</ele>
        <time>2021-06-26T10:22:52Z</time>
      </trkpt>
      <trkpt lat="46.18914" lon="6.7214">
        <ele>1476.6</ele>
        <time>2021-06-26T10:22:53Z</time>
      </trkpt>
      <trkpt lat="46.18914" lon="6.72122">
        <ele>1475</ele>
        <time>2021-06-26T10:22:54Z</time>
      </trkpt>
      <trkpt lat="46.18912" lon="6.72105">
        <ele>1475</ele>
        <time>2021-06-26T10:22:55Z</time>
      </trkpt>
      <trkpt lat="46.18911" lon="6.72087">
        <ele>1473.8</ele>
        <time>2021-06-26T10:22:56Z</time>
      </trkpt>
      <trkpt lat="46.18913" lon="6.7207">
        <ele>1472.6</ele>
        <time>2021-06-26T10:22:57Z</time>
      </trkpt>
      <trkpt lat="46.18918" lon="6.72053">
        <ele>1471.2</ele>
        <time>2021-06-26T10:22:58Z</time>
      </trkpt>
      <trkpt lat="46.18925" lon="6.72039">
        <ele>1469.6</ele>
        <time>2021-06-26T10:22:59Z</time>
      </trkpt>
      <trkpt lat="46.18934" lon="6.72028">
        <ele>1468.4</ele>
        <time>2021-06-26T10:23:00Z</time>
      </trkpt>
      <trkpt lat="46.18942" lon="6.72019">
        <ele>1467.2</ele>
        <time>2021-06-26T10:23:01Z</time>
      </trkpt>
      <trkpt lat="46.1895" lon="6.72011">
        <ele>1466.2</ele>
        <time>2021-06-26T10:23:02Z</time>
      </trkpt>
      <trkpt lat="46.18954" lon="6.72001">
        <ele>1464.6</ele>
        <time>2021-06-26T10:23:03Z</time>
      </trkpt>
      <trkpt lat="46.18955" lon="6.71991">
        <ele>1463.4</ele>
        <time>2021-06-26T10:23:04Z</time>
      </trkpt>
      <trkpt lat="46.18951" lon="6.71983">
        <ele>1462.2</ele>
        <time>2021-06-26T10:23:05Z</time>
      </trkpt>
      <trkpt lat="46.18945" lon="6.7198">
        <ele>1461</ele>
        <time>2021-06-26T10:23:06Z</time>
      </trkpt>
      <trkpt lat="46.18938" lon="6.71983">
        <ele>1459.8</ele>
        <time>2021-06-26T10:23:07Z</time>
      </trkpt>
      <trkpt lat="46.18931" lon="6.7199">
        <ele>1459</ele>
        <time>2021-06-26T10:23:08Z</time>
      </trkpt>
      <trkpt lat="46.18923" lon="6.71997">
        <ele>1458.6</ele>
        <time>2021-06-26T10:23:09Z</time>
      </trkpt>
      <trkpt lat="46.18915" lon="6.72005">
        <ele>1458.4</ele>
        <time>2021-06-26T10:23:10Z</time>
      </trkpt>
      <trkpt lat="46.18905" lon="6.72012">
        <ele>1458.2</ele>
        <time>2021-06-26T10:23:11Z</time>
      </trkpt>
      <trkpt lat="46.18895" lon="6.7202">
        <ele>1457.8</ele>
        <time>2021-06-26T10:23:12Z</time>
      </trkpt>
      <trkpt lat="46.18885" lon="6.72027">
        <ele>1457.8</ele>
        <time>2021-06-26T10:23:13Z</time>
      </trkpt>
      <trkpt lat="46.18875" lon="6.72036">
        <ele>1457.6</ele>
        <time>2021-06-26T10:23:14Z</time>
      </trkpt>
      <trkpt lat="46.18866" lon="6.72048">
        <ele>1457.6</ele>
        <time>2021-06-26T10:23:15Z</time>
      </trkpt>
      <trkpt lat="46.1886" lon="6.72062">
        <ele>1457.2</ele>
        <time>2021-06-26T10:23:16Z</time>
      </trkpt>
      <trkpt lat="46.18856" lon="6.72077">
        <ele>1457</ele>
        <time>2021-06-26T10:23:17Z</time>
      </trkpt>
      <trkpt lat="46.18855" lon="6.7209">
        <ele>1457</ele>
        <time>2021-06-26T10:23:18Z</time>
      </trkpt>
      <trkpt lat="46.18853" lon="6.72101">
        <ele>1456.2</ele>
        <time>2021-06-26T10:23:19Z</time>
      </trkpt>
      <trkpt lat="46.18849" lon="6.72108">
        <ele>1455.2</ele>
        <time>2021-06-26T10:23:20Z</time>
      </trkpt>
      <trkpt lat="46.18844" lon="6.7211">
        <ele>1454.2</ele>
        <time>2021-06-26T10:23:21Z</time>
      </trkpt>
      <trkpt lat="46.1884" lon="6.72105">
        <ele>1453.2</ele>
        <time>2021-06-26T10:23:22Z</time>
      </trkpt>
      <trkpt lat="46.18839" lon="6.72097">
        <ele>1452</ele>
        <time>2021-06-26T10:23:23Z</time>
      </trkpt>
      <trkpt lat="46.1884" lon="6.72086">
        <ele>1451</ele>
        <time>2021-06-26T10:23:24Z</time>
      </trkpt>
      <trkpt lat="46.18843" lon="6.72061">
        <ele>1449.8</ele>
        <time>2021-06-26T10:23:26Z</time>
      </trkpt>
      <trkpt lat="46.18843" lon="6.72048">
        <ele>1449.8</ele>
        <time>2021-06-26T10:23:27Z</time>
      </trkpt>
      <trkpt lat="46.18844" lon="6.72033">
        <ele>1449.4</ele>
        <time>2021-06-26T10:23:28Z</time>
      </trkpt>
      <trkpt lat="46.18846" lon="6.72018">
        <ele>1449</ele>
        <time>2021-06-26T10:23:29Z</time>
      </trkpt>
      <trkpt lat="46.1885" lon="6.72003">
        <ele>1448.8</ele>
        <time>2021-06-26T10:23:30Z</time>
      </trkpt>
      <trkpt lat="46.18855" lon="6.71988">
        <ele>1448.6</ele>
        <time>2021-06-26T10:23:31Z</time>
      </trkpt>
      <trkpt lat="46.18861" lon="6.71973">
        <ele>1448.2</ele>
        <time>2021-06-26T10:23:32Z</time>
      </trkpt>
      <trkpt lat="46.18876" lon="6.71947">
        <ele>1446.8</ele>
        <time>2021-06-26T10:23:34Z</time>
      </trkpt>
      <trkpt lat="46.18884" lon="6.71937">
        <ele>1445.8</ele>
        <time>2021-06-26T10:23:35Z</time>
      </trkpt>
      <trkpt lat="46.18892" lon="6.71928">
        <ele>1444.6</ele>
        <time>2021-06-26T10:23:36Z</time>
      </trkpt>
      <trkpt lat="46.18897" lon="6.71918">
        <ele>1443.2</ele>
        <time>2021-06-26T10:23:37Z</time>
      </trkpt>
      <trkpt lat="46.18897" lon="6.71907">
        <ele>1441.8</ele>
        <time>2021-06-26T10:23:38Z</time>
      </trkpt>
      <trkpt lat="46.18892" lon="6.71899">
        <ele>1440.6</ele>
        <time>2021-06-26T10:23:39Z</time>
      </trkpt>
      <trkpt lat="46.18885" lon="6.71897">
        <ele>1439.8</ele>
        <time>2021-06-26T10:23:40Z</time>
      </trkpt>
      <trkpt lat="46.18878" lon="6.719">
        <ele>1439.8</ele>
        <time>2021-06-26T10:23:41Z</time>
      </trkpt>
      <trkpt lat="46.1887" lon="6.71907">
        <ele>1438</ele>
        <time>2021-06-26T10:23:42Z</time>
      </trkpt>
      <trkpt lat="46.18863" lon="6.71916">
        <ele>1436.8</ele>
        <time>2021-06-26T10:23:43Z</time>
      </trkpt>
      <trkpt lat="46.18855" lon="6.71925">
        <ele>1436.2</ele>
        <time>2021-06-26T10:23:44Z</time>
      </trkpt>
      <trkpt lat="46.18846" lon="6.71934">
        <ele>1435.8</ele>
        <time>2021-06-26T10:23:45Z</time>
      </trkpt>
      <trkpt lat="46.18836" lon="6.71943">
        <ele>1435.4</ele>
        <time>2021-06-26T10:23:46Z</time>
      </trkpt>
      <trkpt lat="46.18826" lon="6.71952">
        <ele>1435</ele>
        <time>2021-06-26T10:23:47Z</time>
      </trkpt>
      <trkpt lat="46.18806" lon="6.7197">
        <ele>1434.4</ele>
        <time>2021-06-26T10:23:49Z</time>
      </trkpt>
      <trkpt lat="46.18796" lon="6.71982">
        <ele>1434.2</ele>
        <time>2021-06-26T10:23:50Z</time>
      </trkpt>
      <trkpt lat="46.18788" lon="6.71994">
        <ele>1433.6</ele>
        <time>2021-06-26T10:23:51Z</time>
      </trkpt>
      <trkpt lat="46.18781" lon="6.72009">
        <ele>1433.2</ele>
        <time>2021-06-26T10:23:52Z</time>
      </trkpt>
      <trkpt lat="46.18776" lon="6.72026">
        <ele>1432.2</ele>
        <time>2021-06-26T10:23:53Z</time>
      </trkpt>
      <trkpt lat="46.18773" lon="6.72043">
        <ele>1430.8</ele>
        <time>2021-06-26T10:23:54Z</time>
      </trkpt>
      <trkpt lat="46.18769" lon="6.7206">
        <ele>1429</ele>
        <time>2021-06-26T10:23:55Z</time>
      </trkpt>
      <trkpt lat="46.18765" lon="6.72078">
        <ele>1427.6</ele>
        <time>2021-06-26T10:23:56Z</time>
      </trkpt>
      <trkpt lat="46.18752" lon="6.72112">
        <ele>1425.4</ele>
        <time>2021-06-26T10:23:58Z</time>
      </trkpt>
      <trkpt lat="46.18746" lon="6.72129">
        <ele>1424.2</ele>
        <time>2021-06-26T10:23:59Z</time>
      </trkpt>
      <trkpt lat="46.18742" lon="6.72147">
        <ele>1423</ele>
        <time>2021-06-26T10:24:00Z</time>
      </trkpt>
      <trkpt lat="46.18738" lon="6.72166">
        <ele>1421.8</ele>
        <time>2021-06-26T10:24:01Z</time>
      </trkpt>
      <trkpt lat="46.18734" lon="6.72205">
        <ele>1419.6</ele>
        <time>2021-06-26T10:24:03Z</time>
      </trkpt>
      <trkpt lat="46.18728" lon="6.72265">
        <ele>1417.6</ele>
        <time>2021-06-26T10:24:06Z</time>
      </trkpt>
      <trkpt lat="46.18725" lon="6.72285">
        <ele>1416.6</ele>
        <time>2021-06-26T10:24:07Z</time>
      </trkpt>
      <trkpt lat="46.18723" lon="6.72305">
        <ele>1415.8</ele>
        <time>2021-06-26T10:24:08Z</time>
      </trkpt>
      <trkpt lat="46.18722" lon="6.72325">
        <ele>1414.8</ele>
        <time>2021-06-26T10:24:09Z</time>
      </trkpt>
      <trkpt lat="46.1872" lon="6.72345">
        <ele>1413.4</ele>
        <time>2021-06-26T10:24:10Z</time>
      </trkpt>
      <trkpt lat="46.1872" lon="6.72363">
        <ele>1412</ele>
        <time>2021-06-26T10:24:11Z</time>
      </trkpt>
      <trkpt lat="46.1872" lon="6.7238">
        <ele>1410.8</ele>
        <time>2021-06-26T10:24:12Z</time>
      </trkpt>
      <trkpt lat="46.1872" lon="6.72394">
        <ele>1409.6</ele>
        <time>2021-06-26T10:24:13Z</time>
      </trkpt>
      <trkpt lat="46.18721" lon="6.72406">
        <ele>1408.8</ele>
        <time>2021-06-26T10:24:14Z</time>
      </trkpt>
      <trkpt lat="46.18719" lon="6.72415">
        <ele>1408</ele>
        <time>2021-06-26T10:24:15Z</time>
      </trkpt>
      <trkpt lat="46.18714" lon="6.7242">
        <ele>1407</ele>
        <time>2021-06-26T10:24:16Z</time>
      </trkpt>
      <trkpt lat="46.1871" lon="6.72419">
        <ele>1405.8</ele>
        <time>2021-06-26T10:24:17Z</time>
      </trkpt>
      <trkpt lat="46.18706" lon="6.72412">
        <ele>1404.4</ele>
        <time>2021-06-26T10:24:18Z</time>
      </trkpt>
      <trkpt lat="46.18704" lon="6.72402">
        <ele>1403.4</ele>
        <time>2021-06-26T10:24:19Z</time>
      </trkpt>
      <trkpt lat="46.18704" lon="6.7239">
        <ele>1402.8</ele>
        <time>2021-06-26T10:24:20Z</time>
      </trkpt>
      <trkpt lat="46.18706" lon="6.72366">
        <ele>1402.2</ele>
        <time>2021-06-26T10:24:22Z</time>
      </trkpt>
      <trkpt lat="46.18706" lon="6.72353">
        <ele>1401.8</ele>
        <time>2021-06-26T10:24:23Z</time>
      </trkpt>
      <trkpt lat="46.18705" lon="6.72339">
        <ele>1401.6</ele>
        <time>2021-06-26T10:24:24Z</time>
      </trkpt>
      <trkpt lat="46.18702" lon="6.72295">
        <ele>1401.4</ele>
        <time>2021-06-26T10:24:27Z</time>
      </trkpt>
      <trkpt lat="46.18702" lon="6.72263">
        <ele>1400</ele>
        <time>2021-06-26T10:24:29Z</time>
      </trkpt>
      <trkpt lat="46.187" lon="6.7223">
        <ele>1398.2</ele>
        <time>2021-06-26T10:24:31Z</time>
      </trkpt>
      <trkpt lat="46.18696" lon="6.72213">
        <ele>1397.4</ele>
        <time>2021-06-26T10:24:32Z</time>
      </trkpt>
      <trkpt lat="46.18692" lon="6.72198">
        <ele>1395.8</ele>
        <time>2021-06-26T10:24:33Z</time>
      </trkpt>
      <trkpt lat="46.18686" lon="6.72183">
        <ele>1394.6</ele>
        <time>2021-06-26T10:24:34Z</time>
      </trkpt>
      <trkpt lat="46.18681" lon="6.72167">
        <ele>1393.6</ele>
        <time>2021-06-26T10:24:35Z</time>
      </trkpt>
      <trkpt lat="46.18669" lon="6.72134">
        <ele>1391.6</ele>
        <time>2021-06-26T10:24:37Z</time>
      </trkpt>
      <trkpt lat="46.18664" lon="6.72115">
        <ele>1390.8</ele>
        <time>2021-06-26T10:24:38Z</time>
      </trkpt>
      <trkpt lat="46.1866" lon="6.72095">
        <ele>1390.2</ele>
        <time>2021-06-26T10:24:39Z</time>
      </trkpt>
      <trkpt lat="46.18656" lon="6.72057">
        <ele>1387.8</ele>
        <time>2021-06-26T10:24:41Z</time>
      </trkpt>
      <trkpt lat="46.18655" lon="6.72038">
        <ele>1386.4</ele>
        <time>2021-06-26T10:24:42Z</time>
      </trkpt>
      <trkpt lat="46.18654" lon="6.72019">
        <ele>1385</ele>
        <time>2021-06-26T10:24:43Z</time>
      </trkpt>
      <trkpt lat="46.18653" lon="6.71999">
        <ele>1383.2</ele>
        <time>2021-06-26T10:24:44Z</time>
      </trkpt>
      <trkpt lat="46.18652" lon="6.7198">
        <ele>1382</ele>
        <time>2021-06-26T10:24:45Z</time>
      </trkpt>
      <trkpt lat="46.18651" lon="6.71961">
        <ele>1380.8</ele>
        <time>2021-06-26T10:24:46Z</time>
      </trkpt>
      <trkpt lat="46.1865" lon="6.71941">
        <ele>1379</ele>
        <time>2021-06-26T10:24:47Z</time>
      </trkpt>
      <trkpt lat="46.18652" lon="6.71884">
        <ele>1376</ele>
        <time>2021-06-26T10:24:50Z</time>
      </trkpt>
      <trkpt lat="46.18653" lon="6.71866">
        <ele>1374.8</ele>
        <time>2021-06-26T10:24:51Z</time>
      </trkpt>
      <trkpt lat="46.18655" lon="6.71847">
        <ele>1373.4</ele>
        <time>2021-06-26T10:24:52Z</time>
      </trkpt>
      <trkpt lat="46.18657" lon="6.71828">
        <ele>1372.4</ele>
        <time>2021-06-26T10:24:53Z</time>
      </trkpt>
      <trkpt lat="46.1866" lon="6.7181">
        <ele>1371.2</ele>
        <time>2021-06-26T10:24:54Z</time>
      </trkpt>
      <trkpt lat="46.18667" lon="6.71775">
        <ele>1368</ele>
        <time>2021-06-26T10:24:56Z</time>
      </trkpt>
      <trkpt lat="46.18672" lon="6.71757">
        <ele>1366.4</ele>
        <time>2021-06-26T10:24:57Z</time>
      </trkpt>
      <trkpt lat="46.1868" lon="6.71721">
        <ele>1364.2</ele>
        <time>2021-06-26T10:24:59Z</time>
      </trkpt>
      <trkpt lat="46.18685" lon="6.71704">
        <ele>1363</ele>
        <time>2021-06-26T10:25:00Z</time>
      </trkpt>
      <trkpt lat="46.18697" lon="6.71672">
        <ele>1361.2</ele>
        <time>2021-06-26T10:25:02Z</time>
      </trkpt>
      <trkpt lat="46.18704" lon="6.71659">
        <ele>1359.6</ele>
        <time>2021-06-26T10:25:03Z</time>
      </trkpt>
      <trkpt lat="46.18712" lon="6.71648">
        <ele>1358.6</ele>
        <time>2021-06-26T10:25:04Z</time>
      </trkpt>
      <trkpt lat="46.18717" lon="6.71638">
        <ele>1357.6</ele>
        <time>2021-06-26T10:25:05Z</time>
      </trkpt>
      <trkpt lat="46.1872" lon="6.71627">
        <ele>1356.2</ele>
        <time>2021-06-26T10:25:06Z</time>
      </trkpt>
      <trkpt lat="46.18718" lon="6.71616">
        <ele>1355.2</ele>
        <time>2021-06-26T10:25:07Z</time>
      </trkpt>
      <trkpt lat="46.18712" lon="6.7161">
        <ele>1353.8</ele>
        <time>2021-06-26T10:25:08Z</time>
      </trkpt>
      <trkpt lat="46.18705" lon="6.7161">
        <ele>1352.4</ele>
        <time>2021-06-26T10:25:09Z</time>
      </trkpt>
      <trkpt lat="46.18699" lon="6.71616">
        <ele>1351.4</ele>
        <time>2021-06-26T10:25:10Z</time>
      </trkpt>
      <trkpt lat="46.18694" lon="6.71625">
        <ele>1351</ele>
        <time>2021-06-26T10:25:11Z</time>
      </trkpt>
      <trkpt lat="46.18678" lon="6.71658">
        <ele>1350.4</ele>
        <time>2021-06-26T10:25:14Z</time>
      </trkpt>
      <trkpt lat="46.18672" lon="6.7167">
        <ele>1350.2</ele>
        <time>2021-06-26T10:25:15Z</time>
      </trkpt>
      <trkpt lat="46.18665" lon="6.71682">
        <ele>1350.2</ele>
        <time>2021-06-26T10:25:16Z</time>
      </trkpt>
      <trkpt lat="46.18658" lon="6.71695">
        <ele>1350</ele>
        <time>2021-06-26T10:25:17Z</time>
      </trkpt>
      <trkpt lat="46.1865" lon="6.71708">
        <ele>1349.8</ele>
        <time>2021-06-26T10:25:18Z</time>
      </trkpt>
      <trkpt lat="46.18642" lon="6.71722">
        <ele>1349.8</ele>
        <time>2021-06-26T10:25:19Z</time>
      </trkpt>
      <trkpt lat="46.18634" lon="6.71735">
        <ele>1349.6</ele>
        <time>2021-06-26T10:25:20Z</time>
      </trkpt>
      <trkpt lat="46.18626" lon="6.71749">
        <ele>1349.2</ele>
        <time>2021-06-26T10:25:21Z</time>
      </trkpt>
      <trkpt lat="46.18609" lon="6.71781">
        <ele>1348</ele>
        <time>2021-06-26T10:25:23Z</time>
      </trkpt>
      <trkpt lat="46.18591" lon="6.71813">
        <ele>1346.2</ele>
        <time>2021-06-26T10:25:25Z</time>
      </trkpt>
      <trkpt lat="46.18582" lon="6.7183">
        <ele>1345</ele>
        <time>2021-06-26T10:25:26Z</time>
      </trkpt>
      <trkpt lat="46.18573" lon="6.71846">
        <ele>1343.6</ele>
        <time>2021-06-26T10:25:27Z</time>
      </trkpt>
      <trkpt lat="46.18558" lon="6.71882">
        <ele>1340.4</ele>
        <time>2021-06-26T10:25:29Z</time>
      </trkpt>
      <trkpt lat="46.18551" lon="6.719">
        <ele>1339</ele>
        <time>2021-06-26T10:25:30Z</time>
      </trkpt>
      <trkpt lat="46.18545" lon="6.7192">
        <ele>1337.8</ele>
        <time>2021-06-26T10:25:31Z</time>
      </trkpt>
      <trkpt lat="46.18539" lon="6.7194">
        <ele>1336.6</ele>
        <time>2021-06-26T10:25:32Z</time>
      </trkpt>
      <trkpt lat="46.18534" lon="6.71958">
        <ele>1335.6</ele>
        <time>2021-06-26T10:25:33Z</time>
      </trkpt>
      <trkpt lat="46.18529" lon="6.71976">
        <ele>1334.4</ele>
        <time>2021-06-26T10:25:34Z</time>
      </trkpt>
      <trkpt lat="46.18526" lon="6.71992">
        <ele>1334.4</ele>
        <time>2021-06-26T10:25:35Z</time>
      </trkpt>
      <trkpt lat="46.18524" lon="6.72007">
        <ele>1332.8</ele>
        <time>2021-06-26T10:25:36Z</time>
      </trkpt>
      <trkpt lat="46.18522" lon="6.7202">
        <ele>1330.8</ele>
        <time>2021-06-26T10:25:37Z</time>
      </trkpt>
      <trkpt lat="46.1852" lon="6.72031">
        <ele>1329.4</ele>
        <time>2021-06-26T10:25:38Z</time>
      </trkpt>
      <trkpt lat="46.18518" lon="6.72039">
        <ele>1328.2</ele>
        <time>2021-06-26T10:25:39Z</time>
      </trkpt>
      <trkpt lat="46.18512" lon="6.72043">
        <ele>1327</ele>
        <time>2021-06-26T10:25:40Z</time>
      </trkpt>
      <trkpt lat="46.18507" lon="6.72041">
        <ele>1325.8</ele>
        <time>2021-06-26T10:25:41Z</time>
      </trkpt>
      <trkpt lat="46.18504" lon="6.72034">
        <ele>1324.2</ele>
        <time>2021-06-26T10:25:42Z</time>
      </trkpt>
      <trkpt lat="46.18503" lon="6.72024">
        <ele>1323.4</ele>
        <time>2021-06-26T10:25:43Z</time>
      </trkpt>
      <trkpt lat="46.18505" lon="6.72013">
        <ele>1322.8</ele>
        <time>2021-06-26T10:25:44Z</time>
      </trkpt>
      <trkpt lat="46.1851" lon="6.71988">
        <ele>1322.2</ele>
        <time>2021-06-26T10:25:46Z</time>
      </trkpt>
      <trkpt lat="46.18513" lon="6.71974">
        <ele>1322</ele>
        <time>2021-06-26T10:25:47Z</time>
      </trkpt>
      <trkpt lat="46.18515" lon="6.7196">
        <ele>1321.8</ele>
        <time>2021-06-26T10:25:48Z</time>
      </trkpt>
      <trkpt lat="46.18519" lon="6.7193">
        <ele>1321.2</ele>
        <time>2021-06-26T10:25:50Z</time>
      </trkpt>
      <trkpt lat="46.18521" lon="6.71913">
        <ele>1320.6</ele>
        <time>2021-06-26T10:25:51Z</time>
      </trkpt>
      <trkpt lat="46.18523" lon="6.71897">
        <ele>1320</ele>
        <time>2021-06-26T10:25:52Z</time>
      </trkpt>
      <trkpt lat="46.18525" lon="6.7188">
        <ele>1319.2</ele>
        <time>2021-06-26T10:25:53Z</time>
      </trkpt>
      <trkpt lat="46.18527" lon="6.71863">
        <ele>1318.4</ele>
        <time>2021-06-26T10:25:54Z</time>
      </trkpt>
      <trkpt lat="46.18529" lon="6.71846">
        <ele>1317.2</ele>
        <time>2021-06-26T10:25:55Z</time>
      </trkpt>
      <trkpt lat="46.18531" lon="6.71829">
        <ele>1316</ele>
        <time>2021-06-26T10:25:56Z</time>
      </trkpt>
      <trkpt lat="46.18533" lon="6.71811">
        <ele>1314.8</ele>
        <time>2021-06-26T10:25:57Z</time>
      </trkpt>
      <trkpt lat="46.18536" lon="6.71793">
        <ele>1314.8</ele>
        <time>2021-06-26T10:25:58Z</time>
      </trkpt>
      <trkpt lat="46.1854" lon="6.71757">
        <ele>1312.8</ele>
        <time>2021-06-26T10:26:00Z</time>
      </trkpt>
      <trkpt lat="46.18543" lon="6.71738">
        <ele>1311.6</ele>
        <time>2021-06-26T10:26:01Z</time>
      </trkpt>
      <trkpt lat="46.18545" lon="6.71718">
        <ele>1310.4</ele>
        <time>2021-06-26T10:26:02Z</time>
      </trkpt>
      <trkpt lat="46.18548" lon="6.71699">
        <ele>1309</ele>
        <time>2021-06-26T10:26:03Z</time>
      </trkpt>
      <trkpt lat="46.18552" lon="6.71681">
        <ele>1307.6</ele>
        <time>2021-06-26T10:26:04Z</time>
      </trkpt>
      <trkpt lat="46.18557" lon="6.71663">
        <ele>1306.2</ele>
        <time>2021-06-26T10:26:05Z</time>
      </trkpt>
      <trkpt lat="46.18563" lon="6.71645">
        <ele>1305</ele>
        <time>2021-06-26T10:26:06Z</time>
      </trkpt>
      <trkpt lat="46.18569" lon="6.71628">
        <ele>1303.2</ele>
        <time>2021-06-26T10:26:07Z</time>
      </trkpt>
      <trkpt lat="46.18576" lon="6.71611">
        <ele>1302.4</ele>
        <time>2021-06-26T10:26:08Z</time>
      </trkpt>
      <trkpt lat="46.18582" lon="6.71595">
        <ele>1301.2</ele>
        <time>2021-06-26T10:26:09Z</time>
      </trkpt>
      <trkpt lat="46.18589" lon="6.71578">
        <ele>1299.4</ele>
        <time>2021-06-26T10:26:10Z</time>
      </trkpt>
      <trkpt lat="46.18595" lon="6.71562">
        <ele>1298</ele>
        <time>2021-06-26T10:26:11Z</time>
      </trkpt>
      <trkpt lat="46.18602" lon="6.71545">
        <ele>1296.8</ele>
        <time>2021-06-26T10:26:12Z</time>
      </trkpt>
      <trkpt lat="46.18609" lon="6.71528">
        <ele>1295.6</ele>
        <time>2021-06-26T10:26:13Z</time>
      </trkpt>
      <trkpt lat="46.18622" lon="6.71494">
        <ele>1293.2</ele>
        <time>2021-06-26T10:26:15Z</time>
      </trkpt>
      <trkpt lat="46.18629" lon="6.71477">
        <ele>1292</ele>
        <time>2021-06-26T10:26:16Z</time>
      </trkpt>
      <trkpt lat="46.18636" lon="6.71461">
        <ele>1291</ele>
        <time>2021-06-26T10:26:17Z</time>
      </trkpt>
      <trkpt lat="46.18643" lon="6.71444">
        <ele>1289.6</ele>
        <time>2021-06-26T10:26:18Z</time>
      </trkpt>
      <trkpt lat="46.18651" lon="6.71428">
        <ele>1288.4</ele>
        <time>2021-06-26T10:26:19Z</time>
      </trkpt>
      <trkpt lat="46.1866" lon="6.71413">
        <ele>1287.2</ele>
        <time>2021-06-26T10:26:20Z</time>
      </trkpt>
      <trkpt lat="46.1868" lon="6.71388">
        <ele>1286.2</ele>
        <time>2021-06-26T10:26:22Z</time>
      </trkpt>
      <trkpt lat="46.18689" lon="6.71373">
        <ele>1285</ele>
        <time>2021-06-26T10:26:23Z</time>
      </trkpt>
      <trkpt lat="46.18696" lon="6.71358">
        <ele>1284</ele>
        <time>2021-06-26T10:26:24Z</time>
      </trkpt>
      <trkpt lat="46.18702" lon="6.71342">
        <ele>1282.8</ele>
        <time>2021-06-26T10:26:25Z</time>
      </trkpt>
      <trkpt lat="46.18708" lon="6.71326">
        <ele>1281.6</ele>
        <time>2021-06-26T10:26:26Z</time>
      </trkpt>
      <trkpt lat="46.18722" lon="6.71294">
        <ele>1279.4</ele>
        <time>2021-06-26T10:26:28Z</time>
      </trkpt>
      <trkpt lat="46.1873" lon="6.71278">
        <ele>1278.2</ele>
        <time>2021-06-26T10:26:29Z</time>
      </trkpt>
      <trkpt lat="46.18738" lon="6.71263">
        <ele>1276.6</ele>
        <time>2021-06-26T10:26:30Z</time>
      </trkpt>
      <trkpt lat="46.18746" lon="6.71249">
        <ele>1275.8</ele>
        <time>2021-06-26T10:26:31Z</time>
      </trkpt>
      <trkpt lat="46.18755" lon="6.71234">
        <ele>1274.6</ele>
        <time>2021-06-26T10:26:32Z</time>
      </trkpt>
      <trkpt lat="46.18773" lon="6.71206">
        <ele>1271.8</ele>
        <time>2021-06-26T10:26:34Z</time>
      </trkpt>
      <trkpt lat="46.18783" lon="6.71193">
        <ele>1270.2</ele>
        <time>2021-06-26T10:26:35Z</time>
      </trkpt>
      <trkpt lat="46.18793" lon="6.7118">
        <ele>1269.2</ele>
        <time>2021-06-26T10:26:36Z</time>
      </trkpt>
      <trkpt lat="46.18804" lon="6.71167">
        <ele>1268.4</ele>
        <time>2021-06-26T10:26:37Z</time>
      </trkpt>
      <trkpt lat="46.18814" lon="6.71155">
        <ele>1267.4</ele>
        <time>2021-06-26T10:26:38Z</time>
      </trkpt>
      <trkpt lat="46.18825" lon="6.71142">
        <ele>1266.4</ele>
        <time>2021-06-26T10:26:39Z</time>
      </trkpt>
      <trkpt lat="46.18835" lon="6.71129">
        <ele>1265.6</ele>
        <time>2021-06-26T10:26:40Z</time>
      </trkpt>
      <trkpt lat="46.18846" lon="6.71116">
        <ele>1264.4</ele>
        <time>2021-06-26T10:26:41Z</time>
      </trkpt>
      <trkpt lat="46.18857" lon="6.71103">
        <ele>1263.4</ele>
        <time>2021-06-26T10:26:42Z</time>
      </trkpt>
      <trkpt lat="46.18869" lon="6.71092">
        <ele>1262.2</ele>
        <time>2021-06-26T10:26:43Z</time>
      </trkpt>
      <trkpt lat="46.18894" lon="6.71075">
        <ele>1260.6</ele>
        <time>2021-06-26T10:26:45Z</time>
      </trkpt>
      <trkpt lat="46.18907" lon="6.71067">
        <ele>1259</ele>
        <time>2021-06-26T10:26:46Z</time>
      </trkpt>
      <trkpt lat="46.1892" lon="6.71062">
        <ele>1257.6</ele>
        <time>2021-06-26T10:26:47Z</time>
      </trkpt>
      <trkpt lat="46.18933" lon="6.7106">
        <ele>1256.2</ele>
        <time>2021-06-26T10:26:48Z</time>
      </trkpt>
      <trkpt lat="46.18945" lon="6.71061">
        <ele>1254.8</ele>
        <time>2021-06-26T10:26:49Z</time>
      </trkpt>
      <trkpt lat="46.18957" lon="6.71063">
        <ele>1253.4</ele>
        <time>2021-06-26T10:26:50Z</time>
      </trkpt>
      <trkpt lat="46.18966" lon="6.71067">
        <ele>1252</ele>
        <time>2021-06-26T10:26:51Z</time>
      </trkpt>
      <trkpt lat="46.18974" lon="6.71067">
        <ele>1250.4</ele>
        <time>2021-06-26T10:26:52Z</time>
      </trkpt>
      <trkpt lat="46.18979" lon="6.71061">
        <ele>1249.2</ele>
        <time>2021-06-26T10:26:53Z</time>
      </trkpt>
      <trkpt lat="46.18982" lon="6.71054">
        <ele>1248</ele>
        <time>2021-06-26T10:26:54Z</time>
      </trkpt>
      <trkpt lat="46.1898" lon="6.71046">
        <ele>1246.6</ele>
        <time>2021-06-26T10:26:55Z</time>
      </trkpt>
      <trkpt lat="46.18975" lon="6.71041">
        <ele>1245.4</ele>
        <time>2021-06-26T10:26:56Z</time>
      </trkpt>
      <trkpt lat="46.18967" lon="6.71038">
        <ele>1244.6</ele>
        <time>2021-06-26T10:26:57Z</time>
      </trkpt>
      <trkpt lat="46.18959" lon="6.71036">
        <ele>1244.2</ele>
        <time>2021-06-26T10:26:58Z</time>
      </trkpt>
      <trkpt lat="46.18949" lon="6.71033">
        <ele>1243.8</ele>
        <time>2021-06-26T10:26:59Z</time>
      </trkpt>
      <trkpt lat="46.1894" lon="6.71031">
        <ele>1243.6</ele>
        <time>2021-06-26T10:27:00Z</time>
      </trkpt>
      <trkpt lat="46.18929" lon="6.71028">
        <ele>1243.2</ele>
        <time>2021-06-26T10:27:01Z</time>
      </trkpt>
      <trkpt lat="46.18917" lon="6.71026">
        <ele>1243</ele>
        <time>2021-06-26T10:27:02Z</time>
      </trkpt>
      <trkpt lat="46.18892" lon="6.71026">
        <ele>1242.8</ele>
        <time>2021-06-26T10:27:04Z</time>
      </trkpt>
      <trkpt lat="46.18879" lon="6.71028">
        <ele>1242.6</ele>
        <time>2021-06-26T10:27:05Z</time>
      </trkpt>
      <trkpt lat="46.18852" lon="6.71036">
        <ele>1241.8</ele>
        <time>2021-06-26T10:27:07Z</time>
      </trkpt>
      <trkpt lat="46.18839" lon="6.71041">
        <ele>1240.8</ele>
        <time>2021-06-26T10:27:08Z</time>
      </trkpt>
      <trkpt lat="46.18826" lon="6.71047">
        <ele>1239.4</ele>
        <time>2021-06-26T10:27:09Z</time>
      </trkpt>
      <trkpt lat="46.18812" lon="6.71054">
        <ele>1238.2</ele>
        <time>2021-06-26T10:27:10Z</time>
      </trkpt>
      <trkpt lat="46.18799" lon="6.71062">
        <ele>1237</ele>
        <time>2021-06-26T10:27:11Z</time>
      </trkpt>
      <trkpt lat="46.18785" lon="6.71069">
        <ele>1235.6</ele>
        <time>2021-06-26T10:27:12Z</time>
      </trkpt>
      <trkpt lat="46.18772" lon="6.71077">
        <ele>1234.4</ele>
        <time>2021-06-26T10:27:13Z</time>
      </trkpt>
      <trkpt lat="46.18759" lon="6.71086">
        <ele>1233</ele>
        <time>2021-06-26T10:27:14Z</time>
      </trkpt>
      <trkpt lat="46.18745" lon="6.71097">
        <ele>1231.8</ele>
        <time>2021-06-26T10:27:15Z</time>
      </trkpt>
      <trkpt lat="46.18733" lon="6.71108">
        <ele>1230.6</ele>
        <time>2021-06-26T10:27:16Z</time>
      </trkpt>
      <trkpt lat="46.1872" lon="6.71119">
        <ele>1229.2</ele>
        <time>2021-06-26T10:27:17Z</time>
      </trkpt>
      <trkpt lat="46.18706" lon="6.7113">
        <ele>1227.6</ele>
        <time>2021-06-26T10:27:18Z</time>
      </trkpt>
      <trkpt lat="46.18693" lon="6.71139">
        <ele>1226</ele>
        <time>2021-06-26T10:27:19Z</time>
      </trkpt>
      <trkpt lat="46.1868" lon="6.7115">
        <ele>1224.4</ele>
        <time>2021-06-26T10:27:20Z</time>
      </trkpt>
      <trkpt lat="46.18667" lon="6.71161">
        <ele>1222.6</ele>
        <time>2021-06-26T10:27:21Z</time>
      </trkpt>
      <trkpt lat="46.18653" lon="6.71172">
        <ele>1221.2</ele>
        <time>2021-06-26T10:27:22Z</time>
      </trkpt>
      <trkpt lat="46.1864" lon="6.71184">
        <ele>1219.6</ele>
        <time>2021-06-26T10:27:23Z</time>
      </trkpt>
      <trkpt lat="46.18627" lon="6.71196">
        <ele>1218.2</ele>
        <time>2021-06-26T10:27:24Z</time>
      </trkpt>
      <trkpt lat="46.18614" lon="6.71209">
        <ele>1216.8</ele>
        <time>2021-06-26T10:27:25Z</time>
      </trkpt>
      <trkpt lat="46.18602" lon="6.71222">
        <ele>1215</ele>
        <time>2021-06-26T10:27:26Z</time>
      </trkpt>
      <trkpt lat="46.1859" lon="6.71235">
        <ele>1213.4</ele>
        <time>2021-06-26T10:27:27Z</time>
      </trkpt>
      <trkpt lat="46.18578" lon="6.71248">
        <ele>1211.6</ele>
        <time>2021-06-26T10:27:28Z</time>
      </trkpt>
      <trkpt lat="46.18567" lon="6.71261">
        <ele>1211.6</ele>
        <time>2021-06-26T10:27:29Z</time>
      </trkpt>
      <trkpt lat="46.18557" lon="6.71274">
        <ele>1210.2</ele>
        <time>2021-06-26T10:27:30Z</time>
      </trkpt>
      <trkpt lat="46.18549" lon="6.71288">
        <ele>1208.4</ele>
        <time>2021-06-26T10:27:31Z</time>
      </trkpt>
      <trkpt lat="46.18543" lon="6.713">
        <ele>1206.6</ele>
        <time>2021-06-26T10:27:32Z</time>
      </trkpt>
      <trkpt lat="46.18537" lon="6.71309">
        <ele>1205</ele>
        <time>2021-06-26T10:27:33Z</time>
      </trkpt>
      <trkpt lat="46.18531" lon="6.71312">
        <ele>1203.4</ele>
        <time>2021-06-26T10:27:34Z</time>
      </trkpt>
      <trkpt lat="46.18526" lon="6.71307">
        <ele>1202.2</ele>
        <time>2021-06-26T10:27:35Z</time>
      </trkpt>
      <trkpt lat="46.18526" lon="6.71301">
        <ele>1201.2</ele>
        <time>2021-06-26T10:27:36Z</time>
      </trkpt>
      <trkpt lat="46.1853" lon="6.71295">
        <ele>1200.8</ele>
        <time>2021-06-26T10:27:37Z</time>
      </trkpt>
      <trkpt lat="46.18534" lon="6.71287">
        <ele>1200</ele>
        <time>2021-06-26T10:27:38Z</time>
      </trkpt>
      <trkpt lat="46.18546" lon="6.71268">
        <ele>1198.4</ele>
        <time>2021-06-26T10:27:40Z</time>
      </trkpt>
      <trkpt lat="46.1856" lon="6.71248">
        <ele>1198</ele>
        <time>2021-06-26T10:27:42Z</time>
      </trkpt>
      <trkpt lat="46.18575" lon="6.71225">
        <ele>1197.2</ele>
        <time>2021-06-26T10:27:44Z</time>
      </trkpt>
      <trkpt lat="46.18583" lon="6.71212">
        <ele>1197</ele>
        <time>2021-06-26T10:27:45Z</time>
      </trkpt>
      <trkpt lat="46.18591" lon="6.71199">
        <ele>1196.4</ele>
        <time>2021-06-26T10:27:46Z</time>
      </trkpt>
      <trkpt lat="46.18599" lon="6.71185">
        <ele>1196</ele>
        <time>2021-06-26T10:27:47Z</time>
      </trkpt>
      <trkpt lat="46.18607" lon="6.71171">
        <ele>1195.4</ele>
        <time>2021-06-26T10:27:48Z</time>
      </trkpt>
      <trkpt lat="46.18615" lon="6.71157">
        <ele>1194.6</ele>
        <time>2021-06-26T10:27:49Z</time>
      </trkpt>
      <trkpt lat="46.18624" lon="6.71143">
        <ele>1193.8</ele>
        <time>2021-06-26T10:27:50Z</time>
      </trkpt>
      <trkpt lat="46.18634" lon="6.7113">
        <ele>1192.6</ele>
        <time>2021-06-26T10:27:51Z</time>
      </trkpt>
      <trkpt lat="46.18645" lon="6.71118">
        <ele>1192.6</ele>
        <time>2021-06-26T10:27:52Z</time>
      </trkpt>
      <trkpt lat="46.18656" lon="6.71106">
        <ele>1191.4</ele>
        <time>2021-06-26T10:27:53Z</time>
      </trkpt>
      <trkpt lat="46.18667" lon="6.71095">
        <ele>1190.4</ele>
        <time>2021-06-26T10:27:54Z</time>
      </trkpt>
      <trkpt lat="46.18687" lon="6.71076">
        <ele>1187.6</ele>
        <time>2021-06-26T10:27:56Z</time>
      </trkpt>
      <trkpt lat="46.18694" lon="6.71068">
        <ele>1186.2</ele>
        <time>2021-06-26T10:27:57Z</time>
      </trkpt>
      <trkpt lat="46.18698" lon="6.71059">
        <ele>1184.8</ele>
        <time>2021-06-26T10:27:58Z</time>
      </trkpt>
      <trkpt lat="46.18697" lon="6.7105">
        <ele>1183.2</ele>
        <time>2021-06-26T10:27:59Z</time>
      </trkpt>
      <trkpt lat="46.18692" lon="6.71045">
        <ele>1181.6</ele>
        <time>2021-06-26T10:28:00Z</time>
      </trkpt>
      <trkpt lat="46.1869" lon="6.71043">
        <ele>1180.2</ele>
        <time>2021-06-26T10:28:01Z</time>
      </trkpt>
      <trkpt lat="46.18684" lon="6.71047">
        <ele>1178.8</ele>
        <time>2021-06-26T10:28:02Z</time>
      </trkpt>
      <trkpt lat="46.18673" lon="6.7106">
        <ele>1177.8</ele>
        <time>2021-06-26T10:28:03Z</time>
      </trkpt>
      <trkpt lat="46.18653" lon="6.71078">
        <ele>1176.8</ele>
        <time>2021-06-26T10:28:05Z</time>
      </trkpt>
      <trkpt lat="46.18643" lon="6.71087">
        <ele>1176.4</ele>
        <time>2021-06-26T10:28:06Z</time>
      </trkpt>
      <trkpt lat="46.18633" lon="6.71097">
        <ele>1176.2</ele>
        <time>2021-06-26T10:28:07Z</time>
      </trkpt>
      <trkpt lat="46.18609" lon="6.71118">
        <ele>1176</ele>
        <time>2021-06-26T10:28:10Z</time>
      </trkpt>
      <trkpt lat="46.18603" lon="6.71116">
        <ele>1175.8</ele>
        <time>2021-06-26T10:28:11Z</time>
      </trkpt>
      <trkpt lat="46.18601" lon="6.7111">
        <ele>1175</ele>
        <time>2021-06-26T10:28:12Z</time>
      </trkpt>
      <trkpt lat="46.18603" lon="6.71102">
        <ele>1174.4</ele>
        <time>2021-06-26T10:28:13Z</time>
      </trkpt>
      <trkpt lat="46.18607" lon="6.71096">
        <ele>1174.4</ele>
        <time>2021-06-26T10:28:14Z</time>
      </trkpt>
      <trkpt lat="46.18613" lon="6.7109">
        <ele>1174</ele>
        <time>2021-06-26T10:28:15Z</time>
      </trkpt>
      <trkpt lat="46.1862" lon="6.71084">
        <ele>1173</ele>
        <time>2021-06-26T10:28:16Z</time>
      </trkpt>
      <trkpt lat="46.18627" lon="6.71077">
        <ele>1172</ele>
        <time>2021-06-26T10:28:17Z</time>
      </trkpt>
      <trkpt lat="46.18635" lon="6.71069">
        <ele>1171.4</ele>
        <time>2021-06-26T10:28:18Z</time>
      </trkpt>
      <trkpt lat="46.18649" lon="6.7105">
        <ele>1171</ele>
        <time>2021-06-26T10:28:20Z</time>
      </trkpt>
      <trkpt lat="46.18657" lon="6.7104">
        <ele>1170.8</ele>
        <time>2021-06-26T10:28:21Z</time>
      </trkpt>
      <trkpt lat="46.18664" lon="6.71029">
        <ele>1170.4</ele>
        <time>2021-06-26T10:28:22Z</time>
      </trkpt>
      <trkpt lat="46.18673" lon="6.71019">
        <ele>1169.8</ele>
        <time>2021-06-26T10:28:23Z</time>
      </trkpt>
      <trkpt lat="46.18682" lon="6.7101">
        <ele>1169</ele>
        <time>2021-06-26T10:28:24Z</time>
      </trkpt>
      <trkpt lat="46.18692" lon="6.71001">
        <ele>1168.2</ele>
        <time>2021-06-26T10:28:25Z</time>
      </trkpt>
      <trkpt lat="46.18703" lon="6.70995">
        <ele>1167.6</ele>
        <time>2021-06-26T10:28:26Z</time>
      </trkpt>
      <trkpt lat="46.18713" lon="6.70989">
        <ele>1166.6</ele>
        <time>2021-06-26T10:28:27Z</time>
      </trkpt>
      <trkpt lat="46.18721" lon="6.70982">
        <ele>1165.6</ele>
        <time>2021-06-26T10:28:28Z</time>
      </trkpt>
      <trkpt lat="46.18728" lon="6.70974">
        <ele>1164.8</ele>
        <time>2021-06-26T10:28:29Z</time>
      </trkpt>
      <trkpt lat="46.18733" lon="6.70968">
        <ele>1164</ele>
        <time>2021-06-26T10:28:30Z</time>
      </trkpt>
      <trkpt lat="46.18731" lon="6.70964">
        <ele>1163</ele>
        <time>2021-06-26T10:28:31Z</time>
      </trkpt>
      <trkpt lat="46.18726" lon="6.70964">
        <ele>1162.2</ele>
        <time>2021-06-26T10:28:32Z</time>
      </trkpt>
      <trkpt lat="46.18721" lon="6.70969">
        <ele>1160.8</ele>
        <time>2021-06-26T10:28:33Z</time>
      </trkpt>
      <trkpt lat="46.18714" lon="6.70975">
        <ele>1159.6</ele>
        <time>2021-06-26T10:28:34Z</time>
      </trkpt>
      <trkpt lat="46.18697" lon="6.70985">
        <ele>1158.2</ele>
        <time>2021-06-26T10:28:36Z</time>
      </trkpt>
      <trkpt lat="46.18678" lon="6.70993">
        <ele>1157.8</ele>
        <time>2021-06-26T10:28:38Z</time>
      </trkpt>
      <trkpt lat="46.18658" lon="6.70999">
        <ele>1157.4</ele>
        <time>2021-06-26T10:28:40Z</time>
      </trkpt>
      <trkpt lat="46.18648" lon="6.71003">
        <ele>1157.4</ele>
        <time>2021-06-26T10:28:41Z</time>
      </trkpt>
      <trkpt lat="46.18637" lon="6.71008">
        <ele>1157</ele>
        <time>2021-06-26T10:28:42Z</time>
      </trkpt>
      <trkpt lat="46.18626" lon="6.71015">
        <ele>1156.8</ele>
        <time>2021-06-26T10:28:43Z</time>
      </trkpt>
      <trkpt lat="46.18615" lon="6.71022">
        <ele>1156.4</ele>
        <time>2021-06-26T10:28:44Z</time>
      </trkpt>
      <trkpt lat="46.18604" lon="6.71031">
        <ele>1156.2</ele>
        <time>2021-06-26T10:28:45Z</time>
      </trkpt>
      <trkpt lat="46.18594" lon="6.71041">
        <ele>1155.4</ele>
        <time>2021-06-26T10:28:46Z</time>
      </trkpt>
      <trkpt lat="46.18585" lon="6.71053">
        <ele>1154.4</ele>
        <time>2021-06-26T10:28:47Z</time>
      </trkpt>
      <trkpt lat="46.1857" lon="6.71082">
        <ele>1153</ele>
        <time>2021-06-26T10:28:49Z</time>
      </trkpt>
      <trkpt lat="46.18564" lon="6.71098">
        <ele>1152</ele>
        <time>2021-06-26T10:28:50Z</time>
      </trkpt>
      <trkpt lat="46.18557" lon="6.71113">
        <ele>1151</ele>
        <time>2021-06-26T10:28:51Z</time>
      </trkpt>
      <trkpt lat="46.18549" lon="6.71127">
        <ele>1150</ele>
        <time>2021-06-26T10:28:52Z</time>
      </trkpt>
      <trkpt lat="46.1854" lon="6.71139">
        <ele>1149.2</ele>
        <time>2021-06-26T10:28:53Z</time>
      </trkpt>
      <trkpt lat="46.18529" lon="6.71148">
        <ele>1148</ele>
        <time>2021-06-26T10:28:54Z</time>
      </trkpt>
      <trkpt lat="46.18517" lon="6.71158">
        <ele>1147</ele>
        <time>2021-06-26T10:28:55Z</time>
      </trkpt>
      <trkpt lat="46.18504" lon="6.71168">
        <ele>1146</ele>
        <time>2021-06-26T10:28:56Z</time>
      </trkpt>
      <trkpt lat="46.18491" lon="6.71178">
        <ele>1145</ele>
        <time>2021-06-26T10:28:57Z</time>
      </trkpt>
      <trkpt lat="46.18478" lon="6.71188">
        <ele>1143.6</ele>
        <time>2021-06-26T10:28:58Z</time>
      </trkpt>
      <trkpt lat="46.18465" lon="6.71198">
        <ele>1142.4</ele>
        <time>2021-06-26T10:28:59Z</time>
      </trkpt>
      <trkpt lat="46.1844" lon="6.7122">
        <ele>1140.8</ele>
        <time>2021-06-26T10:29:01Z</time>
      </trkpt>
      <trkpt lat="46.18428" lon="6.71231">
        <ele>1139.8</ele>
        <time>2021-06-26T10:29:02Z</time>
      </trkpt>
      <trkpt lat="46.18406" lon="6.71254">
        <ele>1137.6</ele>
        <time>2021-06-26T10:29:04Z</time>
      </trkpt>
      <trkpt lat="46.18399" lon="6.71268">
        <ele>1136</ele>
        <time>2021-06-26T10:29:05Z</time>
      </trkpt>
      <trkpt lat="46.18395" lon="6.71282">
        <ele>1134.6</ele>
        <time>2021-06-26T10:29:06Z</time>
      </trkpt>
      <trkpt lat="46.18392" lon="6.71296">
        <ele>1133.2</ele>
        <time>2021-06-26T10:29:07Z</time>
      </trkpt>
      <trkpt lat="46.1839" lon="6.71307">
        <ele>1132</ele>
        <time>2021-06-26T10:29:08Z</time>
      </trkpt>
      <trkpt lat="46.18385" lon="6.71314">
        <ele>1130.4</ele>
        <time>2021-06-26T10:29:09Z</time>
      </trkpt>
      <trkpt lat="46.18379" lon="6.71315">
        <ele>1129.2</ele>
        <time>2021-06-26T10:29:10Z</time>
      </trkpt>
      <trkpt lat="46.18376" lon="6.71309">
        <ele>1127.6</ele>
        <time>2021-06-26T10:29:11Z</time>
      </trkpt>
      <trkpt lat="46.18376" lon="6.71301">
        <ele>1126.8</ele>
        <time>2021-06-26T10:29:12Z</time>
      </trkpt>
      <trkpt lat="46.18379" lon="6.71291">
        <ele>1126</ele>
        <time>2021-06-26T10:29:13Z</time>
      </trkpt>
      <trkpt lat="46.18383" lon="6.71281">
        <ele>1125.8</ele>
        <time>2021-06-26T10:29:14Z</time>
      </trkpt>
      <trkpt lat="46.18388" lon="6.71271">
        <ele>1125.6</ele>
        <time>2021-06-26T10:29:15Z</time>
      </trkpt>
      <trkpt lat="46.18392" lon="6.7126">
        <ele>1125.6</ele>
        <time>2021-06-26T10:29:16Z</time>
      </trkpt>
      <trkpt lat="46.18397" lon="6.71248">
        <ele>1125.4</ele>
        <time>2021-06-26T10:29:17Z</time>
      </trkpt>
      <trkpt lat="46.18402" lon="6.71235">
        <ele>1125.2</ele>
        <time>2021-06-26T10:29:18Z</time>
      </trkpt>
      <trkpt lat="46.1841" lon="6.71207">
        <ele>1125.2</ele>
        <time>2021-06-26T10:29:20Z</time>
      </trkpt>
      <trkpt lat="46.18422" lon="6.71178">
        <ele>1124.4</ele>
        <time>2021-06-26T10:29:22Z</time>
      </trkpt>
      <trkpt lat="46.1843" lon="6.71165">
        <ele>1124.4</ele>
        <time>2021-06-26T10:29:23Z</time>
      </trkpt>
      <trkpt lat="46.1844" lon="6.71154">
        <ele>1123.8</ele>
        <time>2021-06-26T10:29:24Z</time>
      </trkpt>
      <trkpt lat="46.1845" lon="6.71145">
        <ele>1122.6</ele>
        <time>2021-06-26T10:29:25Z</time>
      </trkpt>
      <trkpt lat="46.18461" lon="6.71136">
        <ele>1121.6</ele>
        <time>2021-06-26T10:29:26Z</time>
      </trkpt>
      <trkpt lat="46.18483" lon="6.71121">
        <ele>1119.4</ele>
        <time>2021-06-26T10:29:28Z</time>
      </trkpt>
      <trkpt lat="46.18493" lon="6.71115">
        <ele>1118.4</ele>
        <time>2021-06-26T10:29:29Z</time>
      </trkpt>
      <trkpt lat="46.18501" lon="6.71108">
        <ele>1116.4</ele>
        <time>2021-06-26T10:29:30Z</time>
      </trkpt>
      <trkpt lat="46.18506" lon="6.71099">
        <ele>1115.2</ele>
        <time>2021-06-26T10:29:31Z</time>
      </trkpt>
      <trkpt lat="46.18508" lon="6.71088">
        <ele>1114.2</ele>
        <time>2021-06-26T10:29:32Z</time>
      </trkpt>
      <trkpt lat="46.18502" lon="6.7108">
        <ele>1112.6</ele>
        <time>2021-06-26T10:29:33Z</time>
      </trkpt>
      <trkpt lat="46.18496" lon="6.71078">
        <ele>1111.6</ele>
        <time>2021-06-26T10:29:34Z</time>
      </trkpt>
      <trkpt lat="46.1849" lon="6.71082">
        <ele>1110.6</ele>
        <time>2021-06-26T10:29:35Z</time>
      </trkpt>
      <trkpt lat="46.18483" lon="6.71089">
        <ele>1109.8</ele>
        <time>2021-06-26T10:29:36Z</time>
      </trkpt>
      <trkpt lat="46.18477" lon="6.71097">
        <ele>1109</ele>
        <time>2021-06-26T10:29:37Z</time>
      </trkpt>
      <trkpt lat="46.1847" lon="6.71104">
        <ele>1108.4</ele>
        <time>2021-06-26T10:29:38Z</time>
      </trkpt>
      <trkpt lat="46.18461" lon="6.71109">
        <ele>1108.2</ele>
        <time>2021-06-26T10:29:39Z</time>
      </trkpt>
      <trkpt lat="46.18452" lon="6.71114">
        <ele>1108</ele>
        <time>2021-06-26T10:29:40Z</time>
      </trkpt>
      <trkpt lat="46.18441" lon="6.71118">
        <ele>1107.8</ele>
        <time>2021-06-26T10:29:41Z</time>
      </trkpt>
      <trkpt lat="46.18431" lon="6.71123">
        <ele>1107.8</ele>
        <time>2021-06-26T10:29:42Z</time>
      </trkpt>
      <trkpt lat="46.18408" lon="6.71133">
        <ele>1107.4</ele>
        <time>2021-06-26T10:29:44Z</time>
      </trkpt>
      <trkpt lat="46.18396" lon="6.7114">
        <ele>1107</ele>
        <time>2021-06-26T10:29:45Z</time>
      </trkpt>
      <trkpt lat="46.18385" lon="6.71149">
        <ele>1107</ele>
        <time>2021-06-26T10:29:46Z</time>
      </trkpt>
      <trkpt lat="46.18374" lon="6.7116">
        <ele>1106.4</ele>
        <time>2021-06-26T10:29:47Z</time>
      </trkpt>
      <trkpt lat="46.18366" lon="6.71174">
        <ele>1105.4</ele>
        <time>2021-06-26T10:29:48Z</time>
      </trkpt>
      <trkpt lat="46.1836" lon="6.7119">
        <ele>1104.2</ele>
        <time>2021-06-26T10:29:49Z</time>
      </trkpt>
      <trkpt lat="46.18356" lon="6.71207">
        <ele>1103.2</ele>
        <time>2021-06-26T10:29:50Z</time>
      </trkpt>
      <trkpt lat="46.18354" lon="6.71223">
        <ele>1102.2</ele>
        <time>2021-06-26T10:29:51Z</time>
      </trkpt>
      <trkpt lat="46.18351" lon="6.71235">
        <ele>1101.2</ele>
        <time>2021-06-26T10:29:52Z</time>
      </trkpt>
      <trkpt lat="46.18347" lon="6.71242">
        <ele>1100.2</ele>
        <time>2021-06-26T10:29:53Z</time>
      </trkpt>
      <trkpt lat="46.18341" lon="6.71244">
        <ele>1099.2</ele>
        <time>2021-06-26T10:29:54Z</time>
      </trkpt>
      <trkpt lat="46.18337" lon="6.7124">
        <ele>1098</ele>
        <time>2021-06-26T10:29:55Z</time>
      </trkpt>
      <trkpt lat="46.18335" lon="6.71231">
        <ele>1097</ele>
        <time>2021-06-26T10:29:56Z</time>
      </trkpt>
      <trkpt lat="46.18336" lon="6.71221">
        <ele>1096</ele>
        <time>2021-06-26T10:29:57Z</time>
      </trkpt>
      <trkpt lat="46.18339" lon="6.71211">
        <ele>1094.6</ele>
        <time>2021-06-26T10:29:58Z</time>
      </trkpt>
      <trkpt lat="46.18342" lon="6.71199">
        <ele>1093.8</ele>
        <time>2021-06-26T10:29:59Z</time>
      </trkpt>
      <trkpt lat="46.18345" lon="6.71187">
        <ele>1093.4</ele>
        <time>2021-06-26T10:30:00Z</time>
      </trkpt>
      <trkpt lat="46.18348" lon="6.71175">
        <ele>1092.6</ele>
        <time>2021-06-26T10:30:01Z</time>
      </trkpt>
      <trkpt lat="46.18353" lon="6.71162">
        <ele>1092.4</ele>
        <time>2021-06-26T10:30:02Z</time>
      </trkpt>
      <trkpt lat="46.18358" lon="6.7115">
        <ele>1092</ele>
        <time>2021-06-26T10:30:03Z</time>
      </trkpt>
      <trkpt lat="46.18371" lon="6.71125">
        <ele>1091.2</ele>
        <time>2021-06-26T10:30:05Z</time>
      </trkpt>
      <trkpt lat="46.18378" lon="6.71113">
        <ele>1090.6</ele>
        <time>2021-06-26T10:30:06Z</time>
      </trkpt>
      <trkpt lat="46.18386" lon="6.71101">
        <ele>1090.2</ele>
        <time>2021-06-26T10:30:07Z</time>
      </trkpt>
      <trkpt lat="46.18403" lon="6.71078">
        <ele>1089.4</ele>
        <time>2021-06-26T10:30:09Z</time>
      </trkpt>
      <trkpt lat="46.1842" lon="6.71055">
        <ele>1087.4</ele>
        <time>2021-06-26T10:30:11Z</time>
      </trkpt>
      <trkpt lat="46.18429" lon="6.71043">
        <ele>1086.4</ele>
        <time>2021-06-26T10:30:12Z</time>
      </trkpt>
      <trkpt lat="46.18447" lon="6.71017">
        <ele>1084.2</ele>
        <time>2021-06-26T10:30:14Z</time>
      </trkpt>
      <trkpt lat="46.18455" lon="6.71003">
        <ele>1083.2</ele>
        <time>2021-06-26T10:30:15Z</time>
      </trkpt>
      <trkpt lat="46.18464" lon="6.7099">
        <ele>1082.2</ele>
        <time>2021-06-26T10:30:16Z</time>
      </trkpt>
      <trkpt lat="46.18474" lon="6.70977">
        <ele>1081.4</ele>
        <time>2021-06-26T10:30:17Z</time>
      </trkpt>
      <trkpt lat="46.18484" lon="6.70964">
        <ele>1080.2</ele>
        <time>2021-06-26T10:30:18Z</time>
      </trkpt>
      <trkpt lat="46.18494" lon="6.70953">
        <ele>1079.6</ele>
        <time>2021-06-26T10:30:19Z</time>
      </trkpt>
      <trkpt lat="46.18515" lon="6.70934">
        <ele>1077.2</ele>
        <time>2021-06-26T10:30:21Z</time>
      </trkpt>
      <trkpt lat="46.18524" lon="6.70927">
        <ele>1076</ele>
        <time>2021-06-26T10:30:22Z</time>
      </trkpt>
      <trkpt lat="46.18529" lon="6.70917">
        <ele>1075</ele>
        <time>2021-06-26T10:30:23Z</time>
      </trkpt>
      <trkpt lat="46.18531" lon="6.70907">
        <ele>1073.6</ele>
        <time>2021-06-26T10:30:24Z</time>
      </trkpt>
      <trkpt lat="46.18527" lon="6.70897">
        <ele>1072.6</ele>
        <time>2021-06-26T10:30:25Z</time>
      </trkpt>
      <trkpt lat="46.18521" lon="6.70893">
        <ele>1071.4</ele>
        <time>2021-06-26T10:30:26Z</time>
      </trkpt>
      <trkpt lat="46.18514" lon="6.70894">
        <ele>1070.4</ele>
        <time>2021-06-26T10:30:27Z</time>
      </trkpt>
      <trkpt lat="46.18507" lon="6.709">
        <ele>1069.4</ele>
        <time>2021-06-26T10:30:28Z</time>
      </trkpt>
      <trkpt lat="46.18501" lon="6.70907">
        <ele>1068.6</ele>
        <time>2021-06-26T10:30:29Z</time>
      </trkpt>
      <trkpt lat="46.18494" lon="6.70915">
        <ele>1068.4</ele>
        <time>2021-06-26T10:30:30Z</time>
      </trkpt>
      <trkpt lat="46.18486" lon="6.70922">
        <ele>1068.4</ele>
        <time>2021-06-26T10:30:31Z</time>
      </trkpt>
      <trkpt lat="46.18477" lon="6.70928">
        <ele>1068.4</ele>
        <time>2021-06-26T10:30:32Z</time>
      </trkpt>
      <trkpt lat="46.18467" lon="6.70933">
        <ele>1068.2</ele>
        <time>2021-06-26T10:30:33Z</time>
      </trkpt>
      <trkpt lat="46.18457" lon="6.70939">
        <ele>1067.8</ele>
        <time>2021-06-26T10:30:34Z</time>
      </trkpt>
      <trkpt lat="46.18435" lon="6.70953">
        <ele>1067.6</ele>
        <time>2021-06-26T10:30:36Z</time>
      </trkpt>
      <trkpt lat="46.18424" lon="6.7096">
        <ele>1067.4</ele>
        <time>2021-06-26T10:30:37Z</time>
      </trkpt>
      <trkpt lat="46.18401" lon="6.70976">
        <ele>1066.4</ele>
        <time>2021-06-26T10:30:39Z</time>
      </trkpt>
      <trkpt lat="46.18377" lon="6.70995">
        <ele>1064.4</ele>
        <time>2021-06-26T10:30:41Z</time>
      </trkpt>
      <trkpt lat="46.18365" lon="6.71006">
        <ele>1063.6</ele>
        <time>2021-06-26T10:30:42Z</time>
      </trkpt>
      <trkpt lat="46.18354" lon="6.71017">
        <ele>1062.6</ele>
        <time>2021-06-26T10:30:43Z</time>
      </trkpt>
      <trkpt lat="46.18343" lon="6.71029">
        <ele>1061.4</ele>
        <time>2021-06-26T10:30:44Z</time>
      </trkpt>
      <trkpt lat="46.18321" lon="6.71056">
        <ele>1058.8</ele>
        <time>2021-06-26T10:30:46Z</time>
      </trkpt>
      <trkpt lat="46.1831" lon="6.71069">
        <ele>1057.8</ele>
        <time>2021-06-26T10:30:47Z</time>
      </trkpt>
      <trkpt lat="46.18298" lon="6.71082">
        <ele>1057</ele>
        <time>2021-06-26T10:30:48Z</time>
      </trkpt>
      <trkpt lat="46.18276" lon="6.71106">
        <ele>1055</ele>
        <time>2021-06-26T10:30:50Z</time>
      </trkpt>
      <trkpt lat="46.18265" lon="6.71116">
        <ele>1054</ele>
        <time>2021-06-26T10:30:51Z</time>
      </trkpt>
      <trkpt lat="46.18255" lon="6.71128">
        <ele>1052.8</ele>
        <time>2021-06-26T10:30:52Z</time>
      </trkpt>
      <trkpt lat="46.18246" lon="6.71142">
        <ele>1051.6</ele>
        <time>2021-06-26T10:30:53Z</time>
      </trkpt>
      <trkpt lat="46.18238" lon="6.71157">
        <ele>1051.6</ele>
        <time>2021-06-26T10:30:54Z</time>
      </trkpt>
      <trkpt lat="46.18231" lon="6.71173">
        <ele>1050.6</ele>
        <time>2021-06-26T10:30:55Z</time>
      </trkpt>
      <trkpt lat="46.18224" lon="6.71188">
        <ele>1049.2</ele>
        <time>2021-06-26T10:30:56Z</time>
      </trkpt>
      <trkpt lat="46.18216" lon="6.71201">
        <ele>1048</ele>
        <time>2021-06-26T10:30:57Z</time>
      </trkpt>
      <trkpt lat="46.1821" lon="6.71215">
        <ele>1046.6</ele>
        <time>2021-06-26T10:30:58Z</time>
      </trkpt>
      <trkpt lat="46.18204" lon="6.71229">
        <ele>1045.6</ele>
        <time>2021-06-26T10:30:59Z</time>
      </trkpt>
      <trkpt lat="46.182" lon="6.71244">
        <ele>1044.2</ele>
        <time>2021-06-26T10:31:00Z</time>
      </trkpt>
      <trkpt lat="46.18197" lon="6.71259">
        <ele>1043.2</ele>
        <time>2021-06-26T10:31:01Z</time>
      </trkpt>
      <trkpt lat="46.18194" lon="6.71273">
        <ele>1042.2</ele>
        <time>2021-06-26T10:31:02Z</time>
      </trkpt>
      <trkpt lat="46.18192" lon="6.71286">
        <ele>1041.2</ele>
        <time>2021-06-26T10:31:03Z</time>
      </trkpt>
      <trkpt lat="46.18191" lon="6.71299">
        <ele>1039.8</ele>
        <time>2021-06-26T10:31:04Z</time>
      </trkpt>
      <trkpt lat="46.1819" lon="6.7131">
        <ele>1038.8</ele>
        <time>2021-06-26T10:31:05Z</time>
      </trkpt>
      <trkpt lat="46.18188" lon="6.71318">
        <ele>1038</ele>
        <time>2021-06-26T10:31:06Z</time>
      </trkpt>
      <trkpt lat="46.18188" lon="6.71325">
        <ele>1037</ele>
        <time>2021-06-26T10:31:07Z</time>
      </trkpt>
      <trkpt lat="46.18187" lon="6.71331">
        <ele>1036</ele>
        <time>2021-06-26T10:31:08Z</time>
      </trkpt>
      <trkpt lat="46.18187" lon="6.71337">
        <ele>1035</ele>
        <time>2021-06-26T10:31:09Z</time>
      </trkpt>
      <trkpt lat="46.18186" lon="6.71343">
        <ele>1034.2</ele>
        <time>2021-06-26T10:31:10Z</time>
      </trkpt>
      <trkpt lat="46.18185" lon="6.71349">
        <ele>1033.6</ele>
        <time>2021-06-26T10:31:11Z</time>
      </trkpt>
      <trkpt lat="46.18185" lon="6.71356">
        <ele>1033.2</ele>
        <time>2021-06-26T10:31:12Z</time>
      </trkpt>
      <trkpt lat="46.18183" lon="6.71371">
        <ele>1032.2</ele>
        <time>2021-06-26T10:31:14Z</time>
      </trkpt>
      <trkpt lat="46.18181" lon="6.71378">
        <ele>1031.8</ele>
        <time>2021-06-26T10:31:15Z</time>
      </trkpt>
      <trkpt lat="46.18179" lon="6.71383">
        <ele>1031.6</ele>
        <time>2021-06-26T10:31:16Z</time>
      </trkpt>
      <trkpt lat="46.18177" lon="6.71387">
        <ele>1031.6</ele>
        <time>2021-06-26T10:31:17Z</time>
      </trkpt>
      <trkpt lat="46.18175" lon="6.7139">
        <ele>1031.6</ele>
        <time>2021-06-26T10:31:18Z</time>
      </trkpt>
      <trkpt lat="46.18174" lon="6.71392">
        <ele>1031.2</ele>
        <time>2021-06-26T10:31:19Z</time>
      </trkpt>
      <trkpt lat="46.18173" lon="6.71394">
        <ele>1030.8</ele>
        <time>2021-06-26T10:31:20Z</time>
      </trkpt>
      <trkpt lat="46.18173" lon="6.71394">
        <ele>1030.4</ele>
        <time>2021-06-26T10:31:21Z</time>
      </trkpt>
      <trkpt lat="46.18174" lon="6.71394">
        <ele>1029.4</ele>
        <time>2021-06-26T10:31:23Z</time>
      </trkpt>
      <trkpt lat="46.18177" lon="6.71393">
        <ele>1027.8</ele>
        <time>2021-06-26T10:31:41Z</time>
      </trkpt>
      <trkpt lat="46.18176" lon="6.71393">
        <ele>1027.8</ele>
        <time>2021-06-26T10:31:53Z</time>
      </trkpt>
      <trkpt lat="46.18177" lon="6.71394">
        <ele>1027.8</ele>
        <time>2021-06-26T10:31:56Z</time>
      </trkpt>
      <trkpt lat="46.18177" lon="6.71394">
        <ele>1027.6</ele>
        <time>2021-06-26T10:31:59Z</time>
      </trkpt>
      <trkpt lat="46.18176" lon="6.71396">
        <ele>1027.6</ele>
        <time>2021-06-26T10:32:09Z</time>
      </trkpt>
      <trkpt lat="46.18174" lon="6.71401">
        <ele>1027.4</ele>
        <time>2021-06-26T10:32:11Z</time>
      </trkpt>
      <trkpt lat="46.18173" lon="6.71403">
        <ele>1027.6</ele>
        <time>2021-06-26T10:32:12Z</time>
      </trkpt>
      <trkpt lat="46.18171" lon="6.71405">
        <ele>1027.4</ele>
        <time>2021-06-26T10:32:13Z</time>
      </trkpt>
      <trkpt lat="46.18171" lon="6.71406">
        <ele>1027.6</ele>
        <time>2021-06-26T10:32:14Z</time>
      </trkpt>
      <trkpt lat="46.1817" lon="6.71406">
        <ele>1027.2</ele>
        <time>2021-06-26T10:32:18Z</time>
      </trkpt>
      <trkpt lat="46.18165" lon="6.71414">
        <ele>1026.8</ele>
        <time>2021-06-26T10:32:22Z</time>
      </trkpt>
      <trkpt lat="46.18163" lon="6.71417">
        <ele>1026.8</ele>
        <time>2021-06-26T10:32:23Z</time>
      </trkpt>
      <trkpt lat="46.18153" lon="6.71433">
        <ele>1026.6</ele>
        <time>2021-06-26T10:32:27Z</time>
      </trkpt>
      <trkpt lat="46.18152" lon="6.71438">
        <ele>1026.4</ele>
        <time>2021-06-26T10:32:28Z</time>
      </trkpt>
      <trkpt lat="46.1815" lon="6.71443">
        <ele>1026.6</ele>
        <time>2021-06-26T10:32:29Z</time>
      </trkpt>
      <trkpt lat="46.18149" lon="6.71449">
        <ele>1026.4</ele>
        <time>2021-06-26T10:32:30Z</time>
      </trkpt>
      <trkpt lat="46.18148" lon="6.71456">
        <ele>1026</ele>
        <time>2021-06-26T10:32:31Z</time>
      </trkpt>
      <trkpt lat="46.18146" lon="6.71463">
        <ele>1025.8</ele>
        <time>2021-06-26T10:32:32Z</time>
      </trkpt>
      <trkpt lat="46.18143" lon="6.7149">
        <ele>1024.6</ele>
        <time>2021-06-26T10:32:35Z</time>
      </trkpt>
      <trkpt lat="46.18142" lon="6.715">
        <ele>1024.4</ele>
        <time>2021-06-26T10:32:36Z</time>
      </trkpt>
      <trkpt lat="46.18143" lon="6.71521">
        <ele>1023.6</ele>
        <time>2021-06-26T10:32:38Z</time>
      </trkpt>
      <trkpt lat="46.18145" lon="6.71542">
        <ele>1022.6</ele>
        <time>2021-06-26T10:32:40Z</time>
      </trkpt>
      <trkpt lat="46.18145" lon="6.71553">
        <ele>1021.8</ele>
        <time>2021-06-26T10:32:41Z</time>
      </trkpt>
      <trkpt lat="46.18146" lon="6.71563">
        <ele>1021.4</ele>
        <time>2021-06-26T10:32:42Z</time>
      </trkpt>
      <trkpt lat="46.18147" lon="6.71572">
        <ele>1020.8</ele>
        <time>2021-06-26T10:32:43Z</time>
      </trkpt>
      <trkpt lat="46.18147" lon="6.71581">
        <ele>1020.2</ele>
        <time>2021-06-26T10:32:44Z</time>
      </trkpt>
      <trkpt lat="46.18147" lon="6.71589">
        <ele>1019.8</ele>
        <time>2021-06-26T10:32:45Z</time>
      </trkpt>
      <trkpt lat="46.18146" lon="6.71596">
        <ele>1019.6</ele>
        <time>2021-06-26T10:32:46Z</time>
      </trkpt>
      <trkpt lat="46.18144" lon="6.71603">
        <ele>1018.8</ele>
        <time>2021-06-26T10:32:47Z</time>
      </trkpt>
      <trkpt lat="46.18142" lon="6.71609">
        <ele>1018.8</ele>
        <time>2021-06-26T10:32:48Z</time>
      </trkpt>
      <trkpt lat="46.18137" lon="6.71613">
        <ele>1018.2</ele>
        <time>2021-06-26T10:32:49Z</time>
      </trkpt>
      <trkpt lat="46.18133" lon="6.71615">
        <ele>1017.2</ele>
        <time>2021-06-26T10:32:50Z</time>
      </trkpt>
      <trkpt lat="46.18129" lon="6.71617">
        <ele>1016.2</ele>
        <time>2021-06-26T10:32:51Z</time>
      </trkpt>
      <trkpt lat="46.18125" lon="6.71617">
        <ele>1015.6</ele>
        <time>2021-06-26T10:32:52Z</time>
      </trkpt>
      <trkpt lat="46.18122" lon="6.71616">
        <ele>1015</ele>
        <time>2021-06-26T10:32:53Z</time>
      </trkpt>
      <trkpt lat="46.1812" lon="6.71612">
        <ele>1014.6</ele>
        <time>2021-06-26T10:32:54Z</time>
      </trkpt>
      <trkpt lat="46.18119" lon="6.71606">
        <ele>1014.2</ele>
        <time>2021-06-26T10:32:55Z</time>
      </trkpt>
      <trkpt lat="46.18118" lon="6.71601">
        <ele>1014</ele>
        <time>2021-06-26T10:32:56Z</time>
      </trkpt>
      <trkpt lat="46.18118" lon="6.71595">
        <ele>1013.4</ele>
        <time>2021-06-26T10:32:57Z</time>
      </trkpt>
      <trkpt lat="46.18118" lon="6.71588">
        <ele>1013</ele>
        <time>2021-06-26T10:32:58Z</time>
      </trkpt>
      <trkpt lat="46.18117" lon="6.71574">
        <ele>1012.6</ele>
        <time>2021-06-26T10:33:00Z</time>
      </trkpt>
      <trkpt lat="46.18114" lon="6.71567">
        <ele>1012.4</ele>
        <time>2021-06-26T10:33:01Z</time>
      </trkpt>
      <trkpt lat="46.18111" lon="6.71561">
        <ele>1012.2</ele>
        <time>2021-06-26T10:33:02Z</time>
      </trkpt>
      <trkpt lat="46.18106" lon="6.71556">
        <ele>1011.8</ele>
        <time>2021-06-26T10:33:03Z</time>
      </trkpt>
      <trkpt lat="46.18101" lon="6.71552">
        <ele>1011.6</ele>
        <time>2021-06-26T10:33:04Z</time>
      </trkpt>
      <trkpt lat="46.18096" lon="6.71547">
        <ele>1011.4</ele>
        <time>2021-06-26T10:33:05Z</time>
      </trkpt>
      <trkpt lat="46.18092" lon="6.71543">
        <ele>1011</ele>
        <time>2021-06-26T10:33:06Z</time>
      </trkpt>
      <trkpt lat="46.18088" lon="6.71539">
        <ele>1010.8</ele>
        <time>2021-06-26T10:33:07Z</time>
      </trkpt>
      <trkpt lat="46.18084" lon="6.71535">
        <ele>1010.4</ele>
        <time>2021-06-26T10:33:08Z</time>
      </trkpt>
      <trkpt lat="46.1808" lon="6.7153">
        <ele>1010</ele>
        <time>2021-06-26T10:33:09Z</time>
      </trkpt>
      <trkpt lat="46.18075" lon="6.71525">
        <ele>1010</ele>
        <time>2021-06-26T10:33:10Z</time>
      </trkpt>
      <trkpt lat="46.1807" lon="6.7152">
        <ele>1009.4</ele>
        <time>2021-06-26T10:33:11Z</time>
      </trkpt>
      <trkpt lat="46.18059" lon="6.71507">
        <ele>1008.4</ele>
        <time>2021-06-26T10:33:13Z</time>
      </trkpt>
      <trkpt lat="46.18049" lon="6.71493">
        <ele>1007</ele>
        <time>2021-06-26T10:33:15Z</time>
      </trkpt>
      <trkpt lat="46.18037" lon="6.71478">
        <ele>1006</ele>
        <time>2021-06-26T10:33:17Z</time>
      </trkpt>
      <trkpt lat="46.18032" lon="6.7147">
        <ele>1005.6</ele>
        <time>2021-06-26T10:33:18Z</time>
      </trkpt>
      <trkpt lat="46.18027" lon="6.71461">
        <ele>1005.2</ele>
        <time>2021-06-26T10:33:19Z</time>
      </trkpt>
      <trkpt lat="46.18023" lon="6.7145">
        <ele>1004.6</ele>
        <time>2021-06-26T10:33:20Z</time>
      </trkpt>
      <trkpt lat="46.1802" lon="6.71439">
        <ele>1003.6</ele>
        <time>2021-06-26T10:33:21Z</time>
      </trkpt>
      <trkpt lat="46.18017" lon="6.71427">
        <ele>1003.2</ele>
        <time>2021-06-26T10:33:22Z</time>
      </trkpt>
      <trkpt lat="46.18016" lon="6.71413">
        <ele>1002.4</ele>
        <time>2021-06-26T10:33:23Z</time>
      </trkpt>
      <trkpt lat="46.18014" lon="6.714">
        <ele>1002</ele>
        <time>2021-06-26T10:33:24Z</time>
      </trkpt>
      <trkpt lat="46.18008" lon="6.71362">
        <ele>999.8</ele>
        <time>2021-06-26T10:33:27Z</time>
      </trkpt>
      <trkpt lat="46.18003" lon="6.7134">
        <ele>999</ele>
        <time>2021-06-26T10:33:29Z</time>
      </trkpt>
      <trkpt lat="46.18001" lon="6.71331">
        <ele>998.4</ele>
        <time>2021-06-26T10:33:30Z</time>
      </trkpt>
      <trkpt lat="46.17999" lon="6.71323">
        <ele>997.4</ele>
        <time>2021-06-26T10:33:31Z</time>
      </trkpt>
      <trkpt lat="46.17997" lon="6.71316">
        <ele>996.8</ele>
        <time>2021-06-26T10:33:32Z</time>
      </trkpt>
      <trkpt lat="46.17997" lon="6.71311">
        <ele>996.8</ele>
        <time>2021-06-26T10:33:33Z</time>
      </trkpt>
      <trkpt lat="46.17996" lon="6.71307">
        <ele>996.2</ele>
        <time>2021-06-26T10:33:34Z</time>
      </trkpt>
      <trkpt lat="46.17996" lon="6.71306">
        <ele>995.8</ele>
        <time>2021-06-26T10:33:35Z</time>
      </trkpt>
      <trkpt lat="46.17995" lon="6.71305">
        <ele>995</ele>
        <time>2021-06-26T10:33:36Z</time>
      </trkpt>
      <trkpt lat="46.17995" lon="6.71305">
        <ele>994.8</ele>
        <time>2021-06-26T10:33:37Z</time>
      </trkpt>
      <trkpt lat="46.17994" lon="6.71304">
        <ele>994.4</ele>
        <time>2021-06-26T10:33:42Z</time>
      </trkpt>
      <trkpt lat="46.17991" lon="6.71299">
        <ele>994.4</ele>
        <time>2021-06-26T10:33:44Z</time>
      </trkpt>
      <trkpt lat="46.1799" lon="6.71293">
        <ele>994.2</ele>
        <time>2021-06-26T10:33:46Z</time>
      </trkpt>
      <trkpt lat="46.17989" lon="6.71288">
        <ele>994.2</ele>
        <time>2021-06-26T10:33:47Z</time>
      </trkpt>
      <trkpt lat="46.17989" lon="6.71284">
        <ele>994.2</ele>
        <time>2021-06-26T10:33:48Z</time>
      </trkpt>
      <trkpt lat="46.17989" lon="6.71272">
        <ele>994.2</ele>
        <time>2021-06-26T10:33:50Z</time>
      </trkpt>
      <trkpt lat="46.17991" lon="6.71265">
        <ele>994.4</ele>
        <time>2021-06-26T10:33:51Z</time>
      </trkpt>
      <trkpt lat="46.17992" lon="6.71257">
        <ele>994.2</ele>
        <time>2021-06-26T10:33:52Z</time>
      </trkpt>
      <trkpt lat="46.17993" lon="6.71249">
        <ele>994.2</ele>
        <time>2021-06-26T10:33:53Z</time>
      </trkpt>
      <trkpt lat="46.17994" lon="6.7124">
        <ele>994</ele>
        <time>2021-06-26T10:33:54Z</time>
      </trkpt>
      <trkpt lat="46.17995" lon="6.7123">
        <ele>993.8</ele>
        <time>2021-06-26T10:33:55Z</time>
      </trkpt>
      <trkpt lat="46.17996" lon="6.7122">
        <ele>993.8</ele>
        <time>2021-06-26T10:33:56Z</time>
      </trkpt>
      <trkpt lat="46.17996" lon="6.71209">
        <ele>993.4</ele>
        <time>2021-06-26T10:33:57Z</time>
      </trkpt>
      <trkpt lat="46.17994" lon="6.71162">
        <ele>991.6</ele>
        <time>2021-06-26T10:34:01Z</time>
      </trkpt>
      <trkpt lat="46.17994" lon="6.7115">
        <ele>991</ele>
        <time>2021-06-26T10:34:02Z</time>
      </trkpt>
      <trkpt lat="46.17994" lon="6.71137">
        <ele>990</ele>
        <time>2021-06-26T10:34:03Z</time>
      </trkpt>
      <trkpt lat="46.17993" lon="6.71099">
        <ele>986.8</ele>
        <time>2021-06-26T10:34:06Z</time>
      </trkpt>
      <trkpt lat="46.17994" lon="6.71086">
        <ele>985.8</ele>
        <time>2021-06-26T10:34:07Z</time>
      </trkpt>
      <trkpt lat="46.17999" lon="6.7106">
        <ele>984.8</ele>
        <time>2021-06-26T10:34:09Z</time>
      </trkpt>
      <trkpt lat="46.18003" lon="6.71034">
        <ele>982.6</ele>
        <time>2021-06-26T10:34:11Z</time>
      </trkpt>
      <trkpt lat="46.18004" lon="6.71023">
        <ele>981.2</ele>
        <time>2021-06-26T10:34:12Z</time>
      </trkpt>
      <trkpt lat="46.18004" lon="6.71012">
        <ele>980.4</ele>
        <time>2021-06-26T10:34:13Z</time>
      </trkpt>
      <trkpt lat="46.18003" lon="6.71001">
        <ele>979.8</ele>
        <time>2021-06-26T10:34:14Z</time>
      </trkpt>
      <trkpt lat="46.18001" lon="6.70991">
        <ele>979</ele>
        <time>2021-06-26T10:34:15Z</time>
      </trkpt>
      <trkpt lat="46.17999" lon="6.70982">
        <ele>977.8</ele>
        <time>2021-06-26T10:34:16Z</time>
      </trkpt>
      <trkpt lat="46.17996" lon="6.70972">
        <ele>976.8</ele>
        <time>2021-06-26T10:34:17Z</time>
      </trkpt>
      <trkpt lat="46.17993" lon="6.70964">
        <ele>976</ele>
        <time>2021-06-26T10:34:18Z</time>
      </trkpt>
      <trkpt lat="46.1799" lon="6.70955">
        <ele>976</ele>
        <time>2021-06-26T10:34:19Z</time>
      </trkpt>
      <trkpt lat="46.17987" lon="6.70947">
        <ele>975.6</ele>
        <time>2021-06-26T10:34:20Z</time>
      </trkpt>
      <trkpt lat="46.17984" lon="6.70941">
        <ele>975.2</ele>
        <time>2021-06-26T10:34:21Z</time>
      </trkpt>
      <trkpt lat="46.17981" lon="6.70935">
        <ele>974.6</ele>
        <time>2021-06-26T10:34:22Z</time>
      </trkpt>
      <trkpt lat="46.17977" lon="6.7093">
        <ele>974.6</ele>
        <time>2021-06-26T10:34:23Z</time>
      </trkpt>
      <trkpt lat="46.17973" lon="6.70926">
        <ele>973.2</ele>
        <time>2021-06-26T10:34:24Z</time>
      </trkpt>
      <trkpt lat="46.17968" lon="6.70924">
        <ele>972</ele>
        <time>2021-06-26T10:34:25Z</time>
      </trkpt>
      <trkpt lat="46.17964" lon="6.70922">
        <ele>971.4</ele>
        <time>2021-06-26T10:34:26Z</time>
      </trkpt>
      <trkpt lat="46.17959" lon="6.70921">
        <ele>970.8</ele>
        <time>2021-06-26T10:34:27Z</time>
      </trkpt>
      <trkpt lat="46.17955" lon="6.7092">
        <ele>970.2</ele>
        <time>2021-06-26T10:34:28Z</time>
      </trkpt>
      <trkpt lat="46.17951" lon="6.70919">
        <ele>970</ele>
        <time>2021-06-26T10:34:29Z</time>
      </trkpt>
      <trkpt lat="46.17947" lon="6.70918">
        <ele>969</ele>
        <time>2021-06-26T10:34:30Z</time>
      </trkpt>
      <trkpt lat="46.17944" lon="6.70917">
        <ele>968.6</ele>
        <time>2021-06-26T10:34:31Z</time>
      </trkpt>
      <trkpt lat="46.17942" lon="6.70915">
        <ele>968.4</ele>
        <time>2021-06-26T10:34:32Z</time>
      </trkpt>
      <trkpt lat="46.1794" lon="6.70912">
        <ele>967.6</ele>
        <time>2021-06-26T10:34:33Z</time>
      </trkpt>
      <trkpt lat="46.17939" lon="6.70909">
        <ele>967.4</ele>
        <time>2021-06-26T10:34:34Z</time>
      </trkpt>
      <trkpt lat="46.1794" lon="6.70905">
        <ele>966.6</ele>
        <time>2021-06-26T10:34:35Z</time>
      </trkpt>
      <trkpt lat="46.17941" lon="6.70901">
        <ele>966.2</ele>
        <time>2021-06-26T10:34:36Z</time>
      </trkpt>
      <trkpt lat="46.17943" lon="6.70893">
        <ele>965.4</ele>
        <time>2021-06-26T10:34:38Z</time>
      </trkpt>
      <trkpt lat="46.17944" lon="6.70889">
        <ele>965.2</ele>
        <time>2021-06-26T10:34:39Z</time>
      </trkpt>
      <trkpt lat="46.17944" lon="6.70886">
        <ele>964.8</ele>
        <time>2021-06-26T10:34:40Z</time>
      </trkpt>
      <trkpt lat="46.17944" lon="6.70883">
        <ele>964.6</ele>
        <time>2021-06-26T10:34:41Z</time>
      </trkpt>
      <trkpt lat="46.17945" lon="6.70881">
        <ele>964.6</ele>
        <time>2021-06-26T10:34:42Z</time>
      </trkpt>
      <trkpt lat="46.17945" lon="6.7088">
        <ele>964.4</ele>
        <time>2021-06-26T10:34:43Z</time>
      </trkpt>
      <trkpt lat="46.17945" lon="6.7088">
        <ele>964.2</ele>
        <time>2021-06-26T10:34:44Z</time>
      </trkpt>
      <trkpt lat="46.17944" lon="6.70879">
        <ele>964.2</ele>
        <time>2021-06-26T10:34:45Z</time>
      </trkpt>
      <trkpt lat="46.17943" lon="6.70876">
        <ele>963.8</ele>
        <time>2021-06-26T10:34:46Z</time>
      </trkpt>
      <trkpt lat="46.17942" lon="6.70875">
        <ele>963.2</ele>
        <time>2021-06-26T10:34:47Z</time>
      </trkpt>
      <trkpt lat="46.17936" lon="6.70871">
        <ele>962.6</ele>
        <time>2021-06-26T10:34:51Z</time>
      </trkpt>
      <trkpt lat="46.17935" lon="6.70869">
        <ele>962.4</ele>
        <time>2021-06-26T10:34:52Z</time>
      </trkpt>
      <trkpt lat="46.17936" lon="6.70866">
        <ele>962.4</ele>
        <time>2021-06-26T10:34:53Z</time>
      </trkpt>
      <trkpt lat="46.17939" lon="6.70863">
        <ele>962.2</ele>
        <time>2021-06-26T10:34:55Z</time>
      </trkpt>
      <trkpt lat="46.1794" lon="6.70861">
        <ele>962.2</ele>
        <time>2021-06-26T10:34:56Z</time>
      </trkpt>
      <trkpt lat="46.17942" lon="6.70859">
        <ele>962</ele>
        <time>2021-06-26T10:34:57Z</time>
      </trkpt>
      <trkpt lat="46.17943" lon="6.70856">
        <ele>962</ele>
        <time>2021-06-26T10:34:58Z</time>
      </trkpt>
      <trkpt lat="46.17946" lon="6.70849">
        <ele>962</ele>
        <time>2021-06-26T10:35:00Z</time>
      </trkpt>
      <trkpt lat="46.17947" lon="6.70846">
        <ele>962.2</ele>
        <time>2021-06-26T10:35:01Z</time>
      </trkpt>
      <trkpt lat="46.17946" lon="6.70842">
        <ele>962</ele>
        <time>2021-06-26T10:35:02Z</time>
      </trkpt>
      <trkpt lat="46.17944" lon="6.7084">
        <ele>962</ele>
        <time>2021-06-26T10:35:03Z</time>
      </trkpt>
      <trkpt lat="46.17942" lon="6.7084">
        <ele>962</ele>
        <time>2021-06-26T10:35:04Z</time>
      </trkpt>
      <trkpt lat="46.1794" lon="6.70841">
        <ele>961.8</ele>
        <time>2021-06-26T10:35:05Z</time>
      </trkpt>
      <trkpt lat="46.17939" lon="6.70845">
        <ele>961.8</ele>
        <time>2021-06-26T10:35:06Z</time>
      </trkpt>
      <trkpt lat="46.17939" lon="6.70848">
        <ele>961.8</ele>
        <time>2021-06-26T10:35:07Z</time>
      </trkpt>
      <trkpt lat="46.1794" lon="6.70851">
        <ele>961.6</ele>
        <time>2021-06-26T10:35:08Z</time>
      </trkpt>
      <trkpt lat="46.1794" lon="6.70858">
        <ele>961.8</ele>
        <time>2021-06-26T10:35:10Z</time>
      </trkpt>
      <trkpt lat="46.17939" lon="6.70862">
        <ele>961.8</ele>
        <time>2021-06-26T10:35:11Z</time>
      </trkpt>
      <trkpt lat="46.17938" lon="6.70866">
        <ele>961.8</ele>
        <time>2021-06-26T10:35:12Z</time>
      </trkpt>
      <trkpt lat="46.17937" lon="6.70869">
        <ele>961.6</ele>
        <time>2021-06-26T10:35:13Z</time>
      </trkpt>
      <trkpt lat="46.17934" lon="6.70872">
        <ele>961.6</ele>
        <time>2021-06-26T10:35:14Z</time>
      </trkpt>
      <trkpt lat="46.17932" lon="6.70874">
        <ele>961.6</ele>
        <time>2021-06-26T10:35:15Z</time>
      </trkpt>
      <trkpt lat="46.17928" lon="6.70876">
        <ele>961.8</ele>
        <time>2021-06-26T10:35:16Z</time>
      </trkpt>
      <trkpt lat="46.17925" lon="6.70876">
        <ele>962</ele>
        <time>2021-06-26T10:35:17Z</time>
      </trkpt>
      <trkpt lat="46.17921" lon="6.70877">
        <ele>961.8</ele>
        <time>2021-06-26T10:35:18Z</time>
      </trkpt>
      <trkpt lat="46.17917" lon="6.70877">
        <ele>961.8</ele>
        <time>2021-06-26T10:35:19Z</time>
      </trkpt>
      <trkpt lat="46.17914" lon="6.70878">
        <ele>961.8</ele>
        <time>2021-06-26T10:35:20Z</time>
      </trkpt>
      <trkpt lat="46.17911" lon="6.70878">
        <ele>962</ele>
        <time>2021-06-26T10:35:21Z</time>
      </trkpt>
      <trkpt lat="46.17908" lon="6.70878">
        <ele>962.2</ele>
        <time>2021-06-26T10:35:22Z</time>
      </trkpt>
      <trkpt lat="46.17905" lon="6.70879">
        <ele>962.4</ele>
        <time>2021-06-26T10:35:23Z</time>
      </trkpt>
      <trkpt lat="46.17899" lon="6.70885">
        <ele>962.6</ele>
        <time>2021-06-26T10:35:25Z</time>
      </trkpt>
      <trkpt lat="46.17896" lon="6.70889">
        <ele>962.8</ele>
        <time>2021-06-26T10:35:26Z</time>
      </trkpt>
      <trkpt lat="46.17894" lon="6.70892">
        <ele>962.8</ele>
        <time>2021-06-26T10:35:27Z</time>
      </trkpt>
      <trkpt lat="46.17891" lon="6.70894">
        <ele>962.8</ele>
        <time>2021-06-26T10:35:28Z</time>
      </trkpt>
      <trkpt lat="46.17888" lon="6.70896">
        <ele>962.8</ele>
        <time>2021-06-26T10:35:29Z</time>
      </trkpt>
      <trkpt lat="46.17886" lon="6.70898">
        <ele>963.2</ele>
        <time>2021-06-26T10:35:30Z</time>
      </trkpt>
      <trkpt lat="46.17884" lon="6.709">
        <ele>963.4</ele>
        <time>2021-06-26T10:35:31Z</time>
      </trkpt>
      <trkpt lat="46.17882" lon="6.70901">
        <ele>963.6</ele>
        <time>2021-06-26T10:35:32Z</time>
      </trkpt>
      <trkpt lat="46.1788" lon="6.70901">
        <ele>963.6</ele>
        <time>2021-06-26T10:35:33Z</time>
      </trkpt>
      <trkpt lat="46.17878" lon="6.709">
        <ele>963.6</ele>
        <time>2021-06-26T10:35:34Z</time>
      </trkpt>
      <trkpt lat="46.17875" lon="6.70899">
        <ele>963.6</ele>
        <time>2021-06-26T10:35:35Z</time>
      </trkpt>
      <trkpt lat="46.17873" lon="6.70899">
        <ele>963.6</ele>
        <time>2021-06-26T10:35:36Z</time>
      </trkpt>
      <trkpt lat="46.17871" lon="6.70898">
        <ele>963.8</ele>
        <time>2021-06-26T10:35:37Z</time>
      </trkpt>
      <trkpt lat="46.17869" lon="6.70899">
        <ele>964</ele>
        <time>2021-06-26T10:35:38Z</time>
      </trkpt>
      <trkpt lat="46.17865" lon="6.709">
        <ele>964.2</ele>
        <time>2021-06-26T10:35:40Z</time>
      </trkpt>
      <trkpt lat="46.17862" lon="6.70901">
        <ele>964.2</ele>
        <time>2021-06-26T10:35:41Z</time>
      </trkpt>
      <trkpt lat="46.1786" lon="6.70903">
        <ele>964.4</ele>
        <time>2021-06-26T10:35:42Z</time>
      </trkpt>
      <trkpt lat="46.17857" lon="6.70903">
        <ele>964.2</ele>
        <time>2021-06-26T10:35:44Z</time>
      </trkpt>
      <trkpt lat="46.17856" lon="6.70902">
        <ele>964.2</ele>
        <time>2021-06-26T10:35:45Z</time>
      </trkpt>
      <trkpt lat="46.17855" lon="6.70902">
        <ele>964.4</ele>
        <time>2021-06-26T10:35:46Z</time>
      </trkpt>
      <trkpt lat="46.17855" lon="6.70902">
        <ele>964.4</ele>
        <time>2021-06-26T10:35:47Z</time>
      </trkpt>
      <trkpt lat="46.17856" lon="6.70904">
        <ele>964.8</ele>
        <time>2021-06-26T10:35:57Z</time>
      </trkpt>
      <trkpt lat="46.17858" lon="6.70907">
        <ele>964.6</ele>
        <time>2021-06-26T10:36:09Z</time>
      </trkpt>
      <trkpt lat="46.17858" lon="6.70908">
        <ele>964.6</ele>
        <time>2021-06-26T10:36:11Z</time>
      </trkpt>
      <trkpt lat="46.17856" lon="6.7091">
        <ele>964.8</ele>
        <time>2021-06-26T10:36:19Z</time>
      </trkpt>
      <trkpt lat="46.17845" lon="6.70914">
        <ele>964.6</ele>
        <time>2021-06-26T10:36:24Z</time>
      </trkpt>
      <trkpt lat="46.17828" lon="6.70918">
        <ele>964.8</ele>
        <time>2021-06-26T10:36:29Z</time>
      </trkpt>
      <trkpt lat="46.17821" lon="6.70919">
        <ele>964.8</ele>
        <time>2021-06-26T10:36:31Z</time>
      </trkpt>
      <trkpt lat="46.17814" lon="6.7092">
        <ele>965</ele>
        <time>2021-06-26T10:36:33Z</time>
      </trkpt>
      <trkpt lat="46.17811" lon="6.70921">
        <ele>965</ele>
        <time>2021-06-26T10:36:34Z</time>
      </trkpt>
      <trkpt lat="46.17808" lon="6.70921">
        <ele>965</ele>
        <time>2021-06-26T10:36:35Z</time>
      </trkpt>
      <trkpt lat="46.17794" lon="6.70921">
        <ele>965</ele>
        <time>2021-06-26T10:36:39Z</time>
      </trkpt>
      <trkpt lat="46.17779" lon="6.70918">
        <ele>965.4</ele>
        <time>2021-06-26T10:36:43Z</time>
      </trkpt>
      <trkpt lat="46.17772" lon="6.70915">
        <ele>965.4</ele>
        <time>2021-06-26T10:36:45Z</time>
      </trkpt>
      <trkpt lat="46.17765" lon="6.70913">
        <ele>965.6</ele>
        <time>2021-06-26T10:36:47Z</time>
      </trkpt>
      <trkpt lat="46.17753" lon="6.70908">
        <ele>965.8</ele>
        <time>2021-06-26T10:36:50Z</time>
      </trkpt>
      <trkpt lat="46.17738" lon="6.70903">
        <ele>966.4</ele>
        <time>2021-06-26T10:36:54Z</time>
      </trkpt>
      <trkpt lat="46.17734" lon="6.70902">
        <ele>966.4</ele>
        <time>2021-06-26T10:36:55Z</time>
      </trkpt>
      <trkpt lat="46.1773" lon="6.70901">
        <ele>966.4</ele>
        <time>2021-06-26T10:36:56Z</time>
      </trkpt>
      <trkpt lat="46.17726" lon="6.70902">
        <ele>966.4</ele>
        <time>2021-06-26T10:36:57Z</time>
      </trkpt>
      <trkpt lat="46.17723" lon="6.70904">
        <ele>966.8</ele>
        <time>2021-06-26T10:36:58Z</time>
      </trkpt>
      <trkpt lat="46.1772" lon="6.70906">
        <ele>966.8</ele>
        <time>2021-06-26T10:36:59Z</time>
      </trkpt>
      <trkpt lat="46.17716" lon="6.70908">
        <ele>967</ele>
        <time>2021-06-26T10:37:00Z</time>
      </trkpt>
      <trkpt lat="46.17713" lon="6.7091">
        <ele>967.2</ele>
        <time>2021-06-26T10:37:01Z</time>
      </trkpt>
      <trkpt lat="46.1771" lon="6.70913">
        <ele>967.4</ele>
        <time>2021-06-26T10:37:02Z</time>
      </trkpt>
      <trkpt lat="46.17707" lon="6.70915">
        <ele>967.6</ele>
        <time>2021-06-26T10:37:03Z</time>
      </trkpt>
      <trkpt lat="46.17704" lon="6.70918">
        <ele>967.8</ele>
        <time>2021-06-26T10:37:04Z</time>
      </trkpt>
      <trkpt lat="46.17702" lon="6.70921">
        <ele>968</ele>
        <time>2021-06-26T10:37:05Z</time>
      </trkpt>
      <trkpt lat="46.17699" lon="6.70924">
        <ele>968</ele>
        <time>2021-06-26T10:37:06Z</time>
      </trkpt>
      <trkpt lat="46.17697" lon="6.70927">
        <ele>968.2</ele>
        <time>2021-06-26T10:37:07Z</time>
      </trkpt>
      <trkpt lat="46.17694" lon="6.70929">
        <ele>968.6</ele>
        <time>2021-06-26T10:37:08Z</time>
      </trkpt>
      <trkpt lat="46.17692" lon="6.70931">
        <ele>968.6</ele>
        <time>2021-06-26T10:37:09Z</time>
      </trkpt>
      <trkpt lat="46.17692" lon="6.70932">
        <ele>969</ele>
        <time>2021-06-26T10:37:10Z</time>
      </trkpt>
      <trkpt lat="46.17692" lon="6.70932">
        <ele>969</ele>
        <time>2021-06-26T10:37:11Z</time>
      </trkpt>
      <trkpt lat="46.17691" lon="6.70933">
        <ele>970.8</ele>
        <time>2021-06-26T10:37:22Z</time>
      </trkpt>
      <trkpt lat="46.17691" lon="6.70933">
        <ele>970.6</ele>
        <time>2021-06-26T10:37:24Z</time>
      </trkpt>
      <trkpt lat="46.17687" lon="6.70937">
        <ele>970.8</ele>
        <time>2021-06-26T10:37:36Z</time>
      </trkpt>
      <trkpt lat="46.17686" lon="6.70938">
        <ele>970.8</ele>
        <time>2021-06-26T10:37:38Z</time>
      </trkpt>
      <trkpt lat="46.17685" lon="6.70938">
        <ele>970.8</ele>
        <time>2021-06-26T10:37:39Z</time>
      </trkpt>
      <trkpt lat="46.17685" lon="6.70938">
        <ele>970.8</ele>
        <time>2021-06-26T10:37:40Z</time>
      </trkpt>
      <trkpt lat="46.17685" lon="6.70938">
        <ele>970.8</ele>
        <time>2021-06-26T10:37:41Z</time>
      </trkpt>
      <trkpt lat="46.17685" lon="6.70938">
        <ele>970.8</ele>
        <time>2021-06-26T10:37:42Z</time>
      </trkpt>
      <trkpt lat="46.17685" lon="6.70937">
        <ele>970.8</ele>
        <time>2021-06-26T10:37:46Z</time>
      </trkpt>
      <trkpt lat="46.17688" lon="6.70938">
        <ele>971</ele>
        <time>2021-06-26T10:37:57Z</time>
      </trkpt>
      <trkpt lat="46.17688" lon="6.70937">
        <ele>971</ele>
        <time>2021-06-26T10:38:01Z</time>
      </trkpt>
      <trkpt lat="46.17688" lon="6.70934">
        <ele>971</ele>
        <time>2021-06-26T10:38:16Z</time>
      </trkpt>
      <trkpt lat="46.17689" lon="6.70936">
        <ele>971</ele>
        <time>2021-06-26T10:38:31Z</time>
      </trkpt>
      <trkpt lat="46.1769" lon="6.70937">
        <ele>971</ele>
        <time>2021-06-26T10:38:47Z</time>
      </trkpt>
      <trkpt lat="46.1769" lon="6.7094">
        <ele>971</ele>
        <time>2021-06-26T10:38:56Z</time>
      </trkpt>
      <trkpt lat="46.17684" lon="6.70948">
        <ele>971</ele>
        <time>2021-06-26T10:39:03Z</time>
      </trkpt>
      <trkpt lat="46.17683" lon="6.7095">
        <ele>971</ele>
        <time>2021-06-26T10:39:04Z</time>
      </trkpt>
      <trkpt lat="46.17675" lon="6.70963">
        <ele>971.2</ele>
        <time>2021-06-26T10:39:08Z</time>
      </trkpt>
      <trkpt lat="46.17672" lon="6.70967">
        <ele>971</ele>
        <time>2021-06-26T10:39:09Z</time>
      </trkpt>
      <trkpt lat="46.17668" lon="6.70973">
        <ele>971.2</ele>
        <time>2021-06-26T10:39:11Z</time>
      </trkpt>
      <trkpt lat="46.17666" lon="6.70977">
        <ele>971.2</ele>
        <time>2021-06-26T10:39:12Z</time>
      </trkpt>
      <trkpt lat="46.17664" lon="6.70981">
        <ele>971.2</ele>
        <time>2021-06-26T10:39:13Z</time>
      </trkpt>
      <trkpt lat="46.17662" lon="6.70984">
        <ele>971.4</ele>
        <time>2021-06-26T10:39:14Z</time>
      </trkpt>
      <trkpt lat="46.17658" lon="6.70991">
        <ele>971.6</ele>
        <time>2021-06-26T10:39:16Z</time>
      </trkpt>
      <trkpt lat="46.17652" lon="6.71001">
        <ele>972</ele>
        <time>2021-06-26T10:39:19Z</time>
      </trkpt>
      <trkpt lat="46.1765" lon="6.71004">
        <ele>972.2</ele>
        <time>2021-06-26T10:39:20Z</time>
      </trkpt>
      <trkpt lat="46.17648" lon="6.71008">
        <ele>972.8</ele>
        <time>2021-06-26T10:39:21Z</time>
      </trkpt>
      <trkpt lat="46.17646" lon="6.71011">
        <ele>972.8</ele>
        <time>2021-06-26T10:39:22Z</time>
      </trkpt>
      <trkpt lat="46.17643" lon="6.71015">
        <ele>973.2</ele>
        <time>2021-06-26T10:39:23Z</time>
      </trkpt>
      <trkpt lat="46.17641" lon="6.71019">
        <ele>973.6</ele>
        <time>2021-06-26T10:39:24Z</time>
      </trkpt>
      <trkpt lat="46.17638" lon="6.71021">
        <ele>973.8</ele>
        <time>2021-06-26T10:39:25Z</time>
      </trkpt>
      <trkpt lat="46.17636" lon="6.71024">
        <ele>974</ele>
        <time>2021-06-26T10:39:26Z</time>
      </trkpt>
      <trkpt lat="46.17633" lon="6.71027">
        <ele>974</ele>
        <time>2021-06-26T10:39:27Z</time>
      </trkpt>
      <trkpt lat="46.1763" lon="6.71029">
        <ele>974.2</ele>
        <time>2021-06-26T10:39:28Z</time>
      </trkpt>
      <trkpt lat="46.17627" lon="6.71031">
        <ele>974.6</ele>
        <time>2021-06-26T10:39:29Z</time>
      </trkpt>
      <trkpt lat="46.17624" lon="6.71033">
        <ele>974.8</ele>
        <time>2021-06-26T10:39:30Z</time>
      </trkpt>
      <trkpt lat="46.1762" lon="6.71035">
        <ele>974.8</ele>
        <time>2021-06-26T10:39:31Z</time>
      </trkpt>
      <trkpt lat="46.17617" lon="6.71037">
        <ele>974.8</ele>
        <time>2021-06-26T10:39:32Z</time>
      </trkpt>
      <trkpt lat="46.17613" lon="6.71038">
        <ele>975.4</ele>
        <time>2021-06-26T10:39:33Z</time>
      </trkpt>
      <trkpt lat="46.1761" lon="6.71039">
        <ele>975.6</ele>
        <time>2021-06-26T10:39:34Z</time>
      </trkpt>
      <trkpt lat="46.17607" lon="6.71039">
        <ele>975.6</ele>
        <time>2021-06-26T10:39:35Z</time>
      </trkpt>
      <trkpt lat="46.17604" lon="6.71039">
        <ele>975.6</ele>
        <time>2021-06-26T10:39:36Z</time>
      </trkpt>
      <trkpt lat="46.17601" lon="6.71039">
        <ele>976</ele>
        <time>2021-06-26T10:39:37Z</time>
      </trkpt>
      <trkpt lat="46.17598" lon="6.71038">
        <ele>976.2</ele>
        <time>2021-06-26T10:39:38Z</time>
      </trkpt>
      <trkpt lat="46.17595" lon="6.71036">
        <ele>976.4</ele>
        <time>2021-06-26T10:39:39Z</time>
      </trkpt>
      <trkpt lat="46.17593" lon="6.71034">
        <ele>976.8</ele>
        <time>2021-06-26T10:39:40Z</time>
      </trkpt>
      <trkpt lat="46.17591" lon="6.7103">
        <ele>976.8</ele>
        <time>2021-06-26T10:39:41Z</time>
      </trkpt>
      <trkpt lat="46.17589" lon="6.71026">
        <ele>977</ele>
        <time>2021-06-26T10:39:42Z</time>
      </trkpt>
      <trkpt lat="46.17588" lon="6.71021">
        <ele>977.2</ele>
        <time>2021-06-26T10:39:43Z</time>
      </trkpt>
      <trkpt lat="46.17587" lon="6.71016">
        <ele>977.4</ele>
        <time>2021-06-26T10:39:44Z</time>
      </trkpt>
      <trkpt lat="46.17585" lon="6.71011">
        <ele>977.6</ele>
        <time>2021-06-26T10:39:45Z</time>
      </trkpt>
      <trkpt lat="46.17584" lon="6.71007">
        <ele>978</ele>
        <time>2021-06-26T10:39:46Z</time>
      </trkpt>
      <trkpt lat="46.17584" lon="6.71002">
        <ele>978</ele>
        <time>2021-06-26T10:39:47Z</time>
      </trkpt>
      <trkpt lat="46.17583" lon="6.70998">
        <ele>978.2</ele>
        <time>2021-06-26T10:39:48Z</time>
      </trkpt>
      <trkpt lat="46.17582" lon="6.70994">
        <ele>978</ele>
        <time>2021-06-26T10:39:49Z</time>
      </trkpt>
      <trkpt lat="46.17582" lon="6.7099">
        <ele>978.2</ele>
        <time>2021-06-26T10:39:50Z</time>
      </trkpt>
      <trkpt lat="46.17581" lon="6.70986">
        <ele>978.2</ele>
        <time>2021-06-26T10:39:51Z</time>
      </trkpt>
      <trkpt lat="46.1758" lon="6.70983">
        <ele>978.4</ele>
        <time>2021-06-26T10:39:52Z</time>
      </trkpt>
      <trkpt lat="46.1758" lon="6.70978">
        <ele>978.4</ele>
        <time>2021-06-26T10:39:53Z</time>
      </trkpt>
      <trkpt lat="46.17579" lon="6.70973">
        <ele>978.4</ele>
        <time>2021-06-26T10:39:54Z</time>
      </trkpt>
      <trkpt lat="46.17579" lon="6.70968">
        <ele>978.6</ele>
        <time>2021-06-26T10:39:55Z</time>
      </trkpt>
      <trkpt lat="46.17578" lon="6.70963">
        <ele>978.6</ele>
        <time>2021-06-26T10:39:56Z</time>
      </trkpt>
      <trkpt lat="46.17578" lon="6.70957">
        <ele>978.6</ele>
        <time>2021-06-26T10:39:57Z</time>
      </trkpt>
      <trkpt lat="46.1758" lon="6.7094">
        <ele>978.8</ele>
        <time>2021-06-26T10:40:00Z</time>
      </trkpt>
      <trkpt lat="46.17581" lon="6.70936">
        <ele>979</ele>
        <time>2021-06-26T10:40:01Z</time>
      </trkpt>
      <trkpt lat="46.17582" lon="6.70931">
        <ele>978.8</ele>
        <time>2021-06-26T10:40:02Z</time>
      </trkpt>
      <trkpt lat="46.17584" lon="6.70926">
        <ele>979</ele>
        <time>2021-06-26T10:40:03Z</time>
      </trkpt>
      <trkpt lat="46.17586" lon="6.70922">
        <ele>979.2</ele>
        <time>2021-06-26T10:40:04Z</time>
      </trkpt>
      <trkpt lat="46.1759" lon="6.70914">
        <ele>979</ele>
        <time>2021-06-26T10:40:06Z</time>
      </trkpt>
      <trkpt lat="46.17593" lon="6.70911">
        <ele>979.2</ele>
        <time>2021-06-26T10:40:07Z</time>
      </trkpt>
      <trkpt lat="46.17595" lon="6.70907">
        <ele>979.2</ele>
        <time>2021-06-26T10:40:08Z</time>
      </trkpt>
      <trkpt lat="46.17598" lon="6.70904">
        <ele>979.2</ele>
        <time>2021-06-26T10:40:09Z</time>
      </trkpt>
      <trkpt lat="46.176" lon="6.70901">
        <ele>979.6</ele>
        <time>2021-06-26T10:40:10Z</time>
      </trkpt>
      <trkpt lat="46.17603" lon="6.70898">
        <ele>979.8</ele>
        <time>2021-06-26T10:40:11Z</time>
      </trkpt>
      <trkpt lat="46.17605" lon="6.70894">
        <ele>980</ele>
        <time>2021-06-26T10:40:12Z</time>
      </trkpt>
      <trkpt lat="46.17608" lon="6.7089">
        <ele>980</ele>
        <time>2021-06-26T10:40:13Z</time>
      </trkpt>
      <trkpt lat="46.17611" lon="6.70887">
        <ele>980.4</ele>
        <time>2021-06-26T10:40:14Z</time>
      </trkpt>
      <trkpt lat="46.17613" lon="6.70883">
        <ele>980.6</ele>
        <time>2021-06-26T10:40:15Z</time>
      </trkpt>
      <trkpt lat="46.17616" lon="6.70879">
        <ele>980.8</ele>
        <time>2021-06-26T10:40:16Z</time>
      </trkpt>
      <trkpt lat="46.17619" lon="6.70875">
        <ele>981.2</ele>
        <time>2021-06-26T10:40:17Z</time>
      </trkpt>
      <trkpt lat="46.17622" lon="6.70871">
        <ele>981.4</ele>
        <time>2021-06-26T10:40:18Z</time>
      </trkpt>
      <trkpt lat="46.17625" lon="6.70868">
        <ele>981.8</ele>
        <time>2021-06-26T10:40:19Z</time>
      </trkpt>
      <trkpt lat="46.17628" lon="6.70864">
        <ele>981.8</ele>
        <time>2021-06-26T10:40:20Z</time>
      </trkpt>
      <trkpt lat="46.17631" lon="6.70861">
        <ele>982</ele>
        <time>2021-06-26T10:40:21Z</time>
      </trkpt>
      <trkpt lat="46.17634" lon="6.70858">
        <ele>982</ele>
        <time>2021-06-26T10:40:22Z</time>
      </trkpt>
      <trkpt lat="46.17637" lon="6.70855">
        <ele>982.4</ele>
        <time>2021-06-26T10:40:23Z</time>
      </trkpt>
      <trkpt lat="46.17641" lon="6.70852">
        <ele>982.4</ele>
        <time>2021-06-26T10:40:24Z</time>
      </trkpt>
      <trkpt lat="46.17644" lon="6.70849">
        <ele>982.8</ele>
        <time>2021-06-26T10:40:25Z</time>
      </trkpt>
      <trkpt lat="46.17648" lon="6.70846">
        <ele>983</ele>
        <time>2021-06-26T10:40:26Z</time>
      </trkpt>
      <trkpt lat="46.17651" lon="6.70843">
        <ele>983.2</ele>
        <time>2021-06-26T10:40:27Z</time>
      </trkpt>
      <trkpt lat="46.17655" lon="6.70841">
        <ele>983.4</ele>
        <time>2021-06-26T10:40:28Z</time>
      </trkpt>
      <trkpt lat="46.17659" lon="6.70838">
        <ele>983.4</ele>
        <time>2021-06-26T10:40:29Z</time>
      </trkpt>
      <trkpt lat="46.17662" lon="6.70835">
        <ele>983.8</ele>
        <time>2021-06-26T10:40:30Z</time>
      </trkpt>
      <trkpt lat="46.17666" lon="6.70832">
        <ele>984</ele>
        <time>2021-06-26T10:40:31Z</time>
      </trkpt>
      <trkpt lat="46.17669" lon="6.70829">
        <ele>984.4</ele>
        <time>2021-06-26T10:40:32Z</time>
      </trkpt>
      <trkpt lat="46.17673" lon="6.70825">
        <ele>984.8</ele>
        <time>2021-06-26T10:40:33Z</time>
      </trkpt>
      <trkpt lat="46.17677" lon="6.70822">
        <ele>985</ele>
        <time>2021-06-26T10:40:34Z</time>
      </trkpt>
      <trkpt lat="46.1768" lon="6.70817">
        <ele>985</ele>
        <time>2021-06-26T10:40:35Z</time>
      </trkpt>
      <trkpt lat="46.17684" lon="6.70813">
        <ele>985.4</ele>
        <time>2021-06-26T10:40:36Z</time>
      </trkpt>
      <trkpt lat="46.17687" lon="6.70808">
        <ele>985.4</ele>
        <time>2021-06-26T10:40:37Z</time>
      </trkpt>
      <trkpt lat="46.1769" lon="6.70803">
        <ele>985.6</ele>
        <time>2021-06-26T10:40:38Z</time>
      </trkpt>
      <trkpt lat="46.17694" lon="6.70798">
        <ele>985.8</ele>
        <time>2021-06-26T10:40:39Z</time>
      </trkpt>
      <trkpt lat="46.17697" lon="6.70793">
        <ele>985.8</ele>
        <time>2021-06-26T10:40:40Z</time>
      </trkpt>
      <trkpt lat="46.177" lon="6.70787">
        <ele>986</ele>
        <time>2021-06-26T10:40:41Z</time>
      </trkpt>
      <trkpt lat="46.17704" lon="6.70781">
        <ele>985.8</ele>
        <time>2021-06-26T10:40:42Z</time>
      </trkpt>
      <trkpt lat="46.17707" lon="6.70776">
        <ele>985.8</ele>
        <time>2021-06-26T10:40:43Z</time>
      </trkpt>
      <trkpt lat="46.17711" lon="6.70769">
        <ele>986</ele>
        <time>2021-06-26T10:40:44Z</time>
      </trkpt>
      <trkpt lat="46.17714" lon="6.70762">
        <ele>986.2</ele>
        <time>2021-06-26T10:40:45Z</time>
      </trkpt>
      <trkpt lat="46.17717" lon="6.70756">
        <ele>986</ele>
        <time>2021-06-26T10:40:46Z</time>
      </trkpt>
      <trkpt lat="46.1772" lon="6.70751">
        <ele>986.2</ele>
        <time>2021-06-26T10:40:47Z</time>
      </trkpt>
      <trkpt lat="46.17723" lon="6.70745">
        <ele>986</ele>
        <time>2021-06-26T10:40:48Z</time>
      </trkpt>
      <trkpt lat="46.17726" lon="6.7074">
        <ele>986</ele>
        <time>2021-06-26T10:40:49Z</time>
      </trkpt>
      <trkpt lat="46.1773" lon="6.70734">
        <ele>986</ele>
        <time>2021-06-26T10:40:50Z</time>
      </trkpt>
      <trkpt lat="46.17733" lon="6.70729">
        <ele>986</ele>
        <time>2021-06-26T10:40:51Z</time>
      </trkpt>
      <trkpt lat="46.17739" lon="6.70718">
        <ele>986.2</ele>
        <time>2021-06-26T10:40:53Z</time>
      </trkpt>
      <trkpt lat="46.17742" lon="6.70713">
        <ele>986</ele>
        <time>2021-06-26T10:40:54Z</time>
      </trkpt>
      <trkpt lat="46.17745" lon="6.70708">
        <ele>986.2</ele>
        <time>2021-06-26T10:40:55Z</time>
      </trkpt>
      <trkpt lat="46.17753" lon="6.70699">
        <ele>986.2</ele>
        <time>2021-06-26T10:40:57Z</time>
      </trkpt>
      <trkpt lat="46.17756" lon="6.70695">
        <ele>986.4</ele>
        <time>2021-06-26T10:40:58Z</time>
      </trkpt>
      <trkpt lat="46.17761" lon="6.70693">
        <ele>986.4</ele>
        <time>2021-06-26T10:40:59Z</time>
      </trkpt>
      <trkpt lat="46.17765" lon="6.7069">
        <ele>986.6</ele>
        <time>2021-06-26T10:41:00Z</time>
      </trkpt>
      <trkpt lat="46.17768" lon="6.70685">
        <ele>986.6</ele>
        <time>2021-06-26T10:41:01Z</time>
      </trkpt>
      <trkpt lat="46.17771" lon="6.70679">
        <ele>986.8</ele>
        <time>2021-06-26T10:41:02Z</time>
      </trkpt>
      <trkpt lat="46.17774" lon="6.70673">
        <ele>986.6</ele>
        <time>2021-06-26T10:41:03Z</time>
      </trkpt>
      <trkpt lat="46.17777" lon="6.70666">
        <ele>986.8</ele>
        <time>2021-06-26T10:41:04Z</time>
      </trkpt>
      <trkpt lat="46.17781" lon="6.7066">
        <ele>986.8</ele>
        <time>2021-06-26T10:41:05Z</time>
      </trkpt>
      <trkpt lat="46.17793" lon="6.70639">
        <ele>986.8</ele>
        <time>2021-06-26T10:41:08Z</time>
      </trkpt>
      <trkpt lat="46.1781" lon="6.70612">
        <ele>986.8</ele>
        <time>2021-06-26T10:41:12Z</time>
      </trkpt>
      <trkpt lat="46.17831" lon="6.7058">
        <ele>986.2</ele>
        <time>2021-06-26T10:41:17Z</time>
      </trkpt>
      <trkpt lat="46.17835" lon="6.70573">
        <ele>986</ele>
        <time>2021-06-26T10:41:18Z</time>
      </trkpt>
      <trkpt lat="46.17839" lon="6.70567">
        <ele>986</ele>
        <time>2021-06-26T10:41:19Z</time>
      </trkpt>
      <trkpt lat="46.17843" lon="6.70562">
        <ele>986</ele>
        <time>2021-06-26T10:41:20Z</time>
      </trkpt>
      <trkpt lat="46.17847" lon="6.70557">
        <ele>986</ele>
        <time>2021-06-26T10:41:21Z</time>
      </trkpt>
      <trkpt lat="46.1785" lon="6.70552">
        <ele>985.8</ele>
        <time>2021-06-26T10:41:22Z</time>
      </trkpt>
      <trkpt lat="46.17854" lon="6.70547">
        <ele>985.8</ele>
        <time>2021-06-26T10:41:23Z</time>
      </trkpt>
      <trkpt lat="46.17858" lon="6.70542">
        <ele>985.8</ele>
        <time>2021-06-26T10:41:24Z</time>
      </trkpt>
      <trkpt lat="46.17861" lon="6.70536">
        <ele>985.6</ele>
        <time>2021-06-26T10:41:25Z</time>
      </trkpt>
      <trkpt lat="46.17881" lon="6.70506">
        <ele>985.8</ele>
        <time>2021-06-26T10:41:30Z</time>
      </trkpt>
      <trkpt lat="46.17885" lon="6.705">
        <ele>985.8</ele>
        <time>2021-06-26T10:41:31Z</time>
      </trkpt>
      <trkpt lat="46.17897" lon="6.70482">
        <ele>985.8</ele>
        <time>2021-06-26T10:41:34Z</time>
      </trkpt>
      <trkpt lat="46.17901" lon="6.70476">
        <ele>985.6</ele>
        <time>2021-06-26T10:41:35Z</time>
      </trkpt>
      <trkpt lat="46.17905" lon="6.7047">
        <ele>985.6</ele>
        <time>2021-06-26T10:41:36Z</time>
      </trkpt>
      <trkpt lat="46.17925" lon="6.70439">
        <ele>985.4</ele>
        <time>2021-06-26T10:41:41Z</time>
      </trkpt>
      <trkpt lat="46.17955" lon="6.70397">
        <ele>984.4</ele>
        <time>2021-06-26T10:41:48Z</time>
      </trkpt>
      <trkpt lat="46.17968" lon="6.70376">
        <ele>984.2</ele>
        <time>2021-06-26T10:41:51Z</time>
      </trkpt>
      <trkpt lat="46.17972" lon="6.7037">
        <ele>984.2</ele>
        <time>2021-06-26T10:41:52Z</time>
      </trkpt>
      <trkpt lat="46.17976" lon="6.70363">
        <ele>984.2</ele>
        <time>2021-06-26T10:41:53Z</time>
      </trkpt>
      <trkpt lat="46.17993" lon="6.70337">
        <ele>984</ele>
        <time>2021-06-26T10:41:57Z</time>
      </trkpt>
      <trkpt lat="46.17997" lon="6.7033">
        <ele>983.8</ele>
        <time>2021-06-26T10:41:58Z</time>
      </trkpt>
      <trkpt lat="46.18001" lon="6.70323">
        <ele>983.8</ele>
        <time>2021-06-26T10:41:59Z</time>
      </trkpt>
      <trkpt lat="46.18005" lon="6.70317">
        <ele>983.8</ele>
        <time>2021-06-26T10:42:00Z</time>
      </trkpt>
      <trkpt lat="46.18016" lon="6.70296">
        <ele>983.4</ele>
        <time>2021-06-26T10:42:03Z</time>
      </trkpt>
      <trkpt lat="46.1802" lon="6.7029">
        <ele>983.4</ele>
        <time>2021-06-26T10:42:04Z</time>
      </trkpt>
      <trkpt lat="46.18024" lon="6.70283">
        <ele>983.4</ele>
        <time>2021-06-26T10:42:05Z</time>
      </trkpt>
      <trkpt lat="46.18031" lon="6.7027">
        <ele>983</ele>
        <time>2021-06-26T10:42:07Z</time>
      </trkpt>
      <trkpt lat="46.18043" lon="6.70251">
        <ele>982.8</ele>
        <time>2021-06-26T10:42:10Z</time>
      </trkpt>
      <trkpt lat="46.18051" lon="6.70238">
        <ele>982.4</ele>
        <time>2021-06-26T10:42:12Z</time>
      </trkpt>
      <trkpt lat="46.18055" lon="6.70232">
        <ele>982.4</ele>
        <time>2021-06-26T10:42:13Z</time>
      </trkpt>
      <trkpt lat="46.18058" lon="6.70225">
        <ele>982.2</ele>
        <time>2021-06-26T10:42:14Z</time>
      </trkpt>
      <trkpt lat="46.18062" lon="6.70219">
        <ele>982</ele>
        <time>2021-06-26T10:42:15Z</time>
      </trkpt>
      <trkpt lat="46.18065" lon="6.70213">
        <ele>982</ele>
        <time>2021-06-26T10:42:16Z</time>
      </trkpt>
      <trkpt lat="46.18069" lon="6.70206">
        <ele>982</ele>
        <time>2021-06-26T10:42:17Z</time>
      </trkpt>
      <trkpt lat="46.18085" lon="6.70179">
        <ele>981.6</ele>
        <time>2021-06-26T10:42:21Z</time>
      </trkpt>
      <trkpt lat="46.18115" lon="6.70133">
        <ele>980.4</ele>
        <time>2021-06-26T10:42:28Z</time>
      </trkpt>
      <trkpt lat="46.18119" lon="6.70126">
        <ele>980.4</ele>
        <time>2021-06-26T10:42:29Z</time>
      </trkpt>
      <trkpt lat="46.18123" lon="6.70119">
        <ele>980.2</ele>
        <time>2021-06-26T10:42:30Z</time>
      </trkpt>
      <trkpt lat="46.18135" lon="6.70101">
        <ele>980</ele>
        <time>2021-06-26T10:42:33Z</time>
      </trkpt>
      <trkpt lat="46.18139" lon="6.70098">
        <ele>979.8</ele>
        <time>2021-06-26T10:42:34Z</time>
      </trkpt>
      <trkpt lat="46.18142" lon="6.70095">
        <ele>979.6</ele>
        <time>2021-06-26T10:42:35Z</time>
      </trkpt>
      <trkpt lat="46.18145" lon="6.70092">
        <ele>979.6</ele>
        <time>2021-06-26T10:42:36Z</time>
      </trkpt>
      <trkpt lat="46.18147" lon="6.70087">
        <ele>979.8</ele>
        <time>2021-06-26T10:42:37Z</time>
      </trkpt>
      <trkpt lat="46.1815" lon="6.70081">
        <ele>979.6</ele>
        <time>2021-06-26T10:42:38Z</time>
      </trkpt>
      <trkpt lat="46.18152" lon="6.70076">
        <ele>979.6</ele>
        <time>2021-06-26T10:42:39Z</time>
      </trkpt>
      <trkpt lat="46.18154" lon="6.7007">
        <ele>979.4</ele>
        <time>2021-06-26T10:42:40Z</time>
      </trkpt>
      <trkpt lat="46.1816" lon="6.70051">
        <ele>979.2</ele>
        <time>2021-06-26T10:42:43Z</time>
      </trkpt>
      <trkpt lat="46.18163" lon="6.70046">
        <ele>979.2</ele>
        <time>2021-06-26T10:42:44Z</time>
      </trkpt>
      <trkpt lat="46.18174" lon="6.70023">
        <ele>979.2</ele>
        <time>2021-06-26T10:42:48Z</time>
      </trkpt>
      <trkpt lat="46.18177" lon="6.70017">
        <ele>979.2</ele>
        <time>2021-06-26T10:42:49Z</time>
      </trkpt>
      <trkpt lat="46.18179" lon="6.70012">
        <ele>979.4</ele>
        <time>2021-06-26T10:42:50Z</time>
      </trkpt>
      <trkpt lat="46.18182" lon="6.70006">
        <ele>979.2</ele>
        <time>2021-06-26T10:42:51Z</time>
      </trkpt>
      <trkpt lat="46.18185" lon="6.70001">
        <ele>979.4</ele>
        <time>2021-06-26T10:42:52Z</time>
      </trkpt>
      <trkpt lat="46.1819" lon="6.6999">
        <ele>979.4</ele>
        <time>2021-06-26T10:42:54Z</time>
      </trkpt>
      <trkpt lat="46.18193" lon="6.69985">
        <ele>979.4</ele>
        <time>2021-06-26T10:42:55Z</time>
      </trkpt>
      <trkpt lat="46.18199" lon="6.69975">
        <ele>979.6</ele>
        <time>2021-06-26T10:42:57Z</time>
      </trkpt>
      <trkpt lat="46.18207" lon="6.69958">
        <ele>979.8</ele>
        <time>2021-06-26T10:43:00Z</time>
      </trkpt>
      <trkpt lat="46.18221" lon="6.6993">
        <ele>980.2</ele>
        <time>2021-06-26T10:43:05Z</time>
      </trkpt>
      <trkpt lat="46.18224" lon="6.69925">
        <ele>980.6</ele>
        <time>2021-06-26T10:43:06Z</time>
      </trkpt>
      <trkpt lat="46.18226" lon="6.69919">
        <ele>981</ele>
        <time>2021-06-26T10:43:07Z</time>
      </trkpt>
      <trkpt lat="46.18232" lon="6.69908">
        <ele>981.2</ele>
        <time>2021-06-26T10:43:09Z</time>
      </trkpt>
      <trkpt lat="46.18234" lon="6.69903">
        <ele>981.4</ele>
        <time>2021-06-26T10:43:10Z</time>
      </trkpt>
      <trkpt lat="46.18237" lon="6.69898">
        <ele>981.4</ele>
        <time>2021-06-26T10:43:11Z</time>
      </trkpt>
      <trkpt lat="46.1824" lon="6.69892">
        <ele>981.6</ele>
        <time>2021-06-26T10:43:12Z</time>
      </trkpt>
      <trkpt lat="46.18242" lon="6.69887">
        <ele>981.6</ele>
        <time>2021-06-26T10:43:13Z</time>
      </trkpt>
      <trkpt lat="46.18245" lon="6.69882">
        <ele>981.8</ele>
        <time>2021-06-26T10:43:14Z</time>
      </trkpt>
      <trkpt lat="46.18247" lon="6.69877">
        <ele>982</ele>
        <time>2021-06-26T10:43:15Z</time>
      </trkpt>
      <trkpt lat="46.1825" lon="6.69872">
        <ele>982.2</ele>
        <time>2021-06-26T10:43:16Z</time>
      </trkpt>
      <trkpt lat="46.18252" lon="6.69867">
        <ele>982.6</ele>
        <time>2021-06-26T10:43:17Z</time>
      </trkpt>
      <trkpt lat="46.18255" lon="6.69862">
        <ele>982.8</ele>
        <time>2021-06-26T10:43:18Z</time>
      </trkpt>
      <trkpt lat="46.18258" lon="6.69857">
        <ele>983</ele>
        <time>2021-06-26T10:43:19Z</time>
      </trkpt>
      <trkpt lat="46.1826" lon="6.69852">
        <ele>983</ele>
        <time>2021-06-26T10:43:20Z</time>
      </trkpt>
      <trkpt lat="46.18263" lon="6.69847">
        <ele>983</ele>
        <time>2021-06-26T10:43:21Z</time>
      </trkpt>
      <trkpt lat="46.18265" lon="6.69842">
        <ele>983.2</ele>
        <time>2021-06-26T10:43:22Z</time>
      </trkpt>
      <trkpt lat="46.18267" lon="6.69836">
        <ele>983.2</ele>
        <time>2021-06-26T10:43:23Z</time>
      </trkpt>
      <trkpt lat="46.18269" lon="6.6983">
        <ele>983.2</ele>
        <time>2021-06-26T10:43:24Z</time>
      </trkpt>
      <trkpt lat="46.18271" lon="6.69825">
        <ele>983.2</ele>
        <time>2021-06-26T10:43:25Z</time>
      </trkpt>
      <trkpt lat="46.18273" lon="6.69819">
        <ele>983.6</ele>
        <time>2021-06-26T10:43:26Z</time>
      </trkpt>
      <trkpt lat="46.18275" lon="6.69813">
        <ele>984</ele>
        <time>2021-06-26T10:43:27Z</time>
      </trkpt>
      <trkpt lat="46.18277" lon="6.69807">
        <ele>984.2</ele>
        <time>2021-06-26T10:43:28Z</time>
      </trkpt>
      <trkpt lat="46.18279" lon="6.69801">
        <ele>984.4</ele>
        <time>2021-06-26T10:43:29Z</time>
      </trkpt>
      <trkpt lat="46.1828" lon="6.69795">
        <ele>984.4</ele>
        <time>2021-06-26T10:43:30Z</time>
      </trkpt>
      <trkpt lat="46.18282" lon="6.69789">
        <ele>984.6</ele>
        <time>2021-06-26T10:43:31Z</time>
      </trkpt>
      <trkpt lat="46.18283" lon="6.69783">
        <ele>984.6</ele>
        <time>2021-06-26T10:43:32Z</time>
      </trkpt>
      <trkpt lat="46.18284" lon="6.69777">
        <ele>985</ele>
        <time>2021-06-26T10:43:33Z</time>
      </trkpt>
      <trkpt lat="46.18286" lon="6.69771">
        <ele>984.8</ele>
        <time>2021-06-26T10:43:34Z</time>
      </trkpt>
      <trkpt lat="46.18287" lon="6.69765">
        <ele>985.2</ele>
        <time>2021-06-26T10:43:35Z</time>
      </trkpt>
      <trkpt lat="46.18289" lon="6.69759">
        <ele>985.4</ele>
        <time>2021-06-26T10:43:36Z</time>
      </trkpt>
      <trkpt lat="46.1829" lon="6.69753">
        <ele>985.4</ele>
        <time>2021-06-26T10:43:37Z</time>
      </trkpt>
      <trkpt lat="46.18291" lon="6.69747">
        <ele>985.8</ele>
        <time>2021-06-26T10:43:38Z</time>
      </trkpt>
      <trkpt lat="46.18293" lon="6.69741">
        <ele>985.6</ele>
        <time>2021-06-26T10:43:39Z</time>
      </trkpt>
      <trkpt lat="46.18294" lon="6.69735">
        <ele>985.8</ele>
        <time>2021-06-26T10:43:40Z</time>
      </trkpt>
      <trkpt lat="46.18296" lon="6.69729">
        <ele>986</ele>
        <time>2021-06-26T10:43:41Z</time>
      </trkpt>
      <trkpt lat="46.18297" lon="6.69723">
        <ele>986</ele>
        <time>2021-06-26T10:43:42Z</time>
      </trkpt>
      <trkpt lat="46.18299" lon="6.69718">
        <ele>986</ele>
        <time>2021-06-26T10:43:43Z</time>
      </trkpt>
      <trkpt lat="46.183" lon="6.69712">
        <ele>986.2</ele>
        <time>2021-06-26T10:43:44Z</time>
      </trkpt>
      <trkpt lat="46.18302" lon="6.69707">
        <ele>986.4</ele>
        <time>2021-06-26T10:43:45Z</time>
      </trkpt>
      <trkpt lat="46.18304" lon="6.69701">
        <ele>986.4</ele>
        <time>2021-06-26T10:43:46Z</time>
      </trkpt>
      <trkpt lat="46.18306" lon="6.69696">
        <ele>986.6</ele>
        <time>2021-06-26T10:43:47Z</time>
      </trkpt>
      <trkpt lat="46.18308" lon="6.6969">
        <ele>986.6</ele>
        <time>2021-06-26T10:43:48Z</time>
      </trkpt>
      <trkpt lat="46.1831" lon="6.69685">
        <ele>986.8</ele>
        <time>2021-06-26T10:43:49Z</time>
      </trkpt>
      <trkpt lat="46.18312" lon="6.69679">
        <ele>987</ele>
        <time>2021-06-26T10:43:50Z</time>
      </trkpt>
      <trkpt lat="46.18314" lon="6.69674">
        <ele>987.2</ele>
        <time>2021-06-26T10:43:51Z</time>
      </trkpt>
      <trkpt lat="46.18316" lon="6.69668">
        <ele>987.6</ele>
        <time>2021-06-26T10:43:52Z</time>
      </trkpt>
      <trkpt lat="46.18319" lon="6.69663">
        <ele>987.8</ele>
        <time>2021-06-26T10:43:53Z</time>
      </trkpt>
      <trkpt lat="46.18322" lon="6.69659">
        <ele>988</ele>
        <time>2021-06-26T10:43:54Z</time>
      </trkpt>
      <trkpt lat="46.18324" lon="6.69654">
        <ele>988.2</ele>
        <time>2021-06-26T10:43:55Z</time>
      </trkpt>
      <trkpt lat="46.18328" lon="6.6965">
        <ele>988.4</ele>
        <time>2021-06-26T10:43:56Z</time>
      </trkpt>
      <trkpt lat="46.18331" lon="6.69646">
        <ele>988.6</ele>
        <time>2021-06-26T10:43:57Z</time>
      </trkpt>
      <trkpt lat="46.18334" lon="6.69642">
        <ele>988.8</ele>
        <time>2021-06-26T10:43:58Z</time>
      </trkpt>
      <trkpt lat="46.18337" lon="6.69638">
        <ele>989</ele>
        <time>2021-06-26T10:43:59Z</time>
      </trkpt>
      <trkpt lat="46.1834" lon="6.69635">
        <ele>989.2</ele>
        <time>2021-06-26T10:44:00Z</time>
      </trkpt>
      <trkpt lat="46.18344" lon="6.69632">
        <ele>989.2</ele>
        <time>2021-06-26T10:44:01Z</time>
      </trkpt>
      <trkpt lat="46.18347" lon="6.69628">
        <ele>989.4</ele>
        <time>2021-06-26T10:44:02Z</time>
      </trkpt>
      <trkpt lat="46.18351" lon="6.69625">
        <ele>989.4</ele>
        <time>2021-06-26T10:44:03Z</time>
      </trkpt>
      <trkpt lat="46.18354" lon="6.69621">
        <ele>989.8</ele>
        <time>2021-06-26T10:44:04Z</time>
      </trkpt>
      <trkpt lat="46.18358" lon="6.69618">
        <ele>990.2</ele>
        <time>2021-06-26T10:44:05Z</time>
      </trkpt>
      <trkpt lat="46.18361" lon="6.69614">
        <ele>990.2</ele>
        <time>2021-06-26T10:44:06Z</time>
      </trkpt>
      <trkpt lat="46.18365" lon="6.69611">
        <ele>990.4</ele>
        <time>2021-06-26T10:44:07Z</time>
      </trkpt>
      <trkpt lat="46.18368" lon="6.69608">
        <ele>990.6</ele>
        <time>2021-06-26T10:44:08Z</time>
      </trkpt>
      <trkpt lat="46.18371" lon="6.69604">
        <ele>990.8</ele>
        <time>2021-06-26T10:44:09Z</time>
      </trkpt>
      <trkpt lat="46.18375" lon="6.69601">
        <ele>990.6</ele>
        <time>2021-06-26T10:44:10Z</time>
      </trkpt>
      <trkpt lat="46.18378" lon="6.69597">
        <ele>991</ele>
        <time>2021-06-26T10:44:11Z</time>
      </trkpt>
      <trkpt lat="46.18382" lon="6.69594">
        <ele>991.2</ele>
        <time>2021-06-26T10:44:12Z</time>
      </trkpt>
      <trkpt lat="46.18385" lon="6.6959">
        <ele>991.2</ele>
        <time>2021-06-26T10:44:13Z</time>
      </trkpt>
      <trkpt lat="46.18389" lon="6.69586">
        <ele>991.4</ele>
        <time>2021-06-26T10:44:14Z</time>
      </trkpt>
      <trkpt lat="46.18392" lon="6.69583">
        <ele>991.6</ele>
        <time>2021-06-26T10:44:15Z</time>
      </trkpt>
      <trkpt lat="46.18396" lon="6.69579">
        <ele>991.8</ele>
        <time>2021-06-26T10:44:16Z</time>
      </trkpt>
      <trkpt lat="46.18399" lon="6.69575">
        <ele>992</ele>
        <time>2021-06-26T10:44:17Z</time>
      </trkpt>
      <trkpt lat="46.18402" lon="6.69572">
        <ele>992.2</ele>
        <time>2021-06-26T10:44:18Z</time>
      </trkpt>
      <trkpt lat="46.18406" lon="6.69568">
        <ele>992.6</ele>
        <time>2021-06-26T10:44:19Z</time>
      </trkpt>
      <trkpt lat="46.18409" lon="6.69565">
        <ele>992.6</ele>
        <time>2021-06-26T10:44:20Z</time>
      </trkpt>
      <trkpt lat="46.18412" lon="6.69561">
        <ele>992.8</ele>
        <time>2021-06-26T10:44:21Z</time>
      </trkpt>
      <trkpt lat="46.18415" lon="6.69557">
        <ele>993</ele>
        <time>2021-06-26T10:44:22Z</time>
      </trkpt>
      <trkpt lat="46.18418" lon="6.69553">
        <ele>993</ele>
        <time>2021-06-26T10:44:23Z</time>
      </trkpt>
      <trkpt lat="46.18421" lon="6.69548">
        <ele>993</ele>
        <time>2021-06-26T10:44:24Z</time>
      </trkpt>
      <trkpt lat="46.18424" lon="6.69543">
        <ele>993.2</ele>
        <time>2021-06-26T10:44:25Z</time>
      </trkpt>
      <trkpt lat="46.18426" lon="6.69538">
        <ele>993.4</ele>
        <time>2021-06-26T10:44:26Z</time>
      </trkpt>
      <trkpt lat="46.18429" lon="6.69534">
        <ele>993.4</ele>
        <time>2021-06-26T10:44:27Z</time>
      </trkpt>
      <trkpt lat="46.18432" lon="6.69529">
        <ele>993.4</ele>
        <time>2021-06-26T10:44:28Z</time>
      </trkpt>
      <trkpt lat="46.18434" lon="6.69524">
        <ele>993.4</ele>
        <time>2021-06-26T10:44:29Z</time>
      </trkpt>
      <trkpt lat="46.18437" lon="6.69519">
        <ele>993.6</ele>
        <time>2021-06-26T10:44:30Z</time>
      </trkpt>
      <trkpt lat="46.1844" lon="6.69514">
        <ele>994.2</ele>
        <time>2021-06-26T10:44:31Z</time>
      </trkpt>
      <trkpt lat="46.18442" lon="6.6951">
        <ele>994.4</ele>
        <time>2021-06-26T10:44:32Z</time>
      </trkpt>
      <trkpt lat="46.18445" lon="6.69505">
        <ele>994.4</ele>
        <time>2021-06-26T10:44:33Z</time>
      </trkpt>
      <trkpt lat="46.18448" lon="6.69501">
        <ele>994.6</ele>
        <time>2021-06-26T10:44:34Z</time>
      </trkpt>
      <trkpt lat="46.18451" lon="6.69497">
        <ele>994.6</ele>
        <time>2021-06-26T10:44:35Z</time>
      </trkpt>
      <trkpt lat="46.18455" lon="6.69492">
        <ele>994.8</ele>
        <time>2021-06-26T10:44:36Z</time>
      </trkpt>
      <trkpt lat="46.18458" lon="6.69488">
        <ele>994.8</ele>
        <time>2021-06-26T10:44:37Z</time>
      </trkpt>
      <trkpt lat="46.18461" lon="6.69485">
        <ele>995</ele>
        <time>2021-06-26T10:44:38Z</time>
      </trkpt>
      <trkpt lat="46.18465" lon="6.69481">
        <ele>995.4</ele>
        <time>2021-06-26T10:44:39Z</time>
      </trkpt>
      <trkpt lat="46.18469" lon="6.69478">
        <ele>995.4</ele>
        <time>2021-06-26T10:44:40Z</time>
      </trkpt>
      <trkpt lat="46.18472" lon="6.69475">
        <ele>995.8</ele>
        <time>2021-06-26T10:44:41Z</time>
      </trkpt>
      <trkpt lat="46.18477" lon="6.69473">
        <ele>995.8</ele>
        <time>2021-06-26T10:44:42Z</time>
      </trkpt>
      <trkpt lat="46.18481" lon="6.6947">
        <ele>995.8</ele>
        <time>2021-06-26T10:44:43Z</time>
      </trkpt>
      <trkpt lat="46.18485" lon="6.69468">
        <ele>996</ele>
        <time>2021-06-26T10:44:44Z</time>
      </trkpt>
      <trkpt lat="46.18489" lon="6.69465">
        <ele>996</ele>
        <time>2021-06-26T10:44:45Z</time>
      </trkpt>
      <trkpt lat="46.18493" lon="6.69463">
        <ele>996.4</ele>
        <time>2021-06-26T10:44:46Z</time>
      </trkpt>
      <trkpt lat="46.18497" lon="6.69461">
        <ele>996.2</ele>
        <time>2021-06-26T10:44:47Z</time>
      </trkpt>
      <trkpt lat="46.18501" lon="6.69459">
        <ele>996.4</ele>
        <time>2021-06-26T10:44:48Z</time>
      </trkpt>
      <trkpt lat="46.18505" lon="6.69457">
        <ele>996.4</ele>
        <time>2021-06-26T10:44:49Z</time>
      </trkpt>
      <trkpt lat="46.18509" lon="6.69455">
        <ele>996.4</ele>
        <time>2021-06-26T10:44:50Z</time>
      </trkpt>
      <trkpt lat="46.18514" lon="6.69453">
        <ele>996.6</ele>
        <time>2021-06-26T10:44:51Z</time>
      </trkpt>
      <trkpt lat="46.18517" lon="6.69451">
        <ele>996.6</ele>
        <time>2021-06-26T10:44:52Z</time>
      </trkpt>
      <trkpt lat="46.18522" lon="6.69448">
        <ele>997</ele>
        <time>2021-06-26T10:44:53Z</time>
      </trkpt>
      <trkpt lat="46.18526" lon="6.69446">
        <ele>997</ele>
        <time>2021-06-26T10:44:54Z</time>
      </trkpt>
      <trkpt lat="46.1853" lon="6.69443">
        <ele>997.2</ele>
        <time>2021-06-26T10:44:55Z</time>
      </trkpt>
      <trkpt lat="46.18535" lon="6.69441">
        <ele>997.4</ele>
        <time>2021-06-26T10:44:56Z</time>
      </trkpt>
      <trkpt lat="46.18539" lon="6.69438">
        <ele>998</ele>
        <time>2021-06-26T10:44:57Z</time>
      </trkpt>
      <trkpt lat="46.18543" lon="6.69435">
        <ele>998.2</ele>
        <time>2021-06-26T10:44:58Z</time>
      </trkpt>
      <trkpt lat="46.18548" lon="6.69432">
        <ele>998.6</ele>
        <time>2021-06-26T10:44:59Z</time>
      </trkpt>
      <trkpt lat="46.18552" lon="6.69429">
        <ele>998.8</ele>
        <time>2021-06-26T10:45:00Z</time>
      </trkpt>
      <trkpt lat="46.18555" lon="6.69426">
        <ele>999</ele>
        <time>2021-06-26T10:45:01Z</time>
      </trkpt>
      <trkpt lat="46.18559" lon="6.69423">
        <ele>999.2</ele>
        <time>2021-06-26T10:45:02Z</time>
      </trkpt>
      <trkpt lat="46.18563" lon="6.69419">
        <ele>999.4</ele>
        <time>2021-06-26T10:45:03Z</time>
      </trkpt>
      <trkpt lat="46.18567" lon="6.69416">
        <ele>999.2</ele>
        <time>2021-06-26T10:45:04Z</time>
      </trkpt>
      <trkpt lat="46.18571" lon="6.69413">
        <ele>999.4</ele>
        <time>2021-06-26T10:45:05Z</time>
      </trkpt>
      <trkpt lat="46.18575" lon="6.6941">
        <ele>999.4</ele>
        <time>2021-06-26T10:45:06Z</time>
      </trkpt>
      <trkpt lat="46.18579" lon="6.69407">
        <ele>999.4</ele>
        <time>2021-06-26T10:45:07Z</time>
      </trkpt>
      <trkpt lat="46.18582" lon="6.69404">
        <ele>999.6</ele>
        <time>2021-06-26T10:45:08Z</time>
      </trkpt>
      <trkpt lat="46.18585" lon="6.69401">
        <ele>999.4</ele>
        <time>2021-06-26T10:45:09Z</time>
      </trkpt>
      <trkpt lat="46.18587" lon="6.69398">
        <ele>999.6</ele>
        <time>2021-06-26T10:45:10Z</time>
      </trkpt>
      <trkpt lat="46.1859" lon="6.69397">
        <ele>999.6</ele>
        <time>2021-06-26T10:45:11Z</time>
      </trkpt>
      <trkpt lat="46.18592" lon="6.69395">
        <ele>999.4</ele>
        <time>2021-06-26T10:45:12Z</time>
      </trkpt>
      <trkpt lat="46.18595" lon="6.69393">
        <ele>999.6</ele>
        <time>2021-06-26T10:45:13Z</time>
      </trkpt>
      <trkpt lat="46.18598" lon="6.69392">
        <ele>999.6</ele>
        <time>2021-06-26T10:45:14Z</time>
      </trkpt>
      <trkpt lat="46.18601" lon="6.6939">
        <ele>999.8</ele>
        <time>2021-06-26T10:45:15Z</time>
      </trkpt>
      <trkpt lat="46.18604" lon="6.69389">
        <ele>999.8</ele>
        <time>2021-06-26T10:45:16Z</time>
      </trkpt>
      <trkpt lat="46.18608" lon="6.69389">
        <ele>999.8</ele>
        <time>2021-06-26T10:45:17Z</time>
      </trkpt>
      <trkpt lat="46.18613" lon="6.69388">
        <ele>999.8</ele>
        <time>2021-06-26T10:45:18Z</time>
      </trkpt>
      <trkpt lat="46.18617" lon="6.69387">
        <ele>1000.2</ele>
        <time>2021-06-26T10:45:19Z</time>
      </trkpt>
      <trkpt lat="46.1862" lon="6.69385">
        <ele>1000.4</ele>
        <time>2021-06-26T10:45:20Z</time>
      </trkpt>
      <trkpt lat="46.18624" lon="6.69384">
        <ele>1000.6</ele>
        <time>2021-06-26T10:45:21Z</time>
      </trkpt>
      <trkpt lat="46.18627" lon="6.69382">
        <ele>1000.8</ele>
        <time>2021-06-26T10:45:22Z</time>
      </trkpt>
      <trkpt lat="46.18631" lon="6.69379">
        <ele>1000.8</ele>
        <time>2021-06-26T10:45:23Z</time>
      </trkpt>
      <trkpt lat="46.18635" lon="6.69377">
        <ele>1001</ele>
        <time>2021-06-26T10:45:24Z</time>
      </trkpt>
      <trkpt lat="46.18638" lon="6.69375">
        <ele>1001.4</ele>
        <time>2021-06-26T10:45:25Z</time>
      </trkpt>
      <trkpt lat="46.18641" lon="6.69372">
        <ele>1001.6</ele>
        <time>2021-06-26T10:45:26Z</time>
      </trkpt>
      <trkpt lat="46.18645" lon="6.69369">
        <ele>1001.8</ele>
        <time>2021-06-26T10:45:27Z</time>
      </trkpt>
      <trkpt lat="46.18647" lon="6.69366">
        <ele>1001.8</ele>
        <time>2021-06-26T10:45:28Z</time>
      </trkpt>
      <trkpt lat="46.18651" lon="6.69361">
        <ele>1002</ele>
        <time>2021-06-26T10:45:29Z</time>
      </trkpt>
      <trkpt lat="46.18654" lon="6.69356">
        <ele>1002.2</ele>
        <time>2021-06-26T10:45:30Z</time>
      </trkpt>
      <trkpt lat="46.18657" lon="6.6935">
        <ele>1002.4</ele>
        <time>2021-06-26T10:45:31Z</time>
      </trkpt>
      <trkpt lat="46.1866" lon="6.69344">
        <ele>1002.6</ele>
        <time>2021-06-26T10:45:32Z</time>
      </trkpt>
      <trkpt lat="46.18663" lon="6.69339">
        <ele>1002.8</ele>
        <time>2021-06-26T10:45:33Z</time>
      </trkpt>
      <trkpt lat="46.18666" lon="6.69333">
        <ele>1002.8</ele>
        <time>2021-06-26T10:45:34Z</time>
      </trkpt>
      <trkpt lat="46.18669" lon="6.69328">
        <ele>1003</ele>
        <time>2021-06-26T10:45:35Z</time>
      </trkpt>
      <trkpt lat="46.18673" lon="6.69322">
        <ele>1003</ele>
        <time>2021-06-26T10:45:36Z</time>
      </trkpt>
      <trkpt lat="46.18675" lon="6.69317">
        <ele>1003</ele>
        <time>2021-06-26T10:45:37Z</time>
      </trkpt>
      <trkpt lat="46.18678" lon="6.69312">
        <ele>1003</ele>
        <time>2021-06-26T10:45:38Z</time>
      </trkpt>
      <trkpt lat="46.18681" lon="6.69308">
        <ele>1003</ele>
        <time>2021-06-26T10:45:39Z</time>
      </trkpt>
      <trkpt lat="46.18683" lon="6.69304">
        <ele>1003.2</ele>
        <time>2021-06-26T10:45:40Z</time>
      </trkpt>
      <trkpt lat="46.18686" lon="6.69301">
        <ele>1003.4</ele>
        <time>2021-06-26T10:45:41Z</time>
      </trkpt>
      <trkpt lat="46.18689" lon="6.69297">
        <ele>1003.6</ele>
        <time>2021-06-26T10:45:42Z</time>
      </trkpt>
      <trkpt lat="46.18692" lon="6.69294">
        <ele>1003.8</ele>
        <time>2021-06-26T10:45:43Z</time>
      </trkpt>
      <trkpt lat="46.18696" lon="6.6929">
        <ele>1004</ele>
        <time>2021-06-26T10:45:44Z</time>
      </trkpt>
      <trkpt lat="46.187" lon="6.69286">
        <ele>1004.2</ele>
        <time>2021-06-26T10:45:45Z</time>
      </trkpt>
      <trkpt lat="46.18705" lon="6.69283">
        <ele>1004.2</ele>
        <time>2021-06-26T10:45:46Z</time>
      </trkpt>
      <trkpt lat="46.1871" lon="6.69279">
        <ele>1004.2</ele>
        <time>2021-06-26T10:45:47Z</time>
      </trkpt>
      <trkpt lat="46.18714" lon="6.69276">
        <ele>1004.6</ele>
        <time>2021-06-26T10:45:48Z</time>
      </trkpt>
      <trkpt lat="46.18718" lon="6.69273">
        <ele>1004.8</ele>
        <time>2021-06-26T10:45:49Z</time>
      </trkpt>
      <trkpt lat="46.18722" lon="6.69269">
        <ele>1005.2</ele>
        <time>2021-06-26T10:45:50Z</time>
      </trkpt>
      <trkpt lat="46.18726" lon="6.69265">
        <ele>1005.2</ele>
        <time>2021-06-26T10:45:51Z</time>
      </trkpt>
      <trkpt lat="46.18729" lon="6.69262">
        <ele>1005.6</ele>
        <time>2021-06-26T10:45:52Z</time>
      </trkpt>
      <trkpt lat="46.18732" lon="6.69259">
        <ele>1005.8</ele>
        <time>2021-06-26T10:45:53Z</time>
      </trkpt>
      <trkpt lat="46.18735" lon="6.69256">
        <ele>1005.8</ele>
        <time>2021-06-26T10:45:54Z</time>
      </trkpt>
      <trkpt lat="46.18739" lon="6.69252">
        <ele>1006</ele>
        <time>2021-06-26T10:45:55Z</time>
      </trkpt>
      <trkpt lat="46.18742" lon="6.69247">
        <ele>1006.2</ele>
        <time>2021-06-26T10:45:56Z</time>
      </trkpt>
      <trkpt lat="46.18746" lon="6.69244">
        <ele>1006.2</ele>
        <time>2021-06-26T10:45:57Z</time>
      </trkpt>
      <trkpt lat="46.18749" lon="6.6924">
        <ele>1006.2</ele>
        <time>2021-06-26T10:45:58Z</time>
      </trkpt>
      <trkpt lat="46.18753" lon="6.69236">
        <ele>1006.2</ele>
        <time>2021-06-26T10:45:59Z</time>
      </trkpt>
      <trkpt lat="46.18756" lon="6.69233">
        <ele>1006.4</ele>
        <time>2021-06-26T10:46:00Z</time>
      </trkpt>
      <trkpt lat="46.18759" lon="6.69227">
        <ele>1006.6</ele>
        <time>2021-06-26T10:46:01Z</time>
      </trkpt>
      <trkpt lat="46.18763" lon="6.69223">
        <ele>1006.6</ele>
        <time>2021-06-26T10:46:02Z</time>
      </trkpt>
      <trkpt lat="46.18766" lon="6.69219">
        <ele>1006.6</ele>
        <time>2021-06-26T10:46:03Z</time>
      </trkpt>
      <trkpt lat="46.18769" lon="6.69215">
        <ele>1006.6</ele>
        <time>2021-06-26T10:46:04Z</time>
      </trkpt>
      <trkpt lat="46.18773" lon="6.69211">
        <ele>1006.8</ele>
        <time>2021-06-26T10:46:05Z</time>
      </trkpt>
      <trkpt lat="46.18778" lon="6.69207">
        <ele>1006.6</ele>
        <time>2021-06-26T10:46:06Z</time>
      </trkpt>
      <trkpt lat="46.18782" lon="6.69203">
        <ele>1006.8</ele>
        <time>2021-06-26T10:46:07Z</time>
      </trkpt>
      <trkpt lat="46.18785" lon="6.69198">
        <ele>1006.8</ele>
        <time>2021-06-26T10:46:08Z</time>
      </trkpt>
      <trkpt lat="46.1879" lon="6.69193">
        <ele>1006.8</ele>
        <time>2021-06-26T10:46:09Z</time>
      </trkpt>
      <trkpt lat="46.18794" lon="6.69188">
        <ele>1007</ele>
        <time>2021-06-26T10:46:10Z</time>
      </trkpt>
      <trkpt lat="46.18798" lon="6.69184">
        <ele>1007.2</ele>
        <time>2021-06-26T10:46:11Z</time>
      </trkpt>
      <trkpt lat="46.18803" lon="6.69179">
        <ele>1007.4</ele>
        <time>2021-06-26T10:46:12Z</time>
      </trkpt>
      <trkpt lat="46.18807" lon="6.69175">
        <ele>1007.6</ele>
        <time>2021-06-26T10:46:13Z</time>
      </trkpt>
      <trkpt lat="46.18811" lon="6.69171">
        <ele>1007.8</ele>
        <time>2021-06-26T10:46:14Z</time>
      </trkpt>
      <trkpt lat="46.18815" lon="6.69167">
        <ele>1008</ele>
        <time>2021-06-26T10:46:15Z</time>
      </trkpt>
      <trkpt lat="46.18819" lon="6.69163">
        <ele>1008</ele>
        <time>2021-06-26T10:46:16Z</time>
      </trkpt>
      <trkpt lat="46.18823" lon="6.69159">
        <ele>1008.2</ele>
        <time>2021-06-26T10:46:17Z</time>
      </trkpt>
      <trkpt lat="46.18827" lon="6.69156">
        <ele>1008.2</ele>
        <time>2021-06-26T10:46:18Z</time>
      </trkpt>
      <trkpt lat="46.18831" lon="6.69153">
        <ele>1008.4</ele>
        <time>2021-06-26T10:46:19Z</time>
      </trkpt>
      <trkpt lat="46.18835" lon="6.69149">
        <ele>1008.8</ele>
        <time>2021-06-26T10:46:20Z</time>
      </trkpt>
      <trkpt lat="46.18838" lon="6.69145">
        <ele>1009</ele>
        <time>2021-06-26T10:46:21Z</time>
      </trkpt>
      <trkpt lat="46.18841" lon="6.6914">
        <ele>1009</ele>
        <time>2021-06-26T10:46:22Z</time>
      </trkpt>
      <trkpt lat="46.18842" lon="6.69135">
        <ele>1009.2</ele>
        <time>2021-06-26T10:46:23Z</time>
      </trkpt>
      <trkpt lat="46.18843" lon="6.69129">
        <ele>1009.8</ele>
        <time>2021-06-26T10:46:24Z</time>
      </trkpt>
      <trkpt lat="46.18843" lon="6.69122">
        <ele>1010</ele>
        <time>2021-06-26T10:46:25Z</time>
      </trkpt>
      <trkpt lat="46.18843" lon="6.69115">
        <ele>1010</ele>
        <time>2021-06-26T10:46:26Z</time>
      </trkpt>
      <trkpt lat="46.18843" lon="6.69109">
        <ele>1010.2</ele>
        <time>2021-06-26T10:46:27Z</time>
      </trkpt>
      <trkpt lat="46.18845" lon="6.69102">
        <ele>1010.2</ele>
        <time>2021-06-26T10:46:28Z</time>
      </trkpt>
      <trkpt lat="46.18847" lon="6.69096">
        <ele>1010.4</ele>
        <time>2021-06-26T10:46:29Z</time>
      </trkpt>
      <trkpt lat="46.18849" lon="6.6909">
        <ele>1010.6</ele>
        <time>2021-06-26T10:46:30Z</time>
      </trkpt>
      <trkpt lat="46.18852" lon="6.69086">
        <ele>1010.8</ele>
        <time>2021-06-26T10:46:31Z</time>
      </trkpt>
      <trkpt lat="46.18854" lon="6.69081">
        <ele>1011</ele>
        <time>2021-06-26T10:46:32Z</time>
      </trkpt>
      <trkpt lat="46.18857" lon="6.69078">
        <ele>1011.4</ele>
        <time>2021-06-26T10:46:33Z</time>
      </trkpt>
      <trkpt lat="46.18861" lon="6.69074">
        <ele>1011.6</ele>
        <time>2021-06-26T10:46:34Z</time>
      </trkpt>
      <trkpt lat="46.18864" lon="6.69071">
        <ele>1011.6</ele>
        <time>2021-06-26T10:46:35Z</time>
      </trkpt>
      <trkpt lat="46.18867" lon="6.69068">
        <ele>1011.8</ele>
        <time>2021-06-26T10:46:36Z</time>
      </trkpt>
      <trkpt lat="46.18871" lon="6.69065">
        <ele>1011.8</ele>
        <time>2021-06-26T10:46:37Z</time>
      </trkpt>
      <trkpt lat="46.18875" lon="6.69062">
        <ele>1012.2</ele>
        <time>2021-06-26T10:46:38Z</time>
      </trkpt>
      <trkpt lat="46.18878" lon="6.6906">
        <ele>1012.2</ele>
        <time>2021-06-26T10:46:39Z</time>
      </trkpt>
      <trkpt lat="46.18882" lon="6.69057">
        <ele>1012.6</ele>
        <time>2021-06-26T10:46:40Z</time>
      </trkpt>
      <trkpt lat="46.18886" lon="6.69054">
        <ele>1012.6</ele>
        <time>2021-06-26T10:46:41Z</time>
      </trkpt>
      <trkpt lat="46.18889" lon="6.69051">
        <ele>1013</ele>
        <time>2021-06-26T10:46:42Z</time>
      </trkpt>
      <trkpt lat="46.18893" lon="6.69049">
        <ele>1013</ele>
        <time>2021-06-26T10:46:43Z</time>
      </trkpt>
      <trkpt lat="46.18897" lon="6.69046">
        <ele>1013.4</ele>
        <time>2021-06-26T10:46:44Z</time>
      </trkpt>
      <trkpt lat="46.189" lon="6.69043">
        <ele>1013.4</ele>
        <time>2021-06-26T10:46:45Z</time>
      </trkpt>
      <trkpt lat="46.18904" lon="6.6904">
        <ele>1013.6</ele>
        <time>2021-06-26T10:46:46Z</time>
      </trkpt>
      <trkpt lat="46.18908" lon="6.69037">
        <ele>1014</ele>
        <time>2021-06-26T10:46:47Z</time>
      </trkpt>
      <trkpt lat="46.18911" lon="6.69033">
        <ele>1014.4</ele>
        <time>2021-06-26T10:46:48Z</time>
      </trkpt>
      <trkpt lat="46.18914" lon="6.6903">
        <ele>1014.6</ele>
        <time>2021-06-26T10:46:49Z</time>
      </trkpt>
      <trkpt lat="46.18917" lon="6.69027">
        <ele>1014.8</ele>
        <time>2021-06-26T10:46:50Z</time>
      </trkpt>
      <trkpt lat="46.1892" lon="6.69024">
        <ele>1014.8</ele>
        <time>2021-06-26T10:46:51Z</time>
      </trkpt>
      <trkpt lat="46.18923" lon="6.69021">
        <ele>1014.8</ele>
        <time>2021-06-26T10:46:52Z</time>
      </trkpt>
      <trkpt lat="46.18926" lon="6.69017">
        <ele>1015.2</ele>
        <time>2021-06-26T10:46:53Z</time>
      </trkpt>
      <trkpt lat="46.18929" lon="6.69013">
        <ele>1015.4</ele>
        <time>2021-06-26T10:46:54Z</time>
      </trkpt>
      <trkpt lat="46.18931" lon="6.6901">
        <ele>1015.4</ele>
        <time>2021-06-26T10:46:55Z</time>
      </trkpt>
      <trkpt lat="46.18934" lon="6.69006">
        <ele>1015.6</ele>
        <time>2021-06-26T10:46:56Z</time>
      </trkpt>
      <trkpt lat="46.18936" lon="6.69002">
        <ele>1015.6</ele>
        <time>2021-06-26T10:46:57Z</time>
      </trkpt>
      <trkpt lat="46.18939" lon="6.68998">
        <ele>1016</ele>
        <time>2021-06-26T10:46:58Z</time>
      </trkpt>
      <trkpt lat="46.18941" lon="6.68995">
        <ele>1016.2</ele>
        <time>2021-06-26T10:46:59Z</time>
      </trkpt>
      <trkpt lat="46.18944" lon="6.68991">
        <ele>1016.4</ele>
        <time>2021-06-26T10:47:00Z</time>
      </trkpt>
      <trkpt lat="46.18947" lon="6.68987">
        <ele>1016.6</ele>
        <time>2021-06-26T10:47:01Z</time>
      </trkpt>
      <trkpt lat="46.18949" lon="6.68984">
        <ele>1016.8</ele>
        <time>2021-06-26T10:47:02Z</time>
      </trkpt>
      <trkpt lat="46.18952" lon="6.6898">
        <ele>1016.8</ele>
        <time>2021-06-26T10:47:03Z</time>
      </trkpt>
      <trkpt lat="46.18955" lon="6.68977">
        <ele>1017</ele>
        <time>2021-06-26T10:47:04Z</time>
      </trkpt>
      <trkpt lat="46.18958" lon="6.68973">
        <ele>1017.4</ele>
        <time>2021-06-26T10:47:05Z</time>
      </trkpt>
      <trkpt lat="46.1896" lon="6.6897">
        <ele>1017.4</ele>
        <time>2021-06-26T10:47:06Z</time>
      </trkpt>
      <trkpt lat="46.18963" lon="6.68966">
        <ele>1017.8</ele>
        <time>2021-06-26T10:47:07Z</time>
      </trkpt>
      <trkpt lat="46.18965" lon="6.68963">
        <ele>1017.8</ele>
        <time>2021-06-26T10:47:08Z</time>
      </trkpt>
      <trkpt lat="46.18968" lon="6.68959">
        <ele>1017.8</ele>
        <time>2021-06-26T10:47:09Z</time>
      </trkpt>
      <trkpt lat="46.1897" lon="6.68955">
        <ele>1018</ele>
        <time>2021-06-26T10:47:10Z</time>
      </trkpt>
      <trkpt lat="46.18972" lon="6.68952">
        <ele>1018</ele>
        <time>2021-06-26T10:47:11Z</time>
      </trkpt>
      <trkpt lat="46.18975" lon="6.68949">
        <ele>1018</ele>
        <time>2021-06-26T10:47:12Z</time>
      </trkpt>
      <trkpt lat="46.18977" lon="6.68945">
        <ele>1018.6</ele>
        <time>2021-06-26T10:47:13Z</time>
      </trkpt>
      <trkpt lat="46.1898" lon="6.68941">
        <ele>1018.6</ele>
        <time>2021-06-26T10:47:14Z</time>
      </trkpt>
      <trkpt lat="46.18982" lon="6.68937">
        <ele>1018.8</ele>
        <time>2021-06-26T10:47:15Z</time>
      </trkpt>
      <trkpt lat="46.18985" lon="6.68933">
        <ele>1019.2</ele>
        <time>2021-06-26T10:47:16Z</time>
      </trkpt>
      <trkpt lat="46.18988" lon="6.68929">
        <ele>1019.2</ele>
        <time>2021-06-26T10:47:17Z</time>
      </trkpt>
      <trkpt lat="46.18991" lon="6.68925">
        <ele>1019.4</ele>
        <time>2021-06-26T10:47:18Z</time>
      </trkpt>
      <trkpt lat="46.18993" lon="6.68921">
        <ele>1019.6</ele>
        <time>2021-06-26T10:47:19Z</time>
      </trkpt>
      <trkpt lat="46.18996" lon="6.68916">
        <ele>1019.8</ele>
        <time>2021-06-26T10:47:20Z</time>
      </trkpt>
      <trkpt lat="46.18998" lon="6.68912">
        <ele>1020</ele>
        <time>2021-06-26T10:47:21Z</time>
      </trkpt>
      <trkpt lat="46.19" lon="6.68908">
        <ele>1020.2</ele>
        <time>2021-06-26T10:47:22Z</time>
      </trkpt>
      <trkpt lat="46.19003" lon="6.68903">
        <ele>1020.4</ele>
        <time>2021-06-26T10:47:23Z</time>
      </trkpt>
      <trkpt lat="46.19005" lon="6.68899">
        <ele>1020.6</ele>
        <time>2021-06-26T10:47:24Z</time>
      </trkpt>
      <trkpt lat="46.19007" lon="6.68894">
        <ele>1020.8</ele>
        <time>2021-06-26T10:47:25Z</time>
      </trkpt>
      <trkpt lat="46.19011" lon="6.68889">
        <ele>1021</ele>
        <time>2021-06-26T10:47:26Z</time>
      </trkpt>
      <trkpt lat="46.19014" lon="6.68885">
        <ele>1021</ele>
        <time>2021-06-26T10:47:27Z</time>
      </trkpt>
      <trkpt lat="46.19018" lon="6.6888">
        <ele>1021.2</ele>
        <time>2021-06-26T10:47:28Z</time>
      </trkpt>
      <trkpt lat="46.19022" lon="6.68875">
        <ele>1021.4</ele>
        <time>2021-06-26T10:47:29Z</time>
      </trkpt>
      <trkpt lat="46.19025" lon="6.6887">
        <ele>1021.4</ele>
        <time>2021-06-26T10:47:30Z</time>
      </trkpt>
      <trkpt lat="46.19029" lon="6.68865">
        <ele>1021.6</ele>
        <time>2021-06-26T10:47:31Z</time>
      </trkpt>
      <trkpt lat="46.19032" lon="6.6886">
        <ele>1022.2</ele>
        <time>2021-06-26T10:47:32Z</time>
      </trkpt>
      <trkpt lat="46.19035" lon="6.68855">
        <ele>1022.8</ele>
        <time>2021-06-26T10:47:33Z</time>
      </trkpt>
      <trkpt lat="46.19037" lon="6.6885">
        <ele>1023</ele>
        <time>2021-06-26T10:47:34Z</time>
      </trkpt>
      <trkpt lat="46.1904" lon="6.68845">
        <ele>1023.2</ele>
        <time>2021-06-26T10:47:35Z</time>
      </trkpt>
      <trkpt lat="46.19043" lon="6.6884">
        <ele>1023.6</ele>
        <time>2021-06-26T10:47:36Z</time>
      </trkpt>
      <trkpt lat="46.19045" lon="6.68835">
        <ele>1023.6</ele>
        <time>2021-06-26T10:47:37Z</time>
      </trkpt>
      <trkpt lat="46.19048" lon="6.6883">
        <ele>1023.6</ele>
        <time>2021-06-26T10:47:38Z</time>
      </trkpt>
      <trkpt lat="46.19052" lon="6.68825">
        <ele>1023.8</ele>
        <time>2021-06-26T10:47:39Z</time>
      </trkpt>
      <trkpt lat="46.19055" lon="6.68821">
        <ele>1024</ele>
        <time>2021-06-26T10:47:40Z</time>
      </trkpt>
      <trkpt lat="46.19058" lon="6.68816">
        <ele>1024.2</ele>
        <time>2021-06-26T10:47:41Z</time>
      </trkpt>
      <trkpt lat="46.1906" lon="6.68811">
        <ele>1024.4</ele>
        <time>2021-06-26T10:47:42Z</time>
      </trkpt>
      <trkpt lat="46.19063" lon="6.68806">
        <ele>1024.4</ele>
        <time>2021-06-26T10:47:43Z</time>
      </trkpt>
      <trkpt lat="46.19067" lon="6.68802">
        <ele>1024.4</ele>
        <time>2021-06-26T10:47:44Z</time>
      </trkpt>
      <trkpt lat="46.1907" lon="6.68797">
        <ele>1024.6</ele>
        <time>2021-06-26T10:47:45Z</time>
      </trkpt>
      <trkpt lat="46.19073" lon="6.68793">
        <ele>1024.6</ele>
        <time>2021-06-26T10:47:46Z</time>
      </trkpt>
      <trkpt lat="46.19075" lon="6.68788">
        <ele>1024.8</ele>
        <time>2021-06-26T10:47:47Z</time>
      </trkpt>
      <trkpt lat="46.19078" lon="6.68784">
        <ele>1024.8</ele>
        <time>2021-06-26T10:47:48Z</time>
      </trkpt>
      <trkpt lat="46.1908" lon="6.68779">
        <ele>1025</ele>
        <time>2021-06-26T10:47:49Z</time>
      </trkpt>
      <trkpt lat="46.19083" lon="6.68775">
        <ele>1025.4</ele>
        <time>2021-06-26T10:47:50Z</time>
      </trkpt>
      <trkpt lat="46.19085" lon="6.6877">
        <ele>1025.8</ele>
        <time>2021-06-26T10:47:51Z</time>
      </trkpt>
      <trkpt lat="46.19088" lon="6.68766">
        <ele>1026.2</ele>
        <time>2021-06-26T10:47:52Z</time>
      </trkpt>
      <trkpt lat="46.1909" lon="6.68762">
        <ele>1026.2</ele>
        <time>2021-06-26T10:47:53Z</time>
      </trkpt>
      <trkpt lat="46.19092" lon="6.68757">
        <ele>1026.4</ele>
        <time>2021-06-26T10:47:54Z</time>
      </trkpt>
      <trkpt lat="46.19093" lon="6.68753">
        <ele>1026.6</ele>
        <time>2021-06-26T10:47:55Z</time>
      </trkpt>
      <trkpt lat="46.19095" lon="6.68748">
        <ele>1026.8</ele>
        <time>2021-06-26T10:47:56Z</time>
      </trkpt>
      <trkpt lat="46.19096" lon="6.68743">
        <ele>1026.8</ele>
        <time>2021-06-26T10:47:57Z</time>
      </trkpt>
      <trkpt lat="46.19097" lon="6.68738">
        <ele>1027</ele>
        <time>2021-06-26T10:47:58Z</time>
      </trkpt>
      <trkpt lat="46.19098" lon="6.68733">
        <ele>1027</ele>
        <time>2021-06-26T10:47:59Z</time>
      </trkpt>
      <trkpt lat="46.19098" lon="6.68728">
        <ele>1027.2</ele>
        <time>2021-06-26T10:48:00Z</time>
      </trkpt>
      <trkpt lat="46.19098" lon="6.68723">
        <ele>1027.4</ele>
        <time>2021-06-26T10:48:01Z</time>
      </trkpt>
      <trkpt lat="46.19098" lon="6.68718">
        <ele>1027.6</ele>
        <time>2021-06-26T10:48:02Z</time>
      </trkpt>
      <trkpt lat="46.19098" lon="6.68713">
        <ele>1028.2</ele>
        <time>2021-06-26T10:48:03Z</time>
      </trkpt>
      <trkpt lat="46.19098" lon="6.68708">
        <ele>1028.6</ele>
        <time>2021-06-26T10:48:04Z</time>
      </trkpt>
      <trkpt lat="46.19098" lon="6.68704">
        <ele>1028.8</ele>
        <time>2021-06-26T10:48:05Z</time>
      </trkpt>
      <trkpt lat="46.19097" lon="6.68699">
        <ele>1028.8</ele>
        <time>2021-06-26T10:48:06Z</time>
      </trkpt>
      <trkpt lat="46.19097" lon="6.68695">
        <ele>1029.2</ele>
        <time>2021-06-26T10:48:07Z</time>
      </trkpt>
      <trkpt lat="46.19096" lon="6.6869">
        <ele>1029.2</ele>
        <time>2021-06-26T10:48:08Z</time>
      </trkpt>
      <trkpt lat="46.19096" lon="6.68685">
        <ele>1029.2</ele>
        <time>2021-06-26T10:48:09Z</time>
      </trkpt>
      <trkpt lat="46.19095" lon="6.6868">
        <ele>1029.2</ele>
        <time>2021-06-26T10:48:10Z</time>
      </trkpt>
      <trkpt lat="46.19094" lon="6.68675">
        <ele>1029.4</ele>
        <time>2021-06-26T10:48:11Z</time>
      </trkpt>
      <trkpt lat="46.19094" lon="6.6867">
        <ele>1029.2</ele>
        <time>2021-06-26T10:48:12Z</time>
      </trkpt>
      <trkpt lat="46.19093" lon="6.68665">
        <ele>1029.4</ele>
        <time>2021-06-26T10:48:13Z</time>
      </trkpt>
      <trkpt lat="46.19093" lon="6.6866">
        <ele>1029.6</ele>
        <time>2021-06-26T10:48:14Z</time>
      </trkpt>
      <trkpt lat="46.19092" lon="6.68654">
        <ele>1029.6</ele>
        <time>2021-06-26T10:48:15Z</time>
      </trkpt>
      <trkpt lat="46.19091" lon="6.68649">
        <ele>1029.4</ele>
        <time>2021-06-26T10:48:16Z</time>
      </trkpt>
      <trkpt lat="46.19091" lon="6.68644">
        <ele>1029.6</ele>
        <time>2021-06-26T10:48:17Z</time>
      </trkpt>
      <trkpt lat="46.1909" lon="6.68639">
        <ele>1029.8</ele>
        <time>2021-06-26T10:48:18Z</time>
      </trkpt>
      <trkpt lat="46.19089" lon="6.68634">
        <ele>1029.8</ele>
        <time>2021-06-26T10:48:19Z</time>
      </trkpt>
      <trkpt lat="46.19088" lon="6.68628">
        <ele>1030.4</ele>
        <time>2021-06-26T10:48:20Z</time>
      </trkpt>
      <trkpt lat="46.19087" lon="6.68623">
        <ele>1031</ele>
        <time>2021-06-26T10:48:21Z</time>
      </trkpt>
      <trkpt lat="46.19086" lon="6.68618">
        <ele>1031.2</ele>
        <time>2021-06-26T10:48:22Z</time>
      </trkpt>
      <trkpt lat="46.19085" lon="6.68613">
        <ele>1031.4</ele>
        <time>2021-06-26T10:48:23Z</time>
      </trkpt>
      <trkpt lat="46.19084" lon="6.68609">
        <ele>1031.8</ele>
        <time>2021-06-26T10:48:24Z</time>
      </trkpt>
      <trkpt lat="46.19083" lon="6.68604">
        <ele>1031.8</ele>
        <time>2021-06-26T10:48:25Z</time>
      </trkpt>
      <trkpt lat="46.19081" lon="6.68599">
        <ele>1032</ele>
        <time>2021-06-26T10:48:26Z</time>
      </trkpt>
      <trkpt lat="46.19079" lon="6.68594">
        <ele>1032.2</ele>
        <time>2021-06-26T10:48:27Z</time>
      </trkpt>
      <trkpt lat="46.19077" lon="6.68589">
        <ele>1032.4</ele>
        <time>2021-06-26T10:48:28Z</time>
      </trkpt>
      <trkpt lat="46.19075" lon="6.68585">
        <ele>1032.4</ele>
        <time>2021-06-26T10:48:29Z</time>
      </trkpt>
      <trkpt lat="46.19072" lon="6.68581">
        <ele>1032.6</ele>
        <time>2021-06-26T10:48:30Z</time>
      </trkpt>
      <trkpt lat="46.1907" lon="6.68577">
        <ele>1033</ele>
        <time>2021-06-26T10:48:31Z</time>
      </trkpt>
      <trkpt lat="46.19068" lon="6.68573">
        <ele>1033</ele>
        <time>2021-06-26T10:48:32Z</time>
      </trkpt>
      <trkpt lat="46.19066" lon="6.68569">
        <ele>1033.4</ele>
        <time>2021-06-26T10:48:33Z</time>
      </trkpt>
      <trkpt lat="46.19063" lon="6.68565">
        <ele>1033.4</ele>
        <time>2021-06-26T10:48:34Z</time>
      </trkpt>
      <trkpt lat="46.1906" lon="6.68562">
        <ele>1033.6</ele>
        <time>2021-06-26T10:48:35Z</time>
      </trkpt>
      <trkpt lat="46.19057" lon="6.68559">
        <ele>1033.8</ele>
        <time>2021-06-26T10:48:36Z</time>
      </trkpt>
      <trkpt lat="46.19054" lon="6.68556">
        <ele>1033.6</ele>
        <time>2021-06-26T10:48:37Z</time>
      </trkpt>
      <trkpt lat="46.19051" lon="6.68552">
        <ele>1033.6</ele>
        <time>2021-06-26T10:48:38Z</time>
      </trkpt>
      <trkpt lat="46.19047" lon="6.68549">
        <ele>1034</ele>
        <time>2021-06-26T10:48:39Z</time>
      </trkpt>
      <trkpt lat="46.19044" lon="6.68546">
        <ele>1034.2</ele>
        <time>2021-06-26T10:48:40Z</time>
      </trkpt>
      <trkpt lat="46.19041" lon="6.68543">
        <ele>1034.4</ele>
        <time>2021-06-26T10:48:41Z</time>
      </trkpt>
      <trkpt lat="46.19037" lon="6.6854">
        <ele>1034.8</ele>
        <time>2021-06-26T10:48:42Z</time>
      </trkpt>
      <trkpt lat="46.19033" lon="6.68537">
        <ele>1035</ele>
        <time>2021-06-26T10:48:43Z</time>
      </trkpt>
      <trkpt lat="46.1903" lon="6.68535">
        <ele>1035</ele>
        <time>2021-06-26T10:48:44Z</time>
      </trkpt>
      <trkpt lat="46.19026" lon="6.68532">
        <ele>1035.4</ele>
        <time>2021-06-26T10:48:45Z</time>
      </trkpt>
      <trkpt lat="46.19023" lon="6.68529">
        <ele>1035.6</ele>
        <time>2021-06-26T10:48:46Z</time>
      </trkpt>
      <trkpt lat="46.19019" lon="6.68526">
        <ele>1036</ele>
        <time>2021-06-26T10:48:47Z</time>
      </trkpt>
      <trkpt lat="46.19016" lon="6.68523">
        <ele>1036.2</ele>
        <time>2021-06-26T10:48:48Z</time>
      </trkpt>
      <trkpt lat="46.19012" lon="6.68521">
        <ele>1036.2</ele>
        <time>2021-06-26T10:48:49Z</time>
      </trkpt>
      <trkpt lat="46.19008" lon="6.68518">
        <ele>1036.4</ele>
        <time>2021-06-26T10:48:50Z</time>
      </trkpt>
      <trkpt lat="46.19005" lon="6.68516">
        <ele>1036.6</ele>
        <time>2021-06-26T10:48:51Z</time>
      </trkpt>
      <trkpt lat="46.19002" lon="6.68513">
        <ele>1036.6</ele>
        <time>2021-06-26T10:48:52Z</time>
      </trkpt>
      <trkpt lat="46.18998" lon="6.6851">
        <ele>1037</ele>
        <time>2021-06-26T10:48:53Z</time>
      </trkpt>
      <trkpt lat="46.18994" lon="6.68508">
        <ele>1037.2</ele>
        <time>2021-06-26T10:48:54Z</time>
      </trkpt>
      <trkpt lat="46.18991" lon="6.68505">
        <ele>1037.6</ele>
        <time>2021-06-26T10:48:55Z</time>
      </trkpt>
      <trkpt lat="46.18988" lon="6.68503">
        <ele>1037.6</ele>
        <time>2021-06-26T10:48:56Z</time>
      </trkpt>
      <trkpt lat="46.18984" lon="6.68501">
        <ele>1037.8</ele>
        <time>2021-06-26T10:48:57Z</time>
      </trkpt>
      <trkpt lat="46.18981" lon="6.68498">
        <ele>1038</ele>
        <time>2021-06-26T10:48:58Z</time>
      </trkpt>
      <trkpt lat="46.18978" lon="6.68496">
        <ele>1038</ele>
        <time>2021-06-26T10:48:59Z</time>
      </trkpt>
      <trkpt lat="46.18974" lon="6.68493">
        <ele>1038.4</ele>
        <time>2021-06-26T10:49:00Z</time>
      </trkpt>
      <trkpt lat="46.18971" lon="6.6849">
        <ele>1038.4</ele>
        <time>2021-06-26T10:49:01Z</time>
      </trkpt>
      <trkpt lat="46.18967" lon="6.68487">
        <ele>1038.4</ele>
        <time>2021-06-26T10:49:02Z</time>
      </trkpt>
      <trkpt lat="46.18964" lon="6.68485">
        <ele>1038.4</ele>
        <time>2021-06-26T10:49:03Z</time>
      </trkpt>
      <trkpt lat="46.1896" lon="6.68483">
        <ele>1038.8</ele>
        <time>2021-06-26T10:49:04Z</time>
      </trkpt>
      <trkpt lat="46.18957" lon="6.68481">
        <ele>1039.2</ele>
        <time>2021-06-26T10:49:05Z</time>
      </trkpt>
      <trkpt lat="46.18954" lon="6.68479">
        <ele>1039.6</ele>
        <time>2021-06-26T10:49:06Z</time>
      </trkpt>
      <trkpt lat="46.18951" lon="6.68476">
        <ele>1039.8</ele>
        <time>2021-06-26T10:49:07Z</time>
      </trkpt>
      <trkpt lat="46.18948" lon="6.68474">
        <ele>1040</ele>
        <time>2021-06-26T10:49:08Z</time>
      </trkpt>
      <trkpt lat="46.18944" lon="6.68471">
        <ele>1040.2</ele>
        <time>2021-06-26T10:49:09Z</time>
      </trkpt>
      <trkpt lat="46.18941" lon="6.68469">
        <ele>1040.4</ele>
        <time>2021-06-26T10:49:10Z</time>
      </trkpt>
      <trkpt lat="46.18938" lon="6.68467">
        <ele>1040.6</ele>
        <time>2021-06-26T10:49:11Z</time>
      </trkpt>
      <trkpt lat="46.18935" lon="6.68464">
        <ele>1040.6</ele>
        <time>2021-06-26T10:49:12Z</time>
      </trkpt>
      <trkpt lat="46.18931" lon="6.68462">
        <ele>1041.2</ele>
        <time>2021-06-26T10:49:13Z</time>
      </trkpt>
      <trkpt lat="46.18928" lon="6.6846">
        <ele>1041.4</ele>
        <time>2021-06-26T10:49:14Z</time>
      </trkpt>
      <trkpt lat="46.18925" lon="6.68457">
        <ele>1041.8</ele>
        <time>2021-06-26T10:49:15Z</time>
      </trkpt>
      <trkpt lat="46.18922" lon="6.68454">
        <ele>1042.2</ele>
        <time>2021-06-26T10:49:16Z</time>
      </trkpt>
      <trkpt lat="46.18919" lon="6.68452">
        <ele>1042.2</ele>
        <time>2021-06-26T10:49:17Z</time>
      </trkpt>
      <trkpt lat="46.18915" lon="6.68449">
        <ele>1042.6</ele>
        <time>2021-06-26T10:49:18Z</time>
      </trkpt>
      <trkpt lat="46.18912" lon="6.68446">
        <ele>1042.6</ele>
        <time>2021-06-26T10:49:19Z</time>
      </trkpt>
      <trkpt lat="46.18908" lon="6.68444">
        <ele>1042.6</ele>
        <time>2021-06-26T10:49:20Z</time>
      </trkpt>
      <trkpt lat="46.18905" lon="6.68441">
        <ele>1042.8</ele>
        <time>2021-06-26T10:49:21Z</time>
      </trkpt>
      <trkpt lat="46.18902" lon="6.68439">
        <ele>1043.2</ele>
        <time>2021-06-26T10:49:22Z</time>
      </trkpt>
      <trkpt lat="46.18899" lon="6.68437">
        <ele>1043.2</ele>
        <time>2021-06-26T10:49:23Z</time>
      </trkpt>
      <trkpt lat="46.18897" lon="6.68435">
        <ele>1043.2</ele>
        <time>2021-06-26T10:49:24Z</time>
      </trkpt>
      <trkpt lat="46.18893" lon="6.68433">
        <ele>1043.4</ele>
        <time>2021-06-26T10:49:25Z</time>
      </trkpt>
      <trkpt lat="46.1889" lon="6.68431">
        <ele>1043.6</ele>
        <time>2021-06-26T10:49:26Z</time>
      </trkpt>
      <trkpt lat="46.18887" lon="6.68429">
        <ele>1043.8</ele>
        <time>2021-06-26T10:49:27Z</time>
      </trkpt>
      <trkpt lat="46.18883" lon="6.68425">
        <ele>1044</ele>
        <time>2021-06-26T10:49:28Z</time>
      </trkpt>
      <trkpt lat="46.18879" lon="6.68422">
        <ele>1044.2</ele>
        <time>2021-06-26T10:49:29Z</time>
      </trkpt>
      <trkpt lat="46.18876" lon="6.6842">
        <ele>1044.2</ele>
        <time>2021-06-26T10:49:30Z</time>
      </trkpt>
      <trkpt lat="46.18873" lon="6.68417">
        <ele>1044.4</ele>
        <time>2021-06-26T10:49:31Z</time>
      </trkpt>
      <trkpt lat="46.18869" lon="6.68415">
        <ele>1044.4</ele>
        <time>2021-06-26T10:49:32Z</time>
      </trkpt>
      <trkpt lat="46.18866" lon="6.68412">
        <ele>1044.8</ele>
        <time>2021-06-26T10:49:33Z</time>
      </trkpt>
      <trkpt lat="46.18863" lon="6.6841">
        <ele>1045</ele>
        <time>2021-06-26T10:49:34Z</time>
      </trkpt>
      <trkpt lat="46.1886" lon="6.68407">
        <ele>1045.2</ele>
        <time>2021-06-26T10:49:35Z</time>
      </trkpt>
      <trkpt lat="46.18857" lon="6.68406">
        <ele>1045.6</ele>
        <time>2021-06-26T10:49:36Z</time>
      </trkpt>
      <trkpt lat="46.18854" lon="6.68404">
        <ele>1045.8</ele>
        <time>2021-06-26T10:49:37Z</time>
      </trkpt>
      <trkpt lat="46.18851" lon="6.68402">
        <ele>1045.8</ele>
        <time>2021-06-26T10:49:38Z</time>
      </trkpt>
      <trkpt lat="46.18848" lon="6.68399">
        <ele>1046</ele>
        <time>2021-06-26T10:49:39Z</time>
      </trkpt>
      <trkpt lat="46.18845" lon="6.68398">
        <ele>1046</ele>
        <time>2021-06-26T10:49:40Z</time>
      </trkpt>
      <trkpt lat="46.18843" lon="6.68396">
        <ele>1046.6</ele>
        <time>2021-06-26T10:49:41Z</time>
      </trkpt>
      <trkpt lat="46.1884" lon="6.68394">
        <ele>1046.8</ele>
        <time>2021-06-26T10:49:42Z</time>
      </trkpt>
      <trkpt lat="46.18837" lon="6.68391">
        <ele>1047</ele>
        <time>2021-06-26T10:49:43Z</time>
      </trkpt>
      <trkpt lat="46.18833" lon="6.68387">
        <ele>1047.2</ele>
        <time>2021-06-26T10:49:44Z</time>
      </trkpt>
      <trkpt lat="46.1883" lon="6.68384">
        <ele>1047.2</ele>
        <time>2021-06-26T10:49:45Z</time>
      </trkpt>
      <trkpt lat="46.18826" lon="6.68381">
        <ele>1047.2</ele>
        <time>2021-06-26T10:49:46Z</time>
      </trkpt>
      <trkpt lat="46.18823" lon="6.68378">
        <ele>1047.4</ele>
        <time>2021-06-26T10:49:47Z</time>
      </trkpt>
      <trkpt lat="46.18819" lon="6.68376">
        <ele>1047.4</ele>
        <time>2021-06-26T10:49:48Z</time>
      </trkpt>
      <trkpt lat="46.18816" lon="6.68374">
        <ele>1047.6</ele>
        <time>2021-06-26T10:49:49Z</time>
      </trkpt>
      <trkpt lat="46.18813" lon="6.68373">
        <ele>1047.8</ele>
        <time>2021-06-26T10:49:50Z</time>
      </trkpt>
      <trkpt lat="46.1881" lon="6.68372">
        <ele>1048.2</ele>
        <time>2021-06-26T10:49:51Z</time>
      </trkpt>
      <trkpt lat="46.18807" lon="6.68371">
        <ele>1048.4</ele>
        <time>2021-06-26T10:49:52Z</time>
      </trkpt>
      <trkpt lat="46.18804" lon="6.68369">
        <ele>1048.8</ele>
        <time>2021-06-26T10:49:53Z</time>
      </trkpt>
      <trkpt lat="46.188" lon="6.68366">
        <ele>1048.8</ele>
        <time>2021-06-26T10:49:54Z</time>
      </trkpt>
      <trkpt lat="46.18796" lon="6.68363">
        <ele>1049</ele>
        <time>2021-06-26T10:49:55Z</time>
      </trkpt>
      <trkpt lat="46.18793" lon="6.6836">
        <ele>1049.2</ele>
        <time>2021-06-26T10:49:56Z</time>
      </trkpt>
      <trkpt lat="46.18789" lon="6.68357">
        <ele>1049.2</ele>
        <time>2021-06-26T10:49:57Z</time>
      </trkpt>
      <trkpt lat="46.18785" lon="6.68353">
        <ele>1049.4</ele>
        <time>2021-06-26T10:49:58Z</time>
      </trkpt>
      <trkpt lat="46.18782" lon="6.68351">
        <ele>1049.6</ele>
        <time>2021-06-26T10:49:59Z</time>
      </trkpt>
      <trkpt lat="46.18778" lon="6.68348">
        <ele>1050</ele>
        <time>2021-06-26T10:50:00Z</time>
      </trkpt>
      <trkpt lat="46.18775" lon="6.68345">
        <ele>1050.2</ele>
        <time>2021-06-26T10:50:01Z</time>
      </trkpt>
      <trkpt lat="46.18771" lon="6.68342">
        <ele>1050.6</ele>
        <time>2021-06-26T10:50:02Z</time>
      </trkpt>
      <trkpt lat="46.18768" lon="6.6834">
        <ele>1050.8</ele>
        <time>2021-06-26T10:50:03Z</time>
      </trkpt>
      <trkpt lat="46.18764" lon="6.68338">
        <ele>1050.8</ele>
        <time>2021-06-26T10:50:04Z</time>
      </trkpt>
      <trkpt lat="46.18761" lon="6.68335">
        <ele>1051</ele>
        <time>2021-06-26T10:50:05Z</time>
      </trkpt>
      <trkpt lat="46.18758" lon="6.68333">
        <ele>1051.2</ele>
        <time>2021-06-26T10:50:06Z</time>
      </trkpt>
      <trkpt lat="46.18754" lon="6.68331">
        <ele>1051.4</ele>
        <time>2021-06-26T10:50:07Z</time>
      </trkpt>
      <trkpt lat="46.18751" lon="6.68329">
        <ele>1051.6</ele>
        <time>2021-06-26T10:50:08Z</time>
      </trkpt>
      <trkpt lat="46.18747" lon="6.68327">
        <ele>1051.6</ele>
        <time>2021-06-26T10:50:09Z</time>
      </trkpt>
      <trkpt lat="46.18744" lon="6.68325">
        <ele>1051.8</ele>
        <time>2021-06-26T10:50:10Z</time>
      </trkpt>
      <trkpt lat="46.18741" lon="6.68323">
        <ele>1052</ele>
        <time>2021-06-26T10:50:11Z</time>
      </trkpt>
      <trkpt lat="46.18738" lon="6.68322">
        <ele>1052.2</ele>
        <time>2021-06-26T10:50:12Z</time>
      </trkpt>
      <trkpt lat="46.18735" lon="6.6832">
        <ele>1052.4</ele>
        <time>2021-06-26T10:50:13Z</time>
      </trkpt>
      <trkpt lat="46.18732" lon="6.68318">
        <ele>1052.8</ele>
        <time>2021-06-26T10:50:14Z</time>
      </trkpt>
      <trkpt lat="46.18728" lon="6.68316">
        <ele>1053</ele>
        <time>2021-06-26T10:50:15Z</time>
      </trkpt>
      <trkpt lat="46.18725" lon="6.68314">
        <ele>1053.2</ele>
        <time>2021-06-26T10:50:16Z</time>
      </trkpt>
      <trkpt lat="46.18721" lon="6.68312">
        <ele>1053.4</ele>
        <time>2021-06-26T10:50:17Z</time>
      </trkpt>
      <trkpt lat="46.18717" lon="6.68309">
        <ele>1053.6</ele>
        <time>2021-06-26T10:50:18Z</time>
      </trkpt>
      <trkpt lat="46.18714" lon="6.68307">
        <ele>1053.8</ele>
        <time>2021-06-26T10:50:19Z</time>
      </trkpt>
      <trkpt lat="46.1871" lon="6.68304">
        <ele>1054</ele>
        <time>2021-06-26T10:50:20Z</time>
      </trkpt>
      <trkpt lat="46.18707" lon="6.68302">
        <ele>1054.4</ele>
        <time>2021-06-26T10:50:21Z</time>
      </trkpt>
      <trkpt lat="46.18703" lon="6.683">
        <ele>1054.6</ele>
        <time>2021-06-26T10:50:22Z</time>
      </trkpt>
      <trkpt lat="46.187" lon="6.68297">
        <ele>1054.8</ele>
        <time>2021-06-26T10:50:23Z</time>
      </trkpt>
      <trkpt lat="46.18696" lon="6.68295">
        <ele>1055</ele>
        <time>2021-06-26T10:50:24Z</time>
      </trkpt>
      <trkpt lat="46.18693" lon="6.68292">
        <ele>1055.4</ele>
        <time>2021-06-26T10:50:25Z</time>
      </trkpt>
      <trkpt lat="46.18689" lon="6.6829">
        <ele>1055.2</ele>
        <time>2021-06-26T10:50:26Z</time>
      </trkpt>
      <trkpt lat="46.18685" lon="6.68287">
        <ele>1055.6</ele>
        <time>2021-06-26T10:50:27Z</time>
      </trkpt>
      <trkpt lat="46.18682" lon="6.68285">
        <ele>1055.8</ele>
        <time>2021-06-26T10:50:28Z</time>
      </trkpt>
      <trkpt lat="46.18678" lon="6.68283">
        <ele>1056</ele>
        <time>2021-06-26T10:50:29Z</time>
      </trkpt>
      <trkpt lat="46.18675" lon="6.6828">
        <ele>1056.2</ele>
        <time>2021-06-26T10:50:30Z</time>
      </trkpt>
      <trkpt lat="46.18671" lon="6.68278">
        <ele>1056.6</ele>
        <time>2021-06-26T10:50:31Z</time>
      </trkpt>
      <trkpt lat="46.18667" lon="6.68275">
        <ele>1056.6</ele>
        <time>2021-06-26T10:50:32Z</time>
      </trkpt>
      <trkpt lat="46.18664" lon="6.68273">
        <ele>1056.6</ele>
        <time>2021-06-26T10:50:33Z</time>
      </trkpt>
      <trkpt lat="46.1866" lon="6.68271">
        <ele>1056.8</ele>
        <time>2021-06-26T10:50:34Z</time>
      </trkpt>
      <trkpt lat="46.18656" lon="6.68269">
        <ele>1057</ele>
        <time>2021-06-26T10:50:35Z</time>
      </trkpt>
      <trkpt lat="46.18652" lon="6.68267">
        <ele>1057.2</ele>
        <time>2021-06-26T10:50:36Z</time>
      </trkpt>
      <trkpt lat="46.18648" lon="6.68265">
        <ele>1057.4</ele>
        <time>2021-06-26T10:50:37Z</time>
      </trkpt>
      <trkpt lat="46.18644" lon="6.68264">
        <ele>1057.6</ele>
        <time>2021-06-26T10:50:38Z</time>
      </trkpt>
      <trkpt lat="46.1864" lon="6.68263">
        <ele>1057.8</ele>
        <time>2021-06-26T10:50:39Z</time>
      </trkpt>
      <trkpt lat="46.18636" lon="6.68262">
        <ele>1058</ele>
        <time>2021-06-26T10:50:40Z</time>
      </trkpt>
      <trkpt lat="46.18631" lon="6.68261">
        <ele>1058.2</ele>
        <time>2021-06-26T10:50:41Z</time>
      </trkpt>
      <trkpt lat="46.18627" lon="6.68261">
        <ele>1058.4</ele>
        <time>2021-06-26T10:50:42Z</time>
      </trkpt>
      <trkpt lat="46.18623" lon="6.6826">
        <ele>1058.6</ele>
        <time>2021-06-26T10:50:43Z</time>
      </trkpt>
      <trkpt lat="46.18618" lon="6.6826">
        <ele>1059</ele>
        <time>2021-06-26T10:50:44Z</time>
      </trkpt>
      <trkpt lat="46.18614" lon="6.68259">
        <ele>1059.2</ele>
        <time>2021-06-26T10:50:45Z</time>
      </trkpt>
      <trkpt lat="46.1861" lon="6.68258">
        <ele>1059.4</ele>
        <time>2021-06-26T10:50:46Z</time>
      </trkpt>
      <trkpt lat="46.18606" lon="6.68258">
        <ele>1059.8</ele>
        <time>2021-06-26T10:50:47Z</time>
      </trkpt>
      <trkpt lat="46.18602" lon="6.68258">
        <ele>1059.8</ele>
        <time>2021-06-26T10:50:48Z</time>
      </trkpt>
      <trkpt lat="46.18598" lon="6.68258">
        <ele>1060</ele>
        <time>2021-06-26T10:50:49Z</time>
      </trkpt>
      <trkpt lat="46.18594" lon="6.68257">
        <ele>1060.2</ele>
        <time>2021-06-26T10:50:50Z</time>
      </trkpt>
      <trkpt lat="46.1859" lon="6.68257">
        <ele>1060.2</ele>
        <time>2021-06-26T10:50:51Z</time>
      </trkpt>
      <trkpt lat="46.18586" lon="6.68257">
        <ele>1060.4</ele>
        <time>2021-06-26T10:50:52Z</time>
      </trkpt>
      <trkpt lat="46.18582" lon="6.68256">
        <ele>1060.6</ele>
        <time>2021-06-26T10:50:53Z</time>
      </trkpt>
      <trkpt lat="46.18578" lon="6.68256">
        <ele>1060.6</ele>
        <time>2021-06-26T10:50:54Z</time>
      </trkpt>
      <trkpt lat="46.18574" lon="6.68255">
        <ele>1061</ele>
        <time>2021-06-26T10:50:55Z</time>
      </trkpt>
      <trkpt lat="46.1857" lon="6.68255">
        <ele>1061.2</ele>
        <time>2021-06-26T10:50:56Z</time>
      </trkpt>
      <trkpt lat="46.18566" lon="6.68254">
        <ele>1061.4</ele>
        <time>2021-06-26T10:50:57Z</time>
      </trkpt>
      <trkpt lat="46.18562" lon="6.68253">
        <ele>1061.6</ele>
        <time>2021-06-26T10:50:58Z</time>
      </trkpt>
      <trkpt lat="46.18557" lon="6.68252">
        <ele>1062</ele>
        <time>2021-06-26T10:50:59Z</time>
      </trkpt>
      <trkpt lat="46.18553" lon="6.68251">
        <ele>1062</ele>
        <time>2021-06-26T10:51:00Z</time>
      </trkpt>
      <trkpt lat="46.18549" lon="6.68249">
        <ele>1062.2</ele>
        <time>2021-06-26T10:51:01Z</time>
      </trkpt>
      <trkpt lat="46.18545" lon="6.68247">
        <ele>1062.4</ele>
        <time>2021-06-26T10:51:02Z</time>
      </trkpt>
      <trkpt lat="46.18542" lon="6.68246">
        <ele>1062.6</ele>
        <time>2021-06-26T10:51:03Z</time>
      </trkpt>
      <trkpt lat="46.18538" lon="6.68244">
        <ele>1062.6</ele>
        <time>2021-06-26T10:51:04Z</time>
      </trkpt>
      <trkpt lat="46.18534" lon="6.68242">
        <ele>1063</ele>
        <time>2021-06-26T10:51:05Z</time>
      </trkpt>
      <trkpt lat="46.18531" lon="6.68241">
        <ele>1063</ele>
        <time>2021-06-26T10:51:06Z</time>
      </trkpt>
      <trkpt lat="46.18527" lon="6.68239">
        <ele>1063.2</ele>
        <time>2021-06-26T10:51:07Z</time>
      </trkpt>
      <trkpt lat="46.18524" lon="6.68237">
        <ele>1063.4</ele>
        <time>2021-06-26T10:51:08Z</time>
      </trkpt>
      <trkpt lat="46.1852" lon="6.68235">
        <ele>1063.6</ele>
        <time>2021-06-26T10:51:09Z</time>
      </trkpt>
      <trkpt lat="46.18516" lon="6.68233">
        <ele>1063.8</ele>
        <time>2021-06-26T10:51:10Z</time>
      </trkpt>
      <trkpt lat="46.18513" lon="6.68231">
        <ele>1064.2</ele>
        <time>2021-06-26T10:51:11Z</time>
      </trkpt>
      <trkpt lat="46.18509" lon="6.68228">
        <ele>1064.2</ele>
        <time>2021-06-26T10:51:12Z</time>
      </trkpt>
      <trkpt lat="46.18505" lon="6.68225">
        <ele>1064.4</ele>
        <time>2021-06-26T10:51:13Z</time>
      </trkpt>
      <trkpt lat="46.18501" lon="6.68222">
        <ele>1064.6</ele>
        <time>2021-06-26T10:51:14Z</time>
      </trkpt>
      <trkpt lat="46.18497" lon="6.68219">
        <ele>1065</ele>
        <time>2021-06-26T10:51:15Z</time>
      </trkpt>
      <trkpt lat="46.18493" lon="6.68217">
        <ele>1065.2</ele>
        <time>2021-06-26T10:51:16Z</time>
      </trkpt>
      <trkpt lat="46.18489" lon="6.68214">
        <ele>1065.2</ele>
        <time>2021-06-26T10:51:17Z</time>
      </trkpt>
      <trkpt lat="46.18486" lon="6.68211">
        <ele>1065.4</ele>
        <time>2021-06-26T10:51:18Z</time>
      </trkpt>
      <trkpt lat="46.18481" lon="6.68208">
        <ele>1065.6</ele>
        <time>2021-06-26T10:51:19Z</time>
      </trkpt>
      <trkpt lat="46.18478" lon="6.68205">
        <ele>1065.8</ele>
        <time>2021-06-26T10:51:20Z</time>
      </trkpt>
      <trkpt lat="46.18474" lon="6.68203">
        <ele>1065.8</ele>
        <time>2021-06-26T10:51:21Z</time>
      </trkpt>
      <trkpt lat="46.1847" lon="6.682">
        <ele>1065.8</ele>
        <time>2021-06-26T10:51:22Z</time>
      </trkpt>
      <trkpt lat="46.18466" lon="6.68197">
        <ele>1066</ele>
        <time>2021-06-26T10:51:23Z</time>
      </trkpt>
      <trkpt lat="46.18462" lon="6.68195">
        <ele>1066.2</ele>
        <time>2021-06-26T10:51:24Z</time>
      </trkpt>
      <trkpt lat="46.18458" lon="6.68193">
        <ele>1066.4</ele>
        <time>2021-06-26T10:51:25Z</time>
      </trkpt>
      <trkpt lat="46.18454" lon="6.68191">
        <ele>1066.8</ele>
        <time>2021-06-26T10:51:26Z</time>
      </trkpt>
      <trkpt lat="46.18451" lon="6.68188">
        <ele>1067</ele>
        <time>2021-06-26T10:51:27Z</time>
      </trkpt>
      <trkpt lat="46.18447" lon="6.68186">
        <ele>1067.2</ele>
        <time>2021-06-26T10:51:28Z</time>
      </trkpt>
      <trkpt lat="46.18443" lon="6.68184">
        <ele>1067.4</ele>
        <time>2021-06-26T10:51:29Z</time>
      </trkpt>
      <trkpt lat="46.18439" lon="6.68181">
        <ele>1067.4</ele>
        <time>2021-06-26T10:51:30Z</time>
      </trkpt>
      <trkpt lat="46.18436" lon="6.68179">
        <ele>1067.6</ele>
        <time>2021-06-26T10:51:31Z</time>
      </trkpt>
      <trkpt lat="46.18432" lon="6.68177">
        <ele>1067.8</ele>
        <time>2021-06-26T10:51:32Z</time>
      </trkpt>
      <trkpt lat="46.18428" lon="6.68174">
        <ele>1068</ele>
        <time>2021-06-26T10:51:33Z</time>
      </trkpt>
      <trkpt lat="46.18425" lon="6.68172">
        <ele>1068.2</ele>
        <time>2021-06-26T10:51:34Z</time>
      </trkpt>
      <trkpt lat="46.18421" lon="6.6817">
        <ele>1068.8</ele>
        <time>2021-06-26T10:51:35Z</time>
      </trkpt>
      <trkpt lat="46.18417" lon="6.68168">
        <ele>1069</ele>
        <time>2021-06-26T10:51:36Z</time>
      </trkpt>
      <trkpt lat="46.18412" lon="6.68166">
        <ele>1069.4</ele>
        <time>2021-06-26T10:51:37Z</time>
      </trkpt>
      <trkpt lat="46.18408" lon="6.68164">
        <ele>1069.6</ele>
        <time>2021-06-26T10:51:38Z</time>
      </trkpt>
      <trkpt lat="46.18403" lon="6.68161">
        <ele>1069.8</ele>
        <time>2021-06-26T10:51:39Z</time>
      </trkpt>
      <trkpt lat="46.18399" lon="6.68158">
        <ele>1069.8</ele>
        <time>2021-06-26T10:51:40Z</time>
      </trkpt>
      <trkpt lat="46.18395" lon="6.68156">
        <ele>1070.2</ele>
        <time>2021-06-26T10:51:41Z</time>
      </trkpt>
      <trkpt lat="46.18391" lon="6.68154">
        <ele>1070.4</ele>
        <time>2021-06-26T10:51:42Z</time>
      </trkpt>
      <trkpt lat="46.18387" lon="6.68152">
        <ele>1070.4</ele>
        <time>2021-06-26T10:51:43Z</time>
      </trkpt>
      <trkpt lat="46.18383" lon="6.68151">
        <ele>1070.6</ele>
        <time>2021-06-26T10:51:44Z</time>
      </trkpt>
      <trkpt lat="46.18379" lon="6.68149">
        <ele>1071</ele>
        <time>2021-06-26T10:51:45Z</time>
      </trkpt>
      <trkpt lat="46.18375" lon="6.68147">
        <ele>1071</ele>
        <time>2021-06-26T10:51:46Z</time>
      </trkpt>
      <trkpt lat="46.18371" lon="6.68146">
        <ele>1071.2</ele>
        <time>2021-06-26T10:51:47Z</time>
      </trkpt>
      <trkpt lat="46.18367" lon="6.68144">
        <ele>1071.4</ele>
        <time>2021-06-26T10:51:48Z</time>
      </trkpt>
      <trkpt lat="46.18363" lon="6.68144">
        <ele>1071.8</ele>
        <time>2021-06-26T10:51:49Z</time>
      </trkpt>
      <trkpt lat="46.18359" lon="6.68143">
        <ele>1072.4</ele>
        <time>2021-06-26T10:51:50Z</time>
      </trkpt>
      <trkpt lat="46.18355" lon="6.68142">
        <ele>1072.4</ele>
        <time>2021-06-26T10:51:51Z</time>
      </trkpt>
      <trkpt lat="46.18351" lon="6.68142">
        <ele>1072.8</ele>
        <time>2021-06-26T10:51:52Z</time>
      </trkpt>
      <trkpt lat="46.18347" lon="6.68142">
        <ele>1073</ele>
        <time>2021-06-26T10:51:53Z</time>
      </trkpt>
      <trkpt lat="46.18343" lon="6.68142">
        <ele>1073.2</ele>
        <time>2021-06-26T10:51:54Z</time>
      </trkpt>
      <trkpt lat="46.18338" lon="6.68142">
        <ele>1073.6</ele>
        <time>2021-06-26T10:51:55Z</time>
      </trkpt>
      <trkpt lat="46.18334" lon="6.68142">
        <ele>1073.8</ele>
        <time>2021-06-26T10:51:56Z</time>
      </trkpt>
      <trkpt lat="46.1833" lon="6.68143">
        <ele>1074</ele>
        <time>2021-06-26T10:51:57Z</time>
      </trkpt>
      <trkpt lat="46.18326" lon="6.68144">
        <ele>1074.2</ele>
        <time>2021-06-26T10:51:58Z</time>
      </trkpt>
      <trkpt lat="46.18322" lon="6.68145">
        <ele>1074.6</ele>
        <time>2021-06-26T10:51:59Z</time>
      </trkpt>
      <trkpt lat="46.18318" lon="6.68146">
        <ele>1074.6</ele>
        <time>2021-06-26T10:52:00Z</time>
      </trkpt>
      <trkpt lat="46.18314" lon="6.68147">
        <ele>1074.8</ele>
        <time>2021-06-26T10:52:01Z</time>
      </trkpt>
      <trkpt lat="46.1831" lon="6.68148">
        <ele>1075</ele>
        <time>2021-06-26T10:52:02Z</time>
      </trkpt>
      <trkpt lat="46.18306" lon="6.68149">
        <ele>1075</ele>
        <time>2021-06-26T10:52:03Z</time>
      </trkpt>
      <trkpt lat="46.18302" lon="6.6815">
        <ele>1075.2</ele>
        <time>2021-06-26T10:52:04Z</time>
      </trkpt>
      <trkpt lat="46.18297" lon="6.68152">
        <ele>1075.4</ele>
        <time>2021-06-26T10:52:05Z</time>
      </trkpt>
      <trkpt lat="46.18293" lon="6.68153">
        <ele>1075.6</ele>
        <time>2021-06-26T10:52:06Z</time>
      </trkpt>
      <trkpt lat="46.18289" lon="6.68155">
        <ele>1075.8</ele>
        <time>2021-06-26T10:52:07Z</time>
      </trkpt>
      <trkpt lat="46.18286" lon="6.68157">
        <ele>1076</ele>
        <time>2021-06-26T10:52:08Z</time>
      </trkpt>
      <trkpt lat="46.18282" lon="6.6816">
        <ele>1076.2</ele>
        <time>2021-06-26T10:52:09Z</time>
      </trkpt>
      <trkpt lat="46.18278" lon="6.68163">
        <ele>1076.4</ele>
        <time>2021-06-26T10:52:10Z</time>
      </trkpt>
      <trkpt lat="46.18274" lon="6.68165">
        <ele>1076.6</ele>
        <time>2021-06-26T10:52:11Z</time>
      </trkpt>
      <trkpt lat="46.1827" lon="6.68169">
        <ele>1076.6</ele>
        <time>2021-06-26T10:52:12Z</time>
      </trkpt>
      <trkpt lat="46.18267" lon="6.68172">
        <ele>1076.8</ele>
        <time>2021-06-26T10:52:13Z</time>
      </trkpt>
      <trkpt lat="46.18263" lon="6.68175">
        <ele>1076.8</ele>
        <time>2021-06-26T10:52:14Z</time>
      </trkpt>
      <trkpt lat="46.18259" lon="6.68178">
        <ele>1077</ele>
        <time>2021-06-26T10:52:15Z</time>
      </trkpt>
      <trkpt lat="46.18255" lon="6.68182">
        <ele>1077</ele>
        <time>2021-06-26T10:52:16Z</time>
      </trkpt>
      <trkpt lat="46.18252" lon="6.68185">
        <ele>1077.2</ele>
        <time>2021-06-26T10:52:17Z</time>
      </trkpt>
      <trkpt lat="46.18248" lon="6.68188">
        <ele>1077.6</ele>
        <time>2021-06-26T10:52:18Z</time>
      </trkpt>
      <trkpt lat="46.18244" lon="6.68191">
        <ele>1077.8</ele>
        <time>2021-06-26T10:52:19Z</time>
      </trkpt>
      <trkpt lat="46.1824" lon="6.68194">
        <ele>1078.2</ele>
        <time>2021-06-26T10:52:20Z</time>
      </trkpt>
      <trkpt lat="46.18237" lon="6.68198">
        <ele>1078.4</ele>
        <time>2021-06-26T10:52:21Z</time>
      </trkpt>
      <trkpt lat="46.18234" lon="6.68201">
        <ele>1078.6</ele>
        <time>2021-06-26T10:52:22Z</time>
      </trkpt>
      <trkpt lat="46.1823" lon="6.68205">
        <ele>1078.8</ele>
        <time>2021-06-26T10:52:23Z</time>
      </trkpt>
      <trkpt lat="46.18227" lon="6.68208">
        <ele>1079.4</ele>
        <time>2021-06-26T10:52:24Z</time>
      </trkpt>
      <trkpt lat="46.18224" lon="6.68212">
        <ele>1079.6</ele>
        <time>2021-06-26T10:52:25Z</time>
      </trkpt>
      <trkpt lat="46.18221" lon="6.68215">
        <ele>1079.6</ele>
        <time>2021-06-26T10:52:26Z</time>
      </trkpt>
      <trkpt lat="46.18218" lon="6.68219">
        <ele>1079.8</ele>
        <time>2021-06-26T10:52:27Z</time>
      </trkpt>
      <trkpt lat="46.18215" lon="6.68223">
        <ele>1080.2</ele>
        <time>2021-06-26T10:52:28Z</time>
      </trkpt>
      <trkpt lat="46.18212" lon="6.68227">
        <ele>1080.2</ele>
        <time>2021-06-26T10:52:29Z</time>
      </trkpt>
      <trkpt lat="46.18208" lon="6.6823">
        <ele>1080.6</ele>
        <time>2021-06-26T10:52:30Z</time>
      </trkpt>
      <trkpt lat="46.18205" lon="6.68234">
        <ele>1081</ele>
        <time>2021-06-26T10:52:31Z</time>
      </trkpt>
      <trkpt lat="46.18202" lon="6.68237">
        <ele>1081.4</ele>
        <time>2021-06-26T10:52:32Z</time>
      </trkpt>
      <trkpt lat="46.18199" lon="6.6824">
        <ele>1081.6</ele>
        <time>2021-06-26T10:52:33Z</time>
      </trkpt>
      <trkpt lat="46.18195" lon="6.68242">
        <ele>1081.6</ele>
        <time>2021-06-26T10:52:34Z</time>
      </trkpt>
      <trkpt lat="46.18192" lon="6.68244">
        <ele>1082</ele>
        <time>2021-06-26T10:52:35Z</time>
      </trkpt>
      <trkpt lat="46.18188" lon="6.68246">
        <ele>1082</ele>
        <time>2021-06-26T10:52:36Z</time>
      </trkpt>
      <trkpt lat="46.18185" lon="6.68247">
        <ele>1082</ele>
        <time>2021-06-26T10:52:37Z</time>
      </trkpt>
      <trkpt lat="46.18182" lon="6.68248">
        <ele>1082.4</ele>
        <time>2021-06-26T10:52:38Z</time>
      </trkpt>
      <trkpt lat="46.18178" lon="6.6825">
        <ele>1082.6</ele>
        <time>2021-06-26T10:52:39Z</time>
      </trkpt>
      <trkpt lat="46.18175" lon="6.6825">
        <ele>1082.8</ele>
        <time>2021-06-26T10:52:40Z</time>
      </trkpt>
      <trkpt lat="46.18171" lon="6.68252">
        <ele>1083</ele>
        <time>2021-06-26T10:52:41Z</time>
      </trkpt>
      <trkpt lat="46.18168" lon="6.68253">
        <ele>1083</ele>
        <time>2021-06-26T10:52:42Z</time>
      </trkpt>
      <trkpt lat="46.18164" lon="6.68254">
        <ele>1083.2</ele>
        <time>2021-06-26T10:52:43Z</time>
      </trkpt>
      <trkpt lat="46.18161" lon="6.68255">
        <ele>1083.6</ele>
        <time>2021-06-26T10:52:44Z</time>
      </trkpt>
      <trkpt lat="46.18158" lon="6.68257">
        <ele>1083.8</ele>
        <time>2021-06-26T10:52:45Z</time>
      </trkpt>
      <trkpt lat="46.18154" lon="6.68259">
        <ele>1084.2</ele>
        <time>2021-06-26T10:52:46Z</time>
      </trkpt>
      <trkpt lat="46.18151" lon="6.68261">
        <ele>1084.6</ele>
        <time>2021-06-26T10:52:47Z</time>
      </trkpt>
      <trkpt lat="46.18148" lon="6.68263">
        <ele>1084.6</ele>
        <time>2021-06-26T10:52:48Z</time>
      </trkpt>
      <trkpt lat="46.18144" lon="6.68266">
        <ele>1084.8</ele>
        <time>2021-06-26T10:52:49Z</time>
      </trkpt>
      <trkpt lat="46.18141" lon="6.68268">
        <ele>1085.2</ele>
        <time>2021-06-26T10:52:50Z</time>
      </trkpt>
      <trkpt lat="46.18138" lon="6.68271">
        <ele>1085.6</ele>
        <time>2021-06-26T10:52:51Z</time>
      </trkpt>
      <trkpt lat="46.18135" lon="6.68274">
        <ele>1085.8</ele>
        <time>2021-06-26T10:52:52Z</time>
      </trkpt>
      <trkpt lat="46.18132" lon="6.68277">
        <ele>1086</ele>
        <time>2021-06-26T10:52:53Z</time>
      </trkpt>
      <trkpt lat="46.18129" lon="6.6828">
        <ele>1086.2</ele>
        <time>2021-06-26T10:52:54Z</time>
      </trkpt>
      <trkpt lat="46.18126" lon="6.68282">
        <ele>1086.6</ele>
        <time>2021-06-26T10:52:55Z</time>
      </trkpt>
      <trkpt lat="46.18123" lon="6.68285">
        <ele>1086.6</ele>
        <time>2021-06-26T10:52:56Z</time>
      </trkpt>
      <trkpt lat="46.18119" lon="6.68286">
        <ele>1087</ele>
        <time>2021-06-26T10:52:57Z</time>
      </trkpt>
      <trkpt lat="46.18116" lon="6.68288">
        <ele>1087</ele>
        <time>2021-06-26T10:52:58Z</time>
      </trkpt>
      <trkpt lat="46.18113" lon="6.6829">
        <ele>1087.2</ele>
        <time>2021-06-26T10:52:59Z</time>
      </trkpt>
      <trkpt lat="46.18109" lon="6.68291">
        <ele>1087.4</ele>
        <time>2021-06-26T10:53:00Z</time>
      </trkpt>
      <trkpt lat="46.18106" lon="6.68292">
        <ele>1087.6</ele>
        <time>2021-06-26T10:53:01Z</time>
      </trkpt>
      <trkpt lat="46.18103" lon="6.68293">
        <ele>1087.8</ele>
        <time>2021-06-26T10:53:02Z</time>
      </trkpt>
      <trkpt lat="46.18099" lon="6.68294">
        <ele>1088.2</ele>
        <time>2021-06-26T10:53:03Z</time>
      </trkpt>
      <trkpt lat="46.18096" lon="6.68294">
        <ele>1088.4</ele>
        <time>2021-06-26T10:53:04Z</time>
      </trkpt>
      <trkpt lat="46.18092" lon="6.68295">
        <ele>1088.2</ele>
        <time>2021-06-26T10:53:05Z</time>
      </trkpt>
      <trkpt lat="46.18089" lon="6.68295">
        <ele>1088.4</ele>
        <time>2021-06-26T10:53:06Z</time>
      </trkpt>
      <trkpt lat="46.18085" lon="6.68295">
        <ele>1088.4</ele>
        <time>2021-06-26T10:53:07Z</time>
      </trkpt>
      <trkpt lat="46.18082" lon="6.68295">
        <ele>1088.8</ele>
        <time>2021-06-26T10:53:08Z</time>
      </trkpt>
      <trkpt lat="46.18078" lon="6.68296">
        <ele>1089.2</ele>
        <time>2021-06-26T10:53:09Z</time>
      </trkpt>
      <trkpt lat="46.18075" lon="6.68296">
        <ele>1089.4</ele>
        <time>2021-06-26T10:53:10Z</time>
      </trkpt>
      <trkpt lat="46.18071" lon="6.68297">
        <ele>1089.4</ele>
        <time>2021-06-26T10:53:11Z</time>
      </trkpt>
      <trkpt lat="46.18068" lon="6.68297">
        <ele>1089.6</ele>
        <time>2021-06-26T10:53:12Z</time>
      </trkpt>
      <trkpt lat="46.18064" lon="6.68298">
        <ele>1089.8</ele>
        <time>2021-06-26T10:53:13Z</time>
      </trkpt>
      <trkpt lat="46.18061" lon="6.68299">
        <ele>1090</ele>
        <time>2021-06-26T10:53:14Z</time>
      </trkpt>
      <trkpt lat="46.18057" lon="6.683">
        <ele>1090.2</ele>
        <time>2021-06-26T10:53:15Z</time>
      </trkpt>
      <trkpt lat="46.18054" lon="6.68301">
        <ele>1090.2</ele>
        <time>2021-06-26T10:53:16Z</time>
      </trkpt>
      <trkpt lat="46.1805" lon="6.68303">
        <ele>1090.6</ele>
        <time>2021-06-26T10:53:17Z</time>
      </trkpt>
      <trkpt lat="46.18047" lon="6.68304">
        <ele>1090.8</ele>
        <time>2021-06-26T10:53:18Z</time>
      </trkpt>
      <trkpt lat="46.18044" lon="6.68306">
        <ele>1091</ele>
        <time>2021-06-26T10:53:19Z</time>
      </trkpt>
      <trkpt lat="46.1804" lon="6.68308">
        <ele>1091</ele>
        <time>2021-06-26T10:53:20Z</time>
      </trkpt>
      <trkpt lat="46.18037" lon="6.6831">
        <ele>1091.4</ele>
        <time>2021-06-26T10:53:21Z</time>
      </trkpt>
      <trkpt lat="46.18034" lon="6.68312">
        <ele>1091.8</ele>
        <time>2021-06-26T10:53:22Z</time>
      </trkpt>
      <trkpt lat="46.18031" lon="6.68315">
        <ele>1092</ele>
        <time>2021-06-26T10:53:23Z</time>
      </trkpt>
      <trkpt lat="46.18028" lon="6.68317">
        <ele>1092.4</ele>
        <time>2021-06-26T10:53:24Z</time>
      </trkpt>
      <trkpt lat="46.18025" lon="6.68319">
        <ele>1092.6</ele>
        <time>2021-06-26T10:53:25Z</time>
      </trkpt>
      <trkpt lat="46.18021" lon="6.68322">
        <ele>1092.8</ele>
        <time>2021-06-26T10:53:26Z</time>
      </trkpt>
      <trkpt lat="46.18018" lon="6.68323">
        <ele>1093</ele>
        <time>2021-06-26T10:53:27Z</time>
      </trkpt>
      <trkpt lat="46.18015" lon="6.68325">
        <ele>1093.2</ele>
        <time>2021-06-26T10:53:28Z</time>
      </trkpt>
      <trkpt lat="46.18012" lon="6.68327">
        <ele>1093.2</ele>
        <time>2021-06-26T10:53:29Z</time>
      </trkpt>
      <trkpt lat="46.18008" lon="6.68328">
        <ele>1093.4</ele>
        <time>2021-06-26T10:53:30Z</time>
      </trkpt>
      <trkpt lat="46.18005" lon="6.6833">
        <ele>1093.8</ele>
        <time>2021-06-26T10:53:31Z</time>
      </trkpt>
      <trkpt lat="46.18002" lon="6.68331">
        <ele>1093.6</ele>
        <time>2021-06-26T10:53:32Z</time>
      </trkpt>
      <trkpt lat="46.17998" lon="6.68333">
        <ele>1093.6</ele>
        <time>2021-06-26T10:53:33Z</time>
      </trkpt>
      <trkpt lat="46.17995" lon="6.68334">
        <ele>1094</ele>
        <time>2021-06-26T10:53:34Z</time>
      </trkpt>
      <trkpt lat="46.17991" lon="6.68335">
        <ele>1094</ele>
        <time>2021-06-26T10:53:35Z</time>
      </trkpt>
      <trkpt lat="46.17988" lon="6.68336">
        <ele>1094.2</ele>
        <time>2021-06-26T10:53:36Z</time>
      </trkpt>
      <trkpt lat="46.17984" lon="6.68336">
        <ele>1094.6</ele>
        <time>2021-06-26T10:53:37Z</time>
      </trkpt>
      <trkpt lat="46.17981" lon="6.68337">
        <ele>1094.6</ele>
        <time>2021-06-26T10:53:38Z</time>
      </trkpt>
      <trkpt lat="46.17977" lon="6.68337">
        <ele>1095</ele>
        <time>2021-06-26T10:53:39Z</time>
      </trkpt>
      <trkpt lat="46.17974" lon="6.68338">
        <ele>1095</ele>
        <time>2021-06-26T10:53:40Z</time>
      </trkpt>
      <trkpt lat="46.1797" lon="6.68339">
        <ele>1095.4</ele>
        <time>2021-06-26T10:53:41Z</time>
      </trkpt>
      <trkpt lat="46.17967" lon="6.68339">
        <ele>1095.4</ele>
        <time>2021-06-26T10:53:42Z</time>
      </trkpt>
      <trkpt lat="46.17963" lon="6.6834">
        <ele>1095.6</ele>
        <time>2021-06-26T10:53:43Z</time>
      </trkpt>
      <trkpt lat="46.17959" lon="6.6834">
        <ele>1095.8</ele>
        <time>2021-06-26T10:53:44Z</time>
      </trkpt>
      <trkpt lat="46.17956" lon="6.6834">
        <ele>1096.2</ele>
        <time>2021-06-26T10:53:45Z</time>
      </trkpt>
      <trkpt lat="46.17952" lon="6.6834">
        <ele>1096.4</ele>
        <time>2021-06-26T10:53:46Z</time>
      </trkpt>
      <trkpt lat="46.17948" lon="6.6834">
        <ele>1096.6</ele>
        <time>2021-06-26T10:53:47Z</time>
      </trkpt>
      <trkpt lat="46.17945" lon="6.68339">
        <ele>1096.8</ele>
        <time>2021-06-26T10:53:48Z</time>
      </trkpt>
      <trkpt lat="46.17941" lon="6.68339">
        <ele>1096.8</ele>
        <time>2021-06-26T10:53:49Z</time>
      </trkpt>
      <trkpt lat="46.17937" lon="6.68338">
        <ele>1097.2</ele>
        <time>2021-06-26T10:53:50Z</time>
      </trkpt>
      <trkpt lat="46.17934" lon="6.68337">
        <ele>1097.4</ele>
        <time>2021-06-26T10:53:51Z</time>
      </trkpt>
      <trkpt lat="46.1793" lon="6.68335">
        <ele>1097.6</ele>
        <time>2021-06-26T10:53:52Z</time>
      </trkpt>
      <trkpt lat="46.17927" lon="6.68334">
        <ele>1097.6</ele>
        <time>2021-06-26T10:53:53Z</time>
      </trkpt>
      <trkpt lat="46.17923" lon="6.68332">
        <ele>1098</ele>
        <time>2021-06-26T10:53:54Z</time>
      </trkpt>
      <trkpt lat="46.1792" lon="6.68331">
        <ele>1098</ele>
        <time>2021-06-26T10:53:55Z</time>
      </trkpt>
      <trkpt lat="46.17917" lon="6.68329">
        <ele>1098</ele>
        <time>2021-06-26T10:53:56Z</time>
      </trkpt>
      <trkpt lat="46.17913" lon="6.68327">
        <ele>1098</ele>
        <time>2021-06-26T10:53:57Z</time>
      </trkpt>
      <trkpt lat="46.1791" lon="6.68326">
        <ele>1098.2</ele>
        <time>2021-06-26T10:53:58Z</time>
      </trkpt>
      <trkpt lat="46.17906" lon="6.68325">
        <ele>1098.2</ele>
        <time>2021-06-26T10:53:59Z</time>
      </trkpt>
      <trkpt lat="46.17903" lon="6.68323">
        <ele>1098.4</ele>
        <time>2021-06-26T10:54:00Z</time>
      </trkpt>
      <trkpt lat="46.17899" lon="6.68322">
        <ele>1098.8</ele>
        <time>2021-06-26T10:54:01Z</time>
      </trkpt>
      <trkpt lat="46.17896" lon="6.68322">
        <ele>1099</ele>
        <time>2021-06-26T10:54:02Z</time>
      </trkpt>
      <trkpt lat="46.17892" lon="6.68321">
        <ele>1099.2</ele>
        <time>2021-06-26T10:54:03Z</time>
      </trkpt>
      <trkpt lat="46.17889" lon="6.68321">
        <ele>1099.4</ele>
        <time>2021-06-26T10:54:04Z</time>
      </trkpt>
      <trkpt lat="46.17885" lon="6.6832">
        <ele>1099.6</ele>
        <time>2021-06-26T10:54:05Z</time>
      </trkpt>
      <trkpt lat="46.17882" lon="6.6832">
        <ele>1099.8</ele>
        <time>2021-06-26T10:54:06Z</time>
      </trkpt>
      <trkpt lat="46.17878" lon="6.6832">
        <ele>1100</ele>
        <time>2021-06-26T10:54:07Z</time>
      </trkpt>
      <trkpt lat="46.17875" lon="6.6832">
        <ele>1100.2</ele>
        <time>2021-06-26T10:54:08Z</time>
      </trkpt>
      <trkpt lat="46.17871" lon="6.6832">
        <ele>1100.2</ele>
        <time>2021-06-26T10:54:09Z</time>
      </trkpt>
      <trkpt lat="46.17867" lon="6.6832">
        <ele>1100.6</ele>
        <time>2021-06-26T10:54:10Z</time>
      </trkpt>
      <trkpt lat="46.17864" lon="6.68321">
        <ele>1100.8</ele>
        <time>2021-06-26T10:54:11Z</time>
      </trkpt>
      <trkpt lat="46.1786" lon="6.68321">
        <ele>1101.2</ele>
        <time>2021-06-26T10:54:12Z</time>
      </trkpt>
      <trkpt lat="46.17856" lon="6.68322">
        <ele>1101.6</ele>
        <time>2021-06-26T10:54:13Z</time>
      </trkpt>
      <trkpt lat="46.17852" lon="6.68322">
        <ele>1102</ele>
        <time>2021-06-26T10:54:14Z</time>
      </trkpt>
      <trkpt lat="46.17848" lon="6.68322">
        <ele>1102.2</ele>
        <time>2021-06-26T10:54:15Z</time>
      </trkpt>
      <trkpt lat="46.17844" lon="6.68322">
        <ele>1102.4</ele>
        <time>2021-06-26T10:54:16Z</time>
      </trkpt>
      <trkpt lat="46.1784" lon="6.68321">
        <ele>1102.8</ele>
        <time>2021-06-26T10:54:17Z</time>
      </trkpt>
      <trkpt lat="46.17836" lon="6.68321">
        <ele>1103</ele>
        <time>2021-06-26T10:54:18Z</time>
      </trkpt>
      <trkpt lat="46.17831" lon="6.6832">
        <ele>1103</ele>
        <time>2021-06-26T10:54:19Z</time>
      </trkpt>
      <trkpt lat="46.17827" lon="6.68319">
        <ele>1103</ele>
        <time>2021-06-26T10:54:20Z</time>
      </trkpt>
      <trkpt lat="46.17823" lon="6.68319">
        <ele>1103</ele>
        <time>2021-06-26T10:54:21Z</time>
      </trkpt>
      <trkpt lat="46.17819" lon="6.68318">
        <ele>1103.2</ele>
        <time>2021-06-26T10:54:22Z</time>
      </trkpt>
      <trkpt lat="46.17815" lon="6.68317">
        <ele>1103</ele>
        <time>2021-06-26T10:54:23Z</time>
      </trkpt>
      <trkpt lat="46.17811" lon="6.68316">
        <ele>1103.4</ele>
        <time>2021-06-26T10:54:24Z</time>
      </trkpt>
      <trkpt lat="46.17807" lon="6.68315">
        <ele>1103.4</ele>
        <time>2021-06-26T10:54:25Z</time>
      </trkpt>
      <trkpt lat="46.17804" lon="6.68314">
        <ele>1103.6</ele>
        <time>2021-06-26T10:54:26Z</time>
      </trkpt>
      <trkpt lat="46.178" lon="6.68313">
        <ele>1103.6</ele>
        <time>2021-06-26T10:54:27Z</time>
      </trkpt>
      <trkpt lat="46.17797" lon="6.68311">
        <ele>1103.8</ele>
        <time>2021-06-26T10:54:28Z</time>
      </trkpt>
      <trkpt lat="46.17793" lon="6.68309">
        <ele>1103.8</ele>
        <time>2021-06-26T10:54:29Z</time>
      </trkpt>
      <trkpt lat="46.1779" lon="6.68307">
        <ele>1104</ele>
        <time>2021-06-26T10:54:30Z</time>
      </trkpt>
      <trkpt lat="46.17787" lon="6.68305">
        <ele>1104.2</ele>
        <time>2021-06-26T10:54:31Z</time>
      </trkpt>
      <trkpt lat="46.17783" lon="6.68302">
        <ele>1104.4</ele>
        <time>2021-06-26T10:54:32Z</time>
      </trkpt>
      <trkpt lat="46.1778" lon="6.68299">
        <ele>1104.6</ele>
        <time>2021-06-26T10:54:33Z</time>
      </trkpt>
      <trkpt lat="46.17777" lon="6.68297">
        <ele>1104.8</ele>
        <time>2021-06-26T10:54:34Z</time>
      </trkpt>
      <trkpt lat="46.17774" lon="6.68294">
        <ele>1105</ele>
        <time>2021-06-26T10:54:35Z</time>
      </trkpt>
      <trkpt lat="46.17772" lon="6.68292">
        <ele>1105.2</ele>
        <time>2021-06-26T10:54:36Z</time>
      </trkpt>
      <trkpt lat="46.17769" lon="6.68289">
        <ele>1105.4</ele>
        <time>2021-06-26T10:54:37Z</time>
      </trkpt>
      <trkpt lat="46.17766" lon="6.68287">
        <ele>1105.6</ele>
        <time>2021-06-26T10:54:38Z</time>
      </trkpt>
      <trkpt lat="46.17762" lon="6.68284">
        <ele>1105.8</ele>
        <time>2021-06-26T10:54:39Z</time>
      </trkpt>
      <trkpt lat="46.17759" lon="6.68281">
        <ele>1106.2</ele>
        <time>2021-06-26T10:54:40Z</time>
      </trkpt>
      <trkpt lat="46.17756" lon="6.68278">
        <ele>1106.2</ele>
        <time>2021-06-26T10:54:41Z</time>
      </trkpt>
      <trkpt lat="46.17753" lon="6.68275">
        <ele>1106.4</ele>
        <time>2021-06-26T10:54:42Z</time>
      </trkpt>
      <trkpt lat="46.1775" lon="6.68272">
        <ele>1106.6</ele>
        <time>2021-06-26T10:54:43Z</time>
      </trkpt>
      <trkpt lat="46.17747" lon="6.68269">
        <ele>1107</ele>
        <time>2021-06-26T10:54:44Z</time>
      </trkpt>
      <trkpt lat="46.17744" lon="6.68266">
        <ele>1107.2</ele>
        <time>2021-06-26T10:54:45Z</time>
      </trkpt>
      <trkpt lat="46.1774" lon="6.68264">
        <ele>1107.2</ele>
        <time>2021-06-26T10:54:46Z</time>
      </trkpt>
      <trkpt lat="46.17737" lon="6.6826">
        <ele>1107.6</ele>
        <time>2021-06-26T10:54:47Z</time>
      </trkpt>
      <trkpt lat="46.17734" lon="6.68257">
        <ele>1108</ele>
        <time>2021-06-26T10:54:48Z</time>
      </trkpt>
      <trkpt lat="46.17731" lon="6.68254">
        <ele>1108.2</ele>
        <time>2021-06-26T10:54:49Z</time>
      </trkpt>
      <trkpt lat="46.17728" lon="6.68251">
        <ele>1108.4</ele>
        <time>2021-06-26T10:54:50Z</time>
      </trkpt>
      <trkpt lat="46.17725" lon="6.68247">
        <ele>1108.8</ele>
        <time>2021-06-26T10:54:51Z</time>
      </trkpt>
      <trkpt lat="46.17722" lon="6.68244">
        <ele>1108.8</ele>
        <time>2021-06-26T10:54:52Z</time>
      </trkpt>
      <trkpt lat="46.1772" lon="6.6824">
        <ele>1109</ele>
        <time>2021-06-26T10:54:53Z</time>
      </trkpt>
      <trkpt lat="46.17717" lon="6.68237">
        <ele>1109</ele>
        <time>2021-06-26T10:54:54Z</time>
      </trkpt>
      <trkpt lat="46.17714" lon="6.68233">
        <ele>1109.2</ele>
        <time>2021-06-26T10:54:55Z</time>
      </trkpt>
      <trkpt lat="46.17712" lon="6.68229">
        <ele>1109.6</ele>
        <time>2021-06-26T10:54:56Z</time>
      </trkpt>
      <trkpt lat="46.17709" lon="6.68226">
        <ele>1109.6</ele>
        <time>2021-06-26T10:54:57Z</time>
      </trkpt>
      <trkpt lat="46.17707" lon="6.68222">
        <ele>1109.8</ele>
        <time>2021-06-26T10:54:58Z</time>
      </trkpt>
      <trkpt lat="46.17704" lon="6.68218">
        <ele>1109.8</ele>
        <time>2021-06-26T10:54:59Z</time>
      </trkpt>
      <trkpt lat="46.17702" lon="6.68214">
        <ele>1110.2</ele>
        <time>2021-06-26T10:55:00Z</time>
      </trkpt>
      <trkpt lat="46.17699" lon="6.6821">
        <ele>1110.4</ele>
        <time>2021-06-26T10:55:01Z</time>
      </trkpt>
      <trkpt lat="46.17697" lon="6.68207">
        <ele>1110.6</ele>
        <time>2021-06-26T10:55:02Z</time>
      </trkpt>
      <trkpt lat="46.17695" lon="6.68203">
        <ele>1110.8</ele>
        <time>2021-06-26T10:55:03Z</time>
      </trkpt>
      <trkpt lat="46.17692" lon="6.68199">
        <ele>1110.8</ele>
        <time>2021-06-26T10:55:04Z</time>
      </trkpt>
      <trkpt lat="46.1769" lon="6.68195">
        <ele>1111.2</ele>
        <time>2021-06-26T10:55:05Z</time>
      </trkpt>
      <trkpt lat="46.17688" lon="6.68191">
        <ele>1111.6</ele>
        <time>2021-06-26T10:55:06Z</time>
      </trkpt>
      <trkpt lat="46.17686" lon="6.68187">
        <ele>1111.8</ele>
        <time>2021-06-26T10:55:07Z</time>
      </trkpt>
      <trkpt lat="46.17683" lon="6.68184">
        <ele>1112</ele>
        <time>2021-06-26T10:55:08Z</time>
      </trkpt>
      <trkpt lat="46.17681" lon="6.6818">
        <ele>1112.2</ele>
        <time>2021-06-26T10:55:09Z</time>
      </trkpt>
      <trkpt lat="46.17678" lon="6.68176">
        <ele>1112.4</ele>
        <time>2021-06-26T10:55:10Z</time>
      </trkpt>
      <trkpt lat="46.17676" lon="6.68172">
        <ele>1112.6</ele>
        <time>2021-06-26T10:55:11Z</time>
      </trkpt>
      <trkpt lat="46.17674" lon="6.68168">
        <ele>1112.6</ele>
        <time>2021-06-26T10:55:12Z</time>
      </trkpt>
      <trkpt lat="46.17671" lon="6.68164">
        <ele>1112.8</ele>
        <time>2021-06-26T10:55:13Z</time>
      </trkpt>
      <trkpt lat="46.17669" lon="6.6816">
        <ele>1112.8</ele>
        <time>2021-06-26T10:55:14Z</time>
      </trkpt>
      <trkpt lat="46.17666" lon="6.68156">
        <ele>1113</ele>
        <time>2021-06-26T10:55:15Z</time>
      </trkpt>
      <trkpt lat="46.17663" lon="6.68152">
        <ele>1113.4</ele>
        <time>2021-06-26T10:55:16Z</time>
      </trkpt>
      <trkpt lat="46.1766" lon="6.68148">
        <ele>1113.6</ele>
        <time>2021-06-26T10:55:17Z</time>
      </trkpt>
      <trkpt lat="46.17657" lon="6.68144">
        <ele>1113.6</ele>
        <time>2021-06-26T10:55:18Z</time>
      </trkpt>
      <trkpt lat="46.17653" lon="6.6814">
        <ele>1113.6</ele>
        <time>2021-06-26T10:55:19Z</time>
      </trkpt>
      <trkpt lat="46.17649" lon="6.68136">
        <ele>1114</ele>
        <time>2021-06-26T10:55:20Z</time>
      </trkpt>
      <trkpt lat="46.17645" lon="6.68133">
        <ele>1114.2</ele>
        <time>2021-06-26T10:55:21Z</time>
      </trkpt>
      <trkpt lat="46.17641" lon="6.6813">
        <ele>1114.4</ele>
        <time>2021-06-26T10:55:22Z</time>
      </trkpt>
      <trkpt lat="46.17636" lon="6.68128">
        <ele>1114.4</ele>
        <time>2021-06-26T10:55:23Z</time>
      </trkpt>
      <trkpt lat="46.17632" lon="6.68126">
        <ele>1114.6</ele>
        <time>2021-06-26T10:55:24Z</time>
      </trkpt>
      <trkpt lat="46.17627" lon="6.68125">
        <ele>1114.6</ele>
        <time>2021-06-26T10:55:25Z</time>
      </trkpt>
      <trkpt lat="46.17622" lon="6.68124">
        <ele>1114.8</ele>
        <time>2021-06-26T10:55:26Z</time>
      </trkpt>
      <trkpt lat="46.17617" lon="6.68124">
        <ele>1114.8</ele>
        <time>2021-06-26T10:55:27Z</time>
      </trkpt>
      <trkpt lat="46.17612" lon="6.68125">
        <ele>1115</ele>
        <time>2021-06-26T10:55:28Z</time>
      </trkpt>
      <trkpt lat="46.17607" lon="6.68126">
        <ele>1115</ele>
        <time>2021-06-26T10:55:29Z</time>
      </trkpt>
      <trkpt lat="46.17602" lon="6.68127">
        <ele>1115</ele>
        <time>2021-06-26T10:55:30Z</time>
      </trkpt>
      <trkpt lat="46.17597" lon="6.68129">
        <ele>1115</ele>
        <time>2021-06-26T10:55:31Z</time>
      </trkpt>
      <trkpt lat="46.17592" lon="6.68132">
        <ele>1115.2</ele>
        <time>2021-06-26T10:55:32Z</time>
      </trkpt>
      <trkpt lat="46.17588" lon="6.68135">
        <ele>1115.2</ele>
        <time>2021-06-26T10:55:33Z</time>
      </trkpt>
      <trkpt lat="46.17583" lon="6.68139">
        <ele>1115.2</ele>
        <time>2021-06-26T10:55:34Z</time>
      </trkpt>
      <trkpt lat="46.17578" lon="6.68142">
        <ele>1115.4</ele>
        <time>2021-06-26T10:55:35Z</time>
      </trkpt>
      <trkpt lat="46.17574" lon="6.68146">
        <ele>1115.4</ele>
        <time>2021-06-26T10:55:36Z</time>
      </trkpt>
      <trkpt lat="46.17569" lon="6.68149">
        <ele>1115.6</ele>
        <time>2021-06-26T10:55:37Z</time>
      </trkpt>
      <trkpt lat="46.17563" lon="6.68152">
        <ele>1115.8</ele>
        <time>2021-06-26T10:55:38Z</time>
      </trkpt>
      <trkpt lat="46.17557" lon="6.68152">
        <ele>1116</ele>
        <time>2021-06-26T10:55:39Z</time>
      </trkpt>
      <trkpt lat="46.17552" lon="6.68152">
        <ele>1116.2</ele>
        <time>2021-06-26T10:55:40Z</time>
      </trkpt>
      <trkpt lat="46.17546" lon="6.68152">
        <ele>1116.2</ele>
        <time>2021-06-26T10:55:41Z</time>
      </trkpt>
      <trkpt lat="46.1754" lon="6.68151">
        <ele>1116.2</ele>
        <time>2021-06-26T10:55:42Z</time>
      </trkpt>
      <trkpt lat="46.17523" lon="6.68146">
        <ele>1116.4</ele>
        <time>2021-06-26T10:55:45Z</time>
      </trkpt>
      <trkpt lat="46.17517" lon="6.68144">
        <ele>1116.6</ele>
        <time>2021-06-26T10:55:46Z</time>
      </trkpt>
      <trkpt lat="46.17506" lon="6.68141">
        <ele>1116.8</ele>
        <time>2021-06-26T10:55:48Z</time>
      </trkpt>
      <trkpt lat="46.175" lon="6.68139">
        <ele>1116.8</ele>
        <time>2021-06-26T10:55:49Z</time>
      </trkpt>
      <trkpt lat="46.17483" lon="6.68134">
        <ele>1116.8</ele>
        <time>2021-06-26T10:55:52Z</time>
      </trkpt>
      <trkpt lat="46.17466" lon="6.68129">
        <ele>1117</ele>
        <time>2021-06-26T10:55:55Z</time>
      </trkpt>
      <trkpt lat="46.17461" lon="6.68127">
        <ele>1117.2</ele>
        <time>2021-06-26T10:55:56Z</time>
      </trkpt>
      <trkpt lat="46.17455" lon="6.68126">
        <ele>1117.2</ele>
        <time>2021-06-26T10:55:57Z</time>
      </trkpt>
      <trkpt lat="46.1745" lon="6.68124">
        <ele>1117.2</ele>
        <time>2021-06-26T10:55:58Z</time>
      </trkpt>
      <trkpt lat="46.17445" lon="6.68122">
        <ele>1117.4</ele>
        <time>2021-06-26T10:55:59Z</time>
      </trkpt>
      <trkpt lat="46.1744" lon="6.6812">
        <ele>1117.4</ele>
        <time>2021-06-26T10:56:00Z</time>
      </trkpt>
      <trkpt lat="46.17425" lon="6.68111">
        <ele>1117.6</ele>
        <time>2021-06-26T10:56:03Z</time>
      </trkpt>
      <trkpt lat="46.17414" lon="6.68101">
        <ele>1117.8</ele>
        <time>2021-06-26T10:56:05Z</time>
      </trkpt>
      <trkpt lat="46.17409" lon="6.68097">
        <ele>1117.8</ele>
        <time>2021-06-26T10:56:06Z</time>
      </trkpt>
      <trkpt lat="46.17399" lon="6.68089">
        <ele>1118</ele>
        <time>2021-06-26T10:56:08Z</time>
      </trkpt>
      <trkpt lat="46.17394" lon="6.68085">
        <ele>1118</ele>
        <time>2021-06-26T10:56:09Z</time>
      </trkpt>
      <trkpt lat="46.17389" lon="6.68081">
        <ele>1118</ele>
        <time>2021-06-26T10:56:10Z</time>
      </trkpt>
      <trkpt lat="46.17384" lon="6.68078">
        <ele>1118</ele>
        <time>2021-06-26T10:56:11Z</time>
      </trkpt>
      <trkpt lat="46.17378" lon="6.68076">
        <ele>1118</ele>
        <time>2021-06-26T10:56:12Z</time>
      </trkpt>
      <trkpt lat="46.17373" lon="6.68074">
        <ele>1118.2</ele>
        <time>2021-06-26T10:56:13Z</time>
      </trkpt>
      <trkpt lat="46.17368" lon="6.68072">
        <ele>1118.2</ele>
        <time>2021-06-26T10:56:14Z</time>
      </trkpt>
      <trkpt lat="46.17362" lon="6.68071">
        <ele>1118.2</ele>
        <time>2021-06-26T10:56:15Z</time>
      </trkpt>
      <trkpt lat="46.17344" lon="6.6807">
        <ele>1118.8</ele>
        <time>2021-06-26T10:56:18Z</time>
      </trkpt>
      <trkpt lat="46.17338" lon="6.68069">
        <ele>1119</ele>
        <time>2021-06-26T10:56:19Z</time>
      </trkpt>
      <trkpt lat="46.173" lon="6.68065">
        <ele>1119.6</ele>
        <time>2021-06-26T10:56:25Z</time>
      </trkpt>
      <trkpt lat="46.17294" lon="6.68064">
        <ele>1119.4</ele>
        <time>2021-06-26T10:56:26Z</time>
      </trkpt>
      <trkpt lat="46.17282" lon="6.68062">
        <ele>1119.6</ele>
        <time>2021-06-26T10:56:28Z</time>
      </trkpt>
      <trkpt lat="46.17277" lon="6.6806">
        <ele>1119.6</ele>
        <time>2021-06-26T10:56:29Z</time>
      </trkpt>
      <trkpt lat="46.17271" lon="6.68059">
        <ele>1119.8</ele>
        <time>2021-06-26T10:56:30Z</time>
      </trkpt>
      <trkpt lat="46.17266" lon="6.68057">
        <ele>1120</ele>
        <time>2021-06-26T10:56:31Z</time>
      </trkpt>
      <trkpt lat="46.17261" lon="6.68055">
        <ele>1120.2</ele>
        <time>2021-06-26T10:56:32Z</time>
      </trkpt>
      <trkpt lat="46.17256" lon="6.68053">
        <ele>1120.4</ele>
        <time>2021-06-26T10:56:33Z</time>
      </trkpt>
      <trkpt lat="46.17251" lon="6.68051">
        <ele>1120.4</ele>
        <time>2021-06-26T10:56:34Z</time>
      </trkpt>
      <trkpt lat="46.17246" lon="6.68048">
        <ele>1120.4</ele>
        <time>2021-06-26T10:56:35Z</time>
      </trkpt>
      <trkpt lat="46.17241" lon="6.68044">
        <ele>1120.6</ele>
        <time>2021-06-26T10:56:36Z</time>
      </trkpt>
      <trkpt lat="46.17236" lon="6.6804">
        <ele>1120.8</ele>
        <time>2021-06-26T10:56:37Z</time>
      </trkpt>
      <trkpt lat="46.17231" lon="6.68036">
        <ele>1121.2</ele>
        <time>2021-06-26T10:56:38Z</time>
      </trkpt>
      <trkpt lat="46.17227" lon="6.68032">
        <ele>1121.4</ele>
        <time>2021-06-26T10:56:39Z</time>
      </trkpt>
      <trkpt lat="46.17222" lon="6.68028">
        <ele>1121.4</ele>
        <time>2021-06-26T10:56:40Z</time>
      </trkpt>
      <trkpt lat="46.17218" lon="6.68024">
        <ele>1121.4</ele>
        <time>2021-06-26T10:56:41Z</time>
      </trkpt>
      <trkpt lat="46.17213" lon="6.68019">
        <ele>1121.8</ele>
        <time>2021-06-26T10:56:42Z</time>
      </trkpt>
      <trkpt lat="46.17208" lon="6.68013">
        <ele>1121.8</ele>
        <time>2021-06-26T10:56:43Z</time>
      </trkpt>
      <trkpt lat="46.17203" lon="6.68007">
        <ele>1121.8</ele>
        <time>2021-06-26T10:56:44Z</time>
      </trkpt>
      <trkpt lat="46.17199" lon="6.68001">
        <ele>1122</ele>
        <time>2021-06-26T10:56:45Z</time>
      </trkpt>
      <trkpt lat="46.17194" lon="6.67996">
        <ele>1122.2</ele>
        <time>2021-06-26T10:56:46Z</time>
      </trkpt>
      <trkpt lat="46.1719" lon="6.67991">
        <ele>1122.4</ele>
        <time>2021-06-26T10:56:47Z</time>
      </trkpt>
      <trkpt lat="46.17185" lon="6.67986">
        <ele>1122.6</ele>
        <time>2021-06-26T10:56:48Z</time>
      </trkpt>
      <trkpt lat="46.17181" lon="6.67981">
        <ele>1122.6</ele>
        <time>2021-06-26T10:56:49Z</time>
      </trkpt>
      <trkpt lat="46.17176" lon="6.67975">
        <ele>1122.8</ele>
        <time>2021-06-26T10:56:50Z</time>
      </trkpt>
      <trkpt lat="46.17171" lon="6.6797">
        <ele>1122.8</ele>
        <time>2021-06-26T10:56:51Z</time>
      </trkpt>
      <trkpt lat="46.17167" lon="6.67964">
        <ele>1123</ele>
        <time>2021-06-26T10:56:52Z</time>
      </trkpt>
      <trkpt lat="46.17162" lon="6.67959">
        <ele>1122.8</ele>
        <time>2021-06-26T10:56:53Z</time>
      </trkpt>
      <trkpt lat="46.17157" lon="6.67953">
        <ele>1122.8</ele>
        <time>2021-06-26T10:56:54Z</time>
      </trkpt>
      <trkpt lat="46.17153" lon="6.67948">
        <ele>1122.8</ele>
        <time>2021-06-26T10:56:55Z</time>
      </trkpt>
      <trkpt lat="46.17149" lon="6.67943">
        <ele>1123</ele>
        <time>2021-06-26T10:56:56Z</time>
      </trkpt>
      <trkpt lat="46.17125" lon="6.67917">
        <ele>1123.2</ele>
        <time>2021-06-26T10:57:01Z</time>
      </trkpt>
      <trkpt lat="46.17105" lon="6.67897">
        <ele>1123.8</ele>
        <time>2021-06-26T10:57:05Z</time>
      </trkpt>
      <trkpt lat="46.171" lon="6.67893">
        <ele>1123.8</ele>
        <time>2021-06-26T10:57:06Z</time>
      </trkpt>
      <trkpt lat="46.17084" lon="6.6788">
        <ele>1123.8</ele>
        <time>2021-06-26T10:57:09Z</time>
      </trkpt>
      <trkpt lat="46.17068" lon="6.67869">
        <ele>1124</ele>
        <time>2021-06-26T10:57:12Z</time>
      </trkpt>
      <trkpt lat="46.17062" lon="6.67866">
        <ele>1123.8</ele>
        <time>2021-06-26T10:57:13Z</time>
      </trkpt>
      <trkpt lat="46.17057" lon="6.67863">
        <ele>1123.8</ele>
        <time>2021-06-26T10:57:14Z</time>
      </trkpt>
      <trkpt lat="46.17052" lon="6.6786">
        <ele>1124</ele>
        <time>2021-06-26T10:57:15Z</time>
      </trkpt>
      <trkpt lat="46.17047" lon="6.67857">
        <ele>1124</ele>
        <time>2021-06-26T10:57:16Z</time>
      </trkpt>
      <trkpt lat="46.17042" lon="6.67855">
        <ele>1123.8</ele>
        <time>2021-06-26T10:57:17Z</time>
      </trkpt>
      <trkpt lat="46.17036" lon="6.67852">
        <ele>1124</ele>
        <time>2021-06-26T10:57:18Z</time>
      </trkpt>
      <trkpt lat="46.17031" lon="6.6785">
        <ele>1124</ele>
        <time>2021-06-26T10:57:19Z</time>
      </trkpt>
      <trkpt lat="46.17021" lon="6.67848">
        <ele>1124</ele>
        <time>2021-06-26T10:57:21Z</time>
      </trkpt>
      <trkpt lat="46.1701" lon="6.67847">
        <ele>1124</ele>
        <time>2021-06-26T10:57:23Z</time>
      </trkpt>
      <trkpt lat="46.17005" lon="6.67847">
        <ele>1124</ele>
        <time>2021-06-26T10:57:24Z</time>
      </trkpt>
      <trkpt lat="46.16999" lon="6.67846">
        <ele>1124.2</ele>
        <time>2021-06-26T10:57:25Z</time>
      </trkpt>
      <trkpt lat="46.16971" lon="6.67842">
        <ele>1124.4</ele>
        <time>2021-06-26T10:57:30Z</time>
      </trkpt>
      <trkpt lat="46.16966" lon="6.67841">
        <ele>1124.4</ele>
        <time>2021-06-26T10:57:31Z</time>
      </trkpt>
      <trkpt lat="46.1696" lon="6.67838">
        <ele>1124.4</ele>
        <time>2021-06-26T10:57:32Z</time>
      </trkpt>
      <trkpt lat="46.16955" lon="6.67836">
        <ele>1124.4</ele>
        <time>2021-06-26T10:57:33Z</time>
      </trkpt>
      <trkpt lat="46.16939" lon="6.67826">
        <ele>1124.4</ele>
        <time>2021-06-26T10:57:36Z</time>
      </trkpt>
      <trkpt lat="46.16929" lon="6.6782">
        <ele>1124.4</ele>
        <time>2021-06-26T10:57:38Z</time>
      </trkpt>
      <trkpt lat="46.16924" lon="6.67816">
        <ele>1124.6</ele>
        <time>2021-06-26T10:57:39Z</time>
      </trkpt>
      <trkpt lat="46.16919" lon="6.67813">
        <ele>1124.4</ele>
        <time>2021-06-26T10:57:40Z</time>
      </trkpt>
      <trkpt lat="46.16903" lon="6.67802">
        <ele>1124.8</ele>
        <time>2021-06-26T10:57:43Z</time>
      </trkpt>
      <trkpt lat="46.16898" lon="6.67798">
        <ele>1124.8</ele>
        <time>2021-06-26T10:57:44Z</time>
      </trkpt>
      <trkpt lat="46.16893" lon="6.67795">
        <ele>1125</ele>
        <time>2021-06-26T10:57:45Z</time>
      </trkpt>
      <trkpt lat="46.16888" lon="6.67792">
        <ele>1125</ele>
        <time>2021-06-26T10:57:46Z</time>
      </trkpt>
      <trkpt lat="46.16882" lon="6.67789">
        <ele>1125.2</ele>
        <time>2021-06-26T10:57:47Z</time>
      </trkpt>
      <trkpt lat="46.16861" lon="6.67775">
        <ele>1125.6</ele>
        <time>2021-06-26T10:57:51Z</time>
      </trkpt>
      <trkpt lat="46.16851" lon="6.67768">
        <ele>1125.6</ele>
        <time>2021-06-26T10:57:53Z</time>
      </trkpt>
      <trkpt lat="46.16846" lon="6.67765">
        <ele>1125.6</ele>
        <time>2021-06-26T10:57:54Z</time>
      </trkpt>
      <trkpt lat="46.16841" lon="6.67762">
        <ele>1125.8</ele>
        <time>2021-06-26T10:57:55Z</time>
      </trkpt>
      <trkpt lat="46.16836" lon="6.6776">
        <ele>1125.8</ele>
        <time>2021-06-26T10:57:56Z</time>
      </trkpt>
      <trkpt lat="46.16831" lon="6.67757">
        <ele>1125.6</ele>
        <time>2021-06-26T10:57:57Z</time>
      </trkpt>
      <trkpt lat="46.16827" lon="6.67754">
        <ele>1125.8</ele>
        <time>2021-06-26T10:57:58Z</time>
      </trkpt>
      <trkpt lat="46.16822" lon="6.67752">
        <ele>1126</ele>
        <time>2021-06-26T10:57:59Z</time>
      </trkpt>
      <trkpt lat="46.16817" lon="6.67749">
        <ele>1126</ele>
        <time>2021-06-26T10:58:00Z</time>
      </trkpt>
      <trkpt lat="46.16809" lon="6.67745">
        <ele>1126.2</ele>
        <time>2021-06-26T10:58:02Z</time>
      </trkpt>
      <trkpt lat="46.16804" lon="6.67743">
        <ele>1126</ele>
        <time>2021-06-26T10:58:03Z</time>
      </trkpt>
      <trkpt lat="46.16799" lon="6.67741">
        <ele>1126</ele>
        <time>2021-06-26T10:58:04Z</time>
      </trkpt>
      <trkpt lat="46.16795" lon="6.67739">
        <ele>1126</ele>
        <time>2021-06-26T10:58:05Z</time>
      </trkpt>
      <trkpt lat="46.16781" lon="6.67732">
        <ele>1126.4</ele>
        <time>2021-06-26T10:58:08Z</time>
      </trkpt>
      <trkpt lat="46.16777" lon="6.67729">
        <ele>1126.6</ele>
        <time>2021-06-26T10:58:09Z</time>
      </trkpt>
      <trkpt lat="46.16772" lon="6.67727">
        <ele>1126.8</ele>
        <time>2021-06-26T10:58:10Z</time>
      </trkpt>
      <trkpt lat="46.16768" lon="6.67724">
        <ele>1127</ele>
        <time>2021-06-26T10:58:11Z</time>
      </trkpt>
      <trkpt lat="46.16763" lon="6.67721">
        <ele>1127.2</ele>
        <time>2021-06-26T10:58:12Z</time>
      </trkpt>
      <trkpt lat="46.16758" lon="6.67718">
        <ele>1127.4</ele>
        <time>2021-06-26T10:58:13Z</time>
      </trkpt>
      <trkpt lat="46.16754" lon="6.67715">
        <ele>1127.4</ele>
        <time>2021-06-26T10:58:14Z</time>
      </trkpt>
      <trkpt lat="46.16749" lon="6.67712">
        <ele>1127.4</ele>
        <time>2021-06-26T10:58:15Z</time>
      </trkpt>
      <trkpt lat="46.16745" lon="6.67709">
        <ele>1127.8</ele>
        <time>2021-06-26T10:58:16Z</time>
      </trkpt>
      <trkpt lat="46.1674" lon="6.67705">
        <ele>1128</ele>
        <time>2021-06-26T10:58:17Z</time>
      </trkpt>
      <trkpt lat="46.16736" lon="6.67702">
        <ele>1128</ele>
        <time>2021-06-26T10:58:18Z</time>
      </trkpt>
      <trkpt lat="46.16731" lon="6.67699">
        <ele>1128.4</ele>
        <time>2021-06-26T10:58:19Z</time>
      </trkpt>
      <trkpt lat="46.16727" lon="6.67696">
        <ele>1128.2</ele>
        <time>2021-06-26T10:58:20Z</time>
      </trkpt>
      <trkpt lat="46.16723" lon="6.67693">
        <ele>1128.4</ele>
        <time>2021-06-26T10:58:21Z</time>
      </trkpt>
      <trkpt lat="46.16718" lon="6.6769">
        <ele>1128.6</ele>
        <time>2021-06-26T10:58:22Z</time>
      </trkpt>
      <trkpt lat="46.16714" lon="6.67686">
        <ele>1128.6</ele>
        <time>2021-06-26T10:58:23Z</time>
      </trkpt>
      <trkpt lat="46.1671" lon="6.67683">
        <ele>1128.8</ele>
        <time>2021-06-26T10:58:24Z</time>
      </trkpt>
      <trkpt lat="46.16706" lon="6.6768">
        <ele>1128.6</ele>
        <time>2021-06-26T10:58:25Z</time>
      </trkpt>
      <trkpt lat="46.16702" lon="6.67677">
        <ele>1128.6</ele>
        <time>2021-06-26T10:58:26Z</time>
      </trkpt>
      <trkpt lat="46.16698" lon="6.67674">
        <ele>1129</ele>
        <time>2021-06-26T10:58:27Z</time>
      </trkpt>
      <trkpt lat="46.16693" lon="6.67671">
        <ele>1129.4</ele>
        <time>2021-06-26T10:58:28Z</time>
      </trkpt>
      <trkpt lat="46.16689" lon="6.67668">
        <ele>1129.6</ele>
        <time>2021-06-26T10:58:29Z</time>
      </trkpt>
      <trkpt lat="46.16685" lon="6.67665">
        <ele>1129.8</ele>
        <time>2021-06-26T10:58:30Z</time>
      </trkpt>
      <trkpt lat="46.16681" lon="6.67662">
        <ele>1129.8</ele>
        <time>2021-06-26T10:58:31Z</time>
      </trkpt>
      <trkpt lat="46.16677" lon="6.6766">
        <ele>1130.2</ele>
        <time>2021-06-26T10:58:32Z</time>
      </trkpt>
      <trkpt lat="46.16673" lon="6.67657">
        <ele>1130.4</ele>
        <time>2021-06-26T10:58:33Z</time>
      </trkpt>
      <trkpt lat="46.16668" lon="6.67655">
        <ele>1130.6</ele>
        <time>2021-06-26T10:58:34Z</time>
      </trkpt>
      <trkpt lat="46.16664" lon="6.67653">
        <ele>1130.8</ele>
        <time>2021-06-26T10:58:35Z</time>
      </trkpt>
      <trkpt lat="46.1666" lon="6.6765">
        <ele>1131.2</ele>
        <time>2021-06-26T10:58:36Z</time>
      </trkpt>
      <trkpt lat="46.16655" lon="6.67649">
        <ele>1131.4</ele>
        <time>2021-06-26T10:58:37Z</time>
      </trkpt>
      <trkpt lat="46.16651" lon="6.67647">
        <ele>1131.6</ele>
        <time>2021-06-26T10:58:38Z</time>
      </trkpt>
      <trkpt lat="46.16646" lon="6.67645">
        <ele>1131.6</ele>
        <time>2021-06-26T10:58:39Z</time>
      </trkpt>
      <trkpt lat="46.16642" lon="6.67643">
        <ele>1131.8</ele>
        <time>2021-06-26T10:58:40Z</time>
      </trkpt>
      <trkpt lat="46.16638" lon="6.67641">
        <ele>1131.8</ele>
        <time>2021-06-26T10:58:41Z</time>
      </trkpt>
      <trkpt lat="46.16634" lon="6.67638">
        <ele>1132.2</ele>
        <time>2021-06-26T10:58:42Z</time>
      </trkpt>
      <trkpt lat="46.1663" lon="6.67636">
        <ele>1132.4</ele>
        <time>2021-06-26T10:58:43Z</time>
      </trkpt>
      <trkpt lat="46.16626" lon="6.67633">
        <ele>1132.6</ele>
        <time>2021-06-26T10:58:44Z</time>
      </trkpt>
      <trkpt lat="46.16622" lon="6.67631">
        <ele>1132.6</ele>
        <time>2021-06-26T10:58:45Z</time>
      </trkpt>
      <trkpt lat="46.16618" lon="6.67628">
        <ele>1132.8</ele>
        <time>2021-06-26T10:58:46Z</time>
      </trkpt>
      <trkpt lat="46.16615" lon="6.67625">
        <ele>1132.8</ele>
        <time>2021-06-26T10:58:47Z</time>
      </trkpt>
      <trkpt lat="46.16611" lon="6.67622">
        <ele>1133</ele>
        <time>2021-06-26T10:58:48Z</time>
      </trkpt>
      <trkpt lat="46.16608" lon="6.67619">
        <ele>1133</ele>
        <time>2021-06-26T10:58:49Z</time>
      </trkpt>
      <trkpt lat="46.16605" lon="6.67616">
        <ele>1133.2</ele>
        <time>2021-06-26T10:58:50Z</time>
      </trkpt>
      <trkpt lat="46.16602" lon="6.67612">
        <ele>1133.6</ele>
        <time>2021-06-26T10:58:51Z</time>
      </trkpt>
      <trkpt lat="46.16599" lon="6.67609">
        <ele>1133.8</ele>
        <time>2021-06-26T10:58:52Z</time>
      </trkpt>
      <trkpt lat="46.16595" lon="6.67605">
        <ele>1133.8</ele>
        <time>2021-06-26T10:58:53Z</time>
      </trkpt>
      <trkpt lat="46.16592" lon="6.67601">
        <ele>1134</ele>
        <time>2021-06-26T10:58:54Z</time>
      </trkpt>
      <trkpt lat="46.16589" lon="6.67597">
        <ele>1134.4</ele>
        <time>2021-06-26T10:58:55Z</time>
      </trkpt>
      <trkpt lat="46.16586" lon="6.67593">
        <ele>1135</ele>
        <time>2021-06-26T10:58:56Z</time>
      </trkpt>
      <trkpt lat="46.16582" lon="6.67589">
        <ele>1135.2</ele>
        <time>2021-06-26T10:58:57Z</time>
      </trkpt>
      <trkpt lat="46.16579" lon="6.67586">
        <ele>1135.4</ele>
        <time>2021-06-26T10:58:58Z</time>
      </trkpt>
      <trkpt lat="46.16576" lon="6.67582">
        <ele>1135.6</ele>
        <time>2021-06-26T10:58:59Z</time>
      </trkpt>
      <trkpt lat="46.16573" lon="6.67578">
        <ele>1135.8</ele>
        <time>2021-06-26T10:59:00Z</time>
      </trkpt>
      <trkpt lat="46.1657" lon="6.67575">
        <ele>1136.2</ele>
        <time>2021-06-26T10:59:01Z</time>
      </trkpt>
      <trkpt lat="46.16567" lon="6.67572">
        <ele>1136.6</ele>
        <time>2021-06-26T10:59:02Z</time>
      </trkpt>
      <trkpt lat="46.16564" lon="6.67569">
        <ele>1136.6</ele>
        <time>2021-06-26T10:59:03Z</time>
      </trkpt>
      <trkpt lat="46.16561" lon="6.67566">
        <ele>1136.8</ele>
        <time>2021-06-26T10:59:04Z</time>
      </trkpt>
      <trkpt lat="46.16558" lon="6.67563">
        <ele>1137</ele>
        <time>2021-06-26T10:59:05Z</time>
      </trkpt>
      <trkpt lat="46.16554" lon="6.6756">
        <ele>1137.2</ele>
        <time>2021-06-26T10:59:06Z</time>
      </trkpt>
      <trkpt lat="46.16551" lon="6.67557">
        <ele>1137.2</ele>
        <time>2021-06-26T10:59:07Z</time>
      </trkpt>
      <trkpt lat="46.16548" lon="6.67555">
        <ele>1137.2</ele>
        <time>2021-06-26T10:59:08Z</time>
      </trkpt>
      <trkpt lat="46.16545" lon="6.67552">
        <ele>1137.6</ele>
        <time>2021-06-26T10:59:09Z</time>
      </trkpt>
      <trkpt lat="46.16541" lon="6.6755">
        <ele>1137.8</ele>
        <time>2021-06-26T10:59:10Z</time>
      </trkpt>
      <trkpt lat="46.16538" lon="6.67548">
        <ele>1137.8</ele>
        <time>2021-06-26T10:59:11Z</time>
      </trkpt>
      <trkpt lat="46.16535" lon="6.67546">
        <ele>1137.8</ele>
        <time>2021-06-26T10:59:12Z</time>
      </trkpt>
      <trkpt lat="46.16532" lon="6.67543">
        <ele>1138.2</ele>
        <time>2021-06-26T10:59:13Z</time>
      </trkpt>
      <trkpt lat="46.16528" lon="6.67542">
        <ele>1138.6</ele>
        <time>2021-06-26T10:59:14Z</time>
      </trkpt>
      <trkpt lat="46.16525" lon="6.6754">
        <ele>1138.6</ele>
        <time>2021-06-26T10:59:15Z</time>
      </trkpt>
      <trkpt lat="46.16522" lon="6.67538">
        <ele>1139</ele>
        <time>2021-06-26T10:59:16Z</time>
      </trkpt>
      <trkpt lat="46.16519" lon="6.67536">
        <ele>1139.2</ele>
        <time>2021-06-26T10:59:17Z</time>
      </trkpt>
      <trkpt lat="46.16515" lon="6.67534">
        <ele>1139.4</ele>
        <time>2021-06-26T10:59:18Z</time>
      </trkpt>
      <trkpt lat="46.16512" lon="6.67532">
        <ele>1139.8</ele>
        <time>2021-06-26T10:59:19Z</time>
      </trkpt>
      <trkpt lat="46.16509" lon="6.67531">
        <ele>1139.8</ele>
        <time>2021-06-26T10:59:20Z</time>
      </trkpt>
      <trkpt lat="46.16506" lon="6.67529">
        <ele>1140</ele>
        <time>2021-06-26T10:59:21Z</time>
      </trkpt>
      <trkpt lat="46.16502" lon="6.67527">
        <ele>1140</ele>
        <time>2021-06-26T10:59:22Z</time>
      </trkpt>
      <trkpt lat="46.16499" lon="6.67525">
        <ele>1140.2</ele>
        <time>2021-06-26T10:59:23Z</time>
      </trkpt>
      <trkpt lat="46.16496" lon="6.67524">
        <ele>1140.4</ele>
        <time>2021-06-26T10:59:24Z</time>
      </trkpt>
      <trkpt lat="46.16492" lon="6.67522">
        <ele>1140.4</ele>
        <time>2021-06-26T10:59:25Z</time>
      </trkpt>
      <trkpt lat="46.16489" lon="6.6752">
        <ele>1140.4</ele>
        <time>2021-06-26T10:59:26Z</time>
      </trkpt>
      <trkpt lat="46.16485" lon="6.67518">
        <ele>1140.4</ele>
        <time>2021-06-26T10:59:27Z</time>
      </trkpt>
      <trkpt lat="46.16482" lon="6.67516">
        <ele>1140.6</ele>
        <time>2021-06-26T10:59:28Z</time>
      </trkpt>
      <trkpt lat="46.16478" lon="6.67514">
        <ele>1140.6</ele>
        <time>2021-06-26T10:59:29Z</time>
      </trkpt>
      <trkpt lat="46.16475" lon="6.67512">
        <ele>1141</ele>
        <time>2021-06-26T10:59:30Z</time>
      </trkpt>
      <trkpt lat="46.16471" lon="6.6751">
        <ele>1141.2</ele>
        <time>2021-06-26T10:59:31Z</time>
      </trkpt>
      <trkpt lat="46.16468" lon="6.67508">
        <ele>1141.2</ele>
        <time>2021-06-26T10:59:32Z</time>
      </trkpt>
      <trkpt lat="46.16465" lon="6.67506">
        <ele>1141.6</ele>
        <time>2021-06-26T10:59:33Z</time>
      </trkpt>
      <trkpt lat="46.16461" lon="6.67503">
        <ele>1142</ele>
        <time>2021-06-26T10:59:34Z</time>
      </trkpt>
      <trkpt lat="46.16458" lon="6.67501">
        <ele>1142</ele>
        <time>2021-06-26T10:59:35Z</time>
      </trkpt>
      <trkpt lat="46.16454" lon="6.67499">
        <ele>1142</ele>
        <time>2021-06-26T10:59:36Z</time>
      </trkpt>
      <trkpt lat="46.16451" lon="6.67497">
        <ele>1142.4</ele>
        <time>2021-06-26T10:59:37Z</time>
      </trkpt>
      <trkpt lat="46.16448" lon="6.67496">
        <ele>1142.6</ele>
        <time>2021-06-26T10:59:38Z</time>
      </trkpt>
      <trkpt lat="46.16444" lon="6.67494">
        <ele>1142.6</ele>
        <time>2021-06-26T10:59:39Z</time>
      </trkpt>
      <trkpt lat="46.16441" lon="6.67492">
        <ele>1142.8</ele>
        <time>2021-06-26T10:59:40Z</time>
      </trkpt>
      <trkpt lat="46.16438" lon="6.67489">
        <ele>1142.8</ele>
        <time>2021-06-26T10:59:41Z</time>
      </trkpt>
      <trkpt lat="46.16435" lon="6.67487">
        <ele>1142.8</ele>
        <time>2021-06-26T10:59:42Z</time>
      </trkpt>
      <trkpt lat="46.16431" lon="6.67485">
        <ele>1142.8</ele>
        <time>2021-06-26T10:59:43Z</time>
      </trkpt>
      <trkpt lat="46.16428" lon="6.67483">
        <ele>1143</ele>
        <time>2021-06-26T10:59:44Z</time>
      </trkpt>
      <trkpt lat="46.16425" lon="6.6748">
        <ele>1143.2</ele>
        <time>2021-06-26T10:59:45Z</time>
      </trkpt>
      <trkpt lat="46.16422" lon="6.67478">
        <ele>1143.2</ele>
        <time>2021-06-26T10:59:46Z</time>
      </trkpt>
      <trkpt lat="46.16418" lon="6.67476">
        <ele>1143.4</ele>
        <time>2021-06-26T10:59:47Z</time>
      </trkpt>
      <trkpt lat="46.16415" lon="6.67474">
        <ele>1143.6</ele>
        <time>2021-06-26T10:59:48Z</time>
      </trkpt>
      <trkpt lat="46.16413" lon="6.67472">
        <ele>1143.6</ele>
        <time>2021-06-26T10:59:49Z</time>
      </trkpt>
      <trkpt lat="46.1641" lon="6.67469">
        <ele>1143.8</ele>
        <time>2021-06-26T10:59:50Z</time>
      </trkpt>
      <trkpt lat="46.16407" lon="6.67467">
        <ele>1143.8</ele>
        <time>2021-06-26T10:59:51Z</time>
      </trkpt>
      <trkpt lat="46.16404" lon="6.67465">
        <ele>1144</ele>
        <time>2021-06-26T10:59:52Z</time>
      </trkpt>
      <trkpt lat="46.16402" lon="6.67462">
        <ele>1144</ele>
        <time>2021-06-26T10:59:53Z</time>
      </trkpt>
      <trkpt lat="46.16399" lon="6.6746">
        <ele>1144.2</ele>
        <time>2021-06-26T10:59:54Z</time>
      </trkpt>
      <trkpt lat="46.16396" lon="6.67458">
        <ele>1144.4</ele>
        <time>2021-06-26T10:59:55Z</time>
      </trkpt>
      <trkpt lat="46.16393" lon="6.67456">
        <ele>1144.6</ele>
        <time>2021-06-26T10:59:56Z</time>
      </trkpt>
      <trkpt lat="46.1639" lon="6.67454">
        <ele>1144.6</ele>
        <time>2021-06-26T10:59:57Z</time>
      </trkpt>
      <trkpt lat="46.16387" lon="6.67451">
        <ele>1144.6</ele>
        <time>2021-06-26T10:59:58Z</time>
      </trkpt>
      <trkpt lat="46.16384" lon="6.67449">
        <ele>1145</ele>
        <time>2021-06-26T10:59:59Z</time>
      </trkpt>
      <trkpt lat="46.16381" lon="6.67447">
        <ele>1145</ele>
        <time>2021-06-26T11:00:00Z</time>
      </trkpt>
      <trkpt lat="46.16378" lon="6.67445">
        <ele>1145.2</ele>
        <time>2021-06-26T11:00:01Z</time>
      </trkpt>
      <trkpt lat="46.16375" lon="6.67443">
        <ele>1145.6</ele>
        <time>2021-06-26T11:00:02Z</time>
      </trkpt>
      <trkpt lat="46.16372" lon="6.6744">
        <ele>1145.8</ele>
        <time>2021-06-26T11:00:03Z</time>
      </trkpt>
      <trkpt lat="46.16369" lon="6.67438">
        <ele>1146</ele>
        <time>2021-06-26T11:00:04Z</time>
      </trkpt>
      <trkpt lat="46.16366" lon="6.67435">
        <ele>1146</ele>
        <time>2021-06-26T11:00:05Z</time>
      </trkpt>
      <trkpt lat="46.16363" lon="6.67432">
        <ele>1146.2</ele>
        <time>2021-06-26T11:00:06Z</time>
      </trkpt>
      <trkpt lat="46.1636" lon="6.67429">
        <ele>1146.2</ele>
        <time>2021-06-26T11:00:07Z</time>
      </trkpt>
      <trkpt lat="46.16357" lon="6.67426">
        <ele>1146.4</ele>
        <time>2021-06-26T11:00:08Z</time>
      </trkpt>
      <trkpt lat="46.16354" lon="6.67423">
        <ele>1146.6</ele>
        <time>2021-06-26T11:00:09Z</time>
      </trkpt>
      <trkpt lat="46.16351" lon="6.6742">
        <ele>1147</ele>
        <time>2021-06-26T11:00:10Z</time>
      </trkpt>
      <trkpt lat="46.16347" lon="6.67417">
        <ele>1147</ele>
        <time>2021-06-26T11:00:11Z</time>
      </trkpt>
      <trkpt lat="46.16344" lon="6.67414">
        <ele>1147.4</ele>
        <time>2021-06-26T11:00:12Z</time>
      </trkpt>
      <trkpt lat="46.16341" lon="6.67411">
        <ele>1147.6</ele>
        <time>2021-06-26T11:00:13Z</time>
      </trkpt>
      <trkpt lat="46.16338" lon="6.67408">
        <ele>1147.6</ele>
        <time>2021-06-26T11:00:14Z</time>
      </trkpt>
      <trkpt lat="46.16335" lon="6.67406">
        <ele>1148</ele>
        <time>2021-06-26T11:00:15Z</time>
      </trkpt>
      <trkpt lat="46.16332" lon="6.67403">
        <ele>1148.2</ele>
        <time>2021-06-26T11:00:16Z</time>
      </trkpt>
      <trkpt lat="46.1633" lon="6.674">
        <ele>1148.4</ele>
        <time>2021-06-26T11:00:17Z</time>
      </trkpt>
      <trkpt lat="46.16327" lon="6.67397">
        <ele>1148.6</ele>
        <time>2021-06-26T11:00:18Z</time>
      </trkpt>
      <trkpt lat="46.16324" lon="6.67395">
        <ele>1148.6</ele>
        <time>2021-06-26T11:00:19Z</time>
      </trkpt>
      <trkpt lat="46.16321" lon="6.67392">
        <ele>1148.6</ele>
        <time>2021-06-26T11:00:20Z</time>
      </trkpt>
      <trkpt lat="46.16317" lon="6.67389">
        <ele>1148.8</ele>
        <time>2021-06-26T11:00:21Z</time>
      </trkpt>
      <trkpt lat="46.16314" lon="6.67386">
        <ele>1149</ele>
        <time>2021-06-26T11:00:22Z</time>
      </trkpt>
      <trkpt lat="46.16311" lon="6.67384">
        <ele>1149</ele>
        <time>2021-06-26T11:00:23Z</time>
      </trkpt>
      <trkpt lat="46.16308" lon="6.67381">
        <ele>1149.2</ele>
        <time>2021-06-26T11:00:24Z</time>
      </trkpt>
      <trkpt lat="46.16305" lon="6.67378">
        <ele>1149</ele>
        <time>2021-06-26T11:00:25Z</time>
      </trkpt>
      <trkpt lat="46.16302" lon="6.67375">
        <ele>1149.2</ele>
        <time>2021-06-26T11:00:26Z</time>
      </trkpt>
      <trkpt lat="46.16299" lon="6.67372">
        <ele>1149.4</ele>
        <time>2021-06-26T11:00:27Z</time>
      </trkpt>
      <trkpt lat="46.16296" lon="6.67369">
        <ele>1149.4</ele>
        <time>2021-06-26T11:00:28Z</time>
      </trkpt>
      <trkpt lat="46.16293" lon="6.67366">
        <ele>1149.8</ele>
        <time>2021-06-26T11:00:29Z</time>
      </trkpt>
      <trkpt lat="46.16289" lon="6.67363">
        <ele>1150</ele>
        <time>2021-06-26T11:00:30Z</time>
      </trkpt>
      <trkpt lat="46.16286" lon="6.6736">
        <ele>1150</ele>
        <time>2021-06-26T11:00:31Z</time>
      </trkpt>
      <trkpt lat="46.16283" lon="6.67356">
        <ele>1150</ele>
        <time>2021-06-26T11:00:32Z</time>
      </trkpt>
      <trkpt lat="46.16279" lon="6.67353">
        <ele>1150</ele>
        <time>2021-06-26T11:00:33Z</time>
      </trkpt>
      <trkpt lat="46.16276" lon="6.6735">
        <ele>1150.4</ele>
        <time>2021-06-26T11:00:34Z</time>
      </trkpt>
      <trkpt lat="46.16273" lon="6.67346">
        <ele>1150.8</ele>
        <time>2021-06-26T11:00:35Z</time>
      </trkpt>
      <trkpt lat="46.16269" lon="6.67344">
        <ele>1150.8</ele>
        <time>2021-06-26T11:00:36Z</time>
      </trkpt>
      <trkpt lat="46.16266" lon="6.67341">
        <ele>1151</ele>
        <time>2021-06-26T11:00:37Z</time>
      </trkpt>
      <trkpt lat="46.16262" lon="6.67339">
        <ele>1151.2</ele>
        <time>2021-06-26T11:00:38Z</time>
      </trkpt>
      <trkpt lat="46.16259" lon="6.67337">
        <ele>1151.2</ele>
        <time>2021-06-26T11:00:39Z</time>
      </trkpt>
      <trkpt lat="46.16255" lon="6.67336">
        <ele>1151.4</ele>
        <time>2021-06-26T11:00:40Z</time>
      </trkpt>
      <trkpt lat="46.1625" lon="6.67335">
        <ele>1151.4</ele>
        <time>2021-06-26T11:00:41Z</time>
      </trkpt>
      <trkpt lat="46.16246" lon="6.67334">
        <ele>1151.6</ele>
        <time>2021-06-26T11:00:42Z</time>
      </trkpt>
      <trkpt lat="46.16242" lon="6.67333">
        <ele>1151.6</ele>
        <time>2021-06-26T11:00:43Z</time>
      </trkpt>
      <trkpt lat="46.16238" lon="6.67333">
        <ele>1151.6</ele>
        <time>2021-06-26T11:00:44Z</time>
      </trkpt>
      <trkpt lat="46.16234" lon="6.67333">
        <ele>1151.6</ele>
        <time>2021-06-26T11:00:45Z</time>
      </trkpt>
      <trkpt lat="46.16229" lon="6.67333">
        <ele>1151.8</ele>
        <time>2021-06-26T11:00:46Z</time>
      </trkpt>
      <trkpt lat="46.16221" lon="6.67333">
        <ele>1151.8</ele>
        <time>2021-06-26T11:00:48Z</time>
      </trkpt>
      <trkpt lat="46.1619" lon="6.67325">
        <ele>1152.4</ele>
        <time>2021-06-26T11:00:55Z</time>
      </trkpt>
      <trkpt lat="46.16182" lon="6.6732">
        <ele>1152.2</ele>
        <time>2021-06-26T11:00:57Z</time>
      </trkpt>
      <trkpt lat="46.1617" lon="6.67309">
        <ele>1152.4</ele>
        <time>2021-06-26T11:01:00Z</time>
      </trkpt>
      <trkpt lat="46.16162" lon="6.67302">
        <ele>1152.4</ele>
        <time>2021-06-26T11:01:02Z</time>
      </trkpt>
      <trkpt lat="46.16147" lon="6.67286">
        <ele>1152.8</ele>
        <time>2021-06-26T11:01:06Z</time>
      </trkpt>
      <trkpt lat="46.16144" lon="6.67281">
        <ele>1153</ele>
        <time>2021-06-26T11:01:07Z</time>
      </trkpt>
      <trkpt lat="46.1614" lon="6.67276">
        <ele>1153.2</ele>
        <time>2021-06-26T11:01:08Z</time>
      </trkpt>
      <trkpt lat="46.16137" lon="6.67271">
        <ele>1153.4</ele>
        <time>2021-06-26T11:01:09Z</time>
      </trkpt>
      <trkpt lat="46.16127" lon="6.67256">
        <ele>1153.6</ele>
        <time>2021-06-26T11:01:12Z</time>
      </trkpt>
      <trkpt lat="46.16121" lon="6.67245">
        <ele>1153.8</ele>
        <time>2021-06-26T11:01:14Z</time>
      </trkpt>
      <trkpt lat="46.16118" lon="6.6724">
        <ele>1153.8</ele>
        <time>2021-06-26T11:01:15Z</time>
      </trkpt>
      <trkpt lat="46.16115" lon="6.67235">
        <ele>1153.8</ele>
        <time>2021-06-26T11:01:16Z</time>
      </trkpt>
      <trkpt lat="46.16112" lon="6.6723">
        <ele>1153.8</ele>
        <time>2021-06-26T11:01:17Z</time>
      </trkpt>
      <trkpt lat="46.1611" lon="6.67224">
        <ele>1153.8</ele>
        <time>2021-06-26T11:01:18Z</time>
      </trkpt>
      <trkpt lat="46.16109" lon="6.67218">
        <ele>1153.8</ele>
        <time>2021-06-26T11:01:19Z</time>
      </trkpt>
      <trkpt lat="46.16109" lon="6.67212">
        <ele>1154.2</ele>
        <time>2021-06-26T11:01:20Z</time>
      </trkpt>
      <trkpt lat="46.16108" lon="6.67205">
        <ele>1154.2</ele>
        <time>2021-06-26T11:01:21Z</time>
      </trkpt>
      <trkpt lat="46.16108" lon="6.67198">
        <ele>1154.2</ele>
        <time>2021-06-26T11:01:22Z</time>
      </trkpt>
      <trkpt lat="46.16108" lon="6.67192">
        <ele>1154.4</ele>
        <time>2021-06-26T11:01:23Z</time>
      </trkpt>
      <trkpt lat="46.16108" lon="6.67186">
        <ele>1154.4</ele>
        <time>2021-06-26T11:01:24Z</time>
      </trkpt>
      <trkpt lat="46.16108" lon="6.6718">
        <ele>1154.4</ele>
        <time>2021-06-26T11:01:25Z</time>
      </trkpt>
      <trkpt lat="46.16108" lon="6.67174">
        <ele>1154.4</ele>
        <time>2021-06-26T11:01:26Z</time>
      </trkpt>
      <trkpt lat="46.16108" lon="6.67169">
        <ele>1154.4</ele>
        <time>2021-06-26T11:01:27Z</time>
      </trkpt>
      <trkpt lat="46.16108" lon="6.67164">
        <ele>1154.8</ele>
        <time>2021-06-26T11:01:28Z</time>
      </trkpt>
      <trkpt lat="46.16107" lon="6.67159">
        <ele>1155.2</ele>
        <time>2021-06-26T11:01:29Z</time>
      </trkpt>
      <trkpt lat="46.16107" lon="6.67154">
        <ele>1155.4</ele>
        <time>2021-06-26T11:01:30Z</time>
      </trkpt>
      <trkpt lat="46.16107" lon="6.6715">
        <ele>1155.6</ele>
        <time>2021-06-26T11:01:31Z</time>
      </trkpt>
      <trkpt lat="46.16106" lon="6.67145">
        <ele>1156.2</ele>
        <time>2021-06-26T11:01:32Z</time>
      </trkpt>
      <trkpt lat="46.16105" lon="6.67141">
        <ele>1156.6</ele>
        <time>2021-06-26T11:01:33Z</time>
      </trkpt>
      <trkpt lat="46.16103" lon="6.67136">
        <ele>1156.6</ele>
        <time>2021-06-26T11:01:34Z</time>
      </trkpt>
      <trkpt lat="46.16102" lon="6.6713">
        <ele>1156.6</ele>
        <time>2021-06-26T11:01:35Z</time>
      </trkpt>
      <trkpt lat="46.161" lon="6.67125">
        <ele>1156.8</ele>
        <time>2021-06-26T11:01:36Z</time>
      </trkpt>
      <trkpt lat="46.16099" lon="6.67119">
        <ele>1156.8</ele>
        <time>2021-06-26T11:01:37Z</time>
      </trkpt>
      <trkpt lat="46.16097" lon="6.67114">
        <ele>1157</ele>
        <time>2021-06-26T11:01:38Z</time>
      </trkpt>
      <trkpt lat="46.16096" lon="6.67108">
        <ele>1156.8</ele>
        <time>2021-06-26T11:01:39Z</time>
      </trkpt>
      <trkpt lat="46.16094" lon="6.67102">
        <ele>1156.8</ele>
        <time>2021-06-26T11:01:40Z</time>
      </trkpt>
      <trkpt lat="46.16092" lon="6.67091">
        <ele>1156.8</ele>
        <time>2021-06-26T11:01:42Z</time>
      </trkpt>
      <trkpt lat="46.1609" lon="6.67086">
        <ele>1157</ele>
        <time>2021-06-26T11:01:43Z</time>
      </trkpt>
      <trkpt lat="46.16088" lon="6.67081">
        <ele>1157</ele>
        <time>2021-06-26T11:01:44Z</time>
      </trkpt>
      <trkpt lat="46.16086" lon="6.67078">
        <ele>1156.8</ele>
        <time>2021-06-26T11:01:45Z</time>
      </trkpt>
      <trkpt lat="46.16083" lon="6.67077">
        <ele>1157</ele>
        <time>2021-06-26T11:01:46Z</time>
      </trkpt>
      <trkpt lat="46.16081" lon="6.67076">
        <ele>1157</ele>
        <time>2021-06-26T11:01:47Z</time>
      </trkpt>
      <trkpt lat="46.16079" lon="6.67075">
        <ele>1156.8</ele>
        <time>2021-06-26T11:01:48Z</time>
      </trkpt>
      <trkpt lat="46.16078" lon="6.67074">
        <ele>1156.8</ele>
        <time>2021-06-26T11:01:49Z</time>
      </trkpt>
      <trkpt lat="46.16077" lon="6.67072">
        <ele>1156.8</ele>
        <time>2021-06-26T11:01:50Z</time>
      </trkpt>
      <trkpt lat="46.16075" lon="6.67072">
        <ele>1156.8</ele>
        <time>2021-06-26T11:01:51Z</time>
      </trkpt>
      <trkpt lat="46.16074" lon="6.67072">
        <ele>1157</ele>
        <time>2021-06-26T11:01:52Z</time>
      </trkpt>
      <trkpt lat="46.16073" lon="6.67072">
        <ele>1156.8</ele>
        <time>2021-06-26T11:01:53Z</time>
      </trkpt>
      <trkpt lat="46.16072" lon="6.67072">
        <ele>1157</ele>
        <time>2021-06-26T11:01:54Z</time>
      </trkpt>
      <trkpt lat="46.16071" lon="6.67072">
        <ele>1156.8</ele>
        <time>2021-06-26T11:01:55Z</time>
      </trkpt>
      <trkpt lat="46.16071" lon="6.67072">
        <ele>1157</ele>
        <time>2021-06-26T11:01:56Z</time>
      </trkpt>
      <trkpt lat="46.16071" lon="6.67072">
        <ele>1157.2</ele>
        <time>2021-06-26T11:01:57Z</time>
      </trkpt>
      <trkpt lat="46.16071" lon="6.67076">
        <ele>1158</ele>
        <time>2021-06-26T11:02:01Z</time>
      </trkpt>
      <trkpt lat="46.16073" lon="6.67079">
        <ele>1157.8</ele>
        <time>2021-06-26T11:02:04Z</time>
      </trkpt>
      <trkpt lat="46.16074" lon="6.6708">
        <ele>1158</ele>
        <time>2021-06-26T11:02:05Z</time>
      </trkpt>
      <trkpt lat="46.16074" lon="6.6708">
        <ele>1158</ele>
        <time>2021-06-26T11:02:06Z</time>
      </trkpt>
      <trkpt lat="46.16074" lon="6.6708">
        <ele>1158</ele>
        <time>2021-06-26T11:02:07Z</time>
      </trkpt>
      <trkpt lat="46.16074" lon="6.67081">
        <ele>1158.2</ele>
        <time>2021-06-26T11:02:08Z</time>
      </trkpt>
      <trkpt lat="46.16073" lon="6.67081">
        <ele>1158.2</ele>
        <time>2021-06-26T11:02:14Z</time>
      </trkpt>
      <trkpt lat="46.16073" lon="6.67082">
        <ele>1158</ele>
        <time>2021-06-26T11:02:33Z</time>
      </trkpt>
      <trkpt lat="46.16073" lon="6.67082">
        <ele>1158</ele>
        <time>2021-06-26T11:02:53Z</time>
      </trkpt>
      <trkpt lat="46.16073" lon="6.67082">
        <ele>1158</ele>
        <time>2021-06-26T11:03:17Z</time>
      </trkpt>
      <trkpt lat="46.16075" lon="6.67079">
        <ele>1158.4</ele>
        <time>2021-06-26T11:04:35Z</time>
      </trkpt>
      <trkpt lat="46.16077" lon="6.67076">
        <ele>1158.4</ele>
        <time>2021-06-26T11:04:39Z</time>
      </trkpt>
      <trkpt lat="46.16079" lon="6.67075">
        <ele>1158.2</ele>
        <time>2021-06-26T11:04:40Z</time>
      </trkpt>
      <trkpt lat="46.1608" lon="6.67072">
        <ele>1158.2</ele>
        <time>2021-06-26T11:04:41Z</time>
      </trkpt>
      <trkpt lat="46.1608" lon="6.67069">
        <ele>1158.2</ele>
        <time>2021-06-26T11:04:42Z</time>
      </trkpt>
      <trkpt lat="46.16077" lon="6.67048">
        <ele>1158</ele>
        <time>2021-06-26T11:04:46Z</time>
      </trkpt>
      <trkpt lat="46.16075" lon="6.67043">
        <ele>1158.2</ele>
        <time>2021-06-26T11:04:47Z</time>
      </trkpt>
      <trkpt lat="46.16071" lon="6.67025">
        <ele>1158.2</ele>
        <time>2021-06-26T11:04:50Z</time>
      </trkpt>
      <trkpt lat="46.16061" lon="6.66984">
        <ele>1158.2</ele>
        <time>2021-06-26T11:04:57Z</time>
      </trkpt>
      <trkpt lat="46.16059" lon="6.66978">
        <ele>1158</ele>
        <time>2021-06-26T11:04:58Z</time>
      </trkpt>
      <trkpt lat="46.16055" lon="6.6696">
        <ele>1158.2</ele>
        <time>2021-06-26T11:05:01Z</time>
      </trkpt>
      <trkpt lat="46.16053" lon="6.66955">
        <ele>1158.2</ele>
        <time>2021-06-26T11:05:02Z</time>
      </trkpt>
      <trkpt lat="46.16049" lon="6.66937">
        <ele>1158.4</ele>
        <time>2021-06-26T11:05:05Z</time>
      </trkpt>
      <trkpt lat="46.16045" lon="6.66925">
        <ele>1158.6</ele>
        <time>2021-06-26T11:05:07Z</time>
      </trkpt>
      <trkpt lat="46.16044" lon="6.66919">
        <ele>1159</ele>
        <time>2021-06-26T11:05:08Z</time>
      </trkpt>
      <trkpt lat="46.16042" lon="6.66914">
        <ele>1159.2</ele>
        <time>2021-06-26T11:05:09Z</time>
      </trkpt>
      <trkpt lat="46.1604" lon="6.66909">
        <ele>1159.4</ele>
        <time>2021-06-26T11:05:10Z</time>
      </trkpt>
      <trkpt lat="46.16037" lon="6.66904">
        <ele>1159.4</ele>
        <time>2021-06-26T11:05:11Z</time>
      </trkpt>
      <trkpt lat="46.16034" lon="6.669">
        <ele>1159.6</ele>
        <time>2021-06-26T11:05:12Z</time>
      </trkpt>
      <trkpt lat="46.1603" lon="6.66898">
        <ele>1159.8</ele>
        <time>2021-06-26T11:05:13Z</time>
      </trkpt>
      <trkpt lat="46.16025" lon="6.66896">
        <ele>1159.8</ele>
        <time>2021-06-26T11:05:14Z</time>
      </trkpt>
      <trkpt lat="46.16021" lon="6.66894">
        <ele>1159.8</ele>
        <time>2021-06-26T11:05:15Z</time>
      </trkpt>
      <trkpt lat="46.16016" lon="6.66891">
        <ele>1159.8</ele>
        <time>2021-06-26T11:05:16Z</time>
      </trkpt>
      <trkpt lat="46.16006" lon="6.66884">
        <ele>1160</ele>
        <time>2021-06-26T11:05:18Z</time>
      </trkpt>
      <trkpt lat="46.15972" lon="6.66857">
        <ele>1160.4</ele>
        <time>2021-06-26T11:05:25Z</time>
      </trkpt>
      <trkpt lat="46.15954" lon="6.66837">
        <ele>1160</ele>
        <time>2021-06-26T11:05:29Z</time>
      </trkpt>
      <trkpt lat="46.1594" lon="6.66821">
        <ele>1159.6</ele>
        <time>2021-06-26T11:05:32Z</time>
      </trkpt>
      <trkpt lat="46.15936" lon="6.66816">
        <ele>1159.8</ele>
        <time>2021-06-26T11:05:33Z</time>
      </trkpt>
      <trkpt lat="46.15917" lon="6.66794">
        <ele>1159.6</ele>
        <time>2021-06-26T11:05:37Z</time>
      </trkpt>
      <trkpt lat="46.15908" lon="6.66785">
        <ele>1159.6</ele>
        <time>2021-06-26T11:05:39Z</time>
      </trkpt>
      <trkpt lat="46.15903" lon="6.6678">
        <ele>1159.6</ele>
        <time>2021-06-26T11:05:40Z</time>
      </trkpt>
      <trkpt lat="46.15893" lon="6.6677">
        <ele>1159.6</ele>
        <time>2021-06-26T11:05:42Z</time>
      </trkpt>
      <trkpt lat="46.15882" lon="6.66761">
        <ele>1159.6</ele>
        <time>2021-06-26T11:05:44Z</time>
      </trkpt>
      <trkpt lat="46.15877" lon="6.66757">
        <ele>1159.6</ele>
        <time>2021-06-26T11:05:45Z</time>
      </trkpt>
      <trkpt lat="46.1585" lon="6.66736">
        <ele>1159</ele>
        <time>2021-06-26T11:05:50Z</time>
      </trkpt>
      <trkpt lat="46.15816" lon="6.66711">
        <ele>1159</ele>
        <time>2021-06-26T11:05:56Z</time>
      </trkpt>
      <trkpt lat="46.15805" lon="6.667">
        <ele>1159</ele>
        <time>2021-06-26T11:05:58Z</time>
      </trkpt>
      <trkpt lat="46.15792" lon="6.6668">
        <ele>1158.8</ele>
        <time>2021-06-26T11:06:01Z</time>
      </trkpt>
      <trkpt lat="46.15772" lon="6.66643">
        <ele>1158.4</ele>
        <time>2021-06-26T11:06:06Z</time>
      </trkpt>
      <trkpt lat="46.15763" lon="6.66628">
        <ele>1158.4</ele>
        <time>2021-06-26T11:06:08Z</time>
      </trkpt>
      <trkpt lat="46.15759" lon="6.66621">
        <ele>1158.2</ele>
        <time>2021-06-26T11:06:09Z</time>
      </trkpt>
      <trkpt lat="46.15754" lon="6.66615">
        <ele>1158.2</ele>
        <time>2021-06-26T11:06:10Z</time>
      </trkpt>
      <trkpt lat="46.1575" lon="6.66608">
        <ele>1158.2</ele>
        <time>2021-06-26T11:06:11Z</time>
      </trkpt>
      <trkpt lat="46.15746" lon="6.66601">
        <ele>1158</ele>
        <time>2021-06-26T11:06:12Z</time>
      </trkpt>
      <trkpt lat="46.15728" lon="6.66574">
        <ele>1158</ele>
        <time>2021-06-26T11:06:16Z</time>
      </trkpt>
      <trkpt lat="46.15706" lon="6.66539">
        <ele>1157.6</ele>
        <time>2021-06-26T11:06:21Z</time>
      </trkpt>
      <trkpt lat="46.15697" lon="6.66523">
        <ele>1157.4</ele>
        <time>2021-06-26T11:06:23Z</time>
      </trkpt>
      <trkpt lat="46.15692" lon="6.66515">
        <ele>1157.4</ele>
        <time>2021-06-26T11:06:24Z</time>
      </trkpt>
      <trkpt lat="46.15678" lon="6.6649">
        <ele>1157</ele>
        <time>2021-06-26T11:06:27Z</time>
      </trkpt>
      <trkpt lat="46.15659" lon="6.66458">
        <ele>1155.6</ele>
        <time>2021-06-26T11:06:31Z</time>
      </trkpt>
      <trkpt lat="46.15643" lon="6.66434">
        <ele>1155</ele>
        <time>2021-06-26T11:06:34Z</time>
      </trkpt>
      <trkpt lat="46.15633" lon="6.66418">
        <ele>1154.8</ele>
        <time>2021-06-26T11:06:36Z</time>
      </trkpt>
      <trkpt lat="46.15629" lon="6.66411">
        <ele>1154.4</ele>
        <time>2021-06-26T11:06:37Z</time>
      </trkpt>
      <trkpt lat="46.15624" lon="6.66403">
        <ele>1154.2</ele>
        <time>2021-06-26T11:06:38Z</time>
      </trkpt>
      <trkpt lat="46.15619" lon="6.66396">
        <ele>1154</ele>
        <time>2021-06-26T11:06:39Z</time>
      </trkpt>
      <trkpt lat="46.15613" lon="6.66389">
        <ele>1154</ele>
        <time>2021-06-26T11:06:40Z</time>
      </trkpt>
      <trkpt lat="46.15609" lon="6.66382">
        <ele>1153.8</ele>
        <time>2021-06-26T11:06:41Z</time>
      </trkpt>
      <trkpt lat="46.15594" lon="6.6636">
        <ele>1153.6</ele>
        <time>2021-06-26T11:06:44Z</time>
      </trkpt>
      <trkpt lat="46.15585" lon="6.66346">
        <ele>1153.4</ele>
        <time>2021-06-26T11:06:46Z</time>
      </trkpt>
      <trkpt lat="46.15581" lon="6.66339">
        <ele>1153</ele>
        <time>2021-06-26T11:06:47Z</time>
      </trkpt>
      <trkpt lat="46.15576" lon="6.66332">
        <ele>1152.6</ele>
        <time>2021-06-26T11:06:48Z</time>
      </trkpt>
      <trkpt lat="46.15567" lon="6.66317">
        <ele>1152.2</ele>
        <time>2021-06-26T11:06:50Z</time>
      </trkpt>
      <trkpt lat="46.15558" lon="6.66303">
        <ele>1151.8</ele>
        <time>2021-06-26T11:06:52Z</time>
      </trkpt>
      <trkpt lat="46.15539" lon="6.66274">
        <ele>1151.6</ele>
        <time>2021-06-26T11:06:56Z</time>
      </trkpt>
      <trkpt lat="46.15503" lon="6.66218">
        <ele>1151</ele>
        <time>2021-06-26T11:07:03Z</time>
      </trkpt>
      <trkpt lat="46.15488" lon="6.66211">
        <ele>1150.8</ele>
        <time>2021-06-26T11:07:05Z</time>
      </trkpt>
      <trkpt lat="46.1548" lon="6.66208">
        <ele>1150.6</ele>
        <time>2021-06-26T11:07:06Z</time>
      </trkpt>
      <trkpt lat="46.15473" lon="6.66204">
        <ele>1150.4</ele>
        <time>2021-06-26T11:07:07Z</time>
      </trkpt>
      <trkpt lat="46.15465" lon="6.662">
        <ele>1150.4</ele>
        <time>2021-06-26T11:07:08Z</time>
      </trkpt>
      <trkpt lat="46.15458" lon="6.66195">
        <ele>1150</ele>
        <time>2021-06-26T11:07:09Z</time>
      </trkpt>
      <trkpt lat="46.15444" lon="6.66182">
        <ele>1149.4</ele>
        <time>2021-06-26T11:07:11Z</time>
      </trkpt>
      <trkpt lat="46.15423" lon="6.66165">
        <ele>1148.2</ele>
        <time>2021-06-26T11:07:14Z</time>
      </trkpt>
      <trkpt lat="46.15415" lon="6.66159">
        <ele>1147.6</ele>
        <time>2021-06-26T11:07:15Z</time>
      </trkpt>
      <trkpt lat="46.154" lon="6.66147">
        <ele>1146.4</ele>
        <time>2021-06-26T11:07:17Z</time>
      </trkpt>
      <trkpt lat="46.15386" lon="6.66133">
        <ele>1145.6</ele>
        <time>2021-06-26T11:07:19Z</time>
      </trkpt>
      <trkpt lat="46.15381" lon="6.66124">
        <ele>1145</ele>
        <time>2021-06-26T11:07:20Z</time>
      </trkpt>
      <trkpt lat="46.15375" lon="6.66114">
        <ele>1144.8</ele>
        <time>2021-06-26T11:07:21Z</time>
      </trkpt>
      <trkpt lat="46.15348" lon="6.66062">
        <ele>1143.2</ele>
        <time>2021-06-26T11:07:26Z</time>
      </trkpt>
      <trkpt lat="46.15336" lon="6.66041">
        <ele>1141.6</ele>
        <time>2021-06-26T11:07:28Z</time>
      </trkpt>
      <trkpt lat="46.15329" lon="6.66031">
        <ele>1141</ele>
        <time>2021-06-26T11:07:29Z</time>
      </trkpt>
      <trkpt lat="46.15298" lon="6.65999">
        <ele>1140</ele>
        <time>2021-06-26T11:07:33Z</time>
      </trkpt>
      <trkpt lat="46.15262" lon="6.6598">
        <ele>1137.8</ele>
        <time>2021-06-26T11:07:37Z</time>
      </trkpt>
      <trkpt lat="46.15253" lon="6.65977">
        <ele>1137.2</ele>
        <time>2021-06-26T11:07:38Z</time>
      </trkpt>
      <trkpt lat="46.15243" lon="6.65973">
        <ele>1136.6</ele>
        <time>2021-06-26T11:07:39Z</time>
      </trkpt>
      <trkpt lat="46.15227" lon="6.65958">
        <ele>1136</ele>
        <time>2021-06-26T11:07:41Z</time>
      </trkpt>
      <trkpt lat="46.1522" lon="6.65948">
        <ele>1135.2</ele>
        <time>2021-06-26T11:07:42Z</time>
      </trkpt>
      <trkpt lat="46.15215" lon="6.65936">
        <ele>1134.8</ele>
        <time>2021-06-26T11:07:43Z</time>
      </trkpt>
      <trkpt lat="46.1521" lon="6.65925">
        <ele>1134.6</ele>
        <time>2021-06-26T11:07:44Z</time>
      </trkpt>
      <trkpt lat="46.15206" lon="6.65912">
        <ele>1134.2</ele>
        <time>2021-06-26T11:07:45Z</time>
      </trkpt>
      <trkpt lat="46.15201" lon="6.659">
        <ele>1133.8</ele>
        <time>2021-06-26T11:07:46Z</time>
      </trkpt>
      <trkpt lat="46.15182" lon="6.6585">
        <ele>1132</ele>
        <time>2021-06-26T11:07:50Z</time>
      </trkpt>
      <trkpt lat="46.15176" lon="6.65837">
        <ele>1131.2</ele>
        <time>2021-06-26T11:07:51Z</time>
      </trkpt>
      <trkpt lat="46.15169" lon="6.65826">
        <ele>1130.6</ele>
        <time>2021-06-26T11:07:52Z</time>
      </trkpt>
      <trkpt lat="46.15161" lon="6.65815">
        <ele>1130</ele>
        <time>2021-06-26T11:07:53Z</time>
      </trkpt>
      <trkpt lat="46.15143" lon="6.65798">
        <ele>1129</ele>
        <time>2021-06-26T11:07:55Z</time>
      </trkpt>
      <trkpt lat="46.15134" lon="6.6579">
        <ele>1128.6</ele>
        <time>2021-06-26T11:07:56Z</time>
      </trkpt>
      <trkpt lat="46.15105" lon="6.65768">
        <ele>1126.8</ele>
        <time>2021-06-26T11:07:59Z</time>
      </trkpt>
      <trkpt lat="46.15086" lon="6.65751">
        <ele>1125.4</ele>
        <time>2021-06-26T11:08:01Z</time>
      </trkpt>
      <trkpt lat="46.15077" lon="6.65743">
        <ele>1124.8</ele>
        <time>2021-06-26T11:08:02Z</time>
      </trkpt>
      <trkpt lat="46.1506" lon="6.65724">
        <ele>1123.8</ele>
        <time>2021-06-26T11:08:04Z</time>
      </trkpt>
      <trkpt lat="46.15043" lon="6.65705">
        <ele>1121.6</ele>
        <time>2021-06-26T11:08:06Z</time>
      </trkpt>
      <trkpt lat="46.15036" lon="6.65694">
        <ele>1121</ele>
        <time>2021-06-26T11:08:07Z</time>
      </trkpt>
      <trkpt lat="46.15028" lon="6.65683">
        <ele>1120.4</ele>
        <time>2021-06-26T11:08:08Z</time>
      </trkpt>
      <trkpt lat="46.15019" lon="6.65673">
        <ele>1119.6</ele>
        <time>2021-06-26T11:08:09Z</time>
      </trkpt>
      <trkpt lat="46.15011" lon="6.65664">
        <ele>1119.6</ele>
        <time>2021-06-26T11:08:10Z</time>
      </trkpt>
      <trkpt lat="46.15003" lon="6.65656">
        <ele>1118.8</ele>
        <time>2021-06-26T11:08:11Z</time>
      </trkpt>
      <trkpt lat="46.14994" lon="6.65647">
        <ele>1118.2</ele>
        <time>2021-06-26T11:08:12Z</time>
      </trkpt>
      <trkpt lat="46.14985" lon="6.65638">
        <ele>1117.6</ele>
        <time>2021-06-26T11:08:13Z</time>
      </trkpt>
      <trkpt lat="46.14967" lon="6.65621">
        <ele>1116.8</ele>
        <time>2021-06-26T11:08:15Z</time>
      </trkpt>
      <trkpt lat="46.14949" lon="6.65608">
        <ele>1116</ele>
        <time>2021-06-26T11:08:17Z</time>
      </trkpt>
      <trkpt lat="46.14941" lon="6.65604">
        <ele>1115.2</ele>
        <time>2021-06-26T11:08:18Z</time>
      </trkpt>
      <trkpt lat="46.14932" lon="6.65603">
        <ele>1114.2</ele>
        <time>2021-06-26T11:08:19Z</time>
      </trkpt>
      <trkpt lat="46.14925" lon="6.65603">
        <ele>1113.4</ele>
        <time>2021-06-26T11:08:20Z</time>
      </trkpt>
      <trkpt lat="46.14917" lon="6.65604">
        <ele>1112.6</ele>
        <time>2021-06-26T11:08:21Z</time>
      </trkpt>
      <trkpt lat="46.1491" lon="6.65606">
        <ele>1112</ele>
        <time>2021-06-26T11:08:22Z</time>
      </trkpt>
      <trkpt lat="46.14903" lon="6.65608">
        <ele>1111.4</ele>
        <time>2021-06-26T11:08:23Z</time>
      </trkpt>
      <trkpt lat="46.14896" lon="6.6561">
        <ele>1111.2</ele>
        <time>2021-06-26T11:08:24Z</time>
      </trkpt>
      <trkpt lat="46.14879" lon="6.65611">
        <ele>1110.4</ele>
        <time>2021-06-26T11:08:26Z</time>
      </trkpt>
      <trkpt lat="46.14871" lon="6.65612">
        <ele>1110.2</ele>
        <time>2021-06-26T11:08:27Z</time>
      </trkpt>
      <trkpt lat="46.14844" lon="6.65617">
        <ele>1110</ele>
        <time>2021-06-26T11:08:30Z</time>
      </trkpt>
      <trkpt lat="46.14825" lon="6.65619">
        <ele>1109.8</ele>
        <time>2021-06-26T11:08:32Z</time>
      </trkpt>
      <trkpt lat="46.14806" lon="6.65615">
        <ele>1109.6</ele>
        <time>2021-06-26T11:08:34Z</time>
      </trkpt>
      <trkpt lat="46.14797" lon="6.6561">
        <ele>1109.4</ele>
        <time>2021-06-26T11:08:35Z</time>
      </trkpt>
      <trkpt lat="46.14789" lon="6.65603">
        <ele>1109.2</ele>
        <time>2021-06-26T11:08:36Z</time>
      </trkpt>
      <trkpt lat="46.14782" lon="6.65595">
        <ele>1108.2</ele>
        <time>2021-06-26T11:08:37Z</time>
      </trkpt>
      <trkpt lat="46.14775" lon="6.65585">
        <ele>1107.8</ele>
        <time>2021-06-26T11:08:38Z</time>
      </trkpt>
      <trkpt lat="46.14769" lon="6.65575">
        <ele>1107.2</ele>
        <time>2021-06-26T11:08:39Z</time>
      </trkpt>
      <trkpt lat="46.14762" lon="6.65565">
        <ele>1106.8</ele>
        <time>2021-06-26T11:08:40Z</time>
      </trkpt>
      <trkpt lat="46.14756" lon="6.65554">
        <ele>1106</ele>
        <time>2021-06-26T11:08:41Z</time>
      </trkpt>
      <trkpt lat="46.14731" lon="6.65513">
        <ele>1103.4</ele>
        <time>2021-06-26T11:08:45Z</time>
      </trkpt>
      <trkpt lat="46.14725" lon="6.65503">
        <ele>1102.8</ele>
        <time>2021-06-26T11:08:46Z</time>
      </trkpt>
      <trkpt lat="46.14719" lon="6.65493">
        <ele>1102.8</ele>
        <time>2021-06-26T11:08:47Z</time>
      </trkpt>
      <trkpt lat="46.14692" lon="6.65448">
        <ele>1101.8</ele>
        <time>2021-06-26T11:08:51Z</time>
      </trkpt>
      <trkpt lat="46.14679" lon="6.65424">
        <ele>1101.4</ele>
        <time>2021-06-26T11:08:53Z</time>
      </trkpt>
      <trkpt lat="46.14673" lon="6.65411">
        <ele>1101.2</ele>
        <time>2021-06-26T11:08:54Z</time>
      </trkpt>
      <trkpt lat="46.14661" lon="6.65383">
        <ele>1100.4</ele>
        <time>2021-06-26T11:08:56Z</time>
      </trkpt>
      <trkpt lat="46.14655" lon="6.6537">
        <ele>1100</ele>
        <time>2021-06-26T11:08:57Z</time>
      </trkpt>
      <trkpt lat="46.14649" lon="6.65357">
        <ele>1099.6</ele>
        <time>2021-06-26T11:08:58Z</time>
      </trkpt>
      <trkpt lat="46.14635" lon="6.65332">
        <ele>1099</ele>
        <time>2021-06-26T11:09:00Z</time>
      </trkpt>
      <trkpt lat="46.14619" lon="6.65309">
        <ele>1097.6</ele>
        <time>2021-06-26T11:09:02Z</time>
      </trkpt>
      <trkpt lat="46.14611" lon="6.65297">
        <ele>1097.2</ele>
        <time>2021-06-26T11:09:03Z</time>
      </trkpt>
      <trkpt lat="46.14603" lon="6.65286">
        <ele>1096.4</ele>
        <time>2021-06-26T11:09:04Z</time>
      </trkpt>
      <trkpt lat="46.14588" lon="6.65264">
        <ele>1095</ele>
        <time>2021-06-26T11:09:06Z</time>
      </trkpt>
      <trkpt lat="46.14581" lon="6.65252">
        <ele>1094.4</ele>
        <time>2021-06-26T11:09:07Z</time>
      </trkpt>
      <trkpt lat="46.14574" lon="6.65241">
        <ele>1093.8</ele>
        <time>2021-06-26T11:09:08Z</time>
      </trkpt>
      <trkpt lat="46.14568" lon="6.6523">
        <ele>1093.2</ele>
        <time>2021-06-26T11:09:09Z</time>
      </trkpt>
      <trkpt lat="46.14561" lon="6.65218">
        <ele>1092.8</ele>
        <time>2021-06-26T11:09:10Z</time>
      </trkpt>
      <trkpt lat="46.14555" lon="6.65207">
        <ele>1092.4</ele>
        <time>2021-06-26T11:09:11Z</time>
      </trkpt>
      <trkpt lat="46.14549" lon="6.65195">
        <ele>1091.8</ele>
        <time>2021-06-26T11:09:12Z</time>
      </trkpt>
      <trkpt lat="46.14543" lon="6.65183">
        <ele>1091.2</ele>
        <time>2021-06-26T11:09:13Z</time>
      </trkpt>
      <trkpt lat="46.14538" lon="6.6517">
        <ele>1090.4</ele>
        <time>2021-06-26T11:09:14Z</time>
      </trkpt>
      <trkpt lat="46.14533" lon="6.65158">
        <ele>1089.8</ele>
        <time>2021-06-26T11:09:15Z</time>
      </trkpt>
      <trkpt lat="46.14512" lon="6.6509">
        <ele>1088.6</ele>
        <time>2021-06-26T11:09:20Z</time>
      </trkpt>
      <trkpt lat="46.14506" lon="6.65062">
        <ele>1088.4</ele>
        <time>2021-06-26T11:09:22Z</time>
      </trkpt>
      <trkpt lat="46.14504" lon="6.65049">
        <ele>1088.4</ele>
        <time>2021-06-26T11:09:23Z</time>
      </trkpt>
      <trkpt lat="46.14501" lon="6.65035">
        <ele>1088.2</ele>
        <time>2021-06-26T11:09:24Z</time>
      </trkpt>
      <trkpt lat="46.14499" lon="6.65022">
        <ele>1088</ele>
        <time>2021-06-26T11:09:25Z</time>
      </trkpt>
      <trkpt lat="46.14497" lon="6.65009">
        <ele>1087.8</ele>
        <time>2021-06-26T11:09:26Z</time>
      </trkpt>
      <trkpt lat="46.14495" lon="6.64996">
        <ele>1087.8</ele>
        <time>2021-06-26T11:09:27Z</time>
      </trkpt>
      <trkpt lat="46.14492" lon="6.64983">
        <ele>1087.6</ele>
        <time>2021-06-26T11:09:28Z</time>
      </trkpt>
      <trkpt lat="46.14488" lon="6.64972">
        <ele>1087.4</ele>
        <time>2021-06-26T11:09:29Z</time>
      </trkpt>
      <trkpt lat="46.14483" lon="6.64961">
        <ele>1087.4</ele>
        <time>2021-06-26T11:09:30Z</time>
      </trkpt>
      <trkpt lat="46.14478" lon="6.64951">
        <ele>1087.6</ele>
        <time>2021-06-26T11:09:31Z</time>
      </trkpt>
      <trkpt lat="46.14472" lon="6.64942">
        <ele>1087.4</ele>
        <time>2021-06-26T11:09:32Z</time>
      </trkpt>
      <trkpt lat="46.14466" lon="6.64933">
        <ele>1087.4</ele>
        <time>2021-06-26T11:09:33Z</time>
      </trkpt>
      <trkpt lat="46.14459" lon="6.64925">
        <ele>1087.2</ele>
        <time>2021-06-26T11:09:34Z</time>
      </trkpt>
      <trkpt lat="46.14453" lon="6.64915">
        <ele>1086.8</ele>
        <time>2021-06-26T11:09:35Z</time>
      </trkpt>
      <trkpt lat="46.14447" lon="6.64904">
        <ele>1086.6</ele>
        <time>2021-06-26T11:09:36Z</time>
      </trkpt>
      <trkpt lat="46.14439" lon="6.64879">
        <ele>1085.8</ele>
        <time>2021-06-26T11:09:38Z</time>
      </trkpt>
      <trkpt lat="46.14435" lon="6.64866">
        <ele>1085.4</ele>
        <time>2021-06-26T11:09:39Z</time>
      </trkpt>
      <trkpt lat="46.14432" lon="6.64853">
        <ele>1085.4</ele>
        <time>2021-06-26T11:09:40Z</time>
      </trkpt>
      <trkpt lat="46.14425" lon="6.64826">
        <ele>1085</ele>
        <time>2021-06-26T11:09:42Z</time>
      </trkpt>
      <trkpt lat="46.14407" lon="6.64772">
        <ele>1083.6</ele>
        <time>2021-06-26T11:09:46Z</time>
      </trkpt>
      <trkpt lat="46.14402" lon="6.64759">
        <ele>1083.2</ele>
        <time>2021-06-26T11:09:47Z</time>
      </trkpt>
      <trkpt lat="46.14377" lon="6.64689">
        <ele>1079.6</ele>
        <time>2021-06-26T11:09:52Z</time>
      </trkpt>
      <trkpt lat="46.14374" lon="6.64673">
        <ele>1079.4</ele>
        <time>2021-06-26T11:09:53Z</time>
      </trkpt>
      <trkpt lat="46.14373" lon="6.64656">
        <ele>1079.2</ele>
        <time>2021-06-26T11:09:54Z</time>
      </trkpt>
      <trkpt lat="46.14373" lon="6.64639">
        <ele>1077.8</ele>
        <time>2021-06-26T11:09:55Z</time>
      </trkpt>
      <trkpt lat="46.14375" lon="6.64623">
        <ele>1076.8</ele>
        <time>2021-06-26T11:09:56Z</time>
      </trkpt>
      <trkpt lat="46.14378" lon="6.64607">
        <ele>1075.8</ele>
        <time>2021-06-26T11:09:57Z</time>
      </trkpt>
      <trkpt lat="46.14381" lon="6.64592">
        <ele>1075.6</ele>
        <time>2021-06-26T11:09:58Z</time>
      </trkpt>
      <trkpt lat="46.14384" lon="6.64576">
        <ele>1075.2</ele>
        <time>2021-06-26T11:09:59Z</time>
      </trkpt>
      <trkpt lat="46.14384" lon="6.6456">
        <ele>1075.2</ele>
        <time>2021-06-26T11:10:00Z</time>
      </trkpt>
      <trkpt lat="46.14382" lon="6.64544">
        <ele>1074.8</ele>
        <time>2021-06-26T11:10:01Z</time>
      </trkpt>
      <trkpt lat="46.14377" lon="6.6453">
        <ele>1074.4</ele>
        <time>2021-06-26T11:10:02Z</time>
      </trkpt>
      <trkpt lat="46.14371" lon="6.64517">
        <ele>1074.4</ele>
        <time>2021-06-26T11:10:03Z</time>
      </trkpt>
      <trkpt lat="46.14356" lon="6.64493">
        <ele>1073.4</ele>
        <time>2021-06-26T11:10:05Z</time>
      </trkpt>
      <trkpt lat="46.1435" lon="6.64479">
        <ele>1072.6</ele>
        <time>2021-06-26T11:10:06Z</time>
      </trkpt>
      <trkpt lat="46.14337" lon="6.6445">
        <ele>1071.6</ele>
        <time>2021-06-26T11:10:08Z</time>
      </trkpt>
      <trkpt lat="46.14318" lon="6.64429">
        <ele>1070</ele>
        <time>2021-06-26T11:10:10Z</time>
      </trkpt>
      <trkpt lat="46.14307" lon="6.64422">
        <ele>1069.4</ele>
        <time>2021-06-26T11:10:11Z</time>
      </trkpt>
      <trkpt lat="46.14297" lon="6.64413">
        <ele>1069.4</ele>
        <time>2021-06-26T11:10:12Z</time>
      </trkpt>
      <trkpt lat="46.14289" lon="6.64401">
        <ele>1069</ele>
        <time>2021-06-26T11:10:13Z</time>
      </trkpt>
      <trkpt lat="46.14285" lon="6.64388">
        <ele>1068.6</ele>
        <time>2021-06-26T11:10:14Z</time>
      </trkpt>
      <trkpt lat="46.14284" lon="6.64373">
        <ele>1068</ele>
        <time>2021-06-26T11:10:15Z</time>
      </trkpt>
      <trkpt lat="46.14285" lon="6.64359">
        <ele>1067.4</ele>
        <time>2021-06-26T11:10:16Z</time>
      </trkpt>
      <trkpt lat="46.14288" lon="6.64346">
        <ele>1066.6</ele>
        <time>2021-06-26T11:10:17Z</time>
      </trkpt>
      <trkpt lat="46.1429" lon="6.64331">
        <ele>1066</ele>
        <time>2021-06-26T11:10:18Z</time>
      </trkpt>
      <trkpt lat="46.1429" lon="6.64316">
        <ele>1065.4</ele>
        <time>2021-06-26T11:10:19Z</time>
      </trkpt>
      <trkpt lat="46.14287" lon="6.64302">
        <ele>1064.4</ele>
        <time>2021-06-26T11:10:20Z</time>
      </trkpt>
      <trkpt lat="46.14278" lon="6.64292">
        <ele>1063.4</ele>
        <time>2021-06-26T11:10:21Z</time>
      </trkpt>
      <trkpt lat="46.14268" lon="6.64286">
        <ele>1062.2</ele>
        <time>2021-06-26T11:10:22Z</time>
      </trkpt>
      <trkpt lat="46.14257" lon="6.64282">
        <ele>1061.8</ele>
        <time>2021-06-26T11:10:23Z</time>
      </trkpt>
      <trkpt lat="46.14247" lon="6.64282">
        <ele>1061.6</ele>
        <time>2021-06-26T11:10:24Z</time>
      </trkpt>
      <trkpt lat="46.14235" lon="6.64284">
        <ele>1061.2</ele>
        <time>2021-06-26T11:10:25Z</time>
      </trkpt>
      <trkpt lat="46.14224" lon="6.64282">
        <ele>1061.2</ele>
        <time>2021-06-26T11:10:26Z</time>
      </trkpt>
      <trkpt lat="46.14214" lon="6.64276">
        <ele>1061</ele>
        <time>2021-06-26T11:10:27Z</time>
      </trkpt>
      <trkpt lat="46.14207" lon="6.64266">
        <ele>1060.4</ele>
        <time>2021-06-26T11:10:28Z</time>
      </trkpt>
      <trkpt lat="46.14202" lon="6.64252">
        <ele>1059.6</ele>
        <time>2021-06-26T11:10:29Z</time>
      </trkpt>
      <trkpt lat="46.14201" lon="6.64236">
        <ele>1059</ele>
        <time>2021-06-26T11:10:30Z</time>
      </trkpt>
      <trkpt lat="46.14203" lon="6.64221">
        <ele>1058.8</ele>
        <time>2021-06-26T11:10:31Z</time>
      </trkpt>
      <trkpt lat="46.14206" lon="6.64206">
        <ele>1058</ele>
        <time>2021-06-26T11:10:32Z</time>
      </trkpt>
      <trkpt lat="46.14209" lon="6.6419">
        <ele>1057.4</ele>
        <time>2021-06-26T11:10:33Z</time>
      </trkpt>
      <trkpt lat="46.1421" lon="6.64174">
        <ele>1056.4</ele>
        <time>2021-06-26T11:10:34Z</time>
      </trkpt>
      <trkpt lat="46.14209" lon="6.64158">
        <ele>1055.2</ele>
        <time>2021-06-26T11:10:35Z</time>
      </trkpt>
      <trkpt lat="46.14206" lon="6.64142">
        <ele>1054</ele>
        <time>2021-06-26T11:10:36Z</time>
      </trkpt>
      <trkpt lat="46.14202" lon="6.64126">
        <ele>1053.4</ele>
        <time>2021-06-26T11:10:37Z</time>
      </trkpt>
      <trkpt lat="46.14198" lon="6.64111">
        <ele>1052.8</ele>
        <time>2021-06-26T11:10:38Z</time>
      </trkpt>
      <trkpt lat="46.1419" lon="6.64097">
        <ele>1052.2</ele>
        <time>2021-06-26T11:10:39Z</time>
      </trkpt>
      <trkpt lat="46.14182" lon="6.64085">
        <ele>1052</ele>
        <time>2021-06-26T11:10:40Z</time>
      </trkpt>
      <trkpt lat="46.14172" lon="6.64076">
        <ele>1051.8</ele>
        <time>2021-06-26T11:10:41Z</time>
      </trkpt>
      <trkpt lat="46.14162" lon="6.6407">
        <ele>1051.4</ele>
        <time>2021-06-26T11:10:42Z</time>
      </trkpt>
      <trkpt lat="46.14151" lon="6.64066">
        <ele>1051</ele>
        <time>2021-06-26T11:10:43Z</time>
      </trkpt>
      <trkpt lat="46.14141" lon="6.64066">
        <ele>1050.6</ele>
        <time>2021-06-26T11:10:44Z</time>
      </trkpt>
      <trkpt lat="46.1413" lon="6.64068">
        <ele>1050</ele>
        <time>2021-06-26T11:10:45Z</time>
      </trkpt>
      <trkpt lat="46.14119" lon="6.6407">
        <ele>1049.4</ele>
        <time>2021-06-26T11:10:46Z</time>
      </trkpt>
      <trkpt lat="46.14108" lon="6.64071">
        <ele>1048.4</ele>
        <time>2021-06-26T11:10:47Z</time>
      </trkpt>
      <trkpt lat="46.14098" lon="6.64067">
        <ele>1047.8</ele>
        <time>2021-06-26T11:10:48Z</time>
      </trkpt>
      <trkpt lat="46.1409" lon="6.64057">
        <ele>1047.8</ele>
        <time>2021-06-26T11:10:49Z</time>
      </trkpt>
      <trkpt lat="46.14085" lon="6.64046">
        <ele>1046.8</ele>
        <time>2021-06-26T11:10:50Z</time>
      </trkpt>
      <trkpt lat="46.14082" lon="6.64033">
        <ele>1046</ele>
        <time>2021-06-26T11:10:51Z</time>
      </trkpt>
      <trkpt lat="46.14079" lon="6.64019">
        <ele>1045.2</ele>
        <time>2021-06-26T11:10:52Z</time>
      </trkpt>
      <trkpt lat="46.14074" lon="6.64007">
        <ele>1045</ele>
        <time>2021-06-26T11:10:53Z</time>
      </trkpt>
      <trkpt lat="46.14066" lon="6.63997">
        <ele>1044.4</ele>
        <time>2021-06-26T11:10:54Z</time>
      </trkpt>
      <trkpt lat="46.14058" lon="6.63988">
        <ele>1043.4</ele>
        <time>2021-06-26T11:10:55Z</time>
      </trkpt>
      <trkpt lat="46.14048" lon="6.63978">
        <ele>1042.6</ele>
        <time>2021-06-26T11:10:56Z</time>
      </trkpt>
      <trkpt lat="46.14039" lon="6.63968">
        <ele>1042</ele>
        <time>2021-06-26T11:10:57Z</time>
      </trkpt>
      <trkpt lat="46.14029" lon="6.63958">
        <ele>1041.2</ele>
        <time>2021-06-26T11:10:58Z</time>
      </trkpt>
      <trkpt lat="46.14019" lon="6.63947">
        <ele>1040</ele>
        <time>2021-06-26T11:10:59Z</time>
      </trkpt>
      <trkpt lat="46.1401" lon="6.63936">
        <ele>1039</ele>
        <time>2021-06-26T11:11:00Z</time>
      </trkpt>
      <trkpt lat="46.13984" lon="6.63897">
        <ele>1037</ele>
        <time>2021-06-26T11:11:03Z</time>
      </trkpt>
      <trkpt lat="46.13977" lon="6.63882">
        <ele>1036.4</ele>
        <time>2021-06-26T11:11:04Z</time>
      </trkpt>
      <trkpt lat="46.13963" lon="6.63849">
        <ele>1034.6</ele>
        <time>2021-06-26T11:11:06Z</time>
      </trkpt>
      <trkpt lat="46.13958" lon="6.63831">
        <ele>1033.6</ele>
        <time>2021-06-26T11:11:07Z</time>
      </trkpt>
      <trkpt lat="46.13954" lon="6.63813">
        <ele>1032.4</ele>
        <time>2021-06-26T11:11:08Z</time>
      </trkpt>
      <trkpt lat="46.1395" lon="6.63795">
        <ele>1031.2</ele>
        <time>2021-06-26T11:11:09Z</time>
      </trkpt>
      <trkpt lat="46.13944" lon="6.63777">
        <ele>1030.2</ele>
        <time>2021-06-26T11:11:10Z</time>
      </trkpt>
      <trkpt lat="46.13937" lon="6.6376">
        <ele>1030.2</ele>
        <time>2021-06-26T11:11:11Z</time>
      </trkpt>
      <trkpt lat="46.13929" lon="6.63745">
        <ele>1029.6</ele>
        <time>2021-06-26T11:11:12Z</time>
      </trkpt>
      <trkpt lat="46.13912" lon="6.63716">
        <ele>1028</ele>
        <time>2021-06-26T11:11:14Z</time>
      </trkpt>
      <trkpt lat="46.13903" lon="6.63702">
        <ele>1027</ele>
        <time>2021-06-26T11:11:15Z</time>
      </trkpt>
      <trkpt lat="46.13883" lon="6.63675">
        <ele>1025</ele>
        <time>2021-06-26T11:11:17Z</time>
      </trkpt>
      <trkpt lat="46.13872" lon="6.63664">
        <ele>1024.6</ele>
        <time>2021-06-26T11:11:18Z</time>
      </trkpt>
      <trkpt lat="46.1386" lon="6.63654">
        <ele>1024.2</ele>
        <time>2021-06-26T11:11:19Z</time>
      </trkpt>
      <trkpt lat="46.13835" lon="6.63639">
        <ele>1022.2</ele>
        <time>2021-06-26T11:11:21Z</time>
      </trkpt>
      <trkpt lat="46.13823" lon="6.63632">
        <ele>1021.4</ele>
        <time>2021-06-26T11:11:22Z</time>
      </trkpt>
      <trkpt lat="46.13811" lon="6.63623">
        <ele>1020.6</ele>
        <time>2021-06-26T11:11:23Z</time>
      </trkpt>
      <trkpt lat="46.1379" lon="6.636">
        <ele>1018.6</ele>
        <time>2021-06-26T11:11:25Z</time>
      </trkpt>
      <trkpt lat="46.13781" lon="6.63586">
        <ele>1017.6</ele>
        <time>2021-06-26T11:11:26Z</time>
      </trkpt>
      <trkpt lat="46.13771" lon="6.63572">
        <ele>1016.4</ele>
        <time>2021-06-26T11:11:27Z</time>
      </trkpt>
      <trkpt lat="46.1376" lon="6.63559">
        <ele>1015.8</ele>
        <time>2021-06-26T11:11:28Z</time>
      </trkpt>
      <trkpt lat="46.13739" lon="6.63534">
        <ele>1014</ele>
        <time>2021-06-26T11:11:30Z</time>
      </trkpt>
      <trkpt lat="46.13729" lon="6.6352">
        <ele>1012.8</ele>
        <time>2021-06-26T11:11:31Z</time>
      </trkpt>
      <trkpt lat="46.1372" lon="6.63505">
        <ele>1012</ele>
        <time>2021-06-26T11:11:32Z</time>
      </trkpt>
      <trkpt lat="46.13711" lon="6.63489">
        <ele>1011.2</ele>
        <time>2021-06-26T11:11:33Z</time>
      </trkpt>
      <trkpt lat="46.13704" lon="6.63471">
        <ele>1011.2</ele>
        <time>2021-06-26T11:11:34Z</time>
      </trkpt>
      <trkpt lat="46.13698" lon="6.63453">
        <ele>1010.4</ele>
        <time>2021-06-26T11:11:35Z</time>
      </trkpt>
      <trkpt lat="46.13686" lon="6.63414">
        <ele>1009.2</ele>
        <time>2021-06-26T11:11:37Z</time>
      </trkpt>
      <trkpt lat="46.1368" lon="6.63394">
        <ele>1008.2</ele>
        <time>2021-06-26T11:11:38Z</time>
      </trkpt>
      <trkpt lat="46.13665" lon="6.6336">
        <ele>1006</ele>
        <time>2021-06-26T11:11:40Z</time>
      </trkpt>
      <trkpt lat="46.13656" lon="6.63345">
        <ele>1004.6</ele>
        <time>2021-06-26T11:11:41Z</time>
      </trkpt>
      <trkpt lat="46.13645" lon="6.63335">
        <ele>1003.8</ele>
        <time>2021-06-26T11:11:42Z</time>
      </trkpt>
      <trkpt lat="46.13632" lon="6.63329">
        <ele>1002.8</ele>
        <time>2021-06-26T11:11:43Z</time>
      </trkpt>
      <trkpt lat="46.13619" lon="6.63326">
        <ele>1002.4</ele>
        <time>2021-06-26T11:11:44Z</time>
      </trkpt>
      <trkpt lat="46.13603" lon="6.63329">
        <ele>1001.8</ele>
        <time>2021-06-26T11:11:45Z</time>
      </trkpt>
      <trkpt lat="46.1359" lon="6.63327">
        <ele>1000.8</ele>
        <time>2021-06-26T11:11:46Z</time>
      </trkpt>
      <trkpt lat="46.13578" lon="6.63321">
        <ele>999.8</ele>
        <time>2021-06-26T11:11:47Z</time>
      </trkpt>
      <trkpt lat="46.13568" lon="6.63311">
        <ele>999</ele>
        <time>2021-06-26T11:11:48Z</time>
      </trkpt>
      <trkpt lat="46.1356" lon="6.63298">
        <ele>997.8</ele>
        <time>2021-06-26T11:11:49Z</time>
      </trkpt>
      <trkpt lat="46.13552" lon="6.63283">
        <ele>997</ele>
        <time>2021-06-26T11:11:50Z</time>
      </trkpt>
      <trkpt lat="46.13544" lon="6.63269">
        <ele>996.4</ele>
        <time>2021-06-26T11:11:51Z</time>
      </trkpt>
      <trkpt lat="46.13536" lon="6.63254">
        <ele>995.2</ele>
        <time>2021-06-26T11:11:52Z</time>
      </trkpt>
      <trkpt lat="46.1353" lon="6.63238">
        <ele>994.4</ele>
        <time>2021-06-26T11:11:53Z</time>
      </trkpt>
      <trkpt lat="46.13517" lon="6.63208">
        <ele>993.6</ele>
        <time>2021-06-26T11:11:55Z</time>
      </trkpt>
      <trkpt lat="46.13512" lon="6.63191">
        <ele>993</ele>
        <time>2021-06-26T11:11:56Z</time>
      </trkpt>
      <trkpt lat="46.13501" lon="6.63157">
        <ele>992.2</ele>
        <time>2021-06-26T11:11:58Z</time>
      </trkpt>
      <trkpt lat="46.13489" lon="6.63123">
        <ele>990.4</ele>
        <time>2021-06-26T11:12:00Z</time>
      </trkpt>
      <trkpt lat="46.13481" lon="6.63108">
        <ele>989.4</ele>
        <time>2021-06-26T11:12:01Z</time>
      </trkpt>
      <trkpt lat="46.13473" lon="6.63092">
        <ele>988.4</ele>
        <time>2021-06-26T11:12:02Z</time>
      </trkpt>
      <trkpt lat="46.13459" lon="6.63059">
        <ele>986.6</ele>
        <time>2021-06-26T11:12:04Z</time>
      </trkpt>
      <trkpt lat="46.13452" lon="6.63042">
        <ele>985.6</ele>
        <time>2021-06-26T11:12:05Z</time>
      </trkpt>
      <trkpt lat="46.13447" lon="6.63024">
        <ele>984.8</ele>
        <time>2021-06-26T11:12:06Z</time>
      </trkpt>
      <trkpt lat="46.13442" lon="6.63005">
        <ele>983.6</ele>
        <time>2021-06-26T11:12:07Z</time>
      </trkpt>
      <trkpt lat="46.13434" lon="6.62968">
        <ele>981.8</ele>
        <time>2021-06-26T11:12:09Z</time>
      </trkpt>
      <trkpt lat="46.1343" lon="6.62949">
        <ele>980.8</ele>
        <time>2021-06-26T11:12:10Z</time>
      </trkpt>
      <trkpt lat="46.13427" lon="6.62931">
        <ele>979.8</ele>
        <time>2021-06-26T11:12:11Z</time>
      </trkpt>
      <trkpt lat="46.13426" lon="6.62914">
        <ele>978.8</ele>
        <time>2021-06-26T11:12:12Z</time>
      </trkpt>
      <trkpt lat="46.13426" lon="6.62898">
        <ele>977.4</ele>
        <time>2021-06-26T11:12:13Z</time>
      </trkpt>
      <trkpt lat="46.13426" lon="6.62883">
        <ele>976</ele>
        <time>2021-06-26T11:12:14Z</time>
      </trkpt>
      <trkpt lat="46.13426" lon="6.6287">
        <ele>974.6</ele>
        <time>2021-06-26T11:12:15Z</time>
      </trkpt>
      <trkpt lat="46.13424" lon="6.62856">
        <ele>973.8</ele>
        <time>2021-06-26T11:12:16Z</time>
      </trkpt>
      <trkpt lat="46.13425" lon="6.62838">
        <ele>973</ele>
        <time>2021-06-26T11:12:17Z</time>
      </trkpt>
      <trkpt lat="46.13426" lon="6.62822">
        <ele>972</ele>
        <time>2021-06-26T11:12:18Z</time>
      </trkpt>
      <trkpt lat="46.13427" lon="6.62808">
        <ele>972</ele>
        <time>2021-06-26T11:12:19Z</time>
      </trkpt>
      <trkpt lat="46.13428" lon="6.62796">
        <ele>971.2</ele>
        <time>2021-06-26T11:12:20Z</time>
      </trkpt>
      <trkpt lat="46.13429" lon="6.62784">
        <ele>970.8</ele>
        <time>2021-06-26T11:12:21Z</time>
      </trkpt>
      <trkpt lat="46.13428" lon="6.62772">
        <ele>970.4</ele>
        <time>2021-06-26T11:12:22Z</time>
      </trkpt>
      <trkpt lat="46.13426" lon="6.62748">
        <ele>970</ele>
        <time>2021-06-26T11:12:24Z</time>
      </trkpt>
      <trkpt lat="46.13424" lon="6.62724">
        <ele>968.8</ele>
        <time>2021-06-26T11:12:26Z</time>
      </trkpt>
      <trkpt lat="46.13428" lon="6.627">
        <ele>968.2</ele>
        <time>2021-06-26T11:12:28Z</time>
      </trkpt>
      <trkpt lat="46.13431" lon="6.62689">
        <ele>968</ele>
        <time>2021-06-26T11:12:29Z</time>
      </trkpt>
      <trkpt lat="46.13435" lon="6.62677">
        <ele>967.6</ele>
        <time>2021-06-26T11:12:30Z</time>
      </trkpt>
      <trkpt lat="46.13438" lon="6.62666">
        <ele>967.6</ele>
        <time>2021-06-26T11:12:31Z</time>
      </trkpt>
      <trkpt lat="46.13447" lon="6.62644">
        <ele>967</ele>
        <time>2021-06-26T11:12:33Z</time>
      </trkpt>
      <trkpt lat="46.13453" lon="6.62634">
        <ele>966.4</ele>
        <time>2021-06-26T11:12:34Z</time>
      </trkpt>
      <trkpt lat="46.13466" lon="6.62615">
        <ele>965.6</ele>
        <time>2021-06-26T11:12:36Z</time>
      </trkpt>
      <trkpt lat="46.13472" lon="6.62605">
        <ele>965.2</ele>
        <time>2021-06-26T11:12:37Z</time>
      </trkpt>
      <trkpt lat="46.13495" lon="6.62578">
        <ele>964.2</ele>
        <time>2021-06-26T11:12:40Z</time>
      </trkpt>
      <trkpt lat="46.13511" lon="6.62562">
        <ele>964</ele>
        <time>2021-06-26T11:12:42Z</time>
      </trkpt>
      <trkpt lat="46.13529" lon="6.62548">
        <ele>963</ele>
        <time>2021-06-26T11:12:44Z</time>
      </trkpt>
      <trkpt lat="46.13546" lon="6.62533">
        <ele>962</ele>
        <time>2021-06-26T11:12:46Z</time>
      </trkpt>
      <trkpt lat="46.13564" lon="6.62518">
        <ele>961.4</ele>
        <time>2021-06-26T11:12:48Z</time>
      </trkpt>
      <trkpt lat="46.13572" lon="6.62508">
        <ele>961</ele>
        <time>2021-06-26T11:12:49Z</time>
      </trkpt>
      <trkpt lat="46.13595" lon="6.62475">
        <ele>959.2</ele>
        <time>2021-06-26T11:12:52Z</time>
      </trkpt>
      <trkpt lat="46.13625" lon="6.6243">
        <ele>957.4</ele>
        <time>2021-06-26T11:12:56Z</time>
      </trkpt>
      <trkpt lat="46.13633" lon="6.6242">
        <ele>957.4</ele>
        <time>2021-06-26T11:12:57Z</time>
      </trkpt>
      <trkpt lat="46.13641" lon="6.6241">
        <ele>956.6</ele>
        <time>2021-06-26T11:12:58Z</time>
      </trkpt>
      <trkpt lat="46.13667" lon="6.62385">
        <ele>956</ele>
        <time>2021-06-26T11:13:01Z</time>
      </trkpt>
      <trkpt lat="46.13675" lon="6.62376">
        <ele>955.8</ele>
        <time>2021-06-26T11:13:02Z</time>
      </trkpt>
      <trkpt lat="46.13682" lon="6.62367">
        <ele>955.6</ele>
        <time>2021-06-26T11:13:03Z</time>
      </trkpt>
      <trkpt lat="46.13687" lon="6.62356">
        <ele>955.4</ele>
        <time>2021-06-26T11:13:04Z</time>
      </trkpt>
      <trkpt lat="46.1369" lon="6.62344">
        <ele>955.4</ele>
        <time>2021-06-26T11:13:05Z</time>
      </trkpt>
      <trkpt lat="46.13689" lon="6.62331">
        <ele>955</ele>
        <time>2021-06-26T11:13:06Z</time>
      </trkpt>
      <trkpt lat="46.13686" lon="6.62319">
        <ele>954.8</ele>
        <time>2021-06-26T11:13:07Z</time>
      </trkpt>
      <trkpt lat="46.13682" lon="6.62308">
        <ele>954.6</ele>
        <time>2021-06-26T11:13:08Z</time>
      </trkpt>
      <trkpt lat="46.13677" lon="6.62299">
        <ele>954.6</ele>
        <time>2021-06-26T11:13:09Z</time>
      </trkpt>
      <trkpt lat="46.13671" lon="6.62293">
        <ele>954.6</ele>
        <time>2021-06-26T11:13:10Z</time>
      </trkpt>
      <trkpt lat="46.13665" lon="6.62289">
        <ele>954.6</ele>
        <time>2021-06-26T11:13:11Z</time>
      </trkpt>
      <trkpt lat="46.13659" lon="6.62289">
        <ele>954.6</ele>
        <time>2021-06-26T11:13:12Z</time>
      </trkpt>
      <trkpt lat="46.13654" lon="6.6229">
        <ele>954.6</ele>
        <time>2021-06-26T11:13:13Z</time>
      </trkpt>
      <trkpt lat="46.13649" lon="6.62293">
        <ele>954.6</ele>
        <time>2021-06-26T11:13:14Z</time>
      </trkpt>
      <trkpt lat="46.13644" lon="6.62297">
        <ele>954.6</ele>
        <time>2021-06-26T11:13:15Z</time>
      </trkpt>
      <trkpt lat="46.1364" lon="6.62302">
        <ele>954.6</ele>
        <time>2021-06-26T11:13:16Z</time>
      </trkpt>
      <trkpt lat="46.13636" lon="6.62306">
        <ele>954.8</ele>
        <time>2021-06-26T11:13:17Z</time>
      </trkpt>
      <trkpt lat="46.13632" lon="6.62309">
        <ele>955.2</ele>
        <time>2021-06-26T11:13:18Z</time>
      </trkpt>
      <trkpt lat="46.13629" lon="6.62313">
        <ele>955.6</ele>
        <time>2021-06-26T11:13:19Z</time>
      </trkpt>
      <trkpt lat="46.13626" lon="6.62316">
        <ele>955.8</ele>
        <time>2021-06-26T11:13:20Z</time>
      </trkpt>
      <trkpt lat="46.13624" lon="6.6232">
        <ele>956.2</ele>
        <time>2021-06-26T11:13:21Z</time>
      </trkpt>
      <trkpt lat="46.13622" lon="6.62323">
        <ele>956.8</ele>
        <time>2021-06-26T11:13:22Z</time>
      </trkpt>
      <trkpt lat="46.13619" lon="6.62326">
        <ele>957.6</ele>
        <time>2021-06-26T11:13:23Z</time>
      </trkpt>
      <trkpt lat="46.13617" lon="6.62328">
        <ele>958</ele>
        <time>2021-06-26T11:13:24Z</time>
      </trkpt>
      <trkpt lat="46.13614" lon="6.62331">
        <ele>958.6</ele>
        <time>2021-06-26T11:13:25Z</time>
      </trkpt>
      <trkpt lat="46.13611" lon="6.62333">
        <ele>959</ele>
        <time>2021-06-26T11:13:26Z</time>
      </trkpt>
      <trkpt lat="46.13607" lon="6.62336">
        <ele>959.4</ele>
        <time>2021-06-26T11:13:27Z</time>
      </trkpt>
      <trkpt lat="46.13604" lon="6.62338">
        <ele>959.4</ele>
        <time>2021-06-26T11:13:28Z</time>
      </trkpt>
      <trkpt lat="46.136" lon="6.62341">
        <ele>960</ele>
        <time>2021-06-26T11:13:29Z</time>
      </trkpt>
      <trkpt lat="46.13596" lon="6.62343">
        <ele>960.4</ele>
        <time>2021-06-26T11:13:30Z</time>
      </trkpt>
      <trkpt lat="46.13593" lon="6.62345">
        <ele>961</ele>
        <time>2021-06-26T11:13:31Z</time>
      </trkpt>
      <trkpt lat="46.1359" lon="6.62347">
        <ele>961.4</ele>
        <time>2021-06-26T11:13:32Z</time>
      </trkpt>
      <trkpt lat="46.13586" lon="6.6235">
        <ele>962</ele>
        <time>2021-06-26T11:13:33Z</time>
      </trkpt>
      <trkpt lat="46.13583" lon="6.62352">
        <ele>962.2</ele>
        <time>2021-06-26T11:13:34Z</time>
      </trkpt>
      <trkpt lat="46.13579" lon="6.62355">
        <ele>962.6</ele>
        <time>2021-06-26T11:13:35Z</time>
      </trkpt>
      <trkpt lat="46.13576" lon="6.62357">
        <ele>962.8</ele>
        <time>2021-06-26T11:13:36Z</time>
      </trkpt>
      <trkpt lat="46.13573" lon="6.62358">
        <ele>963.2</ele>
        <time>2021-06-26T11:13:37Z</time>
      </trkpt>
      <trkpt lat="46.1357" lon="6.6236">
        <ele>963.2</ele>
        <time>2021-06-26T11:13:38Z</time>
      </trkpt>
      <trkpt lat="46.13567" lon="6.62361">
        <ele>963.4</ele>
        <time>2021-06-26T11:13:39Z</time>
      </trkpt>
      <trkpt lat="46.13564" lon="6.62363">
        <ele>964</ele>
        <time>2021-06-26T11:13:40Z</time>
      </trkpt>
      <trkpt lat="46.13561" lon="6.62364">
        <ele>964.2</ele>
        <time>2021-06-26T11:13:41Z</time>
      </trkpt>
      <trkpt lat="46.13559" lon="6.62366">
        <ele>964.6</ele>
        <time>2021-06-26T11:13:42Z</time>
      </trkpt>
      <trkpt lat="46.13556" lon="6.62367">
        <ele>965</ele>
        <time>2021-06-26T11:13:43Z</time>
      </trkpt>
      <trkpt lat="46.13553" lon="6.62368">
        <ele>965.2</ele>
        <time>2021-06-26T11:13:44Z</time>
      </trkpt>
      <trkpt lat="46.13551" lon="6.62369">
        <ele>965.2</ele>
        <time>2021-06-26T11:13:45Z</time>
      </trkpt>
      <trkpt lat="46.13548" lon="6.62369">
        <ele>965.6</ele>
        <time>2021-06-26T11:13:46Z</time>
      </trkpt>
      <trkpt lat="46.13545" lon="6.62369">
        <ele>965.8</ele>
        <time>2021-06-26T11:13:47Z</time>
      </trkpt>
      <trkpt lat="46.13543" lon="6.6237">
        <ele>966.2</ele>
        <time>2021-06-26T11:13:48Z</time>
      </trkpt>
      <trkpt lat="46.1354" lon="6.62371">
        <ele>966.4</ele>
        <time>2021-06-26T11:13:49Z</time>
      </trkpt>
      <trkpt lat="46.13537" lon="6.62371">
        <ele>966.4</ele>
        <time>2021-06-26T11:13:50Z</time>
      </trkpt>
      <trkpt lat="46.13534" lon="6.62372">
        <ele>966.6</ele>
        <time>2021-06-26T11:13:51Z</time>
      </trkpt>
      <trkpt lat="46.13531" lon="6.62372">
        <ele>966.8</ele>
        <time>2021-06-26T11:13:52Z</time>
      </trkpt>
      <trkpt lat="46.13527" lon="6.62373">
        <ele>967.2</ele>
        <time>2021-06-26T11:13:53Z</time>
      </trkpt>
      <trkpt lat="46.13524" lon="6.62373">
        <ele>967.4</ele>
        <time>2021-06-26T11:13:54Z</time>
      </trkpt>
      <trkpt lat="46.13521" lon="6.62373">
        <ele>967.6</ele>
        <time>2021-06-26T11:13:55Z</time>
      </trkpt>
      <trkpt lat="46.13518" lon="6.62374">
        <ele>967.8</ele>
        <time>2021-06-26T11:13:56Z</time>
      </trkpt>
      <trkpt lat="46.13515" lon="6.62374">
        <ele>968</ele>
        <time>2021-06-26T11:13:57Z</time>
      </trkpt>
      <trkpt lat="46.13512" lon="6.62373">
        <ele>968.4</ele>
        <time>2021-06-26T11:13:58Z</time>
      </trkpt>
      <trkpt lat="46.13509" lon="6.62373">
        <ele>968.8</ele>
        <time>2021-06-26T11:13:59Z</time>
      </trkpt>
      <trkpt lat="46.13506" lon="6.62372">
        <ele>969.4</ele>
        <time>2021-06-26T11:14:00Z</time>
      </trkpt>
      <trkpt lat="46.13503" lon="6.62371">
        <ele>970</ele>
        <time>2021-06-26T11:14:01Z</time>
      </trkpt>
      <trkpt lat="46.13501" lon="6.6237">
        <ele>970.2</ele>
        <time>2021-06-26T11:14:02Z</time>
      </trkpt>
      <trkpt lat="46.13498" lon="6.62369">
        <ele>970.4</ele>
        <time>2021-06-26T11:14:03Z</time>
      </trkpt>
      <trkpt lat="46.13496" lon="6.62368">
        <ele>970.6</ele>
        <time>2021-06-26T11:14:04Z</time>
      </trkpt>
      <trkpt lat="46.13494" lon="6.62367">
        <ele>970.8</ele>
        <time>2021-06-26T11:14:05Z</time>
      </trkpt>
      <trkpt lat="46.13492" lon="6.62365">
        <ele>970.8</ele>
        <time>2021-06-26T11:14:06Z</time>
      </trkpt>
      <trkpt lat="46.1349" lon="6.62364">
        <ele>971.2</ele>
        <time>2021-06-26T11:14:07Z</time>
      </trkpt>
      <trkpt lat="46.13488" lon="6.62363">
        <ele>971.4</ele>
        <time>2021-06-26T11:14:08Z</time>
      </trkpt>
      <trkpt lat="46.13486" lon="6.62361">
        <ele>971.6</ele>
        <time>2021-06-26T11:14:09Z</time>
      </trkpt>
      <trkpt lat="46.13484" lon="6.62359">
        <ele>971.6</ele>
        <time>2021-06-26T11:14:10Z</time>
      </trkpt>
      <trkpt lat="46.13483" lon="6.62357">
        <ele>972</ele>
        <time>2021-06-26T11:14:11Z</time>
      </trkpt>
      <trkpt lat="46.13481" lon="6.62356">
        <ele>972.2</ele>
        <time>2021-06-26T11:14:12Z</time>
      </trkpt>
      <trkpt lat="46.13479" lon="6.62354">
        <ele>972.2</ele>
        <time>2021-06-26T11:14:13Z</time>
      </trkpt>
      <trkpt lat="46.13477" lon="6.62352">
        <ele>972.4</ele>
        <time>2021-06-26T11:14:14Z</time>
      </trkpt>
      <trkpt lat="46.13475" lon="6.6235">
        <ele>972.8</ele>
        <time>2021-06-26T11:14:15Z</time>
      </trkpt>
      <trkpt lat="46.13474" lon="6.62349">
        <ele>973</ele>
        <time>2021-06-26T11:14:16Z</time>
      </trkpt>
      <trkpt lat="46.13472" lon="6.62347">
        <ele>973.4</ele>
        <time>2021-06-26T11:14:17Z</time>
      </trkpt>
      <trkpt lat="46.1347" lon="6.62345">
        <ele>973.8</ele>
        <time>2021-06-26T11:14:18Z</time>
      </trkpt>
      <trkpt lat="46.13469" lon="6.62343">
        <ele>974</ele>
        <time>2021-06-26T11:14:19Z</time>
      </trkpt>
      <trkpt lat="46.13467" lon="6.62341">
        <ele>974.2</ele>
        <time>2021-06-26T11:14:20Z</time>
      </trkpt>
      <trkpt lat="46.13465" lon="6.6234">
        <ele>974.6</ele>
        <time>2021-06-26T11:14:21Z</time>
      </trkpt>
      <trkpt lat="46.13463" lon="6.62338">
        <ele>974.8</ele>
        <time>2021-06-26T11:14:22Z</time>
      </trkpt>
      <trkpt lat="46.13461" lon="6.62336">
        <ele>975</ele>
        <time>2021-06-26T11:14:23Z</time>
      </trkpt>
      <trkpt lat="46.13458" lon="6.62335">
        <ele>975.4</ele>
        <time>2021-06-26T11:14:24Z</time>
      </trkpt>
      <trkpt lat="46.13455" lon="6.62334">
        <ele>975.6</ele>
        <time>2021-06-26T11:14:25Z</time>
      </trkpt>
      <trkpt lat="46.13452" lon="6.62332">
        <ele>976</ele>
        <time>2021-06-26T11:14:26Z</time>
      </trkpt>
      <trkpt lat="46.13449" lon="6.62331">
        <ele>976.2</ele>
        <time>2021-06-26T11:14:27Z</time>
      </trkpt>
      <trkpt lat="46.13446" lon="6.6233">
        <ele>976.2</ele>
        <time>2021-06-26T11:14:28Z</time>
      </trkpt>
      <trkpt lat="46.13442" lon="6.62329">
        <ele>976.2</ele>
        <time>2021-06-26T11:14:29Z</time>
      </trkpt>
      <trkpt lat="46.13438" lon="6.62328">
        <ele>976.4</ele>
        <time>2021-06-26T11:14:30Z</time>
      </trkpt>
      <trkpt lat="46.13435" lon="6.62326">
        <ele>976.6</ele>
        <time>2021-06-26T11:14:31Z</time>
      </trkpt>
      <trkpt lat="46.13431" lon="6.62324">
        <ele>976.6</ele>
        <time>2021-06-26T11:14:32Z</time>
      </trkpt>
      <trkpt lat="46.13428" lon="6.62321">
        <ele>976.6</ele>
        <time>2021-06-26T11:14:33Z</time>
      </trkpt>
      <trkpt lat="46.13424" lon="6.62319">
        <ele>976.8</ele>
        <time>2021-06-26T11:14:34Z</time>
      </trkpt>
      <trkpt lat="46.1342" lon="6.62316">
        <ele>976.8</ele>
        <time>2021-06-26T11:14:35Z</time>
      </trkpt>
      <trkpt lat="46.13416" lon="6.62314">
        <ele>976.8</ele>
        <time>2021-06-26T11:14:36Z</time>
      </trkpt>
      <trkpt lat="46.13412" lon="6.62311">
        <ele>976.8</ele>
        <time>2021-06-26T11:14:37Z</time>
      </trkpt>
      <trkpt lat="46.13408" lon="6.62309">
        <ele>977</ele>
        <time>2021-06-26T11:14:38Z</time>
      </trkpt>
      <trkpt lat="46.13403" lon="6.62306">
        <ele>976.8</ele>
        <time>2021-06-26T11:14:39Z</time>
      </trkpt>
      <trkpt lat="46.13394" lon="6.623">
        <ele>977</ele>
        <time>2021-06-26T11:14:41Z</time>
      </trkpt>
      <trkpt lat="46.1338" lon="6.62291">
        <ele>977</ele>
        <time>2021-06-26T11:14:44Z</time>
      </trkpt>
      <trkpt lat="46.13361" lon="6.62279">
        <ele>976.8</ele>
        <time>2021-06-26T11:14:48Z</time>
      </trkpt>
      <trkpt lat="46.13322" lon="6.62256">
        <ele>976.8</ele>
        <time>2021-06-26T11:14:55Z</time>
      </trkpt>
      <trkpt lat="46.13305" lon="6.62246">
        <ele>976.6</ele>
        <time>2021-06-26T11:14:58Z</time>
      </trkpt>
      <trkpt lat="46.13288" lon="6.62236">
        <ele>976.6</ele>
        <time>2021-06-26T11:15:01Z</time>
      </trkpt>
      <trkpt lat="46.13283" lon="6.62232">
        <ele>976.4</ele>
        <time>2021-06-26T11:15:02Z</time>
      </trkpt>
      <trkpt lat="46.13272" lon="6.62225">
        <ele>976.2</ele>
        <time>2021-06-26T11:15:04Z</time>
      </trkpt>
      <trkpt lat="46.13267" lon="6.62222">
        <ele>976.4</ele>
        <time>2021-06-26T11:15:05Z</time>
      </trkpt>
      <trkpt lat="46.13262" lon="6.62219">
        <ele>976.2</ele>
        <time>2021-06-26T11:15:06Z</time>
      </trkpt>
      <trkpt lat="46.13239" lon="6.62205">
        <ele>976.4</ele>
        <time>2021-06-26T11:15:10Z</time>
      </trkpt>
      <trkpt lat="46.13234" lon="6.62201">
        <ele>976.2</ele>
        <time>2021-06-26T11:15:11Z</time>
      </trkpt>
      <trkpt lat="46.13228" lon="6.62198">
        <ele>976.4</ele>
        <time>2021-06-26T11:15:12Z</time>
      </trkpt>
      <trkpt lat="46.13223" lon="6.62195">
        <ele>976.4</ele>
        <time>2021-06-26T11:15:13Z</time>
      </trkpt>
      <trkpt lat="46.13211" lon="6.6219">
        <ele>976.6</ele>
        <time>2021-06-26T11:15:15Z</time>
      </trkpt>
      <trkpt lat="46.13199" lon="6.62187">
        <ele>976.8</ele>
        <time>2021-06-26T11:15:17Z</time>
      </trkpt>
      <trkpt lat="46.13169" lon="6.62176">
        <ele>977.2</ele>
        <time>2021-06-26T11:15:22Z</time>
      </trkpt>
      <trkpt lat="46.13163" lon="6.62172">
        <ele>977.2</ele>
        <time>2021-06-26T11:15:23Z</time>
      </trkpt>
      <trkpt lat="46.1315" lon="6.62164">
        <ele>977</ele>
        <time>2021-06-26T11:15:25Z</time>
      </trkpt>
      <trkpt lat="46.13143" lon="6.6216">
        <ele>977.2</ele>
        <time>2021-06-26T11:15:26Z</time>
      </trkpt>
      <trkpt lat="46.13128" lon="6.62155">
        <ele>977.2</ele>
        <time>2021-06-26T11:15:28Z</time>
      </trkpt>
      <trkpt lat="46.1312" lon="6.62154">
        <ele>977</ele>
        <time>2021-06-26T11:15:29Z</time>
      </trkpt>
      <trkpt lat="46.13112" lon="6.62152">
        <ele>977</ele>
        <time>2021-06-26T11:15:30Z</time>
      </trkpt>
      <trkpt lat="46.13096" lon="6.62151">
        <ele>976.6</ele>
        <time>2021-06-26T11:15:32Z</time>
      </trkpt>
      <trkpt lat="46.13078" lon="6.62151">
        <ele>975.6</ele>
        <time>2021-06-26T11:15:34Z</time>
      </trkpt>
      <trkpt lat="46.1305" lon="6.6215">
        <ele>974</ele>
        <time>2021-06-26T11:15:37Z</time>
      </trkpt>
      <trkpt lat="46.13031" lon="6.62148">
        <ele>972.4</ele>
        <time>2021-06-26T11:15:39Z</time>
      </trkpt>
      <trkpt lat="46.13022" lon="6.62146">
        <ele>971.4</ele>
        <time>2021-06-26T11:15:40Z</time>
      </trkpt>
      <trkpt lat="46.13012" lon="6.62143">
        <ele>970.6</ele>
        <time>2021-06-26T11:15:41Z</time>
      </trkpt>
      <trkpt lat="46.12995" lon="6.62131">
        <ele>970</ele>
        <time>2021-06-26T11:15:43Z</time>
      </trkpt>
      <trkpt lat="46.12987" lon="6.62123">
        <ele>970</ele>
        <time>2021-06-26T11:15:44Z</time>
      </trkpt>
      <trkpt lat="46.12978" lon="6.62117">
        <ele>969.6</ele>
        <time>2021-06-26T11:15:45Z</time>
      </trkpt>
      <trkpt lat="46.1296" lon="6.62112">
        <ele>968.4</ele>
        <time>2021-06-26T11:15:47Z</time>
      </trkpt>
      <trkpt lat="46.12951" lon="6.62112">
        <ele>967.4</ele>
        <time>2021-06-26T11:15:48Z</time>
      </trkpt>
      <trkpt lat="46.12942" lon="6.62112">
        <ele>966.6</ele>
        <time>2021-06-26T11:15:49Z</time>
      </trkpt>
      <trkpt lat="46.12934" lon="6.62113">
        <ele>966.2</ele>
        <time>2021-06-26T11:15:50Z</time>
      </trkpt>
      <trkpt lat="46.12925" lon="6.62113">
        <ele>965.6</ele>
        <time>2021-06-26T11:15:51Z</time>
      </trkpt>
      <trkpt lat="46.12917" lon="6.62112">
        <ele>965.4</ele>
        <time>2021-06-26T11:15:52Z</time>
      </trkpt>
      <trkpt lat="46.12909" lon="6.62113">
        <ele>965</ele>
        <time>2021-06-26T11:15:53Z</time>
      </trkpt>
      <trkpt lat="46.12891" lon="6.62111">
        <ele>964</ele>
        <time>2021-06-26T11:15:55Z</time>
      </trkpt>
      <trkpt lat="46.12874" lon="6.62107">
        <ele>963.6</ele>
        <time>2021-06-26T11:15:57Z</time>
      </trkpt>
      <trkpt lat="46.12866" lon="6.62103">
        <ele>963.4</ele>
        <time>2021-06-26T11:15:58Z</time>
      </trkpt>
      <trkpt lat="46.12849" lon="6.62096">
        <ele>963.2</ele>
        <time>2021-06-26T11:16:00Z</time>
      </trkpt>
      <trkpt lat="46.12831" lon="6.62088">
        <ele>963</ele>
        <time>2021-06-26T11:16:02Z</time>
      </trkpt>
      <trkpt lat="46.12813" lon="6.62079">
        <ele>962.8</ele>
        <time>2021-06-26T11:16:04Z</time>
      </trkpt>
      <trkpt lat="46.12787" lon="6.62066">
        <ele>962.4</ele>
        <time>2021-06-26T11:16:07Z</time>
      </trkpt>
      <trkpt lat="46.12779" lon="6.62061">
        <ele>962</ele>
        <time>2021-06-26T11:16:08Z</time>
      </trkpt>
      <trkpt lat="46.1277" lon="6.62058">
        <ele>961.8</ele>
        <time>2021-06-26T11:16:09Z</time>
      </trkpt>
      <trkpt lat="46.1276" lon="6.62056">
        <ele>961.4</ele>
        <time>2021-06-26T11:16:10Z</time>
      </trkpt>
      <trkpt lat="46.12732" lon="6.62048">
        <ele>959.8</ele>
        <time>2021-06-26T11:16:13Z</time>
      </trkpt>
      <trkpt lat="46.12722" lon="6.62046">
        <ele>959.2</ele>
        <time>2021-06-26T11:16:14Z</time>
      </trkpt>
      <trkpt lat="46.12702" lon="6.62041">
        <ele>957.8</ele>
        <time>2021-06-26T11:16:16Z</time>
      </trkpt>
      <trkpt lat="46.12682" lon="6.62038">
        <ele>957</ele>
        <time>2021-06-26T11:16:18Z</time>
      </trkpt>
      <trkpt lat="46.12663" lon="6.6203">
        <ele>956.2</ele>
        <time>2021-06-26T11:16:20Z</time>
      </trkpt>
      <trkpt lat="46.12653" lon="6.62023">
        <ele>955.8</ele>
        <time>2021-06-26T11:16:21Z</time>
      </trkpt>
      <trkpt lat="46.12627" lon="6.62002">
        <ele>954</ele>
        <time>2021-06-26T11:16:24Z</time>
      </trkpt>
      <trkpt lat="46.12618" lon="6.61994">
        <ele>953.6</ele>
        <time>2021-06-26T11:16:25Z</time>
      </trkpt>
      <trkpt lat="46.12602" lon="6.6198">
        <ele>952.6</ele>
        <time>2021-06-26T11:16:27Z</time>
      </trkpt>
      <trkpt lat="46.12594" lon="6.61971">
        <ele>952.4</ele>
        <time>2021-06-26T11:16:28Z</time>
      </trkpt>
      <trkpt lat="46.12585" lon="6.61964">
        <ele>952.4</ele>
        <time>2021-06-26T11:16:29Z</time>
      </trkpt>
      <trkpt lat="46.12577" lon="6.61956">
        <ele>951.8</ele>
        <time>2021-06-26T11:16:30Z</time>
      </trkpt>
      <trkpt lat="46.12562" lon="6.61941">
        <ele>950.8</ele>
        <time>2021-06-26T11:16:32Z</time>
      </trkpt>
      <trkpt lat="46.12547" lon="6.61925">
        <ele>950.2</ele>
        <time>2021-06-26T11:16:34Z</time>
      </trkpt>
      <trkpt lat="46.1254" lon="6.61915">
        <ele>949.8</ele>
        <time>2021-06-26T11:16:35Z</time>
      </trkpt>
      <trkpt lat="46.12533" lon="6.61905">
        <ele>949.8</ele>
        <time>2021-06-26T11:16:36Z</time>
      </trkpt>
      <trkpt lat="46.12521" lon="6.61883">
        <ele>948.6</ele>
        <time>2021-06-26T11:16:38Z</time>
      </trkpt>
      <trkpt lat="46.12514" lon="6.61873">
        <ele>947.8</ele>
        <time>2021-06-26T11:16:39Z</time>
      </trkpt>
      <trkpt lat="46.12493" lon="6.61842">
        <ele>945.8</ele>
        <time>2021-06-26T11:16:42Z</time>
      </trkpt>
      <trkpt lat="46.12487" lon="6.61832">
        <ele>945.8</ele>
        <time>2021-06-26T11:16:43Z</time>
      </trkpt>
      <trkpt lat="46.1248" lon="6.61823">
        <ele>945.4</ele>
        <time>2021-06-26T11:16:44Z</time>
      </trkpt>
      <trkpt lat="46.12474" lon="6.61813">
        <ele>944.8</ele>
        <time>2021-06-26T11:16:45Z</time>
      </trkpt>
      <trkpt lat="46.12469" lon="6.61803">
        <ele>944</ele>
        <time>2021-06-26T11:16:46Z</time>
      </trkpt>
      <trkpt lat="46.12464" lon="6.61792">
        <ele>943.8</ele>
        <time>2021-06-26T11:16:47Z</time>
      </trkpt>
      <trkpt lat="46.12459" lon="6.61782">
        <ele>943.2</ele>
        <time>2021-06-26T11:16:48Z</time>
      </trkpt>
      <trkpt lat="46.12455" lon="6.61771">
        <ele>942.8</ele>
        <time>2021-06-26T11:16:49Z</time>
      </trkpt>
      <trkpt lat="46.12451" lon="6.61761">
        <ele>942.4</ele>
        <time>2021-06-26T11:16:50Z</time>
      </trkpt>
      <trkpt lat="46.12447" lon="6.6175">
        <ele>941.8</ele>
        <time>2021-06-26T11:16:51Z</time>
      </trkpt>
      <trkpt lat="46.12443" lon="6.61739">
        <ele>941.8</ele>
        <time>2021-06-26T11:16:52Z</time>
      </trkpt>
      <trkpt lat="46.1244" lon="6.61729">
        <ele>941.4</ele>
        <time>2021-06-26T11:16:53Z</time>
      </trkpt>
      <trkpt lat="46.12437" lon="6.61719">
        <ele>941.2</ele>
        <time>2021-06-26T11:16:54Z</time>
      </trkpt>
      <trkpt lat="46.12433" lon="6.61709">
        <ele>941.2</ele>
        <time>2021-06-26T11:16:55Z</time>
      </trkpt>
      <trkpt lat="46.1243" lon="6.617">
        <ele>941.2</ele>
        <time>2021-06-26T11:16:56Z</time>
      </trkpt>
      <trkpt lat="46.12415" lon="6.61661">
        <ele>941</ele>
        <time>2021-06-26T11:17:00Z</time>
      </trkpt>
      <trkpt lat="46.12411" lon="6.61652">
        <ele>941</ele>
        <time>2021-06-26T11:17:01Z</time>
      </trkpt>
      <trkpt lat="46.12408" lon="6.61643">
        <ele>940.8</ele>
        <time>2021-06-26T11:17:02Z</time>
      </trkpt>
      <trkpt lat="46.12404" lon="6.61633">
        <ele>940.8</ele>
        <time>2021-06-26T11:17:03Z</time>
      </trkpt>
      <trkpt lat="46.12381" lon="6.61577">
        <ele>941</ele>
        <time>2021-06-26T11:17:09Z</time>
      </trkpt>
      <trkpt lat="46.12374" lon="6.61557">
        <ele>941</ele>
        <time>2021-06-26T11:17:11Z</time>
      </trkpt>
      <trkpt lat="46.12364" lon="6.61539">
        <ele>941</ele>
        <time>2021-06-26T11:17:13Z</time>
      </trkpt>
      <trkpt lat="46.12358" lon="6.61531">
        <ele>941</ele>
        <time>2021-06-26T11:17:14Z</time>
      </trkpt>
      <trkpt lat="46.12333" lon="6.61499">
        <ele>941</ele>
        <time>2021-06-26T11:17:18Z</time>
      </trkpt>
      <trkpt lat="46.12328" lon="6.61493">
        <ele>941</ele>
        <time>2021-06-26T11:17:19Z</time>
      </trkpt>
      <trkpt lat="46.12325" lon="6.61487">
        <ele>941</ele>
        <time>2021-06-26T11:17:20Z</time>
      </trkpt>
      <trkpt lat="46.12322" lon="6.61482">
        <ele>940.8</ele>
        <time>2021-06-26T11:17:21Z</time>
      </trkpt>
      <trkpt lat="46.1232" lon="6.61477">
        <ele>940.6</ele>
        <time>2021-06-26T11:17:22Z</time>
      </trkpt>
      <trkpt lat="46.12318" lon="6.61472">
        <ele>940.4</ele>
        <time>2021-06-26T11:17:23Z</time>
      </trkpt>
      <trkpt lat="46.12315" lon="6.61466">
        <ele>940.2</ele>
        <time>2021-06-26T11:17:24Z</time>
      </trkpt>
      <trkpt lat="46.12313" lon="6.6146">
        <ele>939.8</ele>
        <time>2021-06-26T11:17:25Z</time>
      </trkpt>
      <trkpt lat="46.12307" lon="6.61429">
        <ele>939.6</ele>
        <time>2021-06-26T11:17:29Z</time>
      </trkpt>
      <trkpt lat="46.12306" lon="6.61414">
        <ele>939.4</ele>
        <time>2021-06-26T11:17:31Z</time>
      </trkpt>
      <trkpt lat="46.12308" lon="6.614">
        <ele>939.4</ele>
        <time>2021-06-26T11:17:33Z</time>
      </trkpt>
      <trkpt lat="46.12308" lon="6.61392">
        <ele>939.2</ele>
        <time>2021-06-26T11:17:34Z</time>
      </trkpt>
      <trkpt lat="46.12309" lon="6.61386">
        <ele>939.4</ele>
        <time>2021-06-26T11:17:35Z</time>
      </trkpt>
      <trkpt lat="46.12309" lon="6.61379">
        <ele>939.4</ele>
        <time>2021-06-26T11:17:36Z</time>
      </trkpt>
      <trkpt lat="46.1231" lon="6.61371">
        <ele>939.4</ele>
        <time>2021-06-26T11:17:37Z</time>
      </trkpt>
      <trkpt lat="46.12309" lon="6.61338">
        <ele>939.4</ele>
        <time>2021-06-26T11:17:41Z</time>
      </trkpt>
      <trkpt lat="46.12308" lon="6.61328">
        <ele>939.4</ele>
        <time>2021-06-26T11:17:42Z</time>
      </trkpt>
      <trkpt lat="46.12308" lon="6.61318">
        <ele>939.2</ele>
        <time>2021-06-26T11:17:43Z</time>
      </trkpt>
      <trkpt lat="46.12308" lon="6.61307">
        <ele>939.2</ele>
        <time>2021-06-26T11:17:44Z</time>
      </trkpt>
      <trkpt lat="46.12309" lon="6.61285">
        <ele>939.2</ele>
        <time>2021-06-26T11:17:46Z</time>
      </trkpt>
      <trkpt lat="46.1231" lon="6.61273">
        <ele>939.2</ele>
        <time>2021-06-26T11:17:47Z</time>
      </trkpt>
      <trkpt lat="46.12312" lon="6.61219">
        <ele>937.8</ele>
        <time>2021-06-26T11:17:52Z</time>
      </trkpt>
      <trkpt lat="46.12312" lon="6.61209">
        <ele>936.8</ele>
        <time>2021-06-26T11:17:53Z</time>
      </trkpt>
      <trkpt lat="46.12314" lon="6.61165">
        <ele>934.8</ele>
        <time>2021-06-26T11:17:57Z</time>
      </trkpt>
      <trkpt lat="46.12317" lon="6.61142">
        <ele>934.4</ele>
        <time>2021-06-26T11:17:59Z</time>
      </trkpt>
      <trkpt lat="46.12323" lon="6.61096">
        <ele>933.6</ele>
        <time>2021-06-26T11:18:03Z</time>
      </trkpt>
      <trkpt lat="46.12323" lon="6.61083">
        <ele>933.2</ele>
        <time>2021-06-26T11:18:04Z</time>
      </trkpt>
      <trkpt lat="46.12322" lon="6.61021">
        <ele>931.8</ele>
        <time>2021-06-26T11:18:09Z</time>
      </trkpt>
      <trkpt lat="46.12324" lon="6.60996">
        <ele>931.6</ele>
        <time>2021-06-26T11:18:11Z</time>
      </trkpt>
      <trkpt lat="46.12328" lon="6.60971">
        <ele>930.8</ele>
        <time>2021-06-26T11:18:13Z</time>
      </trkpt>
      <trkpt lat="46.1233" lon="6.60958">
        <ele>930.8</ele>
        <time>2021-06-26T11:18:14Z</time>
      </trkpt>
      <trkpt lat="46.12338" lon="6.60908">
        <ele>929.8</ele>
        <time>2021-06-26T11:18:18Z</time>
      </trkpt>
      <trkpt lat="46.12346" lon="6.60883">
        <ele>929.2</ele>
        <time>2021-06-26T11:18:20Z</time>
      </trkpt>
      <trkpt lat="46.12366" lon="6.60822">
        <ele>928</ele>
        <time>2021-06-26T11:18:25Z</time>
      </trkpt>
      <trkpt lat="46.12371" lon="6.60812">
        <ele>927.6</ele>
        <time>2021-06-26T11:18:26Z</time>
      </trkpt>
      <trkpt lat="46.12379" lon="6.60804">
        <ele>927.4</ele>
        <time>2021-06-26T11:18:27Z</time>
      </trkpt>
      <trkpt lat="46.12387" lon="6.60798">
        <ele>927.4</ele>
        <time>2021-06-26T11:18:28Z</time>
      </trkpt>
      <trkpt lat="46.12395" lon="6.60793">
        <ele>927.2</ele>
        <time>2021-06-26T11:18:29Z</time>
      </trkpt>
      <trkpt lat="46.12404" lon="6.60787">
        <ele>926.8</ele>
        <time>2021-06-26T11:18:30Z</time>
      </trkpt>
      <trkpt lat="46.12412" lon="6.6078">
        <ele>926.6</ele>
        <time>2021-06-26T11:18:31Z</time>
      </trkpt>
      <trkpt lat="46.12421" lon="6.60774">
        <ele>926.4</ele>
        <time>2021-06-26T11:18:32Z</time>
      </trkpt>
      <trkpt lat="46.12446" lon="6.60753">
        <ele>925.6</ele>
        <time>2021-06-26T11:18:35Z</time>
      </trkpt>
      <trkpt lat="46.1245" lon="6.60741">
        <ele>925.6</ele>
        <time>2021-06-26T11:18:36Z</time>
      </trkpt>
      <trkpt lat="46.12452" lon="6.6073">
        <ele>925.2</ele>
        <time>2021-06-26T11:18:37Z</time>
      </trkpt>
      <trkpt lat="46.12451" lon="6.6072">
        <ele>924.6</ele>
        <time>2021-06-26T11:18:38Z</time>
      </trkpt>
      <trkpt lat="46.12447" lon="6.60711">
        <ele>923.8</ele>
        <time>2021-06-26T11:18:39Z</time>
      </trkpt>
      <trkpt lat="46.12441" lon="6.60706">
        <ele>923</ele>
        <time>2021-06-26T11:18:40Z</time>
      </trkpt>
      <trkpt lat="46.12434" lon="6.60703">
        <ele>921.8</ele>
        <time>2021-06-26T11:18:41Z</time>
      </trkpt>
      <trkpt lat="46.12419" lon="6.607">
        <ele>920.4</ele>
        <time>2021-06-26T11:18:43Z</time>
      </trkpt>
      <trkpt lat="46.12412" lon="6.60698">
        <ele>920.2</ele>
        <time>2021-06-26T11:18:44Z</time>
      </trkpt>
      <trkpt lat="46.12404" lon="6.60695">
        <ele>920.2</ele>
        <time>2021-06-26T11:18:45Z</time>
      </trkpt>
      <trkpt lat="46.1238" lon="6.60685">
        <ele>920</ele>
        <time>2021-06-26T11:18:48Z</time>
      </trkpt>
      <trkpt lat="46.12355" lon="6.60674">
        <ele>919.8</ele>
        <time>2021-06-26T11:18:51Z</time>
      </trkpt>
      <trkpt lat="46.12338" lon="6.60667">
        <ele>919.4</ele>
        <time>2021-06-26T11:18:53Z</time>
      </trkpt>
      <trkpt lat="46.12321" lon="6.60658">
        <ele>919</ele>
        <time>2021-06-26T11:18:55Z</time>
      </trkpt>
      <trkpt lat="46.12313" lon="6.60652">
        <ele>919</ele>
        <time>2021-06-26T11:18:56Z</time>
      </trkpt>
      <trkpt lat="46.12288" lon="6.60633">
        <ele>918.2</ele>
        <time>2021-06-26T11:18:59Z</time>
      </trkpt>
      <trkpt lat="46.1228" lon="6.60628">
        <ele>918.2</ele>
        <time>2021-06-26T11:19:00Z</time>
      </trkpt>
      <trkpt lat="46.12271" lon="6.60622">
        <ele>917.6</ele>
        <time>2021-06-26T11:19:01Z</time>
      </trkpt>
      <trkpt lat="46.12254" lon="6.60609">
        <ele>917</ele>
        <time>2021-06-26T11:19:03Z</time>
      </trkpt>
      <trkpt lat="46.12239" lon="6.60595">
        <ele>916.8</ele>
        <time>2021-06-26T11:19:05Z</time>
      </trkpt>
      <trkpt lat="46.12234" lon="6.60586">
        <ele>916.8</ele>
        <time>2021-06-26T11:19:06Z</time>
      </trkpt>
      <trkpt lat="46.12231" lon="6.60575">
        <ele>916.2</ele>
        <time>2021-06-26T11:19:07Z</time>
      </trkpt>
      <trkpt lat="46.1223" lon="6.60563">
        <ele>916.2</ele>
        <time>2021-06-26T11:19:08Z</time>
      </trkpt>
      <trkpt lat="46.12229" lon="6.60552">
        <ele>915.6</ele>
        <time>2021-06-26T11:19:09Z</time>
      </trkpt>
      <trkpt lat="46.12226" lon="6.6054">
        <ele>914.8</ele>
        <time>2021-06-26T11:19:10Z</time>
      </trkpt>
      <trkpt lat="46.12223" lon="6.60529">
        <ele>914.2</ele>
        <time>2021-06-26T11:19:11Z</time>
      </trkpt>
      <trkpt lat="46.12218" lon="6.60519">
        <ele>913.4</ele>
        <time>2021-06-26T11:19:12Z</time>
      </trkpt>
      <trkpt lat="46.12213" lon="6.60509">
        <ele>913</ele>
        <time>2021-06-26T11:19:13Z</time>
      </trkpt>
      <trkpt lat="46.12208" lon="6.605">
        <ele>912.6</ele>
        <time>2021-06-26T11:19:14Z</time>
      </trkpt>
      <trkpt lat="46.12202" lon="6.60491">
        <ele>912.6</ele>
        <time>2021-06-26T11:19:15Z</time>
      </trkpt>
      <trkpt lat="46.12198" lon="6.6048">
        <ele>912.4</ele>
        <time>2021-06-26T11:19:16Z</time>
      </trkpt>
      <trkpt lat="46.12193" lon="6.60468">
        <ele>912.2</ele>
        <time>2021-06-26T11:19:17Z</time>
      </trkpt>
      <trkpt lat="46.12185" lon="6.60445">
        <ele>912</ele>
        <time>2021-06-26T11:19:19Z</time>
      </trkpt>
      <trkpt lat="46.1218" lon="6.60432">
        <ele>911.6</ele>
        <time>2021-06-26T11:19:20Z</time>
      </trkpt>
      <trkpt lat="46.12174" lon="6.6042">
        <ele>911.2</ele>
        <time>2021-06-26T11:19:21Z</time>
      </trkpt>
      <trkpt lat="46.12166" lon="6.60407">
        <ele>911</ele>
        <time>2021-06-26T11:19:22Z</time>
      </trkpt>
      <trkpt lat="46.12152" lon="6.60382">
        <ele>910.2</ele>
        <time>2021-06-26T11:19:24Z</time>
      </trkpt>
      <trkpt lat="46.12139" lon="6.60359">
        <ele>908.8</ele>
        <time>2021-06-26T11:19:26Z</time>
      </trkpt>
      <trkpt lat="46.12134" lon="6.60348">
        <ele>907.8</ele>
        <time>2021-06-26T11:19:27Z</time>
      </trkpt>
      <trkpt lat="46.12129" lon="6.60337">
        <ele>906.6</ele>
        <time>2021-06-26T11:19:28Z</time>
      </trkpt>
      <trkpt lat="46.12124" lon="6.60325">
        <ele>905.4</ele>
        <time>2021-06-26T11:19:29Z</time>
      </trkpt>
      <trkpt lat="46.12117" lon="6.60297">
        <ele>904.2</ele>
        <time>2021-06-26T11:19:31Z</time>
      </trkpt>
      <trkpt lat="46.12114" lon="6.60283">
        <ele>903</ele>
        <time>2021-06-26T11:19:32Z</time>
      </trkpt>
      <trkpt lat="46.12112" lon="6.6027">
        <ele>901.8</ele>
        <time>2021-06-26T11:19:33Z</time>
      </trkpt>
      <trkpt lat="46.12111" lon="6.60257">
        <ele>900.8</ele>
        <time>2021-06-26T11:19:34Z</time>
      </trkpt>
      <trkpt lat="46.12109" lon="6.60243">
        <ele>900.2</ele>
        <time>2021-06-26T11:19:35Z</time>
      </trkpt>
      <trkpt lat="46.12105" lon="6.60231">
        <ele>899.6</ele>
        <time>2021-06-26T11:19:36Z</time>
      </trkpt>
      <trkpt lat="46.121" lon="6.60222">
        <ele>899</ele>
        <time>2021-06-26T11:19:37Z</time>
      </trkpt>
      <trkpt lat="46.12094" lon="6.60212">
        <ele>897.8</ele>
        <time>2021-06-26T11:19:38Z</time>
      </trkpt>
      <trkpt lat="46.12088" lon="6.60202">
        <ele>897</ele>
        <time>2021-06-26T11:19:39Z</time>
      </trkpt>
      <trkpt lat="46.1208" lon="6.60191">
        <ele>896.2</ele>
        <time>2021-06-26T11:19:40Z</time>
      </trkpt>
      <trkpt lat="46.12064" lon="6.60169">
        <ele>894.8</ele>
        <time>2021-06-26T11:19:42Z</time>
      </trkpt>
      <trkpt lat="46.12058" lon="6.60157">
        <ele>894</ele>
        <time>2021-06-26T11:19:43Z</time>
      </trkpt>
      <trkpt lat="46.12045" lon="6.60133">
        <ele>892</ele>
        <time>2021-06-26T11:19:45Z</time>
      </trkpt>
      <trkpt lat="46.1204" lon="6.60121">
        <ele>891</ele>
        <time>2021-06-26T11:19:46Z</time>
      </trkpt>
      <trkpt lat="46.12036" lon="6.60108">
        <ele>889.8</ele>
        <time>2021-06-26T11:19:47Z</time>
      </trkpt>
      <trkpt lat="46.12033" lon="6.60095">
        <ele>888.2</ele>
        <time>2021-06-26T11:19:48Z</time>
      </trkpt>
      <trkpt lat="46.12033" lon="6.60081">
        <ele>886.8</ele>
        <time>2021-06-26T11:19:49Z</time>
      </trkpt>
      <trkpt lat="46.12032" lon="6.60067">
        <ele>885.8</ele>
        <time>2021-06-26T11:19:50Z</time>
      </trkpt>
      <trkpt lat="46.12031" lon="6.60052">
        <ele>884.6</ele>
        <time>2021-06-26T11:19:51Z</time>
      </trkpt>
      <trkpt lat="46.12027" lon="6.60039">
        <ele>883.2</ele>
        <time>2021-06-26T11:19:52Z</time>
      </trkpt>
      <trkpt lat="46.12021" lon="6.60027">
        <ele>883.2</ele>
        <time>2021-06-26T11:19:53Z</time>
      </trkpt>
      <trkpt lat="46.12014" lon="6.60017">
        <ele>882</ele>
        <time>2021-06-26T11:19:54Z</time>
      </trkpt>
      <trkpt lat="46.12004" lon="6.60011">
        <ele>881.4</ele>
        <time>2021-06-26T11:19:55Z</time>
      </trkpt>
      <trkpt lat="46.11994" lon="6.60006">
        <ele>880.6</ele>
        <time>2021-06-26T11:19:56Z</time>
      </trkpt>
      <trkpt lat="46.11984" lon="6.6">
        <ele>879.6</ele>
        <time>2021-06-26T11:19:57Z</time>
      </trkpt>
      <trkpt lat="46.11975" lon="6.59993">
        <ele>878.8</ele>
        <time>2021-06-26T11:19:58Z</time>
      </trkpt>
      <trkpt lat="46.11967" lon="6.59984">
        <ele>878.4</ele>
        <time>2021-06-26T11:19:59Z</time>
      </trkpt>
      <trkpt lat="46.11958" lon="6.59974">
        <ele>877.2</ele>
        <time>2021-06-26T11:20:00Z</time>
      </trkpt>
      <trkpt lat="46.1195" lon="6.59965">
        <ele>876.2</ele>
        <time>2021-06-26T11:20:01Z</time>
      </trkpt>
      <trkpt lat="46.11933" lon="6.59946">
        <ele>874.2</ele>
        <time>2021-06-26T11:20:03Z</time>
      </trkpt>
      <trkpt lat="46.11926" lon="6.59936">
        <ele>873</ele>
        <time>2021-06-26T11:20:04Z</time>
      </trkpt>
      <trkpt lat="46.11919" lon="6.59925">
        <ele>871.6</ele>
        <time>2021-06-26T11:20:05Z</time>
      </trkpt>
      <trkpt lat="46.11911" lon="6.59912">
        <ele>870.2</ele>
        <time>2021-06-26T11:20:06Z</time>
      </trkpt>
      <trkpt lat="46.11902" lon="6.59901">
        <ele>869.6</ele>
        <time>2021-06-26T11:20:07Z</time>
      </trkpt>
      <trkpt lat="46.11894" lon="6.5989">
        <ele>868.6</ele>
        <time>2021-06-26T11:20:08Z</time>
      </trkpt>
      <trkpt lat="46.11886" lon="6.59876">
        <ele>867.2</ele>
        <time>2021-06-26T11:20:09Z</time>
      </trkpt>
      <trkpt lat="46.11878" lon="6.59863">
        <ele>866</ele>
        <time>2021-06-26T11:20:10Z</time>
      </trkpt>
      <trkpt lat="46.1187" lon="6.59849">
        <ele>865</ele>
        <time>2021-06-26T11:20:11Z</time>
      </trkpt>
      <trkpt lat="46.11862" lon="6.59834">
        <ele>864.4</ele>
        <time>2021-06-26T11:20:12Z</time>
      </trkpt>
      <trkpt lat="46.11855" lon="6.59818">
        <ele>863.2</ele>
        <time>2021-06-26T11:20:13Z</time>
      </trkpt>
      <trkpt lat="46.11847" lon="6.59803">
        <ele>862</ele>
        <time>2021-06-26T11:20:14Z</time>
      </trkpt>
      <trkpt lat="46.1184" lon="6.59787">
        <ele>860.6</ele>
        <time>2021-06-26T11:20:15Z</time>
      </trkpt>
      <trkpt lat="46.11826" lon="6.59759">
        <ele>859</ele>
        <time>2021-06-26T11:20:17Z</time>
      </trkpt>
      <trkpt lat="46.11819" lon="6.59745">
        <ele>857.4</ele>
        <time>2021-06-26T11:20:18Z</time>
      </trkpt>
      <trkpt lat="46.11814" lon="6.59732">
        <ele>856</ele>
        <time>2021-06-26T11:20:19Z</time>
      </trkpt>
      <trkpt lat="46.1181" lon="6.5972">
        <ele>854.6</ele>
        <time>2021-06-26T11:20:20Z</time>
      </trkpt>
      <trkpt lat="46.11803" lon="6.5971">
        <ele>853.2</ele>
        <time>2021-06-26T11:20:21Z</time>
      </trkpt>
      <trkpt lat="46.11795" lon="6.59703">
        <ele>851.8</ele>
        <time>2021-06-26T11:20:22Z</time>
      </trkpt>
      <trkpt lat="46.11785" lon="6.597">
        <ele>850.2</ele>
        <time>2021-06-26T11:20:23Z</time>
      </trkpt>
      <trkpt lat="46.11778" lon="6.59697">
        <ele>849</ele>
        <time>2021-06-26T11:20:24Z</time>
      </trkpt>
      <trkpt lat="46.11772" lon="6.59693">
        <ele>847.8</ele>
        <time>2021-06-26T11:20:25Z</time>
      </trkpt>
      <trkpt lat="46.11769" lon="6.59688">
        <ele>847</ele>
        <time>2021-06-26T11:20:26Z</time>
      </trkpt>
      <trkpt lat="46.11766" lon="6.59681">
        <ele>846.6</ele>
        <time>2021-06-26T11:20:27Z</time>
      </trkpt>
      <trkpt lat="46.11765" lon="6.59672">
        <ele>845.4</ele>
        <time>2021-06-26T11:20:28Z</time>
      </trkpt>
      <trkpt lat="46.11763" lon="6.59663">
        <ele>845</ele>
        <time>2021-06-26T11:20:29Z</time>
      </trkpt>
      <trkpt lat="46.11757" lon="6.59647">
        <ele>843.4</ele>
        <time>2021-06-26T11:20:31Z</time>
      </trkpt>
      <trkpt lat="46.11755" lon="6.5964">
        <ele>842.8</ele>
        <time>2021-06-26T11:20:32Z</time>
      </trkpt>
      <trkpt lat="46.11754" lon="6.59632">
        <ele>842.2</ele>
        <time>2021-06-26T11:20:33Z</time>
      </trkpt>
      <trkpt lat="46.11754" lon="6.59622">
        <ele>841.8</ele>
        <time>2021-06-26T11:20:34Z</time>
      </trkpt>
      <trkpt lat="46.11755" lon="6.59611">
        <ele>841.6</ele>
        <time>2021-06-26T11:20:35Z</time>
      </trkpt>
      <trkpt lat="46.11756" lon="6.59599">
        <ele>841.2</ele>
        <time>2021-06-26T11:20:36Z</time>
      </trkpt>
      <trkpt lat="46.11757" lon="6.59588">
        <ele>840.4</ele>
        <time>2021-06-26T11:20:37Z</time>
      </trkpt>
      <trkpt lat="46.11757" lon="6.59576">
        <ele>840.4</ele>
        <time>2021-06-26T11:20:38Z</time>
      </trkpt>
      <trkpt lat="46.11755" lon="6.59566">
        <ele>839.8</ele>
        <time>2021-06-26T11:20:39Z</time>
      </trkpt>
      <trkpt lat="46.11753" lon="6.59558">
        <ele>839.2</ele>
        <time>2021-06-26T11:20:40Z</time>
      </trkpt>
      <trkpt lat="46.11749" lon="6.59552">
        <ele>839</ele>
        <time>2021-06-26T11:20:41Z</time>
      </trkpt>
      <trkpt lat="46.11745" lon="6.59547">
        <ele>838.2</ele>
        <time>2021-06-26T11:20:42Z</time>
      </trkpt>
      <trkpt lat="46.11739" lon="6.59542">
        <ele>837.8</ele>
        <time>2021-06-26T11:20:43Z</time>
      </trkpt>
      <trkpt lat="46.11733" lon="6.59538">
        <ele>837.2</ele>
        <time>2021-06-26T11:20:44Z</time>
      </trkpt>
      <trkpt lat="46.11725" lon="6.59536">
        <ele>836.2</ele>
        <time>2021-06-26T11:20:45Z</time>
      </trkpt>
      <trkpt lat="46.11717" lon="6.59535">
        <ele>835.2</ele>
        <time>2021-06-26T11:20:46Z</time>
      </trkpt>
      <trkpt lat="46.11708" lon="6.59536">
        <ele>834.6</ele>
        <time>2021-06-26T11:20:47Z</time>
      </trkpt>
      <trkpt lat="46.117" lon="6.59535">
        <ele>834</ele>
        <time>2021-06-26T11:20:48Z</time>
      </trkpt>
      <trkpt lat="46.11691" lon="6.59531">
        <ele>833.6</ele>
        <time>2021-06-26T11:20:49Z</time>
      </trkpt>
      <trkpt lat="46.11684" lon="6.59526">
        <ele>833.2</ele>
        <time>2021-06-26T11:20:50Z</time>
      </trkpt>
      <trkpt lat="46.11676" lon="6.59521">
        <ele>832.8</ele>
        <time>2021-06-26T11:20:51Z</time>
      </trkpt>
      <trkpt lat="46.11669" lon="6.59517">
        <ele>832.2</ele>
        <time>2021-06-26T11:20:52Z</time>
      </trkpt>
      <trkpt lat="46.1166" lon="6.59515">
        <ele>831.4</ele>
        <time>2021-06-26T11:20:53Z</time>
      </trkpt>
      <trkpt lat="46.11652" lon="6.59515">
        <ele>830.2</ele>
        <time>2021-06-26T11:20:54Z</time>
      </trkpt>
      <trkpt lat="46.11643" lon="6.59515">
        <ele>829</ele>
        <time>2021-06-26T11:20:55Z</time>
      </trkpt>
      <trkpt lat="46.11634" lon="6.59516">
        <ele>827.4</ele>
        <time>2021-06-26T11:20:56Z</time>
      </trkpt>
      <trkpt lat="46.11625" lon="6.59516">
        <ele>826.4</ele>
        <time>2021-06-26T11:20:57Z</time>
      </trkpt>
      <trkpt lat="46.11616" lon="6.59517">
        <ele>825.2</ele>
        <time>2021-06-26T11:20:58Z</time>
      </trkpt>
      <trkpt lat="46.11606" lon="6.59518">
        <ele>824.4</ele>
        <time>2021-06-26T11:20:59Z</time>
      </trkpt>
      <trkpt lat="46.11587" lon="6.59516">
        <ele>824</ele>
        <time>2021-06-26T11:21:01Z</time>
      </trkpt>
      <trkpt lat="46.11578" lon="6.59513">
        <ele>823.4</ele>
        <time>2021-06-26T11:21:02Z</time>
      </trkpt>
      <trkpt lat="46.11571" lon="6.59507">
        <ele>822.4</ele>
        <time>2021-06-26T11:21:03Z</time>
      </trkpt>
      <trkpt lat="46.11564" lon="6.59499">
        <ele>821.4</ele>
        <time>2021-06-26T11:21:04Z</time>
      </trkpt>
      <trkpt lat="46.11558" lon="6.59489">
        <ele>820.6</ele>
        <time>2021-06-26T11:21:05Z</time>
      </trkpt>
      <trkpt lat="46.11554" lon="6.59477">
        <ele>819.6</ele>
        <time>2021-06-26T11:21:06Z</time>
      </trkpt>
      <trkpt lat="46.1155" lon="6.59464">
        <ele>818.8</ele>
        <time>2021-06-26T11:21:07Z</time>
      </trkpt>
      <trkpt lat="46.11546" lon="6.59451">
        <ele>817.8</ele>
        <time>2021-06-26T11:21:08Z</time>
      </trkpt>
      <trkpt lat="46.11543" lon="6.59437">
        <ele>816.8</ele>
        <time>2021-06-26T11:21:09Z</time>
      </trkpt>
      <trkpt lat="46.11539" lon="6.59423">
        <ele>816</ele>
        <time>2021-06-26T11:21:10Z</time>
      </trkpt>
      <trkpt lat="46.11532" lon="6.59395">
        <ele>814.6</ele>
        <time>2021-06-26T11:21:12Z</time>
      </trkpt>
      <trkpt lat="46.11524" lon="6.59366">
        <ele>812.8</ele>
        <time>2021-06-26T11:21:14Z</time>
      </trkpt>
      <trkpt lat="46.1152" lon="6.59352">
        <ele>812</ele>
        <time>2021-06-26T11:21:15Z</time>
      </trkpt>
      <trkpt lat="46.11516" lon="6.59338">
        <ele>811</ele>
        <time>2021-06-26T11:21:16Z</time>
      </trkpt>
      <trkpt lat="46.11502" lon="6.59297">
        <ele>808</ele>
        <time>2021-06-26T11:21:19Z</time>
      </trkpt>
      <trkpt lat="46.11494" lon="6.59268">
        <ele>806</ele>
        <time>2021-06-26T11:21:21Z</time>
      </trkpt>
      <trkpt lat="46.1149" lon="6.59253">
        <ele>805.2</ele>
        <time>2021-06-26T11:21:22Z</time>
      </trkpt>
      <trkpt lat="46.11485" lon="6.59239">
        <ele>804.6</ele>
        <time>2021-06-26T11:21:23Z</time>
      </trkpt>
      <trkpt lat="46.11463" lon="6.59183">
        <ele>801.2</ele>
        <time>2021-06-26T11:21:27Z</time>
      </trkpt>
      <trkpt lat="46.11456" lon="6.5917">
        <ele>800.6</ele>
        <time>2021-06-26T11:21:28Z</time>
      </trkpt>
      <trkpt lat="46.11435" lon="6.59134">
        <ele>798</ele>
        <time>2021-06-26T11:21:31Z</time>
      </trkpt>
      <trkpt lat="46.1143" lon="6.59123">
        <ele>797.2</ele>
        <time>2021-06-26T11:21:32Z</time>
      </trkpt>
      <trkpt lat="46.11429" lon="6.59113">
        <ele>796.2</ele>
        <time>2021-06-26T11:21:33Z</time>
      </trkpt>
      <trkpt lat="46.11429" lon="6.59102">
        <ele>795.8</ele>
        <time>2021-06-26T11:21:34Z</time>
      </trkpt>
      <trkpt lat="46.11431" lon="6.59091">
        <ele>795.6</ele>
        <time>2021-06-26T11:21:35Z</time>
      </trkpt>
      <trkpt lat="46.11434" lon="6.5908">
        <ele>794</ele>
        <time>2021-06-26T11:21:36Z</time>
      </trkpt>
      <trkpt lat="46.11436" lon="6.59068">
        <ele>792.8</ele>
        <time>2021-06-26T11:21:37Z</time>
      </trkpt>
      <trkpt lat="46.11438" lon="6.59056">
        <ele>792.2</ele>
        <time>2021-06-26T11:21:38Z</time>
      </trkpt>
      <trkpt lat="46.11438" lon="6.59043">
        <ele>791.6</ele>
        <time>2021-06-26T11:21:39Z</time>
      </trkpt>
      <trkpt lat="46.11438" lon="6.59031">
        <ele>791</ele>
        <time>2021-06-26T11:21:40Z</time>
      </trkpt>
      <trkpt lat="46.11437" lon="6.59018">
        <ele>790.8</ele>
        <time>2021-06-26T11:21:41Z</time>
      </trkpt>
      <trkpt lat="46.11436" lon="6.59006">
        <ele>790.6</ele>
        <time>2021-06-26T11:21:42Z</time>
      </trkpt>
      <trkpt lat="46.11434" lon="6.58994">
        <ele>789.8</ele>
        <time>2021-06-26T11:21:43Z</time>
      </trkpt>
      <trkpt lat="46.11431" lon="6.58983">
        <ele>789</ele>
        <time>2021-06-26T11:21:44Z</time>
      </trkpt>
      <trkpt lat="46.11428" lon="6.58972">
        <ele>788.4</ele>
        <time>2021-06-26T11:21:45Z</time>
      </trkpt>
      <trkpt lat="46.1142" lon="6.58949">
        <ele>787.4</ele>
        <time>2021-06-26T11:21:47Z</time>
      </trkpt>
      <trkpt lat="46.11413" lon="6.58927">
        <ele>786.6</ele>
        <time>2021-06-26T11:21:49Z</time>
      </trkpt>
      <trkpt lat="46.11408" lon="6.58917">
        <ele>786.4</ele>
        <time>2021-06-26T11:21:50Z</time>
      </trkpt>
      <trkpt lat="46.11402" lon="6.58907">
        <ele>786.2</ele>
        <time>2021-06-26T11:21:51Z</time>
      </trkpt>
      <trkpt lat="46.11383" lon="6.58879">
        <ele>785.6</ele>
        <time>2021-06-26T11:21:54Z</time>
      </trkpt>
      <trkpt lat="46.11378" lon="6.5887">
        <ele>785.2</ele>
        <time>2021-06-26T11:21:55Z</time>
      </trkpt>
      <trkpt lat="46.11373" lon="6.5886">
        <ele>784.8</ele>
        <time>2021-06-26T11:21:56Z</time>
      </trkpt>
      <trkpt lat="46.1137" lon="6.58849">
        <ele>784.8</ele>
        <time>2021-06-26T11:21:57Z</time>
      </trkpt>
      <trkpt lat="46.11365" lon="6.58826">
        <ele>784.4</ele>
        <time>2021-06-26T11:21:59Z</time>
      </trkpt>
      <trkpt lat="46.11362" lon="6.58815">
        <ele>784.2</ele>
        <time>2021-06-26T11:22:00Z</time>
      </trkpt>
      <trkpt lat="46.11359" lon="6.58804">
        <ele>784.2</ele>
        <time>2021-06-26T11:22:01Z</time>
      </trkpt>
      <trkpt lat="46.11353" lon="6.58795">
        <ele>784.2</ele>
        <time>2021-06-26T11:22:02Z</time>
      </trkpt>
      <trkpt lat="46.11348" lon="6.58786">
        <ele>783.8</ele>
        <time>2021-06-26T11:22:03Z</time>
      </trkpt>
      <trkpt lat="46.11342" lon="6.58777">
        <ele>783.8</ele>
        <time>2021-06-26T11:22:04Z</time>
      </trkpt>
      <trkpt lat="46.11336" lon="6.58768">
        <ele>783.6</ele>
        <time>2021-06-26T11:22:05Z</time>
      </trkpt>
      <trkpt lat="46.11332" lon="6.58758">
        <ele>783.6</ele>
        <time>2021-06-26T11:22:06Z</time>
      </trkpt>
      <trkpt lat="46.11329" lon="6.58748">
        <ele>783.4</ele>
        <time>2021-06-26T11:22:07Z</time>
      </trkpt>
      <trkpt lat="46.11328" lon="6.58737">
        <ele>783.4</ele>
        <time>2021-06-26T11:22:08Z</time>
      </trkpt>
      <trkpt lat="46.11328" lon="6.58725">
        <ele>783.4</ele>
        <time>2021-06-26T11:22:09Z</time>
      </trkpt>
      <trkpt lat="46.11329" lon="6.58713">
        <ele>783.2</ele>
        <time>2021-06-26T11:22:10Z</time>
      </trkpt>
      <trkpt lat="46.11329" lon="6.58701">
        <ele>783</ele>
        <time>2021-06-26T11:22:11Z</time>
      </trkpt>
      <trkpt lat="46.1133" lon="6.58689">
        <ele>782.6</ele>
        <time>2021-06-26T11:22:12Z</time>
      </trkpt>
      <trkpt lat="46.1133" lon="6.5863">
        <ele>781.4</ele>
        <time>2021-06-26T11:22:17Z</time>
      </trkpt>
      <trkpt lat="46.11328" lon="6.5862">
        <ele>781</ele>
        <time>2021-06-26T11:22:18Z</time>
      </trkpt>
      <trkpt lat="46.11326" lon="6.58609">
        <ele>780.8</ele>
        <time>2021-06-26T11:22:19Z</time>
      </trkpt>
      <trkpt lat="46.1132" lon="6.58587">
        <ele>780.6</ele>
        <time>2021-06-26T11:22:21Z</time>
      </trkpt>
      <trkpt lat="46.11315" lon="6.58562">
        <ele>780.6</ele>
        <time>2021-06-26T11:22:23Z</time>
      </trkpt>
      <trkpt lat="46.11313" lon="6.58549">
        <ele>780.2</ele>
        <time>2021-06-26T11:22:24Z</time>
      </trkpt>
      <trkpt lat="46.11308" lon="6.58523">
        <ele>779.8</ele>
        <time>2021-06-26T11:22:26Z</time>
      </trkpt>
      <trkpt lat="46.11302" lon="6.58483">
        <ele>777.8</ele>
        <time>2021-06-26T11:22:29Z</time>
      </trkpt>
      <trkpt lat="46.113" lon="6.5847">
        <ele>777</ele>
        <time>2021-06-26T11:22:30Z</time>
      </trkpt>
      <trkpt lat="46.11296" lon="6.58442">
        <ele>776.4</ele>
        <time>2021-06-26T11:22:32Z</time>
      </trkpt>
      <trkpt lat="46.11292" lon="6.58413">
        <ele>774.2</ele>
        <time>2021-06-26T11:22:34Z</time>
      </trkpt>
      <trkpt lat="46.11291" lon="6.58398">
        <ele>773</ele>
        <time>2021-06-26T11:22:35Z</time>
      </trkpt>
      <trkpt lat="46.11291" lon="6.58383">
        <ele>772</ele>
        <time>2021-06-26T11:22:36Z</time>
      </trkpt>
      <trkpt lat="46.1129" lon="6.58367">
        <ele>771.4</ele>
        <time>2021-06-26T11:22:37Z</time>
      </trkpt>
      <trkpt lat="46.11289" lon="6.58352">
        <ele>770.8</ele>
        <time>2021-06-26T11:22:38Z</time>
      </trkpt>
      <trkpt lat="46.11286" lon="6.58322">
        <ele>770</ele>
        <time>2021-06-26T11:22:40Z</time>
      </trkpt>
      <trkpt lat="46.11283" lon="6.58308">
        <ele>769</ele>
        <time>2021-06-26T11:22:41Z</time>
      </trkpt>
      <trkpt lat="46.11279" lon="6.58294">
        <ele>768.4</ele>
        <time>2021-06-26T11:22:42Z</time>
      </trkpt>
      <trkpt lat="46.11273" lon="6.58281">
        <ele>767.2</ele>
        <time>2021-06-26T11:22:43Z</time>
      </trkpt>
      <trkpt lat="46.11267" lon="6.58269">
        <ele>766.4</ele>
        <time>2021-06-26T11:22:44Z</time>
      </trkpt>
      <trkpt lat="46.11255" lon="6.58246">
        <ele>764.8</ele>
        <time>2021-06-26T11:22:46Z</time>
      </trkpt>
      <trkpt lat="46.1125" lon="6.58235">
        <ele>764.2</ele>
        <time>2021-06-26T11:22:47Z</time>
      </trkpt>
      <trkpt lat="46.11247" lon="6.58223">
        <ele>763.8</ele>
        <time>2021-06-26T11:22:48Z</time>
      </trkpt>
      <trkpt lat="46.11244" lon="6.58212">
        <ele>763</ele>
        <time>2021-06-26T11:22:49Z</time>
      </trkpt>
      <trkpt lat="46.11242" lon="6.58201">
        <ele>762.6</ele>
        <time>2021-06-26T11:22:50Z</time>
      </trkpt>
      <trkpt lat="46.11237" lon="6.58193">
        <ele>761.4</ele>
        <time>2021-06-26T11:22:51Z</time>
      </trkpt>
      <trkpt lat="46.11232" lon="6.58189">
        <ele>760.6</ele>
        <time>2021-06-26T11:22:52Z</time>
      </trkpt>
      <trkpt lat="46.11226" lon="6.58189">
        <ele>759.8</ele>
        <time>2021-06-26T11:22:53Z</time>
      </trkpt>
      <trkpt lat="46.11221" lon="6.58194">
        <ele>759.8</ele>
        <time>2021-06-26T11:22:54Z</time>
      </trkpt>
      <trkpt lat="46.11217" lon="6.58202">
        <ele>759.4</ele>
        <time>2021-06-26T11:22:55Z</time>
      </trkpt>
      <trkpt lat="46.11216" lon="6.58213">
        <ele>758.8</ele>
        <time>2021-06-26T11:22:56Z</time>
      </trkpt>
      <trkpt lat="46.11218" lon="6.58224">
        <ele>758.4</ele>
        <time>2021-06-26T11:22:57Z</time>
      </trkpt>
      <trkpt lat="46.11221" lon="6.58235">
        <ele>757.4</ele>
        <time>2021-06-26T11:22:58Z</time>
      </trkpt>
      <trkpt lat="46.11228" lon="6.58257">
        <ele>756.2</ele>
        <time>2021-06-26T11:23:00Z</time>
      </trkpt>
      <trkpt lat="46.1123" lon="6.58269">
        <ele>756</ele>
        <time>2021-06-26T11:23:01Z</time>
      </trkpt>
      <trkpt lat="46.1123" lon="6.58281">
        <ele>755.8</ele>
        <time>2021-06-26T11:23:02Z</time>
      </trkpt>
      <trkpt lat="46.11231" lon="6.58294">
        <ele>755.6</ele>
        <time>2021-06-26T11:23:03Z</time>
      </trkpt>
      <trkpt lat="46.11231" lon="6.58307">
        <ele>755.4</ele>
        <time>2021-06-26T11:23:04Z</time>
      </trkpt>
      <trkpt lat="46.11231" lon="6.5832">
        <ele>755</ele>
        <time>2021-06-26T11:23:05Z</time>
      </trkpt>
      <trkpt lat="46.1123" lon="6.58334">
        <ele>754.6</ele>
        <time>2021-06-26T11:23:06Z</time>
      </trkpt>
      <trkpt lat="46.11223" lon="6.58376">
        <ele>752.4</ele>
        <time>2021-06-26T11:23:09Z</time>
      </trkpt>
      <trkpt lat="46.1122" lon="6.58391">
        <ele>752</ele>
        <time>2021-06-26T11:23:10Z</time>
      </trkpt>
      <trkpt lat="46.11216" lon="6.58405">
        <ele>751.4</ele>
        <time>2021-06-26T11:23:11Z</time>
      </trkpt>
      <trkpt lat="46.11212" lon="6.5842">
        <ele>750.6</ele>
        <time>2021-06-26T11:23:12Z</time>
      </trkpt>
      <trkpt lat="46.11208" lon="6.58435">
        <ele>749.2</ele>
        <time>2021-06-26T11:23:13Z</time>
      </trkpt>
      <trkpt lat="46.112" lon="6.58466">
        <ele>747</ele>
        <time>2021-06-26T11:23:15Z</time>
      </trkpt>
      <trkpt lat="46.11197" lon="6.58481">
        <ele>746.4</ele>
        <time>2021-06-26T11:23:16Z</time>
      </trkpt>
      <trkpt lat="46.11184" lon="6.58527">
        <ele>745.2</ele>
        <time>2021-06-26T11:23:19Z</time>
      </trkpt>
      <trkpt lat="46.11179" lon="6.58543">
        <ele>744</ele>
        <time>2021-06-26T11:23:20Z</time>
      </trkpt>
      <trkpt lat="46.11174" lon="6.58559">
        <ele>742.8</ele>
        <time>2021-06-26T11:23:21Z</time>
      </trkpt>
      <trkpt lat="46.11169" lon="6.58574">
        <ele>741.4</ele>
        <time>2021-06-26T11:23:22Z</time>
      </trkpt>
      <trkpt lat="46.11164" lon="6.58589">
        <ele>740</ele>
        <time>2021-06-26T11:23:23Z</time>
      </trkpt>
      <trkpt lat="46.11159" lon="6.58605">
        <ele>738.8</ele>
        <time>2021-06-26T11:23:24Z</time>
      </trkpt>
      <trkpt lat="46.11155" lon="6.58621">
        <ele>738</ele>
        <time>2021-06-26T11:23:25Z</time>
      </trkpt>
      <trkpt lat="46.11147" lon="6.58654">
        <ele>736</ele>
        <time>2021-06-26T11:23:27Z</time>
      </trkpt>
      <trkpt lat="46.11143" lon="6.58671">
        <ele>735</ele>
        <time>2021-06-26T11:23:28Z</time>
      </trkpt>
      <trkpt lat="46.11135" lon="6.58703">
        <ele>732.6</ele>
        <time>2021-06-26T11:23:30Z</time>
      </trkpt>
      <trkpt lat="46.11132" lon="6.58716">
        <ele>731.6</ele>
        <time>2021-06-26T11:23:31Z</time>
      </trkpt>
      <trkpt lat="46.11129" lon="6.58729">
        <ele>730.6</ele>
        <time>2021-06-26T11:23:32Z</time>
      </trkpt>
      <trkpt lat="46.11127" lon="6.5874">
        <ele>729.8</ele>
        <time>2021-06-26T11:23:33Z</time>
      </trkpt>
      <trkpt lat="46.11124" lon="6.58749">
        <ele>727.4</ele>
        <time>2021-06-26T11:23:34Z</time>
      </trkpt>
      <trkpt lat="46.1112" lon="6.58757">
        <ele>726</ele>
        <time>2021-06-26T11:23:35Z</time>
      </trkpt>
      <trkpt lat="46.11115" lon="6.5876">
        <ele>725.2</ele>
        <time>2021-06-26T11:23:36Z</time>
      </trkpt>
      <trkpt lat="46.11109" lon="6.58759">
        <ele>724.4</ele>
        <time>2021-06-26T11:23:37Z</time>
      </trkpt>
      <trkpt lat="46.11104" lon="6.58753">
        <ele>723.8</ele>
        <time>2021-06-26T11:23:38Z</time>
      </trkpt>
      <trkpt lat="46.11103" lon="6.58735">
        <ele>723</ele>
        <time>2021-06-26T11:23:40Z</time>
      </trkpt>
      <trkpt lat="46.11108" lon="6.58683">
        <ele>721.6</ele>
        <time>2021-06-26T11:23:45Z</time>
      </trkpt>
      <trkpt lat="46.11108" lon="6.58671">
        <ele>721.4</ele>
        <time>2021-06-26T11:23:46Z</time>
      </trkpt>
      <trkpt lat="46.11108" lon="6.5866">
        <ele>721</ele>
        <time>2021-06-26T11:23:47Z</time>
      </trkpt>
      <trkpt lat="46.11108" lon="6.58648">
        <ele>720.8</ele>
        <time>2021-06-26T11:23:48Z</time>
      </trkpt>
      <trkpt lat="46.11105" lon="6.58612">
        <ele>720.2</ele>
        <time>2021-06-26T11:23:51Z</time>
      </trkpt>
      <trkpt lat="46.111" lon="6.58562">
        <ele>718.8</ele>
        <time>2021-06-26T11:23:55Z</time>
      </trkpt>
      <trkpt lat="46.11095" lon="6.58525">
        <ele>716.8</ele>
        <time>2021-06-26T11:23:58Z</time>
      </trkpt>
      <trkpt lat="46.11094" lon="6.58503">
        <ele>715.6</ele>
        <time>2021-06-26T11:24:00Z</time>
      </trkpt>
      <trkpt lat="46.11093" lon="6.58495">
        <ele>715</ele>
        <time>2021-06-26T11:24:01Z</time>
      </trkpt>
      <trkpt lat="46.11092" lon="6.58487">
        <ele>715</ele>
        <time>2021-06-26T11:24:02Z</time>
      </trkpt>
      <trkpt lat="46.11091" lon="6.5848">
        <ele>714.6</ele>
        <time>2021-06-26T11:24:03Z</time>
      </trkpt>
      <trkpt lat="46.11091" lon="6.58475">
        <ele>714.4</ele>
        <time>2021-06-26T11:24:04Z</time>
      </trkpt>
      <trkpt lat="46.11091" lon="6.58473">
        <ele>713.8</ele>
        <time>2021-06-26T11:24:05Z</time>
      </trkpt>
      <trkpt lat="46.11091" lon="6.58472">
        <ele>713.6</ele>
        <time>2021-06-26T11:24:06Z</time>
      </trkpt>
      <trkpt lat="46.11091" lon="6.58472">
        <ele>712.6</ele>
        <time>2021-06-26T11:24:12Z</time>
      </trkpt>
      <trkpt lat="46.11091" lon="6.58471">
        <ele>712.6</ele>
        <time>2021-06-26T11:24:15Z</time>
      </trkpt>
      <trkpt lat="46.1109" lon="6.58462">
        <ele>712.4</ele>
        <time>2021-06-26T11:24:18Z</time>
      </trkpt>
      <trkpt lat="46.11089" lon="6.58458">
        <ele>712.4</ele>
        <time>2021-06-26T11:24:19Z</time>
      </trkpt>
      <trkpt lat="46.11088" lon="6.58446">
        <ele>712.4</ele>
        <time>2021-06-26T11:24:21Z</time>
      </trkpt>
      <trkpt lat="46.11088" lon="6.58439">
        <ele>712.4</ele>
        <time>2021-06-26T11:24:22Z</time>
      </trkpt>
      <trkpt lat="46.11088" lon="6.58432">
        <ele>712.4</ele>
        <time>2021-06-26T11:24:23Z</time>
      </trkpt>
      <trkpt lat="46.1109" lon="6.58392">
        <ele>712</ele>
        <time>2021-06-26T11:24:28Z</time>
      </trkpt>
      <trkpt lat="46.11096" lon="6.58353">
        <ele>710</ele>
        <time>2021-06-26T11:24:32Z</time>
      </trkpt>
      <trkpt lat="46.11099" lon="6.58331">
        <ele>709</ele>
        <time>2021-06-26T11:24:34Z</time>
      </trkpt>
      <trkpt lat="46.11102" lon="6.58307">
        <ele>708.6</ele>
        <time>2021-06-26T11:24:36Z</time>
      </trkpt>
      <trkpt lat="46.11097" lon="6.58286">
        <ele>707.8</ele>
        <time>2021-06-26T11:24:38Z</time>
      </trkpt>
      <trkpt lat="46.11092" lon="6.58278">
        <ele>707.6</ele>
        <time>2021-06-26T11:24:39Z</time>
      </trkpt>
      <trkpt lat="46.11085" lon="6.58272">
        <ele>707.4</ele>
        <time>2021-06-26T11:24:40Z</time>
      </trkpt>
      <trkpt lat="46.11078" lon="6.58268">
        <ele>706.8</ele>
        <time>2021-06-26T11:24:41Z</time>
      </trkpt>
      <trkpt lat="46.1107" lon="6.58267">
        <ele>706.4</ele>
        <time>2021-06-26T11:24:42Z</time>
      </trkpt>
      <trkpt lat="46.11062" lon="6.58269">
        <ele>706</ele>
        <time>2021-06-26T11:24:43Z</time>
      </trkpt>
      <trkpt lat="46.11056" lon="6.58274">
        <ele>705.8</ele>
        <time>2021-06-26T11:24:44Z</time>
      </trkpt>
      <trkpt lat="46.1105" lon="6.58281">
        <ele>705.2</ele>
        <time>2021-06-26T11:24:45Z</time>
      </trkpt>
      <trkpt lat="46.11047" lon="6.5829">
        <ele>704.6</ele>
        <time>2021-06-26T11:24:46Z</time>
      </trkpt>
      <trkpt lat="46.11044" lon="6.58301">
        <ele>704.6</ele>
        <time>2021-06-26T11:24:47Z</time>
      </trkpt>
      <trkpt lat="46.1104" lon="6.58324">
        <ele>703.2</ele>
        <time>2021-06-26T11:24:49Z</time>
      </trkpt>
      <trkpt lat="46.11038" lon="6.58336">
        <ele>702.8</ele>
        <time>2021-06-26T11:24:50Z</time>
      </trkpt>
      <trkpt lat="46.11036" lon="6.58349">
        <ele>702.4</ele>
        <time>2021-06-26T11:24:51Z</time>
      </trkpt>
      <trkpt lat="46.11035" lon="6.58363">
        <ele>702</ele>
        <time>2021-06-26T11:24:52Z</time>
      </trkpt>
      <trkpt lat="46.11034" lon="6.58377">
        <ele>701.6</ele>
        <time>2021-06-26T11:24:53Z</time>
      </trkpt>
      <trkpt lat="46.11032" lon="6.58407">
        <ele>701.2</ele>
        <time>2021-06-26T11:24:55Z</time>
      </trkpt>
      <trkpt lat="46.1103" lon="6.58438">
        <ele>701</ele>
        <time>2021-06-26T11:24:57Z</time>
      </trkpt>
      <trkpt lat="46.11029" lon="6.58454">
        <ele>700.8</ele>
        <time>2021-06-26T11:24:58Z</time>
      </trkpt>
      <trkpt lat="46.11027" lon="6.5847">
        <ele>700.4</ele>
        <time>2021-06-26T11:24:59Z</time>
      </trkpt>
      <trkpt lat="46.11024" lon="6.58486">
        <ele>699.6</ele>
        <time>2021-06-26T11:25:00Z</time>
      </trkpt>
      <trkpt lat="46.1102" lon="6.58501">
        <ele>698.6</ele>
        <time>2021-06-26T11:25:01Z</time>
      </trkpt>
      <trkpt lat="46.11016" lon="6.58517">
        <ele>697.6</ele>
        <time>2021-06-26T11:25:02Z</time>
      </trkpt>
      <trkpt lat="46.11011" lon="6.58532">
        <ele>696.6</ele>
        <time>2021-06-26T11:25:03Z</time>
      </trkpt>
      <trkpt lat="46.11006" lon="6.58546">
        <ele>695.6</ele>
        <time>2021-06-26T11:25:04Z</time>
      </trkpt>
      <trkpt lat="46.10998" lon="6.58576">
        <ele>693.6</ele>
        <time>2021-06-26T11:25:06Z</time>
      </trkpt>
      <trkpt lat="46.10995" lon="6.58593">
        <ele>692.8</ele>
        <time>2021-06-26T11:25:07Z</time>
      </trkpt>
      <trkpt lat="46.10993" lon="6.5861">
        <ele>691.4</ele>
        <time>2021-06-26T11:25:08Z</time>
      </trkpt>
      <trkpt lat="46.10991" lon="6.58628">
        <ele>690</ele>
        <time>2021-06-26T11:25:09Z</time>
      </trkpt>
      <trkpt lat="46.1099" lon="6.58646">
        <ele>690</ele>
        <time>2021-06-26T11:25:10Z</time>
      </trkpt>
      <trkpt lat="46.1099" lon="6.58664">
        <ele>689.2</ele>
        <time>2021-06-26T11:25:11Z</time>
      </trkpt>
      <trkpt lat="46.1099" lon="6.587">
        <ele>687</ele>
        <time>2021-06-26T11:25:13Z</time>
      </trkpt>
      <trkpt lat="46.1099" lon="6.58717">
        <ele>686.6</ele>
        <time>2021-06-26T11:25:14Z</time>
      </trkpt>
      <trkpt lat="46.1099" lon="6.58735">
        <ele>686.2</ele>
        <time>2021-06-26T11:25:15Z</time>
      </trkpt>
      <trkpt lat="46.10989" lon="6.58751">
        <ele>685.6</ele>
        <time>2021-06-26T11:25:16Z</time>
      </trkpt>
      <trkpt lat="46.10989" lon="6.58767">
        <ele>684.4</ele>
        <time>2021-06-26T11:25:17Z</time>
      </trkpt>
      <trkpt lat="46.10989" lon="6.58782">
        <ele>683</ele>
        <time>2021-06-26T11:25:18Z</time>
      </trkpt>
      <trkpt lat="46.1099" lon="6.58796">
        <ele>681.6</ele>
        <time>2021-06-26T11:25:19Z</time>
      </trkpt>
      <trkpt lat="46.1099" lon="6.58808">
        <ele>679.6</ele>
        <time>2021-06-26T11:25:20Z</time>
      </trkpt>
      <trkpt lat="46.10991" lon="6.5882">
        <ele>678.6</ele>
        <time>2021-06-26T11:25:21Z</time>
      </trkpt>
      <trkpt lat="46.10993" lon="6.58831">
        <ele>677.6</ele>
        <time>2021-06-26T11:25:22Z</time>
      </trkpt>
      <trkpt lat="46.10994" lon="6.58841">
        <ele>676.8</ele>
        <time>2021-06-26T11:25:23Z</time>
      </trkpt>
      <trkpt lat="46.10994" lon="6.5885">
        <ele>675.8</ele>
        <time>2021-06-26T11:25:24Z</time>
      </trkpt>
      <trkpt lat="46.10994" lon="6.58857">
        <ele>674.8</ele>
        <time>2021-06-26T11:25:25Z</time>
      </trkpt>
      <trkpt lat="46.10991" lon="6.58864">
        <ele>674.4</ele>
        <time>2021-06-26T11:25:26Z</time>
      </trkpt>
      <trkpt lat="46.10988" lon="6.5887">
        <ele>674</ele>
        <time>2021-06-26T11:25:27Z</time>
      </trkpt>
      <trkpt lat="46.10979" lon="6.58884">
        <ele>673.8</ele>
        <time>2021-06-26T11:25:29Z</time>
      </trkpt>
      <trkpt lat="46.10975" lon="6.58892">
        <ele>673.2</ele>
        <time>2021-06-26T11:25:30Z</time>
      </trkpt>
      <trkpt lat="46.10971" lon="6.589">
        <ele>672.8</ele>
        <time>2021-06-26T11:25:31Z</time>
      </trkpt>
      <trkpt lat="46.10963" lon="6.58915">
        <ele>672.6</ele>
        <time>2021-06-26T11:25:33Z</time>
      </trkpt>
      <trkpt lat="46.10958" lon="6.58921">
        <ele>672.6</ele>
        <time>2021-06-26T11:25:34Z</time>
      </trkpt>
      <trkpt lat="46.10952" lon="6.58922">
        <ele>672.2</ele>
        <time>2021-06-26T11:25:35Z</time>
      </trkpt>
      <trkpt lat="46.10947" lon="6.58917">
        <ele>672</ele>
        <time>2021-06-26T11:25:36Z</time>
      </trkpt>
      <trkpt lat="46.10945" lon="6.58899">
        <ele>671</ele>
        <time>2021-06-26T11:25:38Z</time>
      </trkpt>
      <trkpt lat="46.10946" lon="6.5889">
        <ele>670.4</ele>
        <time>2021-06-26T11:25:39Z</time>
      </trkpt>
      <trkpt lat="46.10952" lon="6.58874">
        <ele>669.4</ele>
        <time>2021-06-26T11:25:41Z</time>
      </trkpt>
      <trkpt lat="46.10955" lon="6.58864">
        <ele>669</ele>
        <time>2021-06-26T11:25:42Z</time>
      </trkpt>
      <trkpt lat="46.10955" lon="6.58842">
        <ele>667.6</ele>
        <time>2021-06-26T11:25:44Z</time>
      </trkpt>
      <trkpt lat="46.10955" lon="6.5883">
        <ele>667</ele>
        <time>2021-06-26T11:25:45Z</time>
      </trkpt>
      <trkpt lat="46.10954" lon="6.58818">
        <ele>666.6</ele>
        <time>2021-06-26T11:25:46Z</time>
      </trkpt>
      <trkpt lat="46.10954" lon="6.58805">
        <ele>666</ele>
        <time>2021-06-26T11:25:47Z</time>
      </trkpt>
      <trkpt lat="46.10954" lon="6.58792">
        <ele>665.4</ele>
        <time>2021-06-26T11:25:48Z</time>
      </trkpt>
      <trkpt lat="46.10956" lon="6.58779">
        <ele>665</ele>
        <time>2021-06-26T11:25:49Z</time>
      </trkpt>
      <trkpt lat="46.10958" lon="6.58756">
        <ele>663.8</ele>
        <time>2021-06-26T11:25:51Z</time>
      </trkpt>
      <trkpt lat="46.10955" lon="6.58747">
        <ele>663.4</ele>
        <time>2021-06-26T11:25:52Z</time>
      </trkpt>
      <trkpt lat="46.10951" lon="6.58741">
        <ele>663</ele>
        <time>2021-06-26T11:25:53Z</time>
      </trkpt>
      <trkpt lat="46.10945" lon="6.58738">
        <ele>663</ele>
        <time>2021-06-26T11:25:54Z</time>
      </trkpt>
      <trkpt lat="46.10939" lon="6.5874">
        <ele>662</ele>
        <time>2021-06-26T11:25:55Z</time>
      </trkpt>
      <trkpt lat="46.10934" lon="6.58745">
        <ele>661</ele>
        <time>2021-06-26T11:25:56Z</time>
      </trkpt>
      <trkpt lat="46.10931" lon="6.58754">
        <ele>660.2</ele>
        <time>2021-06-26T11:25:57Z</time>
      </trkpt>
      <trkpt lat="46.1093" lon="6.58765">
        <ele>659.2</ele>
        <time>2021-06-26T11:25:58Z</time>
      </trkpt>
      <trkpt lat="46.10932" lon="6.58775">
        <ele>658.8</ele>
        <time>2021-06-26T11:25:59Z</time>
      </trkpt>
      <trkpt lat="46.10932" lon="6.58785">
        <ele>658.6</ele>
        <time>2021-06-26T11:26:00Z</time>
      </trkpt>
      <trkpt lat="46.10931" lon="6.58794">
        <ele>658.4</ele>
        <time>2021-06-26T11:26:01Z</time>
      </trkpt>
      <trkpt lat="46.10927" lon="6.588">
        <ele>658.2</ele>
        <time>2021-06-26T11:26:02Z</time>
      </trkpt>
      <trkpt lat="46.10921" lon="6.58801">
        <ele>658</ele>
        <time>2021-06-26T11:26:03Z</time>
      </trkpt>
      <trkpt lat="46.10916" lon="6.58798">
        <ele>657.8</ele>
        <time>2021-06-26T11:26:04Z</time>
      </trkpt>
      <trkpt lat="46.10913" lon="6.5879">
        <ele>657.2</ele>
        <time>2021-06-26T11:26:05Z</time>
      </trkpt>
      <trkpt lat="46.10911" lon="6.5878">
        <ele>656.8</ele>
        <time>2021-06-26T11:26:06Z</time>
      </trkpt>
      <trkpt lat="46.1091" lon="6.58759">
        <ele>656</ele>
        <time>2021-06-26T11:26:08Z</time>
      </trkpt>
      <trkpt lat="46.10909" lon="6.58749">
        <ele>655.8</ele>
        <time>2021-06-26T11:26:09Z</time>
      </trkpt>
      <trkpt lat="46.10903" lon="6.58716">
        <ele>655</ele>
        <time>2021-06-26T11:26:12Z</time>
      </trkpt>
      <trkpt lat="46.10899" lon="6.58694">
        <ele>654.4</ele>
        <time>2021-06-26T11:26:14Z</time>
      </trkpt>
      <trkpt lat="46.10894" lon="6.58686">
        <ele>654.4</ele>
        <time>2021-06-26T11:26:15Z</time>
      </trkpt>
      <trkpt lat="46.10889" lon="6.58679">
        <ele>653.8</ele>
        <time>2021-06-26T11:26:16Z</time>
      </trkpt>
      <trkpt lat="46.10882" lon="6.58674">
        <ele>653.8</ele>
        <time>2021-06-26T11:26:17Z</time>
      </trkpt>
      <trkpt lat="46.10875" lon="6.58672">
        <ele>653.4</ele>
        <time>2021-06-26T11:26:18Z</time>
      </trkpt>
      <trkpt lat="46.10861" lon="6.58668">
        <ele>652</ele>
        <time>2021-06-26T11:26:20Z</time>
      </trkpt>
      <trkpt lat="46.10853" lon="6.58666">
        <ele>651.6</ele>
        <time>2021-06-26T11:26:21Z</time>
      </trkpt>
      <trkpt lat="46.10846" lon="6.58663">
        <ele>651.4</ele>
        <time>2021-06-26T11:26:22Z</time>
      </trkpt>
      <trkpt lat="46.1084" lon="6.58661">
        <ele>651</ele>
        <time>2021-06-26T11:26:23Z</time>
      </trkpt>
      <trkpt lat="46.10835" lon="6.58659">
        <ele>650.8</ele>
        <time>2021-06-26T11:26:24Z</time>
      </trkpt>
      <trkpt lat="46.10832" lon="6.58656">
        <ele>650.6</ele>
        <time>2021-06-26T11:26:25Z</time>
      </trkpt>
      <trkpt lat="46.10829" lon="6.58653">
        <ele>650.4</ele>
        <time>2021-06-26T11:26:26Z</time>
      </trkpt>
      <trkpt lat="46.10827" lon="6.5865">
        <ele>650.4</ele>
        <time>2021-06-26T11:26:27Z</time>
      </trkpt>
      <trkpt lat="46.10826" lon="6.58647">
        <ele>650.4</ele>
        <time>2021-06-26T11:26:28Z</time>
      </trkpt>
      <trkpt lat="46.10825" lon="6.58643">
        <ele>650.2</ele>
        <time>2021-06-26T11:26:29Z</time>
      </trkpt>
      <trkpt lat="46.10825" lon="6.58638">
        <ele>650.4</ele>
        <time>2021-06-26T11:26:30Z</time>
      </trkpt>
      <trkpt lat="46.10825" lon="6.58633">
        <ele>650.2</ele>
        <time>2021-06-26T11:26:31Z</time>
      </trkpt>
      <trkpt lat="46.10826" lon="6.58626">
        <ele>650</ele>
        <time>2021-06-26T11:26:32Z</time>
      </trkpt>
      <trkpt lat="46.10826" lon="6.58619">
        <ele>650</ele>
        <time>2021-06-26T11:26:33Z</time>
      </trkpt>
      <trkpt lat="46.10827" lon="6.58595">
        <ele>649.4</ele>
        <time>2021-06-26T11:26:36Z</time>
      </trkpt>
      <trkpt lat="46.10828" lon="6.58578">
        <ele>649.4</ele>
        <time>2021-06-26T11:26:38Z</time>
      </trkpt>
      <trkpt lat="46.10829" lon="6.58569">
        <ele>649.2</ele>
        <time>2021-06-26T11:26:39Z</time>
      </trkpt>
      <trkpt lat="46.10831" lon="6.58523">
        <ele>649</ele>
        <time>2021-06-26T11:26:44Z</time>
      </trkpt>
      <trkpt lat="46.10832" lon="6.58513">
        <ele>649</ele>
        <time>2021-06-26T11:26:45Z</time>
      </trkpt>
      <trkpt lat="46.10835" lon="6.58447">
        <ele>647.6</ele>
        <time>2021-06-26T11:26:51Z</time>
      </trkpt>
      <trkpt lat="46.10839" lon="6.58378">
        <ele>646.6</ele>
        <time>2021-06-26T11:26:57Z</time>
      </trkpt>
      <trkpt lat="46.10842" lon="6.58331">
        <ele>645.4</ele>
        <time>2021-06-26T11:27:01Z</time>
      </trkpt>
      <trkpt lat="46.10846" lon="6.58271">
        <ele>644.6</ele>
        <time>2021-06-26T11:27:06Z</time>
      </trkpt>
      <trkpt lat="46.10846" lon="6.5826">
        <ele>644.2</ele>
        <time>2021-06-26T11:27:07Z</time>
      </trkpt>
      <trkpt lat="46.10847" lon="6.58249">
        <ele>644</ele>
        <time>2021-06-26T11:27:08Z</time>
      </trkpt>
      <trkpt lat="46.10849" lon="6.58238">
        <ele>643.6</ele>
        <time>2021-06-26T11:27:09Z</time>
      </trkpt>
      <trkpt lat="46.10852" lon="6.58229">
        <ele>643.6</ele>
        <time>2021-06-26T11:27:10Z</time>
      </trkpt>
      <trkpt lat="46.10855" lon="6.58219">
        <ele>643.2</ele>
        <time>2021-06-26T11:27:11Z</time>
      </trkpt>
      <trkpt lat="46.10856" lon="6.58209">
        <ele>643.2</ele>
        <time>2021-06-26T11:27:12Z</time>
      </trkpt>
      <trkpt lat="46.10855" lon="6.58199">
        <ele>643.2</ele>
        <time>2021-06-26T11:27:13Z</time>
      </trkpt>
      <trkpt lat="46.10852" lon="6.58189">
        <ele>642.8</ele>
        <time>2021-06-26T11:27:14Z</time>
      </trkpt>
      <trkpt lat="46.10851" lon="6.58179">
        <ele>642.8</ele>
        <time>2021-06-26T11:27:15Z</time>
      </trkpt>
      <trkpt lat="46.1085" lon="6.58168">
        <ele>642.8</ele>
        <time>2021-06-26T11:27:16Z</time>
      </trkpt>
      <trkpt lat="46.10849" lon="6.5812">
        <ele>642.2</ele>
        <time>2021-06-26T11:27:20Z</time>
      </trkpt>
      <trkpt lat="46.10849" lon="6.58108">
        <ele>641.8</ele>
        <time>2021-06-26T11:27:21Z</time>
      </trkpt>
      <trkpt lat="46.10848" lon="6.58023">
        <ele>641</ele>
        <time>2021-06-26T11:27:28Z</time>
      </trkpt>
      <trkpt lat="46.10848" lon="6.57999">
        <ele>640.2</ele>
        <time>2021-06-26T11:27:30Z</time>
      </trkpt>
      <trkpt lat="46.10848" lon="6.57951">
        <ele>639.6</ele>
        <time>2021-06-26T11:27:34Z</time>
      </trkpt>
      <trkpt lat="46.10847" lon="6.57939">
        <ele>639.6</ele>
        <time>2021-06-26T11:27:35Z</time>
      </trkpt>
      <trkpt lat="46.10847" lon="6.57891">
        <ele>639</ele>
        <time>2021-06-26T11:27:39Z</time>
      </trkpt>
      <trkpt lat="46.10847" lon="6.57879">
        <ele>638.8</ele>
        <time>2021-06-26T11:27:40Z</time>
      </trkpt>
      <trkpt lat="46.10847" lon="6.57867">
        <ele>638.6</ele>
        <time>2021-06-26T11:27:41Z</time>
      </trkpt>
      <trkpt lat="46.10848" lon="6.57784">
        <ele>637.4</ele>
        <time>2021-06-26T11:27:48Z</time>
      </trkpt>
      <trkpt lat="46.10847" lon="6.57772">
        <ele>637.4</ele>
        <time>2021-06-26T11:27:49Z</time>
      </trkpt>
      <trkpt lat="46.10847" lon="6.5776">
        <ele>637</ele>
        <time>2021-06-26T11:27:50Z</time>
      </trkpt>
      <trkpt lat="46.10846" lon="6.5771">
        <ele>636.4</ele>
        <time>2021-06-26T11:27:54Z</time>
      </trkpt>
      <trkpt lat="46.10845" lon="6.57686">
        <ele>636.2</ele>
        <time>2021-06-26T11:27:56Z</time>
      </trkpt>
      <trkpt lat="46.10845" lon="6.57673">
        <ele>636</ele>
        <time>2021-06-26T11:27:57Z</time>
      </trkpt>
      <trkpt lat="46.10844" lon="6.57588">
        <ele>634.8</ele>
        <time>2021-06-26T11:28:04Z</time>
      </trkpt>
      <trkpt lat="46.10843" lon="6.5754">
        <ele>633.6</ele>
        <time>2021-06-26T11:28:08Z</time>
      </trkpt>
      <trkpt lat="46.10843" lon="6.57505">
        <ele>633.4</ele>
        <time>2021-06-26T11:28:11Z</time>
      </trkpt>
      <trkpt lat="46.10843" lon="6.57481">
        <ele>633.2</ele>
        <time>2021-06-26T11:28:13Z</time>
      </trkpt>
      <trkpt lat="46.10843" lon="6.57435">
        <ele>632.4</ele>
        <time>2021-06-26T11:28:17Z</time>
      </trkpt>
      <trkpt lat="46.10842" lon="6.57399">
        <ele>632.2</ele>
        <time>2021-06-26T11:28:20Z</time>
      </trkpt>
      <trkpt lat="46.10842" lon="6.57315">
        <ele>631</ele>
        <time>2021-06-26T11:28:27Z</time>
      </trkpt>
      <trkpt lat="46.10841" lon="6.57254">
        <ele>630.6</ele>
        <time>2021-06-26T11:28:32Z</time>
      </trkpt>
      <trkpt lat="46.10841" lon="6.57229">
        <ele>630.4</ele>
        <time>2021-06-26T11:28:34Z</time>
      </trkpt>
      <trkpt lat="46.10841" lon="6.57217">
        <ele>630.2</ele>
        <time>2021-06-26T11:28:35Z</time>
      </trkpt>
      <trkpt lat="46.10841" lon="6.57205">
        <ele>630.2</ele>
        <time>2021-06-26T11:28:36Z</time>
      </trkpt>
      <trkpt lat="46.10841" lon="6.57194">
        <ele>630.2</ele>
        <time>2021-06-26T11:28:37Z</time>
      </trkpt>
      <trkpt lat="46.10841" lon="6.57182">
        <ele>630</ele>
        <time>2021-06-26T11:28:38Z</time>
      </trkpt>
      <trkpt lat="46.1084" lon="6.5717">
        <ele>630</ele>
        <time>2021-06-26T11:28:39Z</time>
      </trkpt>
      <trkpt lat="46.1084" lon="6.57159">
        <ele>629.8</ele>
        <time>2021-06-26T11:28:40Z</time>
      </trkpt>
      <trkpt lat="46.1084" lon="6.57077">
        <ele>628.2</ele>
        <time>2021-06-26T11:28:47Z</time>
      </trkpt>
      <trkpt lat="46.1084" lon="6.57053">
        <ele>628</ele>
        <time>2021-06-26T11:28:49Z</time>
      </trkpt>
      <trkpt lat="46.10841" lon="6.57029">
        <ele>627.8</ele>
        <time>2021-06-26T11:28:51Z</time>
      </trkpt>
      <trkpt lat="46.10845" lon="6.5698">
        <ele>627.6</ele>
        <time>2021-06-26T11:28:55Z</time>
      </trkpt>
      <trkpt lat="46.10849" lon="6.56956">
        <ele>627.4</ele>
        <time>2021-06-26T11:28:57Z</time>
      </trkpt>
      <trkpt lat="46.10855" lon="6.56908">
        <ele>626.6</ele>
        <time>2021-06-26T11:29:01Z</time>
      </trkpt>
      <trkpt lat="46.10862" lon="6.5686">
        <ele>625.4</ele>
        <time>2021-06-26T11:29:05Z</time>
      </trkpt>
      <trkpt lat="46.10867" lon="6.56823">
        <ele>625</ele>
        <time>2021-06-26T11:29:08Z</time>
      </trkpt>
      <trkpt lat="46.10869" lon="6.56811">
        <ele>625</ele>
        <time>2021-06-26T11:29:09Z</time>
      </trkpt>
      <trkpt lat="46.10879" lon="6.56737">
        <ele>623.4</ele>
        <time>2021-06-26T11:29:15Z</time>
      </trkpt>
      <trkpt lat="46.10884" lon="6.567">
        <ele>623.2</ele>
        <time>2021-06-26T11:29:18Z</time>
      </trkpt>
      <trkpt lat="46.10889" lon="6.56661">
        <ele>622.8</ele>
        <time>2021-06-26T11:29:21Z</time>
      </trkpt>
      <trkpt lat="46.10894" lon="6.56623">
        <ele>622.6</ele>
        <time>2021-06-26T11:29:24Z</time>
      </trkpt>
      <trkpt lat="46.10901" lon="6.56585">
        <ele>621.8</ele>
        <time>2021-06-26T11:29:27Z</time>
      </trkpt>
      <trkpt lat="46.10904" lon="6.56573">
        <ele>621.6</ele>
        <time>2021-06-26T11:29:28Z</time>
      </trkpt>
      <trkpt lat="46.10919" lon="6.56525">
        <ele>620.6</ele>
        <time>2021-06-26T11:29:32Z</time>
      </trkpt>
      <trkpt lat="46.10935" lon="6.56479">
        <ele>619.8</ele>
        <time>2021-06-26T11:29:36Z</time>
      </trkpt>
      <trkpt lat="46.10939" lon="6.56468">
        <ele>619.8</ele>
        <time>2021-06-26T11:29:37Z</time>
      </trkpt>
      <trkpt lat="46.10943" lon="6.56456">
        <ele>619.6</ele>
        <time>2021-06-26T11:29:38Z</time>
      </trkpt>
      <trkpt lat="46.10947" lon="6.56445">
        <ele>619.4</ele>
        <time>2021-06-26T11:29:39Z</time>
      </trkpt>
      <trkpt lat="46.1095" lon="6.56435">
        <ele>619.4</ele>
        <time>2021-06-26T11:29:40Z</time>
      </trkpt>
      <trkpt lat="46.10954" lon="6.56424">
        <ele>619.2</ele>
        <time>2021-06-26T11:29:41Z</time>
      </trkpt>
      <trkpt lat="46.10957" lon="6.56414">
        <ele>619.2</ele>
        <time>2021-06-26T11:29:42Z</time>
      </trkpt>
      <trkpt lat="46.10961" lon="6.56404">
        <ele>619</ele>
        <time>2021-06-26T11:29:43Z</time>
      </trkpt>
      <trkpt lat="46.10964" lon="6.56393">
        <ele>619</ele>
        <time>2021-06-26T11:29:44Z</time>
      </trkpt>
      <trkpt lat="46.10968" lon="6.56384">
        <ele>619</ele>
        <time>2021-06-26T11:29:45Z</time>
      </trkpt>
      <trkpt lat="46.10971" lon="6.56374">
        <ele>618.8</ele>
        <time>2021-06-26T11:29:46Z</time>
      </trkpt>
      <trkpt lat="46.10974" lon="6.56364">
        <ele>618.6</ele>
        <time>2021-06-26T11:29:47Z</time>
      </trkpt>
      <trkpt lat="46.10978" lon="6.56355">
        <ele>618</ele>
        <time>2021-06-26T11:29:48Z</time>
      </trkpt>
      <trkpt lat="46.10995" lon="6.56306">
        <ele>617.6</ele>
        <time>2021-06-26T11:29:53Z</time>
      </trkpt>
      <trkpt lat="46.11022" lon="6.56228">
        <ele>618</ele>
        <time>2021-06-26T11:30:01Z</time>
      </trkpt>
      <trkpt lat="46.11032" lon="6.56198">
        <ele>618</ele>
        <time>2021-06-26T11:30:04Z</time>
      </trkpt>
      <trkpt lat="46.11035" lon="6.56188">
        <ele>618</ele>
        <time>2021-06-26T11:30:05Z</time>
      </trkpt>
      <trkpt lat="46.11038" lon="6.56178">
        <ele>618</ele>
        <time>2021-06-26T11:30:06Z</time>
      </trkpt>
      <trkpt lat="46.11042" lon="6.56169">
        <ele>618</ele>
        <time>2021-06-26T11:30:07Z</time>
      </trkpt>
      <trkpt lat="46.11045" lon="6.56159">
        <ele>618</ele>
        <time>2021-06-26T11:30:08Z</time>
      </trkpt>
      <trkpt lat="46.11048" lon="6.5615">
        <ele>618</ele>
        <time>2021-06-26T11:30:09Z</time>
      </trkpt>
      <trkpt lat="46.11051" lon="6.56141">
        <ele>618</ele>
        <time>2021-06-26T11:30:10Z</time>
      </trkpt>
      <trkpt lat="46.11055" lon="6.56131">
        <ele>618</ele>
        <time>2021-06-26T11:30:11Z</time>
      </trkpt>
      <trkpt lat="46.11058" lon="6.56122">
        <ele>617.8</ele>
        <time>2021-06-26T11:30:12Z</time>
      </trkpt>
      <trkpt lat="46.11065" lon="6.56104">
        <ele>617.6</ele>
        <time>2021-06-26T11:30:14Z</time>
      </trkpt>
      <trkpt lat="46.11068" lon="6.56095">
        <ele>617.8</ele>
        <time>2021-06-26T11:30:15Z</time>
      </trkpt>
      <trkpt lat="46.11071" lon="6.56086">
        <ele>617.6</ele>
        <time>2021-06-26T11:30:16Z</time>
      </trkpt>
      <trkpt lat="46.11075" lon="6.56077">
        <ele>617.6</ele>
        <time>2021-06-26T11:30:17Z</time>
      </trkpt>
      <trkpt lat="46.11078" lon="6.56068">
        <ele>617.6</ele>
        <time>2021-06-26T11:30:18Z</time>
      </trkpt>
      <trkpt lat="46.11081" lon="6.56059">
        <ele>617.6</ele>
        <time>2021-06-26T11:30:19Z</time>
      </trkpt>
      <trkpt lat="46.11084" lon="6.5605">
        <ele>617.6</ele>
        <time>2021-06-26T11:30:20Z</time>
      </trkpt>
      <trkpt lat="46.11086" lon="6.56041">
        <ele>617.8</ele>
        <time>2021-06-26T11:30:21Z</time>
      </trkpt>
      <trkpt lat="46.11089" lon="6.56032">
        <ele>617.8</ele>
        <time>2021-06-26T11:30:22Z</time>
      </trkpt>
      <trkpt lat="46.11091" lon="6.56023">
        <ele>617.8</ele>
        <time>2021-06-26T11:30:23Z</time>
      </trkpt>
      <trkpt lat="46.11093" lon="6.56013">
        <ele>617.8</ele>
        <time>2021-06-26T11:30:24Z</time>
      </trkpt>
      <trkpt lat="46.111" lon="6.55966">
        <ele>618.4</ele>
        <time>2021-06-26T11:30:29Z</time>
      </trkpt>
      <trkpt lat="46.11101" lon="6.55956">
        <ele>618.6</ele>
        <time>2021-06-26T11:30:30Z</time>
      </trkpt>
      <trkpt lat="46.11102" lon="6.55947">
        <ele>618.6</ele>
        <time>2021-06-26T11:30:31Z</time>
      </trkpt>
      <trkpt lat="46.11102" lon="6.55938">
        <ele>618.6</ele>
        <time>2021-06-26T11:30:32Z</time>
      </trkpt>
      <trkpt lat="46.11103" lon="6.55928">
        <ele>618.6</ele>
        <time>2021-06-26T11:30:33Z</time>
      </trkpt>
      <trkpt lat="46.11104" lon="6.5591">
        <ele>618.6</ele>
        <time>2021-06-26T11:30:35Z</time>
      </trkpt>
      <trkpt lat="46.11105" lon="6.55901">
        <ele>618.6</ele>
        <time>2021-06-26T11:30:36Z</time>
      </trkpt>
      <trkpt lat="46.11105" lon="6.55883">
        <ele>618.6</ele>
        <time>2021-06-26T11:30:38Z</time>
      </trkpt>
      <trkpt lat="46.11106" lon="6.55875">
        <ele>618.6</ele>
        <time>2021-06-26T11:30:39Z</time>
      </trkpt>
      <trkpt lat="46.11106" lon="6.55866">
        <ele>618.4</ele>
        <time>2021-06-26T11:30:40Z</time>
      </trkpt>
      <trkpt lat="46.11106" lon="6.55858">
        <ele>618.4</ele>
        <time>2021-06-26T11:30:41Z</time>
      </trkpt>
      <trkpt lat="46.11107" lon="6.55849">
        <ele>618.4</ele>
        <time>2021-06-26T11:30:42Z</time>
      </trkpt>
      <trkpt lat="46.11107" lon="6.55814">
        <ele>618.4</ele>
        <time>2021-06-26T11:30:46Z</time>
      </trkpt>
      <trkpt lat="46.11107" lon="6.55796">
        <ele>618.2</ele>
        <time>2021-06-26T11:30:48Z</time>
      </trkpt>
      <trkpt lat="46.11107" lon="6.55779">
        <ele>618.2</ele>
        <time>2021-06-26T11:30:50Z</time>
      </trkpt>
      <trkpt lat="46.11107" lon="6.5577">
        <ele>618.4</ele>
        <time>2021-06-26T11:30:51Z</time>
      </trkpt>
      <trkpt lat="46.11107" lon="6.55761">
        <ele>618.4</ele>
        <time>2021-06-26T11:30:52Z</time>
      </trkpt>
      <trkpt lat="46.11108" lon="6.55753">
        <ele>618.4</ele>
        <time>2021-06-26T11:30:53Z</time>
      </trkpt>
      <trkpt lat="46.11108" lon="6.55744">
        <ele>618.6</ele>
        <time>2021-06-26T11:30:54Z</time>
      </trkpt>
      <trkpt lat="46.11108" lon="6.55735">
        <ele>618.4</ele>
        <time>2021-06-26T11:30:55Z</time>
      </trkpt>
      <trkpt lat="46.11108" lon="6.55718">
        <ele>618.6</ele>
        <time>2021-06-26T11:30:57Z</time>
      </trkpt>
      <trkpt lat="46.11109" lon="6.5571">
        <ele>618.8</ele>
        <time>2021-06-26T11:30:58Z</time>
      </trkpt>
      <trkpt lat="46.1111" lon="6.55702">
        <ele>618.6</ele>
        <time>2021-06-26T11:30:59Z</time>
      </trkpt>
      <trkpt lat="46.11112" lon="6.55694">
        <ele>618.8</ele>
        <time>2021-06-26T11:31:00Z</time>
      </trkpt>
      <trkpt lat="46.11113" lon="6.55686">
        <ele>618.8</ele>
        <time>2021-06-26T11:31:01Z</time>
      </trkpt>
      <trkpt lat="46.11117" lon="6.55671">
        <ele>618.8</ele>
        <time>2021-06-26T11:31:03Z</time>
      </trkpt>
      <trkpt lat="46.11118" lon="6.55663">
        <ele>619</ele>
        <time>2021-06-26T11:31:04Z</time>
      </trkpt>
      <trkpt lat="46.1112" lon="6.55656">
        <ele>619</ele>
        <time>2021-06-26T11:31:05Z</time>
      </trkpt>
      <trkpt lat="46.11122" lon="6.55649">
        <ele>619</ele>
        <time>2021-06-26T11:31:06Z</time>
      </trkpt>
      <trkpt lat="46.11124" lon="6.55643">
        <ele>619.2</ele>
        <time>2021-06-26T11:31:07Z</time>
      </trkpt>
      <trkpt lat="46.11127" lon="6.55636">
        <ele>619.4</ele>
        <time>2021-06-26T11:31:08Z</time>
      </trkpt>
      <trkpt lat="46.11129" lon="6.5563">
        <ele>619.4</ele>
        <time>2021-06-26T11:31:09Z</time>
      </trkpt>
      <trkpt lat="46.11131" lon="6.55624">
        <ele>619.4</ele>
        <time>2021-06-26T11:31:10Z</time>
      </trkpt>
      <trkpt lat="46.11134" lon="6.55619">
        <ele>619.6</ele>
        <time>2021-06-26T11:31:11Z</time>
      </trkpt>
      <trkpt lat="46.11137" lon="6.55613">
        <ele>619.8</ele>
        <time>2021-06-26T11:31:12Z</time>
      </trkpt>
      <trkpt lat="46.11139" lon="6.55608">
        <ele>619.8</ele>
        <time>2021-06-26T11:31:13Z</time>
      </trkpt>
      <trkpt lat="46.11143" lon="6.55603">
        <ele>620</ele>
        <time>2021-06-26T11:31:14Z</time>
      </trkpt>
      <trkpt lat="46.11145" lon="6.55597">
        <ele>620</ele>
        <time>2021-06-26T11:31:15Z</time>
      </trkpt>
      <trkpt lat="46.11148" lon="6.55592">
        <ele>620.2</ele>
        <time>2021-06-26T11:31:16Z</time>
      </trkpt>
      <trkpt lat="46.11151" lon="6.55586">
        <ele>620</ele>
        <time>2021-06-26T11:31:17Z</time>
      </trkpt>
      <trkpt lat="46.11154" lon="6.55581">
        <ele>620.4</ele>
        <time>2021-06-26T11:31:18Z</time>
      </trkpt>
      <trkpt lat="46.11157" lon="6.55576">
        <ele>620.6</ele>
        <time>2021-06-26T11:31:19Z</time>
      </trkpt>
      <trkpt lat="46.1116" lon="6.5557">
        <ele>621</ele>
        <time>2021-06-26T11:31:20Z</time>
      </trkpt>
      <trkpt lat="46.11163" lon="6.55565">
        <ele>621.4</ele>
        <time>2021-06-26T11:31:21Z</time>
      </trkpt>
      <trkpt lat="46.11166" lon="6.5556">
        <ele>621.6</ele>
        <time>2021-06-26T11:31:22Z</time>
      </trkpt>
      <trkpt lat="46.11169" lon="6.55555">
        <ele>621.8</ele>
        <time>2021-06-26T11:31:23Z</time>
      </trkpt>
      <trkpt lat="46.11171" lon="6.5555">
        <ele>621.8</ele>
        <time>2021-06-26T11:31:24Z</time>
      </trkpt>
      <trkpt lat="46.11174" lon="6.55545">
        <ele>622</ele>
        <time>2021-06-26T11:31:25Z</time>
      </trkpt>
      <trkpt lat="46.11177" lon="6.5554">
        <ele>622.2</ele>
        <time>2021-06-26T11:31:26Z</time>
      </trkpt>
      <trkpt lat="46.1118" lon="6.55535">
        <ele>622</ele>
        <time>2021-06-26T11:31:27Z</time>
      </trkpt>
      <trkpt lat="46.11183" lon="6.5553">
        <ele>622.2</ele>
        <time>2021-06-26T11:31:28Z</time>
      </trkpt>
      <trkpt lat="46.11185" lon="6.55525">
        <ele>622.4</ele>
        <time>2021-06-26T11:31:29Z</time>
      </trkpt>
      <trkpt lat="46.11188" lon="6.5552">
        <ele>622.4</ele>
        <time>2021-06-26T11:31:30Z</time>
      </trkpt>
      <trkpt lat="46.11191" lon="6.55515">
        <ele>622.4</ele>
        <time>2021-06-26T11:31:31Z</time>
      </trkpt>
      <trkpt lat="46.11194" lon="6.55511">
        <ele>622.8</ele>
        <time>2021-06-26T11:31:32Z</time>
      </trkpt>
      <trkpt lat="46.11197" lon="6.55506">
        <ele>623</ele>
        <time>2021-06-26T11:31:33Z</time>
      </trkpt>
      <trkpt lat="46.112" lon="6.55502">
        <ele>623.2</ele>
        <time>2021-06-26T11:31:34Z</time>
      </trkpt>
      <trkpt lat="46.11203" lon="6.55498">
        <ele>623.2</ele>
        <time>2021-06-26T11:31:35Z</time>
      </trkpt>
      <trkpt lat="46.11206" lon="6.55494">
        <ele>623.6</ele>
        <time>2021-06-26T11:31:36Z</time>
      </trkpt>
      <trkpt lat="46.1121" lon="6.5549">
        <ele>623.6</ele>
        <time>2021-06-26T11:31:37Z</time>
      </trkpt>
      <trkpt lat="46.11213" lon="6.55486">
        <ele>623.8</ele>
        <time>2021-06-26T11:31:38Z</time>
      </trkpt>
      <trkpt lat="46.11217" lon="6.55483">
        <ele>624</ele>
        <time>2021-06-26T11:31:39Z</time>
      </trkpt>
      <trkpt lat="46.1122" lon="6.55479">
        <ele>624</ele>
        <time>2021-06-26T11:31:40Z</time>
      </trkpt>
      <trkpt lat="46.11224" lon="6.55476">
        <ele>624.2</ele>
        <time>2021-06-26T11:31:41Z</time>
      </trkpt>
      <trkpt lat="46.11227" lon="6.55473">
        <ele>624.6</ele>
        <time>2021-06-26T11:31:42Z</time>
      </trkpt>
      <trkpt lat="46.11231" lon="6.55471">
        <ele>624.8</ele>
        <time>2021-06-26T11:31:43Z</time>
      </trkpt>
      <trkpt lat="46.11235" lon="6.55468">
        <ele>625.2</ele>
        <time>2021-06-26T11:31:44Z</time>
      </trkpt>
      <trkpt lat="46.11239" lon="6.55465">
        <ele>625.4</ele>
        <time>2021-06-26T11:31:45Z</time>
      </trkpt>
      <trkpt lat="46.11242" lon="6.55462">
        <ele>625.8</ele>
        <time>2021-06-26T11:31:46Z</time>
      </trkpt>
      <trkpt lat="46.11246" lon="6.55459">
        <ele>625.8</ele>
        <time>2021-06-26T11:31:47Z</time>
      </trkpt>
      <trkpt lat="46.11249" lon="6.55456">
        <ele>626.2</ele>
        <time>2021-06-26T11:31:48Z</time>
      </trkpt>
      <trkpt lat="46.11253" lon="6.55453">
        <ele>626.2</ele>
        <time>2021-06-26T11:31:49Z</time>
      </trkpt>
      <trkpt lat="46.11257" lon="6.5545">
        <ele>626.4</ele>
        <time>2021-06-26T11:31:50Z</time>
      </trkpt>
      <trkpt lat="46.11261" lon="6.55448">
        <ele>626.6</ele>
        <time>2021-06-26T11:31:51Z</time>
      </trkpt>
      <trkpt lat="46.11265" lon="6.55445">
        <ele>626.6</ele>
        <time>2021-06-26T11:31:52Z</time>
      </trkpt>
      <trkpt lat="46.11269" lon="6.55442">
        <ele>627</ele>
        <time>2021-06-26T11:31:53Z</time>
      </trkpt>
      <trkpt lat="46.11272" lon="6.55439">
        <ele>627</ele>
        <time>2021-06-26T11:31:54Z</time>
      </trkpt>
      <trkpt lat="46.11276" lon="6.55436">
        <ele>627</ele>
        <time>2021-06-26T11:31:55Z</time>
      </trkpt>
      <trkpt lat="46.1128" lon="6.55433">
        <ele>627.2</ele>
        <time>2021-06-26T11:31:56Z</time>
      </trkpt>
      <trkpt lat="46.11284" lon="6.5543">
        <ele>627.2</ele>
        <time>2021-06-26T11:31:57Z</time>
      </trkpt>
      <trkpt lat="46.11288" lon="6.55427">
        <ele>627.4</ele>
        <time>2021-06-26T11:31:58Z</time>
      </trkpt>
      <trkpt lat="46.11291" lon="6.55424">
        <ele>627.4</ele>
        <time>2021-06-26T11:31:59Z</time>
      </trkpt>
      <trkpt lat="46.11295" lon="6.55422">
        <ele>627.6</ele>
        <time>2021-06-26T11:32:00Z</time>
      </trkpt>
      <trkpt lat="46.11299" lon="6.55419">
        <ele>627.6</ele>
        <time>2021-06-26T11:32:01Z</time>
      </trkpt>
      <trkpt lat="46.11303" lon="6.55415">
        <ele>627.8</ele>
        <time>2021-06-26T11:32:02Z</time>
      </trkpt>
      <trkpt lat="46.11307" lon="6.55412">
        <ele>627.8</ele>
        <time>2021-06-26T11:32:03Z</time>
      </trkpt>
      <trkpt lat="46.1131" lon="6.55409">
        <ele>627.8</ele>
        <time>2021-06-26T11:32:04Z</time>
      </trkpt>
      <trkpt lat="46.11314" lon="6.55406">
        <ele>628</ele>
        <time>2021-06-26T11:32:05Z</time>
      </trkpt>
      <trkpt lat="46.11318" lon="6.55403">
        <ele>628</ele>
        <time>2021-06-26T11:32:06Z</time>
      </trkpt>
      <trkpt lat="46.11322" lon="6.554">
        <ele>628</ele>
        <time>2021-06-26T11:32:07Z</time>
      </trkpt>
      <trkpt lat="46.11326" lon="6.55397">
        <ele>628.2</ele>
        <time>2021-06-26T11:32:08Z</time>
      </trkpt>
      <trkpt lat="46.1133" lon="6.55394">
        <ele>628.4</ele>
        <time>2021-06-26T11:32:09Z</time>
      </trkpt>
      <trkpt lat="46.11334" lon="6.55391">
        <ele>628.4</ele>
        <time>2021-06-26T11:32:10Z</time>
      </trkpt>
      <trkpt lat="46.11338" lon="6.55388">
        <ele>628.8</ele>
        <time>2021-06-26T11:32:11Z</time>
      </trkpt>
      <trkpt lat="46.11342" lon="6.55385">
        <ele>628.8</ele>
        <time>2021-06-26T11:32:12Z</time>
      </trkpt>
      <trkpt lat="46.11346" lon="6.55382">
        <ele>629</ele>
        <time>2021-06-26T11:32:13Z</time>
      </trkpt>
      <trkpt lat="46.1135" lon="6.55379">
        <ele>629</ele>
        <time>2021-06-26T11:32:14Z</time>
      </trkpt>
      <trkpt lat="46.11354" lon="6.55375">
        <ele>629.2</ele>
        <time>2021-06-26T11:32:15Z</time>
      </trkpt>
      <trkpt lat="46.11358" lon="6.55372">
        <ele>629.2</ele>
        <time>2021-06-26T11:32:16Z</time>
      </trkpt>
      <trkpt lat="46.11362" lon="6.55369">
        <ele>629.4</ele>
        <time>2021-06-26T11:32:17Z</time>
      </trkpt>
      <trkpt lat="46.11366" lon="6.55366">
        <ele>629.6</ele>
        <time>2021-06-26T11:32:18Z</time>
      </trkpt>
      <trkpt lat="46.1137" lon="6.55363">
        <ele>629.6</ele>
        <time>2021-06-26T11:32:19Z</time>
      </trkpt>
      <trkpt lat="46.11374" lon="6.5536">
        <ele>629.6</ele>
        <time>2021-06-26T11:32:20Z</time>
      </trkpt>
      <trkpt lat="46.11378" lon="6.55357">
        <ele>629.8</ele>
        <time>2021-06-26T11:32:21Z</time>
      </trkpt>
      <trkpt lat="46.11382" lon="6.55354">
        <ele>629.8</ele>
        <time>2021-06-26T11:32:22Z</time>
      </trkpt>
      <trkpt lat="46.11391" lon="6.55349">
        <ele>630</ele>
        <time>2021-06-26T11:32:24Z</time>
      </trkpt>
      <trkpt lat="46.1141" lon="6.5534">
        <ele>630.4</ele>
        <time>2021-06-26T11:32:28Z</time>
      </trkpt>
      <trkpt lat="46.11426" lon="6.55336">
        <ele>630.6</ele>
        <time>2021-06-26T11:32:31Z</time>
      </trkpt>
      <trkpt lat="46.11466" lon="6.55334">
        <ele>630.8</ele>
        <time>2021-06-26T11:32:38Z</time>
      </trkpt>
      <trkpt lat="46.1151" lon="6.55333">
        <ele>630.6</ele>
        <time>2021-06-26T11:32:45Z</time>
      </trkpt>
      <trkpt lat="46.1154" lon="6.55332">
        <ele>630.6</ele>
        <time>2021-06-26T11:32:50Z</time>
      </trkpt>
      <trkpt lat="46.11553" lon="6.55332">
        <ele>630.6</ele>
        <time>2021-06-26T11:32:52Z</time>
      </trkpt>
      <trkpt lat="46.11572" lon="6.55332">
        <ele>630.2</ele>
        <time>2021-06-26T11:32:55Z</time>
      </trkpt>
      <trkpt lat="46.11584" lon="6.55331">
        <ele>630.2</ele>
        <time>2021-06-26T11:32:57Z</time>
      </trkpt>
      <trkpt lat="46.1159" lon="6.55331">
        <ele>630.2</ele>
        <time>2021-06-26T11:32:58Z</time>
      </trkpt>
      <trkpt lat="46.11597" lon="6.55331">
        <ele>630.2</ele>
        <time>2021-06-26T11:32:59Z</time>
      </trkpt>
      <trkpt lat="46.11622" lon="6.5533">
        <ele>630.2</ele>
        <time>2021-06-26T11:33:03Z</time>
      </trkpt>
      <trkpt lat="46.11635" lon="6.5533">
        <ele>630.2</ele>
        <time>2021-06-26T11:33:05Z</time>
      </trkpt>
      <trkpt lat="46.11648" lon="6.5533">
        <ele>630.2</ele>
        <time>2021-06-26T11:33:07Z</time>
      </trkpt>
      <trkpt lat="46.11654" lon="6.55329">
        <ele>630.2</ele>
        <time>2021-06-26T11:33:08Z</time>
      </trkpt>
      <trkpt lat="46.11666" lon="6.5533">
        <ele>630.2</ele>
        <time>2021-06-26T11:33:10Z</time>
      </trkpt>
      <trkpt lat="46.11672" lon="6.5533">
        <ele>630.2</ele>
        <time>2021-06-26T11:33:11Z</time>
      </trkpt>
      <trkpt lat="46.11678" lon="6.5533">
        <ele>630.4</ele>
        <time>2021-06-26T11:33:12Z</time>
      </trkpt>
      <trkpt lat="46.11684" lon="6.5533">
        <ele>630.4</ele>
        <time>2021-06-26T11:33:13Z</time>
      </trkpt>
      <trkpt lat="46.1169" lon="6.5533">
        <ele>630.4</ele>
        <time>2021-06-26T11:33:14Z</time>
      </trkpt>
      <trkpt lat="46.11696" lon="6.5533">
        <ele>630.4</ele>
        <time>2021-06-26T11:33:15Z</time>
      </trkpt>
      <trkpt lat="46.11701" lon="6.55331">
        <ele>630.4</ele>
        <time>2021-06-26T11:33:16Z</time>
      </trkpt>
      <trkpt lat="46.11707" lon="6.55331">
        <ele>630.4</ele>
        <time>2021-06-26T11:33:17Z</time>
      </trkpt>
      <trkpt lat="46.11712" lon="6.55331">
        <ele>630.4</ele>
        <time>2021-06-26T11:33:18Z</time>
      </trkpt>
      <trkpt lat="46.11718" lon="6.5533">
        <ele>630.6</ele>
        <time>2021-06-26T11:33:19Z</time>
      </trkpt>
      <trkpt lat="46.11723" lon="6.5533">
        <ele>630.6</ele>
        <time>2021-06-26T11:33:20Z</time>
      </trkpt>
      <trkpt lat="46.11727" lon="6.55329">
        <ele>630.6</ele>
        <time>2021-06-26T11:33:21Z</time>
      </trkpt>
      <trkpt lat="46.11732" lon="6.55327">
        <ele>630.8</ele>
        <time>2021-06-26T11:33:22Z</time>
      </trkpt>
      <trkpt lat="46.11736" lon="6.55325">
        <ele>630.8</ele>
        <time>2021-06-26T11:33:23Z</time>
      </trkpt>
      <trkpt lat="46.1174" lon="6.55323">
        <ele>630.8</ele>
        <time>2021-06-26T11:33:24Z</time>
      </trkpt>
      <trkpt lat="46.11745" lon="6.5532">
        <ele>631</ele>
        <time>2021-06-26T11:33:25Z</time>
      </trkpt>
      <trkpt lat="46.11755" lon="6.55315">
        <ele>631</ele>
        <time>2021-06-26T11:33:27Z</time>
      </trkpt>
      <trkpt lat="46.11775" lon="6.55301">
        <ele>632.2</ele>
        <time>2021-06-26T11:33:31Z</time>
      </trkpt>
      <trkpt lat="46.1178" lon="6.55297">
        <ele>632.2</ele>
        <time>2021-06-26T11:33:32Z</time>
      </trkpt>
      <trkpt lat="46.11784" lon="6.55292">
        <ele>632.4</ele>
        <time>2021-06-26T11:33:33Z</time>
      </trkpt>
      <trkpt lat="46.11789" lon="6.55288">
        <ele>632.4</ele>
        <time>2021-06-26T11:33:34Z</time>
      </trkpt>
      <trkpt lat="46.11793" lon="6.55283">
        <ele>632.4</ele>
        <time>2021-06-26T11:33:35Z</time>
      </trkpt>
      <trkpt lat="46.11797" lon="6.55278">
        <ele>632.8</ele>
        <time>2021-06-26T11:33:36Z</time>
      </trkpt>
      <trkpt lat="46.11801" lon="6.55272">
        <ele>633</ele>
        <time>2021-06-26T11:33:37Z</time>
      </trkpt>
      <trkpt lat="46.11804" lon="6.55266">
        <ele>633</ele>
        <time>2021-06-26T11:33:38Z</time>
      </trkpt>
      <trkpt lat="46.11806" lon="6.5526">
        <ele>633.2</ele>
        <time>2021-06-26T11:33:39Z</time>
      </trkpt>
      <trkpt lat="46.11809" lon="6.55253">
        <ele>633.4</ele>
        <time>2021-06-26T11:33:40Z</time>
      </trkpt>
      <trkpt lat="46.11811" lon="6.55245">
        <ele>633.4</ele>
        <time>2021-06-26T11:33:41Z</time>
      </trkpt>
      <trkpt lat="46.11813" lon="6.55238">
        <ele>633.4</ele>
        <time>2021-06-26T11:33:42Z</time>
      </trkpt>
      <trkpt lat="46.11815" lon="6.5523">
        <ele>633.6</ele>
        <time>2021-06-26T11:33:43Z</time>
      </trkpt>
      <trkpt lat="46.11817" lon="6.55222">
        <ele>633.8</ele>
        <time>2021-06-26T11:33:44Z</time>
      </trkpt>
      <trkpt lat="46.11818" lon="6.55215">
        <ele>634</ele>
        <time>2021-06-26T11:33:45Z</time>
      </trkpt>
      <trkpt lat="46.1182" lon="6.55207">
        <ele>634</ele>
        <time>2021-06-26T11:33:46Z</time>
      </trkpt>
      <trkpt lat="46.11821" lon="6.552">
        <ele>634</ele>
        <time>2021-06-26T11:33:47Z</time>
      </trkpt>
      <trkpt lat="46.11823" lon="6.55193">
        <ele>634.2</ele>
        <time>2021-06-26T11:33:48Z</time>
      </trkpt>
      <trkpt lat="46.11825" lon="6.55186">
        <ele>634.4</ele>
        <time>2021-06-26T11:33:49Z</time>
      </trkpt>
      <trkpt lat="46.11827" lon="6.55179">
        <ele>634.4</ele>
        <time>2021-06-26T11:33:50Z</time>
      </trkpt>
      <trkpt lat="46.11829" lon="6.55172">
        <ele>634.4</ele>
        <time>2021-06-26T11:33:51Z</time>
      </trkpt>
      <trkpt lat="46.11832" lon="6.55166">
        <ele>634.6</ele>
        <time>2021-06-26T11:33:52Z</time>
      </trkpt>
      <trkpt lat="46.11834" lon="6.5516">
        <ele>634.8</ele>
        <time>2021-06-26T11:33:53Z</time>
      </trkpt>
      <trkpt lat="46.11837" lon="6.55153">
        <ele>634.8</ele>
        <time>2021-06-26T11:33:54Z</time>
      </trkpt>
      <trkpt lat="46.11839" lon="6.55146">
        <ele>634.8</ele>
        <time>2021-06-26T11:33:55Z</time>
      </trkpt>
      <trkpt lat="46.11842" lon="6.5514">
        <ele>634.8</ele>
        <time>2021-06-26T11:33:56Z</time>
      </trkpt>
      <trkpt lat="46.11845" lon="6.55134">
        <ele>634.8</ele>
        <time>2021-06-26T11:33:57Z</time>
      </trkpt>
      <trkpt lat="46.11848" lon="6.55127">
        <ele>635.2</ele>
        <time>2021-06-26T11:33:58Z</time>
      </trkpt>
      <trkpt lat="46.1185" lon="6.55121">
        <ele>635.4</ele>
        <time>2021-06-26T11:33:59Z</time>
      </trkpt>
      <trkpt lat="46.11853" lon="6.55114">
        <ele>635.4</ele>
        <time>2021-06-26T11:34:00Z</time>
      </trkpt>
      <trkpt lat="46.11856" lon="6.55107">
        <ele>635.6</ele>
        <time>2021-06-26T11:34:01Z</time>
      </trkpt>
      <trkpt lat="46.11858" lon="6.55101">
        <ele>635.8</ele>
        <time>2021-06-26T11:34:02Z</time>
      </trkpt>
      <trkpt lat="46.11861" lon="6.55094">
        <ele>635.8</ele>
        <time>2021-06-26T11:34:03Z</time>
      </trkpt>
      <trkpt lat="46.11864" lon="6.55087">
        <ele>636</ele>
        <time>2021-06-26T11:34:04Z</time>
      </trkpt>
      <trkpt lat="46.11867" lon="6.55081">
        <ele>636.2</ele>
        <time>2021-06-26T11:34:05Z</time>
      </trkpt>
      <trkpt lat="46.11869" lon="6.55074">
        <ele>636.6</ele>
        <time>2021-06-26T11:34:06Z</time>
      </trkpt>
      <trkpt lat="46.11872" lon="6.55067">
        <ele>636.8</ele>
        <time>2021-06-26T11:34:07Z</time>
      </trkpt>
      <trkpt lat="46.11875" lon="6.55061">
        <ele>637</ele>
        <time>2021-06-26T11:34:08Z</time>
      </trkpt>
      <trkpt lat="46.11878" lon="6.55055">
        <ele>637</ele>
        <time>2021-06-26T11:34:09Z</time>
      </trkpt>
      <trkpt lat="46.11882" lon="6.55048">
        <ele>637</ele>
        <time>2021-06-26T11:34:10Z</time>
      </trkpt>
      <trkpt lat="46.11885" lon="6.55042">
        <ele>637</ele>
        <time>2021-06-26T11:34:11Z</time>
      </trkpt>
      <trkpt lat="46.11888" lon="6.55036">
        <ele>637</ele>
        <time>2021-06-26T11:34:12Z</time>
      </trkpt>
      <trkpt lat="46.11892" lon="6.5503">
        <ele>637.4</ele>
        <time>2021-06-26T11:34:13Z</time>
      </trkpt>
      <trkpt lat="46.11895" lon="6.55024">
        <ele>637.4</ele>
        <time>2021-06-26T11:34:14Z</time>
      </trkpt>
      <trkpt lat="46.11898" lon="6.55018">
        <ele>637.6</ele>
        <time>2021-06-26T11:34:15Z</time>
      </trkpt>
      <trkpt lat="46.11902" lon="6.55011">
        <ele>637.8</ele>
        <time>2021-06-26T11:34:16Z</time>
      </trkpt>
      <trkpt lat="46.11905" lon="6.55005">
        <ele>637.8</ele>
        <time>2021-06-26T11:34:17Z</time>
      </trkpt>
      <trkpt lat="46.11908" lon="6.54999">
        <ele>637.8</ele>
        <time>2021-06-26T11:34:18Z</time>
      </trkpt>
      <trkpt lat="46.11912" lon="6.54993">
        <ele>638</ele>
        <time>2021-06-26T11:34:19Z</time>
      </trkpt>
      <trkpt lat="46.11915" lon="6.54988">
        <ele>638.2</ele>
        <time>2021-06-26T11:34:20Z</time>
      </trkpt>
      <trkpt lat="46.11919" lon="6.54982">
        <ele>638.4</ele>
        <time>2021-06-26T11:34:21Z</time>
      </trkpt>
      <trkpt lat="46.11922" lon="6.54976">
        <ele>638.6</ele>
        <time>2021-06-26T11:34:22Z</time>
      </trkpt>
      <trkpt lat="46.11926" lon="6.54971">
        <ele>638.8</ele>
        <time>2021-06-26T11:34:23Z</time>
      </trkpt>
      <trkpt lat="46.11929" lon="6.54965">
        <ele>638.8</ele>
        <time>2021-06-26T11:34:24Z</time>
      </trkpt>
      <trkpt lat="46.11933" lon="6.54959">
        <ele>639</ele>
        <time>2021-06-26T11:34:25Z</time>
      </trkpt>
      <trkpt lat="46.11936" lon="6.54953">
        <ele>639.2</ele>
        <time>2021-06-26T11:34:26Z</time>
      </trkpt>
      <trkpt lat="46.11939" lon="6.54947">
        <ele>639.4</ele>
        <time>2021-06-26T11:34:27Z</time>
      </trkpt>
      <trkpt lat="46.11942" lon="6.54941">
        <ele>639.8</ele>
        <time>2021-06-26T11:34:28Z</time>
      </trkpt>
      <trkpt lat="46.11946" lon="6.54936">
        <ele>639.8</ele>
        <time>2021-06-26T11:34:29Z</time>
      </trkpt>
      <trkpt lat="46.11949" lon="6.5493">
        <ele>640</ele>
        <time>2021-06-26T11:34:30Z</time>
      </trkpt>
      <trkpt lat="46.11952" lon="6.54924">
        <ele>640</ele>
        <time>2021-06-26T11:34:31Z</time>
      </trkpt>
      <trkpt lat="46.11955" lon="6.54918">
        <ele>640</ele>
        <time>2021-06-26T11:34:32Z</time>
      </trkpt>
      <trkpt lat="46.11959" lon="6.54912">
        <ele>640.2</ele>
        <time>2021-06-26T11:34:33Z</time>
      </trkpt>
      <trkpt lat="46.11962" lon="6.54906">
        <ele>640.2</ele>
        <time>2021-06-26T11:34:34Z</time>
      </trkpt>
      <trkpt lat="46.11966" lon="6.54901">
        <ele>640.6</ele>
        <time>2021-06-26T11:34:35Z</time>
      </trkpt>
      <trkpt lat="46.11969" lon="6.54895">
        <ele>640.8</ele>
        <time>2021-06-26T11:34:36Z</time>
      </trkpt>
      <trkpt lat="46.11972" lon="6.54889">
        <ele>640.8</ele>
        <time>2021-06-26T11:34:37Z</time>
      </trkpt>
      <trkpt lat="46.11976" lon="6.54883">
        <ele>641</ele>
        <time>2021-06-26T11:34:38Z</time>
      </trkpt>
      <trkpt lat="46.11979" lon="6.54877">
        <ele>641.2</ele>
        <time>2021-06-26T11:34:39Z</time>
      </trkpt>
      <trkpt lat="46.11982" lon="6.54871">
        <ele>641.4</ele>
        <time>2021-06-26T11:34:40Z</time>
      </trkpt>
      <trkpt lat="46.11986" lon="6.54865">
        <ele>641.4</ele>
        <time>2021-06-26T11:34:41Z</time>
      </trkpt>
      <trkpt lat="46.11989" lon="6.54859">
        <ele>641.6</ele>
        <time>2021-06-26T11:34:42Z</time>
      </trkpt>
      <trkpt lat="46.11992" lon="6.54853">
        <ele>641.6</ele>
        <time>2021-06-26T11:34:43Z</time>
      </trkpt>
      <trkpt lat="46.11996" lon="6.54847">
        <ele>641.6</ele>
        <time>2021-06-26T11:34:44Z</time>
      </trkpt>
      <trkpt lat="46.11999" lon="6.54841">
        <ele>641.8</ele>
        <time>2021-06-26T11:34:45Z</time>
      </trkpt>
      <trkpt lat="46.12002" lon="6.54835">
        <ele>641.8</ele>
        <time>2021-06-26T11:34:46Z</time>
      </trkpt>
      <trkpt lat="46.12005" lon="6.54829">
        <ele>642</ele>
        <time>2021-06-26T11:34:47Z</time>
      </trkpt>
      <trkpt lat="46.12009" lon="6.54824">
        <ele>642</ele>
        <time>2021-06-26T11:34:48Z</time>
      </trkpt>
      <trkpt lat="46.12012" lon="6.54818">
        <ele>642.2</ele>
        <time>2021-06-26T11:34:49Z</time>
      </trkpt>
      <trkpt lat="46.12015" lon="6.54812">
        <ele>642.4</ele>
        <time>2021-06-26T11:34:50Z</time>
      </trkpt>
      <trkpt lat="46.12018" lon="6.54806">
        <ele>642.6</ele>
        <time>2021-06-26T11:34:51Z</time>
      </trkpt>
      <trkpt lat="46.1202" lon="6.54799">
        <ele>642.8</ele>
        <time>2021-06-26T11:34:52Z</time>
      </trkpt>
      <trkpt lat="46.12023" lon="6.54793">
        <ele>642.8</ele>
        <time>2021-06-26T11:34:53Z</time>
      </trkpt>
      <trkpt lat="46.12025" lon="6.54786">
        <ele>642.8</ele>
        <time>2021-06-26T11:34:54Z</time>
      </trkpt>
      <trkpt lat="46.12027" lon="6.54779">
        <ele>643</ele>
        <time>2021-06-26T11:34:55Z</time>
      </trkpt>
      <trkpt lat="46.12029" lon="6.54773">
        <ele>643</ele>
        <time>2021-06-26T11:34:56Z</time>
      </trkpt>
      <trkpt lat="46.12031" lon="6.54766">
        <ele>643.4</ele>
        <time>2021-06-26T11:34:57Z</time>
      </trkpt>
      <trkpt lat="46.12033" lon="6.54759">
        <ele>643.4</ele>
        <time>2021-06-26T11:34:58Z</time>
      </trkpt>
      <trkpt lat="46.12035" lon="6.54752">
        <ele>643.6</ele>
        <time>2021-06-26T11:34:59Z</time>
      </trkpt>
      <trkpt lat="46.12036" lon="6.54745">
        <ele>643.6</ele>
        <time>2021-06-26T11:35:00Z</time>
      </trkpt>
      <trkpt lat="46.12038" lon="6.54738">
        <ele>643.8</ele>
        <time>2021-06-26T11:35:01Z</time>
      </trkpt>
      <trkpt lat="46.1204" lon="6.54731">
        <ele>644</ele>
        <time>2021-06-26T11:35:02Z</time>
      </trkpt>
      <trkpt lat="46.1205" lon="6.54689">
        <ele>644.2</ele>
        <time>2021-06-26T11:35:08Z</time>
      </trkpt>
      <trkpt lat="46.12053" lon="6.54675">
        <ele>644.4</ele>
        <time>2021-06-26T11:35:10Z</time>
      </trkpt>
      <trkpt lat="46.12056" lon="6.54661">
        <ele>644.6</ele>
        <time>2021-06-26T11:35:12Z</time>
      </trkpt>
      <trkpt lat="46.12059" lon="6.54647">
        <ele>644.8</ele>
        <time>2021-06-26T11:35:14Z</time>
      </trkpt>
      <trkpt lat="46.12061" lon="6.5464">
        <ele>645</ele>
        <time>2021-06-26T11:35:15Z</time>
      </trkpt>
      <trkpt lat="46.12062" lon="6.54632">
        <ele>645.2</ele>
        <time>2021-06-26T11:35:16Z</time>
      </trkpt>
      <trkpt lat="46.12064" lon="6.54625">
        <ele>645.2</ele>
        <time>2021-06-26T11:35:17Z</time>
      </trkpt>
      <trkpt lat="46.12067" lon="6.54619">
        <ele>645.4</ele>
        <time>2021-06-26T11:35:18Z</time>
      </trkpt>
      <trkpt lat="46.12069" lon="6.54612">
        <ele>645.4</ele>
        <time>2021-06-26T11:35:19Z</time>
      </trkpt>
      <trkpt lat="46.12072" lon="6.54605">
        <ele>645.6</ele>
        <time>2021-06-26T11:35:20Z</time>
      </trkpt>
      <trkpt lat="46.12075" lon="6.54599">
        <ele>645.8</ele>
        <time>2021-06-26T11:35:21Z</time>
      </trkpt>
      <trkpt lat="46.12078" lon="6.54592">
        <ele>646</ele>
        <time>2021-06-26T11:35:22Z</time>
      </trkpt>
      <trkpt lat="46.1208" lon="6.54586">
        <ele>646.2</ele>
        <time>2021-06-26T11:35:23Z</time>
      </trkpt>
      <trkpt lat="46.12084" lon="6.54581">
        <ele>646.2</ele>
        <time>2021-06-26T11:35:24Z</time>
      </trkpt>
      <trkpt lat="46.1209" lon="6.54569">
        <ele>646.4</ele>
        <time>2021-06-26T11:35:26Z</time>
      </trkpt>
      <trkpt lat="46.12092" lon="6.54562">
        <ele>646.4</ele>
        <time>2021-06-26T11:35:27Z</time>
      </trkpt>
      <trkpt lat="46.12095" lon="6.54556">
        <ele>646.6</ele>
        <time>2021-06-26T11:35:28Z</time>
      </trkpt>
      <trkpt lat="46.12098" lon="6.5455">
        <ele>646.4</ele>
        <time>2021-06-26T11:35:29Z</time>
      </trkpt>
      <trkpt lat="46.12102" lon="6.54544">
        <ele>646.4</ele>
        <time>2021-06-26T11:35:30Z</time>
      </trkpt>
      <trkpt lat="46.12105" lon="6.54538">
        <ele>646.4</ele>
        <time>2021-06-26T11:35:31Z</time>
      </trkpt>
      <trkpt lat="46.12108" lon="6.54532">
        <ele>646.6</ele>
        <time>2021-06-26T11:35:32Z</time>
      </trkpt>
      <trkpt lat="46.12111" lon="6.54526">
        <ele>647</ele>
        <time>2021-06-26T11:35:33Z</time>
      </trkpt>
      <trkpt lat="46.12114" lon="6.5452">
        <ele>647.4</ele>
        <time>2021-06-26T11:35:34Z</time>
      </trkpt>
      <trkpt lat="46.12117" lon="6.54514">
        <ele>647.8</ele>
        <time>2021-06-26T11:35:35Z</time>
      </trkpt>
      <trkpt lat="46.1212" lon="6.54508">
        <ele>648.2</ele>
        <time>2021-06-26T11:35:36Z</time>
      </trkpt>
      <trkpt lat="46.12123" lon="6.54502">
        <ele>648.6</ele>
        <time>2021-06-26T11:35:37Z</time>
      </trkpt>
      <trkpt lat="46.12126" lon="6.54495">
        <ele>648.6</ele>
        <time>2021-06-26T11:35:38Z</time>
      </trkpt>
      <trkpt lat="46.12129" lon="6.54489">
        <ele>648.6</ele>
        <time>2021-06-26T11:35:39Z</time>
      </trkpt>
      <trkpt lat="46.12132" lon="6.54483">
        <ele>648.6</ele>
        <time>2021-06-26T11:35:40Z</time>
      </trkpt>
      <trkpt lat="46.12135" lon="6.54477">
        <ele>648.8</ele>
        <time>2021-06-26T11:35:41Z</time>
      </trkpt>
      <trkpt lat="46.12138" lon="6.54472">
        <ele>648.8</ele>
        <time>2021-06-26T11:35:42Z</time>
      </trkpt>
      <trkpt lat="46.12141" lon="6.54466">
        <ele>649</ele>
        <time>2021-06-26T11:35:43Z</time>
      </trkpt>
      <trkpt lat="46.12144" lon="6.5446">
        <ele>649</ele>
        <time>2021-06-26T11:35:44Z</time>
      </trkpt>
      <trkpt lat="46.12147" lon="6.54454">
        <ele>649</ele>
        <time>2021-06-26T11:35:45Z</time>
      </trkpt>
      <trkpt lat="46.1215" lon="6.54448">
        <ele>649</ele>
        <time>2021-06-26T11:35:46Z</time>
      </trkpt>
      <trkpt lat="46.12153" lon="6.54442">
        <ele>649</ele>
        <time>2021-06-26T11:35:47Z</time>
      </trkpt>
      <trkpt lat="46.12156" lon="6.54436">
        <ele>649.2</ele>
        <time>2021-06-26T11:35:48Z</time>
      </trkpt>
      <trkpt lat="46.12159" lon="6.5443">
        <ele>649.4</ele>
        <time>2021-06-26T11:35:49Z</time>
      </trkpt>
      <trkpt lat="46.12162" lon="6.54424">
        <ele>649.4</ele>
        <time>2021-06-26T11:35:50Z</time>
      </trkpt>
      <trkpt lat="46.12165" lon="6.54419">
        <ele>649.6</ele>
        <time>2021-06-26T11:35:51Z</time>
      </trkpt>
      <trkpt lat="46.12168" lon="6.54413">
        <ele>649.6</ele>
        <time>2021-06-26T11:35:52Z</time>
      </trkpt>
      <trkpt lat="46.12171" lon="6.54407">
        <ele>649.8</ele>
        <time>2021-06-26T11:35:53Z</time>
      </trkpt>
      <trkpt lat="46.12174" lon="6.54401">
        <ele>650</ele>
        <time>2021-06-26T11:35:54Z</time>
      </trkpt>
      <trkpt lat="46.12177" lon="6.54395">
        <ele>650.4</ele>
        <time>2021-06-26T11:35:55Z</time>
      </trkpt>
      <trkpt lat="46.1218" lon="6.54389">
        <ele>650.4</ele>
        <time>2021-06-26T11:35:56Z</time>
      </trkpt>
      <trkpt lat="46.12205" lon="6.5434">
        <ele>650.4</ele>
        <time>2021-06-26T11:36:04Z</time>
      </trkpt>
      <trkpt lat="46.1224" lon="6.54272">
        <ele>650.6</ele>
        <time>2021-06-26T11:36:15Z</time>
      </trkpt>
      <trkpt lat="46.12243" lon="6.54265">
        <ele>650.8</ele>
        <time>2021-06-26T11:36:16Z</time>
      </trkpt>
      <trkpt lat="46.12249" lon="6.54253">
        <ele>651</ele>
        <time>2021-06-26T11:36:18Z</time>
      </trkpt>
      <trkpt lat="46.12256" lon="6.5424">
        <ele>651</ele>
        <time>2021-06-26T11:36:20Z</time>
      </trkpt>
      <trkpt lat="46.12272" lon="6.54208">
        <ele>651.4</ele>
        <time>2021-06-26T11:36:25Z</time>
      </trkpt>
      <trkpt lat="46.12278" lon="6.54196">
        <ele>651.6</ele>
        <time>2021-06-26T11:36:27Z</time>
      </trkpt>
      <trkpt lat="46.12281" lon="6.54189">
        <ele>651.6</ele>
        <time>2021-06-26T11:36:28Z</time>
      </trkpt>
      <trkpt lat="46.12291" lon="6.54171">
        <ele>651.6</ele>
        <time>2021-06-26T11:36:31Z</time>
      </trkpt>
      <trkpt lat="46.12314" lon="6.54127">
        <ele>652.2</ele>
        <time>2021-06-26T11:36:38Z</time>
      </trkpt>
      <trkpt lat="46.12343" lon="6.54088">
        <ele>652.8</ele>
        <time>2021-06-26T11:36:45Z</time>
      </trkpt>
      <trkpt lat="46.12351" lon="6.54079">
        <ele>652.8</ele>
        <time>2021-06-26T11:36:47Z</time>
      </trkpt>
      <trkpt lat="46.12394" lon="6.54038">
        <ele>653.4</ele>
        <time>2021-06-26T11:36:56Z</time>
      </trkpt>
      <trkpt lat="46.12425" lon="6.54009">
        <ele>653.6</ele>
        <time>2021-06-26T11:37:02Z</time>
      </trkpt>
      <trkpt lat="46.12452" lon="6.53985">
        <ele>653.4</ele>
        <time>2021-06-26T11:37:07Z</time>
      </trkpt>
      <trkpt lat="46.12501" lon="6.53941">
        <ele>653</ele>
        <time>2021-06-26T11:37:16Z</time>
      </trkpt>
      <trkpt lat="46.12507" lon="6.53935">
        <ele>653</ele>
        <time>2021-06-26T11:37:17Z</time>
      </trkpt>
      <trkpt lat="46.12512" lon="6.5393">
        <ele>653</ele>
        <time>2021-06-26T11:37:18Z</time>
      </trkpt>
      <trkpt lat="46.12517" lon="6.53925">
        <ele>653</ele>
        <time>2021-06-26T11:37:19Z</time>
      </trkpt>
      <trkpt lat="46.12523" lon="6.5392">
        <ele>653</ele>
        <time>2021-06-26T11:37:20Z</time>
      </trkpt>
      <trkpt lat="46.12528" lon="6.53916">
        <ele>652.8</ele>
        <time>2021-06-26T11:37:21Z</time>
      </trkpt>
      <trkpt lat="46.12533" lon="6.53911">
        <ele>652.8</ele>
        <time>2021-06-26T11:37:22Z</time>
      </trkpt>
      <trkpt lat="46.12539" lon="6.53906">
        <ele>652.8</ele>
        <time>2021-06-26T11:37:23Z</time>
      </trkpt>
      <trkpt lat="46.12554" lon="6.53891">
        <ele>652.8</ele>
        <time>2021-06-26T11:37:26Z</time>
      </trkpt>
      <trkpt lat="46.12559" lon="6.53886">
        <ele>652.8</ele>
        <time>2021-06-26T11:37:27Z</time>
      </trkpt>
      <trkpt lat="46.12565" lon="6.53882">
        <ele>652.8</ele>
        <time>2021-06-26T11:37:28Z</time>
      </trkpt>
      <trkpt lat="46.12599" lon="6.53858">
        <ele>652.6</ele>
        <time>2021-06-26T11:37:34Z</time>
      </trkpt>
      <trkpt lat="46.1265" lon="6.53828">
        <ele>652.6</ele>
        <time>2021-06-26T11:37:42Z</time>
      </trkpt>
      <trkpt lat="46.12678" lon="6.53814">
        <ele>652.6</ele>
        <time>2021-06-26T11:37:46Z</time>
      </trkpt>
      <trkpt lat="46.12692" lon="6.53807">
        <ele>652.4</ele>
        <time>2021-06-26T11:37:48Z</time>
      </trkpt>
      <trkpt lat="46.12699" lon="6.53803">
        <ele>652.4</ele>
        <time>2021-06-26T11:37:49Z</time>
      </trkpt>
      <trkpt lat="46.12705" lon="6.53799">
        <ele>652.4</ele>
        <time>2021-06-26T11:37:50Z</time>
      </trkpt>
      <trkpt lat="46.12712" lon="6.53794">
        <ele>652.2</ele>
        <time>2021-06-26T11:37:51Z</time>
      </trkpt>
      <trkpt lat="46.12744" lon="6.53766">
        <ele>652.2</ele>
        <time>2021-06-26T11:37:56Z</time>
      </trkpt>
      <trkpt lat="46.12749" lon="6.53759">
        <ele>652.2</ele>
        <time>2021-06-26T11:37:57Z</time>
      </trkpt>
      <trkpt lat="46.12754" lon="6.53751">
        <ele>652</ele>
        <time>2021-06-26T11:37:58Z</time>
      </trkpt>
      <trkpt lat="46.12763" lon="6.53734">
        <ele>651.8</ele>
        <time>2021-06-26T11:38:00Z</time>
      </trkpt>
      <trkpt lat="46.12767" lon="6.53726">
        <ele>651.2</ele>
        <time>2021-06-26T11:38:01Z</time>
      </trkpt>
      <trkpt lat="46.128" lon="6.53653">
        <ele>649.8</ele>
        <time>2021-06-26T11:38:09Z</time>
      </trkpt>
      <trkpt lat="46.12808" lon="6.53635">
        <ele>649.6</ele>
        <time>2021-06-26T11:38:11Z</time>
      </trkpt>
      <trkpt lat="46.12811" lon="6.53626">
        <ele>649.6</ele>
        <time>2021-06-26T11:38:12Z</time>
      </trkpt>
      <trkpt lat="46.12816" lon="6.53617">
        <ele>649.6</ele>
        <time>2021-06-26T11:38:13Z</time>
      </trkpt>
      <trkpt lat="46.12844" lon="6.53555">
        <ele>649.4</ele>
        <time>2021-06-26T11:38:20Z</time>
      </trkpt>
      <trkpt lat="46.12857" lon="6.53529">
        <ele>649.4</ele>
        <time>2021-06-26T11:38:23Z</time>
      </trkpt>
      <trkpt lat="46.12861" lon="6.5352">
        <ele>649.4</ele>
        <time>2021-06-26T11:38:24Z</time>
      </trkpt>
      <trkpt lat="46.12866" lon="6.53512">
        <ele>649.4</ele>
        <time>2021-06-26T11:38:25Z</time>
      </trkpt>
      <trkpt lat="46.1287" lon="6.53504">
        <ele>649.4</ele>
        <time>2021-06-26T11:38:26Z</time>
      </trkpt>
      <trkpt lat="46.1288" lon="6.53488">
        <ele>649.4</ele>
        <time>2021-06-26T11:38:28Z</time>
      </trkpt>
      <trkpt lat="46.12915" lon="6.5343">
        <ele>649.4</ele>
        <time>2021-06-26T11:38:35Z</time>
      </trkpt>
      <trkpt lat="46.12919" lon="6.53421">
        <ele>649.4</ele>
        <time>2021-06-26T11:38:36Z</time>
      </trkpt>
      <trkpt lat="46.12923" lon="6.53412">
        <ele>649.4</ele>
        <time>2021-06-26T11:38:37Z</time>
      </trkpt>
      <trkpt lat="46.12926" lon="6.53403">
        <ele>649.4</ele>
        <time>2021-06-26T11:38:38Z</time>
      </trkpt>
      <trkpt lat="46.12932" lon="6.53383">
        <ele>649.4</ele>
        <time>2021-06-26T11:38:40Z</time>
      </trkpt>
      <trkpt lat="46.12934" lon="6.53373">
        <ele>649.4</ele>
        <time>2021-06-26T11:38:41Z</time>
      </trkpt>
      <trkpt lat="46.12943" lon="6.53332">
        <ele>649.2</ele>
        <time>2021-06-26T11:38:45Z</time>
      </trkpt>
      <trkpt lat="46.12946" lon="6.53321">
        <ele>649.2</ele>
        <time>2021-06-26T11:38:46Z</time>
      </trkpt>
      <trkpt lat="46.12948" lon="6.53311">
        <ele>649.2</ele>
        <time>2021-06-26T11:38:47Z</time>
      </trkpt>
      <trkpt lat="46.12953" lon="6.53291">
        <ele>649</ele>
        <time>2021-06-26T11:38:49Z</time>
      </trkpt>
      <trkpt lat="46.12972" lon="6.53246">
        <ele>648.8</ele>
        <time>2021-06-26T11:38:54Z</time>
      </trkpt>
      <trkpt lat="46.1298" lon="6.53229">
        <ele>649</ele>
        <time>2021-06-26T11:38:56Z</time>
      </trkpt>
      <trkpt lat="46.12985" lon="6.53221">
        <ele>649</ele>
        <time>2021-06-26T11:38:57Z</time>
      </trkpt>
      <trkpt lat="46.13002" lon="6.53188">
        <ele>649</ele>
        <time>2021-06-26T11:39:01Z</time>
      </trkpt>
      <trkpt lat="46.13006" lon="6.5318">
        <ele>649</ele>
        <time>2021-06-26T11:39:02Z</time>
      </trkpt>
      <trkpt lat="46.1301" lon="6.53172">
        <ele>649</ele>
        <time>2021-06-26T11:39:03Z</time>
      </trkpt>
      <trkpt lat="46.13032" lon="6.5313">
        <ele>649</ele>
        <time>2021-06-26T11:39:08Z</time>
      </trkpt>
      <trkpt lat="46.13036" lon="6.53122">
        <ele>649</ele>
        <time>2021-06-26T11:39:09Z</time>
      </trkpt>
      <trkpt lat="46.1306" lon="6.53078">
        <ele>648.8</ele>
        <time>2021-06-26T11:39:14Z</time>
      </trkpt>
      <trkpt lat="46.13075" lon="6.53051">
        <ele>648.6</ele>
        <time>2021-06-26T11:39:17Z</time>
      </trkpt>
      <trkpt lat="46.13104" lon="6.53009">
        <ele>647.8</ele>
        <time>2021-06-26T11:39:22Z</time>
      </trkpt>
      <trkpt lat="46.13122" lon="6.52985">
        <ele>647.2</ele>
        <time>2021-06-26T11:39:25Z</time>
      </trkpt>
      <trkpt lat="46.13134" lon="6.52969">
        <ele>647</ele>
        <time>2021-06-26T11:39:27Z</time>
      </trkpt>
      <trkpt lat="46.13177" lon="6.52912">
        <ele>645.6</ele>
        <time>2021-06-26T11:39:34Z</time>
      </trkpt>
      <trkpt lat="46.13183" lon="6.52904">
        <ele>645.6</ele>
        <time>2021-06-26T11:39:35Z</time>
      </trkpt>
      <trkpt lat="46.13189" lon="6.52897">
        <ele>645.4</ele>
        <time>2021-06-26T11:39:36Z</time>
      </trkpt>
      <trkpt lat="46.13194" lon="6.52889">
        <ele>645.2</ele>
        <time>2021-06-26T11:39:37Z</time>
      </trkpt>
      <trkpt lat="46.132" lon="6.52881">
        <ele>645</ele>
        <time>2021-06-26T11:39:38Z</time>
      </trkpt>
      <trkpt lat="46.13205" lon="6.52874">
        <ele>645</ele>
        <time>2021-06-26T11:39:39Z</time>
      </trkpt>
      <trkpt lat="46.13211" lon="6.52867">
        <ele>645</ele>
        <time>2021-06-26T11:39:40Z</time>
      </trkpt>
      <trkpt lat="46.13216" lon="6.5286">
        <ele>644.6</ele>
        <time>2021-06-26T11:39:41Z</time>
      </trkpt>
      <trkpt lat="46.13222" lon="6.52853">
        <ele>644.4</ele>
        <time>2021-06-26T11:39:42Z</time>
      </trkpt>
      <trkpt lat="46.13226" lon="6.52846">
        <ele>644.2</ele>
        <time>2021-06-26T11:39:43Z</time>
      </trkpt>
      <trkpt lat="46.13231" lon="6.52839">
        <ele>644.2</ele>
        <time>2021-06-26T11:39:44Z</time>
      </trkpt>
      <trkpt lat="46.13235" lon="6.52832">
        <ele>644.2</ele>
        <time>2021-06-26T11:39:45Z</time>
      </trkpt>
      <trkpt lat="46.13239" lon="6.52826">
        <ele>644.2</ele>
        <time>2021-06-26T11:39:46Z</time>
      </trkpt>
      <trkpt lat="46.13242" lon="6.52818">
        <ele>644.2</ele>
        <time>2021-06-26T11:39:47Z</time>
      </trkpt>
      <trkpt lat="46.13245" lon="6.52811">
        <ele>644.2</ele>
        <time>2021-06-26T11:39:48Z</time>
      </trkpt>
      <trkpt lat="46.13248" lon="6.52804">
        <ele>644.2</ele>
        <time>2021-06-26T11:39:49Z</time>
      </trkpt>
      <trkpt lat="46.13251" lon="6.52797">
        <ele>644.2</ele>
        <time>2021-06-26T11:39:50Z</time>
      </trkpt>
      <trkpt lat="46.13264" lon="6.52757">
        <ele>644</ele>
        <time>2021-06-26T11:39:55Z</time>
      </trkpt>
      <trkpt lat="46.13273" lon="6.52723">
        <ele>643.8</ele>
        <time>2021-06-26T11:39:59Z</time>
      </trkpt>
      <trkpt lat="46.13281" lon="6.52709">
        <ele>643.8</ele>
        <time>2021-06-26T11:40:01Z</time>
      </trkpt>
      <trkpt lat="46.13284" lon="6.52701">
        <ele>644</ele>
        <time>2021-06-26T11:40:02Z</time>
      </trkpt>
      <trkpt lat="46.13286" lon="6.52693">
        <ele>643.8</ele>
        <time>2021-06-26T11:40:03Z</time>
      </trkpt>
      <trkpt lat="46.13288" lon="6.52684">
        <ele>643.8</ele>
        <time>2021-06-26T11:40:04Z</time>
      </trkpt>
      <trkpt lat="46.13289" lon="6.52675">
        <ele>643.8</ele>
        <time>2021-06-26T11:40:05Z</time>
      </trkpt>
      <trkpt lat="46.1329" lon="6.52666">
        <ele>643.8</ele>
        <time>2021-06-26T11:40:06Z</time>
      </trkpt>
      <trkpt lat="46.13299" lon="6.52642">
        <ele>643.8</ele>
        <time>2021-06-26T11:40:09Z</time>
      </trkpt>
      <trkpt lat="46.13319" lon="6.52571">
        <ele>644.2</ele>
        <time>2021-06-26T11:40:17Z</time>
      </trkpt>
      <trkpt lat="46.13321" lon="6.52562">
        <ele>644.4</ele>
        <time>2021-06-26T11:40:18Z</time>
      </trkpt>
      <trkpt lat="46.13331" lon="6.52525">
        <ele>644.4</ele>
        <time>2021-06-26T11:40:22Z</time>
      </trkpt>
      <trkpt lat="46.13336" lon="6.52506">
        <ele>644.6</ele>
        <time>2021-06-26T11:40:24Z</time>
      </trkpt>
      <trkpt lat="46.13338" lon="6.52497">
        <ele>644.8</ele>
        <time>2021-06-26T11:40:25Z</time>
      </trkpt>
      <trkpt lat="46.13346" lon="6.5247">
        <ele>645</ele>
        <time>2021-06-26T11:40:28Z</time>
      </trkpt>
      <trkpt lat="46.13348" lon="6.52461">
        <ele>645</ele>
        <time>2021-06-26T11:40:29Z</time>
      </trkpt>
      <trkpt lat="46.1335" lon="6.52452">
        <ele>645</ele>
        <time>2021-06-26T11:40:30Z</time>
      </trkpt>
      <trkpt lat="46.13353" lon="6.52434">
        <ele>645.2</ele>
        <time>2021-06-26T11:40:32Z</time>
      </trkpt>
      <trkpt lat="46.13355" lon="6.52425">
        <ele>645.4</ele>
        <time>2021-06-26T11:40:33Z</time>
      </trkpt>
      <trkpt lat="46.13356" lon="6.52416">
        <ele>645.4</ele>
        <time>2021-06-26T11:40:34Z</time>
      </trkpt>
      <trkpt lat="46.13358" lon="6.52407">
        <ele>645.6</ele>
        <time>2021-06-26T11:40:35Z</time>
      </trkpt>
      <trkpt lat="46.13359" lon="6.52399">
        <ele>645.6</ele>
        <time>2021-06-26T11:40:36Z</time>
      </trkpt>
      <trkpt lat="46.13361" lon="6.5239">
        <ele>645.8</ele>
        <time>2021-06-26T11:40:37Z</time>
      </trkpt>
      <trkpt lat="46.13364" lon="6.52372">
        <ele>646</ele>
        <time>2021-06-26T11:40:39Z</time>
      </trkpt>
      <trkpt lat="46.13367" lon="6.52355">
        <ele>646.2</ele>
        <time>2021-06-26T11:40:41Z</time>
      </trkpt>
      <trkpt lat="46.13372" lon="6.52323">
        <ele>646.6</ele>
        <time>2021-06-26T11:40:45Z</time>
      </trkpt>
      <trkpt lat="46.13372" lon="6.52315">
        <ele>646.6</ele>
        <time>2021-06-26T11:40:46Z</time>
      </trkpt>
      <trkpt lat="46.13373" lon="6.52308">
        <ele>646.6</ele>
        <time>2021-06-26T11:40:47Z</time>
      </trkpt>
      <trkpt lat="46.13374" lon="6.523">
        <ele>646.6</ele>
        <time>2021-06-26T11:40:48Z</time>
      </trkpt>
      <trkpt lat="46.13378" lon="6.52274">
        <ele>646.6</ele>
        <time>2021-06-26T11:40:51Z</time>
      </trkpt>
      <trkpt lat="46.13379" lon="6.52265">
        <ele>646.4</ele>
        <time>2021-06-26T11:40:52Z</time>
      </trkpt>
      <trkpt lat="46.13383" lon="6.52234">
        <ele>646.6</ele>
        <time>2021-06-26T11:40:55Z</time>
      </trkpt>
      <trkpt lat="46.13386" lon="6.52213">
        <ele>646.6</ele>
        <time>2021-06-26T11:40:57Z</time>
      </trkpt>
      <trkpt lat="46.13389" lon="6.52191">
        <ele>646.2</ele>
        <time>2021-06-26T11:40:59Z</time>
      </trkpt>
      <trkpt lat="46.13396" lon="6.52147">
        <ele>644.8</ele>
        <time>2021-06-26T11:41:03Z</time>
      </trkpt>
      <trkpt lat="46.13402" lon="6.52113">
        <ele>643</ele>
        <time>2021-06-26T11:41:06Z</time>
      </trkpt>
      <trkpt lat="46.13404" lon="6.52101">
        <ele>642.6</ele>
        <time>2021-06-26T11:41:07Z</time>
      </trkpt>
      <trkpt lat="46.13409" lon="6.52078">
        <ele>642.4</ele>
        <time>2021-06-26T11:41:09Z</time>
      </trkpt>
      <trkpt lat="46.13419" lon="6.5204">
        <ele>641.4</ele>
        <time>2021-06-26T11:41:12Z</time>
      </trkpt>
      <trkpt lat="46.13426" lon="6.52015">
        <ele>640.8</ele>
        <time>2021-06-26T11:41:14Z</time>
      </trkpt>
      <trkpt lat="46.1343" lon="6.52002">
        <ele>640.4</ele>
        <time>2021-06-26T11:41:15Z</time>
      </trkpt>
      <trkpt lat="46.13432" lon="6.51974">
        <ele>640</ele>
        <time>2021-06-26T11:41:17Z</time>
      </trkpt>
      <trkpt lat="46.1343" lon="6.51961">
        <ele>639.6</ele>
        <time>2021-06-26T11:41:18Z</time>
      </trkpt>
      <trkpt lat="46.13427" lon="6.51948">
        <ele>639</ele>
        <time>2021-06-26T11:41:19Z</time>
      </trkpt>
      <trkpt lat="46.13421" lon="6.51937">
        <ele>638.6</ele>
        <time>2021-06-26T11:41:20Z</time>
      </trkpt>
      <trkpt lat="46.13414" lon="6.51928">
        <ele>638</ele>
        <time>2021-06-26T11:41:21Z</time>
      </trkpt>
      <trkpt lat="46.13406" lon="6.51922">
        <ele>637.6</ele>
        <time>2021-06-26T11:41:22Z</time>
      </trkpt>
      <trkpt lat="46.13398" lon="6.51917">
        <ele>637</ele>
        <time>2021-06-26T11:41:23Z</time>
      </trkpt>
      <trkpt lat="46.13389" lon="6.51913">
        <ele>636.4</ele>
        <time>2021-06-26T11:41:24Z</time>
      </trkpt>
      <trkpt lat="46.1338" lon="6.51909">
        <ele>636.4</ele>
        <time>2021-06-26T11:41:25Z</time>
      </trkpt>
      <trkpt lat="46.13372" lon="6.51906">
        <ele>636.2</ele>
        <time>2021-06-26T11:41:26Z</time>
      </trkpt>
      <trkpt lat="46.13363" lon="6.51902">
        <ele>636</ele>
        <time>2021-06-26T11:41:27Z</time>
      </trkpt>
      <trkpt lat="46.13355" lon="6.51899">
        <ele>636</ele>
        <time>2021-06-26T11:41:28Z</time>
      </trkpt>
      <trkpt lat="46.13329" lon="6.51888">
        <ele>635.6</ele>
        <time>2021-06-26T11:41:31Z</time>
      </trkpt>
      <trkpt lat="46.13304" lon="6.51877">
        <ele>634.8</ele>
        <time>2021-06-26T11:41:34Z</time>
      </trkpt>
      <trkpt lat="46.13296" lon="6.51873">
        <ele>634.8</ele>
        <time>2021-06-26T11:41:35Z</time>
      </trkpt>
      <trkpt lat="46.13289" lon="6.51869">
        <ele>634.4</ele>
        <time>2021-06-26T11:41:36Z</time>
      </trkpt>
      <trkpt lat="46.1328" lon="6.51865">
        <ele>634.4</ele>
        <time>2021-06-26T11:41:37Z</time>
      </trkpt>
      <trkpt lat="46.13247" lon="6.5185">
        <ele>633.8</ele>
        <time>2021-06-26T11:41:41Z</time>
      </trkpt>
      <trkpt lat="46.13223" lon="6.51838">
        <ele>633.4</ele>
        <time>2021-06-26T11:41:44Z</time>
      </trkpt>
      <trkpt lat="46.13215" lon="6.51835">
        <ele>633.2</ele>
        <time>2021-06-26T11:41:45Z</time>
      </trkpt>
      <trkpt lat="46.13207" lon="6.51831">
        <ele>633</ele>
        <time>2021-06-26T11:41:46Z</time>
      </trkpt>
      <trkpt lat="46.13199" lon="6.51829">
        <ele>633.2</ele>
        <time>2021-06-26T11:41:47Z</time>
      </trkpt>
      <trkpt lat="46.13191" lon="6.51827">
        <ele>633</ele>
        <time>2021-06-26T11:41:48Z</time>
      </trkpt>
      <trkpt lat="46.13183" lon="6.51825">
        <ele>632.8</ele>
        <time>2021-06-26T11:41:49Z</time>
      </trkpt>
      <trkpt lat="46.13175" lon="6.51824">
        <ele>633</ele>
        <time>2021-06-26T11:41:50Z</time>
      </trkpt>
      <trkpt lat="46.13167" lon="6.51824">
        <ele>632.8</ele>
        <time>2021-06-26T11:41:51Z</time>
      </trkpt>
      <trkpt lat="46.1316" lon="6.51824">
        <ele>632.8</ele>
        <time>2021-06-26T11:41:52Z</time>
      </trkpt>
      <trkpt lat="46.13152" lon="6.51823">
        <ele>633</ele>
        <time>2021-06-26T11:41:53Z</time>
      </trkpt>
      <trkpt lat="46.13144" lon="6.51823">
        <ele>632.8</ele>
        <time>2021-06-26T11:41:54Z</time>
      </trkpt>
      <trkpt lat="46.13137" lon="6.51822">
        <ele>632.6</ele>
        <time>2021-06-26T11:41:55Z</time>
      </trkpt>
      <trkpt lat="46.1313" lon="6.51819">
        <ele>632.4</ele>
        <time>2021-06-26T11:41:56Z</time>
      </trkpt>
      <trkpt lat="46.13123" lon="6.51815">
        <ele>632.4</ele>
        <time>2021-06-26T11:41:57Z</time>
      </trkpt>
      <trkpt lat="46.13117" lon="6.51811">
        <ele>632.2</ele>
        <time>2021-06-26T11:41:58Z</time>
      </trkpt>
      <trkpt lat="46.1311" lon="6.51807">
        <ele>632.2</ele>
        <time>2021-06-26T11:41:59Z</time>
      </trkpt>
      <trkpt lat="46.13104" lon="6.51803">
        <ele>632.2</ele>
        <time>2021-06-26T11:42:00Z</time>
      </trkpt>
      <trkpt lat="46.13098" lon="6.51799">
        <ele>632.2</ele>
        <time>2021-06-26T11:42:01Z</time>
      </trkpt>
      <trkpt lat="46.13092" lon="6.51794">
        <ele>632.2</ele>
        <time>2021-06-26T11:42:02Z</time>
      </trkpt>
      <trkpt lat="46.13086" lon="6.51789">
        <ele>632.2</ele>
        <time>2021-06-26T11:42:03Z</time>
      </trkpt>
      <trkpt lat="46.13071" lon="6.5177">
        <ele>632</ele>
        <time>2021-06-26T11:42:06Z</time>
      </trkpt>
      <trkpt lat="46.13057" lon="6.51749">
        <ele>632.2</ele>
        <time>2021-06-26T11:42:09Z</time>
      </trkpt>
      <trkpt lat="46.13053" lon="6.51741">
        <ele>632.2</ele>
        <time>2021-06-26T11:42:10Z</time>
      </trkpt>
      <trkpt lat="46.1305" lon="6.51732">
        <ele>632.2</ele>
        <time>2021-06-26T11:42:11Z</time>
      </trkpt>
      <trkpt lat="46.13031" lon="6.51678">
        <ele>632.4</ele>
        <time>2021-06-26T11:42:17Z</time>
      </trkpt>
      <trkpt lat="46.13026" lon="6.51659">
        <ele>632.6</ele>
        <time>2021-06-26T11:42:19Z</time>
      </trkpt>
      <trkpt lat="46.13022" lon="6.5164">
        <ele>632.6</ele>
        <time>2021-06-26T11:42:21Z</time>
      </trkpt>
      <trkpt lat="46.13013" lon="6.51601">
        <ele>632.8</ele>
        <time>2021-06-26T11:42:25Z</time>
      </trkpt>
      <trkpt lat="46.13011" lon="6.51581">
        <ele>633</ele>
        <time>2021-06-26T11:42:27Z</time>
      </trkpt>
      <trkpt lat="46.13008" lon="6.5155">
        <ele>633</ele>
        <time>2021-06-26T11:42:30Z</time>
      </trkpt>
      <trkpt lat="46.13007" lon="6.5154">
        <ele>632.8</ele>
        <time>2021-06-26T11:42:31Z</time>
      </trkpt>
      <trkpt lat="46.13007" lon="6.5153">
        <ele>632.8</ele>
        <time>2021-06-26T11:42:32Z</time>
      </trkpt>
      <trkpt lat="46.13007" lon="6.5152">
        <ele>632.8</ele>
        <time>2021-06-26T11:42:33Z</time>
      </trkpt>
      <trkpt lat="46.13007" lon="6.51511">
        <ele>632.6</ele>
        <time>2021-06-26T11:42:34Z</time>
      </trkpt>
      <trkpt lat="46.13006" lon="6.51501">
        <ele>632.8</ele>
        <time>2021-06-26T11:42:35Z</time>
      </trkpt>
      <trkpt lat="46.13006" lon="6.51462">
        <ele>632.6</ele>
        <time>2021-06-26T11:42:39Z</time>
      </trkpt>
      <trkpt lat="46.13002" lon="6.51384">
        <ele>633</ele>
        <time>2021-06-26T11:42:47Z</time>
      </trkpt>
      <trkpt lat="46.13001" lon="6.51374">
        <ele>633</ele>
        <time>2021-06-26T11:42:48Z</time>
      </trkpt>
      <trkpt lat="46.12999" lon="6.51354">
        <ele>633</ele>
        <time>2021-06-26T11:42:50Z</time>
      </trkpt>
      <trkpt lat="46.12998" lon="6.51345">
        <ele>633</ele>
        <time>2021-06-26T11:42:51Z</time>
      </trkpt>
      <trkpt lat="46.12997" lon="6.51335">
        <ele>633</ele>
        <time>2021-06-26T11:42:52Z</time>
      </trkpt>
      <trkpt lat="46.12995" lon="6.51315">
        <ele>633</ele>
        <time>2021-06-26T11:42:54Z</time>
      </trkpt>
      <trkpt lat="46.12994" lon="6.51305">
        <ele>633</ele>
        <time>2021-06-26T11:42:55Z</time>
      </trkpt>
      <trkpt lat="46.12993" lon="6.51295">
        <ele>633</ele>
        <time>2021-06-26T11:42:56Z</time>
      </trkpt>
      <trkpt lat="46.12992" lon="6.51285">
        <ele>633</ele>
        <time>2021-06-26T11:42:57Z</time>
      </trkpt>
      <trkpt lat="46.12987" lon="6.51245">
        <ele>632.8</ele>
        <time>2021-06-26T11:43:01Z</time>
      </trkpt>
      <trkpt lat="46.12987" lon="6.51235">
        <ele>632.8</ele>
        <time>2021-06-26T11:43:02Z</time>
      </trkpt>
      <trkpt lat="46.12985" lon="6.51206">
        <ele>632.6</ele>
        <time>2021-06-26T11:43:05Z</time>
      </trkpt>
      <trkpt lat="46.12979" lon="6.51154">
        <ele>632.4</ele>
        <time>2021-06-26T11:43:10Z</time>
      </trkpt>
      <trkpt lat="46.12978" lon="6.51143">
        <ele>632.4</ele>
        <time>2021-06-26T11:43:11Z</time>
      </trkpt>
      <trkpt lat="46.12976" lon="6.51122">
        <ele>632.6</ele>
        <time>2021-06-26T11:43:13Z</time>
      </trkpt>
      <trkpt lat="46.12975" lon="6.51112">
        <ele>632.6</ele>
        <time>2021-06-26T11:43:14Z</time>
      </trkpt>
      <trkpt lat="46.12975" lon="6.51091">
        <ele>632.8</ele>
        <time>2021-06-26T11:43:16Z</time>
      </trkpt>
      <trkpt lat="46.12976" lon="6.51081">
        <ele>632.8</ele>
        <time>2021-06-26T11:43:17Z</time>
      </trkpt>
      <trkpt lat="46.12977" lon="6.5107">
        <ele>632.6</ele>
        <time>2021-06-26T11:43:18Z</time>
      </trkpt>
      <trkpt lat="46.12985" lon="6.51031">
        <ele>632.4</ele>
        <time>2021-06-26T11:43:22Z</time>
      </trkpt>
      <trkpt lat="46.12987" lon="6.51021">
        <ele>632.4</ele>
        <time>2021-06-26T11:43:23Z</time>
      </trkpt>
      <trkpt lat="46.12989" lon="6.51012">
        <ele>632.4</ele>
        <time>2021-06-26T11:43:24Z</time>
      </trkpt>
      <trkpt lat="46.12991" lon="6.51002">
        <ele>632.4</ele>
        <time>2021-06-26T11:43:25Z</time>
      </trkpt>
      <trkpt lat="46.12994" lon="6.50972">
        <ele>632.4</ele>
        <time>2021-06-26T11:43:28Z</time>
      </trkpt>
      <trkpt lat="46.12994" lon="6.50961">
        <ele>632.2</ele>
        <time>2021-06-26T11:43:29Z</time>
      </trkpt>
      <trkpt lat="46.12991" lon="6.50919">
        <ele>632.2</ele>
        <time>2021-06-26T11:43:33Z</time>
      </trkpt>
      <trkpt lat="46.12988" lon="6.50888">
        <ele>631.8</ele>
        <time>2021-06-26T11:43:36Z</time>
      </trkpt>
      <trkpt lat="46.12988" lon="6.50878">
        <ele>631.6</ele>
        <time>2021-06-26T11:43:37Z</time>
      </trkpt>
      <trkpt lat="46.12988" lon="6.50868">
        <ele>631.4</ele>
        <time>2021-06-26T11:43:38Z</time>
      </trkpt>
      <trkpt lat="46.12987" lon="6.50858">
        <ele>631.2</ele>
        <time>2021-06-26T11:43:39Z</time>
      </trkpt>
      <trkpt lat="46.12987" lon="6.50848">
        <ele>630.8</ele>
        <time>2021-06-26T11:43:40Z</time>
      </trkpt>
      <trkpt lat="46.12987" lon="6.50829">
        <ele>630.4</ele>
        <time>2021-06-26T11:43:42Z</time>
      </trkpt>
      <trkpt lat="46.12986" lon="6.50819">
        <ele>630.4</ele>
        <time>2021-06-26T11:43:43Z</time>
      </trkpt>
      <trkpt lat="46.12983" lon="6.50787">
        <ele>630</ele>
        <time>2021-06-26T11:43:47Z</time>
      </trkpt>
      <trkpt lat="46.12976" lon="6.50756">
        <ele>629.8</ele>
        <time>2021-06-26T11:43:50Z</time>
      </trkpt>
      <trkpt lat="46.12969" lon="6.50736">
        <ele>629.6</ele>
        <time>2021-06-26T11:43:52Z</time>
      </trkpt>
      <trkpt lat="46.12945" lon="6.50688">
        <ele>629.2</ele>
        <time>2021-06-26T11:43:57Z</time>
      </trkpt>
      <trkpt lat="46.12914" lon="6.5063">
        <ele>628.8</ele>
        <time>2021-06-26T11:44:03Z</time>
      </trkpt>
      <trkpt lat="46.12903" lon="6.50611">
        <ele>628.6</ele>
        <time>2021-06-26T11:44:05Z</time>
      </trkpt>
      <trkpt lat="46.12898" lon="6.50602">
        <ele>628.8</ele>
        <time>2021-06-26T11:44:06Z</time>
      </trkpt>
      <trkpt lat="46.12883" lon="6.50575">
        <ele>628.6</ele>
        <time>2021-06-26T11:44:09Z</time>
      </trkpt>
      <trkpt lat="46.12878" lon="6.50566">
        <ele>628.4</ele>
        <time>2021-06-26T11:44:10Z</time>
      </trkpt>
      <trkpt lat="46.12873" lon="6.50557">
        <ele>628</ele>
        <time>2021-06-26T11:44:11Z</time>
      </trkpt>
      <trkpt lat="46.12868" lon="6.50549">
        <ele>628</ele>
        <time>2021-06-26T11:44:12Z</time>
      </trkpt>
      <trkpt lat="46.12863" lon="6.5054">
        <ele>628</ele>
        <time>2021-06-26T11:44:13Z</time>
      </trkpt>
      <trkpt lat="46.12849" lon="6.50514">
        <ele>627.6</ele>
        <time>2021-06-26T11:44:16Z</time>
      </trkpt>
      <trkpt lat="46.12843" lon="6.50506">
        <ele>627.6</ele>
        <time>2021-06-26T11:44:17Z</time>
      </trkpt>
      <trkpt lat="46.12832" lon="6.5049">
        <ele>627.6</ele>
        <time>2021-06-26T11:44:19Z</time>
      </trkpt>
      <trkpt lat="46.12801" lon="6.50453">
        <ele>627.4</ele>
        <time>2021-06-26T11:44:24Z</time>
      </trkpt>
      <trkpt lat="46.1279" lon="6.50437">
        <ele>627.4</ele>
        <time>2021-06-26T11:44:26Z</time>
      </trkpt>
      <trkpt lat="46.12785" lon="6.50428">
        <ele>627.2</ele>
        <time>2021-06-26T11:44:27Z</time>
      </trkpt>
      <trkpt lat="46.1278" lon="6.50418">
        <ele>627</ele>
        <time>2021-06-26T11:44:28Z</time>
      </trkpt>
      <trkpt lat="46.12774" lon="6.50396">
        <ele>626.8</ele>
        <time>2021-06-26T11:44:30Z</time>
      </trkpt>
      <trkpt lat="46.12765" lon="6.50337">
        <ele>625.8</ele>
        <time>2021-06-26T11:44:35Z</time>
      </trkpt>
      <trkpt lat="46.12762" lon="6.50326">
        <ele>625.6</ele>
        <time>2021-06-26T11:44:36Z</time>
      </trkpt>
      <trkpt lat="46.12759" lon="6.50314">
        <ele>625.2</ele>
        <time>2021-06-26T11:44:37Z</time>
      </trkpt>
      <trkpt lat="46.12752" lon="6.50292">
        <ele>625</ele>
        <time>2021-06-26T11:44:39Z</time>
      </trkpt>
      <trkpt lat="46.12731" lon="6.50236">
        <ele>624</ele>
        <time>2021-06-26T11:44:44Z</time>
      </trkpt>
      <trkpt lat="46.12721" lon="6.50186">
        <ele>623.6</ele>
        <time>2021-06-26T11:44:48Z</time>
      </trkpt>
      <trkpt lat="46.12716" lon="6.5016">
        <ele>623.4</ele>
        <time>2021-06-26T11:44:50Z</time>
      </trkpt>
      <trkpt lat="46.12709" lon="6.50134">
        <ele>622.8</ele>
        <time>2021-06-26T11:44:52Z</time>
      </trkpt>
      <trkpt lat="46.12698" lon="6.50109">
        <ele>622.4</ele>
        <time>2021-06-26T11:44:54Z</time>
      </trkpt>
      <trkpt lat="46.12679" lon="6.50075">
        <ele>621.8</ele>
        <time>2021-06-26T11:44:57Z</time>
      </trkpt>
      <trkpt lat="46.12665" lon="6.50052">
        <ele>621.2</ele>
        <time>2021-06-26T11:44:59Z</time>
      </trkpt>
      <trkpt lat="46.12658" lon="6.50042">
        <ele>620.8</ele>
        <time>2021-06-26T11:45:00Z</time>
      </trkpt>
      <trkpt lat="46.12651" lon="6.50032">
        <ele>620.8</ele>
        <time>2021-06-26T11:45:01Z</time>
      </trkpt>
      <trkpt lat="46.12636" lon="6.50012">
        <ele>619.8</ele>
        <time>2021-06-26T11:45:03Z</time>
      </trkpt>
      <trkpt lat="46.12629" lon="6.50002">
        <ele>619.4</ele>
        <time>2021-06-26T11:45:04Z</time>
      </trkpt>
      <trkpt lat="46.12623" lon="6.49992">
        <ele>619</ele>
        <time>2021-06-26T11:45:05Z</time>
      </trkpt>
      <trkpt lat="46.12617" lon="6.4998">
        <ele>618.6</ele>
        <time>2021-06-26T11:45:06Z</time>
      </trkpt>
      <trkpt lat="46.12613" lon="6.49969">
        <ele>618.2</ele>
        <time>2021-06-26T11:45:07Z</time>
      </trkpt>
      <trkpt lat="46.12609" lon="6.49956">
        <ele>617.6</ele>
        <time>2021-06-26T11:45:08Z</time>
      </trkpt>
      <trkpt lat="46.12607" lon="6.49944">
        <ele>617.2</ele>
        <time>2021-06-26T11:45:09Z</time>
      </trkpt>
      <trkpt lat="46.12604" lon="6.49917">
        <ele>615.6</ele>
        <time>2021-06-26T11:45:11Z</time>
      </trkpt>
      <trkpt lat="46.12604" lon="6.49904">
        <ele>615.2</ele>
        <time>2021-06-26T11:45:12Z</time>
      </trkpt>
      <trkpt lat="46.12603" lon="6.49864">
        <ele>614.4</ele>
        <time>2021-06-26T11:45:15Z</time>
      </trkpt>
      <trkpt lat="46.12603" lon="6.49836">
        <ele>614</ele>
        <time>2021-06-26T11:45:17Z</time>
      </trkpt>
      <trkpt lat="46.12602" lon="6.49822">
        <ele>613.4</ele>
        <time>2021-06-26T11:45:18Z</time>
      </trkpt>
      <trkpt lat="46.12602" lon="6.49808">
        <ele>612.8</ele>
        <time>2021-06-26T11:45:19Z</time>
      </trkpt>
      <trkpt lat="46.12602" lon="6.49778">
        <ele>612.2</ele>
        <time>2021-06-26T11:45:21Z</time>
      </trkpt>
      <trkpt lat="46.12605" lon="6.49734">
        <ele>611.4</ele>
        <time>2021-06-26T11:45:24Z</time>
      </trkpt>
      <trkpt lat="46.12607" lon="6.4972">
        <ele>611</ele>
        <time>2021-06-26T11:45:25Z</time>
      </trkpt>
      <trkpt lat="46.1261" lon="6.49706">
        <ele>610.4</ele>
        <time>2021-06-26T11:45:26Z</time>
      </trkpt>
      <trkpt lat="46.1262" lon="6.49664">
        <ele>608.6</ele>
        <time>2021-06-26T11:45:29Z</time>
      </trkpt>
      <trkpt lat="46.12631" lon="6.49622">
        <ele>606.4</ele>
        <time>2021-06-26T11:45:32Z</time>
      </trkpt>
      <trkpt lat="46.12644" lon="6.49582">
        <ele>604.8</ele>
        <time>2021-06-26T11:45:35Z</time>
      </trkpt>
      <trkpt lat="46.1265" lon="6.4957">
        <ele>604.6</ele>
        <time>2021-06-26T11:45:36Z</time>
      </trkpt>
      <trkpt lat="46.12655" lon="6.49558">
        <ele>604</ele>
        <time>2021-06-26T11:45:37Z</time>
      </trkpt>
      <trkpt lat="46.12661" lon="6.49546">
        <ele>603.2</ele>
        <time>2021-06-26T11:45:38Z</time>
      </trkpt>
      <trkpt lat="46.12666" lon="6.49534">
        <ele>602.8</ele>
        <time>2021-06-26T11:45:39Z</time>
      </trkpt>
      <trkpt lat="46.12672" lon="6.49523">
        <ele>602.2</ele>
        <time>2021-06-26T11:45:40Z</time>
      </trkpt>
      <trkpt lat="46.12677" lon="6.49511">
        <ele>602</ele>
        <time>2021-06-26T11:45:41Z</time>
      </trkpt>
      <trkpt lat="46.12683" lon="6.495">
        <ele>601.6</ele>
        <time>2021-06-26T11:45:42Z</time>
      </trkpt>
      <trkpt lat="46.12688" lon="6.49489">
        <ele>601.2</ele>
        <time>2021-06-26T11:45:43Z</time>
      </trkpt>
      <trkpt lat="46.12694" lon="6.49478">
        <ele>601</ele>
        <time>2021-06-26T11:45:44Z</time>
      </trkpt>
      <trkpt lat="46.127" lon="6.49468">
        <ele>600.6</ele>
        <time>2021-06-26T11:45:45Z</time>
      </trkpt>
      <trkpt lat="46.12713" lon="6.49448">
        <ele>600.4</ele>
        <time>2021-06-26T11:45:47Z</time>
      </trkpt>
      <trkpt lat="46.12719" lon="6.49438">
        <ele>600.2</ele>
        <time>2021-06-26T11:45:48Z</time>
      </trkpt>
      <trkpt lat="46.12738" lon="6.49408">
        <ele>599.8</ele>
        <time>2021-06-26T11:45:51Z</time>
      </trkpt>
      <trkpt lat="46.12765" lon="6.49368">
        <ele>599.2</ele>
        <time>2021-06-26T11:45:55Z</time>
      </trkpt>
      <trkpt lat="46.12771" lon="6.49357">
        <ele>598.6</ele>
        <time>2021-06-26T11:45:56Z</time>
      </trkpt>
      <trkpt lat="46.12785" lon="6.49337">
        <ele>598.2</ele>
        <time>2021-06-26T11:45:58Z</time>
      </trkpt>
      <trkpt lat="46.12811" lon="6.49296">
        <ele>597.2</ele>
        <time>2021-06-26T11:46:02Z</time>
      </trkpt>
      <trkpt lat="46.12824" lon="6.49274">
        <ele>596.4</ele>
        <time>2021-06-26T11:46:04Z</time>
      </trkpt>
      <trkpt lat="46.12829" lon="6.49263">
        <ele>596</ele>
        <time>2021-06-26T11:46:05Z</time>
      </trkpt>
      <trkpt lat="46.12852" lon="6.49214">
        <ele>595</ele>
        <time>2021-06-26T11:46:09Z</time>
      </trkpt>
      <trkpt lat="46.12857" lon="6.49202">
        <ele>594.8</ele>
        <time>2021-06-26T11:46:10Z</time>
      </trkpt>
      <trkpt lat="46.12863" lon="6.4919">
        <ele>594.6</ele>
        <time>2021-06-26T11:46:11Z</time>
      </trkpt>
      <trkpt lat="46.12879" lon="6.49153">
        <ele>592.8</ele>
        <time>2021-06-26T11:46:14Z</time>
      </trkpt>
      <trkpt lat="46.12896" lon="6.49116">
        <ele>591</ele>
        <time>2021-06-26T11:46:17Z</time>
      </trkpt>
      <trkpt lat="46.12901" lon="6.49103">
        <ele>590.2</ele>
        <time>2021-06-26T11:46:18Z</time>
      </trkpt>
      <trkpt lat="46.12918" lon="6.49067">
        <ele>588.2</ele>
        <time>2021-06-26T11:46:21Z</time>
      </trkpt>
      <trkpt lat="46.12924" lon="6.49055">
        <ele>587.8</ele>
        <time>2021-06-26T11:46:22Z</time>
      </trkpt>
      <trkpt lat="46.12944" lon="6.49023">
        <ele>586.8</ele>
        <time>2021-06-26T11:46:25Z</time>
      </trkpt>
      <trkpt lat="46.12958" lon="6.49002">
        <ele>585.2</ele>
        <time>2021-06-26T11:46:27Z</time>
      </trkpt>
      <trkpt lat="46.12964" lon="6.48992">
        <ele>584.4</ele>
        <time>2021-06-26T11:46:28Z</time>
      </trkpt>
      <trkpt lat="46.1297" lon="6.4898">
        <ele>584</ele>
        <time>2021-06-26T11:46:29Z</time>
      </trkpt>
      <trkpt lat="46.12974" lon="6.48968">
        <ele>584</ele>
        <time>2021-06-26T11:46:30Z</time>
      </trkpt>
      <trkpt lat="46.12982" lon="6.48941">
        <ele>583.2</ele>
        <time>2021-06-26T11:46:32Z</time>
      </trkpt>
      <trkpt lat="46.12989" lon="6.48913">
        <ele>582.6</ele>
        <time>2021-06-26T11:46:34Z</time>
      </trkpt>
      <trkpt lat="46.12999" lon="6.4887">
        <ele>581.2</ele>
        <time>2021-06-26T11:46:37Z</time>
      </trkpt>
      <trkpt lat="46.13011" lon="6.48829">
        <ele>580.2</ele>
        <time>2021-06-26T11:46:40Z</time>
      </trkpt>
      <trkpt lat="46.13018" lon="6.488">
        <ele>578.6</ele>
        <time>2021-06-26T11:46:42Z</time>
      </trkpt>
      <trkpt lat="46.13024" lon="6.48772">
        <ele>577.6</ele>
        <time>2021-06-26T11:46:44Z</time>
      </trkpt>
      <trkpt lat="46.13029" lon="6.48742">
        <ele>576.8</ele>
        <time>2021-06-26T11:46:46Z</time>
      </trkpt>
      <trkpt lat="46.13032" lon="6.48727">
        <ele>576.4</ele>
        <time>2021-06-26T11:46:47Z</time>
      </trkpt>
      <trkpt lat="46.13034" lon="6.48713">
        <ele>575.8</ele>
        <time>2021-06-26T11:46:48Z</time>
      </trkpt>
      <trkpt lat="46.13037" lon="6.48698">
        <ele>575.2</ele>
        <time>2021-06-26T11:46:49Z</time>
      </trkpt>
      <trkpt lat="46.13046" lon="6.48655">
        <ele>573.2</ele>
        <time>2021-06-26T11:46:52Z</time>
      </trkpt>
      <trkpt lat="46.1305" lon="6.48642">
        <ele>573.2</ele>
        <time>2021-06-26T11:46:53Z</time>
      </trkpt>
      <trkpt lat="46.13054" lon="6.48629">
        <ele>572.8</ele>
        <time>2021-06-26T11:46:54Z</time>
      </trkpt>
      <trkpt lat="46.13059" lon="6.48616">
        <ele>572.6</ele>
        <time>2021-06-26T11:46:55Z</time>
      </trkpt>
      <trkpt lat="46.13064" lon="6.48604">
        <ele>572</ele>
        <time>2021-06-26T11:46:56Z</time>
      </trkpt>
      <trkpt lat="46.1307" lon="6.48592">
        <ele>571.2</ele>
        <time>2021-06-26T11:46:57Z</time>
      </trkpt>
      <trkpt lat="46.13083" lon="6.48571">
        <ele>569.8</ele>
        <time>2021-06-26T11:46:59Z</time>
      </trkpt>
      <trkpt lat="46.13095" lon="6.48549">
        <ele>568.8</ele>
        <time>2021-06-26T11:47:01Z</time>
      </trkpt>
      <trkpt lat="46.13114" lon="6.48517">
        <ele>567</ele>
        <time>2021-06-26T11:47:04Z</time>
      </trkpt>
      <trkpt lat="46.13129" lon="6.48498">
        <ele>566</ele>
        <time>2021-06-26T11:47:06Z</time>
      </trkpt>
      <trkpt lat="46.13146" lon="6.48482">
        <ele>565.4</ele>
        <time>2021-06-26T11:47:08Z</time>
      </trkpt>
      <trkpt lat="46.1318" lon="6.4845">
        <ele>563.6</ele>
        <time>2021-06-26T11:47:12Z</time>
      </trkpt>
      <trkpt lat="46.13188" lon="6.48441">
        <ele>563</ele>
        <time>2021-06-26T11:47:13Z</time>
      </trkpt>
      <trkpt lat="46.13195" lon="6.4843">
        <ele>562.4</ele>
        <time>2021-06-26T11:47:14Z</time>
      </trkpt>
      <trkpt lat="46.13216" lon="6.48395">
        <ele>561.8</ele>
        <time>2021-06-26T11:47:17Z</time>
      </trkpt>
      <trkpt lat="46.13223" lon="6.48384">
        <ele>561.4</ele>
        <time>2021-06-26T11:47:18Z</time>
      </trkpt>
      <trkpt lat="46.13229" lon="6.48372">
        <ele>561.2</ele>
        <time>2021-06-26T11:47:19Z</time>
      </trkpt>
      <trkpt lat="46.13248" lon="6.48336">
        <ele>560.2</ele>
        <time>2021-06-26T11:47:22Z</time>
      </trkpt>
      <trkpt lat="46.13258" lon="6.4831">
        <ele>558.8</ele>
        <time>2021-06-26T11:47:24Z</time>
      </trkpt>
      <trkpt lat="46.13262" lon="6.48297">
        <ele>558.2</ele>
        <time>2021-06-26T11:47:25Z</time>
      </trkpt>
      <trkpt lat="46.13271" lon="6.4827">
        <ele>557.2</ele>
        <time>2021-06-26T11:47:27Z</time>
      </trkpt>
      <trkpt lat="46.13281" lon="6.48245">
        <ele>556.6</ele>
        <time>2021-06-26T11:47:29Z</time>
      </trkpt>
      <trkpt lat="46.13288" lon="6.48234">
        <ele>556.4</ele>
        <time>2021-06-26T11:47:30Z</time>
      </trkpt>
      <trkpt lat="46.13296" lon="6.48225">
        <ele>556.2</ele>
        <time>2021-06-26T11:47:31Z</time>
      </trkpt>
      <trkpt lat="46.13304" lon="6.48218">
        <ele>555.6</ele>
        <time>2021-06-26T11:47:32Z</time>
      </trkpt>
      <trkpt lat="46.13312" lon="6.48211">
        <ele>555</ele>
        <time>2021-06-26T11:47:33Z</time>
      </trkpt>
      <trkpt lat="46.1332" lon="6.48205">
        <ele>554.4</ele>
        <time>2021-06-26T11:47:34Z</time>
      </trkpt>
      <trkpt lat="46.13328" lon="6.48198">
        <ele>554</ele>
        <time>2021-06-26T11:47:35Z</time>
      </trkpt>
      <trkpt lat="46.13336" lon="6.48192">
        <ele>554</ele>
        <time>2021-06-26T11:47:36Z</time>
      </trkpt>
      <trkpt lat="46.13344" lon="6.48186">
        <ele>553.6</ele>
        <time>2021-06-26T11:47:37Z</time>
      </trkpt>
      <trkpt lat="46.13352" lon="6.4818">
        <ele>553.6</ele>
        <time>2021-06-26T11:47:38Z</time>
      </trkpt>
      <trkpt lat="46.1336" lon="6.48174">
        <ele>553.6</ele>
        <time>2021-06-26T11:47:39Z</time>
      </trkpt>
      <trkpt lat="46.13368" lon="6.48168">
        <ele>553.6</ele>
        <time>2021-06-26T11:47:40Z</time>
      </trkpt>
      <trkpt lat="46.13375" lon="6.48162">
        <ele>553.6</ele>
        <time>2021-06-26T11:47:41Z</time>
      </trkpt>
      <trkpt lat="46.13383" lon="6.48157">
        <ele>553.4</ele>
        <time>2021-06-26T11:47:42Z</time>
      </trkpt>
      <trkpt lat="46.1339" lon="6.48151">
        <ele>553.4</ele>
        <time>2021-06-26T11:47:43Z</time>
      </trkpt>
      <trkpt lat="46.13398" lon="6.48145">
        <ele>553.4</ele>
        <time>2021-06-26T11:47:44Z</time>
      </trkpt>
      <trkpt lat="46.13405" lon="6.48139">
        <ele>553.4</ele>
        <time>2021-06-26T11:47:45Z</time>
      </trkpt>
      <trkpt lat="46.13412" lon="6.48133">
        <ele>553.4</ele>
        <time>2021-06-26T11:47:46Z</time>
      </trkpt>
      <trkpt lat="46.1342" lon="6.48127">
        <ele>553.4</ele>
        <time>2021-06-26T11:47:47Z</time>
      </trkpt>
      <trkpt lat="46.13426" lon="6.48121">
        <ele>553.2</ele>
        <time>2021-06-26T11:47:48Z</time>
      </trkpt>
      <trkpt lat="46.13433" lon="6.48115">
        <ele>553</ele>
        <time>2021-06-26T11:47:49Z</time>
      </trkpt>
      <trkpt lat="46.1344" lon="6.48109">
        <ele>553.2</ele>
        <time>2021-06-26T11:47:50Z</time>
      </trkpt>
      <trkpt lat="46.13447" lon="6.48103">
        <ele>553.2</ele>
        <time>2021-06-26T11:47:51Z</time>
      </trkpt>
      <trkpt lat="46.13453" lon="6.48097">
        <ele>553.4</ele>
        <time>2021-06-26T11:47:52Z</time>
      </trkpt>
      <trkpt lat="46.13459" lon="6.48091">
        <ele>553.2</ele>
        <time>2021-06-26T11:47:53Z</time>
      </trkpt>
      <trkpt lat="46.13465" lon="6.48083">
        <ele>553.4</ele>
        <time>2021-06-26T11:47:54Z</time>
      </trkpt>
      <trkpt lat="46.1347" lon="6.48076">
        <ele>553.2</ele>
        <time>2021-06-26T11:47:55Z</time>
      </trkpt>
      <trkpt lat="46.13475" lon="6.48068">
        <ele>553.2</ele>
        <time>2021-06-26T11:47:56Z</time>
      </trkpt>
      <trkpt lat="46.13484" lon="6.48049">
        <ele>553.4</ele>
        <time>2021-06-26T11:47:58Z</time>
      </trkpt>
      <trkpt lat="46.13508" lon="6.47988">
        <ele>553.2</ele>
        <time>2021-06-26T11:48:04Z</time>
      </trkpt>
      <trkpt lat="46.13514" lon="6.47979">
        <ele>553</ele>
        <time>2021-06-26T11:48:05Z</time>
      </trkpt>
      <trkpt lat="46.13534" lon="6.47956">
        <ele>553</ele>
        <time>2021-06-26T11:48:08Z</time>
      </trkpt>
      <trkpt lat="46.13557" lon="6.47935">
        <ele>552.8</ele>
        <time>2021-06-26T11:48:11Z</time>
      </trkpt>
      <trkpt lat="46.13581" lon="6.47913">
        <ele>552.2</ele>
        <time>2021-06-26T11:48:14Z</time>
      </trkpt>
      <trkpt lat="46.13588" lon="6.47903">
        <ele>551.6</ele>
        <time>2021-06-26T11:48:15Z</time>
      </trkpt>
      <trkpt lat="46.13593" lon="6.47891">
        <ele>551.2</ele>
        <time>2021-06-26T11:48:16Z</time>
      </trkpt>
      <trkpt lat="46.13597" lon="6.47879">
        <ele>550.8</ele>
        <time>2021-06-26T11:48:17Z</time>
      </trkpt>
      <trkpt lat="46.13602" lon="6.47866">
        <ele>550.4</ele>
        <time>2021-06-26T11:48:18Z</time>
      </trkpt>
      <trkpt lat="46.13607" lon="6.47855">
        <ele>550</ele>
        <time>2021-06-26T11:48:19Z</time>
      </trkpt>
      <trkpt lat="46.13612" lon="6.47846">
        <ele>549.6</ele>
        <time>2021-06-26T11:48:20Z</time>
      </trkpt>
      <trkpt lat="46.13617" lon="6.47836">
        <ele>549.2</ele>
        <time>2021-06-26T11:48:21Z</time>
      </trkpt>
      <trkpt lat="46.13619" lon="6.47825">
        <ele>549.2</ele>
        <time>2021-06-26T11:48:22Z</time>
      </trkpt>
      <trkpt lat="46.1362" lon="6.47814">
        <ele>549.2</ele>
        <time>2021-06-26T11:48:23Z</time>
      </trkpt>
      <trkpt lat="46.13622" lon="6.47803">
        <ele>548.8</ele>
        <time>2021-06-26T11:48:24Z</time>
      </trkpt>
      <trkpt lat="46.13624" lon="6.47793">
        <ele>548.2</ele>
        <time>2021-06-26T11:48:25Z</time>
      </trkpt>
      <trkpt lat="46.13631" lon="6.47772">
        <ele>547.4</ele>
        <time>2021-06-26T11:48:27Z</time>
      </trkpt>
      <trkpt lat="46.13634" lon="6.47763">
        <ele>547.4</ele>
        <time>2021-06-26T11:48:28Z</time>
      </trkpt>
      <trkpt lat="46.13638" lon="6.47753">
        <ele>547.2</ele>
        <time>2021-06-26T11:48:29Z</time>
      </trkpt>
      <trkpt lat="46.13641" lon="6.47744">
        <ele>547.2</ele>
        <time>2021-06-26T11:48:30Z</time>
      </trkpt>
      <trkpt lat="46.13644" lon="6.47735">
        <ele>547.2</ele>
        <time>2021-06-26T11:48:31Z</time>
      </trkpt>
      <trkpt lat="46.13648" lon="6.47725">
        <ele>547.2</ele>
        <time>2021-06-26T11:48:32Z</time>
      </trkpt>
      <trkpt lat="46.13653" lon="6.47707">
        <ele>547.4</ele>
        <time>2021-06-26T11:48:34Z</time>
      </trkpt>
      <trkpt lat="46.13656" lon="6.47697">
        <ele>547.2</ele>
        <time>2021-06-26T11:48:35Z</time>
      </trkpt>
      <trkpt lat="46.13658" lon="6.47688">
        <ele>547.4</ele>
        <time>2021-06-26T11:48:36Z</time>
      </trkpt>
      <trkpt lat="46.1366" lon="6.47678">
        <ele>547.8</ele>
        <time>2021-06-26T11:48:37Z</time>
      </trkpt>
      <trkpt lat="46.13663" lon="6.47659">
        <ele>548.4</ele>
        <time>2021-06-26T11:48:39Z</time>
      </trkpt>
      <trkpt lat="46.13663" lon="6.4765">
        <ele>548.6</ele>
        <time>2021-06-26T11:48:40Z</time>
      </trkpt>
      <trkpt lat="46.13663" lon="6.47641">
        <ele>548.8</ele>
        <time>2021-06-26T11:48:41Z</time>
      </trkpt>
      <trkpt lat="46.13663" lon="6.47623">
        <ele>549</ele>
        <time>2021-06-26T11:48:43Z</time>
      </trkpt>
      <trkpt lat="46.13662" lon="6.47614">
        <ele>549.2</ele>
        <time>2021-06-26T11:48:44Z</time>
      </trkpt>
      <trkpt lat="46.1366" lon="6.47605">
        <ele>549.2</ele>
        <time>2021-06-26T11:48:45Z</time>
      </trkpt>
      <trkpt lat="46.13659" lon="6.47596">
        <ele>549.2</ele>
        <time>2021-06-26T11:48:46Z</time>
      </trkpt>
      <trkpt lat="46.13657" lon="6.47588">
        <ele>549.4</ele>
        <time>2021-06-26T11:48:47Z</time>
      </trkpt>
      <trkpt lat="46.13653" lon="6.4757">
        <ele>549.8</ele>
        <time>2021-06-26T11:48:49Z</time>
      </trkpt>
      <trkpt lat="46.13643" lon="6.47525">
        <ele>550.2</ele>
        <time>2021-06-26T11:48:54Z</time>
      </trkpt>
      <trkpt lat="46.13638" lon="6.47507">
        <ele>550.4</ele>
        <time>2021-06-26T11:48:56Z</time>
      </trkpt>
      <trkpt lat="46.13631" lon="6.47481">
        <ele>550.4</ele>
        <time>2021-06-26T11:48:59Z</time>
      </trkpt>
      <trkpt lat="46.13626" lon="6.47464">
        <ele>550.6</ele>
        <time>2021-06-26T11:49:01Z</time>
      </trkpt>
      <trkpt lat="46.13624" lon="6.47456">
        <ele>550.6</ele>
        <time>2021-06-26T11:49:02Z</time>
      </trkpt>
      <trkpt lat="46.13618" lon="6.47441">
        <ele>550.8</ele>
        <time>2021-06-26T11:49:04Z</time>
      </trkpt>
      <trkpt lat="46.13616" lon="6.47433">
        <ele>550.8</ele>
        <time>2021-06-26T11:49:05Z</time>
      </trkpt>
      <trkpt lat="46.13613" lon="6.47426">
        <ele>551</ele>
        <time>2021-06-26T11:49:06Z</time>
      </trkpt>
      <trkpt lat="46.1361" lon="6.4742">
        <ele>551</ele>
        <time>2021-06-26T11:49:07Z</time>
      </trkpt>
      <trkpt lat="46.13607" lon="6.47413">
        <ele>551</ele>
        <time>2021-06-26T11:49:08Z</time>
      </trkpt>
      <trkpt lat="46.13604" lon="6.47407">
        <ele>550.8</ele>
        <time>2021-06-26T11:49:09Z</time>
      </trkpt>
      <trkpt lat="46.13602" lon="6.47401">
        <ele>551</ele>
        <time>2021-06-26T11:49:10Z</time>
      </trkpt>
      <trkpt lat="46.13599" lon="6.47395">
        <ele>551</ele>
        <time>2021-06-26T11:49:11Z</time>
      </trkpt>
      <trkpt lat="46.13596" lon="6.47389">
        <ele>550.8</ele>
        <time>2021-06-26T11:49:12Z</time>
      </trkpt>
      <trkpt lat="46.13594" lon="6.47384">
        <ele>550.8</ele>
        <time>2021-06-26T11:49:13Z</time>
      </trkpt>
      <trkpt lat="46.13592" lon="6.47378">
        <ele>550.8</ele>
        <time>2021-06-26T11:49:14Z</time>
      </trkpt>
      <trkpt lat="46.13589" lon="6.47372">
        <ele>550.8</ele>
        <time>2021-06-26T11:49:15Z</time>
      </trkpt>
      <trkpt lat="46.13586" lon="6.47366">
        <ele>550.8</ele>
        <time>2021-06-26T11:49:16Z</time>
      </trkpt>
      <trkpt lat="46.13581" lon="6.47355">
        <ele>551</ele>
        <time>2021-06-26T11:49:18Z</time>
      </trkpt>
      <trkpt lat="46.13579" lon="6.47349">
        <ele>551</ele>
        <time>2021-06-26T11:49:19Z</time>
      </trkpt>
      <trkpt lat="46.13577" lon="6.47344">
        <ele>551</ele>
        <time>2021-06-26T11:49:20Z</time>
      </trkpt>
      <trkpt lat="46.13574" lon="6.47338">
        <ele>551.2</ele>
        <time>2021-06-26T11:49:21Z</time>
      </trkpt>
      <trkpt lat="46.13565" lon="6.47316">
        <ele>552</ele>
        <time>2021-06-26T11:49:25Z</time>
      </trkpt>
      <trkpt lat="46.13563" lon="6.4731">
        <ele>552.2</ele>
        <time>2021-06-26T11:49:26Z</time>
      </trkpt>
      <trkpt lat="46.1356" lon="6.47304">
        <ele>552.2</ele>
        <time>2021-06-26T11:49:27Z</time>
      </trkpt>
      <trkpt lat="46.13558" lon="6.47298">
        <ele>552.2</ele>
        <time>2021-06-26T11:49:28Z</time>
      </trkpt>
      <trkpt lat="46.13556" lon="6.47292">
        <ele>552.2</ele>
        <time>2021-06-26T11:49:29Z</time>
      </trkpt>
      <trkpt lat="46.13553" lon="6.47286">
        <ele>552.6</ele>
        <time>2021-06-26T11:49:30Z</time>
      </trkpt>
      <trkpt lat="46.13551" lon="6.4728">
        <ele>552.6</ele>
        <time>2021-06-26T11:49:31Z</time>
      </trkpt>
      <trkpt lat="46.13548" lon="6.47274">
        <ele>553.2</ele>
        <time>2021-06-26T11:49:32Z</time>
      </trkpt>
      <trkpt lat="46.13546" lon="6.47269">
        <ele>553.2</ele>
        <time>2021-06-26T11:49:33Z</time>
      </trkpt>
      <trkpt lat="46.13543" lon="6.47263">
        <ele>553.4</ele>
        <time>2021-06-26T11:49:34Z</time>
      </trkpt>
      <trkpt lat="46.13541" lon="6.47258">
        <ele>553.6</ele>
        <time>2021-06-26T11:49:35Z</time>
      </trkpt>
      <trkpt lat="46.13538" lon="6.47252">
        <ele>553.6</ele>
        <time>2021-06-26T11:49:36Z</time>
      </trkpt>
      <trkpt lat="46.13536" lon="6.47247">
        <ele>554</ele>
        <time>2021-06-26T11:49:37Z</time>
      </trkpt>
      <trkpt lat="46.13533" lon="6.47241">
        <ele>553.8</ele>
        <time>2021-06-26T11:49:38Z</time>
      </trkpt>
      <trkpt lat="46.13531" lon="6.47235">
        <ele>554</ele>
        <time>2021-06-26T11:49:39Z</time>
      </trkpt>
      <trkpt lat="46.13529" lon="6.4723">
        <ele>554</ele>
        <time>2021-06-26T11:49:40Z</time>
      </trkpt>
      <trkpt lat="46.13527" lon="6.47224">
        <ele>554.2</ele>
        <time>2021-06-26T11:49:41Z</time>
      </trkpt>
      <trkpt lat="46.13525" lon="6.47218">
        <ele>554.2</ele>
        <time>2021-06-26T11:49:42Z</time>
      </trkpt>
      <trkpt lat="46.13522" lon="6.47213">
        <ele>554.2</ele>
        <time>2021-06-26T11:49:43Z</time>
      </trkpt>
      <trkpt lat="46.1352" lon="6.47207">
        <ele>554.4</ele>
        <time>2021-06-26T11:49:44Z</time>
      </trkpt>
      <trkpt lat="46.13518" lon="6.47201">
        <ele>554.8</ele>
        <time>2021-06-26T11:49:45Z</time>
      </trkpt>
      <trkpt lat="46.13516" lon="6.47195">
        <ele>554.8</ele>
        <time>2021-06-26T11:49:46Z</time>
      </trkpt>
      <trkpt lat="46.13514" lon="6.47189">
        <ele>555.2</ele>
        <time>2021-06-26T11:49:47Z</time>
      </trkpt>
      <trkpt lat="46.13511" lon="6.47184">
        <ele>555.4</ele>
        <time>2021-06-26T11:49:48Z</time>
      </trkpt>
      <trkpt lat="46.13509" lon="6.47178">
        <ele>555.4</ele>
        <time>2021-06-26T11:49:49Z</time>
      </trkpt>
      <trkpt lat="46.13507" lon="6.47172">
        <ele>555.8</ele>
        <time>2021-06-26T11:49:50Z</time>
      </trkpt>
      <trkpt lat="46.13505" lon="6.47166">
        <ele>556</ele>
        <time>2021-06-26T11:49:51Z</time>
      </trkpt>
      <trkpt lat="46.13503" lon="6.47161">
        <ele>556.2</ele>
        <time>2021-06-26T11:49:52Z</time>
      </trkpt>
      <trkpt lat="46.13502" lon="6.47155">
        <ele>556.2</ele>
        <time>2021-06-26T11:49:53Z</time>
      </trkpt>
      <trkpt lat="46.135" lon="6.47149">
        <ele>556.4</ele>
        <time>2021-06-26T11:49:54Z</time>
      </trkpt>
      <trkpt lat="46.13498" lon="6.47144">
        <ele>556.6</ele>
        <time>2021-06-26T11:49:55Z</time>
      </trkpt>
      <trkpt lat="46.13496" lon="6.47138">
        <ele>556.8</ele>
        <time>2021-06-26T11:49:56Z</time>
      </trkpt>
      <trkpt lat="46.13495" lon="6.47133">
        <ele>557</ele>
        <time>2021-06-26T11:49:57Z</time>
      </trkpt>
      <trkpt lat="46.13493" lon="6.47127">
        <ele>557.2</ele>
        <time>2021-06-26T11:49:58Z</time>
      </trkpt>
      <trkpt lat="46.13491" lon="6.47122">
        <ele>557.6</ele>
        <time>2021-06-26T11:49:59Z</time>
      </trkpt>
      <trkpt lat="46.1349" lon="6.47116">
        <ele>557.8</ele>
        <time>2021-06-26T11:50:00Z</time>
      </trkpt>
      <trkpt lat="46.13488" lon="6.47111">
        <ele>557.8</ele>
        <time>2021-06-26T11:50:01Z</time>
      </trkpt>
      <trkpt lat="46.13487" lon="6.47105">
        <ele>558</ele>
        <time>2021-06-26T11:50:02Z</time>
      </trkpt>
      <trkpt lat="46.13485" lon="6.471">
        <ele>558.2</ele>
        <time>2021-06-26T11:50:03Z</time>
      </trkpt>
      <trkpt lat="46.13483" lon="6.47094">
        <ele>558.2</ele>
        <time>2021-06-26T11:50:04Z</time>
      </trkpt>
      <trkpt lat="46.13482" lon="6.47089">
        <ele>558.4</ele>
        <time>2021-06-26T11:50:05Z</time>
      </trkpt>
      <trkpt lat="46.1348" lon="6.47084">
        <ele>558.6</ele>
        <time>2021-06-26T11:50:06Z</time>
      </trkpt>
      <trkpt lat="46.13479" lon="6.47078">
        <ele>558.4</ele>
        <time>2021-06-26T11:50:07Z</time>
      </trkpt>
      <trkpt lat="46.13478" lon="6.47073">
        <ele>558.6</ele>
        <time>2021-06-26T11:50:08Z</time>
      </trkpt>
      <trkpt lat="46.13476" lon="6.47067">
        <ele>558.8</ele>
        <time>2021-06-26T11:50:09Z</time>
      </trkpt>
      <trkpt lat="46.13475" lon="6.47062">
        <ele>559.2</ele>
        <time>2021-06-26T11:50:10Z</time>
      </trkpt>
      <trkpt lat="46.13474" lon="6.47056">
        <ele>559.6</ele>
        <time>2021-06-26T11:50:11Z</time>
      </trkpt>
      <trkpt lat="46.13473" lon="6.4705">
        <ele>560</ele>
        <time>2021-06-26T11:50:12Z</time>
      </trkpt>
      <trkpt lat="46.13472" lon="6.47045">
        <ele>560.2</ele>
        <time>2021-06-26T11:50:13Z</time>
      </trkpt>
      <trkpt lat="46.13471" lon="6.47039">
        <ele>560.4</ele>
        <time>2021-06-26T11:50:14Z</time>
      </trkpt>
      <trkpt lat="46.13469" lon="6.47033">
        <ele>560.4</ele>
        <time>2021-06-26T11:50:15Z</time>
      </trkpt>
      <trkpt lat="46.13468" lon="6.47027">
        <ele>560.4</ele>
        <time>2021-06-26T11:50:16Z</time>
      </trkpt>
      <trkpt lat="46.13467" lon="6.47021">
        <ele>560.4</ele>
        <time>2021-06-26T11:50:17Z</time>
      </trkpt>
      <trkpt lat="46.13466" lon="6.47015">
        <ele>560.6</ele>
        <time>2021-06-26T11:50:18Z</time>
      </trkpt>
      <trkpt lat="46.13465" lon="6.47009">
        <ele>560.8</ele>
        <time>2021-06-26T11:50:19Z</time>
      </trkpt>
      <trkpt lat="46.13464" lon="6.47004">
        <ele>560.8</ele>
        <time>2021-06-26T11:50:20Z</time>
      </trkpt>
      <trkpt lat="46.13463" lon="6.46998">
        <ele>561</ele>
        <time>2021-06-26T11:50:21Z</time>
      </trkpt>
      <trkpt lat="46.13462" lon="6.46993">
        <ele>561</ele>
        <time>2021-06-26T11:50:22Z</time>
      </trkpt>
      <trkpt lat="46.13461" lon="6.46987">
        <ele>561.4</ele>
        <time>2021-06-26T11:50:23Z</time>
      </trkpt>
      <trkpt lat="46.13461" lon="6.46981">
        <ele>561.4</ele>
        <time>2021-06-26T11:50:24Z</time>
      </trkpt>
      <trkpt lat="46.1346" lon="6.46976">
        <ele>561.4</ele>
        <time>2021-06-26T11:50:25Z</time>
      </trkpt>
      <trkpt lat="46.1346" lon="6.4697">
        <ele>561.6</ele>
        <time>2021-06-26T11:50:26Z</time>
      </trkpt>
      <trkpt lat="46.13459" lon="6.46964">
        <ele>561.8</ele>
        <time>2021-06-26T11:50:27Z</time>
      </trkpt>
      <trkpt lat="46.13459" lon="6.46959">
        <ele>561.8</ele>
        <time>2021-06-26T11:50:28Z</time>
      </trkpt>
      <trkpt lat="46.13459" lon="6.46953">
        <ele>562</ele>
        <time>2021-06-26T11:50:29Z</time>
      </trkpt>
      <trkpt lat="46.13459" lon="6.46948">
        <ele>562</ele>
        <time>2021-06-26T11:50:30Z</time>
      </trkpt>
      <trkpt lat="46.1346" lon="6.46942">
        <ele>562</ele>
        <time>2021-06-26T11:50:31Z</time>
      </trkpt>
      <trkpt lat="46.13461" lon="6.46936">
        <ele>562.2</ele>
        <time>2021-06-26T11:50:32Z</time>
      </trkpt>
      <trkpt lat="46.13463" lon="6.46931">
        <ele>562.2</ele>
        <time>2021-06-26T11:50:33Z</time>
      </trkpt>
      <trkpt lat="46.13465" lon="6.46926">
        <ele>562.2</ele>
        <time>2021-06-26T11:50:34Z</time>
      </trkpt>
      <trkpt lat="46.13468" lon="6.46921">
        <ele>562.2</ele>
        <time>2021-06-26T11:50:35Z</time>
      </trkpt>
      <trkpt lat="46.13471" lon="6.46917">
        <ele>562.4</ele>
        <time>2021-06-26T11:50:36Z</time>
      </trkpt>
      <trkpt lat="46.13478" lon="6.4691">
        <ele>562.6</ele>
        <time>2021-06-26T11:50:38Z</time>
      </trkpt>
      <trkpt lat="46.13482" lon="6.46907">
        <ele>562.6</ele>
        <time>2021-06-26T11:50:39Z</time>
      </trkpt>
      <trkpt lat="46.13486" lon="6.46905">
        <ele>562.6</ele>
        <time>2021-06-26T11:50:40Z</time>
      </trkpt>
      <trkpt lat="46.13505" lon="6.46898">
        <ele>563</ele>
        <time>2021-06-26T11:50:44Z</time>
      </trkpt>
      <trkpt lat="46.13511" lon="6.46897">
        <ele>563</ele>
        <time>2021-06-26T11:50:45Z</time>
      </trkpt>
      <trkpt lat="46.1352" lon="6.46893">
        <ele>563</ele>
        <time>2021-06-26T11:50:47Z</time>
      </trkpt>
      <trkpt lat="46.1353" lon="6.46888">
        <ele>563.6</ele>
        <time>2021-06-26T11:50:49Z</time>
      </trkpt>
      <trkpt lat="46.13539" lon="6.46882">
        <ele>563.6</ele>
        <time>2021-06-26T11:50:51Z</time>
      </trkpt>
      <trkpt lat="46.13544" lon="6.46879">
        <ele>563.8</ele>
        <time>2021-06-26T11:50:52Z</time>
      </trkpt>
      <trkpt lat="46.13548" lon="6.46876">
        <ele>563.8</ele>
        <time>2021-06-26T11:50:53Z</time>
      </trkpt>
      <trkpt lat="46.13551" lon="6.46872">
        <ele>564</ele>
        <time>2021-06-26T11:50:54Z</time>
      </trkpt>
      <trkpt lat="46.13555" lon="6.46869">
        <ele>564.4</ele>
        <time>2021-06-26T11:50:55Z</time>
      </trkpt>
      <trkpt lat="46.13558" lon="6.46865">
        <ele>564.4</ele>
        <time>2021-06-26T11:50:56Z</time>
      </trkpt>
      <trkpt lat="46.13562" lon="6.46862">
        <ele>564.4</ele>
        <time>2021-06-26T11:50:57Z</time>
      </trkpt>
      <trkpt lat="46.13565" lon="6.46858">
        <ele>564.8</ele>
        <time>2021-06-26T11:50:58Z</time>
      </trkpt>
      <trkpt lat="46.13568" lon="6.46854">
        <ele>564.8</ele>
        <time>2021-06-26T11:50:59Z</time>
      </trkpt>
      <trkpt lat="46.13571" lon="6.4685">
        <ele>565</ele>
        <time>2021-06-26T11:51:00Z</time>
      </trkpt>
      <trkpt lat="46.13574" lon="6.46846">
        <ele>565</ele>
        <time>2021-06-26T11:51:01Z</time>
      </trkpt>
      <trkpt lat="46.13576" lon="6.46842">
        <ele>565</ele>
        <time>2021-06-26T11:51:02Z</time>
      </trkpt>
      <trkpt lat="46.13579" lon="6.46838">
        <ele>565.2</ele>
        <time>2021-06-26T11:51:03Z</time>
      </trkpt>
      <trkpt lat="46.13581" lon="6.46833">
        <ele>565.6</ele>
        <time>2021-06-26T11:51:04Z</time>
      </trkpt>
      <trkpt lat="46.13584" lon="6.46828">
        <ele>566</ele>
        <time>2021-06-26T11:51:05Z</time>
      </trkpt>
      <trkpt lat="46.13586" lon="6.46823">
        <ele>566.4</ele>
        <time>2021-06-26T11:51:06Z</time>
      </trkpt>
      <trkpt lat="46.13588" lon="6.46818">
        <ele>566.4</ele>
        <time>2021-06-26T11:51:07Z</time>
      </trkpt>
      <trkpt lat="46.1359" lon="6.46812">
        <ele>566.8</ele>
        <time>2021-06-26T11:51:08Z</time>
      </trkpt>
      <trkpt lat="46.13592" lon="6.46806">
        <ele>567.2</ele>
        <time>2021-06-26T11:51:09Z</time>
      </trkpt>
      <trkpt lat="46.13594" lon="6.46801">
        <ele>567.4</ele>
        <time>2021-06-26T11:51:10Z</time>
      </trkpt>
      <trkpt lat="46.13596" lon="6.46795">
        <ele>567.6</ele>
        <time>2021-06-26T11:51:11Z</time>
      </trkpt>
      <trkpt lat="46.13598" lon="6.4679">
        <ele>567.8</ele>
        <time>2021-06-26T11:51:12Z</time>
      </trkpt>
      <trkpt lat="46.136" lon="6.46785">
        <ele>568</ele>
        <time>2021-06-26T11:51:13Z</time>
      </trkpt>
      <trkpt lat="46.13601" lon="6.46779">
        <ele>568.2</ele>
        <time>2021-06-26T11:51:14Z</time>
      </trkpt>
      <trkpt lat="46.13603" lon="6.46774">
        <ele>568.4</ele>
        <time>2021-06-26T11:51:15Z</time>
      </trkpt>
      <trkpt lat="46.13605" lon="6.46769">
        <ele>568.6</ele>
        <time>2021-06-26T11:51:16Z</time>
      </trkpt>
      <trkpt lat="46.13607" lon="6.46763">
        <ele>568.8</ele>
        <time>2021-06-26T11:51:17Z</time>
      </trkpt>
      <trkpt lat="46.13609" lon="6.46758">
        <ele>569</ele>
        <time>2021-06-26T11:51:18Z</time>
      </trkpt>
      <trkpt lat="46.13611" lon="6.46752">
        <ele>569</ele>
        <time>2021-06-26T11:51:19Z</time>
      </trkpt>
      <trkpt lat="46.13613" lon="6.46746">
        <ele>569.2</ele>
        <time>2021-06-26T11:51:20Z</time>
      </trkpt>
      <trkpt lat="46.13615" lon="6.46741">
        <ele>569.4</ele>
        <time>2021-06-26T11:51:21Z</time>
      </trkpt>
      <trkpt lat="46.13617" lon="6.46736">
        <ele>569.6</ele>
        <time>2021-06-26T11:51:22Z</time>
      </trkpt>
      <trkpt lat="46.13619" lon="6.4673">
        <ele>569.8</ele>
        <time>2021-06-26T11:51:23Z</time>
      </trkpt>
      <trkpt lat="46.13621" lon="6.46725">
        <ele>569.8</ele>
        <time>2021-06-26T11:51:24Z</time>
      </trkpt>
      <trkpt lat="46.13623" lon="6.46719">
        <ele>570</ele>
        <time>2021-06-26T11:51:25Z</time>
      </trkpt>
      <trkpt lat="46.13625" lon="6.46714">
        <ele>570</ele>
        <time>2021-06-26T11:51:26Z</time>
      </trkpt>
      <trkpt lat="46.13627" lon="6.46708">
        <ele>570.4</ele>
        <time>2021-06-26T11:51:27Z</time>
      </trkpt>
      <trkpt lat="46.13628" lon="6.46703">
        <ele>570.6</ele>
        <time>2021-06-26T11:51:28Z</time>
      </trkpt>
      <trkpt lat="46.1363" lon="6.46697">
        <ele>570.8</ele>
        <time>2021-06-26T11:51:29Z</time>
      </trkpt>
      <trkpt lat="46.13633" lon="6.46692">
        <ele>571</ele>
        <time>2021-06-26T11:51:30Z</time>
      </trkpt>
      <trkpt lat="46.13635" lon="6.46687">
        <ele>571</ele>
        <time>2021-06-26T11:51:31Z</time>
      </trkpt>
      <trkpt lat="46.13638" lon="6.46683">
        <ele>571.2</ele>
        <time>2021-06-26T11:51:32Z</time>
      </trkpt>
      <trkpt lat="46.13641" lon="6.46679">
        <ele>571.2</ele>
        <time>2021-06-26T11:51:33Z</time>
      </trkpt>
      <trkpt lat="46.13644" lon="6.46675">
        <ele>571.6</ele>
        <time>2021-06-26T11:51:34Z</time>
      </trkpt>
      <trkpt lat="46.13645" lon="6.46669">
        <ele>571.8</ele>
        <time>2021-06-26T11:51:35Z</time>
      </trkpt>
      <trkpt lat="46.13646" lon="6.46664">
        <ele>572</ele>
        <time>2021-06-26T11:51:36Z</time>
      </trkpt>
      <trkpt lat="46.13647" lon="6.46658">
        <ele>572.2</ele>
        <time>2021-06-26T11:51:37Z</time>
      </trkpt>
      <trkpt lat="46.13648" lon="6.46652">
        <ele>572.4</ele>
        <time>2021-06-26T11:51:38Z</time>
      </trkpt>
      <trkpt lat="46.13649" lon="6.46647">
        <ele>572.8</ele>
        <time>2021-06-26T11:51:39Z</time>
      </trkpt>
      <trkpt lat="46.1365" lon="6.46641">
        <ele>573.2</ele>
        <time>2021-06-26T11:51:40Z</time>
      </trkpt>
      <trkpt lat="46.13652" lon="6.46635">
        <ele>573.2</ele>
        <time>2021-06-26T11:51:41Z</time>
      </trkpt>
      <trkpt lat="46.13654" lon="6.46629">
        <ele>573.4</ele>
        <time>2021-06-26T11:51:42Z</time>
      </trkpt>
      <trkpt lat="46.13655" lon="6.46624">
        <ele>573.4</ele>
        <time>2021-06-26T11:51:43Z</time>
      </trkpt>
      <trkpt lat="46.13657" lon="6.46619">
        <ele>573.6</ele>
        <time>2021-06-26T11:51:44Z</time>
      </trkpt>
      <trkpt lat="46.13659" lon="6.46613">
        <ele>573.6</ele>
        <time>2021-06-26T11:51:45Z</time>
      </trkpt>
      <trkpt lat="46.13661" lon="6.46608">
        <ele>573.6</ele>
        <time>2021-06-26T11:51:46Z</time>
      </trkpt>
      <trkpt lat="46.13663" lon="6.46603">
        <ele>573.6</ele>
        <time>2021-06-26T11:51:47Z</time>
      </trkpt>
      <trkpt lat="46.13665" lon="6.46598">
        <ele>573.6</ele>
        <time>2021-06-26T11:51:48Z</time>
      </trkpt>
      <trkpt lat="46.13667" lon="6.46592">
        <ele>573.8</ele>
        <time>2021-06-26T11:51:49Z</time>
      </trkpt>
      <trkpt lat="46.13669" lon="6.46587">
        <ele>573.8</ele>
        <time>2021-06-26T11:51:50Z</time>
      </trkpt>
      <trkpt lat="46.13671" lon="6.46582">
        <ele>573.8</ele>
        <time>2021-06-26T11:51:51Z</time>
      </trkpt>
      <trkpt lat="46.13673" lon="6.46577">
        <ele>574</ele>
        <time>2021-06-26T11:51:52Z</time>
      </trkpt>
      <trkpt lat="46.13675" lon="6.46571">
        <ele>574.2</ele>
        <time>2021-06-26T11:51:53Z</time>
      </trkpt>
      <trkpt lat="46.13677" lon="6.46566">
        <ele>574.4</ele>
        <time>2021-06-26T11:51:54Z</time>
      </trkpt>
      <trkpt lat="46.13679" lon="6.4656">
        <ele>574.6</ele>
        <time>2021-06-26T11:51:55Z</time>
      </trkpt>
      <trkpt lat="46.13681" lon="6.46555">
        <ele>574.8</ele>
        <time>2021-06-26T11:51:56Z</time>
      </trkpt>
      <trkpt lat="46.13683" lon="6.46549">
        <ele>575.2</ele>
        <time>2021-06-26T11:51:57Z</time>
      </trkpt>
      <trkpt lat="46.13685" lon="6.46544">
        <ele>575.4</ele>
        <time>2021-06-26T11:51:58Z</time>
      </trkpt>
      <trkpt lat="46.13687" lon="6.46538">
        <ele>575.2</ele>
        <time>2021-06-26T11:51:59Z</time>
      </trkpt>
      <trkpt lat="46.13688" lon="6.46533">
        <ele>575.4</ele>
        <time>2021-06-26T11:52:00Z</time>
      </trkpt>
      <trkpt lat="46.1369" lon="6.46527">
        <ele>575.6</ele>
        <time>2021-06-26T11:52:01Z</time>
      </trkpt>
      <trkpt lat="46.13692" lon="6.46521">
        <ele>575.6</ele>
        <time>2021-06-26T11:52:02Z</time>
      </trkpt>
      <trkpt lat="46.13693" lon="6.46515">
        <ele>575.8</ele>
        <time>2021-06-26T11:52:03Z</time>
      </trkpt>
      <trkpt lat="46.13695" lon="6.46509">
        <ele>576</ele>
        <time>2021-06-26T11:52:04Z</time>
      </trkpt>
      <trkpt lat="46.13697" lon="6.46503">
        <ele>576.2</ele>
        <time>2021-06-26T11:52:05Z</time>
      </trkpt>
      <trkpt lat="46.13698" lon="6.46497">
        <ele>576.6</ele>
        <time>2021-06-26T11:52:06Z</time>
      </trkpt>
      <trkpt lat="46.13699" lon="6.4649">
        <ele>577</ele>
        <time>2021-06-26T11:52:07Z</time>
      </trkpt>
      <trkpt lat="46.13701" lon="6.46484">
        <ele>577.2</ele>
        <time>2021-06-26T11:52:08Z</time>
      </trkpt>
      <trkpt lat="46.13702" lon="6.46478">
        <ele>577.2</ele>
        <time>2021-06-26T11:52:09Z</time>
      </trkpt>
      <trkpt lat="46.13703" lon="6.46472">
        <ele>577.8</ele>
        <time>2021-06-26T11:52:10Z</time>
      </trkpt>
      <trkpt lat="46.13705" lon="6.46466">
        <ele>578</ele>
        <time>2021-06-26T11:52:11Z</time>
      </trkpt>
      <trkpt lat="46.13706" lon="6.46459">
        <ele>578.4</ele>
        <time>2021-06-26T11:52:12Z</time>
      </trkpt>
      <trkpt lat="46.13707" lon="6.46453">
        <ele>578.6</ele>
        <time>2021-06-26T11:52:13Z</time>
      </trkpt>
      <trkpt lat="46.13708" lon="6.46448">
        <ele>578.8</ele>
        <time>2021-06-26T11:52:14Z</time>
      </trkpt>
      <trkpt lat="46.13709" lon="6.46441">
        <ele>579.2</ele>
        <time>2021-06-26T11:52:15Z</time>
      </trkpt>
      <trkpt lat="46.1371" lon="6.46435">
        <ele>579.2</ele>
        <time>2021-06-26T11:52:16Z</time>
      </trkpt>
      <trkpt lat="46.13711" lon="6.46429">
        <ele>579.2</ele>
        <time>2021-06-26T11:52:17Z</time>
      </trkpt>
      <trkpt lat="46.13712" lon="6.46422">
        <ele>579.4</ele>
        <time>2021-06-26T11:52:18Z</time>
      </trkpt>
      <trkpt lat="46.13714" lon="6.46416">
        <ele>579.4</ele>
        <time>2021-06-26T11:52:19Z</time>
      </trkpt>
      <trkpt lat="46.13715" lon="6.4641">
        <ele>579.6</ele>
        <time>2021-06-26T11:52:20Z</time>
      </trkpt>
      <trkpt lat="46.13716" lon="6.46404">
        <ele>579.4</ele>
        <time>2021-06-26T11:52:21Z</time>
      </trkpt>
      <trkpt lat="46.13717" lon="6.46398">
        <ele>579.6</ele>
        <time>2021-06-26T11:52:22Z</time>
      </trkpt>
      <trkpt lat="46.13718" lon="6.46391">
        <ele>579.6</ele>
        <time>2021-06-26T11:52:23Z</time>
      </trkpt>
      <trkpt lat="46.13719" lon="6.46385">
        <ele>579.8</ele>
        <time>2021-06-26T11:52:24Z</time>
      </trkpt>
      <trkpt lat="46.13721" lon="6.46379">
        <ele>579.8</ele>
        <time>2021-06-26T11:52:25Z</time>
      </trkpt>
      <trkpt lat="46.13721" lon="6.46372">
        <ele>579.8</ele>
        <time>2021-06-26T11:52:26Z</time>
      </trkpt>
      <trkpt lat="46.13722" lon="6.46366">
        <ele>579.6</ele>
        <time>2021-06-26T11:52:27Z</time>
      </trkpt>
      <trkpt lat="46.13725" lon="6.46346">
        <ele>579.8</ele>
        <time>2021-06-26T11:52:30Z</time>
      </trkpt>
      <trkpt lat="46.13726" lon="6.4634">
        <ele>579.8</ele>
        <time>2021-06-26T11:52:31Z</time>
      </trkpt>
      <trkpt lat="46.13727" lon="6.46334">
        <ele>580</ele>
        <time>2021-06-26T11:52:32Z</time>
      </trkpt>
      <trkpt lat="46.13729" lon="6.46321">
        <ele>580</ele>
        <time>2021-06-26T11:52:34Z</time>
      </trkpt>
      <trkpt lat="46.13731" lon="6.46309">
        <ele>579.8</ele>
        <time>2021-06-26T11:52:36Z</time>
      </trkpt>
      <trkpt lat="46.13735" lon="6.46291">
        <ele>580</ele>
        <time>2021-06-26T11:52:39Z</time>
      </trkpt>
      <trkpt lat="46.13737" lon="6.46278">
        <ele>580.2</ele>
        <time>2021-06-26T11:52:41Z</time>
      </trkpt>
      <trkpt lat="46.13739" lon="6.46265">
        <ele>580.6</ele>
        <time>2021-06-26T11:52:43Z</time>
      </trkpt>
      <trkpt lat="46.13743" lon="6.46245">
        <ele>581.4</ele>
        <time>2021-06-26T11:52:46Z</time>
      </trkpt>
      <trkpt lat="46.13744" lon="6.46239">
        <ele>581.4</ele>
        <time>2021-06-26T11:52:47Z</time>
      </trkpt>
      <trkpt lat="46.13745" lon="6.46232">
        <ele>581.4</ele>
        <time>2021-06-26T11:52:48Z</time>
      </trkpt>
      <trkpt lat="46.13746" lon="6.46225">
        <ele>581.4</ele>
        <time>2021-06-26T11:52:49Z</time>
      </trkpt>
      <trkpt lat="46.13746" lon="6.46219">
        <ele>581.6</ele>
        <time>2021-06-26T11:52:50Z</time>
      </trkpt>
      <trkpt lat="46.13747" lon="6.46212">
        <ele>581.8</ele>
        <time>2021-06-26T11:52:51Z</time>
      </trkpt>
      <trkpt lat="46.13748" lon="6.46206">
        <ele>581.8</ele>
        <time>2021-06-26T11:52:52Z</time>
      </trkpt>
      <trkpt lat="46.13749" lon="6.462">
        <ele>581.8</ele>
        <time>2021-06-26T11:52:53Z</time>
      </trkpt>
      <trkpt lat="46.1375" lon="6.46194">
        <ele>582</ele>
        <time>2021-06-26T11:52:54Z</time>
      </trkpt>
      <trkpt lat="46.13751" lon="6.46187">
        <ele>582</ele>
        <time>2021-06-26T11:52:55Z</time>
      </trkpt>
      <trkpt lat="46.13752" lon="6.46181">
        <ele>582.4</ele>
        <time>2021-06-26T11:52:56Z</time>
      </trkpt>
      <trkpt lat="46.13753" lon="6.46174">
        <ele>582.4</ele>
        <time>2021-06-26T11:52:57Z</time>
      </trkpt>
      <trkpt lat="46.13754" lon="6.46167">
        <ele>582.4</ele>
        <time>2021-06-26T11:52:58Z</time>
      </trkpt>
      <trkpt lat="46.13755" lon="6.46161">
        <ele>582.4</ele>
        <time>2021-06-26T11:52:59Z</time>
      </trkpt>
      <trkpt lat="46.13756" lon="6.46154">
        <ele>582.6</ele>
        <time>2021-06-26T11:53:00Z</time>
      </trkpt>
      <trkpt lat="46.13757" lon="6.46148">
        <ele>582.6</ele>
        <time>2021-06-26T11:53:01Z</time>
      </trkpt>
      <trkpt lat="46.13758" lon="6.46141">
        <ele>582.8</ele>
        <time>2021-06-26T11:53:02Z</time>
      </trkpt>
      <trkpt lat="46.1376" lon="6.46135">
        <ele>583.8</ele>
        <time>2021-06-26T11:53:03Z</time>
      </trkpt>
      <trkpt lat="46.13761" lon="6.46128">
        <ele>584.2</ele>
        <time>2021-06-26T11:53:04Z</time>
      </trkpt>
      <trkpt lat="46.13762" lon="6.46121">
        <ele>584.6</ele>
        <time>2021-06-26T11:53:05Z</time>
      </trkpt>
      <trkpt lat="46.13763" lon="6.46115">
        <ele>585</ele>
        <time>2021-06-26T11:53:06Z</time>
      </trkpt>
      <trkpt lat="46.13764" lon="6.46108">
        <ele>585.2</ele>
        <time>2021-06-26T11:53:07Z</time>
      </trkpt>
      <trkpt lat="46.13765" lon="6.46101">
        <ele>585.4</ele>
        <time>2021-06-26T11:53:08Z</time>
      </trkpt>
      <trkpt lat="46.13767" lon="6.46095">
        <ele>585.6</ele>
        <time>2021-06-26T11:53:09Z</time>
      </trkpt>
      <trkpt lat="46.13768" lon="6.46088">
        <ele>585.6</ele>
        <time>2021-06-26T11:53:10Z</time>
      </trkpt>
      <trkpt lat="46.13769" lon="6.46081">
        <ele>585.6</ele>
        <time>2021-06-26T11:53:11Z</time>
      </trkpt>
      <trkpt lat="46.1377" lon="6.46075">
        <ele>585.8</ele>
        <time>2021-06-26T11:53:12Z</time>
      </trkpt>
      <trkpt lat="46.1377" lon="6.46068">
        <ele>586</ele>
        <time>2021-06-26T11:53:13Z</time>
      </trkpt>
      <trkpt lat="46.13772" lon="6.46062">
        <ele>586.2</ele>
        <time>2021-06-26T11:53:14Z</time>
      </trkpt>
      <trkpt lat="46.13773" lon="6.46055">
        <ele>586.2</ele>
        <time>2021-06-26T11:53:15Z</time>
      </trkpt>
      <trkpt lat="46.13774" lon="6.46049">
        <ele>586.2</ele>
        <time>2021-06-26T11:53:16Z</time>
      </trkpt>
      <trkpt lat="46.13776" lon="6.46043">
        <ele>586.4</ele>
        <time>2021-06-26T11:53:17Z</time>
      </trkpt>
      <trkpt lat="46.13778" lon="6.46037">
        <ele>586.6</ele>
        <time>2021-06-26T11:53:18Z</time>
      </trkpt>
      <trkpt lat="46.1378" lon="6.46031">
        <ele>586.8</ele>
        <time>2021-06-26T11:53:19Z</time>
      </trkpt>
      <trkpt lat="46.13781" lon="6.46025">
        <ele>587</ele>
        <time>2021-06-26T11:53:20Z</time>
      </trkpt>
      <trkpt lat="46.13783" lon="6.4602">
        <ele>587</ele>
        <time>2021-06-26T11:53:21Z</time>
      </trkpt>
      <trkpt lat="46.13785" lon="6.46014">
        <ele>587.2</ele>
        <time>2021-06-26T11:53:22Z</time>
      </trkpt>
      <trkpt lat="46.13788" lon="6.46008">
        <ele>587.4</ele>
        <time>2021-06-26T11:53:23Z</time>
      </trkpt>
      <trkpt lat="46.1379" lon="6.46003">
        <ele>587.8</ele>
        <time>2021-06-26T11:53:24Z</time>
      </trkpt>
      <trkpt lat="46.13792" lon="6.45998">
        <ele>588.2</ele>
        <time>2021-06-26T11:53:25Z</time>
      </trkpt>
      <trkpt lat="46.13794" lon="6.45993">
        <ele>588.4</ele>
        <time>2021-06-26T11:53:26Z</time>
      </trkpt>
      <trkpt lat="46.13796" lon="6.45988">
        <ele>588.6</ele>
        <time>2021-06-26T11:53:27Z</time>
      </trkpt>
      <trkpt lat="46.13798" lon="6.45982">
        <ele>588.6</ele>
        <time>2021-06-26T11:53:28Z</time>
      </trkpt>
      <trkpt lat="46.138" lon="6.45977">
        <ele>588.8</ele>
        <time>2021-06-26T11:53:29Z</time>
      </trkpt>
      <trkpt lat="46.13802" lon="6.45972">
        <ele>589</ele>
        <time>2021-06-26T11:53:30Z</time>
      </trkpt>
      <trkpt lat="46.13804" lon="6.45967">
        <ele>588.8</ele>
        <time>2021-06-26T11:53:31Z</time>
      </trkpt>
      <trkpt lat="46.13806" lon="6.45962">
        <ele>589</ele>
        <time>2021-06-26T11:53:32Z</time>
      </trkpt>
      <trkpt lat="46.13808" lon="6.45957">
        <ele>589.2</ele>
        <time>2021-06-26T11:53:33Z</time>
      </trkpt>
      <trkpt lat="46.13809" lon="6.45952">
        <ele>589.6</ele>
        <time>2021-06-26T11:53:34Z</time>
      </trkpt>
      <trkpt lat="46.13811" lon="6.45948">
        <ele>589.4</ele>
        <time>2021-06-26T11:53:35Z</time>
      </trkpt>
      <trkpt lat="46.13813" lon="6.45944">
        <ele>589.6</ele>
        <time>2021-06-26T11:53:36Z</time>
      </trkpt>
      <trkpt lat="46.13814" lon="6.4594">
        <ele>589.6</ele>
        <time>2021-06-26T11:53:37Z</time>
      </trkpt>
      <trkpt lat="46.13815" lon="6.45935">
        <ele>589.8</ele>
        <time>2021-06-26T11:53:38Z</time>
      </trkpt>
      <trkpt lat="46.13817" lon="6.45931">
        <ele>589.8</ele>
        <time>2021-06-26T11:53:39Z</time>
      </trkpt>
      <trkpt lat="46.13817" lon="6.45925">
        <ele>590</ele>
        <time>2021-06-26T11:53:40Z</time>
      </trkpt>
      <trkpt lat="46.13817" lon="6.45919">
        <ele>590.2</ele>
        <time>2021-06-26T11:53:41Z</time>
      </trkpt>
      <trkpt lat="46.13817" lon="6.45913">
        <ele>590.4</ele>
        <time>2021-06-26T11:53:42Z</time>
      </trkpt>
      <trkpt lat="46.13817" lon="6.45907">
        <ele>590.6</ele>
        <time>2021-06-26T11:53:43Z</time>
      </trkpt>
      <trkpt lat="46.13817" lon="6.45901">
        <ele>590.8</ele>
        <time>2021-06-26T11:53:44Z</time>
      </trkpt>
      <trkpt lat="46.13817" lon="6.45894">
        <ele>591</ele>
        <time>2021-06-26T11:53:45Z</time>
      </trkpt>
      <trkpt lat="46.13818" lon="6.45889">
        <ele>591</ele>
        <time>2021-06-26T11:53:46Z</time>
      </trkpt>
      <trkpt lat="46.13818" lon="6.45883">
        <ele>591.2</ele>
        <time>2021-06-26T11:53:47Z</time>
      </trkpt>
      <trkpt lat="46.13819" lon="6.45877">
        <ele>591.4</ele>
        <time>2021-06-26T11:53:48Z</time>
      </trkpt>
      <trkpt lat="46.13821" lon="6.45872">
        <ele>591.4</ele>
        <time>2021-06-26T11:53:49Z</time>
      </trkpt>
      <trkpt lat="46.13822" lon="6.45866">
        <ele>591.6</ele>
        <time>2021-06-26T11:53:50Z</time>
      </trkpt>
      <trkpt lat="46.13823" lon="6.4586">
        <ele>591.6</ele>
        <time>2021-06-26T11:53:51Z</time>
      </trkpt>
      <trkpt lat="46.13824" lon="6.45854">
        <ele>591.6</ele>
        <time>2021-06-26T11:53:52Z</time>
      </trkpt>
      <trkpt lat="46.13824" lon="6.45847">
        <ele>591.8</ele>
        <time>2021-06-26T11:53:53Z</time>
      </trkpt>
      <trkpt lat="46.13825" lon="6.45841">
        <ele>591.6</ele>
        <time>2021-06-26T11:53:54Z</time>
      </trkpt>
      <trkpt lat="46.13825" lon="6.45835">
        <ele>591.8</ele>
        <time>2021-06-26T11:53:55Z</time>
      </trkpt>
      <trkpt lat="46.13826" lon="6.45829">
        <ele>591.8</ele>
        <time>2021-06-26T11:53:56Z</time>
      </trkpt>
      <trkpt lat="46.13827" lon="6.45824">
        <ele>591.8</ele>
        <time>2021-06-26T11:53:57Z</time>
      </trkpt>
      <trkpt lat="46.13828" lon="6.4582">
        <ele>591.8</ele>
        <time>2021-06-26T11:53:58Z</time>
      </trkpt>
      <trkpt lat="46.13829" lon="6.45817">
        <ele>591.8</ele>
        <time>2021-06-26T11:53:59Z</time>
      </trkpt>
      <trkpt lat="46.13829" lon="6.45816">
        <ele>591.8</ele>
        <time>2021-06-26T11:54:00Z</time>
      </trkpt>
      <trkpt lat="46.13829" lon="6.45815">
        <ele>591.8</ele>
        <time>2021-06-26T11:54:01Z</time>
      </trkpt>
      <trkpt lat="46.13829" lon="6.45814">
        <ele>593.2</ele>
        <time>2021-06-26T11:54:09Z</time>
      </trkpt>
      <trkpt lat="46.1383" lon="6.45815">
        <ele>594.6</ele>
        <time>2021-06-26T11:54:29Z</time>
      </trkpt>
      <trkpt lat="46.13832" lon="6.45815">
        <ele>594.6</ele>
        <time>2021-06-26T11:54:47Z</time>
      </trkpt>
      <trkpt lat="46.13835" lon="6.45816">
        <ele>594.2</ele>
        <time>2021-06-26T11:55:06Z</time>
      </trkpt>
      <trkpt lat="46.13838" lon="6.45816">
        <ele>594.4</ele>
        <time>2021-06-26T11:55:18Z</time>
      </trkpt>
      <trkpt lat="46.13837" lon="6.45816">
        <ele>594.4</ele>
        <time>2021-06-26T11:55:35Z</time>
      </trkpt>
      <trkpt lat="46.13836" lon="6.45815">
        <ele>594.6</ele>
        <time>2021-06-26T11:55:53Z</time>
      </trkpt>
      <trkpt lat="46.13834" lon="6.45815">
        <ele>594.8</ele>
        <time>2021-06-26T11:56:10Z</time>
      </trkpt>
      <trkpt lat="46.13833" lon="6.45816">
        <ele>595.2</ele>
        <time>2021-06-26T11:56:27Z</time>
      </trkpt>
      <trkpt lat="46.13836" lon="6.45806">
        <ele>595</ele>
        <time>2021-06-26T11:56:34Z</time>
      </trkpt>
      <trkpt lat="46.13837" lon="6.45804">
        <ele>595</ele>
        <time>2021-06-26T11:56:35Z</time>
      </trkpt>
      <trkpt lat="46.13838" lon="6.45801">
        <ele>595</ele>
        <time>2021-06-26T11:56:36Z</time>
      </trkpt>
      <trkpt lat="46.13839" lon="6.45793">
        <ele>595</ele>
        <time>2021-06-26T11:56:38Z</time>
      </trkpt>
      <trkpt lat="46.1384" lon="6.4579">
        <ele>595</ele>
        <time>2021-06-26T11:56:39Z</time>
      </trkpt>
      <trkpt lat="46.13842" lon="6.45783">
        <ele>594.6</ele>
        <time>2021-06-26T11:56:41Z</time>
      </trkpt>
      <trkpt lat="46.13843" lon="6.4578">
        <ele>594.8</ele>
        <time>2021-06-26T11:56:42Z</time>
      </trkpt>
      <trkpt lat="46.13845" lon="6.45778">
        <ele>594.8</ele>
        <time>2021-06-26T11:56:43Z</time>
      </trkpt>
      <trkpt lat="46.13846" lon="6.45777">
        <ele>594.8</ele>
        <time>2021-06-26T11:56:44Z</time>
      </trkpt>
      <trkpt lat="46.13848" lon="6.45775">
        <ele>594.6</ele>
        <time>2021-06-26T11:56:45Z</time>
      </trkpt>
      <trkpt lat="46.1385" lon="6.45771">
        <ele>594.8</ele>
        <time>2021-06-26T11:56:46Z</time>
      </trkpt>
      <trkpt lat="46.13853" lon="6.45762">
        <ele>594.6</ele>
        <time>2021-06-26T11:56:48Z</time>
      </trkpt>
      <trkpt lat="46.13854" lon="6.45757">
        <ele>594.6</ele>
        <time>2021-06-26T11:56:49Z</time>
      </trkpt>
      <trkpt lat="46.13855" lon="6.45751">
        <ele>594.8</ele>
        <time>2021-06-26T11:56:50Z</time>
      </trkpt>
      <trkpt lat="46.13857" lon="6.45726">
        <ele>594.4</ele>
        <time>2021-06-26T11:56:54Z</time>
      </trkpt>
      <trkpt lat="46.13858" lon="6.45719">
        <ele>594.4</ele>
        <time>2021-06-26T11:56:55Z</time>
      </trkpt>
      <trkpt lat="46.13858" lon="6.45703">
        <ele>594.4</ele>
        <time>2021-06-26T11:56:57Z</time>
      </trkpt>
      <trkpt lat="46.13858" lon="6.45678">
        <ele>594</ele>
        <time>2021-06-26T11:57:00Z</time>
      </trkpt>
      <trkpt lat="46.13858" lon="6.45669">
        <ele>593.8</ele>
        <time>2021-06-26T11:57:01Z</time>
      </trkpt>
      <trkpt lat="46.13858" lon="6.45625">
        <ele>593.2</ele>
        <time>2021-06-26T11:57:06Z</time>
      </trkpt>
      <trkpt lat="46.13858" lon="6.45616">
        <ele>593</ele>
        <time>2021-06-26T11:57:07Z</time>
      </trkpt>
      <trkpt lat="46.13857" lon="6.45607">
        <ele>593</ele>
        <time>2021-06-26T11:57:08Z</time>
      </trkpt>
      <trkpt lat="46.13857" lon="6.45598">
        <ele>592.8</ele>
        <time>2021-06-26T11:57:09Z</time>
      </trkpt>
      <trkpt lat="46.13853" lon="6.45559">
        <ele>592.6</ele>
        <time>2021-06-26T11:57:13Z</time>
      </trkpt>
      <trkpt lat="46.1385" lon="6.45539">
        <ele>592.2</ele>
        <time>2021-06-26T11:57:15Z</time>
      </trkpt>
      <trkpt lat="46.13841" lon="6.45498">
        <ele>591</ele>
        <time>2021-06-26T11:57:19Z</time>
      </trkpt>
      <trkpt lat="46.13836" lon="6.45479">
        <ele>590.6</ele>
        <time>2021-06-26T11:57:21Z</time>
      </trkpt>
      <trkpt lat="46.1383" lon="6.4546">
        <ele>590.2</ele>
        <time>2021-06-26T11:57:23Z</time>
      </trkpt>
      <trkpt lat="46.13824" lon="6.45441">
        <ele>590</ele>
        <time>2021-06-26T11:57:25Z</time>
      </trkpt>
      <trkpt lat="46.13821" lon="6.45432">
        <ele>589.6</ele>
        <time>2021-06-26T11:57:26Z</time>
      </trkpt>
      <trkpt lat="46.13815" lon="6.45414">
        <ele>589.2</ele>
        <time>2021-06-26T11:57:28Z</time>
      </trkpt>
      <trkpt lat="46.13811" lon="6.45406">
        <ele>589.4</ele>
        <time>2021-06-26T11:57:29Z</time>
      </trkpt>
      <trkpt lat="46.13808" lon="6.45397">
        <ele>589.2</ele>
        <time>2021-06-26T11:57:30Z</time>
      </trkpt>
      <trkpt lat="46.13802" lon="6.45381">
        <ele>589.2</ele>
        <time>2021-06-26T11:57:32Z</time>
      </trkpt>
      <trkpt lat="46.13799" lon="6.45373">
        <ele>589.2</ele>
        <time>2021-06-26T11:57:33Z</time>
      </trkpt>
      <trkpt lat="46.13796" lon="6.45364">
        <ele>589.2</ele>
        <time>2021-06-26T11:57:34Z</time>
      </trkpt>
      <trkpt lat="46.13793" lon="6.45356">
        <ele>588.8</ele>
        <time>2021-06-26T11:57:35Z</time>
      </trkpt>
      <trkpt lat="46.13791" lon="6.45349">
        <ele>588.8</ele>
        <time>2021-06-26T11:57:36Z</time>
      </trkpt>
      <trkpt lat="46.13789" lon="6.45341">
        <ele>588.8</ele>
        <time>2021-06-26T11:57:37Z</time>
      </trkpt>
      <trkpt lat="46.13786" lon="6.45334">
        <ele>588.6</ele>
        <time>2021-06-26T11:57:38Z</time>
      </trkpt>
      <trkpt lat="46.13784" lon="6.45326">
        <ele>588.8</ele>
        <time>2021-06-26T11:57:39Z</time>
      </trkpt>
      <trkpt lat="46.13779" lon="6.45312">
        <ele>588.4</ele>
        <time>2021-06-26T11:57:41Z</time>
      </trkpt>
      <trkpt lat="46.13776" lon="6.45306">
        <ele>588.6</ele>
        <time>2021-06-26T11:57:42Z</time>
      </trkpt>
      <trkpt lat="46.13774" lon="6.45299">
        <ele>588.4</ele>
        <time>2021-06-26T11:57:43Z</time>
      </trkpt>
      <trkpt lat="46.13771" lon="6.45292">
        <ele>588.4</ele>
        <time>2021-06-26T11:57:44Z</time>
      </trkpt>
      <trkpt lat="46.13769" lon="6.45285">
        <ele>588.4</ele>
        <time>2021-06-26T11:57:45Z</time>
      </trkpt>
      <trkpt lat="46.13764" lon="6.45272">
        <ele>588.4</ele>
        <time>2021-06-26T11:57:47Z</time>
      </trkpt>
      <trkpt lat="46.13762" lon="6.45265">
        <ele>588.4</ele>
        <time>2021-06-26T11:57:48Z</time>
      </trkpt>
      <trkpt lat="46.13759" lon="6.45259">
        <ele>588.6</ele>
        <time>2021-06-26T11:57:49Z</time>
      </trkpt>
      <trkpt lat="46.13757" lon="6.45252">
        <ele>588.8</ele>
        <time>2021-06-26T11:57:50Z</time>
      </trkpt>
      <trkpt lat="46.13755" lon="6.45246">
        <ele>588.6</ele>
        <time>2021-06-26T11:57:51Z</time>
      </trkpt>
      <trkpt lat="46.13753" lon="6.4524">
        <ele>588.6</ele>
        <time>2021-06-26T11:57:52Z</time>
      </trkpt>
      <trkpt lat="46.13751" lon="6.45233">
        <ele>588.8</ele>
        <time>2021-06-26T11:57:53Z</time>
      </trkpt>
      <trkpt lat="46.13749" lon="6.45227">
        <ele>589</ele>
        <time>2021-06-26T11:57:54Z</time>
      </trkpt>
      <trkpt lat="46.13744" lon="6.45214">
        <ele>589.2</ele>
        <time>2021-06-26T11:57:56Z</time>
      </trkpt>
      <trkpt lat="46.13742" lon="6.45207">
        <ele>589.6</ele>
        <time>2021-06-26T11:57:57Z</time>
      </trkpt>
      <trkpt lat="46.13735" lon="6.45189">
        <ele>590.2</ele>
        <time>2021-06-26T11:58:00Z</time>
      </trkpt>
      <trkpt lat="46.13733" lon="6.45182">
        <ele>590.4</ele>
        <time>2021-06-26T11:58:01Z</time>
      </trkpt>
      <trkpt lat="46.13731" lon="6.45176">
        <ele>590.4</ele>
        <time>2021-06-26T11:58:02Z</time>
      </trkpt>
      <trkpt lat="46.13729" lon="6.45169">
        <ele>590.6</ele>
        <time>2021-06-26T11:58:03Z</time>
      </trkpt>
      <trkpt lat="46.13726" lon="6.45163">
        <ele>591</ele>
        <time>2021-06-26T11:58:04Z</time>
      </trkpt>
      <trkpt lat="46.13724" lon="6.45156">
        <ele>591.2</ele>
        <time>2021-06-26T11:58:05Z</time>
      </trkpt>
      <trkpt lat="46.13722" lon="6.4515">
        <ele>591.4</ele>
        <time>2021-06-26T11:58:06Z</time>
      </trkpt>
      <trkpt lat="46.1372" lon="6.45143">
        <ele>591.4</ele>
        <time>2021-06-26T11:58:07Z</time>
      </trkpt>
      <trkpt lat="46.13717" lon="6.45137">
        <ele>591.8</ele>
        <time>2021-06-26T11:58:08Z</time>
      </trkpt>
      <trkpt lat="46.13715" lon="6.4513">
        <ele>591.8</ele>
        <time>2021-06-26T11:58:09Z</time>
      </trkpt>
      <trkpt lat="46.13713" lon="6.45123">
        <ele>592.2</ele>
        <time>2021-06-26T11:58:10Z</time>
      </trkpt>
      <trkpt lat="46.13711" lon="6.45117">
        <ele>592.4</ele>
        <time>2021-06-26T11:58:11Z</time>
      </trkpt>
      <trkpt lat="46.13708" lon="6.45111">
        <ele>592.6</ele>
        <time>2021-06-26T11:58:12Z</time>
      </trkpt>
      <trkpt lat="46.13706" lon="6.45105">
        <ele>592.8</ele>
        <time>2021-06-26T11:58:13Z</time>
      </trkpt>
      <trkpt lat="46.13703" lon="6.45098">
        <ele>592.8</ele>
        <time>2021-06-26T11:58:14Z</time>
      </trkpt>
      <trkpt lat="46.13701" lon="6.45092">
        <ele>593</ele>
        <time>2021-06-26T11:58:15Z</time>
      </trkpt>
      <trkpt lat="46.13699" lon="6.45085">
        <ele>593</ele>
        <time>2021-06-26T11:58:16Z</time>
      </trkpt>
      <trkpt lat="46.13697" lon="6.45078">
        <ele>593.2</ele>
        <time>2021-06-26T11:58:17Z</time>
      </trkpt>
      <trkpt lat="46.13694" lon="6.45072">
        <ele>593.2</ele>
        <time>2021-06-26T11:58:18Z</time>
      </trkpt>
      <trkpt lat="46.13692" lon="6.45065">
        <ele>593.2</ele>
        <time>2021-06-26T11:58:19Z</time>
      </trkpt>
      <trkpt lat="46.1369" lon="6.45058">
        <ele>593.6</ele>
        <time>2021-06-26T11:58:20Z</time>
      </trkpt>
      <trkpt lat="46.13688" lon="6.45052">
        <ele>593.6</ele>
        <time>2021-06-26T11:58:21Z</time>
      </trkpt>
      <trkpt lat="46.13686" lon="6.45045">
        <ele>593.8</ele>
        <time>2021-06-26T11:58:22Z</time>
      </trkpt>
      <trkpt lat="46.13683" lon="6.45038">
        <ele>593.8</ele>
        <time>2021-06-26T11:58:23Z</time>
      </trkpt>
      <trkpt lat="46.13681" lon="6.45032">
        <ele>594</ele>
        <time>2021-06-26T11:58:24Z</time>
      </trkpt>
      <trkpt lat="46.13679" lon="6.45025">
        <ele>593.8</ele>
        <time>2021-06-26T11:58:25Z</time>
      </trkpt>
      <trkpt lat="46.13676" lon="6.45018">
        <ele>594</ele>
        <time>2021-06-26T11:58:26Z</time>
      </trkpt>
      <trkpt lat="46.13674" lon="6.45012">
        <ele>594.2</ele>
        <time>2021-06-26T11:58:27Z</time>
      </trkpt>
      <trkpt lat="46.13672" lon="6.45005">
        <ele>594.2</ele>
        <time>2021-06-26T11:58:28Z</time>
      </trkpt>
      <trkpt lat="46.1367" lon="6.44998">
        <ele>594.4</ele>
        <time>2021-06-26T11:58:29Z</time>
      </trkpt>
      <trkpt lat="46.13668" lon="6.44992">
        <ele>594.6</ele>
        <time>2021-06-26T11:58:30Z</time>
      </trkpt>
      <trkpt lat="46.13666" lon="6.44986">
        <ele>594.8</ele>
        <time>2021-06-26T11:58:31Z</time>
      </trkpt>
      <trkpt lat="46.13664" lon="6.4498">
        <ele>594.8</ele>
        <time>2021-06-26T11:58:32Z</time>
      </trkpt>
      <trkpt lat="46.13662" lon="6.44974">
        <ele>594.8</ele>
        <time>2021-06-26T11:58:33Z</time>
      </trkpt>
      <trkpt lat="46.1366" lon="6.44968">
        <ele>594.8</ele>
        <time>2021-06-26T11:58:34Z</time>
      </trkpt>
      <trkpt lat="46.13659" lon="6.44962">
        <ele>595</ele>
        <time>2021-06-26T11:58:35Z</time>
      </trkpt>
      <trkpt lat="46.13657" lon="6.44957">
        <ele>595</ele>
        <time>2021-06-26T11:58:36Z</time>
      </trkpt>
      <trkpt lat="46.13655" lon="6.44951">
        <ele>595</ele>
        <time>2021-06-26T11:58:37Z</time>
      </trkpt>
      <trkpt lat="46.13653" lon="6.44946">
        <ele>595.2</ele>
        <time>2021-06-26T11:58:38Z</time>
      </trkpt>
      <trkpt lat="46.13652" lon="6.4494">
        <ele>595.4</ele>
        <time>2021-06-26T11:58:39Z</time>
      </trkpt>
      <trkpt lat="46.1365" lon="6.44935">
        <ele>595.2</ele>
        <time>2021-06-26T11:58:40Z</time>
      </trkpt>
      <trkpt lat="46.13648" lon="6.4493">
        <ele>595.4</ele>
        <time>2021-06-26T11:58:41Z</time>
      </trkpt>
      <trkpt lat="46.13646" lon="6.44924">
        <ele>595.6</ele>
        <time>2021-06-26T11:58:42Z</time>
      </trkpt>
      <trkpt lat="46.13644" lon="6.44919">
        <ele>595.8</ele>
        <time>2021-06-26T11:58:43Z</time>
      </trkpt>
      <trkpt lat="46.13643" lon="6.44914">
        <ele>596</ele>
        <time>2021-06-26T11:58:44Z</time>
      </trkpt>
      <trkpt lat="46.13641" lon="6.44908">
        <ele>595.8</ele>
        <time>2021-06-26T11:58:45Z</time>
      </trkpt>
      <trkpt lat="46.13639" lon="6.44903">
        <ele>596</ele>
        <time>2021-06-26T11:58:46Z</time>
      </trkpt>
      <trkpt lat="46.13637" lon="6.44897">
        <ele>596.4</ele>
        <time>2021-06-26T11:58:47Z</time>
      </trkpt>
      <trkpt lat="46.13636" lon="6.44892">
        <ele>597</ele>
        <time>2021-06-26T11:58:48Z</time>
      </trkpt>
      <trkpt lat="46.13634" lon="6.44887">
        <ele>597.4</ele>
        <time>2021-06-26T11:58:49Z</time>
      </trkpt>
      <trkpt lat="46.13632" lon="6.44881">
        <ele>597.4</ele>
        <time>2021-06-26T11:58:50Z</time>
      </trkpt>
      <trkpt lat="46.1363" lon="6.44875">
        <ele>597.6</ele>
        <time>2021-06-26T11:58:51Z</time>
      </trkpt>
      <trkpt lat="46.13628" lon="6.4487">
        <ele>597.8</ele>
        <time>2021-06-26T11:58:52Z</time>
      </trkpt>
      <trkpt lat="46.13626" lon="6.44864">
        <ele>598</ele>
        <time>2021-06-26T11:58:53Z</time>
      </trkpt>
      <trkpt lat="46.13624" lon="6.44859">
        <ele>598</ele>
        <time>2021-06-26T11:58:54Z</time>
      </trkpt>
      <trkpt lat="46.13623" lon="6.44853">
        <ele>598.2</ele>
        <time>2021-06-26T11:58:55Z</time>
      </trkpt>
      <trkpt lat="46.13621" lon="6.44848">
        <ele>598.4</ele>
        <time>2021-06-26T11:58:56Z</time>
      </trkpt>
      <trkpt lat="46.13619" lon="6.44842">
        <ele>598.6</ele>
        <time>2021-06-26T11:58:57Z</time>
      </trkpt>
      <trkpt lat="46.13617" lon="6.44837">
        <ele>598.6</ele>
        <time>2021-06-26T11:58:58Z</time>
      </trkpt>
      <trkpt lat="46.13615" lon="6.44831">
        <ele>598.6</ele>
        <time>2021-06-26T11:58:59Z</time>
      </trkpt>
      <trkpt lat="46.13613" lon="6.44826">
        <ele>598.8</ele>
        <time>2021-06-26T11:59:00Z</time>
      </trkpt>
      <trkpt lat="46.13611" lon="6.44821">
        <ele>599</ele>
        <time>2021-06-26T11:59:01Z</time>
      </trkpt>
      <trkpt lat="46.13609" lon="6.44816">
        <ele>599.2</ele>
        <time>2021-06-26T11:59:02Z</time>
      </trkpt>
      <trkpt lat="46.13607" lon="6.4481">
        <ele>599.4</ele>
        <time>2021-06-26T11:59:03Z</time>
      </trkpt>
      <trkpt lat="46.13606" lon="6.44805">
        <ele>599.6</ele>
        <time>2021-06-26T11:59:04Z</time>
      </trkpt>
      <trkpt lat="46.13604" lon="6.448">
        <ele>599.6</ele>
        <time>2021-06-26T11:59:05Z</time>
      </trkpt>
      <trkpt lat="46.13603" lon="6.44794">
        <ele>599.6</ele>
        <time>2021-06-26T11:59:06Z</time>
      </trkpt>
      <trkpt lat="46.13601" lon="6.44788">
        <ele>599.8</ele>
        <time>2021-06-26T11:59:07Z</time>
      </trkpt>
      <trkpt lat="46.136" lon="6.44783">
        <ele>600</ele>
        <time>2021-06-26T11:59:08Z</time>
      </trkpt>
      <trkpt lat="46.13598" lon="6.44777">
        <ele>600.2</ele>
        <time>2021-06-26T11:59:09Z</time>
      </trkpt>
      <trkpt lat="46.13597" lon="6.44772">
        <ele>600.2</ele>
        <time>2021-06-26T11:59:10Z</time>
      </trkpt>
      <trkpt lat="46.13595" lon="6.44766">
        <ele>600.4</ele>
        <time>2021-06-26T11:59:11Z</time>
      </trkpt>
      <trkpt lat="46.13594" lon="6.4476">
        <ele>600.6</ele>
        <time>2021-06-26T11:59:12Z</time>
      </trkpt>
      <trkpt lat="46.13593" lon="6.44754">
        <ele>600.6</ele>
        <time>2021-06-26T11:59:13Z</time>
      </trkpt>
      <trkpt lat="46.13591" lon="6.44749">
        <ele>600.6</ele>
        <time>2021-06-26T11:59:14Z</time>
      </trkpt>
      <trkpt lat="46.1359" lon="6.44743">
        <ele>600.8</ele>
        <time>2021-06-26T11:59:15Z</time>
      </trkpt>
      <trkpt lat="46.13589" lon="6.44737">
        <ele>600.8</ele>
        <time>2021-06-26T11:59:16Z</time>
      </trkpt>
      <trkpt lat="46.13588" lon="6.44731">
        <ele>600.8</ele>
        <time>2021-06-26T11:59:17Z</time>
      </trkpt>
      <trkpt lat="46.13586" lon="6.44726">
        <ele>601</ele>
        <time>2021-06-26T11:59:18Z</time>
      </trkpt>
      <trkpt lat="46.13585" lon="6.4472">
        <ele>601</ele>
        <time>2021-06-26T11:59:19Z</time>
      </trkpt>
      <trkpt lat="46.13584" lon="6.44715">
        <ele>601.4</ele>
        <time>2021-06-26T11:59:20Z</time>
      </trkpt>
      <trkpt lat="46.13583" lon="6.44709">
        <ele>601.6</ele>
        <time>2021-06-26T11:59:21Z</time>
      </trkpt>
      <trkpt lat="46.13582" lon="6.44703">
        <ele>601.8</ele>
        <time>2021-06-26T11:59:22Z</time>
      </trkpt>
      <trkpt lat="46.13581" lon="6.44697">
        <ele>601.8</ele>
        <time>2021-06-26T11:59:23Z</time>
      </trkpt>
      <trkpt lat="46.13579" lon="6.44691">
        <ele>601.8</ele>
        <time>2021-06-26T11:59:24Z</time>
      </trkpt>
      <trkpt lat="46.13578" lon="6.44685">
        <ele>602</ele>
        <time>2021-06-26T11:59:25Z</time>
      </trkpt>
      <trkpt lat="46.13577" lon="6.4468">
        <ele>601.8</ele>
        <time>2021-06-26T11:59:26Z</time>
      </trkpt>
      <trkpt lat="46.13576" lon="6.44674">
        <ele>601.8</ele>
        <time>2021-06-26T11:59:27Z</time>
      </trkpt>
      <trkpt lat="46.13575" lon="6.44668">
        <ele>602</ele>
        <time>2021-06-26T11:59:28Z</time>
      </trkpt>
      <trkpt lat="46.13566" lon="6.44627">
        <ele>602.6</ele>
        <time>2021-06-26T11:59:35Z</time>
      </trkpt>
      <trkpt lat="46.13565" lon="6.44621">
        <ele>602.4</ele>
        <time>2021-06-26T11:59:36Z</time>
      </trkpt>
      <trkpt lat="46.13564" lon="6.44615">
        <ele>602.8</ele>
        <time>2021-06-26T11:59:37Z</time>
      </trkpt>
      <trkpt lat="46.13563" lon="6.44609">
        <ele>603</ele>
        <time>2021-06-26T11:59:38Z</time>
      </trkpt>
      <trkpt lat="46.13561" lon="6.44603">
        <ele>603</ele>
        <time>2021-06-26T11:59:39Z</time>
      </trkpt>
      <trkpt lat="46.1356" lon="6.44598">
        <ele>603.4</ele>
        <time>2021-06-26T11:59:40Z</time>
      </trkpt>
      <trkpt lat="46.13559" lon="6.44592">
        <ele>603.4</ele>
        <time>2021-06-26T11:59:41Z</time>
      </trkpt>
      <trkpt lat="46.13558" lon="6.44586">
        <ele>603.6</ele>
        <time>2021-06-26T11:59:42Z</time>
      </trkpt>
      <trkpt lat="46.13557" lon="6.4458">
        <ele>603.8</ele>
        <time>2021-06-26T11:59:43Z</time>
      </trkpt>
      <trkpt lat="46.13555" lon="6.44574">
        <ele>604</ele>
        <time>2021-06-26T11:59:44Z</time>
      </trkpt>
      <trkpt lat="46.13554" lon="6.44569">
        <ele>604</ele>
        <time>2021-06-26T11:59:45Z</time>
      </trkpt>
      <trkpt lat="46.13553" lon="6.44563">
        <ele>604.4</ele>
        <time>2021-06-26T11:59:46Z</time>
      </trkpt>
      <trkpt lat="46.13552" lon="6.44557">
        <ele>604.4</ele>
        <time>2021-06-26T11:59:47Z</time>
      </trkpt>
      <trkpt lat="46.13551" lon="6.44552">
        <ele>604.6</ele>
        <time>2021-06-26T11:59:48Z</time>
      </trkpt>
      <trkpt lat="46.1355" lon="6.44546">
        <ele>604.6</ele>
        <time>2021-06-26T11:59:49Z</time>
      </trkpt>
      <trkpt lat="46.13548" lon="6.44541">
        <ele>604.8</ele>
        <time>2021-06-26T11:59:50Z</time>
      </trkpt>
      <trkpt lat="46.13547" lon="6.44535">
        <ele>605.2</ele>
        <time>2021-06-26T11:59:51Z</time>
      </trkpt>
      <trkpt lat="46.13546" lon="6.44529">
        <ele>605.4</ele>
        <time>2021-06-26T11:59:52Z</time>
      </trkpt>
      <trkpt lat="46.13545" lon="6.44523">
        <ele>605.4</ele>
        <time>2021-06-26T11:59:53Z</time>
      </trkpt>
      <trkpt lat="46.13543" lon="6.44518">
        <ele>605.6</ele>
        <time>2021-06-26T11:59:54Z</time>
      </trkpt>
      <trkpt lat="46.13542" lon="6.44512">
        <ele>605.6</ele>
        <time>2021-06-26T11:59:55Z</time>
      </trkpt>
      <trkpt lat="46.13541" lon="6.44506">
        <ele>605.8</ele>
        <time>2021-06-26T11:59:56Z</time>
      </trkpt>
      <trkpt lat="46.1354" lon="6.445">
        <ele>605.6</ele>
        <time>2021-06-26T11:59:57Z</time>
      </trkpt>
      <trkpt lat="46.13538" lon="6.44494">
        <ele>606</ele>
        <time>2021-06-26T11:59:58Z</time>
      </trkpt>
      <trkpt lat="46.13537" lon="6.44488">
        <ele>606</ele>
        <time>2021-06-26T11:59:59Z</time>
      </trkpt>
      <trkpt lat="46.13536" lon="6.44482">
        <ele>606</ele>
        <time>2021-06-26T12:00:00Z</time>
      </trkpt>
      <trkpt lat="46.13535" lon="6.44476">
        <ele>606.2</ele>
        <time>2021-06-26T12:00:01Z</time>
      </trkpt>
      <trkpt lat="46.13533" lon="6.4447">
        <ele>606.2</ele>
        <time>2021-06-26T12:00:02Z</time>
      </trkpt>
      <trkpt lat="46.13532" lon="6.44464">
        <ele>606.4</ele>
        <time>2021-06-26T12:00:03Z</time>
      </trkpt>
      <trkpt lat="46.13531" lon="6.44458">
        <ele>606.6</ele>
        <time>2021-06-26T12:00:04Z</time>
      </trkpt>
      <trkpt lat="46.1353" lon="6.44452">
        <ele>606.6</ele>
        <time>2021-06-26T12:00:05Z</time>
      </trkpt>
      <trkpt lat="46.13528" lon="6.44446">
        <ele>607</ele>
        <time>2021-06-26T12:00:06Z</time>
      </trkpt>
      <trkpt lat="46.13527" lon="6.4444">
        <ele>607</ele>
        <time>2021-06-26T12:00:07Z</time>
      </trkpt>
      <trkpt lat="46.13526" lon="6.44434">
        <ele>607.4</ele>
        <time>2021-06-26T12:00:08Z</time>
      </trkpt>
      <trkpt lat="46.13524" lon="6.44428">
        <ele>607.4</ele>
        <time>2021-06-26T12:00:09Z</time>
      </trkpt>
      <trkpt lat="46.13523" lon="6.44422">
        <ele>607.6</ele>
        <time>2021-06-26T12:00:10Z</time>
      </trkpt>
      <trkpt lat="46.13522" lon="6.44417">
        <ele>607.8</ele>
        <time>2021-06-26T12:00:11Z</time>
      </trkpt>
      <trkpt lat="46.13521" lon="6.44411">
        <ele>608</ele>
        <time>2021-06-26T12:00:12Z</time>
      </trkpt>
      <trkpt lat="46.1352" lon="6.44405">
        <ele>608</ele>
        <time>2021-06-26T12:00:13Z</time>
      </trkpt>
      <trkpt lat="46.13518" lon="6.44399">
        <ele>608.2</ele>
        <time>2021-06-26T12:00:14Z</time>
      </trkpt>
      <trkpt lat="46.13517" lon="6.44394">
        <ele>608.4</ele>
        <time>2021-06-26T12:00:15Z</time>
      </trkpt>
      <trkpt lat="46.13516" lon="6.44388">
        <ele>608.4</ele>
        <time>2021-06-26T12:00:16Z</time>
      </trkpt>
      <trkpt lat="46.13515" lon="6.44382">
        <ele>608.4</ele>
        <time>2021-06-26T12:00:17Z</time>
      </trkpt>
      <trkpt lat="46.13514" lon="6.44376">
        <ele>608.6</ele>
        <time>2021-06-26T12:00:18Z</time>
      </trkpt>
      <trkpt lat="46.13513" lon="6.4437">
        <ele>608.6</ele>
        <time>2021-06-26T12:00:19Z</time>
      </trkpt>
      <trkpt lat="46.13512" lon="6.44364">
        <ele>608.6</ele>
        <time>2021-06-26T12:00:20Z</time>
      </trkpt>
      <trkpt lat="46.13511" lon="6.44358">
        <ele>608.8</ele>
        <time>2021-06-26T12:00:21Z</time>
      </trkpt>
      <trkpt lat="46.1351" lon="6.44352">
        <ele>609</ele>
        <time>2021-06-26T12:00:22Z</time>
      </trkpt>
      <trkpt lat="46.13509" lon="6.44346">
        <ele>609.2</ele>
        <time>2021-06-26T12:00:23Z</time>
      </trkpt>
      <trkpt lat="46.13509" lon="6.4434">
        <ele>609.2</ele>
        <time>2021-06-26T12:00:24Z</time>
      </trkpt>
      <trkpt lat="46.13508" lon="6.44334">
        <ele>609.2</ele>
        <time>2021-06-26T12:00:25Z</time>
      </trkpt>
      <trkpt lat="46.13507" lon="6.44328">
        <ele>609.2</ele>
        <time>2021-06-26T12:00:26Z</time>
      </trkpt>
      <trkpt lat="46.13507" lon="6.44323">
        <ele>609.6</ele>
        <time>2021-06-26T12:00:27Z</time>
      </trkpt>
      <trkpt lat="46.13507" lon="6.44317">
        <ele>610</ele>
        <time>2021-06-26T12:00:28Z</time>
      </trkpt>
      <trkpt lat="46.13507" lon="6.44311">
        <ele>610.2</ele>
        <time>2021-06-26T12:00:29Z</time>
      </trkpt>
      <trkpt lat="46.13507" lon="6.44305">
        <ele>610.4</ele>
        <time>2021-06-26T12:00:30Z</time>
      </trkpt>
      <trkpt lat="46.13508" lon="6.44299">
        <ele>610.6</ele>
        <time>2021-06-26T12:00:31Z</time>
      </trkpt>
      <trkpt lat="46.13508" lon="6.44293">
        <ele>610.8</ele>
        <time>2021-06-26T12:00:32Z</time>
      </trkpt>
      <trkpt lat="46.13509" lon="6.44287">
        <ele>610.8</ele>
        <time>2021-06-26T12:00:33Z</time>
      </trkpt>
      <trkpt lat="46.1351" lon="6.4428">
        <ele>610.8</ele>
        <time>2021-06-26T12:00:34Z</time>
      </trkpt>
      <trkpt lat="46.13511" lon="6.44274">
        <ele>611</ele>
        <time>2021-06-26T12:00:35Z</time>
      </trkpt>
      <trkpt lat="46.13512" lon="6.44268">
        <ele>611</ele>
        <time>2021-06-26T12:00:36Z</time>
      </trkpt>
      <trkpt lat="46.13513" lon="6.44262">
        <ele>611</ele>
        <time>2021-06-26T12:00:37Z</time>
      </trkpt>
      <trkpt lat="46.13514" lon="6.44256">
        <ele>611.2</ele>
        <time>2021-06-26T12:00:38Z</time>
      </trkpt>
      <trkpt lat="46.13515" lon="6.4425">
        <ele>611.4</ele>
        <time>2021-06-26T12:00:39Z</time>
      </trkpt>
      <trkpt lat="46.13516" lon="6.44244">
        <ele>611.6</ele>
        <time>2021-06-26T12:00:40Z</time>
      </trkpt>
      <trkpt lat="46.13517" lon="6.44238">
        <ele>611.4</ele>
        <time>2021-06-26T12:00:41Z</time>
      </trkpt>
      <trkpt lat="46.13518" lon="6.44231">
        <ele>611.6</ele>
        <time>2021-06-26T12:00:42Z</time>
      </trkpt>
      <trkpt lat="46.13519" lon="6.44225">
        <ele>611.6</ele>
        <time>2021-06-26T12:00:43Z</time>
      </trkpt>
      <trkpt lat="46.13523" lon="6.44207">
        <ele>611.8</ele>
        <time>2021-06-26T12:00:46Z</time>
      </trkpt>
      <trkpt lat="46.13525" lon="6.44194">
        <ele>612</ele>
        <time>2021-06-26T12:00:48Z</time>
      </trkpt>
      <trkpt lat="46.13527" lon="6.44188">
        <ele>612</ele>
        <time>2021-06-26T12:00:49Z</time>
      </trkpt>
      <trkpt lat="46.13533" lon="6.44153">
        <ele>612.4</ele>
        <time>2021-06-26T12:00:54Z</time>
      </trkpt>
      <trkpt lat="46.13535" lon="6.44147">
        <ele>612.4</ele>
        <time>2021-06-26T12:00:55Z</time>
      </trkpt>
      <trkpt lat="46.13544" lon="6.44097">
        <ele>612.8</ele>
        <time>2021-06-26T12:01:02Z</time>
      </trkpt>
      <trkpt lat="46.13545" lon="6.4409">
        <ele>612.8</ele>
        <time>2021-06-26T12:01:03Z</time>
      </trkpt>
      <trkpt lat="46.13555" lon="6.44028">
        <ele>613.4</ele>
        <time>2021-06-26T12:01:11Z</time>
      </trkpt>
      <trkpt lat="46.13563" lon="6.43983">
        <ele>614.2</ele>
        <time>2021-06-26T12:01:17Z</time>
      </trkpt>
      <trkpt lat="46.13567" lon="6.43961">
        <ele>614.2</ele>
        <time>2021-06-26T12:01:20Z</time>
      </trkpt>
      <trkpt lat="46.13576" lon="6.43917">
        <ele>614.6</ele>
        <time>2021-06-26T12:01:26Z</time>
      </trkpt>
      <trkpt lat="46.13577" lon="6.4391">
        <ele>615</ele>
        <time>2021-06-26T12:01:27Z</time>
      </trkpt>
      <trkpt lat="46.13578" lon="6.43903">
        <ele>614.8</ele>
        <time>2021-06-26T12:01:28Z</time>
      </trkpt>
      <trkpt lat="46.1358" lon="6.43896">
        <ele>615</ele>
        <time>2021-06-26T12:01:29Z</time>
      </trkpt>
      <trkpt lat="46.13581" lon="6.43889">
        <ele>615.2</ele>
        <time>2021-06-26T12:01:30Z</time>
      </trkpt>
      <trkpt lat="46.13582" lon="6.43882">
        <ele>615.2</ele>
        <time>2021-06-26T12:01:31Z</time>
      </trkpt>
      <trkpt lat="46.13582" lon="6.43875">
        <ele>615.2</ele>
        <time>2021-06-26T12:01:32Z</time>
      </trkpt>
      <trkpt lat="46.13581" lon="6.43868">
        <ele>615.2</ele>
        <time>2021-06-26T12:01:33Z</time>
      </trkpt>
      <trkpt lat="46.13579" lon="6.43861">
        <ele>615.6</ele>
        <time>2021-06-26T12:01:34Z</time>
      </trkpt>
      <trkpt lat="46.13577" lon="6.43855">
        <ele>615.4</ele>
        <time>2021-06-26T12:01:35Z</time>
      </trkpt>
      <trkpt lat="46.13575" lon="6.43849">
        <ele>615.4</ele>
        <time>2021-06-26T12:01:36Z</time>
      </trkpt>
      <trkpt lat="46.13573" lon="6.43844">
        <ele>615.6</ele>
        <time>2021-06-26T12:01:37Z</time>
      </trkpt>
      <trkpt lat="46.13571" lon="6.43838">
        <ele>615.8</ele>
        <time>2021-06-26T12:01:38Z</time>
      </trkpt>
      <trkpt lat="46.13565" lon="6.4381">
        <ele>616.2</ele>
        <time>2021-06-26T12:01:42Z</time>
      </trkpt>
      <trkpt lat="46.13564" lon="6.43803">
        <ele>616.2</ele>
        <time>2021-06-26T12:01:43Z</time>
      </trkpt>
      <trkpt lat="46.13563" lon="6.43795">
        <ele>616.4</ele>
        <time>2021-06-26T12:01:44Z</time>
      </trkpt>
      <trkpt lat="46.13562" lon="6.43787">
        <ele>616.8</ele>
        <time>2021-06-26T12:01:45Z</time>
      </trkpt>
      <trkpt lat="46.13562" lon="6.43779">
        <ele>617</ele>
        <time>2021-06-26T12:01:46Z</time>
      </trkpt>
      <trkpt lat="46.13561" lon="6.43771">
        <ele>617</ele>
        <time>2021-06-26T12:01:47Z</time>
      </trkpt>
      <trkpt lat="46.1356" lon="6.43763">
        <ele>617.2</ele>
        <time>2021-06-26T12:01:48Z</time>
      </trkpt>
      <trkpt lat="46.1356" lon="6.43755">
        <ele>617.2</ele>
        <time>2021-06-26T12:01:49Z</time>
      </trkpt>
      <trkpt lat="46.13559" lon="6.43747">
        <ele>617.2</ele>
        <time>2021-06-26T12:01:50Z</time>
      </trkpt>
      <trkpt lat="46.13559" lon="6.43739">
        <ele>617.4</ele>
        <time>2021-06-26T12:01:51Z</time>
      </trkpt>
      <trkpt lat="46.13559" lon="6.43732">
        <ele>617.4</ele>
        <time>2021-06-26T12:01:52Z</time>
      </trkpt>
      <trkpt lat="46.13558" lon="6.43725">
        <ele>617.4</ele>
        <time>2021-06-26T12:01:53Z</time>
      </trkpt>
      <trkpt lat="46.13557" lon="6.43718">
        <ele>617.4</ele>
        <time>2021-06-26T12:01:54Z</time>
      </trkpt>
      <trkpt lat="46.13557" lon="6.43711">
        <ele>617.4</ele>
        <time>2021-06-26T12:01:55Z</time>
      </trkpt>
      <trkpt lat="46.13556" lon="6.43705">
        <ele>617.6</ele>
        <time>2021-06-26T12:01:56Z</time>
      </trkpt>
      <trkpt lat="46.13556" lon="6.43698">
        <ele>617.6</ele>
        <time>2021-06-26T12:01:57Z</time>
      </trkpt>
      <trkpt lat="46.13558" lon="6.43678">
        <ele>617.8</ele>
        <time>2021-06-26T12:02:00Z</time>
      </trkpt>
      <trkpt lat="46.1356" lon="6.43671">
        <ele>617.8</ele>
        <time>2021-06-26T12:02:01Z</time>
      </trkpt>
      <trkpt lat="46.13561" lon="6.43665">
        <ele>617.8</ele>
        <time>2021-06-26T12:02:02Z</time>
      </trkpt>
      <trkpt lat="46.13564" lon="6.4366">
        <ele>617.8</ele>
        <time>2021-06-26T12:02:03Z</time>
      </trkpt>
      <trkpt lat="46.13566" lon="6.43656">
        <ele>617.8</ele>
        <time>2021-06-26T12:02:04Z</time>
      </trkpt>
      <trkpt lat="46.13568" lon="6.43652">
        <ele>618</ele>
        <time>2021-06-26T12:02:05Z</time>
      </trkpt>
      <trkpt lat="46.1357" lon="6.43649">
        <ele>618</ele>
        <time>2021-06-26T12:02:06Z</time>
      </trkpt>
      <trkpt lat="46.13572" lon="6.43646">
        <ele>617.8</ele>
        <time>2021-06-26T12:02:07Z</time>
      </trkpt>
      <trkpt lat="46.13574" lon="6.43643">
        <ele>617.8</ele>
        <time>2021-06-26T12:02:08Z</time>
      </trkpt>
      <trkpt lat="46.13576" lon="6.4364">
        <ele>618</ele>
        <time>2021-06-26T12:02:09Z</time>
      </trkpt>
      <trkpt lat="46.13577" lon="6.43638">
        <ele>618.4</ele>
        <time>2021-06-26T12:02:10Z</time>
      </trkpt>
      <trkpt lat="46.13579" lon="6.43636">
        <ele>618.4</ele>
        <time>2021-06-26T12:02:11Z</time>
      </trkpt>
      <trkpt lat="46.13581" lon="6.43634">
        <ele>619</ele>
        <time>2021-06-26T12:02:12Z</time>
      </trkpt>
      <trkpt lat="46.13583" lon="6.43631">
        <ele>619.4</ele>
        <time>2021-06-26T12:02:13Z</time>
      </trkpt>
      <trkpt lat="46.13585" lon="6.4363">
        <ele>620</ele>
        <time>2021-06-26T12:02:14Z</time>
      </trkpt>
      <trkpt lat="46.13587" lon="6.43627">
        <ele>620.4</ele>
        <time>2021-06-26T12:02:15Z</time>
      </trkpt>
      <trkpt lat="46.13589" lon="6.43626">
        <ele>621</ele>
        <time>2021-06-26T12:02:16Z</time>
      </trkpt>
      <trkpt lat="46.1359" lon="6.43624">
        <ele>621</ele>
        <time>2021-06-26T12:02:17Z</time>
      </trkpt>
      <trkpt lat="46.13592" lon="6.43622">
        <ele>621.2</ele>
        <time>2021-06-26T12:02:18Z</time>
      </trkpt>
      <trkpt lat="46.13594" lon="6.4362">
        <ele>621.6</ele>
        <time>2021-06-26T12:02:19Z</time>
      </trkpt>
      <trkpt lat="46.13596" lon="6.43618">
        <ele>622.2</ele>
        <time>2021-06-26T12:02:20Z</time>
      </trkpt>
      <trkpt lat="46.13597" lon="6.43616">
        <ele>622.4</ele>
        <time>2021-06-26T12:02:21Z</time>
      </trkpt>
      <trkpt lat="46.13599" lon="6.43614">
        <ele>622.6</ele>
        <time>2021-06-26T12:02:22Z</time>
      </trkpt>
      <trkpt lat="46.136" lon="6.43612">
        <ele>623</ele>
        <time>2021-06-26T12:02:23Z</time>
      </trkpt>
      <trkpt lat="46.13602" lon="6.4361">
        <ele>623.4</ele>
        <time>2021-06-26T12:02:24Z</time>
      </trkpt>
      <trkpt lat="46.13604" lon="6.43608">
        <ele>623.6</ele>
        <time>2021-06-26T12:02:25Z</time>
      </trkpt>
      <trkpt lat="46.13606" lon="6.43604">
        <ele>623.8</ele>
        <time>2021-06-26T12:02:26Z</time>
      </trkpt>
      <trkpt lat="46.13608" lon="6.43601">
        <ele>624.4</ele>
        <time>2021-06-26T12:02:27Z</time>
      </trkpt>
      <trkpt lat="46.1361" lon="6.43598">
        <ele>624.6</ele>
        <time>2021-06-26T12:02:28Z</time>
      </trkpt>
      <trkpt lat="46.13611" lon="6.43594">
        <ele>624.8</ele>
        <time>2021-06-26T12:02:29Z</time>
      </trkpt>
      <trkpt lat="46.13613" lon="6.43591">
        <ele>625</ele>
        <time>2021-06-26T12:02:30Z</time>
      </trkpt>
      <trkpt lat="46.13614" lon="6.43588">
        <ele>625.2</ele>
        <time>2021-06-26T12:02:31Z</time>
      </trkpt>
      <trkpt lat="46.13616" lon="6.43585">
        <ele>625.8</ele>
        <time>2021-06-26T12:02:32Z</time>
      </trkpt>
      <trkpt lat="46.13617" lon="6.43581">
        <ele>626.2</ele>
        <time>2021-06-26T12:02:33Z</time>
      </trkpt>
      <trkpt lat="46.13617" lon="6.43577">
        <ele>626.4</ele>
        <time>2021-06-26T12:02:34Z</time>
      </trkpt>
      <trkpt lat="46.13618" lon="6.43573">
        <ele>626.6</ele>
        <time>2021-06-26T12:02:35Z</time>
      </trkpt>
      <trkpt lat="46.13619" lon="6.43569">
        <ele>626.8</ele>
        <time>2021-06-26T12:02:36Z</time>
      </trkpt>
      <trkpt lat="46.13619" lon="6.43565">
        <ele>627.2</ele>
        <time>2021-06-26T12:02:37Z</time>
      </trkpt>
      <trkpt lat="46.1362" lon="6.4356">
        <ele>627.6</ele>
        <time>2021-06-26T12:02:38Z</time>
      </trkpt>
      <trkpt lat="46.1362" lon="6.43555">
        <ele>627.6</ele>
        <time>2021-06-26T12:02:39Z</time>
      </trkpt>
      <trkpt lat="46.1362" lon="6.43551">
        <ele>627.8</ele>
        <time>2021-06-26T12:02:40Z</time>
      </trkpt>
      <trkpt lat="46.1362" lon="6.43546">
        <ele>628</ele>
        <time>2021-06-26T12:02:41Z</time>
      </trkpt>
      <trkpt lat="46.13619" lon="6.43542">
        <ele>628.2</ele>
        <time>2021-06-26T12:02:42Z</time>
      </trkpt>
      <trkpt lat="46.13619" lon="6.43538">
        <ele>628.4</ele>
        <time>2021-06-26T12:02:43Z</time>
      </trkpt>
      <trkpt lat="46.13619" lon="6.43534">
        <ele>628.6</ele>
        <time>2021-06-26T12:02:44Z</time>
      </trkpt>
      <trkpt lat="46.13618" lon="6.4353">
        <ele>628.8</ele>
        <time>2021-06-26T12:02:45Z</time>
      </trkpt>
      <trkpt lat="46.13617" lon="6.43526">
        <ele>629.2</ele>
        <time>2021-06-26T12:02:46Z</time>
      </trkpt>
      <trkpt lat="46.13616" lon="6.43522">
        <ele>629.6</ele>
        <time>2021-06-26T12:02:47Z</time>
      </trkpt>
      <trkpt lat="46.13614" lon="6.43519">
        <ele>629.8</ele>
        <time>2021-06-26T12:02:48Z</time>
      </trkpt>
      <trkpt lat="46.13612" lon="6.43515">
        <ele>630</ele>
        <time>2021-06-26T12:02:49Z</time>
      </trkpt>
      <trkpt lat="46.1361" lon="6.43512">
        <ele>630.2</ele>
        <time>2021-06-26T12:02:50Z</time>
      </trkpt>
      <trkpt lat="46.13608" lon="6.43509">
        <ele>630.6</ele>
        <time>2021-06-26T12:02:51Z</time>
      </trkpt>
      <trkpt lat="46.13606" lon="6.43506">
        <ele>630.6</ele>
        <time>2021-06-26T12:02:52Z</time>
      </trkpt>
      <trkpt lat="46.13604" lon="6.43503">
        <ele>630.8</ele>
        <time>2021-06-26T12:02:53Z</time>
      </trkpt>
      <trkpt lat="46.13602" lon="6.435">
        <ele>631</ele>
        <time>2021-06-26T12:02:54Z</time>
      </trkpt>
      <trkpt lat="46.136" lon="6.43497">
        <ele>631.2</ele>
        <time>2021-06-26T12:02:55Z</time>
      </trkpt>
      <trkpt lat="46.13597" lon="6.43495">
        <ele>631.4</ele>
        <time>2021-06-26T12:02:56Z</time>
      </trkpt>
      <trkpt lat="46.13595" lon="6.43492">
        <ele>631.4</ele>
        <time>2021-06-26T12:02:57Z</time>
      </trkpt>
      <trkpt lat="46.13592" lon="6.4349">
        <ele>631.4</ele>
        <time>2021-06-26T12:02:58Z</time>
      </trkpt>
      <trkpt lat="46.1359" lon="6.43487">
        <ele>631.8</ele>
        <time>2021-06-26T12:02:59Z</time>
      </trkpt>
      <trkpt lat="46.13588" lon="6.43484">
        <ele>632</ele>
        <time>2021-06-26T12:03:00Z</time>
      </trkpt>
      <trkpt lat="46.13586" lon="6.43481">
        <ele>632.2</ele>
        <time>2021-06-26T12:03:01Z</time>
      </trkpt>
      <trkpt lat="46.13583" lon="6.43478">
        <ele>632.2</ele>
        <time>2021-06-26T12:03:02Z</time>
      </trkpt>
      <trkpt lat="46.13581" lon="6.43475">
        <ele>632.4</ele>
        <time>2021-06-26T12:03:03Z</time>
      </trkpt>
      <trkpt lat="46.13578" lon="6.43472">
        <ele>633</ele>
        <time>2021-06-26T12:03:04Z</time>
      </trkpt>
      <trkpt lat="46.13576" lon="6.43469">
        <ele>633.2</ele>
        <time>2021-06-26T12:03:05Z</time>
      </trkpt>
      <trkpt lat="46.13573" lon="6.43466">
        <ele>633.2</ele>
        <time>2021-06-26T12:03:06Z</time>
      </trkpt>
      <trkpt lat="46.13571" lon="6.43462">
        <ele>633.4</ele>
        <time>2021-06-26T12:03:07Z</time>
      </trkpt>
      <trkpt lat="46.13568" lon="6.43459">
        <ele>633.8</ele>
        <time>2021-06-26T12:03:08Z</time>
      </trkpt>
      <trkpt lat="46.13566" lon="6.43456">
        <ele>633.8</ele>
        <time>2021-06-26T12:03:09Z</time>
      </trkpt>
      <trkpt lat="46.13564" lon="6.43453">
        <ele>634</ele>
        <time>2021-06-26T12:03:10Z</time>
      </trkpt>
      <trkpt lat="46.13561" lon="6.4345">
        <ele>634</ele>
        <time>2021-06-26T12:03:11Z</time>
      </trkpt>
      <trkpt lat="46.13559" lon="6.43447">
        <ele>634.4</ele>
        <time>2021-06-26T12:03:12Z</time>
      </trkpt>
      <trkpt lat="46.13556" lon="6.43445">
        <ele>634.6</ele>
        <time>2021-06-26T12:03:13Z</time>
      </trkpt>
      <trkpt lat="46.13554" lon="6.43442">
        <ele>634.8</ele>
        <time>2021-06-26T12:03:14Z</time>
      </trkpt>
      <trkpt lat="46.13552" lon="6.43439">
        <ele>635.2</ele>
        <time>2021-06-26T12:03:15Z</time>
      </trkpt>
      <trkpt lat="46.13549" lon="6.43436">
        <ele>635.4</ele>
        <time>2021-06-26T12:03:16Z</time>
      </trkpt>
      <trkpt lat="46.13546" lon="6.43433">
        <ele>635.6</ele>
        <time>2021-06-26T12:03:17Z</time>
      </trkpt>
      <trkpt lat="46.13544" lon="6.43431">
        <ele>635.6</ele>
        <time>2021-06-26T12:03:18Z</time>
      </trkpt>
      <trkpt lat="46.13542" lon="6.43428">
        <ele>635.8</ele>
        <time>2021-06-26T12:03:19Z</time>
      </trkpt>
      <trkpt lat="46.13539" lon="6.43426">
        <ele>636</ele>
        <time>2021-06-26T12:03:20Z</time>
      </trkpt>
      <trkpt lat="46.13538" lon="6.43424">
        <ele>636</ele>
        <time>2021-06-26T12:03:21Z</time>
      </trkpt>
      <trkpt lat="46.13536" lon="6.43422">
        <ele>636</ele>
        <time>2021-06-26T12:03:22Z</time>
      </trkpt>
      <trkpt lat="46.13534" lon="6.43419">
        <ele>636.2</ele>
        <time>2021-06-26T12:03:23Z</time>
      </trkpt>
      <trkpt lat="46.13533" lon="6.43416">
        <ele>636.4</ele>
        <time>2021-06-26T12:03:24Z</time>
      </trkpt>
      <trkpt lat="46.13532" lon="6.43412">
        <ele>636.4</ele>
        <time>2021-06-26T12:03:25Z</time>
      </trkpt>
      <trkpt lat="46.13531" lon="6.43409">
        <ele>636.4</ele>
        <time>2021-06-26T12:03:26Z</time>
      </trkpt>
      <trkpt lat="46.1353" lon="6.43407">
        <ele>636.8</ele>
        <time>2021-06-26T12:03:27Z</time>
      </trkpt>
      <trkpt lat="46.13528" lon="6.43404">
        <ele>637</ele>
        <time>2021-06-26T12:03:28Z</time>
      </trkpt>
      <trkpt lat="46.13525" lon="6.43403">
        <ele>637.2</ele>
        <time>2021-06-26T12:03:29Z</time>
      </trkpt>
      <trkpt lat="46.13522" lon="6.43402">
        <ele>637.4</ele>
        <time>2021-06-26T12:03:30Z</time>
      </trkpt>
      <trkpt lat="46.13519" lon="6.43402">
        <ele>637.6</ele>
        <time>2021-06-26T12:03:31Z</time>
      </trkpt>
      <trkpt lat="46.13517" lon="6.43401">
        <ele>638</ele>
        <time>2021-06-26T12:03:32Z</time>
      </trkpt>
      <trkpt lat="46.13514" lon="6.43401">
        <ele>638.4</ele>
        <time>2021-06-26T12:03:33Z</time>
      </trkpt>
      <trkpt lat="46.13511" lon="6.434">
        <ele>638.6</ele>
        <time>2021-06-26T12:03:34Z</time>
      </trkpt>
      <trkpt lat="46.13509" lon="6.43399">
        <ele>639</ele>
        <time>2021-06-26T12:03:35Z</time>
      </trkpt>
      <trkpt lat="46.13506" lon="6.43399">
        <ele>639</ele>
        <time>2021-06-26T12:03:36Z</time>
      </trkpt>
      <trkpt lat="46.13503" lon="6.43398">
        <ele>639.2</ele>
        <time>2021-06-26T12:03:37Z</time>
      </trkpt>
      <trkpt lat="46.13501" lon="6.43397">
        <ele>639.2</ele>
        <time>2021-06-26T12:03:38Z</time>
      </trkpt>
      <trkpt lat="46.13498" lon="6.43397">
        <ele>639.4</ele>
        <time>2021-06-26T12:03:39Z</time>
      </trkpt>
      <trkpt lat="46.13495" lon="6.43396">
        <ele>639.4</ele>
        <time>2021-06-26T12:03:40Z</time>
      </trkpt>
      <trkpt lat="46.13491" lon="6.43396">
        <ele>639.8</ele>
        <time>2021-06-26T12:03:41Z</time>
      </trkpt>
      <trkpt lat="46.13488" lon="6.43395">
        <ele>640</ele>
        <time>2021-06-26T12:03:42Z</time>
      </trkpt>
      <trkpt lat="46.13485" lon="6.43395">
        <ele>640.2</ele>
        <time>2021-06-26T12:03:43Z</time>
      </trkpt>
      <trkpt lat="46.13482" lon="6.43395">
        <ele>640.4</ele>
        <time>2021-06-26T12:03:44Z</time>
      </trkpt>
      <trkpt lat="46.13479" lon="6.43395">
        <ele>640.4</ele>
        <time>2021-06-26T12:03:45Z</time>
      </trkpt>
      <trkpt lat="46.13475" lon="6.43395">
        <ele>640.4</ele>
        <time>2021-06-26T12:03:46Z</time>
      </trkpt>
      <trkpt lat="46.13472" lon="6.43395">
        <ele>640.4</ele>
        <time>2021-06-26T12:03:47Z</time>
      </trkpt>
      <trkpt lat="46.13468" lon="6.43395">
        <ele>640.8</ele>
        <time>2021-06-26T12:03:48Z</time>
      </trkpt>
      <trkpt lat="46.13465" lon="6.43395">
        <ele>641.2</ele>
        <time>2021-06-26T12:03:49Z</time>
      </trkpt>
      <trkpt lat="46.13461" lon="6.43395">
        <ele>641.2</ele>
        <time>2021-06-26T12:03:50Z</time>
      </trkpt>
      <trkpt lat="46.13457" lon="6.43395">
        <ele>641.4</ele>
        <time>2021-06-26T12:03:51Z</time>
      </trkpt>
      <trkpt lat="46.13453" lon="6.43395">
        <ele>641.6</ele>
        <time>2021-06-26T12:03:52Z</time>
      </trkpt>
      <trkpt lat="46.13449" lon="6.43396">
        <ele>641.8</ele>
        <time>2021-06-26T12:03:53Z</time>
      </trkpt>
      <trkpt lat="46.13445" lon="6.43396">
        <ele>642</ele>
        <time>2021-06-26T12:03:54Z</time>
      </trkpt>
      <trkpt lat="46.13442" lon="6.43397">
        <ele>642</ele>
        <time>2021-06-26T12:03:55Z</time>
      </trkpt>
      <trkpt lat="46.13438" lon="6.43397">
        <ele>642</ele>
        <time>2021-06-26T12:03:56Z</time>
      </trkpt>
      <trkpt lat="46.13434" lon="6.43398">
        <ele>642.2</ele>
        <time>2021-06-26T12:03:57Z</time>
      </trkpt>
      <trkpt lat="46.1343" lon="6.43398">
        <ele>642.2</ele>
        <time>2021-06-26T12:03:58Z</time>
      </trkpt>
      <trkpt lat="46.13425" lon="6.43398">
        <ele>642</ele>
        <time>2021-06-26T12:03:59Z</time>
      </trkpt>
      <trkpt lat="46.13421" lon="6.43399">
        <ele>642</ele>
        <time>2021-06-26T12:04:00Z</time>
      </trkpt>
      <trkpt lat="46.13417" lon="6.43399">
        <ele>642.2</ele>
        <time>2021-06-26T12:04:01Z</time>
      </trkpt>
      <trkpt lat="46.13413" lon="6.43399">
        <ele>642.4</ele>
        <time>2021-06-26T12:04:02Z</time>
      </trkpt>
      <trkpt lat="46.13382" lon="6.43393">
        <ele>642.6</ele>
        <time>2021-06-26T12:04:09Z</time>
      </trkpt>
      <trkpt lat="46.13362" lon="6.43377">
        <ele>642.8</ele>
        <time>2021-06-26T12:04:14Z</time>
      </trkpt>
      <trkpt lat="46.13355" lon="6.43369">
        <ele>642.8</ele>
        <time>2021-06-26T12:04:16Z</time>
      </trkpt>
      <trkpt lat="46.13352" lon="6.43364">
        <ele>642.8</ele>
        <time>2021-06-26T12:04:17Z</time>
      </trkpt>
      <trkpt lat="46.13331" lon="6.43328">
        <ele>643.4</ele>
        <time>2021-06-26T12:04:24Z</time>
      </trkpt>
      <trkpt lat="46.13325" lon="6.43309">
        <ele>644</ele>
        <time>2021-06-26T12:04:27Z</time>
      </trkpt>
      <trkpt lat="46.1332" lon="6.43288">
        <ele>644.2</ele>
        <time>2021-06-26T12:04:30Z</time>
      </trkpt>
      <trkpt lat="46.13315" lon="6.43242">
        <ele>644.2</ele>
        <time>2021-06-26T12:04:36Z</time>
      </trkpt>
      <trkpt lat="46.13313" lon="6.43212">
        <ele>644.2</ele>
        <time>2021-06-26T12:04:40Z</time>
      </trkpt>
      <trkpt lat="46.13313" lon="6.43204">
        <ele>644</ele>
        <time>2021-06-26T12:04:41Z</time>
      </trkpt>
      <trkpt lat="46.13313" lon="6.43181">
        <ele>644</ele>
        <time>2021-06-26T12:04:44Z</time>
      </trkpt>
      <trkpt lat="46.13314" lon="6.43166">
        <ele>643.8</ele>
        <time>2021-06-26T12:04:46Z</time>
      </trkpt>
      <trkpt lat="46.13316" lon="6.43142">
        <ele>643.8</ele>
        <time>2021-06-26T12:04:49Z</time>
      </trkpt>
      <trkpt lat="46.13317" lon="6.43134">
        <ele>643.8</ele>
        <time>2021-06-26T12:04:50Z</time>
      </trkpt>
      <trkpt lat="46.1332" lon="6.43125">
        <ele>643.6</ele>
        <time>2021-06-26T12:04:51Z</time>
      </trkpt>
      <trkpt lat="46.13328" lon="6.431">
        <ele>643.4</ele>
        <time>2021-06-26T12:04:54Z</time>
      </trkpt>
      <trkpt lat="46.13331" lon="6.43081">
        <ele>643.4</ele>
        <time>2021-06-26T12:04:56Z</time>
      </trkpt>
      <trkpt lat="46.13333" lon="6.43061">
        <ele>643.2</ele>
        <time>2021-06-26T12:04:58Z</time>
      </trkpt>
      <trkpt lat="46.13332" lon="6.4304">
        <ele>642.8</ele>
        <time>2021-06-26T12:05:00Z</time>
      </trkpt>
      <trkpt lat="46.13326" lon="6.43021">
        <ele>641.8</ele>
        <time>2021-06-26T12:05:02Z</time>
      </trkpt>
      <trkpt lat="46.13321" lon="6.43013">
        <ele>641.4</ele>
        <time>2021-06-26T12:05:03Z</time>
      </trkpt>
      <trkpt lat="46.13317" lon="6.43005">
        <ele>641.4</ele>
        <time>2021-06-26T12:05:04Z</time>
      </trkpt>
      <trkpt lat="46.13313" lon="6.42995">
        <ele>640.8</ele>
        <time>2021-06-26T12:05:05Z</time>
      </trkpt>
      <trkpt lat="46.13311" lon="6.42985">
        <ele>640.4</ele>
        <time>2021-06-26T12:05:06Z</time>
      </trkpt>
      <trkpt lat="46.13301" lon="6.42942">
        <ele>639.6</ele>
        <time>2021-06-26T12:05:10Z</time>
      </trkpt>
      <trkpt lat="46.13299" lon="6.42931">
        <ele>639.2</ele>
        <time>2021-06-26T12:05:11Z</time>
      </trkpt>
      <trkpt lat="46.13296" lon="6.42919">
        <ele>638.8</ele>
        <time>2021-06-26T12:05:12Z</time>
      </trkpt>
      <trkpt lat="46.13294" lon="6.42908">
        <ele>638.2</ele>
        <time>2021-06-26T12:05:13Z</time>
      </trkpt>
      <trkpt lat="46.1329" lon="6.42886">
        <ele>637.2</ele>
        <time>2021-06-26T12:05:15Z</time>
      </trkpt>
      <trkpt lat="46.13287" lon="6.42863">
        <ele>636.8</ele>
        <time>2021-06-26T12:05:17Z</time>
      </trkpt>
      <trkpt lat="46.13284" lon="6.42852">
        <ele>636.4</ele>
        <time>2021-06-26T12:05:18Z</time>
      </trkpt>
      <trkpt lat="46.13282" lon="6.42841">
        <ele>636</ele>
        <time>2021-06-26T12:05:19Z</time>
      </trkpt>
      <trkpt lat="46.1328" lon="6.42831">
        <ele>635.4</ele>
        <time>2021-06-26T12:05:20Z</time>
      </trkpt>
      <trkpt lat="46.13278" lon="6.4282">
        <ele>634.6</ele>
        <time>2021-06-26T12:05:21Z</time>
      </trkpt>
      <trkpt lat="46.13277" lon="6.42809">
        <ele>633.8</ele>
        <time>2021-06-26T12:05:22Z</time>
      </trkpt>
      <trkpt lat="46.13276" lon="6.42799">
        <ele>633.4</ele>
        <time>2021-06-26T12:05:23Z</time>
      </trkpt>
      <trkpt lat="46.13275" lon="6.42789">
        <ele>633</ele>
        <time>2021-06-26T12:05:24Z</time>
      </trkpt>
      <trkpt lat="46.13273" lon="6.42779">
        <ele>632.8</ele>
        <time>2021-06-26T12:05:25Z</time>
      </trkpt>
      <trkpt lat="46.13272" lon="6.42769">
        <ele>632.6</ele>
        <time>2021-06-26T12:05:26Z</time>
      </trkpt>
      <trkpt lat="46.13271" lon="6.42758">
        <ele>632.4</ele>
        <time>2021-06-26T12:05:27Z</time>
      </trkpt>
      <trkpt lat="46.13266" lon="6.42696">
        <ele>631.6</ele>
        <time>2021-06-26T12:05:33Z</time>
      </trkpt>
      <trkpt lat="46.13266" lon="6.42686">
        <ele>631.2</ele>
        <time>2021-06-26T12:05:34Z</time>
      </trkpt>
      <trkpt lat="46.13265" lon="6.42676">
        <ele>631.2</ele>
        <time>2021-06-26T12:05:35Z</time>
      </trkpt>
      <trkpt lat="46.13265" lon="6.42666">
        <ele>631</ele>
        <time>2021-06-26T12:05:36Z</time>
      </trkpt>
      <trkpt lat="46.13265" lon="6.42657">
        <ele>631</ele>
        <time>2021-06-26T12:05:37Z</time>
      </trkpt>
      <trkpt lat="46.13264" lon="6.42637">
        <ele>631</ele>
        <time>2021-06-26T12:05:39Z</time>
      </trkpt>
      <trkpt lat="46.13262" lon="6.42577">
        <ele>630.6</ele>
        <time>2021-06-26T12:05:45Z</time>
      </trkpt>
      <trkpt lat="46.1326" lon="6.42548">
        <ele>630.6</ele>
        <time>2021-06-26T12:05:48Z</time>
      </trkpt>
      <trkpt lat="46.1326" lon="6.42538">
        <ele>630.6</ele>
        <time>2021-06-26T12:05:49Z</time>
      </trkpt>
      <trkpt lat="46.1326" lon="6.42529">
        <ele>630.6</ele>
        <time>2021-06-26T12:05:50Z</time>
      </trkpt>
      <trkpt lat="46.1326" lon="6.4252">
        <ele>630.6</ele>
        <time>2021-06-26T12:05:51Z</time>
      </trkpt>
      <trkpt lat="46.13259" lon="6.42511">
        <ele>630.8</ele>
        <time>2021-06-26T12:05:52Z</time>
      </trkpt>
      <trkpt lat="46.13259" lon="6.42503">
        <ele>630.8</ele>
        <time>2021-06-26T12:05:53Z</time>
      </trkpt>
      <trkpt lat="46.13258" lon="6.42495">
        <ele>630.8</ele>
        <time>2021-06-26T12:05:54Z</time>
      </trkpt>
      <trkpt lat="46.13258" lon="6.42487">
        <ele>630.6</ele>
        <time>2021-06-26T12:05:55Z</time>
      </trkpt>
      <trkpt lat="46.13257" lon="6.42479">
        <ele>630.6</ele>
        <time>2021-06-26T12:05:56Z</time>
      </trkpt>
      <trkpt lat="46.13257" lon="6.42471">
        <ele>630.6</ele>
        <time>2021-06-26T12:05:57Z</time>
      </trkpt>
      <trkpt lat="46.13257" lon="6.42464">
        <ele>630.6</ele>
        <time>2021-06-26T12:05:58Z</time>
      </trkpt>
      <trkpt lat="46.13256" lon="6.42456">
        <ele>630.6</ele>
        <time>2021-06-26T12:05:59Z</time>
      </trkpt>
      <trkpt lat="46.13256" lon="6.42449">
        <ele>630.6</ele>
        <time>2021-06-26T12:06:00Z</time>
      </trkpt>
      <trkpt lat="46.13255" lon="6.42442">
        <ele>630.8</ele>
        <time>2021-06-26T12:06:01Z</time>
      </trkpt>
      <trkpt lat="46.13255" lon="6.42434">
        <ele>630.8</ele>
        <time>2021-06-26T12:06:02Z</time>
      </trkpt>
      <trkpt lat="46.13254" lon="6.42419">
        <ele>630.6</ele>
        <time>2021-06-26T12:06:04Z</time>
      </trkpt>
      <trkpt lat="46.13253" lon="6.42396">
        <ele>630.6</ele>
        <time>2021-06-26T12:06:07Z</time>
      </trkpt>
      <trkpt lat="46.13252" lon="6.42389">
        <ele>630.4</ele>
        <time>2021-06-26T12:06:08Z</time>
      </trkpt>
      <trkpt lat="46.13252" lon="6.42382">
        <ele>630.2</ele>
        <time>2021-06-26T12:06:09Z</time>
      </trkpt>
      <trkpt lat="46.13252" lon="6.42374">
        <ele>630.4</ele>
        <time>2021-06-26T12:06:10Z</time>
      </trkpt>
      <trkpt lat="46.1325" lon="6.42341">
        <ele>630</ele>
        <time>2021-06-26T12:06:14Z</time>
      </trkpt>
      <trkpt lat="46.13248" lon="6.42289">
        <ele>629.8</ele>
        <time>2021-06-26T12:06:20Z</time>
      </trkpt>
      <trkpt lat="46.13243" lon="6.42215">
        <ele>628.8</ele>
        <time>2021-06-26T12:06:28Z</time>
      </trkpt>
      <trkpt lat="46.1324" lon="6.42168">
        <ele>628.6</ele>
        <time>2021-06-26T12:06:33Z</time>
      </trkpt>
      <trkpt lat="46.13236" lon="6.4212">
        <ele>628.4</ele>
        <time>2021-06-26T12:06:38Z</time>
      </trkpt>
      <trkpt lat="46.13231" lon="6.42043">
        <ele>627.8</ele>
        <time>2021-06-26T12:06:46Z</time>
      </trkpt>
      <trkpt lat="46.13229" lon="6.42024">
        <ele>627.6</ele>
        <time>2021-06-26T12:06:48Z</time>
      </trkpt>
      <trkpt lat="46.13225" lon="6.41945">
        <ele>626.8</ele>
        <time>2021-06-26T12:06:56Z</time>
      </trkpt>
      <trkpt lat="46.13224" lon="6.41935">
        <ele>626.8</ele>
        <time>2021-06-26T12:06:57Z</time>
      </trkpt>
      <trkpt lat="46.13222" lon="6.41866">
        <ele>626</ele>
        <time>2021-06-26T12:07:04Z</time>
      </trkpt>
      <trkpt lat="46.13221" lon="6.41856">
        <ele>625.8</ele>
        <time>2021-06-26T12:07:05Z</time>
      </trkpt>
      <trkpt lat="46.13221" lon="6.41846">
        <ele>625.6</ele>
        <time>2021-06-26T12:07:06Z</time>
      </trkpt>
      <trkpt lat="46.1322" lon="6.41818">
        <ele>625.6</ele>
        <time>2021-06-26T12:07:09Z</time>
      </trkpt>
      <trkpt lat="46.13216" lon="6.4175">
        <ele>625.4</ele>
        <time>2021-06-26T12:07:16Z</time>
      </trkpt>
      <trkpt lat="46.13216" lon="6.41741">
        <ele>625.2</ele>
        <time>2021-06-26T12:07:17Z</time>
      </trkpt>
      <trkpt lat="46.13215" lon="6.41731">
        <ele>625.2</ele>
        <time>2021-06-26T12:07:18Z</time>
      </trkpt>
      <trkpt lat="46.13215" lon="6.41722">
        <ele>625.2</ele>
        <time>2021-06-26T12:07:19Z</time>
      </trkpt>
      <trkpt lat="46.13214" lon="6.41714">
        <ele>625.2</ele>
        <time>2021-06-26T12:07:20Z</time>
      </trkpt>
      <trkpt lat="46.13214" lon="6.41705">
        <ele>625.2</ele>
        <time>2021-06-26T12:07:21Z</time>
      </trkpt>
      <trkpt lat="46.13213" lon="6.41696">
        <ele>625</ele>
        <time>2021-06-26T12:07:22Z</time>
      </trkpt>
      <trkpt lat="46.13213" lon="6.41688">
        <ele>625.2</ele>
        <time>2021-06-26T12:07:23Z</time>
      </trkpt>
      <trkpt lat="46.13212" lon="6.4168">
        <ele>625.2</ele>
        <time>2021-06-26T12:07:24Z</time>
      </trkpt>
      <trkpt lat="46.13211" lon="6.41672">
        <ele>625.2</ele>
        <time>2021-06-26T12:07:25Z</time>
      </trkpt>
      <trkpt lat="46.13211" lon="6.41664">
        <ele>625.2</ele>
        <time>2021-06-26T12:07:26Z</time>
      </trkpt>
      <trkpt lat="46.1321" lon="6.41656">
        <ele>625.2</ele>
        <time>2021-06-26T12:07:27Z</time>
      </trkpt>
      <trkpt lat="46.13206" lon="6.41622">
        <ele>625.2</ele>
        <time>2021-06-26T12:07:31Z</time>
      </trkpt>
      <trkpt lat="46.13202" lon="6.41584">
        <ele>625.2</ele>
        <time>2021-06-26T12:07:35Z</time>
      </trkpt>
      <trkpt lat="46.13202" lon="6.41564">
        <ele>625.2</ele>
        <time>2021-06-26T12:07:37Z</time>
      </trkpt>
      <trkpt lat="46.13202" lon="6.41555">
        <ele>625</ele>
        <time>2021-06-26T12:07:38Z</time>
      </trkpt>
      <trkpt lat="46.13201" lon="6.41545">
        <ele>625.2</ele>
        <time>2021-06-26T12:07:39Z</time>
      </trkpt>
      <trkpt lat="46.13201" lon="6.41487">
        <ele>624</ele>
        <time>2021-06-26T12:07:45Z</time>
      </trkpt>
      <trkpt lat="46.13203" lon="6.41456">
        <ele>623.6</ele>
        <time>2021-06-26T12:07:48Z</time>
      </trkpt>
      <trkpt lat="46.13207" lon="6.41415">
        <ele>623.4</ele>
        <time>2021-06-26T12:07:52Z</time>
      </trkpt>
      <trkpt lat="46.13217" lon="6.41354">
        <ele>623</ele>
        <time>2021-06-26T12:07:58Z</time>
      </trkpt>
      <trkpt lat="46.1322" lon="6.41334">
        <ele>622.6</ele>
        <time>2021-06-26T12:08:00Z</time>
      </trkpt>
      <trkpt lat="46.1323" lon="6.41262">
        <ele>621.8</ele>
        <time>2021-06-26T12:08:07Z</time>
      </trkpt>
      <trkpt lat="46.13232" lon="6.41252">
        <ele>621.8</ele>
        <time>2021-06-26T12:08:08Z</time>
      </trkpt>
      <trkpt lat="46.13233" lon="6.41241">
        <ele>621.8</ele>
        <time>2021-06-26T12:08:09Z</time>
      </trkpt>
      <trkpt lat="46.13236" lon="6.41209">
        <ele>621.8</ele>
        <time>2021-06-26T12:08:12Z</time>
      </trkpt>
      <trkpt lat="46.13241" lon="6.41131">
        <ele>620.4</ele>
        <time>2021-06-26T12:08:19Z</time>
      </trkpt>
      <trkpt lat="46.13243" lon="6.41119">
        <ele>620.4</ele>
        <time>2021-06-26T12:08:20Z</time>
      </trkpt>
      <trkpt lat="46.13248" lon="6.4106">
        <ele>619.8</ele>
        <time>2021-06-26T12:08:25Z</time>
      </trkpt>
      <trkpt lat="46.1325" lon="6.41023">
        <ele>619.6</ele>
        <time>2021-06-26T12:08:28Z</time>
      </trkpt>
      <trkpt lat="46.13251" lon="6.41011">
        <ele>619.2</ele>
        <time>2021-06-26T12:08:29Z</time>
      </trkpt>
      <trkpt lat="46.13253" lon="6.40973">
        <ele>618.6</ele>
        <time>2021-06-26T12:08:32Z</time>
      </trkpt>
      <trkpt lat="46.13254" lon="6.40947">
        <ele>618</ele>
        <time>2021-06-26T12:08:34Z</time>
      </trkpt>
      <trkpt lat="46.13255" lon="6.4092">
        <ele>617.2</ele>
        <time>2021-06-26T12:08:36Z</time>
      </trkpt>
      <trkpt lat="46.13255" lon="6.40906">
        <ele>617</ele>
        <time>2021-06-26T12:08:37Z</time>
      </trkpt>
      <trkpt lat="46.13256" lon="6.40864">
        <ele>616.4</ele>
        <time>2021-06-26T12:08:40Z</time>
      </trkpt>
      <trkpt lat="46.13256" lon="6.40836">
        <ele>615.6</ele>
        <time>2021-06-26T12:08:42Z</time>
      </trkpt>
      <trkpt lat="46.13257" lon="6.40808">
        <ele>614.4</ele>
        <time>2021-06-26T12:08:44Z</time>
      </trkpt>
      <trkpt lat="46.13257" lon="6.40795">
        <ele>613.8</ele>
        <time>2021-06-26T12:08:45Z</time>
      </trkpt>
      <trkpt lat="46.13257" lon="6.40781">
        <ele>613.2</ele>
        <time>2021-06-26T12:08:46Z</time>
      </trkpt>
      <trkpt lat="46.13256" lon="6.40768">
        <ele>612.2</ele>
        <time>2021-06-26T12:08:47Z</time>
      </trkpt>
      <trkpt lat="46.13256" lon="6.40755">
        <ele>611.4</ele>
        <time>2021-06-26T12:08:48Z</time>
      </trkpt>
      <trkpt lat="46.13256" lon="6.40729">
        <ele>609.8</ele>
        <time>2021-06-26T12:08:50Z</time>
      </trkpt>
      <trkpt lat="46.13255" lon="6.40716">
        <ele>609</ele>
        <time>2021-06-26T12:08:51Z</time>
      </trkpt>
      <trkpt lat="46.13255" lon="6.40703">
        <ele>608.6</ele>
        <time>2021-06-26T12:08:52Z</time>
      </trkpt>
      <trkpt lat="46.13255" lon="6.40691">
        <ele>607.8</ele>
        <time>2021-06-26T12:08:53Z</time>
      </trkpt>
      <trkpt lat="46.13254" lon="6.40679">
        <ele>607.4</ele>
        <time>2021-06-26T12:08:54Z</time>
      </trkpt>
      <trkpt lat="46.13254" lon="6.40667">
        <ele>607.4</ele>
        <time>2021-06-26T12:08:55Z</time>
      </trkpt>
      <trkpt lat="46.13254" lon="6.40655">
        <ele>607.4</ele>
        <time>2021-06-26T12:08:56Z</time>
      </trkpt>
      <trkpt lat="46.13254" lon="6.40644">
        <ele>607.2</ele>
        <time>2021-06-26T12:08:57Z</time>
      </trkpt>
      <trkpt lat="46.13254" lon="6.40634">
        <ele>607.2</ele>
        <time>2021-06-26T12:08:58Z</time>
      </trkpt>
      <trkpt lat="46.13254" lon="6.40623">
        <ele>607.2</ele>
        <time>2021-06-26T12:08:59Z</time>
      </trkpt>
      <trkpt lat="46.13254" lon="6.40613">
        <ele>607.2</ele>
        <time>2021-06-26T12:09:00Z</time>
      </trkpt>
      <trkpt lat="46.13254" lon="6.40603">
        <ele>607</ele>
        <time>2021-06-26T12:09:01Z</time>
      </trkpt>
      <trkpt lat="46.13254" lon="6.40594">
        <ele>607</ele>
        <time>2021-06-26T12:09:02Z</time>
      </trkpt>
      <trkpt lat="46.13253" lon="6.40585">
        <ele>607.2</ele>
        <time>2021-06-26T12:09:03Z</time>
      </trkpt>
      <trkpt lat="46.13253" lon="6.40576">
        <ele>607.2</ele>
        <time>2021-06-26T12:09:04Z</time>
      </trkpt>
      <trkpt lat="46.13253" lon="6.40567">
        <ele>607.2</ele>
        <time>2021-06-26T12:09:05Z</time>
      </trkpt>
      <trkpt lat="46.13253" lon="6.40559">
        <ele>607.2</ele>
        <time>2021-06-26T12:09:06Z</time>
      </trkpt>
      <trkpt lat="46.13253" lon="6.40551">
        <ele>607.2</ele>
        <time>2021-06-26T12:09:07Z</time>
      </trkpt>
      <trkpt lat="46.13253" lon="6.40543">
        <ele>607.8</ele>
        <time>2021-06-26T12:09:08Z</time>
      </trkpt>
      <trkpt lat="46.13253" lon="6.40536">
        <ele>608.2</ele>
        <time>2021-06-26T12:09:09Z</time>
      </trkpt>
      <trkpt lat="46.13253" lon="6.40528">
        <ele>608.6</ele>
        <time>2021-06-26T12:09:10Z</time>
      </trkpt>
      <trkpt lat="46.13253" lon="6.4052">
        <ele>608.8</ele>
        <time>2021-06-26T12:09:11Z</time>
      </trkpt>
      <trkpt lat="46.13252" lon="6.40513">
        <ele>608.8</ele>
        <time>2021-06-26T12:09:12Z</time>
      </trkpt>
      <trkpt lat="46.13253" lon="6.40505">
        <ele>608.8</ele>
        <time>2021-06-26T12:09:13Z</time>
      </trkpt>
      <trkpt lat="46.13252" lon="6.40483">
        <ele>609.4</ele>
        <time>2021-06-26T12:09:16Z</time>
      </trkpt>
      <trkpt lat="46.13253" lon="6.40428">
        <ele>610.2</ele>
        <time>2021-06-26T12:09:23Z</time>
      </trkpt>
      <trkpt lat="46.13254" lon="6.40395">
        <ele>610.6</ele>
        <time>2021-06-26T12:09:27Z</time>
      </trkpt>
      <trkpt lat="46.13259" lon="6.40331">
        <ele>611</ele>
        <time>2021-06-26T12:09:35Z</time>
      </trkpt>
      <trkpt lat="46.1326" lon="6.40323">
        <ele>611</ele>
        <time>2021-06-26T12:09:36Z</time>
      </trkpt>
      <trkpt lat="46.13261" lon="6.40315">
        <ele>611</ele>
        <time>2021-06-26T12:09:37Z</time>
      </trkpt>
      <trkpt lat="46.13262" lon="6.40307">
        <ele>611.2</ele>
        <time>2021-06-26T12:09:38Z</time>
      </trkpt>
      <trkpt lat="46.13263" lon="6.40299">
        <ele>611.2</ele>
        <time>2021-06-26T12:09:39Z</time>
      </trkpt>
      <trkpt lat="46.13268" lon="6.4026">
        <ele>611.2</ele>
        <time>2021-06-26T12:09:44Z</time>
      </trkpt>
      <trkpt lat="46.13278" lon="6.40182">
        <ele>612.4</ele>
        <time>2021-06-26T12:09:54Z</time>
      </trkpt>
      <trkpt lat="46.13279" lon="6.40175">
        <ele>612.4</ele>
        <time>2021-06-26T12:09:55Z</time>
      </trkpt>
      <trkpt lat="46.13284" lon="6.40135">
        <ele>612.6</ele>
        <time>2021-06-26T12:10:00Z</time>
      </trkpt>
      <trkpt lat="46.13289" lon="6.40094">
        <ele>613.2</ele>
        <time>2021-06-26T12:10:05Z</time>
      </trkpt>
      <trkpt lat="46.13298" lon="6.40026">
        <ele>613.8</ele>
        <time>2021-06-26T12:10:13Z</time>
      </trkpt>
      <trkpt lat="46.133" lon="6.40018">
        <ele>613.8</ele>
        <time>2021-06-26T12:10:14Z</time>
      </trkpt>
      <trkpt lat="46.13303" lon="6.40002">
        <ele>613.6</ele>
        <time>2021-06-26T12:10:16Z</time>
      </trkpt>
      <trkpt lat="46.13305" lon="6.39994">
        <ele>613.6</ele>
        <time>2021-06-26T12:10:17Z</time>
      </trkpt>
      <trkpt lat="46.13307" lon="6.39986">
        <ele>613.8</ele>
        <time>2021-06-26T12:10:18Z</time>
      </trkpt>
      <trkpt lat="46.13309" lon="6.39979">
        <ele>613.6</ele>
        <time>2021-06-26T12:10:19Z</time>
      </trkpt>
      <trkpt lat="46.13322" lon="6.39937">
        <ele>613</ele>
        <time>2021-06-26T12:10:24Z</time>
      </trkpt>
      <trkpt lat="46.13332" lon="6.3991">
        <ele>612.6</ele>
        <time>2021-06-26T12:10:27Z</time>
      </trkpt>
      <trkpt lat="46.13349" lon="6.39862">
        <ele>612</ele>
        <time>2021-06-26T12:10:32Z</time>
      </trkpt>
      <trkpt lat="46.13353" lon="6.39852">
        <ele>611.6</ele>
        <time>2021-06-26T12:10:33Z</time>
      </trkpt>
      <trkpt lat="46.13371" lon="6.39791">
        <ele>610</ele>
        <time>2021-06-26T12:10:39Z</time>
      </trkpt>
      <trkpt lat="46.13373" lon="6.39781">
        <ele>609.8</ele>
        <time>2021-06-26T12:10:40Z</time>
      </trkpt>
      <trkpt lat="46.13378" lon="6.3976">
        <ele>609.4</ele>
        <time>2021-06-26T12:10:42Z</time>
      </trkpt>
      <trkpt lat="46.13384" lon="6.39716">
        <ele>608.6</ele>
        <time>2021-06-26T12:10:46Z</time>
      </trkpt>
      <trkpt lat="46.13388" lon="6.39668">
        <ele>607.2</ele>
        <time>2021-06-26T12:10:50Z</time>
      </trkpt>
      <trkpt lat="46.13392" lon="6.39631">
        <ele>606.2</ele>
        <time>2021-06-26T12:10:53Z</time>
      </trkpt>
      <trkpt lat="46.13395" lon="6.3962">
        <ele>606.2</ele>
        <time>2021-06-26T12:10:54Z</time>
      </trkpt>
      <trkpt lat="46.13414" lon="6.39562">
        <ele>604.8</ele>
        <time>2021-06-26T12:10:59Z</time>
      </trkpt>
      <trkpt lat="46.13418" lon="6.39551">
        <ele>604.4</ele>
        <time>2021-06-26T12:11:00Z</time>
      </trkpt>
      <trkpt lat="46.1342" lon="6.39539">
        <ele>604.2</ele>
        <time>2021-06-26T12:11:01Z</time>
      </trkpt>
      <trkpt lat="46.13423" lon="6.39527">
        <ele>603.8</ele>
        <time>2021-06-26T12:11:02Z</time>
      </trkpt>
      <trkpt lat="46.13425" lon="6.39516">
        <ele>603.6</ele>
        <time>2021-06-26T12:11:03Z</time>
      </trkpt>
      <trkpt lat="46.13426" lon="6.39505">
        <ele>603.2</ele>
        <time>2021-06-26T12:11:04Z</time>
      </trkpt>
      <trkpt lat="46.13427" lon="6.39493">
        <ele>602.8</ele>
        <time>2021-06-26T12:11:05Z</time>
      </trkpt>
      <trkpt lat="46.13428" lon="6.39482">
        <ele>602.6</ele>
        <time>2021-06-26T12:11:06Z</time>
      </trkpt>
      <trkpt lat="46.13429" lon="6.39471">
        <ele>602.4</ele>
        <time>2021-06-26T12:11:07Z</time>
      </trkpt>
      <trkpt lat="46.13438" lon="6.39413">
        <ele>602.2</ele>
        <time>2021-06-26T12:11:12Z</time>
      </trkpt>
      <trkpt lat="46.1344" lon="6.39402">
        <ele>602</ele>
        <time>2021-06-26T12:11:13Z</time>
      </trkpt>
      <trkpt lat="46.13443" lon="6.39391">
        <ele>602</ele>
        <time>2021-06-26T12:11:14Z</time>
      </trkpt>
      <trkpt lat="46.13445" lon="6.3938">
        <ele>601.8</ele>
        <time>2021-06-26T12:11:15Z</time>
      </trkpt>
      <trkpt lat="46.13448" lon="6.39369">
        <ele>601.4</ele>
        <time>2021-06-26T12:11:16Z</time>
      </trkpt>
      <trkpt lat="46.13451" lon="6.39358">
        <ele>601.4</ele>
        <time>2021-06-26T12:11:17Z</time>
      </trkpt>
      <trkpt lat="46.13454" lon="6.39349">
        <ele>601.2</ele>
        <time>2021-06-26T12:11:18Z</time>
      </trkpt>
      <trkpt lat="46.13458" lon="6.39341">
        <ele>601</ele>
        <time>2021-06-26T12:11:19Z</time>
      </trkpt>
      <trkpt lat="46.13463" lon="6.39333">
        <ele>600.8</ele>
        <time>2021-06-26T12:11:20Z</time>
      </trkpt>
      <trkpt lat="46.13466" lon="6.39324">
        <ele>600.8</ele>
        <time>2021-06-26T12:11:21Z</time>
      </trkpt>
      <trkpt lat="46.13467" lon="6.39314">
        <ele>600.6</ele>
        <time>2021-06-26T12:11:22Z</time>
      </trkpt>
      <trkpt lat="46.13466" lon="6.39303">
        <ele>600.8</ele>
        <time>2021-06-26T12:11:23Z</time>
      </trkpt>
      <trkpt lat="46.13464" lon="6.39293">
        <ele>600.6</ele>
        <time>2021-06-26T12:11:24Z</time>
      </trkpt>
      <trkpt lat="46.13463" lon="6.39284">
        <ele>600.6</ele>
        <time>2021-06-26T12:11:25Z</time>
      </trkpt>
      <trkpt lat="46.13462" lon="6.39274">
        <ele>600.6</ele>
        <time>2021-06-26T12:11:26Z</time>
      </trkpt>
      <trkpt lat="46.13461" lon="6.39264">
        <ele>600.6</ele>
        <time>2021-06-26T12:11:27Z</time>
      </trkpt>
      <trkpt lat="46.1346" lon="6.39222">
        <ele>600.6</ele>
        <time>2021-06-26T12:11:31Z</time>
      </trkpt>
      <trkpt lat="46.1346" lon="6.39211">
        <ele>600.4</ele>
        <time>2021-06-26T12:11:32Z</time>
      </trkpt>
      <trkpt lat="46.13462" lon="6.39144">
        <ele>600</ele>
        <time>2021-06-26T12:11:38Z</time>
      </trkpt>
      <trkpt lat="46.13462" lon="6.39133">
        <ele>600</ele>
        <time>2021-06-26T12:11:39Z</time>
      </trkpt>
      <trkpt lat="46.13463" lon="6.3911">
        <ele>599.6</ele>
        <time>2021-06-26T12:11:41Z</time>
      </trkpt>
      <trkpt lat="46.13465" lon="6.3903">
        <ele>598.6</ele>
        <time>2021-06-26T12:11:48Z</time>
      </trkpt>
      <trkpt lat="46.13465" lon="6.39018">
        <ele>598.6</ele>
        <time>2021-06-26T12:11:49Z</time>
      </trkpt>
      <trkpt lat="46.13466" lon="6.39007">
        <ele>598.6</ele>
        <time>2021-06-26T12:11:50Z</time>
      </trkpt>
      <trkpt lat="46.13466" lon="6.38996">
        <ele>598.4</ele>
        <time>2021-06-26T12:11:51Z</time>
      </trkpt>
      <trkpt lat="46.13466" lon="6.38984">
        <ele>598.4</ele>
        <time>2021-06-26T12:11:52Z</time>
      </trkpt>
      <trkpt lat="46.13469" lon="6.38904">
        <ele>597.6</ele>
        <time>2021-06-26T12:11:59Z</time>
      </trkpt>
      <trkpt lat="46.1347" lon="6.3887">
        <ele>597.6</ele>
        <time>2021-06-26T12:12:02Z</time>
      </trkpt>
      <trkpt lat="46.13471" lon="6.38836">
        <ele>597.4</ele>
        <time>2021-06-26T12:12:05Z</time>
      </trkpt>
      <trkpt lat="46.13471" lon="6.38825">
        <ele>597.4</ele>
        <time>2021-06-26T12:12:06Z</time>
      </trkpt>
      <trkpt lat="46.13471" lon="6.38814">
        <ele>597.2</ele>
        <time>2021-06-26T12:12:07Z</time>
      </trkpt>
      <trkpt lat="46.13472" lon="6.38804">
        <ele>597.4</ele>
        <time>2021-06-26T12:12:08Z</time>
      </trkpt>
      <trkpt lat="46.13472" lon="6.38793">
        <ele>597.2</ele>
        <time>2021-06-26T12:12:09Z</time>
      </trkpt>
      <trkpt lat="46.13473" lon="6.38783">
        <ele>597.4</ele>
        <time>2021-06-26T12:12:10Z</time>
      </trkpt>
      <trkpt lat="46.13473" lon="6.38774">
        <ele>597.4</ele>
        <time>2021-06-26T12:12:11Z</time>
      </trkpt>
      <trkpt lat="46.13474" lon="6.38764">
        <ele>597.4</ele>
        <time>2021-06-26T12:12:12Z</time>
      </trkpt>
      <trkpt lat="46.13476" lon="6.38755">
        <ele>597.4</ele>
        <time>2021-06-26T12:12:13Z</time>
      </trkpt>
      <trkpt lat="46.13478" lon="6.38746">
        <ele>597.4</ele>
        <time>2021-06-26T12:12:14Z</time>
      </trkpt>
      <trkpt lat="46.1348" lon="6.38737">
        <ele>597.6</ele>
        <time>2021-06-26T12:12:15Z</time>
      </trkpt>
      <trkpt lat="46.13482" lon="6.38729">
        <ele>597.4</ele>
        <time>2021-06-26T12:12:16Z</time>
      </trkpt>
      <trkpt lat="46.13485" lon="6.38721">
        <ele>597.4</ele>
        <time>2021-06-26T12:12:17Z</time>
      </trkpt>
      <trkpt lat="46.13488" lon="6.38713">
        <ele>597.6</ele>
        <time>2021-06-26T12:12:18Z</time>
      </trkpt>
      <trkpt lat="46.13491" lon="6.38705">
        <ele>597.8</ele>
        <time>2021-06-26T12:12:19Z</time>
      </trkpt>
      <trkpt lat="46.13493" lon="6.38698">
        <ele>598</ele>
        <time>2021-06-26T12:12:20Z</time>
      </trkpt>
      <trkpt lat="46.13496" lon="6.38691">
        <ele>598.4</ele>
        <time>2021-06-26T12:12:21Z</time>
      </trkpt>
      <trkpt lat="46.13498" lon="6.38684">
        <ele>599</ele>
        <time>2021-06-26T12:12:22Z</time>
      </trkpt>
      <trkpt lat="46.13501" lon="6.38677">
        <ele>599.2</ele>
        <time>2021-06-26T12:12:23Z</time>
      </trkpt>
      <trkpt lat="46.13503" lon="6.3867">
        <ele>599.2</ele>
        <time>2021-06-26T12:12:24Z</time>
      </trkpt>
      <trkpt lat="46.13505" lon="6.38663">
        <ele>599.4</ele>
        <time>2021-06-26T12:12:25Z</time>
      </trkpt>
      <trkpt lat="46.13507" lon="6.38656">
        <ele>599.4</ele>
        <time>2021-06-26T12:12:26Z</time>
      </trkpt>
      <trkpt lat="46.1351" lon="6.38649">
        <ele>599.4</ele>
        <time>2021-06-26T12:12:27Z</time>
      </trkpt>
      <trkpt lat="46.13512" lon="6.38642">
        <ele>599.6</ele>
        <time>2021-06-26T12:12:28Z</time>
      </trkpt>
      <trkpt lat="46.13514" lon="6.38636">
        <ele>599.8</ele>
        <time>2021-06-26T12:12:29Z</time>
      </trkpt>
      <trkpt lat="46.13517" lon="6.38629">
        <ele>600.2</ele>
        <time>2021-06-26T12:12:30Z</time>
      </trkpt>
      <trkpt lat="46.13519" lon="6.38622">
        <ele>600.6</ele>
        <time>2021-06-26T12:12:31Z</time>
      </trkpt>
      <trkpt lat="46.13521" lon="6.38616">
        <ele>600.8</ele>
        <time>2021-06-26T12:12:32Z</time>
      </trkpt>
      <trkpt lat="46.13524" lon="6.38609">
        <ele>601</ele>
        <time>2021-06-26T12:12:33Z</time>
      </trkpt>
      <trkpt lat="46.13526" lon="6.38602">
        <ele>601.2</ele>
        <time>2021-06-26T12:12:34Z</time>
      </trkpt>
      <trkpt lat="46.13528" lon="6.38596">
        <ele>601.4</ele>
        <time>2021-06-26T12:12:35Z</time>
      </trkpt>
      <trkpt lat="46.1353" lon="6.38589">
        <ele>601.6</ele>
        <time>2021-06-26T12:12:36Z</time>
      </trkpt>
      <trkpt lat="46.13532" lon="6.38582">
        <ele>601.6</ele>
        <time>2021-06-26T12:12:37Z</time>
      </trkpt>
      <trkpt lat="46.13535" lon="6.38576">
        <ele>601.8</ele>
        <time>2021-06-26T12:12:38Z</time>
      </trkpt>
      <trkpt lat="46.13537" lon="6.38569">
        <ele>601.8</ele>
        <time>2021-06-26T12:12:39Z</time>
      </trkpt>
      <trkpt lat="46.13539" lon="6.38563">
        <ele>602</ele>
        <time>2021-06-26T12:12:40Z</time>
      </trkpt>
      <trkpt lat="46.13541" lon="6.38556">
        <ele>602.4</ele>
        <time>2021-06-26T12:12:41Z</time>
      </trkpt>
      <trkpt lat="46.13543" lon="6.3855">
        <ele>602.4</ele>
        <time>2021-06-26T12:12:42Z</time>
      </trkpt>
      <trkpt lat="46.13546" lon="6.38544">
        <ele>602.4</ele>
        <time>2021-06-26T12:12:43Z</time>
      </trkpt>
      <trkpt lat="46.13548" lon="6.38538">
        <ele>602.6</ele>
        <time>2021-06-26T12:12:44Z</time>
      </trkpt>
      <trkpt lat="46.13551" lon="6.38533">
        <ele>602.8</ele>
        <time>2021-06-26T12:12:45Z</time>
      </trkpt>
      <trkpt lat="46.13553" lon="6.38528">
        <ele>602.8</ele>
        <time>2021-06-26T12:12:46Z</time>
      </trkpt>
      <trkpt lat="46.13556" lon="6.38523">
        <ele>602.8</ele>
        <time>2021-06-26T12:12:47Z</time>
      </trkpt>
      <trkpt lat="46.13558" lon="6.38518">
        <ele>603.4</ele>
        <time>2021-06-26T12:12:48Z</time>
      </trkpt>
      <trkpt lat="46.13561" lon="6.38513">
        <ele>603.6</ele>
        <time>2021-06-26T12:12:49Z</time>
      </trkpt>
      <trkpt lat="46.13563" lon="6.38509">
        <ele>603.8</ele>
        <time>2021-06-26T12:12:50Z</time>
      </trkpt>
      <trkpt lat="46.13565" lon="6.38504">
        <ele>604</ele>
        <time>2021-06-26T12:12:51Z</time>
      </trkpt>
      <trkpt lat="46.13568" lon="6.385">
        <ele>604.2</ele>
        <time>2021-06-26T12:12:52Z</time>
      </trkpt>
      <trkpt lat="46.1357" lon="6.38496">
        <ele>604.4</ele>
        <time>2021-06-26T12:12:53Z</time>
      </trkpt>
      <trkpt lat="46.13573" lon="6.38493">
        <ele>604.6</ele>
        <time>2021-06-26T12:12:54Z</time>
      </trkpt>
      <trkpt lat="46.13575" lon="6.38489">
        <ele>605</ele>
        <time>2021-06-26T12:12:55Z</time>
      </trkpt>
      <trkpt lat="46.13578" lon="6.38486">
        <ele>605.4</ele>
        <time>2021-06-26T12:12:56Z</time>
      </trkpt>
      <trkpt lat="46.1358" lon="6.38482">
        <ele>605.8</ele>
        <time>2021-06-26T12:12:57Z</time>
      </trkpt>
      <trkpt lat="46.13583" lon="6.38478">
        <ele>606.2</ele>
        <time>2021-06-26T12:12:58Z</time>
      </trkpt>
      <trkpt lat="46.13586" lon="6.38475">
        <ele>606.4</ele>
        <time>2021-06-26T12:12:59Z</time>
      </trkpt>
      <trkpt lat="46.13588" lon="6.38472">
        <ele>606.8</ele>
        <time>2021-06-26T12:13:00Z</time>
      </trkpt>
      <trkpt lat="46.13591" lon="6.38468">
        <ele>607</ele>
        <time>2021-06-26T12:13:01Z</time>
      </trkpt>
      <trkpt lat="46.13593" lon="6.38465">
        <ele>607.6</ele>
        <time>2021-06-26T12:13:02Z</time>
      </trkpt>
      <trkpt lat="46.13596" lon="6.38461">
        <ele>608</ele>
        <time>2021-06-26T12:13:03Z</time>
      </trkpt>
      <trkpt lat="46.13599" lon="6.38458">
        <ele>608.2</ele>
        <time>2021-06-26T12:13:04Z</time>
      </trkpt>
      <trkpt lat="46.13601" lon="6.38454">
        <ele>608.6</ele>
        <time>2021-06-26T12:13:05Z</time>
      </trkpt>
      <trkpt lat="46.13604" lon="6.3845">
        <ele>608.8</ele>
        <time>2021-06-26T12:13:06Z</time>
      </trkpt>
      <trkpt lat="46.13606" lon="6.38446">
        <ele>609</ele>
        <time>2021-06-26T12:13:07Z</time>
      </trkpt>
      <trkpt lat="46.13608" lon="6.38443">
        <ele>609.4</ele>
        <time>2021-06-26T12:13:08Z</time>
      </trkpt>
      <trkpt lat="46.13611" lon="6.38439">
        <ele>609.4</ele>
        <time>2021-06-26T12:13:09Z</time>
      </trkpt>
      <trkpt lat="46.13613" lon="6.38435">
        <ele>609.4</ele>
        <time>2021-06-26T12:13:10Z</time>
      </trkpt>
      <trkpt lat="46.13615" lon="6.38431">
        <ele>609.6</ele>
        <time>2021-06-26T12:13:11Z</time>
      </trkpt>
      <trkpt lat="46.13617" lon="6.38427">
        <ele>609.8</ele>
        <time>2021-06-26T12:13:12Z</time>
      </trkpt>
      <trkpt lat="46.13618" lon="6.38423">
        <ele>610</ele>
        <time>2021-06-26T12:13:13Z</time>
      </trkpt>
      <trkpt lat="46.13621" lon="6.38419">
        <ele>610.2</ele>
        <time>2021-06-26T12:13:14Z</time>
      </trkpt>
      <trkpt lat="46.13623" lon="6.38415">
        <ele>610.6</ele>
        <time>2021-06-26T12:13:15Z</time>
      </trkpt>
      <trkpt lat="46.13625" lon="6.38411">
        <ele>610.6</ele>
        <time>2021-06-26T12:13:16Z</time>
      </trkpt>
      <trkpt lat="46.13626" lon="6.38407">
        <ele>611</ele>
        <time>2021-06-26T12:13:17Z</time>
      </trkpt>
      <trkpt lat="46.13628" lon="6.38403">
        <ele>611.2</ele>
        <time>2021-06-26T12:13:18Z</time>
      </trkpt>
      <trkpt lat="46.1363" lon="6.38398">
        <ele>611.2</ele>
        <time>2021-06-26T12:13:19Z</time>
      </trkpt>
      <trkpt lat="46.13631" lon="6.38394">
        <ele>611.2</ele>
        <time>2021-06-26T12:13:20Z</time>
      </trkpt>
      <trkpt lat="46.13633" lon="6.38389">
        <ele>611.4</ele>
        <time>2021-06-26T12:13:21Z</time>
      </trkpt>
      <trkpt lat="46.13635" lon="6.38385">
        <ele>611.6</ele>
        <time>2021-06-26T12:13:22Z</time>
      </trkpt>
      <trkpt lat="46.13637" lon="6.3838">
        <ele>611.8</ele>
        <time>2021-06-26T12:13:23Z</time>
      </trkpt>
      <trkpt lat="46.13638" lon="6.38375">
        <ele>611.8</ele>
        <time>2021-06-26T12:13:24Z</time>
      </trkpt>
      <trkpt lat="46.1364" lon="6.3837">
        <ele>612</ele>
        <time>2021-06-26T12:13:25Z</time>
      </trkpt>
      <trkpt lat="46.13642" lon="6.38365">
        <ele>612.2</ele>
        <time>2021-06-26T12:13:26Z</time>
      </trkpt>
      <trkpt lat="46.13644" lon="6.3836">
        <ele>612.6</ele>
        <time>2021-06-26T12:13:27Z</time>
      </trkpt>
      <trkpt lat="46.13646" lon="6.38355">
        <ele>612.6</ele>
        <time>2021-06-26T12:13:28Z</time>
      </trkpt>
      <trkpt lat="46.13648" lon="6.3835">
        <ele>613</ele>
        <time>2021-06-26T12:13:29Z</time>
      </trkpt>
      <trkpt lat="46.1365" lon="6.38345">
        <ele>613</ele>
        <time>2021-06-26T12:13:30Z</time>
      </trkpt>
      <trkpt lat="46.13652" lon="6.3834">
        <ele>613</ele>
        <time>2021-06-26T12:13:31Z</time>
      </trkpt>
      <trkpt lat="46.13654" lon="6.38335">
        <ele>613.2</ele>
        <time>2021-06-26T12:13:32Z</time>
      </trkpt>
      <trkpt lat="46.13656" lon="6.3833">
        <ele>613.2</ele>
        <time>2021-06-26T12:13:33Z</time>
      </trkpt>
      <trkpt lat="46.13658" lon="6.38325">
        <ele>613.4</ele>
        <time>2021-06-26T12:13:34Z</time>
      </trkpt>
      <trkpt lat="46.1366" lon="6.3832">
        <ele>613.6</ele>
        <time>2021-06-26T12:13:35Z</time>
      </trkpt>
      <trkpt lat="46.13663" lon="6.38314">
        <ele>613.6</ele>
        <time>2021-06-26T12:13:36Z</time>
      </trkpt>
      <trkpt lat="46.13665" lon="6.38309">
        <ele>614</ele>
        <time>2021-06-26T12:13:37Z</time>
      </trkpt>
      <trkpt lat="46.13667" lon="6.38304">
        <ele>614</ele>
        <time>2021-06-26T12:13:38Z</time>
      </trkpt>
      <trkpt lat="46.1367" lon="6.38299">
        <ele>614</ele>
        <time>2021-06-26T12:13:39Z</time>
      </trkpt>
      <trkpt lat="46.13672" lon="6.38294">
        <ele>614</ele>
        <time>2021-06-26T12:13:40Z</time>
      </trkpt>
      <trkpt lat="46.13675" lon="6.38288">
        <ele>614</ele>
        <time>2021-06-26T12:13:41Z</time>
      </trkpt>
      <trkpt lat="46.13677" lon="6.38283">
        <ele>614.2</ele>
        <time>2021-06-26T12:13:42Z</time>
      </trkpt>
      <trkpt lat="46.1368" lon="6.38278">
        <ele>614.2</ele>
        <time>2021-06-26T12:13:43Z</time>
      </trkpt>
      <trkpt lat="46.13682" lon="6.38273">
        <ele>614.4</ele>
        <time>2021-06-26T12:13:44Z</time>
      </trkpt>
      <trkpt lat="46.13684" lon="6.38268">
        <ele>614.6</ele>
        <time>2021-06-26T12:13:45Z</time>
      </trkpt>
      <trkpt lat="46.13687" lon="6.38263">
        <ele>614.6</ele>
        <time>2021-06-26T12:13:46Z</time>
      </trkpt>
      <trkpt lat="46.13689" lon="6.38258">
        <ele>614.8</ele>
        <time>2021-06-26T12:13:47Z</time>
      </trkpt>
      <trkpt lat="46.13691" lon="6.38253">
        <ele>615</ele>
        <time>2021-06-26T12:13:48Z</time>
      </trkpt>
      <trkpt lat="46.13694" lon="6.38249">
        <ele>615.2</ele>
        <time>2021-06-26T12:13:49Z</time>
      </trkpt>
      <trkpt lat="46.13696" lon="6.38244">
        <ele>615.2</ele>
        <time>2021-06-26T12:13:50Z</time>
      </trkpt>
      <trkpt lat="46.13698" lon="6.38239">
        <ele>615.2</ele>
        <time>2021-06-26T12:13:51Z</time>
      </trkpt>
      <trkpt lat="46.137" lon="6.38234">
        <ele>615.4</ele>
        <time>2021-06-26T12:13:52Z</time>
      </trkpt>
      <trkpt lat="46.13703" lon="6.38229">
        <ele>615.6</ele>
        <time>2021-06-26T12:13:53Z</time>
      </trkpt>
      <trkpt lat="46.13705" lon="6.38224">
        <ele>615.6</ele>
        <time>2021-06-26T12:13:54Z</time>
      </trkpt>
      <trkpt lat="46.13708" lon="6.38219">
        <ele>615.6</ele>
        <time>2021-06-26T12:13:55Z</time>
      </trkpt>
      <trkpt lat="46.1371" lon="6.38214">
        <ele>615.8</ele>
        <time>2021-06-26T12:13:56Z</time>
      </trkpt>
      <trkpt lat="46.13713" lon="6.38209">
        <ele>616</ele>
        <time>2021-06-26T12:13:57Z</time>
      </trkpt>
      <trkpt lat="46.13716" lon="6.38204">
        <ele>616</ele>
        <time>2021-06-26T12:13:58Z</time>
      </trkpt>
      <trkpt lat="46.13718" lon="6.38199">
        <ele>616.2</ele>
        <time>2021-06-26T12:13:59Z</time>
      </trkpt>
      <trkpt lat="46.13721" lon="6.38194">
        <ele>616.4</ele>
        <time>2021-06-26T12:14:00Z</time>
      </trkpt>
      <trkpt lat="46.13724" lon="6.38189">
        <ele>616.6</ele>
        <time>2021-06-26T12:14:01Z</time>
      </trkpt>
      <trkpt lat="46.13726" lon="6.38184">
        <ele>616.6</ele>
        <time>2021-06-26T12:14:02Z</time>
      </trkpt>
      <trkpt lat="46.13729" lon="6.3818">
        <ele>616.8</ele>
        <time>2021-06-26T12:14:03Z</time>
      </trkpt>
      <trkpt lat="46.13732" lon="6.38175">
        <ele>617</ele>
        <time>2021-06-26T12:14:04Z</time>
      </trkpt>
      <trkpt lat="46.13736" lon="6.38171">
        <ele>617.2</ele>
        <time>2021-06-26T12:14:05Z</time>
      </trkpt>
      <trkpt lat="46.13739" lon="6.38166">
        <ele>617.2</ele>
        <time>2021-06-26T12:14:06Z</time>
      </trkpt>
      <trkpt lat="46.13743" lon="6.38161">
        <ele>617.4</ele>
        <time>2021-06-26T12:14:07Z</time>
      </trkpt>
      <trkpt lat="46.13746" lon="6.38157">
        <ele>617.4</ele>
        <time>2021-06-26T12:14:08Z</time>
      </trkpt>
      <trkpt lat="46.1375" lon="6.38153">
        <ele>617.4</ele>
        <time>2021-06-26T12:14:09Z</time>
      </trkpt>
      <trkpt lat="46.13754" lon="6.38148">
        <ele>617.6</ele>
        <time>2021-06-26T12:14:10Z</time>
      </trkpt>
      <trkpt lat="46.13758" lon="6.38144">
        <ele>617.6</ele>
        <time>2021-06-26T12:14:11Z</time>
      </trkpt>
      <trkpt lat="46.13762" lon="6.38139">
        <ele>617.8</ele>
        <time>2021-06-26T12:14:12Z</time>
      </trkpt>
      <trkpt lat="46.13766" lon="6.38134">
        <ele>617.8</ele>
        <time>2021-06-26T12:14:13Z</time>
      </trkpt>
      <trkpt lat="46.1377" lon="6.38129">
        <ele>617.8</ele>
        <time>2021-06-26T12:14:14Z</time>
      </trkpt>
      <trkpt lat="46.13774" lon="6.38124">
        <ele>618.2</ele>
        <time>2021-06-26T12:14:15Z</time>
      </trkpt>
      <trkpt lat="46.13778" lon="6.38119">
        <ele>618.2</ele>
        <time>2021-06-26T12:14:16Z</time>
      </trkpt>
      <trkpt lat="46.1379" lon="6.38103">
        <ele>618.4</ele>
        <time>2021-06-26T12:14:19Z</time>
      </trkpt>
      <trkpt lat="46.13801" lon="6.38085">
        <ele>618.4</ele>
        <time>2021-06-26T12:14:22Z</time>
      </trkpt>
      <trkpt lat="46.13805" lon="6.38079">
        <ele>618.4</ele>
        <time>2021-06-26T12:14:23Z</time>
      </trkpt>
      <trkpt lat="46.13808" lon="6.38073">
        <ele>618.4</ele>
        <time>2021-06-26T12:14:24Z</time>
      </trkpt>
      <trkpt lat="46.13811" lon="6.38068">
        <ele>618.4</ele>
        <time>2021-06-26T12:14:25Z</time>
      </trkpt>
      <trkpt lat="46.13814" lon="6.38062">
        <ele>618.4</ele>
        <time>2021-06-26T12:14:26Z</time>
      </trkpt>
      <trkpt lat="46.13817" lon="6.38056">
        <ele>618.2</ele>
        <time>2021-06-26T12:14:27Z</time>
      </trkpt>
      <trkpt lat="46.13827" lon="6.38038">
        <ele>618</ele>
        <time>2021-06-26T12:14:30Z</time>
      </trkpt>
      <trkpt lat="46.13861" lon="6.37973">
        <ele>617.2</ele>
        <time>2021-06-26T12:14:40Z</time>
      </trkpt>
      <trkpt lat="46.13864" lon="6.37966">
        <ele>617.2</ele>
        <time>2021-06-26T12:14:41Z</time>
      </trkpt>
      <trkpt lat="46.13867" lon="6.3796">
        <ele>617.2</ele>
        <time>2021-06-26T12:14:42Z</time>
      </trkpt>
      <trkpt lat="46.13871" lon="6.37953">
        <ele>617.4</ele>
        <time>2021-06-26T12:14:43Z</time>
      </trkpt>
      <trkpt lat="46.13874" lon="6.37947">
        <ele>617.2</ele>
        <time>2021-06-26T12:14:44Z</time>
      </trkpt>
      <trkpt lat="46.13877" lon="6.3794">
        <ele>617.4</ele>
        <time>2021-06-26T12:14:45Z</time>
      </trkpt>
      <trkpt lat="46.1388" lon="6.37934">
        <ele>617.2</ele>
        <time>2021-06-26T12:14:46Z</time>
      </trkpt>
      <trkpt lat="46.13882" lon="6.37927">
        <ele>617.4</ele>
        <time>2021-06-26T12:14:47Z</time>
      </trkpt>
      <trkpt lat="46.13885" lon="6.37921">
        <ele>617.4</ele>
        <time>2021-06-26T12:14:48Z</time>
      </trkpt>
      <trkpt lat="46.13892" lon="6.37899">
        <ele>617.6</ele>
        <time>2021-06-26T12:14:51Z</time>
      </trkpt>
      <trkpt lat="46.13893" lon="6.37892">
        <ele>617.6</ele>
        <time>2021-06-26T12:14:52Z</time>
      </trkpt>
      <trkpt lat="46.13895" lon="6.37877">
        <ele>617.8</ele>
        <time>2021-06-26T12:14:54Z</time>
      </trkpt>
      <trkpt lat="46.13896" lon="6.37854">
        <ele>618.4</ele>
        <time>2021-06-26T12:14:57Z</time>
      </trkpt>
      <trkpt lat="46.13896" lon="6.37847">
        <ele>618.4</ele>
        <time>2021-06-26T12:14:58Z</time>
      </trkpt>
      <trkpt lat="46.13895" lon="6.37839">
        <ele>618.6</ele>
        <time>2021-06-26T12:14:59Z</time>
      </trkpt>
      <trkpt lat="46.13895" lon="6.37832">
        <ele>618.8</ele>
        <time>2021-06-26T12:15:00Z</time>
      </trkpt>
      <trkpt lat="46.13894" lon="6.37825">
        <ele>618.8</ele>
        <time>2021-06-26T12:15:01Z</time>
      </trkpt>
      <trkpt lat="46.13893" lon="6.37818">
        <ele>619</ele>
        <time>2021-06-26T12:15:02Z</time>
      </trkpt>
      <trkpt lat="46.13893" lon="6.37811">
        <ele>619.4</ele>
        <time>2021-06-26T12:15:03Z</time>
      </trkpt>
      <trkpt lat="46.13892" lon="6.37804">
        <ele>619.4</ele>
        <time>2021-06-26T12:15:04Z</time>
      </trkpt>
      <trkpt lat="46.13892" lon="6.37797">
        <ele>619.6</ele>
        <time>2021-06-26T12:15:05Z</time>
      </trkpt>
      <trkpt lat="46.13892" lon="6.3779">
        <ele>619.6</ele>
        <time>2021-06-26T12:15:06Z</time>
      </trkpt>
      <trkpt lat="46.13891" lon="6.37784">
        <ele>619.6</ele>
        <time>2021-06-26T12:15:07Z</time>
      </trkpt>
      <trkpt lat="46.13891" lon="6.37778">
        <ele>620.2</ele>
        <time>2021-06-26T12:15:08Z</time>
      </trkpt>
      <trkpt lat="46.1389" lon="6.37771">
        <ele>620.4</ele>
        <time>2021-06-26T12:15:09Z</time>
      </trkpt>
      <trkpt lat="46.1389" lon="6.37765">
        <ele>620.8</ele>
        <time>2021-06-26T12:15:10Z</time>
      </trkpt>
      <trkpt lat="46.1389" lon="6.3776">
        <ele>621</ele>
        <time>2021-06-26T12:15:11Z</time>
      </trkpt>
      <trkpt lat="46.1389" lon="6.37754">
        <ele>621</ele>
        <time>2021-06-26T12:15:12Z</time>
      </trkpt>
      <trkpt lat="46.1389" lon="6.37748">
        <ele>621.4</ele>
        <time>2021-06-26T12:15:13Z</time>
      </trkpt>
      <trkpt lat="46.13891" lon="6.37742">
        <ele>621.4</ele>
        <time>2021-06-26T12:15:14Z</time>
      </trkpt>
      <trkpt lat="46.13892" lon="6.37737">
        <ele>621.8</ele>
        <time>2021-06-26T12:15:15Z</time>
      </trkpt>
      <trkpt lat="46.13892" lon="6.37731">
        <ele>621.8</ele>
        <time>2021-06-26T12:15:16Z</time>
      </trkpt>
      <trkpt lat="46.13893" lon="6.37725">
        <ele>622</ele>
        <time>2021-06-26T12:15:17Z</time>
      </trkpt>
      <trkpt lat="46.13894" lon="6.3772">
        <ele>622.4</ele>
        <time>2021-06-26T12:15:18Z</time>
      </trkpt>
      <trkpt lat="46.13895" lon="6.37715">
        <ele>622.6</ele>
        <time>2021-06-26T12:15:19Z</time>
      </trkpt>
      <trkpt lat="46.13896" lon="6.37709">
        <ele>623</ele>
        <time>2021-06-26T12:15:20Z</time>
      </trkpt>
      <trkpt lat="46.13898" lon="6.37703">
        <ele>623.2</ele>
        <time>2021-06-26T12:15:21Z</time>
      </trkpt>
      <trkpt lat="46.13899" lon="6.37698">
        <ele>623.8</ele>
        <time>2021-06-26T12:15:22Z</time>
      </trkpt>
      <trkpt lat="46.13901" lon="6.37692">
        <ele>624</ele>
        <time>2021-06-26T12:15:23Z</time>
      </trkpt>
      <trkpt lat="46.13902" lon="6.37686">
        <ele>624</ele>
        <time>2021-06-26T12:15:24Z</time>
      </trkpt>
      <trkpt lat="46.13904" lon="6.37681">
        <ele>624.2</ele>
        <time>2021-06-26T12:15:25Z</time>
      </trkpt>
      <trkpt lat="46.13906" lon="6.37675">
        <ele>624.6</ele>
        <time>2021-06-26T12:15:26Z</time>
      </trkpt>
      <trkpt lat="46.13908" lon="6.37669">
        <ele>624.8</ele>
        <time>2021-06-26T12:15:27Z</time>
      </trkpt>
      <trkpt lat="46.1391" lon="6.37664">
        <ele>624.8</ele>
        <time>2021-06-26T12:15:28Z</time>
      </trkpt>
      <trkpt lat="46.13913" lon="6.37658">
        <ele>625</ele>
        <time>2021-06-26T12:15:29Z</time>
      </trkpt>
      <trkpt lat="46.13915" lon="6.37653">
        <ele>625</ele>
        <time>2021-06-26T12:15:30Z</time>
      </trkpt>
      <trkpt lat="46.13918" lon="6.37647">
        <ele>625.4</ele>
        <time>2021-06-26T12:15:31Z</time>
      </trkpt>
      <trkpt lat="46.13921" lon="6.37642">
        <ele>625.2</ele>
        <time>2021-06-26T12:15:32Z</time>
      </trkpt>
      <trkpt lat="46.13924" lon="6.37636">
        <ele>625.2</ele>
        <time>2021-06-26T12:15:33Z</time>
      </trkpt>
      <trkpt lat="46.13928" lon="6.37631">
        <ele>625.4</ele>
        <time>2021-06-26T12:15:34Z</time>
      </trkpt>
      <trkpt lat="46.13932" lon="6.37625">
        <ele>625.6</ele>
        <time>2021-06-26T12:15:35Z</time>
      </trkpt>
      <trkpt lat="46.13935" lon="6.3762">
        <ele>625.4</ele>
        <time>2021-06-26T12:15:36Z</time>
      </trkpt>
      <trkpt lat="46.13939" lon="6.37615">
        <ele>625.6</ele>
        <time>2021-06-26T12:15:37Z</time>
      </trkpt>
      <trkpt lat="46.13943" lon="6.3761">
        <ele>625.4</ele>
        <time>2021-06-26T12:15:38Z</time>
      </trkpt>
      <trkpt lat="46.13947" lon="6.37605">
        <ele>625.8</ele>
        <time>2021-06-26T12:15:39Z</time>
      </trkpt>
      <trkpt lat="46.1395" lon="6.376">
        <ele>625.6</ele>
        <time>2021-06-26T12:15:40Z</time>
      </trkpt>
      <trkpt lat="46.13954" lon="6.37594">
        <ele>625.8</ele>
        <time>2021-06-26T12:15:41Z</time>
      </trkpt>
      <trkpt lat="46.13971" lon="6.37564">
        <ele>626</ele>
        <time>2021-06-26T12:15:46Z</time>
      </trkpt>
      <trkpt lat="46.13994" lon="6.37508">
        <ele>626</ele>
        <time>2021-06-26T12:15:54Z</time>
      </trkpt>
      <trkpt lat="46.13997" lon="6.37501">
        <ele>626</ele>
        <time>2021-06-26T12:15:55Z</time>
      </trkpt>
      <trkpt lat="46.14" lon="6.37494">
        <ele>626</ele>
        <time>2021-06-26T12:15:56Z</time>
      </trkpt>
      <trkpt lat="46.14003" lon="6.37487">
        <ele>626</ele>
        <time>2021-06-26T12:15:57Z</time>
      </trkpt>
      <trkpt lat="46.14006" lon="6.37481">
        <ele>626</ele>
        <time>2021-06-26T12:15:58Z</time>
      </trkpt>
      <trkpt lat="46.14009" lon="6.37474">
        <ele>626</ele>
        <time>2021-06-26T12:15:59Z</time>
      </trkpt>
      <trkpt lat="46.14012" lon="6.37467">
        <ele>626</ele>
        <time>2021-06-26T12:16:00Z</time>
      </trkpt>
      <trkpt lat="46.14015" lon="6.37461">
        <ele>626</ele>
        <time>2021-06-26T12:16:01Z</time>
      </trkpt>
      <trkpt lat="46.14017" lon="6.37455">
        <ele>626.2</ele>
        <time>2021-06-26T12:16:02Z</time>
      </trkpt>
      <trkpt lat="46.1402" lon="6.37449">
        <ele>626.2</ele>
        <time>2021-06-26T12:16:03Z</time>
      </trkpt>
      <trkpt lat="46.14023" lon="6.37442">
        <ele>626.2</ele>
        <time>2021-06-26T12:16:04Z</time>
      </trkpt>
      <trkpt lat="46.14026" lon="6.37436">
        <ele>626.2</ele>
        <time>2021-06-26T12:16:05Z</time>
      </trkpt>
      <trkpt lat="46.14029" lon="6.3743">
        <ele>626.4</ele>
        <time>2021-06-26T12:16:06Z</time>
      </trkpt>
      <trkpt lat="46.14032" lon="6.37424">
        <ele>626.6</ele>
        <time>2021-06-26T12:16:07Z</time>
      </trkpt>
      <trkpt lat="46.14034" lon="6.37418">
        <ele>626.8</ele>
        <time>2021-06-26T12:16:08Z</time>
      </trkpt>
      <trkpt lat="46.14037" lon="6.37412">
        <ele>626.8</ele>
        <time>2021-06-26T12:16:09Z</time>
      </trkpt>
      <trkpt lat="46.1404" lon="6.37406">
        <ele>627.2</ele>
        <time>2021-06-26T12:16:10Z</time>
      </trkpt>
      <trkpt lat="46.14043" lon="6.37401">
        <ele>627.2</ele>
        <time>2021-06-26T12:16:11Z</time>
      </trkpt>
      <trkpt lat="46.14046" lon="6.37395">
        <ele>627.6</ele>
        <time>2021-06-26T12:16:12Z</time>
      </trkpt>
      <trkpt lat="46.14048" lon="6.37389">
        <ele>627.8</ele>
        <time>2021-06-26T12:16:13Z</time>
      </trkpt>
      <trkpt lat="46.14051" lon="6.37383">
        <ele>628</ele>
        <time>2021-06-26T12:16:14Z</time>
      </trkpt>
      <trkpt lat="46.14054" lon="6.37377">
        <ele>628.2</ele>
        <time>2021-06-26T12:16:15Z</time>
      </trkpt>
      <trkpt lat="46.14057" lon="6.37372">
        <ele>628.4</ele>
        <time>2021-06-26T12:16:16Z</time>
      </trkpt>
      <trkpt lat="46.14059" lon="6.37366">
        <ele>628.4</ele>
        <time>2021-06-26T12:16:17Z</time>
      </trkpt>
      <trkpt lat="46.14062" lon="6.37361">
        <ele>628.6</ele>
        <time>2021-06-26T12:16:18Z</time>
      </trkpt>
      <trkpt lat="46.14064" lon="6.37355">
        <ele>629</ele>
        <time>2021-06-26T12:16:19Z</time>
      </trkpt>
      <trkpt lat="46.14067" lon="6.3735">
        <ele>629.4</ele>
        <time>2021-06-26T12:16:20Z</time>
      </trkpt>
      <trkpt lat="46.1407" lon="6.37344">
        <ele>629.4</ele>
        <time>2021-06-26T12:16:21Z</time>
      </trkpt>
      <trkpt lat="46.14072" lon="6.37339">
        <ele>629.6</ele>
        <time>2021-06-26T12:16:22Z</time>
      </trkpt>
      <trkpt lat="46.14075" lon="6.37334">
        <ele>629.6</ele>
        <time>2021-06-26T12:16:23Z</time>
      </trkpt>
      <trkpt lat="46.14077" lon="6.37329">
        <ele>629.8</ele>
        <time>2021-06-26T12:16:24Z</time>
      </trkpt>
      <trkpt lat="46.1408" lon="6.37324">
        <ele>629.8</ele>
        <time>2021-06-26T12:16:25Z</time>
      </trkpt>
      <trkpt lat="46.14082" lon="6.37319">
        <ele>630.2</ele>
        <time>2021-06-26T12:16:26Z</time>
      </trkpt>
      <trkpt lat="46.14084" lon="6.37314">
        <ele>630.2</ele>
        <time>2021-06-26T12:16:27Z</time>
      </trkpt>
      <trkpt lat="46.14087" lon="6.3731">
        <ele>630.2</ele>
        <time>2021-06-26T12:16:28Z</time>
      </trkpt>
      <trkpt lat="46.1409" lon="6.37306">
        <ele>630.4</ele>
        <time>2021-06-26T12:16:29Z</time>
      </trkpt>
      <trkpt lat="46.14092" lon="6.37302">
        <ele>630.6</ele>
        <time>2021-06-26T12:16:30Z</time>
      </trkpt>
      <trkpt lat="46.14095" lon="6.37297">
        <ele>630.6</ele>
        <time>2021-06-26T12:16:31Z</time>
      </trkpt>
      <trkpt lat="46.14098" lon="6.37293">
        <ele>630.8</ele>
        <time>2021-06-26T12:16:32Z</time>
      </trkpt>
      <trkpt lat="46.141" lon="6.37289">
        <ele>631</ele>
        <time>2021-06-26T12:16:33Z</time>
      </trkpt>
      <trkpt lat="46.14103" lon="6.37284">
        <ele>631.2</ele>
        <time>2021-06-26T12:16:34Z</time>
      </trkpt>
      <trkpt lat="46.14106" lon="6.3728">
        <ele>631.4</ele>
        <time>2021-06-26T12:16:35Z</time>
      </trkpt>
      <trkpt lat="46.14109" lon="6.37276">
        <ele>631.6</ele>
        <time>2021-06-26T12:16:36Z</time>
      </trkpt>
      <trkpt lat="46.14112" lon="6.37272">
        <ele>631.8</ele>
        <time>2021-06-26T12:16:37Z</time>
      </trkpt>
      <trkpt lat="46.14115" lon="6.37267">
        <ele>632</ele>
        <time>2021-06-26T12:16:38Z</time>
      </trkpt>
      <trkpt lat="46.14119" lon="6.37263">
        <ele>632</ele>
        <time>2021-06-26T12:16:39Z</time>
      </trkpt>
      <trkpt lat="46.14122" lon="6.37259">
        <ele>632.4</ele>
        <time>2021-06-26T12:16:40Z</time>
      </trkpt>
      <trkpt lat="46.14125" lon="6.37255">
        <ele>632.8</ele>
        <time>2021-06-26T12:16:41Z</time>
      </trkpt>
      <trkpt lat="46.14129" lon="6.37251">
        <ele>633</ele>
        <time>2021-06-26T12:16:42Z</time>
      </trkpt>
      <trkpt lat="46.14132" lon="6.37247">
        <ele>633.4</ele>
        <time>2021-06-26T12:16:43Z</time>
      </trkpt>
      <trkpt lat="46.14136" lon="6.37243">
        <ele>633.8</ele>
        <time>2021-06-26T12:16:44Z</time>
      </trkpt>
      <trkpt lat="46.1414" lon="6.37239">
        <ele>633.8</ele>
        <time>2021-06-26T12:16:45Z</time>
      </trkpt>
      <trkpt lat="46.14143" lon="6.37235">
        <ele>634</ele>
        <time>2021-06-26T12:16:46Z</time>
      </trkpt>
      <trkpt lat="46.14147" lon="6.37231">
        <ele>634.2</ele>
        <time>2021-06-26T12:16:47Z</time>
      </trkpt>
      <trkpt lat="46.14151" lon="6.37227">
        <ele>634.4</ele>
        <time>2021-06-26T12:16:48Z</time>
      </trkpt>
      <trkpt lat="46.14154" lon="6.37223">
        <ele>634.6</ele>
        <time>2021-06-26T12:16:49Z</time>
      </trkpt>
      <trkpt lat="46.14158" lon="6.37219">
        <ele>634.8</ele>
        <time>2021-06-26T12:16:50Z</time>
      </trkpt>
      <trkpt lat="46.14162" lon="6.37216">
        <ele>634.8</ele>
        <time>2021-06-26T12:16:51Z</time>
      </trkpt>
      <trkpt lat="46.14166" lon="6.37212">
        <ele>635</ele>
        <time>2021-06-26T12:16:52Z</time>
      </trkpt>
      <trkpt lat="46.1417" lon="6.37208">
        <ele>635</ele>
        <time>2021-06-26T12:16:53Z</time>
      </trkpt>
      <trkpt lat="46.14174" lon="6.37204">
        <ele>635</ele>
        <time>2021-06-26T12:16:54Z</time>
      </trkpt>
      <trkpt lat="46.14178" lon="6.372">
        <ele>635</ele>
        <time>2021-06-26T12:16:55Z</time>
      </trkpt>
      <trkpt lat="46.14182" lon="6.37196">
        <ele>635.2</ele>
        <time>2021-06-26T12:16:56Z</time>
      </trkpt>
      <trkpt lat="46.14186" lon="6.37193">
        <ele>635.4</ele>
        <time>2021-06-26T12:16:57Z</time>
      </trkpt>
      <trkpt lat="46.1419" lon="6.37189">
        <ele>635.4</ele>
        <time>2021-06-26T12:16:58Z</time>
      </trkpt>
      <trkpt lat="46.14194" lon="6.37185">
        <ele>635.4</ele>
        <time>2021-06-26T12:16:59Z</time>
      </trkpt>
      <trkpt lat="46.14198" lon="6.37181">
        <ele>635.6</ele>
        <time>2021-06-26T12:17:00Z</time>
      </trkpt>
      <trkpt lat="46.14202" lon="6.37177">
        <ele>635.6</ele>
        <time>2021-06-26T12:17:01Z</time>
      </trkpt>
      <trkpt lat="46.14206" lon="6.37173">
        <ele>635.6</ele>
        <time>2021-06-26T12:17:02Z</time>
      </trkpt>
      <trkpt lat="46.1421" lon="6.3717">
        <ele>635.6</ele>
        <time>2021-06-26T12:17:03Z</time>
      </trkpt>
      <trkpt lat="46.14214" lon="6.37166">
        <ele>635.8</ele>
        <time>2021-06-26T12:17:04Z</time>
      </trkpt>
      <trkpt lat="46.14218" lon="6.37162">
        <ele>635.8</ele>
        <time>2021-06-26T12:17:05Z</time>
      </trkpt>
      <trkpt lat="46.14222" lon="6.37158">
        <ele>636</ele>
        <time>2021-06-26T12:17:06Z</time>
      </trkpt>
      <trkpt lat="46.14226" lon="6.37154">
        <ele>636</ele>
        <time>2021-06-26T12:17:07Z</time>
      </trkpt>
      <trkpt lat="46.1423" lon="6.37151">
        <ele>636.2</ele>
        <time>2021-06-26T12:17:08Z</time>
      </trkpt>
      <trkpt lat="46.14234" lon="6.37147">
        <ele>636</ele>
        <time>2021-06-26T12:17:09Z</time>
      </trkpt>
      <trkpt lat="46.14238" lon="6.37143">
        <ele>636.4</ele>
        <time>2021-06-26T12:17:10Z</time>
      </trkpt>
      <trkpt lat="46.14242" lon="6.37139">
        <ele>636.2</ele>
        <time>2021-06-26T12:17:11Z</time>
      </trkpt>
      <trkpt lat="46.14246" lon="6.37135">
        <ele>636.4</ele>
        <time>2021-06-26T12:17:12Z</time>
      </trkpt>
      <trkpt lat="46.1425" lon="6.37132">
        <ele>636.6</ele>
        <time>2021-06-26T12:17:13Z</time>
      </trkpt>
      <trkpt lat="46.14254" lon="6.37127">
        <ele>637</ele>
        <time>2021-06-26T12:17:14Z</time>
      </trkpt>
      <trkpt lat="46.14258" lon="6.37123">
        <ele>637</ele>
        <time>2021-06-26T12:17:15Z</time>
      </trkpt>
      <trkpt lat="46.14263" lon="6.37119">
        <ele>637</ele>
        <time>2021-06-26T12:17:16Z</time>
      </trkpt>
      <trkpt lat="46.143" lon="6.37081">
        <ele>637.6</ele>
        <time>2021-06-26T12:17:24Z</time>
      </trkpt>
      <trkpt lat="46.14314" lon="6.37066">
        <ele>637.6</ele>
        <time>2021-06-26T12:17:27Z</time>
      </trkpt>
      <trkpt lat="46.14318" lon="6.37062">
        <ele>637.4</ele>
        <time>2021-06-26T12:17:28Z</time>
      </trkpt>
      <trkpt lat="46.14338" lon="6.37043">
        <ele>637.4</ele>
        <time>2021-06-26T12:17:32Z</time>
      </trkpt>
      <trkpt lat="46.14347" lon="6.37033">
        <ele>637.4</ele>
        <time>2021-06-26T12:17:34Z</time>
      </trkpt>
      <trkpt lat="46.14352" lon="6.37028">
        <ele>637.4</ele>
        <time>2021-06-26T12:17:35Z</time>
      </trkpt>
      <trkpt lat="46.14356" lon="6.37024">
        <ele>637.4</ele>
        <time>2021-06-26T12:17:36Z</time>
      </trkpt>
      <trkpt lat="46.14361" lon="6.37019">
        <ele>637.4</ele>
        <time>2021-06-26T12:17:37Z</time>
      </trkpt>
      <trkpt lat="46.14365" lon="6.37015">
        <ele>637.4</ele>
        <time>2021-06-26T12:17:38Z</time>
      </trkpt>
      <trkpt lat="46.1437" lon="6.3701">
        <ele>637.4</ele>
        <time>2021-06-26T12:17:39Z</time>
      </trkpt>
      <trkpt lat="46.14374" lon="6.37006">
        <ele>637.6</ele>
        <time>2021-06-26T12:17:40Z</time>
      </trkpt>
      <trkpt lat="46.14383" lon="6.36996">
        <ele>637.6</ele>
        <time>2021-06-26T12:17:42Z</time>
      </trkpt>
      <trkpt lat="46.14397" lon="6.36982">
        <ele>637.8</ele>
        <time>2021-06-26T12:17:45Z</time>
      </trkpt>
      <trkpt lat="46.14435" lon="6.36944">
        <ele>638.2</ele>
        <time>2021-06-26T12:17:53Z</time>
      </trkpt>
      <trkpt lat="46.14456" lon="6.36924">
        <ele>638.2</ele>
        <time>2021-06-26T12:17:57Z</time>
      </trkpt>
      <trkpt lat="46.1449" lon="6.36889">
        <ele>638.4</ele>
        <time>2021-06-26T12:18:04Z</time>
      </trkpt>
      <trkpt lat="46.14495" lon="6.36884">
        <ele>638.4</ele>
        <time>2021-06-26T12:18:05Z</time>
      </trkpt>
      <trkpt lat="46.145" lon="6.3688">
        <ele>638.2</ele>
        <time>2021-06-26T12:18:06Z</time>
      </trkpt>
      <trkpt lat="46.14504" lon="6.36875">
        <ele>638</ele>
        <time>2021-06-26T12:18:07Z</time>
      </trkpt>
      <trkpt lat="46.14509" lon="6.36871">
        <ele>638</ele>
        <time>2021-06-26T12:18:08Z</time>
      </trkpt>
      <trkpt lat="46.14513" lon="6.36866">
        <ele>638</ele>
        <time>2021-06-26T12:18:09Z</time>
      </trkpt>
      <trkpt lat="46.14518" lon="6.36862">
        <ele>637.6</ele>
        <time>2021-06-26T12:18:10Z</time>
      </trkpt>
      <trkpt lat="46.14522" lon="6.36857">
        <ele>637.8</ele>
        <time>2021-06-26T12:18:11Z</time>
      </trkpt>
      <trkpt lat="46.14526" lon="6.36853">
        <ele>637.8</ele>
        <time>2021-06-26T12:18:12Z</time>
      </trkpt>
      <trkpt lat="46.14531" lon="6.36848">
        <ele>637.6</ele>
        <time>2021-06-26T12:18:13Z</time>
      </trkpt>
      <trkpt lat="46.14535" lon="6.36844">
        <ele>637.6</ele>
        <time>2021-06-26T12:18:14Z</time>
      </trkpt>
      <trkpt lat="46.14549" lon="6.3683">
        <ele>637.6</ele>
        <time>2021-06-26T12:18:17Z</time>
      </trkpt>
      <trkpt lat="46.14566" lon="6.36814">
        <ele>637.4</ele>
        <time>2021-06-26T12:18:20Z</time>
      </trkpt>
      <trkpt lat="46.14606" lon="6.36775">
        <ele>636.8</ele>
        <time>2021-06-26T12:18:27Z</time>
      </trkpt>
      <trkpt lat="46.14612" lon="6.36769">
        <ele>636.8</ele>
        <time>2021-06-26T12:18:28Z</time>
      </trkpt>
      <trkpt lat="46.14617" lon="6.36764">
        <ele>636.8</ele>
        <time>2021-06-26T12:18:29Z</time>
      </trkpt>
      <trkpt lat="46.14623" lon="6.36758">
        <ele>636.8</ele>
        <time>2021-06-26T12:18:30Z</time>
      </trkpt>
      <trkpt lat="46.14628" lon="6.36753">
        <ele>636.6</ele>
        <time>2021-06-26T12:18:31Z</time>
      </trkpt>
      <trkpt lat="46.14634" lon="6.36747">
        <ele>636.6</ele>
        <time>2021-06-26T12:18:32Z</time>
      </trkpt>
      <trkpt lat="46.14639" lon="6.36742">
        <ele>636.6</ele>
        <time>2021-06-26T12:18:33Z</time>
      </trkpt>
      <trkpt lat="46.14645" lon="6.36736">
        <ele>636.8</ele>
        <time>2021-06-26T12:18:34Z</time>
      </trkpt>
      <trkpt lat="46.1465" lon="6.3673">
        <ele>636.8</ele>
        <time>2021-06-26T12:18:35Z</time>
      </trkpt>
      <trkpt lat="46.14689" lon="6.36692">
        <ele>637.2</ele>
        <time>2021-06-26T12:18:42Z</time>
      </trkpt>
      <trkpt lat="46.147" lon="6.36681">
        <ele>637.4</ele>
        <time>2021-06-26T12:18:44Z</time>
      </trkpt>
      <trkpt lat="46.14734" lon="6.36647">
        <ele>637.6</ele>
        <time>2021-06-26T12:18:50Z</time>
      </trkpt>
      <trkpt lat="46.14751" lon="6.3663">
        <ele>637.6</ele>
        <time>2021-06-26T12:18:53Z</time>
      </trkpt>
      <trkpt lat="46.14757" lon="6.36624">
        <ele>637.2</ele>
        <time>2021-06-26T12:18:54Z</time>
      </trkpt>
      <trkpt lat="46.14768" lon="6.36613">
        <ele>637</ele>
        <time>2021-06-26T12:18:56Z</time>
      </trkpt>
      <trkpt lat="46.14774" lon="6.36607">
        <ele>637</ele>
        <time>2021-06-26T12:18:57Z</time>
      </trkpt>
      <trkpt lat="46.14785" lon="6.36596">
        <ele>636.8</ele>
        <time>2021-06-26T12:18:59Z</time>
      </trkpt>
      <trkpt lat="46.14797" lon="6.36585">
        <ele>636.8</ele>
        <time>2021-06-26T12:19:01Z</time>
      </trkpt>
      <trkpt lat="46.14844" lon="6.36538">
        <ele>636</ele>
        <time>2021-06-26T12:19:09Z</time>
      </trkpt>
      <trkpt lat="46.1485" lon="6.36532">
        <ele>636</ele>
        <time>2021-06-26T12:19:10Z</time>
      </trkpt>
      <trkpt lat="46.14873" lon="6.36508">
        <ele>636.2</ele>
        <time>2021-06-26T12:19:14Z</time>
      </trkpt>
      <trkpt lat="46.14879" lon="6.36503">
        <ele>636</ele>
        <time>2021-06-26T12:19:15Z</time>
      </trkpt>
      <trkpt lat="46.14896" lon="6.36486">
        <ele>635.8</ele>
        <time>2021-06-26T12:19:18Z</time>
      </trkpt>
      <trkpt lat="46.14902" lon="6.3648">
        <ele>636</ele>
        <time>2021-06-26T12:19:19Z</time>
      </trkpt>
      <trkpt lat="46.14907" lon="6.36474">
        <ele>635.8</ele>
        <time>2021-06-26T12:19:20Z</time>
      </trkpt>
      <trkpt lat="46.14919" lon="6.36463">
        <ele>635.8</ele>
        <time>2021-06-26T12:19:22Z</time>
      </trkpt>
      <trkpt lat="46.14942" lon="6.36439">
        <ele>636</ele>
        <time>2021-06-26T12:19:26Z</time>
      </trkpt>
      <trkpt lat="46.14953" lon="6.36426">
        <ele>636</ele>
        <time>2021-06-26T12:19:28Z</time>
      </trkpt>
      <trkpt lat="46.14974" lon="6.36397">
        <ele>635.8</ele>
        <time>2021-06-26T12:19:32Z</time>
      </trkpt>
      <trkpt lat="46.14995" lon="6.36366">
        <ele>635.4</ele>
        <time>2021-06-26T12:19:36Z</time>
      </trkpt>
      <trkpt lat="46.1501" lon="6.36342">
        <ele>635</ele>
        <time>2021-06-26T12:19:39Z</time>
      </trkpt>
      <trkpt lat="46.15035" lon="6.36302">
        <ele>633.8</ele>
        <time>2021-06-26T12:19:44Z</time>
      </trkpt>
      <trkpt lat="46.15045" lon="6.36286">
        <ele>633.2</ele>
        <time>2021-06-26T12:19:46Z</time>
      </trkpt>
      <trkpt lat="46.15054" lon="6.36269">
        <ele>632.6</ele>
        <time>2021-06-26T12:19:48Z</time>
      </trkpt>
      <trkpt lat="46.15083" lon="6.36216">
        <ele>631.4</ele>
        <time>2021-06-26T12:19:54Z</time>
      </trkpt>
      <trkpt lat="46.15098" lon="6.3619">
        <ele>630.8</ele>
        <time>2021-06-26T12:19:57Z</time>
      </trkpt>
      <trkpt lat="46.15103" lon="6.36181">
        <ele>630.6</ele>
        <time>2021-06-26T12:19:58Z</time>
      </trkpt>
      <trkpt lat="46.15117" lon="6.36154">
        <ele>630.4</ele>
        <time>2021-06-26T12:20:01Z</time>
      </trkpt>
      <trkpt lat="46.15122" lon="6.36145">
        <ele>630.2</ele>
        <time>2021-06-26T12:20:02Z</time>
      </trkpt>
      <trkpt lat="46.1514" lon="6.36106">
        <ele>629.8</ele>
        <time>2021-06-26T12:20:06Z</time>
      </trkpt>
      <trkpt lat="46.15147" lon="6.36083">
        <ele>629.4</ele>
        <time>2021-06-26T12:20:08Z</time>
      </trkpt>
      <trkpt lat="46.15166" lon="6.35997">
        <ele>626.8</ele>
        <time>2021-06-26T12:20:15Z</time>
      </trkpt>
      <trkpt lat="46.15172" lon="6.35958">
        <ele>626</ele>
        <time>2021-06-26T12:20:18Z</time>
      </trkpt>
      <trkpt lat="46.15176" lon="6.35931">
        <ele>625.2</ele>
        <time>2021-06-26T12:20:20Z</time>
      </trkpt>
      <trkpt lat="46.15178" lon="6.35904">
        <ele>625</ele>
        <time>2021-06-26T12:20:22Z</time>
      </trkpt>
      <trkpt lat="46.15179" lon="6.35876">
        <ele>624.6</ele>
        <time>2021-06-26T12:20:24Z</time>
      </trkpt>
      <trkpt lat="46.15179" lon="6.35847">
        <ele>624</ele>
        <time>2021-06-26T12:20:26Z</time>
      </trkpt>
      <trkpt lat="46.15179" lon="6.35818">
        <ele>623</ele>
        <time>2021-06-26T12:20:28Z</time>
      </trkpt>
      <trkpt lat="46.15179" lon="6.35803">
        <ele>622.6</ele>
        <time>2021-06-26T12:20:29Z</time>
      </trkpt>
      <trkpt lat="46.15179" lon="6.35774">
        <ele>621.4</ele>
        <time>2021-06-26T12:20:31Z</time>
      </trkpt>
      <trkpt lat="46.15179" lon="6.3576">
        <ele>620.8</ele>
        <time>2021-06-26T12:20:32Z</time>
      </trkpt>
      <trkpt lat="46.15179" lon="6.35731">
        <ele>619.4</ele>
        <time>2021-06-26T12:20:34Z</time>
      </trkpt>
      <trkpt lat="46.15179" lon="6.35718">
        <ele>618.6</ele>
        <time>2021-06-26T12:20:35Z</time>
      </trkpt>
      <trkpt lat="46.15179" lon="6.35704">
        <ele>618</ele>
        <time>2021-06-26T12:20:36Z</time>
      </trkpt>
      <trkpt lat="46.15179" lon="6.35691">
        <ele>617.2</ele>
        <time>2021-06-26T12:20:37Z</time>
      </trkpt>
      <trkpt lat="46.15179" lon="6.35678">
        <ele>616.8</ele>
        <time>2021-06-26T12:20:38Z</time>
      </trkpt>
      <trkpt lat="46.15179" lon="6.35665">
        <ele>616.8</ele>
        <time>2021-06-26T12:20:39Z</time>
      </trkpt>
      <trkpt lat="46.15178" lon="6.35651">
        <ele>616.2</ele>
        <time>2021-06-26T12:20:40Z</time>
      </trkpt>
      <trkpt lat="46.15176" lon="6.35625">
        <ele>615.2</ele>
        <time>2021-06-26T12:20:42Z</time>
      </trkpt>
      <trkpt lat="46.15174" lon="6.35612">
        <ele>614.8</ele>
        <time>2021-06-26T12:20:43Z</time>
      </trkpt>
      <trkpt lat="46.15167" lon="6.35571">
        <ele>614</ele>
        <time>2021-06-26T12:20:46Z</time>
      </trkpt>
      <trkpt lat="46.15165" lon="6.35557">
        <ele>613.6</ele>
        <time>2021-06-26T12:20:47Z</time>
      </trkpt>
      <trkpt lat="46.1516" lon="6.35529">
        <ele>612.8</ele>
        <time>2021-06-26T12:20:49Z</time>
      </trkpt>
      <trkpt lat="46.15154" lon="6.355">
        <ele>612.4</ele>
        <time>2021-06-26T12:20:51Z</time>
      </trkpt>
      <trkpt lat="46.15148" lon="6.35472">
        <ele>611</ele>
        <time>2021-06-26T12:20:53Z</time>
      </trkpt>
      <trkpt lat="46.15145" lon="6.35457">
        <ele>610.8</ele>
        <time>2021-06-26T12:20:54Z</time>
      </trkpt>
      <trkpt lat="46.15143" lon="6.35443">
        <ele>610.2</ele>
        <time>2021-06-26T12:20:55Z</time>
      </trkpt>
      <trkpt lat="46.1514" lon="6.35429">
        <ele>609.4</ele>
        <time>2021-06-26T12:20:56Z</time>
      </trkpt>
      <trkpt lat="46.15135" lon="6.354">
        <ele>607.8</ele>
        <time>2021-06-26T12:20:58Z</time>
      </trkpt>
      <trkpt lat="46.15133" lon="6.35385">
        <ele>607</ele>
        <time>2021-06-26T12:20:59Z</time>
      </trkpt>
      <trkpt lat="46.1513" lon="6.3537">
        <ele>606.4</ele>
        <time>2021-06-26T12:21:00Z</time>
      </trkpt>
      <trkpt lat="46.15121" lon="6.35309">
        <ele>605</ele>
        <time>2021-06-26T12:21:04Z</time>
      </trkpt>
      <trkpt lat="46.15117" lon="6.35279">
        <ele>604</ele>
        <time>2021-06-26T12:21:06Z</time>
      </trkpt>
      <trkpt lat="46.15115" lon="6.35264">
        <ele>603.4</ele>
        <time>2021-06-26T12:21:07Z</time>
      </trkpt>
      <trkpt lat="46.15113" lon="6.35249">
        <ele>602.6</ele>
        <time>2021-06-26T12:21:08Z</time>
      </trkpt>
      <trkpt lat="46.15111" lon="6.35234">
        <ele>600.8</ele>
        <time>2021-06-26T12:21:09Z</time>
      </trkpt>
      <trkpt lat="46.15107" lon="6.35204">
        <ele>599.2</ele>
        <time>2021-06-26T12:21:11Z</time>
      </trkpt>
      <trkpt lat="46.15105" lon="6.35189">
        <ele>598.8</ele>
        <time>2021-06-26T12:21:12Z</time>
      </trkpt>
      <trkpt lat="46.15103" lon="6.35175">
        <ele>598.2</ele>
        <time>2021-06-26T12:21:13Z</time>
      </trkpt>
      <trkpt lat="46.15101" lon="6.35161">
        <ele>597.4</ele>
        <time>2021-06-26T12:21:14Z</time>
      </trkpt>
      <trkpt lat="46.15099" lon="6.35147">
        <ele>597</ele>
        <time>2021-06-26T12:21:15Z</time>
      </trkpt>
      <trkpt lat="46.15097" lon="6.35133">
        <ele>596.8</ele>
        <time>2021-06-26T12:21:16Z</time>
      </trkpt>
      <trkpt lat="46.15095" lon="6.35119">
        <ele>596.2</ele>
        <time>2021-06-26T12:21:17Z</time>
      </trkpt>
      <trkpt lat="46.15093" lon="6.35105">
        <ele>595.8</ele>
        <time>2021-06-26T12:21:18Z</time>
      </trkpt>
      <trkpt lat="46.15091" lon="6.35092">
        <ele>595.6</ele>
        <time>2021-06-26T12:21:19Z</time>
      </trkpt>
      <trkpt lat="46.15084" lon="6.35036">
        <ele>594.4</ele>
        <time>2021-06-26T12:21:23Z</time>
      </trkpt>
      <trkpt lat="46.15082" lon="6.35022">
        <ele>594.4</ele>
        <time>2021-06-26T12:21:24Z</time>
      </trkpt>
      <trkpt lat="46.15082" lon="6.35008">
        <ele>594.2</ele>
        <time>2021-06-26T12:21:25Z</time>
      </trkpt>
      <trkpt lat="46.15083" lon="6.34979">
        <ele>593.4</ele>
        <time>2021-06-26T12:21:27Z</time>
      </trkpt>
      <trkpt lat="46.15084" lon="6.34964">
        <ele>593</ele>
        <time>2021-06-26T12:21:28Z</time>
      </trkpt>
      <trkpt lat="46.15087" lon="6.3495">
        <ele>592.6</ele>
        <time>2021-06-26T12:21:29Z</time>
      </trkpt>
      <trkpt lat="46.15098" lon="6.34925">
        <ele>592</ele>
        <time>2021-06-26T12:21:31Z</time>
      </trkpt>
      <trkpt lat="46.15104" lon="6.34914">
        <ele>592</ele>
        <time>2021-06-26T12:21:32Z</time>
      </trkpt>
      <trkpt lat="46.15111" lon="6.34903">
        <ele>591.2</ele>
        <time>2021-06-26T12:21:33Z</time>
      </trkpt>
      <trkpt lat="46.15118" lon="6.34893">
        <ele>590.8</ele>
        <time>2021-06-26T12:21:34Z</time>
      </trkpt>
      <trkpt lat="46.15125" lon="6.34882">
        <ele>590.2</ele>
        <time>2021-06-26T12:21:35Z</time>
      </trkpt>
      <trkpt lat="46.15131" lon="6.34872">
        <ele>589.4</ele>
        <time>2021-06-26T12:21:36Z</time>
      </trkpt>
      <trkpt lat="46.15138" lon="6.34861">
        <ele>588.4</ele>
        <time>2021-06-26T12:21:37Z</time>
      </trkpt>
      <trkpt lat="46.15171" lon="6.34808">
        <ele>587.2</ele>
        <time>2021-06-26T12:21:42Z</time>
      </trkpt>
      <trkpt lat="46.15178" lon="6.34797">
        <ele>586.8</ele>
        <time>2021-06-26T12:21:43Z</time>
      </trkpt>
      <trkpt lat="46.15191" lon="6.34774">
        <ele>584.4</ele>
        <time>2021-06-26T12:21:45Z</time>
      </trkpt>
      <trkpt lat="46.15218" lon="6.34729">
        <ele>582.8</ele>
        <time>2021-06-26T12:21:49Z</time>
      </trkpt>
      <trkpt lat="46.15232" lon="6.34707">
        <ele>582.4</ele>
        <time>2021-06-26T12:21:51Z</time>
      </trkpt>
      <trkpt lat="46.15246" lon="6.34686">
        <ele>581</ele>
        <time>2021-06-26T12:21:53Z</time>
      </trkpt>
      <trkpt lat="46.15266" lon="6.34654">
        <ele>579</ele>
        <time>2021-06-26T12:21:56Z</time>
      </trkpt>
      <trkpt lat="46.15271" lon="6.34643">
        <ele>578.4</ele>
        <time>2021-06-26T12:21:57Z</time>
      </trkpt>
      <trkpt lat="46.15276" lon="6.34632">
        <ele>578</ele>
        <time>2021-06-26T12:21:58Z</time>
      </trkpt>
      <trkpt lat="46.15278" lon="6.3462">
        <ele>577.4</ele>
        <time>2021-06-26T12:21:59Z</time>
      </trkpt>
      <trkpt lat="46.15278" lon="6.34608">
        <ele>576.8</ele>
        <time>2021-06-26T12:22:00Z</time>
      </trkpt>
      <trkpt lat="46.15278" lon="6.34596">
        <ele>576.6</ele>
        <time>2021-06-26T12:22:01Z</time>
      </trkpt>
      <trkpt lat="46.15276" lon="6.34583">
        <ele>576.4</ele>
        <time>2021-06-26T12:22:02Z</time>
      </trkpt>
      <trkpt lat="46.15275" lon="6.34571">
        <ele>576.2</ele>
        <time>2021-06-26T12:22:03Z</time>
      </trkpt>
      <trkpt lat="46.15273" lon="6.34559">
        <ele>576</ele>
        <time>2021-06-26T12:22:04Z</time>
      </trkpt>
      <trkpt lat="46.15272" lon="6.34547">
        <ele>576</ele>
        <time>2021-06-26T12:22:05Z</time>
      </trkpt>
      <trkpt lat="46.15271" lon="6.34535">
        <ele>575.8</ele>
        <time>2021-06-26T12:22:06Z</time>
      </trkpt>
      <trkpt lat="46.15269" lon="6.34523">
        <ele>575.8</ele>
        <time>2021-06-26T12:22:07Z</time>
      </trkpt>
      <trkpt lat="46.15268" lon="6.34511">
        <ele>575.8</ele>
        <time>2021-06-26T12:22:08Z</time>
      </trkpt>
      <trkpt lat="46.15265" lon="6.34476">
        <ele>575.8</ele>
        <time>2021-06-26T12:22:11Z</time>
      </trkpt>
      <trkpt lat="46.15265" lon="6.34465">
        <ele>575.6</ele>
        <time>2021-06-26T12:22:12Z</time>
      </trkpt>
      <trkpt lat="46.15264" lon="6.34454">
        <ele>575.6</ele>
        <time>2021-06-26T12:22:13Z</time>
      </trkpt>
      <trkpt lat="46.15263" lon="6.34443">
        <ele>575.4</ele>
        <time>2021-06-26T12:22:14Z</time>
      </trkpt>
      <trkpt lat="46.1526" lon="6.34421">
        <ele>575.2</ele>
        <time>2021-06-26T12:22:16Z</time>
      </trkpt>
      <trkpt lat="46.15257" lon="6.34401">
        <ele>575</ele>
        <time>2021-06-26T12:22:18Z</time>
      </trkpt>
      <trkpt lat="46.15256" lon="6.34393">
        <ele>574.8</ele>
        <time>2021-06-26T12:22:19Z</time>
      </trkpt>
      <trkpt lat="46.15259" lon="6.34388">
        <ele>574.8</ele>
        <time>2021-06-26T12:22:20Z</time>
      </trkpt>
      <trkpt lat="46.15263" lon="6.34386">
        <ele>574.4</ele>
        <time>2021-06-26T12:22:21Z</time>
      </trkpt>
      <trkpt lat="46.15268" lon="6.34388">
        <ele>574</ele>
        <time>2021-06-26T12:22:22Z</time>
      </trkpt>
      <trkpt lat="46.15272" lon="6.34394">
        <ele>573.8</ele>
        <time>2021-06-26T12:22:23Z</time>
      </trkpt>
      <trkpt lat="46.15277" lon="6.34399">
        <ele>573.4</ele>
        <time>2021-06-26T12:22:24Z</time>
      </trkpt>
      <trkpt lat="46.15288" lon="6.3441">
        <ele>573.2</ele>
        <time>2021-06-26T12:22:26Z</time>
      </trkpt>
      <trkpt lat="46.15301" lon="6.34421">
        <ele>572.4</ele>
        <time>2021-06-26T12:22:28Z</time>
      </trkpt>
      <trkpt lat="46.15308" lon="6.34426">
        <ele>572</ele>
        <time>2021-06-26T12:22:29Z</time>
      </trkpt>
      <trkpt lat="46.15324" lon="6.34437">
        <ele>571.6</ele>
        <time>2021-06-26T12:22:31Z</time>
      </trkpt>
      <trkpt lat="46.15332" lon="6.3444">
        <ele>571.4</ele>
        <time>2021-06-26T12:22:32Z</time>
      </trkpt>
      <trkpt lat="46.15341" lon="6.3444">
        <ele>571.2</ele>
        <time>2021-06-26T12:22:33Z</time>
      </trkpt>
      <trkpt lat="46.15349" lon="6.34439">
        <ele>571.2</ele>
        <time>2021-06-26T12:22:34Z</time>
      </trkpt>
      <trkpt lat="46.15355" lon="6.34436">
        <ele>570.8</ele>
        <time>2021-06-26T12:22:35Z</time>
      </trkpt>
      <trkpt lat="46.1536" lon="6.34432">
        <ele>570.4</ele>
        <time>2021-06-26T12:22:36Z</time>
      </trkpt>
      <trkpt lat="46.15364" lon="6.3443">
        <ele>569.8</ele>
        <time>2021-06-26T12:22:37Z</time>
      </trkpt>
      <trkpt lat="46.15367" lon="6.34429">
        <ele>568.8</ele>
        <time>2021-06-26T12:22:38Z</time>
      </trkpt>
      <trkpt lat="46.15369" lon="6.34427">
        <ele>567.8</ele>
        <time>2021-06-26T12:22:39Z</time>
      </trkpt>
      <trkpt lat="46.15371" lon="6.34425">
        <ele>567.2</ele>
        <time>2021-06-26T12:22:40Z</time>
      </trkpt>
      <trkpt lat="46.15372" lon="6.34423">
        <ele>566.2</ele>
        <time>2021-06-26T12:22:41Z</time>
      </trkpt>
      <trkpt lat="46.15372" lon="6.34423">
        <ele>565.4</ele>
        <time>2021-06-26T12:22:42Z</time>
      </trkpt>
      <trkpt lat="46.15372" lon="6.34423">
        <ele>565</ele>
        <time>2021-06-26T12:22:43Z</time>
      </trkpt>
      <trkpt lat="46.15373" lon="6.34419">
        <ele>564.6</ele>
        <time>2021-06-26T12:22:48Z</time>
      </trkpt>
      <trkpt lat="46.15374" lon="6.34416">
        <ele>564.6</ele>
        <time>2021-06-26T12:22:49Z</time>
      </trkpt>
      <trkpt lat="46.15374" lon="6.34406">
        <ele>564.6</ele>
        <time>2021-06-26T12:22:51Z</time>
      </trkpt>
      <trkpt lat="46.15372" lon="6.344">
        <ele>564.4</ele>
        <time>2021-06-26T12:22:52Z</time>
      </trkpt>
      <trkpt lat="46.15369" lon="6.34392">
        <ele>564.4</ele>
        <time>2021-06-26T12:22:53Z</time>
      </trkpt>
      <trkpt lat="46.15365" lon="6.34384">
        <ele>564.4</ele>
        <time>2021-06-26T12:22:54Z</time>
      </trkpt>
      <trkpt lat="46.15362" lon="6.34375">
        <ele>564.4</ele>
        <time>2021-06-26T12:22:55Z</time>
      </trkpt>
      <trkpt lat="46.15358" lon="6.34366">
        <ele>564.2</ele>
        <time>2021-06-26T12:22:56Z</time>
      </trkpt>
      <trkpt lat="46.15353" lon="6.34357">
        <ele>564.4</ele>
        <time>2021-06-26T12:22:57Z</time>
      </trkpt>
      <trkpt lat="46.1534" lon="6.34325">
        <ele>564</ele>
        <time>2021-06-26T12:23:00Z</time>
      </trkpt>
      <trkpt lat="46.15327" lon="6.34292">
        <ele>562.2</ele>
        <time>2021-06-26T12:23:03Z</time>
      </trkpt>
      <trkpt lat="46.15318" lon="6.34269">
        <ele>561.2</ele>
        <time>2021-06-26T12:23:05Z</time>
      </trkpt>
      <trkpt lat="46.15308" lon="6.34246">
        <ele>560.2</ele>
        <time>2021-06-26T12:23:07Z</time>
      </trkpt>
      <trkpt lat="46.15299" lon="6.34221">
        <ele>559.6</ele>
        <time>2021-06-26T12:23:09Z</time>
      </trkpt>
      <trkpt lat="46.15294" lon="6.34209">
        <ele>559.2</ele>
        <time>2021-06-26T12:23:10Z</time>
      </trkpt>
      <trkpt lat="46.15291" lon="6.34195">
        <ele>558.8</ele>
        <time>2021-06-26T12:23:11Z</time>
      </trkpt>
      <trkpt lat="46.15288" lon="6.34181">
        <ele>558.6</ele>
        <time>2021-06-26T12:23:12Z</time>
      </trkpt>
      <trkpt lat="46.15287" lon="6.34166">
        <ele>558.4</ele>
        <time>2021-06-26T12:23:13Z</time>
      </trkpt>
      <trkpt lat="46.15287" lon="6.34151">
        <ele>558</ele>
        <time>2021-06-26T12:23:14Z</time>
      </trkpt>
      <trkpt lat="46.15287" lon="6.34135">
        <ele>557.4</ele>
        <time>2021-06-26T12:23:15Z</time>
      </trkpt>
      <trkpt lat="46.15289" lon="6.34102">
        <ele>557</ele>
        <time>2021-06-26T12:23:17Z</time>
      </trkpt>
      <trkpt lat="46.15289" lon="6.34085">
        <ele>556</ele>
        <time>2021-06-26T12:23:18Z</time>
      </trkpt>
      <trkpt lat="46.1529" lon="6.34068">
        <ele>555.4</ele>
        <time>2021-06-26T12:23:19Z</time>
      </trkpt>
      <trkpt lat="46.15289" lon="6.34052">
        <ele>554.8</ele>
        <time>2021-06-26T12:23:20Z</time>
      </trkpt>
      <trkpt lat="46.15288" lon="6.34035">
        <ele>554</ele>
        <time>2021-06-26T12:23:21Z</time>
      </trkpt>
      <trkpt lat="46.15285" lon="6.34019">
        <ele>553</ele>
        <time>2021-06-26T12:23:22Z</time>
      </trkpt>
      <trkpt lat="46.15281" lon="6.34004">
        <ele>552</ele>
        <time>2021-06-26T12:23:23Z</time>
      </trkpt>
      <trkpt lat="46.15277" lon="6.3399">
        <ele>550.8</ele>
        <time>2021-06-26T12:23:24Z</time>
      </trkpt>
      <trkpt lat="46.15273" lon="6.33976">
        <ele>549.4</ele>
        <time>2021-06-26T12:23:25Z</time>
      </trkpt>
      <trkpt lat="46.15269" lon="6.33964">
        <ele>548.4</ele>
        <time>2021-06-26T12:23:26Z</time>
      </trkpt>
      <trkpt lat="46.15266" lon="6.33951">
        <ele>547</ele>
        <time>2021-06-26T12:23:27Z</time>
      </trkpt>
      <trkpt lat="46.15262" lon="6.3394">
        <ele>546.4</ele>
        <time>2021-06-26T12:23:28Z</time>
      </trkpt>
      <trkpt lat="46.15259" lon="6.33929">
        <ele>546</ele>
        <time>2021-06-26T12:23:29Z</time>
      </trkpt>
      <trkpt lat="46.15257" lon="6.33919">
        <ele>545.8</ele>
        <time>2021-06-26T12:23:30Z</time>
      </trkpt>
      <trkpt lat="46.15255" lon="6.33908">
        <ele>545.8</ele>
        <time>2021-06-26T12:23:31Z</time>
      </trkpt>
      <trkpt lat="46.15253" lon="6.33899">
        <ele>545.8</ele>
        <time>2021-06-26T12:23:32Z</time>
      </trkpt>
      <trkpt lat="46.15252" lon="6.33889">
        <ele>545.8</ele>
        <time>2021-06-26T12:23:33Z</time>
      </trkpt>
      <trkpt lat="46.15251" lon="6.3388">
        <ele>545.8</ele>
        <time>2021-06-26T12:23:34Z</time>
      </trkpt>
      <trkpt lat="46.1525" lon="6.33871">
        <ele>545.6</ele>
        <time>2021-06-26T12:23:35Z</time>
      </trkpt>
      <trkpt lat="46.15249" lon="6.33862">
        <ele>545.8</ele>
        <time>2021-06-26T12:23:36Z</time>
      </trkpt>
      <trkpt lat="46.15248" lon="6.33853">
        <ele>546</ele>
        <time>2021-06-26T12:23:37Z</time>
      </trkpt>
      <trkpt lat="46.15245" lon="6.33835">
        <ele>546.8</ele>
        <time>2021-06-26T12:23:39Z</time>
      </trkpt>
      <trkpt lat="46.15242" lon="6.33816">
        <ele>548</ele>
        <time>2021-06-26T12:23:41Z</time>
      </trkpt>
      <trkpt lat="46.15232" lon="6.33757">
        <ele>549.6</ele>
        <time>2021-06-26T12:23:47Z</time>
      </trkpt>
      <trkpt lat="46.1523" lon="6.33747">
        <ele>549.8</ele>
        <time>2021-06-26T12:23:48Z</time>
      </trkpt>
      <trkpt lat="46.15216" lon="6.33686">
        <ele>550</ele>
        <time>2021-06-26T12:23:54Z</time>
      </trkpt>
      <trkpt lat="46.15206" lon="6.33655">
        <ele>549.8</ele>
        <time>2021-06-26T12:23:57Z</time>
      </trkpt>
      <trkpt lat="46.1519" lon="6.33613">
        <ele>549.8</ele>
        <time>2021-06-26T12:24:01Z</time>
      </trkpt>
      <trkpt lat="46.15186" lon="6.33603">
        <ele>550</ele>
        <time>2021-06-26T12:24:02Z</time>
      </trkpt>
      <trkpt lat="46.15177" lon="6.33555">
        <ele>548.6</ele>
        <time>2021-06-26T12:24:06Z</time>
      </trkpt>
      <trkpt lat="46.15177" lon="6.3353">
        <ele>548</ele>
        <time>2021-06-26T12:24:08Z</time>
      </trkpt>
      <trkpt lat="46.15178" lon="6.33517">
        <ele>548</ele>
        <time>2021-06-26T12:24:09Z</time>
      </trkpt>
      <trkpt lat="46.1518" lon="6.33504">
        <ele>547.6</ele>
        <time>2021-06-26T12:24:10Z</time>
      </trkpt>
      <trkpt lat="46.15184" lon="6.33491">
        <ele>547.2</ele>
        <time>2021-06-26T12:24:11Z</time>
      </trkpt>
      <trkpt lat="46.15196" lon="6.33455">
        <ele>546.4</ele>
        <time>2021-06-26T12:24:14Z</time>
      </trkpt>
      <trkpt lat="46.15222" lon="6.33385">
        <ele>545.4</ele>
        <time>2021-06-26T12:24:20Z</time>
      </trkpt>
      <trkpt lat="46.15226" lon="6.33374">
        <ele>545.4</ele>
        <time>2021-06-26T12:24:21Z</time>
      </trkpt>
      <trkpt lat="46.15229" lon="6.33362">
        <ele>545</ele>
        <time>2021-06-26T12:24:22Z</time>
      </trkpt>
      <trkpt lat="46.15231" lon="6.33349">
        <ele>545</ele>
        <time>2021-06-26T12:24:23Z</time>
      </trkpt>
      <trkpt lat="46.15233" lon="6.33337">
        <ele>545.2</ele>
        <time>2021-06-26T12:24:24Z</time>
      </trkpt>
      <trkpt lat="46.15233" lon="6.33325">
        <ele>545</ele>
        <time>2021-06-26T12:24:25Z</time>
      </trkpt>
      <trkpt lat="46.15233" lon="6.33313">
        <ele>545</ele>
        <time>2021-06-26T12:24:26Z</time>
      </trkpt>
      <trkpt lat="46.15232" lon="6.33301">
        <ele>545</ele>
        <time>2021-06-26T12:24:27Z</time>
      </trkpt>
      <trkpt lat="46.1523" lon="6.3329">
        <ele>544.8</ele>
        <time>2021-06-26T12:24:28Z</time>
      </trkpt>
      <trkpt lat="46.15228" lon="6.33279">
        <ele>544.8</ele>
        <time>2021-06-26T12:24:29Z</time>
      </trkpt>
      <trkpt lat="46.15225" lon="6.33268">
        <ele>544.8</ele>
        <time>2021-06-26T12:24:30Z</time>
      </trkpt>
      <trkpt lat="46.15221" lon="6.33258">
        <ele>544.8</ele>
        <time>2021-06-26T12:24:31Z</time>
      </trkpt>
      <trkpt lat="46.15217" lon="6.33248">
        <ele>545</ele>
        <time>2021-06-26T12:24:32Z</time>
      </trkpt>
      <trkpt lat="46.15207" lon="6.3323">
        <ele>545</ele>
        <time>2021-06-26T12:24:34Z</time>
      </trkpt>
      <trkpt lat="46.15203" lon="6.3322">
        <ele>545</ele>
        <time>2021-06-26T12:24:35Z</time>
      </trkpt>
      <trkpt lat="46.15202" lon="6.33209">
        <ele>545</ele>
        <time>2021-06-26T12:24:36Z</time>
      </trkpt>
      <trkpt lat="46.15203" lon="6.33198">
        <ele>545</ele>
        <time>2021-06-26T12:24:37Z</time>
      </trkpt>
      <trkpt lat="46.1521" lon="6.33178">
        <ele>544.8</ele>
        <time>2021-06-26T12:24:39Z</time>
      </trkpt>
      <trkpt lat="46.15215" lon="6.33169">
        <ele>544.8</ele>
        <time>2021-06-26T12:24:40Z</time>
      </trkpt>
      <trkpt lat="46.15219" lon="6.33161">
        <ele>544.6</ele>
        <time>2021-06-26T12:24:41Z</time>
      </trkpt>
      <trkpt lat="46.15224" lon="6.33152">
        <ele>544.2</ele>
        <time>2021-06-26T12:24:42Z</time>
      </trkpt>
      <trkpt lat="46.15229" lon="6.33144">
        <ele>544.2</ele>
        <time>2021-06-26T12:24:43Z</time>
      </trkpt>
      <trkpt lat="46.15233" lon="6.33136">
        <ele>544</ele>
        <time>2021-06-26T12:24:44Z</time>
      </trkpt>
      <trkpt lat="46.15238" lon="6.33128">
        <ele>543.6</ele>
        <time>2021-06-26T12:24:45Z</time>
      </trkpt>
      <trkpt lat="46.15242" lon="6.3312">
        <ele>543.6</ele>
        <time>2021-06-26T12:24:46Z</time>
      </trkpt>
      <trkpt lat="46.15246" lon="6.33113">
        <ele>543.6</ele>
        <time>2021-06-26T12:24:47Z</time>
      </trkpt>
      <trkpt lat="46.15249" lon="6.33106">
        <ele>543.4</ele>
        <time>2021-06-26T12:24:48Z</time>
      </trkpt>
      <trkpt lat="46.15253" lon="6.33099">
        <ele>543.4</ele>
        <time>2021-06-26T12:24:49Z</time>
      </trkpt>
      <trkpt lat="46.15256" lon="6.33093">
        <ele>543.2</ele>
        <time>2021-06-26T12:24:50Z</time>
      </trkpt>
      <trkpt lat="46.15259" lon="6.33087">
        <ele>543.4</ele>
        <time>2021-06-26T12:24:51Z</time>
      </trkpt>
      <trkpt lat="46.15262" lon="6.33081">
        <ele>543.4</ele>
        <time>2021-06-26T12:24:52Z</time>
      </trkpt>
      <trkpt lat="46.15264" lon="6.33075">
        <ele>543.4</ele>
        <time>2021-06-26T12:24:53Z</time>
      </trkpt>
      <trkpt lat="46.15265" lon="6.3307">
        <ele>543.4</ele>
        <time>2021-06-26T12:24:54Z</time>
      </trkpt>
      <trkpt lat="46.15267" lon="6.33065">
        <ele>543.4</ele>
        <time>2021-06-26T12:24:55Z</time>
      </trkpt>
      <trkpt lat="46.15268" lon="6.33059">
        <ele>543.6</ele>
        <time>2021-06-26T12:24:56Z</time>
      </trkpt>
      <trkpt lat="46.1527" lon="6.33054">
        <ele>544.2</ele>
        <time>2021-06-26T12:24:57Z</time>
      </trkpt>
      <trkpt lat="46.15271" lon="6.33049">
        <ele>544.6</ele>
        <time>2021-06-26T12:24:58Z</time>
      </trkpt>
      <trkpt lat="46.15272" lon="6.33044">
        <ele>545</ele>
        <time>2021-06-26T12:24:59Z</time>
      </trkpt>
      <trkpt lat="46.15273" lon="6.33039">
        <ele>545.4</ele>
        <time>2021-06-26T12:25:00Z</time>
      </trkpt>
      <trkpt lat="46.15275" lon="6.33033">
        <ele>546</ele>
        <time>2021-06-26T12:25:01Z</time>
      </trkpt>
      <trkpt lat="46.15276" lon="6.33028">
        <ele>546.2</ele>
        <time>2021-06-26T12:25:02Z</time>
      </trkpt>
      <trkpt lat="46.15278" lon="6.33023">
        <ele>546.6</ele>
        <time>2021-06-26T12:25:03Z</time>
      </trkpt>
      <trkpt lat="46.15279" lon="6.33018">
        <ele>547</ele>
        <time>2021-06-26T12:25:04Z</time>
      </trkpt>
      <trkpt lat="46.15281" lon="6.33013">
        <ele>547.2</ele>
        <time>2021-06-26T12:25:05Z</time>
      </trkpt>
      <trkpt lat="46.15282" lon="6.33008">
        <ele>547.6</ele>
        <time>2021-06-26T12:25:06Z</time>
      </trkpt>
      <trkpt lat="46.15284" lon="6.33002">
        <ele>547.8</ele>
        <time>2021-06-26T12:25:07Z</time>
      </trkpt>
      <trkpt lat="46.15286" lon="6.32997">
        <ele>548.2</ele>
        <time>2021-06-26T12:25:08Z</time>
      </trkpt>
      <trkpt lat="46.15287" lon="6.32992">
        <ele>548.2</ele>
        <time>2021-06-26T12:25:09Z</time>
      </trkpt>
      <trkpt lat="46.15289" lon="6.32986">
        <ele>548.4</ele>
        <time>2021-06-26T12:25:10Z</time>
      </trkpt>
      <trkpt lat="46.1529" lon="6.3298">
        <ele>548.8</ele>
        <time>2021-06-26T12:25:11Z</time>
      </trkpt>
      <trkpt lat="46.15292" lon="6.32975">
        <ele>549</ele>
        <time>2021-06-26T12:25:12Z</time>
      </trkpt>
      <trkpt lat="46.15294" lon="6.32969">
        <ele>549.2</ele>
        <time>2021-06-26T12:25:13Z</time>
      </trkpt>
      <trkpt lat="46.15296" lon="6.32964">
        <ele>549.6</ele>
        <time>2021-06-26T12:25:14Z</time>
      </trkpt>
      <trkpt lat="46.15298" lon="6.32958">
        <ele>549.6</ele>
        <time>2021-06-26T12:25:15Z</time>
      </trkpt>
      <trkpt lat="46.15301" lon="6.32951">
        <ele>549.8</ele>
        <time>2021-06-26T12:25:16Z</time>
      </trkpt>
      <trkpt lat="46.15303" lon="6.32945">
        <ele>549.8</ele>
        <time>2021-06-26T12:25:17Z</time>
      </trkpt>
      <trkpt lat="46.15305" lon="6.32938">
        <ele>549.8</ele>
        <time>2021-06-26T12:25:18Z</time>
      </trkpt>
      <trkpt lat="46.15308" lon="6.3293">
        <ele>550</ele>
        <time>2021-06-26T12:25:19Z</time>
      </trkpt>
      <trkpt lat="46.1531" lon="6.32923">
        <ele>550</ele>
        <time>2021-06-26T12:25:20Z</time>
      </trkpt>
      <trkpt lat="46.15313" lon="6.32915">
        <ele>550</ele>
        <time>2021-06-26T12:25:21Z</time>
      </trkpt>
      <trkpt lat="46.15315" lon="6.32906">
        <ele>550</ele>
        <time>2021-06-26T12:25:22Z</time>
      </trkpt>
      <trkpt lat="46.15318" lon="6.32898">
        <ele>550</ele>
        <time>2021-06-26T12:25:23Z</time>
      </trkpt>
      <trkpt lat="46.1532" lon="6.32889">
        <ele>550</ele>
        <time>2021-06-26T12:25:24Z</time>
      </trkpt>
      <trkpt lat="46.15327" lon="6.32864">
        <ele>549.8</ele>
        <time>2021-06-26T12:25:27Z</time>
      </trkpt>
      <trkpt lat="46.15331" lon="6.32856">
        <ele>549.8</ele>
        <time>2021-06-26T12:25:28Z</time>
      </trkpt>
      <trkpt lat="46.15334" lon="6.32849">
        <ele>549.6</ele>
        <time>2021-06-26T12:25:29Z</time>
      </trkpt>
      <trkpt lat="46.15337" lon="6.32842">
        <ele>549.2</ele>
        <time>2021-06-26T12:25:30Z</time>
      </trkpt>
      <trkpt lat="46.15341" lon="6.32835">
        <ele>549.2</ele>
        <time>2021-06-26T12:25:31Z</time>
      </trkpt>
      <trkpt lat="46.15344" lon="6.32829">
        <ele>548.8</ele>
        <time>2021-06-26T12:25:32Z</time>
      </trkpt>
      <trkpt lat="46.15348" lon="6.32824">
        <ele>548.6</ele>
        <time>2021-06-26T12:25:33Z</time>
      </trkpt>
      <trkpt lat="46.15351" lon="6.32818">
        <ele>548.6</ele>
        <time>2021-06-26T12:25:34Z</time>
      </trkpt>
      <trkpt lat="46.15354" lon="6.32812">
        <ele>548.4</ele>
        <time>2021-06-26T12:25:35Z</time>
      </trkpt>
      <trkpt lat="46.15358" lon="6.32807">
        <ele>548.4</ele>
        <time>2021-06-26T12:25:36Z</time>
      </trkpt>
      <trkpt lat="46.15369" lon="6.3279">
        <ele>548.4</ele>
        <time>2021-06-26T12:25:39Z</time>
      </trkpt>
      <trkpt lat="46.15376" lon="6.32777">
        <ele>548.4</ele>
        <time>2021-06-26T12:25:41Z</time>
      </trkpt>
      <trkpt lat="46.15383" lon="6.32765">
        <ele>548.4</ele>
        <time>2021-06-26T12:25:43Z</time>
      </trkpt>
      <trkpt lat="46.15387" lon="6.32758">
        <ele>548.4</ele>
        <time>2021-06-26T12:25:44Z</time>
      </trkpt>
      <trkpt lat="46.15394" lon="6.32743">
        <ele>548.4</ele>
        <time>2021-06-26T12:25:46Z</time>
      </trkpt>
      <trkpt lat="46.15397" lon="6.32736">
        <ele>548.4</ele>
        <time>2021-06-26T12:25:47Z</time>
      </trkpt>
      <trkpt lat="46.15399" lon="6.32728">
        <ele>548.4</ele>
        <time>2021-06-26T12:25:48Z</time>
      </trkpt>
      <trkpt lat="46.15401" lon="6.32719">
        <ele>548.4</ele>
        <time>2021-06-26T12:25:49Z</time>
      </trkpt>
      <trkpt lat="46.15401" lon="6.3271">
        <ele>548.4</ele>
        <time>2021-06-26T12:25:50Z</time>
      </trkpt>
      <trkpt lat="46.15401" lon="6.327">
        <ele>548.4</ele>
        <time>2021-06-26T12:25:51Z</time>
      </trkpt>
      <trkpt lat="46.15399" lon="6.32691">
        <ele>548.4</ele>
        <time>2021-06-26T12:25:52Z</time>
      </trkpt>
      <trkpt lat="46.15397" lon="6.32683">
        <ele>548.2</ele>
        <time>2021-06-26T12:25:53Z</time>
      </trkpt>
      <trkpt lat="46.15395" lon="6.32676">
        <ele>548.2</ele>
        <time>2021-06-26T12:25:54Z</time>
      </trkpt>
      <trkpt lat="46.15394" lon="6.3267">
        <ele>548</ele>
        <time>2021-06-26T12:25:55Z</time>
      </trkpt>
      <trkpt lat="46.15394" lon="6.32665">
        <ele>547.6</ele>
        <time>2021-06-26T12:25:56Z</time>
      </trkpt>
      <trkpt lat="46.15393" lon="6.32662">
        <ele>547.4</ele>
        <time>2021-06-26T12:25:57Z</time>
      </trkpt>
      <trkpt lat="46.15392" lon="6.3266">
        <ele>547</ele>
        <time>2021-06-26T12:25:58Z</time>
      </trkpt>
      <trkpt lat="46.15392" lon="6.32659">
        <ele>546.4</ele>
        <time>2021-06-26T12:25:59Z</time>
      </trkpt>
      <trkpt lat="46.15392" lon="6.32659">
        <ele>545.6</ele>
        <time>2021-06-26T12:26:03Z</time>
      </trkpt>
      <trkpt lat="46.15392" lon="6.32658">
        <ele>545.6</ele>
        <time>2021-06-26T12:26:17Z</time>
      </trkpt>
      <trkpt lat="46.15393" lon="6.32655">
        <ele>545.6</ele>
        <time>2021-06-26T12:26:18Z</time>
      </trkpt>
      <trkpt lat="46.15394" lon="6.32649">
        <ele>545.4</ele>
        <time>2021-06-26T12:26:20Z</time>
      </trkpt>
      <trkpt lat="46.15394" lon="6.32644">
        <ele>545.4</ele>
        <time>2021-06-26T12:26:21Z</time>
      </trkpt>
      <trkpt lat="46.15397" lon="6.32627">
        <ele>545.4</ele>
        <time>2021-06-26T12:26:24Z</time>
      </trkpt>
      <trkpt lat="46.15401" lon="6.32614">
        <ele>545.6</ele>
        <time>2021-06-26T12:26:26Z</time>
      </trkpt>
      <trkpt lat="46.15403" lon="6.32607">
        <ele>545.4</ele>
        <time>2021-06-26T12:26:27Z</time>
      </trkpt>
      <trkpt lat="46.15408" lon="6.32593">
        <ele>544.8</ele>
        <time>2021-06-26T12:26:29Z</time>
      </trkpt>
      <trkpt lat="46.15416" lon="6.32581">
        <ele>544.6</ele>
        <time>2021-06-26T12:26:31Z</time>
      </trkpt>
      <trkpt lat="46.1542" lon="6.32575">
        <ele>544</ele>
        <time>2021-06-26T12:26:32Z</time>
      </trkpt>
      <trkpt lat="46.15425" lon="6.32569">
        <ele>543.8</ele>
        <time>2021-06-26T12:26:33Z</time>
      </trkpt>
      <trkpt lat="46.1544" lon="6.32554">
        <ele>542.6</ele>
        <time>2021-06-26T12:26:36Z</time>
      </trkpt>
      <trkpt lat="46.15445" lon="6.32549">
        <ele>542</ele>
        <time>2021-06-26T12:26:37Z</time>
      </trkpt>
      <trkpt lat="46.15449" lon="6.32543">
        <ele>542</ele>
        <time>2021-06-26T12:26:38Z</time>
      </trkpt>
      <trkpt lat="46.15456" lon="6.32527">
        <ele>541.2</ele>
        <time>2021-06-26T12:26:40Z</time>
      </trkpt>
      <trkpt lat="46.15475" lon="6.32475">
        <ele>539.2</ele>
        <time>2021-06-26T12:26:46Z</time>
      </trkpt>
      <trkpt lat="46.15478" lon="6.32467">
        <ele>539</ele>
        <time>2021-06-26T12:26:47Z</time>
      </trkpt>
      <trkpt lat="46.1548" lon="6.32459">
        <ele>539</ele>
        <time>2021-06-26T12:26:48Z</time>
      </trkpt>
      <trkpt lat="46.15483" lon="6.32451">
        <ele>539</ele>
        <time>2021-06-26T12:26:49Z</time>
      </trkpt>
      <trkpt lat="46.15486" lon="6.32443">
        <ele>538.8</ele>
        <time>2021-06-26T12:26:50Z</time>
      </trkpt>
      <trkpt lat="46.15489" lon="6.32435">
        <ele>539</ele>
        <time>2021-06-26T12:26:51Z</time>
      </trkpt>
      <trkpt lat="46.15491" lon="6.32428">
        <ele>538.8</ele>
        <time>2021-06-26T12:26:52Z</time>
      </trkpt>
      <trkpt lat="46.15494" lon="6.32421">
        <ele>538.8</ele>
        <time>2021-06-26T12:26:53Z</time>
      </trkpt>
      <trkpt lat="46.15496" lon="6.32414">
        <ele>538.8</ele>
        <time>2021-06-26T12:26:54Z</time>
      </trkpt>
      <trkpt lat="46.15498" lon="6.32407">
        <ele>538.8</ele>
        <time>2021-06-26T12:26:55Z</time>
      </trkpt>
      <trkpt lat="46.155" lon="6.324">
        <ele>538.8</ele>
        <time>2021-06-26T12:26:56Z</time>
      </trkpt>
      <trkpt lat="46.15502" lon="6.32394">
        <ele>538.8</ele>
        <time>2021-06-26T12:26:57Z</time>
      </trkpt>
      <trkpt lat="46.15505" lon="6.32389">
        <ele>538.8</ele>
        <time>2021-06-26T12:26:58Z</time>
      </trkpt>
      <trkpt lat="46.15507" lon="6.32383">
        <ele>539</ele>
        <time>2021-06-26T12:26:59Z</time>
      </trkpt>
      <trkpt lat="46.1551" lon="6.32378">
        <ele>539.2</ele>
        <time>2021-06-26T12:27:00Z</time>
      </trkpt>
      <trkpt lat="46.15513" lon="6.32375">
        <ele>539.2</ele>
        <time>2021-06-26T12:27:01Z</time>
      </trkpt>
      <trkpt lat="46.15517" lon="6.32371">
        <ele>539.4</ele>
        <time>2021-06-26T12:27:02Z</time>
      </trkpt>
      <trkpt lat="46.1552" lon="6.32369">
        <ele>539.6</ele>
        <time>2021-06-26T12:27:03Z</time>
      </trkpt>
      <trkpt lat="46.15524" lon="6.32367">
        <ele>540</ele>
        <time>2021-06-26T12:27:04Z</time>
      </trkpt>
      <trkpt lat="46.15528" lon="6.32365">
        <ele>540.2</ele>
        <time>2021-06-26T12:27:05Z</time>
      </trkpt>
      <trkpt lat="46.15533" lon="6.32364">
        <ele>540.6</ele>
        <time>2021-06-26T12:27:06Z</time>
      </trkpt>
      <trkpt lat="46.15537" lon="6.32362">
        <ele>541.2</ele>
        <time>2021-06-26T12:27:07Z</time>
      </trkpt>
      <trkpt lat="46.15542" lon="6.32361">
        <ele>541.4</ele>
        <time>2021-06-26T12:27:08Z</time>
      </trkpt>
      <trkpt lat="46.15547" lon="6.3236">
        <ele>542</ele>
        <time>2021-06-26T12:27:09Z</time>
      </trkpt>
      <trkpt lat="46.15552" lon="6.32358">
        <ele>542.4</ele>
        <time>2021-06-26T12:27:10Z</time>
      </trkpt>
      <trkpt lat="46.15557" lon="6.32357">
        <ele>542.6</ele>
        <time>2021-06-26T12:27:11Z</time>
      </trkpt>
      <trkpt lat="46.15562" lon="6.32354">
        <ele>542.8</ele>
        <time>2021-06-26T12:27:12Z</time>
      </trkpt>
      <trkpt lat="46.15567" lon="6.32351">
        <ele>542.8</ele>
        <time>2021-06-26T12:27:13Z</time>
      </trkpt>
      <trkpt lat="46.15573" lon="6.32347">
        <ele>542.8</ele>
        <time>2021-06-26T12:27:14Z</time>
      </trkpt>
      <trkpt lat="46.15578" lon="6.32343">
        <ele>542.8</ele>
        <time>2021-06-26T12:27:15Z</time>
      </trkpt>
      <trkpt lat="46.15583" lon="6.32338">
        <ele>543</ele>
        <time>2021-06-26T12:27:16Z</time>
      </trkpt>
      <trkpt lat="46.15587" lon="6.32332">
        <ele>543</ele>
        <time>2021-06-26T12:27:17Z</time>
      </trkpt>
      <trkpt lat="46.15596" lon="6.32321">
        <ele>543</ele>
        <time>2021-06-26T12:27:19Z</time>
      </trkpt>
      <trkpt lat="46.156" lon="6.32316">
        <ele>542.8</ele>
        <time>2021-06-26T12:27:20Z</time>
      </trkpt>
      <trkpt lat="46.15604" lon="6.3231">
        <ele>542.8</ele>
        <time>2021-06-26T12:27:21Z</time>
      </trkpt>
      <trkpt lat="46.15607" lon="6.32304">
        <ele>542.8</ele>
        <time>2021-06-26T12:27:22Z</time>
      </trkpt>
      <trkpt lat="46.15611" lon="6.32299">
        <ele>542.8</ele>
        <time>2021-06-26T12:27:23Z</time>
      </trkpt>
      <trkpt lat="46.15614" lon="6.32294">
        <ele>542.8</ele>
        <time>2021-06-26T12:27:24Z</time>
      </trkpt>
      <trkpt lat="46.15617" lon="6.32288">
        <ele>542.8</ele>
        <time>2021-06-26T12:27:25Z</time>
      </trkpt>
      <trkpt lat="46.1562" lon="6.32283">
        <ele>542.8</ele>
        <time>2021-06-26T12:27:26Z</time>
      </trkpt>
      <trkpt lat="46.15623" lon="6.32277">
        <ele>542.8</ele>
        <time>2021-06-26T12:27:27Z</time>
      </trkpt>
      <trkpt lat="46.15626" lon="6.32271">
        <ele>542.8</ele>
        <time>2021-06-26T12:27:28Z</time>
      </trkpt>
      <trkpt lat="46.15629" lon="6.32265">
        <ele>542.8</ele>
        <time>2021-06-26T12:27:29Z</time>
      </trkpt>
      <trkpt lat="46.15653" lon="6.32209">
        <ele>544</ele>
        <time>2021-06-26T12:27:37Z</time>
      </trkpt>
      <trkpt lat="46.15668" lon="6.32173">
        <ele>544.2</ele>
        <time>2021-06-26T12:27:42Z</time>
      </trkpt>
      <trkpt lat="46.15674" lon="6.3216">
        <ele>544.4</ele>
        <time>2021-06-26T12:27:44Z</time>
      </trkpt>
      <trkpt lat="46.15677" lon="6.32153">
        <ele>544.4</ele>
        <time>2021-06-26T12:27:45Z</time>
      </trkpt>
      <trkpt lat="46.15679" lon="6.32147">
        <ele>544.4</ele>
        <time>2021-06-26T12:27:46Z</time>
      </trkpt>
      <trkpt lat="46.15682" lon="6.32141">
        <ele>544.4</ele>
        <time>2021-06-26T12:27:47Z</time>
      </trkpt>
      <trkpt lat="46.15688" lon="6.32129">
        <ele>544.4</ele>
        <time>2021-06-26T12:27:49Z</time>
      </trkpt>
      <trkpt lat="46.157" lon="6.32113">
        <ele>544.8</ele>
        <time>2021-06-26T12:27:52Z</time>
      </trkpt>
      <trkpt lat="46.15709" lon="6.32104">
        <ele>545.2</ele>
        <time>2021-06-26T12:27:54Z</time>
      </trkpt>
      <trkpt lat="46.15723" lon="6.32093">
        <ele>545.2</ele>
        <time>2021-06-26T12:27:57Z</time>
      </trkpt>
      <trkpt lat="46.15728" lon="6.3209">
        <ele>545.4</ele>
        <time>2021-06-26T12:27:58Z</time>
      </trkpt>
      <trkpt lat="46.15732" lon="6.32086">
        <ele>545.4</ele>
        <time>2021-06-26T12:27:59Z</time>
      </trkpt>
      <trkpt lat="46.15743" lon="6.32079">
        <ele>545.2</ele>
        <time>2021-06-26T12:28:01Z</time>
      </trkpt>
      <trkpt lat="46.15755" lon="6.32071">
        <ele>545.2</ele>
        <time>2021-06-26T12:28:03Z</time>
      </trkpt>
      <trkpt lat="46.15761" lon="6.32067">
        <ele>545</ele>
        <time>2021-06-26T12:28:04Z</time>
      </trkpt>
      <trkpt lat="46.15773" lon="6.32056">
        <ele>545</ele>
        <time>2021-06-26T12:28:06Z</time>
      </trkpt>
      <trkpt lat="46.1578" lon="6.32051">
        <ele>545</ele>
        <time>2021-06-26T12:28:07Z</time>
      </trkpt>
      <trkpt lat="46.15787" lon="6.32046">
        <ele>545</ele>
        <time>2021-06-26T12:28:08Z</time>
      </trkpt>
      <trkpt lat="46.15813" lon="6.32031">
        <ele>544</ele>
        <time>2021-06-26T12:28:12Z</time>
      </trkpt>
      <trkpt lat="46.1582" lon="6.32028">
        <ele>543.4</ele>
        <time>2021-06-26T12:28:13Z</time>
      </trkpt>
      <trkpt lat="46.15826" lon="6.32024">
        <ele>542.4</ele>
        <time>2021-06-26T12:28:14Z</time>
      </trkpt>
      <trkpt lat="46.15833" lon="6.3202">
        <ele>541.8</ele>
        <time>2021-06-26T12:28:15Z</time>
      </trkpt>
      <trkpt lat="46.15839" lon="6.32017">
        <ele>541.2</ele>
        <time>2021-06-26T12:28:16Z</time>
      </trkpt>
      <trkpt lat="46.15845" lon="6.32013">
        <ele>540.8</ele>
        <time>2021-06-26T12:28:17Z</time>
      </trkpt>
      <trkpt lat="46.15851" lon="6.32009">
        <ele>540.6</ele>
        <time>2021-06-26T12:28:18Z</time>
      </trkpt>
      <trkpt lat="46.15863" lon="6.32002">
        <ele>540.4</ele>
        <time>2021-06-26T12:28:20Z</time>
      </trkpt>
      <trkpt lat="46.15869" lon="6.31998">
        <ele>540.2</ele>
        <time>2021-06-26T12:28:21Z</time>
      </trkpt>
      <trkpt lat="46.15875" lon="6.31995">
        <ele>540</ele>
        <time>2021-06-26T12:28:22Z</time>
      </trkpt>
      <trkpt lat="46.15905" lon="6.31978">
        <ele>539.8</ele>
        <time>2021-06-26T12:28:27Z</time>
      </trkpt>
      <trkpt lat="46.15912" lon="6.31974">
        <ele>539.4</ele>
        <time>2021-06-26T12:28:28Z</time>
      </trkpt>
      <trkpt lat="46.15949" lon="6.31952">
        <ele>539</ele>
        <time>2021-06-26T12:28:34Z</time>
      </trkpt>
      <trkpt lat="46.15955" lon="6.31946">
        <ele>539</ele>
        <time>2021-06-26T12:28:35Z</time>
      </trkpt>
      <trkpt lat="46.1596" lon="6.3194">
        <ele>539</ele>
        <time>2021-06-26T12:28:36Z</time>
      </trkpt>
      <trkpt lat="46.15969" lon="6.31924">
        <ele>538.8</ele>
        <time>2021-06-26T12:28:38Z</time>
      </trkpt>
      <trkpt lat="46.15973" lon="6.31915">
        <ele>538.6</ele>
        <time>2021-06-26T12:28:39Z</time>
      </trkpt>
      <trkpt lat="46.16003" lon="6.3184">
        <ele>537.8</ele>
        <time>2021-06-26T12:28:47Z</time>
      </trkpt>
      <trkpt lat="46.16007" lon="6.31831">
        <ele>537.6</ele>
        <time>2021-06-26T12:28:48Z</time>
      </trkpt>
      <trkpt lat="46.16014" lon="6.31812">
        <ele>537.4</ele>
        <time>2021-06-26T12:28:50Z</time>
      </trkpt>
      <trkpt lat="46.16029" lon="6.31774">
        <ele>537.2</ele>
        <time>2021-06-26T12:28:54Z</time>
      </trkpt>
      <trkpt lat="46.16051" lon="6.31727">
        <ele>536.8</ele>
        <time>2021-06-26T12:28:59Z</time>
      </trkpt>
      <trkpt lat="46.16065" lon="6.31702">
        <ele>536.8</ele>
        <time>2021-06-26T12:29:02Z</time>
      </trkpt>
      <trkpt lat="46.1607" lon="6.31694">
        <ele>536.8</ele>
        <time>2021-06-26T12:29:03Z</time>
      </trkpt>
      <trkpt lat="46.16076" lon="6.31687">
        <ele>536.6</ele>
        <time>2021-06-26T12:29:04Z</time>
      </trkpt>
      <trkpt lat="46.16093" lon="6.31667">
        <ele>536</ele>
        <time>2021-06-26T12:29:07Z</time>
      </trkpt>
      <trkpt lat="46.161" lon="6.31663">
        <ele>536</ele>
        <time>2021-06-26T12:29:08Z</time>
      </trkpt>
      <trkpt lat="46.16106" lon="6.31659">
        <ele>535.8</ele>
        <time>2021-06-26T12:29:09Z</time>
      </trkpt>
      <trkpt lat="46.16113" lon="6.31656">
        <ele>535.6</ele>
        <time>2021-06-26T12:29:10Z</time>
      </trkpt>
      <trkpt lat="46.1612" lon="6.31654">
        <ele>535.4</ele>
        <time>2021-06-26T12:29:11Z</time>
      </trkpt>
      <trkpt lat="46.16126" lon="6.31652">
        <ele>535</ele>
        <time>2021-06-26T12:29:12Z</time>
      </trkpt>
      <trkpt lat="46.16132" lon="6.3165">
        <ele>535</ele>
        <time>2021-06-26T12:29:13Z</time>
      </trkpt>
      <trkpt lat="46.16136" lon="6.31649">
        <ele>534.6</ele>
        <time>2021-06-26T12:29:14Z</time>
      </trkpt>
      <trkpt lat="46.16139" lon="6.31648">
        <ele>534.6</ele>
        <time>2021-06-26T12:29:15Z</time>
      </trkpt>
      <trkpt lat="46.16141" lon="6.31647">
        <ele>534.4</ele>
        <time>2021-06-26T12:29:16Z</time>
      </trkpt>
      <trkpt lat="46.16143" lon="6.31646">
        <ele>534.6</ele>
        <time>2021-06-26T12:29:17Z</time>
      </trkpt>
      <trkpt lat="46.16144" lon="6.31645">
        <ele>534.4</ele>
        <time>2021-06-26T12:29:18Z</time>
      </trkpt>
      <trkpt lat="46.16145" lon="6.31642">
        <ele>534.2</ele>
        <time>2021-06-26T12:29:19Z</time>
      </trkpt>
      <trkpt lat="46.16146" lon="6.31637">
        <ele>534</ele>
        <time>2021-06-26T12:29:20Z</time>
      </trkpt>
      <trkpt lat="46.16145" lon="6.31621">
        <ele>533.8</ele>
        <time>2021-06-26T12:29:23Z</time>
      </trkpt>
      <trkpt lat="46.16145" lon="6.31614">
        <ele>533.8</ele>
        <time>2021-06-26T12:29:24Z</time>
      </trkpt>
      <trkpt lat="46.1615" lon="6.31591">
        <ele>533.4</ele>
        <time>2021-06-26T12:29:27Z</time>
      </trkpt>
      <trkpt lat="46.16152" lon="6.31577">
        <ele>533.4</ele>
        <time>2021-06-26T12:29:29Z</time>
      </trkpt>
      <trkpt lat="46.16153" lon="6.3157">
        <ele>533.4</ele>
        <time>2021-06-26T12:29:30Z</time>
      </trkpt>
      <trkpt lat="46.16153" lon="6.31563">
        <ele>533.4</ele>
        <time>2021-06-26T12:29:31Z</time>
      </trkpt>
      <trkpt lat="46.16154" lon="6.31556">
        <ele>533.2</ele>
        <time>2021-06-26T12:29:32Z</time>
      </trkpt>
      <trkpt lat="46.16155" lon="6.3155">
        <ele>533.4</ele>
        <time>2021-06-26T12:29:33Z</time>
      </trkpt>
      <trkpt lat="46.16157" lon="6.31544">
        <ele>533.2</ele>
        <time>2021-06-26T12:29:34Z</time>
      </trkpt>
      <trkpt lat="46.16159" lon="6.31539">
        <ele>533.4</ele>
        <time>2021-06-26T12:29:35Z</time>
      </trkpt>
      <trkpt lat="46.16161" lon="6.31534">
        <ele>533.2</ele>
        <time>2021-06-26T12:29:36Z</time>
      </trkpt>
      <trkpt lat="46.16163" lon="6.3153">
        <ele>533.2</ele>
        <time>2021-06-26T12:29:37Z</time>
      </trkpt>
      <trkpt lat="46.16165" lon="6.31526">
        <ele>533.4</ele>
        <time>2021-06-26T12:29:38Z</time>
      </trkpt>
      <trkpt lat="46.16167" lon="6.31522">
        <ele>533.4</ele>
        <time>2021-06-26T12:29:39Z</time>
      </trkpt>
      <trkpt lat="46.16168" lon="6.31519">
        <ele>533.6</ele>
        <time>2021-06-26T12:29:40Z</time>
      </trkpt>
      <trkpt lat="46.1617" lon="6.31517">
        <ele>533.6</ele>
        <time>2021-06-26T12:29:41Z</time>
      </trkpt>
      <trkpt lat="46.1617" lon="6.31516">
        <ele>533.8</ele>
        <time>2021-06-26T12:29:42Z</time>
      </trkpt>
      <trkpt lat="46.1617" lon="6.31516">
        <ele>534</ele>
        <time>2021-06-26T12:29:43Z</time>
      </trkpt>
      <trkpt lat="46.16171" lon="6.31516">
        <ele>535.2</ele>
        <time>2021-06-26T12:29:47Z</time>
      </trkpt>
      <trkpt lat="46.16171" lon="6.31515">
        <ele>536.2</ele>
        <time>2021-06-26T12:29:56Z</time>
      </trkpt>
      <trkpt lat="46.16172" lon="6.31512">
        <ele>536.2</ele>
        <time>2021-06-26T12:29:58Z</time>
      </trkpt>
      <trkpt lat="46.16179" lon="6.31497">
        <ele>536.2</ele>
        <time>2021-06-26T12:30:03Z</time>
      </trkpt>
      <trkpt lat="46.16181" lon="6.31492">
        <ele>536.2</ele>
        <time>2021-06-26T12:30:04Z</time>
      </trkpt>
      <trkpt lat="46.16183" lon="6.31478">
        <ele>536</ele>
        <time>2021-06-26T12:30:06Z</time>
      </trkpt>
      <trkpt lat="46.16183" lon="6.31471">
        <ele>536</ele>
        <time>2021-06-26T12:30:07Z</time>
      </trkpt>
      <trkpt lat="46.16182" lon="6.31464">
        <ele>536</ele>
        <time>2021-06-26T12:30:08Z</time>
      </trkpt>
      <trkpt lat="46.16181" lon="6.31456">
        <ele>535.8</ele>
        <time>2021-06-26T12:30:09Z</time>
      </trkpt>
      <trkpt lat="46.16179" lon="6.31448">
        <ele>536</ele>
        <time>2021-06-26T12:30:10Z</time>
      </trkpt>
      <trkpt lat="46.16177" lon="6.3144">
        <ele>535.6</ele>
        <time>2021-06-26T12:30:11Z</time>
      </trkpt>
      <trkpt lat="46.1616" lon="6.31372">
        <ele>534.6</ele>
        <time>2021-06-26T12:30:19Z</time>
      </trkpt>
      <trkpt lat="46.16158" lon="6.31365">
        <ele>534.6</ele>
        <time>2021-06-26T12:30:20Z</time>
      </trkpt>
      <trkpt lat="46.16156" lon="6.31358">
        <ele>534.4</ele>
        <time>2021-06-26T12:30:21Z</time>
      </trkpt>
      <trkpt lat="46.16154" lon="6.31351">
        <ele>534.4</ele>
        <time>2021-06-26T12:30:22Z</time>
      </trkpt>
      <trkpt lat="46.16152" lon="6.31345">
        <ele>534.6</ele>
        <time>2021-06-26T12:30:23Z</time>
      </trkpt>
      <trkpt lat="46.16151" lon="6.31339">
        <ele>534.6</ele>
        <time>2021-06-26T12:30:24Z</time>
      </trkpt>
      <trkpt lat="46.1615" lon="6.31333">
        <ele>534.6</ele>
        <time>2021-06-26T12:30:25Z</time>
      </trkpt>
      <trkpt lat="46.16149" lon="6.31327">
        <ele>534.4</ele>
        <time>2021-06-26T12:30:26Z</time>
      </trkpt>
      <trkpt lat="46.16148" lon="6.31322">
        <ele>534.6</ele>
        <time>2021-06-26T12:30:27Z</time>
      </trkpt>
      <trkpt lat="46.16148" lon="6.31317">
        <ele>534.4</ele>
        <time>2021-06-26T12:30:28Z</time>
      </trkpt>
      <trkpt lat="46.16148" lon="6.31313">
        <ele>534.6</ele>
        <time>2021-06-26T12:30:29Z</time>
      </trkpt>
      <trkpt lat="46.16148" lon="6.31308">
        <ele>534.6</ele>
        <time>2021-06-26T12:30:30Z</time>
      </trkpt>
      <trkpt lat="46.16149" lon="6.31302">
        <ele>534.8</ele>
        <time>2021-06-26T12:30:31Z</time>
      </trkpt>
      <trkpt lat="46.1615" lon="6.31297">
        <ele>535.2</ele>
        <time>2021-06-26T12:30:32Z</time>
      </trkpt>
      <trkpt lat="46.16152" lon="6.31292">
        <ele>535.8</ele>
        <time>2021-06-26T12:30:33Z</time>
      </trkpt>
      <trkpt lat="46.16154" lon="6.31287">
        <ele>536.4</ele>
        <time>2021-06-26T12:30:34Z</time>
      </trkpt>
      <trkpt lat="46.16156" lon="6.31281">
        <ele>536.6</ele>
        <time>2021-06-26T12:30:35Z</time>
      </trkpt>
      <trkpt lat="46.16158" lon="6.31275">
        <ele>536.8</ele>
        <time>2021-06-26T12:30:36Z</time>
      </trkpt>
      <trkpt lat="46.1616" lon="6.31269">
        <ele>536.8</ele>
        <time>2021-06-26T12:30:37Z</time>
      </trkpt>
      <trkpt lat="46.16163" lon="6.31263">
        <ele>536.8</ele>
        <time>2021-06-26T12:30:38Z</time>
      </trkpt>
      <trkpt lat="46.16165" lon="6.31256">
        <ele>536.8</ele>
        <time>2021-06-26T12:30:39Z</time>
      </trkpt>
      <trkpt lat="46.1617" lon="6.31242">
        <ele>536.8</ele>
        <time>2021-06-26T12:30:41Z</time>
      </trkpt>
      <trkpt lat="46.16173" lon="6.31235">
        <ele>536.8</ele>
        <time>2021-06-26T12:30:42Z</time>
      </trkpt>
      <trkpt lat="46.16192" lon="6.31187">
        <ele>536.6</ele>
        <time>2021-06-26T12:30:48Z</time>
      </trkpt>
      <trkpt lat="46.16211" lon="6.31155">
        <ele>535.6</ele>
        <time>2021-06-26T12:30:52Z</time>
      </trkpt>
      <trkpt lat="46.16226" lon="6.31133">
        <ele>535.2</ele>
        <time>2021-06-26T12:30:55Z</time>
      </trkpt>
      <trkpt lat="46.16232" lon="6.31126">
        <ele>535</ele>
        <time>2021-06-26T12:30:56Z</time>
      </trkpt>
      <trkpt lat="46.16261" lon="6.31097">
        <ele>533.4</ele>
        <time>2021-06-26T12:31:01Z</time>
      </trkpt>
      <trkpt lat="46.1629" lon="6.3107">
        <ele>532.8</ele>
        <time>2021-06-26T12:31:06Z</time>
      </trkpt>
      <trkpt lat="46.163" lon="6.31055">
        <ele>532.8</ele>
        <time>2021-06-26T12:31:08Z</time>
      </trkpt>
      <trkpt lat="46.16318" lon="6.31022">
        <ele>532.6</ele>
        <time>2021-06-26T12:31:12Z</time>
      </trkpt>
      <trkpt lat="46.16322" lon="6.31014">
        <ele>532.8</ele>
        <time>2021-06-26T12:31:13Z</time>
      </trkpt>
      <trkpt lat="46.16326" lon="6.31006">
        <ele>532.8</ele>
        <time>2021-06-26T12:31:14Z</time>
      </trkpt>
      <trkpt lat="46.1633" lon="6.30997">
        <ele>532.8</ele>
        <time>2021-06-26T12:31:15Z</time>
      </trkpt>
      <trkpt lat="46.16333" lon="6.30989">
        <ele>532.8</ele>
        <time>2021-06-26T12:31:16Z</time>
      </trkpt>
      <trkpt lat="46.16337" lon="6.30981">
        <ele>532.6</ele>
        <time>2021-06-26T12:31:17Z</time>
      </trkpt>
      <trkpt lat="46.16341" lon="6.30974">
        <ele>532.8</ele>
        <time>2021-06-26T12:31:18Z</time>
      </trkpt>
      <trkpt lat="46.16345" lon="6.30966">
        <ele>532.8</ele>
        <time>2021-06-26T12:31:19Z</time>
      </trkpt>
      <trkpt lat="46.16349" lon="6.30959">
        <ele>532.8</ele>
        <time>2021-06-26T12:31:20Z</time>
      </trkpt>
      <trkpt lat="46.16353" lon="6.30952">
        <ele>532.8</ele>
        <time>2021-06-26T12:31:21Z</time>
      </trkpt>
      <trkpt lat="46.16357" lon="6.30946">
        <ele>532.6</ele>
        <time>2021-06-26T12:31:22Z</time>
      </trkpt>
      <trkpt lat="46.16362" lon="6.30939">
        <ele>532.8</ele>
        <time>2021-06-26T12:31:23Z</time>
      </trkpt>
      <trkpt lat="46.16375" lon="6.3092">
        <ele>532.8</ele>
        <time>2021-06-26T12:31:26Z</time>
      </trkpt>
      <trkpt lat="46.1638" lon="6.30914">
        <ele>532.8</ele>
        <time>2021-06-26T12:31:27Z</time>
      </trkpt>
      <trkpt lat="46.16389" lon="6.30901">
        <ele>533</ele>
        <time>2021-06-26T12:31:29Z</time>
      </trkpt>
      <trkpt lat="46.16393" lon="6.30896">
        <ele>533</ele>
        <time>2021-06-26T12:31:30Z</time>
      </trkpt>
      <trkpt lat="46.16398" lon="6.3089">
        <ele>533</ele>
        <time>2021-06-26T12:31:31Z</time>
      </trkpt>
      <trkpt lat="46.1643" lon="6.30847">
        <ele>533</ele>
        <time>2021-06-26T12:31:38Z</time>
      </trkpt>
      <trkpt lat="46.16458" lon="6.30819">
        <ele>533</ele>
        <time>2021-06-26T12:31:43Z</time>
      </trkpt>
      <trkpt lat="46.16464" lon="6.30813">
        <ele>533</ele>
        <time>2021-06-26T12:31:44Z</time>
      </trkpt>
      <trkpt lat="46.1647" lon="6.30808">
        <ele>532.8</ele>
        <time>2021-06-26T12:31:45Z</time>
      </trkpt>
      <trkpt lat="46.16501" lon="6.30784">
        <ele>532.6</ele>
        <time>2021-06-26T12:31:50Z</time>
      </trkpt>
      <trkpt lat="46.16507" lon="6.30779">
        <ele>532.6</ele>
        <time>2021-06-26T12:31:51Z</time>
      </trkpt>
      <trkpt lat="46.16512" lon="6.30774">
        <ele>532.6</ele>
        <time>2021-06-26T12:31:52Z</time>
      </trkpt>
      <trkpt lat="46.16518" lon="6.3077">
        <ele>532.2</ele>
        <time>2021-06-26T12:31:53Z</time>
      </trkpt>
      <trkpt lat="46.16524" lon="6.30765">
        <ele>532</ele>
        <time>2021-06-26T12:31:54Z</time>
      </trkpt>
      <trkpt lat="46.16529" lon="6.30761">
        <ele>532</ele>
        <time>2021-06-26T12:31:55Z</time>
      </trkpt>
      <trkpt lat="46.16535" lon="6.30756">
        <ele>531.8</ele>
        <time>2021-06-26T12:31:56Z</time>
      </trkpt>
      <trkpt lat="46.16541" lon="6.30751">
        <ele>531.8</ele>
        <time>2021-06-26T12:31:57Z</time>
      </trkpt>
      <trkpt lat="46.16546" lon="6.30747">
        <ele>531.8</ele>
        <time>2021-06-26T12:31:58Z</time>
      </trkpt>
      <trkpt lat="46.16551" lon="6.30742">
        <ele>531.8</ele>
        <time>2021-06-26T12:31:59Z</time>
      </trkpt>
      <trkpt lat="46.16556" lon="6.30737">
        <ele>531.8</ele>
        <time>2021-06-26T12:32:00Z</time>
      </trkpt>
      <trkpt lat="46.16576" lon="6.30714">
        <ele>532</ele>
        <time>2021-06-26T12:32:04Z</time>
      </trkpt>
      <trkpt lat="46.16594" lon="6.30688">
        <ele>531.8</ele>
        <time>2021-06-26T12:32:08Z</time>
      </trkpt>
      <trkpt lat="46.16599" lon="6.30681">
        <ele>531.8</ele>
        <time>2021-06-26T12:32:09Z</time>
      </trkpt>
      <trkpt lat="46.16603" lon="6.30675">
        <ele>531.8</ele>
        <time>2021-06-26T12:32:10Z</time>
      </trkpt>
      <trkpt lat="46.16608" lon="6.30668">
        <ele>531.8</ele>
        <time>2021-06-26T12:32:11Z</time>
      </trkpt>
      <trkpt lat="46.16612" lon="6.3066">
        <ele>531.8</ele>
        <time>2021-06-26T12:32:12Z</time>
      </trkpt>
      <trkpt lat="46.16615" lon="6.30653">
        <ele>531.8</ele>
        <time>2021-06-26T12:32:13Z</time>
      </trkpt>
      <trkpt lat="46.16629" lon="6.30611">
        <ele>531.8</ele>
        <time>2021-06-26T12:32:18Z</time>
      </trkpt>
      <trkpt lat="46.16631" lon="6.30602">
        <ele>531.8</ele>
        <time>2021-06-26T12:32:19Z</time>
      </trkpt>
      <trkpt lat="46.16634" lon="6.30594">
        <ele>531.8</ele>
        <time>2021-06-26T12:32:20Z</time>
      </trkpt>
      <trkpt lat="46.16637" lon="6.30586">
        <ele>531.6</ele>
        <time>2021-06-26T12:32:21Z</time>
      </trkpt>
      <trkpt lat="46.16641" lon="6.30571">
        <ele>531.6</ele>
        <time>2021-06-26T12:32:23Z</time>
      </trkpt>
      <trkpt lat="46.16643" lon="6.30563">
        <ele>531.4</ele>
        <time>2021-06-26T12:32:24Z</time>
      </trkpt>
      <trkpt lat="46.16643" lon="6.30555">
        <ele>531.2</ele>
        <time>2021-06-26T12:32:25Z</time>
      </trkpt>
      <trkpt lat="46.16642" lon="6.30546">
        <ele>531.2</ele>
        <time>2021-06-26T12:32:26Z</time>
      </trkpt>
      <trkpt lat="46.1664" lon="6.30537">
        <ele>530.8</ele>
        <time>2021-06-26T12:32:27Z</time>
      </trkpt>
      <trkpt lat="46.16637" lon="6.30529">
        <ele>530.6</ele>
        <time>2021-06-26T12:32:28Z</time>
      </trkpt>
      <trkpt lat="46.16633" lon="6.3052">
        <ele>530.6</ele>
        <time>2021-06-26T12:32:29Z</time>
      </trkpt>
      <trkpt lat="46.16627" lon="6.30513">
        <ele>530.4</ele>
        <time>2021-06-26T12:32:30Z</time>
      </trkpt>
      <trkpt lat="46.16621" lon="6.30507">
        <ele>530.2</ele>
        <time>2021-06-26T12:32:31Z</time>
      </trkpt>
      <trkpt lat="46.16614" lon="6.305">
        <ele>530.2</ele>
        <time>2021-06-26T12:32:32Z</time>
      </trkpt>
      <trkpt lat="46.16607" lon="6.30493">
        <ele>530</ele>
        <time>2021-06-26T12:32:33Z</time>
      </trkpt>
      <trkpt lat="46.16591" lon="6.30479">
        <ele>529</ele>
        <time>2021-06-26T12:32:35Z</time>
      </trkpt>
      <trkpt lat="46.16584" lon="6.30469">
        <ele>528.2</ele>
        <time>2021-06-26T12:32:36Z</time>
      </trkpt>
      <trkpt lat="46.16565" lon="6.30439">
        <ele>527.2</ele>
        <time>2021-06-26T12:32:39Z</time>
      </trkpt>
      <trkpt lat="46.16553" lon="6.30418">
        <ele>526.4</ele>
        <time>2021-06-26T12:32:41Z</time>
      </trkpt>
      <trkpt lat="46.16547" lon="6.30407">
        <ele>526.2</ele>
        <time>2021-06-26T12:32:42Z</time>
      </trkpt>
      <trkpt lat="46.16541" lon="6.30396">
        <ele>525.6</ele>
        <time>2021-06-26T12:32:43Z</time>
      </trkpt>
      <trkpt lat="46.16528" lon="6.30375">
        <ele>524</ele>
        <time>2021-06-26T12:32:45Z</time>
      </trkpt>
      <trkpt lat="46.16516" lon="6.30354">
        <ele>521.8</ele>
        <time>2021-06-26T12:32:47Z</time>
      </trkpt>
      <trkpt lat="46.1651" lon="6.30343">
        <ele>520.4</ele>
        <time>2021-06-26T12:32:48Z</time>
      </trkpt>
      <trkpt lat="46.16504" lon="6.30333">
        <ele>519.6</ele>
        <time>2021-06-26T12:32:49Z</time>
      </trkpt>
      <trkpt lat="46.16493" lon="6.30313">
        <ele>518</ele>
        <time>2021-06-26T12:32:51Z</time>
      </trkpt>
      <trkpt lat="46.16487" lon="6.30303">
        <ele>517.4</ele>
        <time>2021-06-26T12:32:52Z</time>
      </trkpt>
      <trkpt lat="46.16475" lon="6.30283">
        <ele>517</ele>
        <time>2021-06-26T12:32:54Z</time>
      </trkpt>
      <trkpt lat="46.16464" lon="6.30263">
        <ele>516.4</ele>
        <time>2021-06-26T12:32:56Z</time>
      </trkpt>
      <trkpt lat="46.16458" lon="6.30254">
        <ele>516</ele>
        <time>2021-06-26T12:32:57Z</time>
      </trkpt>
      <trkpt lat="46.16434" lon="6.30215">
        <ele>515.2</ele>
        <time>2021-06-26T12:33:01Z</time>
      </trkpt>
      <trkpt lat="46.16428" lon="6.30206">
        <ele>515</ele>
        <time>2021-06-26T12:33:02Z</time>
      </trkpt>
      <trkpt lat="46.16404" lon="6.30168">
        <ele>514.6</ele>
        <time>2021-06-26T12:33:06Z</time>
      </trkpt>
      <trkpt lat="46.16387" lon="6.3014">
        <ele>513.8</ele>
        <time>2021-06-26T12:33:09Z</time>
      </trkpt>
      <trkpt lat="46.16381" lon="6.30131">
        <ele>513.4</ele>
        <time>2021-06-26T12:33:10Z</time>
      </trkpt>
      <trkpt lat="46.16364" lon="6.30102">
        <ele>513.2</ele>
        <time>2021-06-26T12:33:13Z</time>
      </trkpt>
      <trkpt lat="46.16346" lon="6.30073">
        <ele>513</ele>
        <time>2021-06-26T12:33:16Z</time>
      </trkpt>
      <trkpt lat="46.1634" lon="6.30063">
        <ele>513</ele>
        <time>2021-06-26T12:33:17Z</time>
      </trkpt>
      <trkpt lat="46.16306" lon="6.30001">
        <ele>512</ele>
        <time>2021-06-26T12:33:23Z</time>
      </trkpt>
      <trkpt lat="46.163" lon="6.29991">
        <ele>511.8</ele>
        <time>2021-06-26T12:33:24Z</time>
      </trkpt>
      <trkpt lat="46.16289" lon="6.29971">
        <ele>511.2</ele>
        <time>2021-06-26T12:33:26Z</time>
      </trkpt>
      <trkpt lat="46.16284" lon="6.29961">
        <ele>511</ele>
        <time>2021-06-26T12:33:27Z</time>
      </trkpt>
      <trkpt lat="46.16279" lon="6.29951">
        <ele>510.8</ele>
        <time>2021-06-26T12:33:28Z</time>
      </trkpt>
      <trkpt lat="46.16275" lon="6.29941">
        <ele>510.6</ele>
        <time>2021-06-26T12:33:29Z</time>
      </trkpt>
      <trkpt lat="46.16271" lon="6.2993">
        <ele>510.6</ele>
        <time>2021-06-26T12:33:30Z</time>
      </trkpt>
      <trkpt lat="46.16267" lon="6.2992">
        <ele>510.4</ele>
        <time>2021-06-26T12:33:31Z</time>
      </trkpt>
      <trkpt lat="46.16263" lon="6.29909">
        <ele>510</ele>
        <time>2021-06-26T12:33:32Z</time>
      </trkpt>
      <trkpt lat="46.16243" lon="6.2984">
        <ele>508.8</ele>
        <time>2021-06-26T12:33:38Z</time>
      </trkpt>
      <trkpt lat="46.16231" lon="6.29792">
        <ele>508.4</ele>
        <time>2021-06-26T12:33:42Z</time>
      </trkpt>
      <trkpt lat="46.16228" lon="6.29781">
        <ele>508.4</ele>
        <time>2021-06-26T12:33:43Z</time>
      </trkpt>
      <trkpt lat="46.16221" lon="6.29758">
        <ele>508.4</ele>
        <time>2021-06-26T12:33:45Z</time>
      </trkpt>
      <trkpt lat="46.16218" lon="6.29746">
        <ele>508.2</ele>
        <time>2021-06-26T12:33:46Z</time>
      </trkpt>
      <trkpt lat="46.16215" lon="6.29735">
        <ele>508</ele>
        <time>2021-06-26T12:33:47Z</time>
      </trkpt>
      <trkpt lat="46.16213" lon="6.29724">
        <ele>508.2</ele>
        <time>2021-06-26T12:33:48Z</time>
      </trkpt>
      <trkpt lat="46.16211" lon="6.29713">
        <ele>508</ele>
        <time>2021-06-26T12:33:49Z</time>
      </trkpt>
      <trkpt lat="46.1621" lon="6.29701">
        <ele>507.8</ele>
        <time>2021-06-26T12:33:50Z</time>
      </trkpt>
      <trkpt lat="46.1621" lon="6.29689">
        <ele>507.6</ele>
        <time>2021-06-26T12:33:51Z</time>
      </trkpt>
      <trkpt lat="46.16212" lon="6.29667">
        <ele>507.6</ele>
        <time>2021-06-26T12:33:53Z</time>
      </trkpt>
      <trkpt lat="46.16214" lon="6.29656">
        <ele>507.6</ele>
        <time>2021-06-26T12:33:54Z</time>
      </trkpt>
      <trkpt lat="46.16216" lon="6.29645">
        <ele>507.4</ele>
        <time>2021-06-26T12:33:55Z</time>
      </trkpt>
      <trkpt lat="46.16218" lon="6.29634">
        <ele>507.4</ele>
        <time>2021-06-26T12:33:56Z</time>
      </trkpt>
      <trkpt lat="46.16219" lon="6.29622">
        <ele>507.2</ele>
        <time>2021-06-26T12:33:57Z</time>
      </trkpt>
      <trkpt lat="46.16222" lon="6.29586">
        <ele>507</ele>
        <time>2021-06-26T12:34:00Z</time>
      </trkpt>
      <trkpt lat="46.16223" lon="6.29574">
        <ele>507</ele>
        <time>2021-06-26T12:34:01Z</time>
      </trkpt>
      <trkpt lat="46.16222" lon="6.29551">
        <ele>506.8</ele>
        <time>2021-06-26T12:34:03Z</time>
      </trkpt>
      <trkpt lat="46.16222" lon="6.29539">
        <ele>506.8</ele>
        <time>2021-06-26T12:34:04Z</time>
      </trkpt>
      <trkpt lat="46.16221" lon="6.29528">
        <ele>506.4</ele>
        <time>2021-06-26T12:34:05Z</time>
      </trkpt>
      <trkpt lat="46.16221" lon="6.29516">
        <ele>506.2</ele>
        <time>2021-06-26T12:34:06Z</time>
      </trkpt>
      <trkpt lat="46.1622" lon="6.29505">
        <ele>506.2</ele>
        <time>2021-06-26T12:34:07Z</time>
      </trkpt>
      <trkpt lat="46.16219" lon="6.29494">
        <ele>506</ele>
        <time>2021-06-26T12:34:08Z</time>
      </trkpt>
      <trkpt lat="46.16219" lon="6.29483">
        <ele>505.6</ele>
        <time>2021-06-26T12:34:09Z</time>
      </trkpt>
      <trkpt lat="46.16218" lon="6.29472">
        <ele>505.6</ele>
        <time>2021-06-26T12:34:10Z</time>
      </trkpt>
      <trkpt lat="46.16218" lon="6.29462">
        <ele>505.6</ele>
        <time>2021-06-26T12:34:11Z</time>
      </trkpt>
      <trkpt lat="46.16217" lon="6.29451">
        <ele>505.6</ele>
        <time>2021-06-26T12:34:12Z</time>
      </trkpt>
      <trkpt lat="46.16215" lon="6.2943">
        <ele>505.6</ele>
        <time>2021-06-26T12:34:14Z</time>
      </trkpt>
      <trkpt lat="46.16214" lon="6.29418">
        <ele>505.4</ele>
        <time>2021-06-26T12:34:15Z</time>
      </trkpt>
      <trkpt lat="46.16209" lon="6.29396">
        <ele>505.4</ele>
        <time>2021-06-26T12:34:17Z</time>
      </trkpt>
      <trkpt lat="46.16204" lon="6.29374">
        <ele>505.4</ele>
        <time>2021-06-26T12:34:19Z</time>
      </trkpt>
      <trkpt lat="46.16201" lon="6.29362">
        <ele>505.2</ele>
        <time>2021-06-26T12:34:20Z</time>
      </trkpt>
      <trkpt lat="46.16197" lon="6.29351">
        <ele>505.4</ele>
        <time>2021-06-26T12:34:21Z</time>
      </trkpt>
      <trkpt lat="46.16191" lon="6.29329">
        <ele>505.2</ele>
        <time>2021-06-26T12:34:23Z</time>
      </trkpt>
      <trkpt lat="46.16188" lon="6.29318">
        <ele>505.2</ele>
        <time>2021-06-26T12:34:24Z</time>
      </trkpt>
      <trkpt lat="46.16186" lon="6.29308">
        <ele>505.2</ele>
        <time>2021-06-26T12:34:25Z</time>
      </trkpt>
      <trkpt lat="46.1618" lon="6.29287">
        <ele>504.2</ele>
        <time>2021-06-26T12:34:27Z</time>
      </trkpt>
      <trkpt lat="46.16177" lon="6.29276">
        <ele>504</ele>
        <time>2021-06-26T12:34:28Z</time>
      </trkpt>
      <trkpt lat="46.16172" lon="6.29256">
        <ele>503.6</ele>
        <time>2021-06-26T12:34:30Z</time>
      </trkpt>
      <trkpt lat="46.16169" lon="6.29245">
        <ele>503.2</ele>
        <time>2021-06-26T12:34:31Z</time>
      </trkpt>
      <trkpt lat="46.16164" lon="6.29224">
        <ele>502.8</ele>
        <time>2021-06-26T12:34:33Z</time>
      </trkpt>
      <trkpt lat="46.16161" lon="6.29214">
        <ele>502.2</ele>
        <time>2021-06-26T12:34:34Z</time>
      </trkpt>
      <trkpt lat="46.16158" lon="6.29203">
        <ele>502</ele>
        <time>2021-06-26T12:34:35Z</time>
      </trkpt>
      <trkpt lat="46.16149" lon="6.29171">
        <ele>501.6</ele>
        <time>2021-06-26T12:34:38Z</time>
      </trkpt>
      <trkpt lat="46.16137" lon="6.29127">
        <ele>500.6</ele>
        <time>2021-06-26T12:34:42Z</time>
      </trkpt>
      <trkpt lat="46.16134" lon="6.29116">
        <ele>500.2</ele>
        <time>2021-06-26T12:34:43Z</time>
      </trkpt>
      <trkpt lat="46.16118" lon="6.29058">
        <ele>499.4</ele>
        <time>2021-06-26T12:34:48Z</time>
      </trkpt>
      <trkpt lat="46.16114" lon="6.29045">
        <ele>499.2</ele>
        <time>2021-06-26T12:34:49Z</time>
      </trkpt>
      <trkpt lat="46.16111" lon="6.29033">
        <ele>499</ele>
        <time>2021-06-26T12:34:50Z</time>
      </trkpt>
      <trkpt lat="46.16102" lon="6.28996">
        <ele>498.6</ele>
        <time>2021-06-26T12:34:53Z</time>
      </trkpt>
      <trkpt lat="46.16098" lon="6.28984">
        <ele>498.6</ele>
        <time>2021-06-26T12:34:54Z</time>
      </trkpt>
      <trkpt lat="46.16091" lon="6.2896">
        <ele>498</ele>
        <time>2021-06-26T12:34:56Z</time>
      </trkpt>
      <trkpt lat="46.16088" lon="6.28948">
        <ele>498</ele>
        <time>2021-06-26T12:34:57Z</time>
      </trkpt>
      <trkpt lat="46.16085" lon="6.28936">
        <ele>497.8</ele>
        <time>2021-06-26T12:34:58Z</time>
      </trkpt>
      <trkpt lat="46.16081" lon="6.28925">
        <ele>496.8</ele>
        <time>2021-06-26T12:34:59Z</time>
      </trkpt>
      <trkpt lat="46.16078" lon="6.28913">
        <ele>496.6</ele>
        <time>2021-06-26T12:35:00Z</time>
      </trkpt>
      <trkpt lat="46.16075" lon="6.28901">
        <ele>496.2</ele>
        <time>2021-06-26T12:35:01Z</time>
      </trkpt>
      <trkpt lat="46.16069" lon="6.28878">
        <ele>496</ele>
        <time>2021-06-26T12:35:03Z</time>
      </trkpt>
      <trkpt lat="46.16065" lon="6.28866">
        <ele>495.8</ele>
        <time>2021-06-26T12:35:04Z</time>
      </trkpt>
      <trkpt lat="46.16062" lon="6.28856">
        <ele>495.8</ele>
        <time>2021-06-26T12:35:05Z</time>
      </trkpt>
      <trkpt lat="46.16058" lon="6.28845">
        <ele>496</ele>
        <time>2021-06-26T12:35:06Z</time>
      </trkpt>
      <trkpt lat="46.16054" lon="6.28835">
        <ele>495.8</ele>
        <time>2021-06-26T12:35:07Z</time>
      </trkpt>
      <trkpt lat="46.16046" lon="6.28815">
        <ele>495.8</ele>
        <time>2021-06-26T12:35:09Z</time>
      </trkpt>
      <trkpt lat="46.16038" lon="6.28795">
        <ele>495.8</ele>
        <time>2021-06-26T12:35:11Z</time>
      </trkpt>
      <trkpt lat="46.16034" lon="6.28785">
        <ele>495.8</ele>
        <time>2021-06-26T12:35:12Z</time>
      </trkpt>
      <trkpt lat="46.16012" lon="6.28737">
        <ele>495.8</ele>
        <time>2021-06-26T12:35:17Z</time>
      </trkpt>
      <trkpt lat="46.16001" lon="6.28718">
        <ele>495.8</ele>
        <time>2021-06-26T12:35:19Z</time>
      </trkpt>
      <trkpt lat="46.15989" lon="6.28699">
        <ele>495.8</ele>
        <time>2021-06-26T12:35:21Z</time>
      </trkpt>
      <trkpt lat="46.15961" lon="6.28651">
        <ele>494.8</ele>
        <time>2021-06-26T12:35:26Z</time>
      </trkpt>
      <trkpt lat="46.15955" lon="6.28642">
        <ele>494.4</ele>
        <time>2021-06-26T12:35:27Z</time>
      </trkpt>
      <trkpt lat="46.15949" lon="6.28632">
        <ele>494</ele>
        <time>2021-06-26T12:35:28Z</time>
      </trkpt>
      <trkpt lat="46.15943" lon="6.28622">
        <ele>493.8</ele>
        <time>2021-06-26T12:35:29Z</time>
      </trkpt>
      <trkpt lat="46.15916" lon="6.28584">
        <ele>492.2</ele>
        <time>2021-06-26T12:35:33Z</time>
      </trkpt>
      <trkpt lat="46.1591" lon="6.28576">
        <ele>492</ele>
        <time>2021-06-26T12:35:34Z</time>
      </trkpt>
      <trkpt lat="46.15903" lon="6.28567">
        <ele>491.6</ele>
        <time>2021-06-26T12:35:35Z</time>
      </trkpt>
      <trkpt lat="46.15897" lon="6.28559">
        <ele>490.6</ele>
        <time>2021-06-26T12:35:36Z</time>
      </trkpt>
      <trkpt lat="46.15891" lon="6.28551">
        <ele>490.6</ele>
        <time>2021-06-26T12:35:37Z</time>
      </trkpt>
      <trkpt lat="46.15885" lon="6.28543">
        <ele>489.8</ele>
        <time>2021-06-26T12:35:38Z</time>
      </trkpt>
      <trkpt lat="46.1588" lon="6.28535">
        <ele>489.2</ele>
        <time>2021-06-26T12:35:39Z</time>
      </trkpt>
      <trkpt lat="46.15875" lon="6.28529">
        <ele>488.6</ele>
        <time>2021-06-26T12:35:40Z</time>
      </trkpt>
      <trkpt lat="46.15872" lon="6.28524">
        <ele>488.4</ele>
        <time>2021-06-26T12:35:41Z</time>
      </trkpt>
      <trkpt lat="46.15869" lon="6.28519">
        <ele>488.2</ele>
        <time>2021-06-26T12:35:42Z</time>
      </trkpt>
      <trkpt lat="46.15868" lon="6.28513">
        <ele>488</ele>
        <time>2021-06-26T12:35:43Z</time>
      </trkpt>
      <trkpt lat="46.15868" lon="6.28507">
        <ele>488</ele>
        <time>2021-06-26T12:35:44Z</time>
      </trkpt>
      <trkpt lat="46.15869" lon="6.28502">
        <ele>488</ele>
        <time>2021-06-26T12:35:45Z</time>
      </trkpt>
      <trkpt lat="46.1587" lon="6.28496">
        <ele>488.2</ele>
        <time>2021-06-26T12:35:46Z</time>
      </trkpt>
      <trkpt lat="46.15871" lon="6.2849">
        <ele>488.2</ele>
        <time>2021-06-26T12:35:47Z</time>
      </trkpt>
      <trkpt lat="46.15873" lon="6.28484">
        <ele>488</ele>
        <time>2021-06-26T12:35:48Z</time>
      </trkpt>
      <trkpt lat="46.15874" lon="6.28478">
        <ele>488.2</ele>
        <time>2021-06-26T12:35:49Z</time>
      </trkpt>
      <trkpt lat="46.15888" lon="6.2843">
        <ele>489.2</ele>
        <time>2021-06-26T12:35:56Z</time>
      </trkpt>
      <trkpt lat="46.15891" lon="6.28423">
        <ele>489.4</ele>
        <time>2021-06-26T12:35:57Z</time>
      </trkpt>
      <trkpt lat="46.15899" lon="6.28403">
        <ele>489.4</ele>
        <time>2021-06-26T12:36:00Z</time>
      </trkpt>
      <trkpt lat="46.15902" lon="6.28397">
        <ele>489.4</ele>
        <time>2021-06-26T12:36:01Z</time>
      </trkpt>
      <trkpt lat="46.1591" lon="6.28378">
        <ele>489.6</ele>
        <time>2021-06-26T12:36:04Z</time>
      </trkpt>
      <trkpt lat="46.15917" lon="6.28364">
        <ele>489.8</ele>
        <time>2021-06-26T12:36:06Z</time>
      </trkpt>
      <trkpt lat="46.15939" lon="6.28321">
        <ele>490.6</ele>
        <time>2021-06-26T12:36:12Z</time>
      </trkpt>
      <trkpt lat="46.15965" lon="6.28271">
        <ele>491.4</ele>
        <time>2021-06-26T12:36:19Z</time>
      </trkpt>
      <trkpt lat="46.15976" lon="6.2825">
        <ele>491.4</ele>
        <time>2021-06-26T12:36:22Z</time>
      </trkpt>
      <trkpt lat="46.1598" lon="6.28243">
        <ele>491.4</ele>
        <time>2021-06-26T12:36:23Z</time>
      </trkpt>
      <trkpt lat="46.16011" lon="6.28175">
        <ele>492.4</ele>
        <time>2021-06-26T12:36:32Z</time>
      </trkpt>
      <trkpt lat="46.16032" lon="6.28118">
        <ele>493</ele>
        <time>2021-06-26T12:36:39Z</time>
      </trkpt>
      <trkpt lat="46.16051" lon="6.28069">
        <ele>493.6</ele>
        <time>2021-06-26T12:36:45Z</time>
      </trkpt>
      <trkpt lat="46.16074" lon="6.28009">
        <ele>493.8</ele>
        <time>2021-06-26T12:36:52Z</time>
      </trkpt>
      <trkpt lat="46.16077" lon="6.28001">
        <ele>493.8</ele>
        <time>2021-06-26T12:36:53Z</time>
      </trkpt>
      <trkpt lat="46.1608" lon="6.27993">
        <ele>493.8</ele>
        <time>2021-06-26T12:36:54Z</time>
      </trkpt>
      <trkpt lat="46.16087" lon="6.27976">
        <ele>494</ele>
        <time>2021-06-26T12:36:56Z</time>
      </trkpt>
      <trkpt lat="46.16096" lon="6.27952">
        <ele>493.8</ele>
        <time>2021-06-26T12:36:59Z</time>
      </trkpt>
      <trkpt lat="46.16125" lon="6.27876">
        <ele>493.8</ele>
        <time>2021-06-26T12:37:08Z</time>
      </trkpt>
      <trkpt lat="46.16152" lon="6.27807">
        <ele>494.4</ele>
        <time>2021-06-26T12:37:16Z</time>
      </trkpt>
      <trkpt lat="46.16155" lon="6.27798">
        <ele>494.6</ele>
        <time>2021-06-26T12:37:17Z</time>
      </trkpt>
      <trkpt lat="46.16168" lon="6.27764">
        <ele>494.8</ele>
        <time>2021-06-26T12:37:21Z</time>
      </trkpt>
      <trkpt lat="46.16172" lon="6.27755">
        <ele>494.6</ele>
        <time>2021-06-26T12:37:22Z</time>
      </trkpt>
      <trkpt lat="46.16181" lon="6.2773">
        <ele>494.8</ele>
        <time>2021-06-26T12:37:25Z</time>
      </trkpt>
      <trkpt lat="46.16188" lon="6.27713">
        <ele>494.8</ele>
        <time>2021-06-26T12:37:27Z</time>
      </trkpt>
      <trkpt lat="46.16201" lon="6.27679">
        <ele>494.6</ele>
        <time>2021-06-26T12:37:31Z</time>
      </trkpt>
      <trkpt lat="46.16207" lon="6.27663">
        <ele>494.6</ele>
        <time>2021-06-26T12:37:33Z</time>
      </trkpt>
      <trkpt lat="46.16211" lon="6.27656">
        <ele>494.4</ele>
        <time>2021-06-26T12:37:34Z</time>
      </trkpt>
      <trkpt lat="46.16215" lon="6.27649">
        <ele>494.6</ele>
        <time>2021-06-26T12:37:35Z</time>
      </trkpt>
      <trkpt lat="46.16219" lon="6.27642">
        <ele>494.6</ele>
        <time>2021-06-26T12:37:36Z</time>
      </trkpt>
      <trkpt lat="46.16224" lon="6.27637">
        <ele>494.6</ele>
        <time>2021-06-26T12:37:37Z</time>
      </trkpt>
      <trkpt lat="46.16229" lon="6.27633">
        <ele>494.8</ele>
        <time>2021-06-26T12:37:38Z</time>
      </trkpt>
      <trkpt lat="46.16233" lon="6.27628">
        <ele>494.6</ele>
        <time>2021-06-26T12:37:39Z</time>
      </trkpt>
      <trkpt lat="46.16237" lon="6.27622">
        <ele>494.8</ele>
        <time>2021-06-26T12:37:40Z</time>
      </trkpt>
      <trkpt lat="46.16238" lon="6.27614">
        <ele>494.6</ele>
        <time>2021-06-26T12:37:41Z</time>
      </trkpt>
      <trkpt lat="46.16239" lon="6.27588">
        <ele>494.8</ele>
        <time>2021-06-26T12:37:44Z</time>
      </trkpt>
      <trkpt lat="46.16241" lon="6.27579">
        <ele>494.8</ele>
        <time>2021-06-26T12:37:45Z</time>
      </trkpt>
      <trkpt lat="46.16244" lon="6.2757">
        <ele>495</ele>
        <time>2021-06-26T12:37:46Z</time>
      </trkpt>
      <trkpt lat="46.16247" lon="6.27562">
        <ele>495.2</ele>
        <time>2021-06-26T12:37:47Z</time>
      </trkpt>
      <trkpt lat="46.16249" lon="6.27554">
        <ele>495.4</ele>
        <time>2021-06-26T12:37:48Z</time>
      </trkpt>
      <trkpt lat="46.16277" lon="6.27481">
        <ele>496</ele>
        <time>2021-06-26T12:37:57Z</time>
      </trkpt>
      <trkpt lat="46.1629" lon="6.27448">
        <ele>496.2</ele>
        <time>2021-06-26T12:38:01Z</time>
      </trkpt>
      <trkpt lat="46.16293" lon="6.2744">
        <ele>496</ele>
        <time>2021-06-26T12:38:02Z</time>
      </trkpt>
      <trkpt lat="46.16296" lon="6.27432">
        <ele>496.2</ele>
        <time>2021-06-26T12:38:03Z</time>
      </trkpt>
      <trkpt lat="46.16298" lon="6.27425">
        <ele>496</ele>
        <time>2021-06-26T12:38:04Z</time>
      </trkpt>
      <trkpt lat="46.16301" lon="6.27417">
        <ele>496</ele>
        <time>2021-06-26T12:38:05Z</time>
      </trkpt>
      <trkpt lat="46.16325" lon="6.27354">
        <ele>496</ele>
        <time>2021-06-26T12:38:13Z</time>
      </trkpt>
      <trkpt lat="46.16328" lon="6.27347">
        <ele>496</ele>
        <time>2021-06-26T12:38:14Z</time>
      </trkpt>
      <trkpt lat="46.16331" lon="6.27339">
        <ele>496.2</ele>
        <time>2021-06-26T12:38:15Z</time>
      </trkpt>
      <trkpt lat="46.16334" lon="6.27332">
        <ele>496.2</ele>
        <time>2021-06-26T12:38:16Z</time>
      </trkpt>
      <trkpt lat="46.16336" lon="6.27324">
        <ele>496.2</ele>
        <time>2021-06-26T12:38:17Z</time>
      </trkpt>
      <trkpt lat="46.16352" lon="6.27286">
        <ele>496.4</ele>
        <time>2021-06-26T12:38:22Z</time>
      </trkpt>
      <trkpt lat="46.16356" lon="6.27279">
        <ele>496.4</ele>
        <time>2021-06-26T12:38:23Z</time>
      </trkpt>
      <trkpt lat="46.16371" lon="6.27258">
        <ele>496.2</ele>
        <time>2021-06-26T12:38:26Z</time>
      </trkpt>
      <trkpt lat="46.16377" lon="6.27252">
        <ele>496.4</ele>
        <time>2021-06-26T12:38:27Z</time>
      </trkpt>
      <trkpt lat="46.16383" lon="6.27246">
        <ele>496.4</ele>
        <time>2021-06-26T12:38:28Z</time>
      </trkpt>
      <trkpt lat="46.16397" lon="6.27236">
        <ele>496.2</ele>
        <time>2021-06-26T12:38:30Z</time>
      </trkpt>
      <trkpt lat="46.16406" lon="6.27232">
        <ele>496</ele>
        <time>2021-06-26T12:38:31Z</time>
      </trkpt>
      <trkpt lat="46.16414" lon="6.2723">
        <ele>496</ele>
        <time>2021-06-26T12:38:32Z</time>
      </trkpt>
      <trkpt lat="46.16423" lon="6.27229">
        <ele>496</ele>
        <time>2021-06-26T12:38:33Z</time>
      </trkpt>
      <trkpt lat="46.16432" lon="6.27229">
        <ele>495.8</ele>
        <time>2021-06-26T12:38:34Z</time>
      </trkpt>
      <trkpt lat="46.16441" lon="6.2723">
        <ele>495.6</ele>
        <time>2021-06-26T12:38:35Z</time>
      </trkpt>
      <trkpt lat="46.16487" lon="6.27245">
        <ele>493.4</ele>
        <time>2021-06-26T12:38:40Z</time>
      </trkpt>
      <trkpt lat="46.16496" lon="6.27248">
        <ele>492.8</ele>
        <time>2021-06-26T12:38:41Z</time>
      </trkpt>
      <trkpt lat="46.16505" lon="6.27252">
        <ele>492.4</ele>
        <time>2021-06-26T12:38:42Z</time>
      </trkpt>
      <trkpt lat="46.16513" lon="6.27255">
        <ele>492</ele>
        <time>2021-06-26T12:38:43Z</time>
      </trkpt>
      <trkpt lat="46.16548" lon="6.27268">
        <ele>489.8</ele>
        <time>2021-06-26T12:38:47Z</time>
      </trkpt>
      <trkpt lat="46.16556" lon="6.27272">
        <ele>489</ele>
        <time>2021-06-26T12:38:48Z</time>
      </trkpt>
      <trkpt lat="46.16565" lon="6.27276">
        <ele>488.6</ele>
        <time>2021-06-26T12:38:49Z</time>
      </trkpt>
      <trkpt lat="46.16581" lon="6.2729">
        <ele>488</ele>
        <time>2021-06-26T12:38:51Z</time>
      </trkpt>
      <trkpt lat="46.16589" lon="6.27298">
        <ele>487.6</ele>
        <time>2021-06-26T12:38:52Z</time>
      </trkpt>
      <trkpt lat="46.16597" lon="6.27307">
        <ele>487.4</ele>
        <time>2021-06-26T12:38:53Z</time>
      </trkpt>
      <trkpt lat="46.16605" lon="6.27315">
        <ele>487</ele>
        <time>2021-06-26T12:38:54Z</time>
      </trkpt>
      <trkpt lat="46.16621" lon="6.2733">
        <ele>486.6</ele>
        <time>2021-06-26T12:38:56Z</time>
      </trkpt>
      <trkpt lat="46.1663" lon="6.27336">
        <ele>486.6</ele>
        <time>2021-06-26T12:38:57Z</time>
      </trkpt>
      <trkpt lat="46.16638" lon="6.27341">
        <ele>485.8</ele>
        <time>2021-06-26T12:38:58Z</time>
      </trkpt>
      <trkpt lat="46.16656" lon="6.2735">
        <ele>485.4</ele>
        <time>2021-06-26T12:39:00Z</time>
      </trkpt>
      <trkpt lat="46.16684" lon="6.27358">
        <ele>483.6</ele>
        <time>2021-06-26T12:39:03Z</time>
      </trkpt>
      <trkpt lat="46.16694" lon="6.27359">
        <ele>483.2</ele>
        <time>2021-06-26T12:39:04Z</time>
      </trkpt>
      <trkpt lat="46.16713" lon="6.27363">
        <ele>481.8</ele>
        <time>2021-06-26T12:39:06Z</time>
      </trkpt>
      <trkpt lat="46.16733" lon="6.27368">
        <ele>480.2</ele>
        <time>2021-06-26T12:39:08Z</time>
      </trkpt>
      <trkpt lat="46.16774" lon="6.27374">
        <ele>478.8</ele>
        <time>2021-06-26T12:39:12Z</time>
      </trkpt>
      <trkpt lat="46.16784" lon="6.27374">
        <ele>478</ele>
        <time>2021-06-26T12:39:13Z</time>
      </trkpt>
      <trkpt lat="46.16794" lon="6.27372">
        <ele>477.6</ele>
        <time>2021-06-26T12:39:14Z</time>
      </trkpt>
      <trkpt lat="46.16803" lon="6.27367">
        <ele>477.2</ele>
        <time>2021-06-26T12:39:15Z</time>
      </trkpt>
      <trkpt lat="46.16812" lon="6.2736">
        <ele>477.2</ele>
        <time>2021-06-26T12:39:16Z</time>
      </trkpt>
      <trkpt lat="46.1682" lon="6.27352">
        <ele>477</ele>
        <time>2021-06-26T12:39:17Z</time>
      </trkpt>
      <trkpt lat="46.16827" lon="6.27341">
        <ele>477</ele>
        <time>2021-06-26T12:39:18Z</time>
      </trkpt>
      <trkpt lat="46.16833" lon="6.27328">
        <ele>476.8</ele>
        <time>2021-06-26T12:39:19Z</time>
      </trkpt>
      <trkpt lat="46.16837" lon="6.27314">
        <ele>476.8</ele>
        <time>2021-06-26T12:39:20Z</time>
      </trkpt>
      <trkpt lat="46.1684" lon="6.273">
        <ele>476.8</ele>
        <time>2021-06-26T12:39:21Z</time>
      </trkpt>
      <trkpt lat="46.16842" lon="6.27285">
        <ele>476.2</ele>
        <time>2021-06-26T12:39:22Z</time>
      </trkpt>
      <trkpt lat="46.16844" lon="6.2727">
        <ele>475.6</ele>
        <time>2021-06-26T12:39:23Z</time>
      </trkpt>
      <trkpt lat="46.16846" lon="6.27255">
        <ele>475</ele>
        <time>2021-06-26T12:39:24Z</time>
      </trkpt>
      <trkpt lat="46.16848" lon="6.27241">
        <ele>474.4</ele>
        <time>2021-06-26T12:39:25Z</time>
      </trkpt>
      <trkpt lat="46.1685" lon="6.27226">
        <ele>474.2</ele>
        <time>2021-06-26T12:39:26Z</time>
      </trkpt>
      <trkpt lat="46.16851" lon="6.27212">
        <ele>474</ele>
        <time>2021-06-26T12:39:27Z</time>
      </trkpt>
      <trkpt lat="46.16853" lon="6.27199">
        <ele>473.8</ele>
        <time>2021-06-26T12:39:28Z</time>
      </trkpt>
      <trkpt lat="46.16854" lon="6.27186">
        <ele>473.6</ele>
        <time>2021-06-26T12:39:29Z</time>
      </trkpt>
      <trkpt lat="46.16855" lon="6.27173">
        <ele>473.6</ele>
        <time>2021-06-26T12:39:30Z</time>
      </trkpt>
      <trkpt lat="46.16853" lon="6.27162">
        <ele>473.4</ele>
        <time>2021-06-26T12:39:31Z</time>
      </trkpt>
      <trkpt lat="46.1685" lon="6.27152">
        <ele>473.4</ele>
        <time>2021-06-26T12:39:32Z</time>
      </trkpt>
      <trkpt lat="46.16845" lon="6.27143">
        <ele>473.4</ele>
        <time>2021-06-26T12:39:33Z</time>
      </trkpt>
      <trkpt lat="46.16838" lon="6.27136">
        <ele>473.4</ele>
        <time>2021-06-26T12:39:34Z</time>
      </trkpt>
      <trkpt lat="46.16831" lon="6.27132">
        <ele>473.4</ele>
        <time>2021-06-26T12:39:35Z</time>
      </trkpt>
      <trkpt lat="46.16824" lon="6.27128">
        <ele>473.4</ele>
        <time>2021-06-26T12:39:36Z</time>
      </trkpt>
      <trkpt lat="46.16816" lon="6.27123">
        <ele>473.4</ele>
        <time>2021-06-26T12:39:37Z</time>
      </trkpt>
      <trkpt lat="46.16809" lon="6.2712">
        <ele>473.4</ele>
        <time>2021-06-26T12:39:38Z</time>
      </trkpt>
      <trkpt lat="46.16803" lon="6.27117">
        <ele>473.4</ele>
        <time>2021-06-26T12:39:39Z</time>
      </trkpt>
      <trkpt lat="46.16796" lon="6.27115">
        <ele>473.4</ele>
        <time>2021-06-26T12:39:40Z</time>
      </trkpt>
      <trkpt lat="46.1679" lon="6.27113">
        <ele>473.4</ele>
        <time>2021-06-26T12:39:41Z</time>
      </trkpt>
      <trkpt lat="46.16784" lon="6.27111">
        <ele>473.6</ele>
        <time>2021-06-26T12:39:42Z</time>
      </trkpt>
      <trkpt lat="46.16778" lon="6.27108">
        <ele>473.6</ele>
        <time>2021-06-26T12:39:43Z</time>
      </trkpt>
      <trkpt lat="46.16774" lon="6.27105">
        <ele>473.6</ele>
        <time>2021-06-26T12:39:44Z</time>
      </trkpt>
      <trkpt lat="46.1677" lon="6.27101">
        <ele>473.6</ele>
        <time>2021-06-26T12:39:45Z</time>
      </trkpt>
      <trkpt lat="46.16767" lon="6.27097">
        <ele>473.8</ele>
        <time>2021-06-26T12:39:46Z</time>
      </trkpt>
      <trkpt lat="46.16764" lon="6.27093">
        <ele>473.8</ele>
        <time>2021-06-26T12:39:47Z</time>
      </trkpt>
      <trkpt lat="46.16762" lon="6.27089">
        <ele>474.2</ele>
        <time>2021-06-26T12:39:48Z</time>
      </trkpt>
      <trkpt lat="46.1676" lon="6.27086">
        <ele>474.4</ele>
        <time>2021-06-26T12:39:49Z</time>
      </trkpt>
      <trkpt lat="46.16759" lon="6.27083">
        <ele>474.8</ele>
        <time>2021-06-26T12:39:50Z</time>
      </trkpt>
      <trkpt lat="46.16757" lon="6.2708">
        <ele>475.2</ele>
        <time>2021-06-26T12:39:51Z</time>
      </trkpt>
      <trkpt lat="46.16755" lon="6.27077">
        <ele>475.8</ele>
        <time>2021-06-26T12:39:52Z</time>
      </trkpt>
      <trkpt lat="46.16753" lon="6.27074">
        <ele>476</ele>
        <time>2021-06-26T12:39:53Z</time>
      </trkpt>
      <trkpt lat="46.16751" lon="6.27071">
        <ele>476.6</ele>
        <time>2021-06-26T12:39:54Z</time>
      </trkpt>
      <trkpt lat="46.16749" lon="6.27068">
        <ele>477</ele>
        <time>2021-06-26T12:39:55Z</time>
      </trkpt>
      <trkpt lat="46.16746" lon="6.27066">
        <ele>477.4</ele>
        <time>2021-06-26T12:39:56Z</time>
      </trkpt>
      <trkpt lat="46.16744" lon="6.27064">
        <ele>477.8</ele>
        <time>2021-06-26T12:39:57Z</time>
      </trkpt>
      <trkpt lat="46.16742" lon="6.27061">
        <ele>478.4</ele>
        <time>2021-06-26T12:39:58Z</time>
      </trkpt>
      <trkpt lat="46.1674" lon="6.27059">
        <ele>478.8</ele>
        <time>2021-06-26T12:39:59Z</time>
      </trkpt>
      <trkpt lat="46.16738" lon="6.27057">
        <ele>479.2</ele>
        <time>2021-06-26T12:40:00Z</time>
      </trkpt>
      <trkpt lat="46.16736" lon="6.27054">
        <ele>479.6</ele>
        <time>2021-06-26T12:40:01Z</time>
      </trkpt>
      <trkpt lat="46.16734" lon="6.27052">
        <ele>480</ele>
        <time>2021-06-26T12:40:02Z</time>
      </trkpt>
      <trkpt lat="46.16732" lon="6.2705">
        <ele>480.2</ele>
        <time>2021-06-26T12:40:03Z</time>
      </trkpt>
      <trkpt lat="46.1673" lon="6.27047">
        <ele>480.8</ele>
        <time>2021-06-26T12:40:04Z</time>
      </trkpt>
      <trkpt lat="46.16729" lon="6.27044">
        <ele>481.2</ele>
        <time>2021-06-26T12:40:05Z</time>
      </trkpt>
      <trkpt lat="46.16728" lon="6.27039">
        <ele>481.2</ele>
        <time>2021-06-26T12:40:06Z</time>
      </trkpt>
      <trkpt lat="46.16727" lon="6.27035">
        <ele>481.6</ele>
        <time>2021-06-26T12:40:07Z</time>
      </trkpt>
      <trkpt lat="46.16726" lon="6.27031">
        <ele>482</ele>
        <time>2021-06-26T12:40:08Z</time>
      </trkpt>
      <trkpt lat="46.16726" lon="6.27027">
        <ele>482.4</ele>
        <time>2021-06-26T12:40:09Z</time>
      </trkpt>
      <trkpt lat="46.16727" lon="6.27023">
        <ele>482.6</ele>
        <time>2021-06-26T12:40:10Z</time>
      </trkpt>
      <trkpt lat="46.16728" lon="6.27019">
        <ele>483.2</ele>
        <time>2021-06-26T12:40:11Z</time>
      </trkpt>
      <trkpt lat="46.16728" lon="6.27015">
        <ele>483.4</ele>
        <time>2021-06-26T12:40:12Z</time>
      </trkpt>
      <trkpt lat="46.16729" lon="6.27012">
        <ele>483.8</ele>
        <time>2021-06-26T12:40:13Z</time>
      </trkpt>
      <trkpt lat="46.16731" lon="6.27008">
        <ele>484</ele>
        <time>2021-06-26T12:40:14Z</time>
      </trkpt>
      <trkpt lat="46.16732" lon="6.27005">
        <ele>484.2</ele>
        <time>2021-06-26T12:40:15Z</time>
      </trkpt>
      <trkpt lat="46.16733" lon="6.27001">
        <ele>484.4</ele>
        <time>2021-06-26T12:40:16Z</time>
      </trkpt>
      <trkpt lat="46.16735" lon="6.26997">
        <ele>484.8</ele>
        <time>2021-06-26T12:40:17Z</time>
      </trkpt>
      <trkpt lat="46.16736" lon="6.26994">
        <ele>485.2</ele>
        <time>2021-06-26T12:40:18Z</time>
      </trkpt>
      <trkpt lat="46.16737" lon="6.2699">
        <ele>485.6</ele>
        <time>2021-06-26T12:40:19Z</time>
      </trkpt>
      <trkpt lat="46.16739" lon="6.26987">
        <ele>485.8</ele>
        <time>2021-06-26T12:40:20Z</time>
      </trkpt>
      <trkpt lat="46.16741" lon="6.26984">
        <ele>485.8</ele>
        <time>2021-06-26T12:40:21Z</time>
      </trkpt>
      <trkpt lat="46.16743" lon="6.26981">
        <ele>486</ele>
        <time>2021-06-26T12:40:22Z</time>
      </trkpt>
      <trkpt lat="46.16745" lon="6.26979">
        <ele>486.2</ele>
        <time>2021-06-26T12:40:23Z</time>
      </trkpt>
      <trkpt lat="46.16748" lon="6.26976">
        <ele>486.6</ele>
        <time>2021-06-26T12:40:24Z</time>
      </trkpt>
      <trkpt lat="46.1675" lon="6.26974">
        <ele>486.6</ele>
        <time>2021-06-26T12:40:25Z</time>
      </trkpt>
      <trkpt lat="46.16752" lon="6.26972">
        <ele>486.6</ele>
        <time>2021-06-26T12:40:26Z</time>
      </trkpt>
      <trkpt lat="46.16755" lon="6.2697">
        <ele>486.8</ele>
        <time>2021-06-26T12:40:27Z</time>
      </trkpt>
      <trkpt lat="46.16757" lon="6.26968">
        <ele>486.8</ele>
        <time>2021-06-26T12:40:28Z</time>
      </trkpt>
      <trkpt lat="46.1676" lon="6.26965">
        <ele>487</ele>
        <time>2021-06-26T12:40:29Z</time>
      </trkpt>
      <trkpt lat="46.16762" lon="6.26963">
        <ele>487.2</ele>
        <time>2021-06-26T12:40:30Z</time>
      </trkpt>
      <trkpt lat="46.16765" lon="6.2696">
        <ele>487.4</ele>
        <time>2021-06-26T12:40:31Z</time>
      </trkpt>
      <trkpt lat="46.16767" lon="6.26958">
        <ele>487.6</ele>
        <time>2021-06-26T12:40:32Z</time>
      </trkpt>
      <trkpt lat="46.16769" lon="6.26955">
        <ele>487.8</ele>
        <time>2021-06-26T12:40:33Z</time>
      </trkpt>
      <trkpt lat="46.16772" lon="6.26953">
        <ele>488</ele>
        <time>2021-06-26T12:40:34Z</time>
      </trkpt>
      <trkpt lat="46.16774" lon="6.26951">
        <ele>488.2</ele>
        <time>2021-06-26T12:40:35Z</time>
      </trkpt>
      <trkpt lat="46.16776" lon="6.26948">
        <ele>488.4</ele>
        <time>2021-06-26T12:40:36Z</time>
      </trkpt>
      <trkpt lat="46.16778" lon="6.26946">
        <ele>488.6</ele>
        <time>2021-06-26T12:40:37Z</time>
      </trkpt>
      <trkpt lat="46.16781" lon="6.26944">
        <ele>488.6</ele>
        <time>2021-06-26T12:40:38Z</time>
      </trkpt>
      <trkpt lat="46.16783" lon="6.26942">
        <ele>489</ele>
        <time>2021-06-26T12:40:39Z</time>
      </trkpt>
      <trkpt lat="46.16785" lon="6.26939">
        <ele>489.2</ele>
        <time>2021-06-26T12:40:40Z</time>
      </trkpt>
      <trkpt lat="46.16788" lon="6.26937">
        <ele>489.4</ele>
        <time>2021-06-26T12:40:41Z</time>
      </trkpt>
      <trkpt lat="46.1679" lon="6.26935">
        <ele>489.8</ele>
        <time>2021-06-26T12:40:42Z</time>
      </trkpt>
      <trkpt lat="46.16793" lon="6.26933">
        <ele>489.6</ele>
        <time>2021-06-26T12:40:43Z</time>
      </trkpt>
      <trkpt lat="46.16796" lon="6.26931">
        <ele>490</ele>
        <time>2021-06-26T12:40:44Z</time>
      </trkpt>
      <trkpt lat="46.16798" lon="6.26929">
        <ele>490</ele>
        <time>2021-06-26T12:40:45Z</time>
      </trkpt>
      <trkpt lat="46.16801" lon="6.26927">
        <ele>490.4</ele>
        <time>2021-06-26T12:40:46Z</time>
      </trkpt>
      <trkpt lat="46.16803" lon="6.26925">
        <ele>490.8</ele>
        <time>2021-06-26T12:40:47Z</time>
      </trkpt>
      <trkpt lat="46.16806" lon="6.26923">
        <ele>491</ele>
        <time>2021-06-26T12:40:48Z</time>
      </trkpt>
      <trkpt lat="46.16808" lon="6.26922">
        <ele>491.2</ele>
        <time>2021-06-26T12:40:49Z</time>
      </trkpt>
      <trkpt lat="46.1681" lon="6.2692">
        <ele>491.4</ele>
        <time>2021-06-26T12:40:50Z</time>
      </trkpt>
      <trkpt lat="46.16812" lon="6.26918">
        <ele>491.4</ele>
        <time>2021-06-26T12:40:51Z</time>
      </trkpt>
      <trkpt lat="46.16814" lon="6.26916">
        <ele>491.4</ele>
        <time>2021-06-26T12:40:52Z</time>
      </trkpt>
      <trkpt lat="46.16816" lon="6.26914">
        <ele>491.8</ele>
        <time>2021-06-26T12:40:53Z</time>
      </trkpt>
      <trkpt lat="46.16818" lon="6.26912">
        <ele>491.8</ele>
        <time>2021-06-26T12:40:54Z</time>
      </trkpt>
      <trkpt lat="46.1682" lon="6.26909">
        <ele>492</ele>
        <time>2021-06-26T12:40:55Z</time>
      </trkpt>
      <trkpt lat="46.16822" lon="6.26907">
        <ele>492.2</ele>
        <time>2021-06-26T12:40:56Z</time>
      </trkpt>
      <trkpt lat="46.16824" lon="6.26906">
        <ele>492.2</ele>
        <time>2021-06-26T12:40:57Z</time>
      </trkpt>
      <trkpt lat="46.16827" lon="6.26904">
        <ele>492.6</ele>
        <time>2021-06-26T12:40:58Z</time>
      </trkpt>
      <trkpt lat="46.16829" lon="6.26902">
        <ele>492.8</ele>
        <time>2021-06-26T12:40:59Z</time>
      </trkpt>
      <trkpt lat="46.16831" lon="6.26901">
        <ele>493.2</ele>
        <time>2021-06-26T12:41:00Z</time>
      </trkpt>
      <trkpt lat="46.16834" lon="6.26898">
        <ele>493.4</ele>
        <time>2021-06-26T12:41:01Z</time>
      </trkpt>
      <trkpt lat="46.16836" lon="6.26896">
        <ele>493.8</ele>
        <time>2021-06-26T12:41:02Z</time>
      </trkpt>
      <trkpt lat="46.16839" lon="6.26894">
        <ele>494</ele>
        <time>2021-06-26T12:41:03Z</time>
      </trkpt>
      <trkpt lat="46.16842" lon="6.26891">
        <ele>494</ele>
        <time>2021-06-26T12:41:04Z</time>
      </trkpt>
      <trkpt lat="46.16845" lon="6.26889">
        <ele>494</ele>
        <time>2021-06-26T12:41:05Z</time>
      </trkpt>
      <trkpt lat="46.16848" lon="6.26887">
        <ele>494.4</ele>
        <time>2021-06-26T12:41:06Z</time>
      </trkpt>
      <trkpt lat="46.1685" lon="6.26884">
        <ele>494.6</ele>
        <time>2021-06-26T12:41:07Z</time>
      </trkpt>
      <trkpt lat="46.16853" lon="6.26882">
        <ele>494.8</ele>
        <time>2021-06-26T12:41:08Z</time>
      </trkpt>
      <trkpt lat="46.16855" lon="6.26879">
        <ele>495.2</ele>
        <time>2021-06-26T12:41:09Z</time>
      </trkpt>
      <trkpt lat="46.16858" lon="6.26876">
        <ele>495.4</ele>
        <time>2021-06-26T12:41:10Z</time>
      </trkpt>
      <trkpt lat="46.1686" lon="6.26873">
        <ele>495.6</ele>
        <time>2021-06-26T12:41:11Z</time>
      </trkpt>
      <trkpt lat="46.16863" lon="6.2687">
        <ele>495.8</ele>
        <time>2021-06-26T12:41:12Z</time>
      </trkpt>
      <trkpt lat="46.16866" lon="6.26866">
        <ele>495.8</ele>
        <time>2021-06-26T12:41:13Z</time>
      </trkpt>
      <trkpt lat="46.16868" lon="6.26863">
        <ele>496.4</ele>
        <time>2021-06-26T12:41:14Z</time>
      </trkpt>
      <trkpt lat="46.16871" lon="6.26859">
        <ele>496.6</ele>
        <time>2021-06-26T12:41:15Z</time>
      </trkpt>
      <trkpt lat="46.16873" lon="6.26856">
        <ele>496.6</ele>
        <time>2021-06-26T12:41:16Z</time>
      </trkpt>
      <trkpt lat="46.16875" lon="6.26852">
        <ele>496.8</ele>
        <time>2021-06-26T12:41:17Z</time>
      </trkpt>
      <trkpt lat="46.16878" lon="6.26849">
        <ele>497.2</ele>
        <time>2021-06-26T12:41:18Z</time>
      </trkpt>
      <trkpt lat="46.16881" lon="6.26845">
        <ele>497.2</ele>
        <time>2021-06-26T12:41:19Z</time>
      </trkpt>
      <trkpt lat="46.16883" lon="6.26841">
        <ele>497.2</ele>
        <time>2021-06-26T12:41:20Z</time>
      </trkpt>
      <trkpt lat="46.16885" lon="6.26837">
        <ele>497.6</ele>
        <time>2021-06-26T12:41:21Z</time>
      </trkpt>
      <trkpt lat="46.16887" lon="6.26833">
        <ele>497.6</ele>
        <time>2021-06-26T12:41:22Z</time>
      </trkpt>
      <trkpt lat="46.16889" lon="6.26829">
        <ele>497.8</ele>
        <time>2021-06-26T12:41:23Z</time>
      </trkpt>
      <trkpt lat="46.16891" lon="6.26825">
        <ele>498</ele>
        <time>2021-06-26T12:41:24Z</time>
      </trkpt>
      <trkpt lat="46.16893" lon="6.2682">
        <ele>498.2</ele>
        <time>2021-06-26T12:41:25Z</time>
      </trkpt>
      <trkpt lat="46.16895" lon="6.26816">
        <ele>498.2</ele>
        <time>2021-06-26T12:41:26Z</time>
      </trkpt>
      <trkpt lat="46.16897" lon="6.26811">
        <ele>498.6</ele>
        <time>2021-06-26T12:41:27Z</time>
      </trkpt>
      <trkpt lat="46.16899" lon="6.26806">
        <ele>498.4</ele>
        <time>2021-06-26T12:41:28Z</time>
      </trkpt>
      <trkpt lat="46.169" lon="6.26801">
        <ele>498.6</ele>
        <time>2021-06-26T12:41:29Z</time>
      </trkpt>
      <trkpt lat="46.16902" lon="6.26796">
        <ele>499</ele>
        <time>2021-06-26T12:41:30Z</time>
      </trkpt>
      <trkpt lat="46.16903" lon="6.26791">
        <ele>499</ele>
        <time>2021-06-26T12:41:31Z</time>
      </trkpt>
      <trkpt lat="46.16905" lon="6.26786">
        <ele>499.2</ele>
        <time>2021-06-26T12:41:32Z</time>
      </trkpt>
      <trkpt lat="46.16906" lon="6.26781">
        <ele>499.4</ele>
        <time>2021-06-26T12:41:33Z</time>
      </trkpt>
      <trkpt lat="46.16907" lon="6.26775">
        <ele>499.4</ele>
        <time>2021-06-26T12:41:34Z</time>
      </trkpt>
      <trkpt lat="46.16908" lon="6.26769">
        <ele>499.6</ele>
        <time>2021-06-26T12:41:35Z</time>
      </trkpt>
      <trkpt lat="46.16909" lon="6.26763">
        <ele>499.6</ele>
        <time>2021-06-26T12:41:36Z</time>
      </trkpt>
      <trkpt lat="46.16909" lon="6.26757">
        <ele>499.6</ele>
        <time>2021-06-26T12:41:37Z</time>
      </trkpt>
      <trkpt lat="46.1691" lon="6.26751">
        <ele>499.8</ele>
        <time>2021-06-26T12:41:38Z</time>
      </trkpt>
      <trkpt lat="46.16911" lon="6.26745">
        <ele>499.8</ele>
        <time>2021-06-26T12:41:39Z</time>
      </trkpt>
      <trkpt lat="46.16912" lon="6.26739">
        <ele>500</ele>
        <time>2021-06-26T12:41:40Z</time>
      </trkpt>
      <trkpt lat="46.16912" lon="6.26733">
        <ele>500</ele>
        <time>2021-06-26T12:41:41Z</time>
      </trkpt>
      <trkpt lat="46.16912" lon="6.26728">
        <ele>500</ele>
        <time>2021-06-26T12:41:42Z</time>
      </trkpt>
      <trkpt lat="46.16913" lon="6.26723">
        <ele>500.2</ele>
        <time>2021-06-26T12:41:43Z</time>
      </trkpt>
      <trkpt lat="46.16914" lon="6.26718">
        <ele>500.2</ele>
        <time>2021-06-26T12:41:44Z</time>
      </trkpt>
      <trkpt lat="46.16915" lon="6.26714">
        <ele>500.2</ele>
        <time>2021-06-26T12:41:45Z</time>
      </trkpt>
      <trkpt lat="46.16925" lon="6.26684">
        <ele>500.4</ele>
        <time>2021-06-26T12:41:50Z</time>
      </trkpt>
      <trkpt lat="46.16927" lon="6.26678">
        <ele>500.4</ele>
        <time>2021-06-26T12:41:51Z</time>
      </trkpt>
      <trkpt lat="46.16946" lon="6.26642">
        <ele>500.4</ele>
        <time>2021-06-26T12:41:57Z</time>
      </trkpt>
      <trkpt lat="46.16963" lon="6.26612">
        <ele>500.6</ele>
        <time>2021-06-26T12:42:02Z</time>
      </trkpt>
      <trkpt lat="46.1697" lon="6.266">
        <ele>500.6</ele>
        <time>2021-06-26T12:42:04Z</time>
      </trkpt>
      <trkpt lat="46.16977" lon="6.26589">
        <ele>500.6</ele>
        <time>2021-06-26T12:42:06Z</time>
      </trkpt>
      <trkpt lat="46.16981" lon="6.26584">
        <ele>500.6</ele>
        <time>2021-06-26T12:42:07Z</time>
      </trkpt>
      <trkpt lat="46.16991" lon="6.26569">
        <ele>500.8</ele>
        <time>2021-06-26T12:42:10Z</time>
      </trkpt>
      <trkpt lat="46.16995" lon="6.26563">
        <ele>500.8</ele>
        <time>2021-06-26T12:42:11Z</time>
      </trkpt>
      <trkpt lat="46.16998" lon="6.26558">
        <ele>501</ele>
        <time>2021-06-26T12:42:12Z</time>
      </trkpt>
      <trkpt lat="46.17" lon="6.26553">
        <ele>500.8</ele>
        <time>2021-06-26T12:42:13Z</time>
      </trkpt>
      <trkpt lat="46.17003" lon="6.26548">
        <ele>501</ele>
        <time>2021-06-26T12:42:14Z</time>
      </trkpt>
      <trkpt lat="46.17006" lon="6.26543">
        <ele>500.8</ele>
        <time>2021-06-26T12:42:15Z</time>
      </trkpt>
      <trkpt lat="46.17009" lon="6.26538">
        <ele>501</ele>
        <time>2021-06-26T12:42:16Z</time>
      </trkpt>
      <trkpt lat="46.17011" lon="6.26534">
        <ele>501</ele>
        <time>2021-06-26T12:42:17Z</time>
      </trkpt>
      <trkpt lat="46.17014" lon="6.2653">
        <ele>501.2</ele>
        <time>2021-06-26T12:42:18Z</time>
      </trkpt>
      <trkpt lat="46.17016" lon="6.26525">
        <ele>501.6</ele>
        <time>2021-06-26T12:42:19Z</time>
      </trkpt>
      <trkpt lat="46.17019" lon="6.26522">
        <ele>501.8</ele>
        <time>2021-06-26T12:42:20Z</time>
      </trkpt>
      <trkpt lat="46.1702" lon="6.26518">
        <ele>501.8</ele>
        <time>2021-06-26T12:42:21Z</time>
      </trkpt>
      <trkpt lat="46.17022" lon="6.26515">
        <ele>502.2</ele>
        <time>2021-06-26T12:42:22Z</time>
      </trkpt>
      <trkpt lat="46.17024" lon="6.26512">
        <ele>502.6</ele>
        <time>2021-06-26T12:42:23Z</time>
      </trkpt>
      <trkpt lat="46.17026" lon="6.26509">
        <ele>503</ele>
        <time>2021-06-26T12:42:24Z</time>
      </trkpt>
      <trkpt lat="46.17027" lon="6.26506">
        <ele>503.2</ele>
        <time>2021-06-26T12:42:25Z</time>
      </trkpt>
      <trkpt lat="46.17029" lon="6.26502">
        <ele>503.6</ele>
        <time>2021-06-26T12:42:26Z</time>
      </trkpt>
      <trkpt lat="46.17031" lon="6.26498">
        <ele>504</ele>
        <time>2021-06-26T12:42:27Z</time>
      </trkpt>
      <trkpt lat="46.17033" lon="6.26495">
        <ele>504.4</ele>
        <time>2021-06-26T12:42:28Z</time>
      </trkpt>
      <trkpt lat="46.17035" lon="6.26491">
        <ele>504.8</ele>
        <time>2021-06-26T12:42:29Z</time>
      </trkpt>
      <trkpt lat="46.17037" lon="6.26488">
        <ele>505.2</ele>
        <time>2021-06-26T12:42:30Z</time>
      </trkpt>
      <trkpt lat="46.17039" lon="6.26484">
        <ele>505.6</ele>
        <time>2021-06-26T12:42:31Z</time>
      </trkpt>
      <trkpt lat="46.17041" lon="6.26481">
        <ele>505.8</ele>
        <time>2021-06-26T12:42:32Z</time>
      </trkpt>
      <trkpt lat="46.17042" lon="6.26478">
        <ele>506.2</ele>
        <time>2021-06-26T12:42:33Z</time>
      </trkpt>
      <trkpt lat="46.17044" lon="6.26474">
        <ele>506.4</ele>
        <time>2021-06-26T12:42:34Z</time>
      </trkpt>
      <trkpt lat="46.17046" lon="6.26471">
        <ele>506.6</ele>
        <time>2021-06-26T12:42:35Z</time>
      </trkpt>
      <trkpt lat="46.17049" lon="6.26467">
        <ele>506.8</ele>
        <time>2021-06-26T12:42:36Z</time>
      </trkpt>
      <trkpt lat="46.17051" lon="6.26463">
        <ele>507</ele>
        <time>2021-06-26T12:42:37Z</time>
      </trkpt>
      <trkpt lat="46.17053" lon="6.26459">
        <ele>507.6</ele>
        <time>2021-06-26T12:42:38Z</time>
      </trkpt>
      <trkpt lat="46.17054" lon="6.26456">
        <ele>507.8</ele>
        <time>2021-06-26T12:42:39Z</time>
      </trkpt>
      <trkpt lat="46.17057" lon="6.26452">
        <ele>508.2</ele>
        <time>2021-06-26T12:42:40Z</time>
      </trkpt>
      <trkpt lat="46.17059" lon="6.26448">
        <ele>508.4</ele>
        <time>2021-06-26T12:42:41Z</time>
      </trkpt>
      <trkpt lat="46.17061" lon="6.26445">
        <ele>508.6</ele>
        <time>2021-06-26T12:42:42Z</time>
      </trkpt>
      <trkpt lat="46.17063" lon="6.26441">
        <ele>508.6</ele>
        <time>2021-06-26T12:42:43Z</time>
      </trkpt>
      <trkpt lat="46.17066" lon="6.26437">
        <ele>508.8</ele>
        <time>2021-06-26T12:42:44Z</time>
      </trkpt>
      <trkpt lat="46.17068" lon="6.26434">
        <ele>508.8</ele>
        <time>2021-06-26T12:42:45Z</time>
      </trkpt>
      <trkpt lat="46.17071" lon="6.2643">
        <ele>509.2</ele>
        <time>2021-06-26T12:42:46Z</time>
      </trkpt>
      <trkpt lat="46.17073" lon="6.26427">
        <ele>509.4</ele>
        <time>2021-06-26T12:42:47Z</time>
      </trkpt>
      <trkpt lat="46.17075" lon="6.26423">
        <ele>509.6</ele>
        <time>2021-06-26T12:42:48Z</time>
      </trkpt>
      <trkpt lat="46.17078" lon="6.26419">
        <ele>509.6</ele>
        <time>2021-06-26T12:42:49Z</time>
      </trkpt>
      <trkpt lat="46.1708" lon="6.26415">
        <ele>509.8</ele>
        <time>2021-06-26T12:42:50Z</time>
      </trkpt>
      <trkpt lat="46.17082" lon="6.26412">
        <ele>509.8</ele>
        <time>2021-06-26T12:42:51Z</time>
      </trkpt>
      <trkpt lat="46.17084" lon="6.26408">
        <ele>510</ele>
        <time>2021-06-26T12:42:52Z</time>
      </trkpt>
      <trkpt lat="46.17087" lon="6.26404">
        <ele>510.4</ele>
        <time>2021-06-26T12:42:53Z</time>
      </trkpt>
      <trkpt lat="46.17089" lon="6.264">
        <ele>510.6</ele>
        <time>2021-06-26T12:42:54Z</time>
      </trkpt>
      <trkpt lat="46.17092" lon="6.26397">
        <ele>510.8</ele>
        <time>2021-06-26T12:42:55Z</time>
      </trkpt>
      <trkpt lat="46.17093" lon="6.26393">
        <ele>511</ele>
        <time>2021-06-26T12:42:56Z</time>
      </trkpt>
      <trkpt lat="46.17095" lon="6.2639">
        <ele>511</ele>
        <time>2021-06-26T12:42:57Z</time>
      </trkpt>
      <trkpt lat="46.17097" lon="6.26386">
        <ele>511.4</ele>
        <time>2021-06-26T12:42:58Z</time>
      </trkpt>
      <trkpt lat="46.171" lon="6.26382">
        <ele>511.4</ele>
        <time>2021-06-26T12:42:59Z</time>
      </trkpt>
      <trkpt lat="46.17102" lon="6.26378">
        <ele>511.4</ele>
        <time>2021-06-26T12:43:00Z</time>
      </trkpt>
      <trkpt lat="46.17105" lon="6.26374">
        <ele>511.4</ele>
        <time>2021-06-26T12:43:01Z</time>
      </trkpt>
      <trkpt lat="46.17107" lon="6.26369">
        <ele>511.4</ele>
        <time>2021-06-26T12:43:02Z</time>
      </trkpt>
      <trkpt lat="46.1711" lon="6.26365">
        <ele>511.6</ele>
        <time>2021-06-26T12:43:03Z</time>
      </trkpt>
      <trkpt lat="46.17112" lon="6.2636">
        <ele>511.8</ele>
        <time>2021-06-26T12:43:04Z</time>
      </trkpt>
      <trkpt lat="46.17115" lon="6.26356">
        <ele>511.8</ele>
        <time>2021-06-26T12:43:05Z</time>
      </trkpt>
      <trkpt lat="46.17118" lon="6.26351">
        <ele>511.8</ele>
        <time>2021-06-26T12:43:06Z</time>
      </trkpt>
      <trkpt lat="46.17121" lon="6.26347">
        <ele>512</ele>
        <time>2021-06-26T12:43:07Z</time>
      </trkpt>
      <trkpt lat="46.17123" lon="6.26343">
        <ele>512.2</ele>
        <time>2021-06-26T12:43:08Z</time>
      </trkpt>
      <trkpt lat="46.17126" lon="6.26339">
        <ele>512.2</ele>
        <time>2021-06-26T12:43:09Z</time>
      </trkpt>
      <trkpt lat="46.17129" lon="6.26334">
        <ele>512.2</ele>
        <time>2021-06-26T12:43:10Z</time>
      </trkpt>
      <trkpt lat="46.1715" lon="6.26298">
        <ele>512.4</ele>
        <time>2021-06-26T12:43:17Z</time>
      </trkpt>
      <trkpt lat="46.17181" lon="6.2625">
        <ele>512.8</ele>
        <time>2021-06-26T12:43:26Z</time>
      </trkpt>
      <trkpt lat="46.17194" lon="6.26226">
        <ele>513.2</ele>
        <time>2021-06-26T12:43:30Z</time>
      </trkpt>
      <trkpt lat="46.17197" lon="6.2622">
        <ele>513.2</ele>
        <time>2021-06-26T12:43:31Z</time>
      </trkpt>
      <trkpt lat="46.172" lon="6.26214">
        <ele>513.4</ele>
        <time>2021-06-26T12:43:32Z</time>
      </trkpt>
      <trkpt lat="46.17202" lon="6.26208">
        <ele>513.4</ele>
        <time>2021-06-26T12:43:33Z</time>
      </trkpt>
      <trkpt lat="46.1722" lon="6.2618">
        <ele>513.8</ele>
        <time>2021-06-26T12:43:38Z</time>
      </trkpt>
      <trkpt lat="46.17228" lon="6.26167">
        <ele>513.8</ele>
        <time>2021-06-26T12:43:40Z</time>
      </trkpt>
      <trkpt lat="46.17244" lon="6.26142">
        <ele>513.6</ele>
        <time>2021-06-26T12:43:44Z</time>
      </trkpt>
      <trkpt lat="46.17259" lon="6.26115">
        <ele>513.8</ele>
        <time>2021-06-26T12:43:48Z</time>
      </trkpt>
      <trkpt lat="46.17262" lon="6.26108">
        <ele>513.6</ele>
        <time>2021-06-26T12:43:49Z</time>
      </trkpt>
      <trkpt lat="46.17263" lon="6.26102">
        <ele>513.6</ele>
        <time>2021-06-26T12:43:50Z</time>
      </trkpt>
      <trkpt lat="46.17265" lon="6.26097">
        <ele>513.4</ele>
        <time>2021-06-26T12:43:51Z</time>
      </trkpt>
      <trkpt lat="46.17267" lon="6.26094">
        <ele>513.4</ele>
        <time>2021-06-26T12:43:52Z</time>
      </trkpt>
      <trkpt lat="46.17269" lon="6.26092">
        <ele>513.2</ele>
        <time>2021-06-26T12:43:53Z</time>
      </trkpt>
      <trkpt lat="46.1727" lon="6.2609">
        <ele>513</ele>
        <time>2021-06-26T12:43:54Z</time>
      </trkpt>
      <trkpt lat="46.17272" lon="6.26089">
        <ele>512.6</ele>
        <time>2021-06-26T12:43:55Z</time>
      </trkpt>
      <trkpt lat="46.17273" lon="6.26088">
        <ele>512.4</ele>
        <time>2021-06-26T12:43:56Z</time>
      </trkpt>
      <trkpt lat="46.17278" lon="6.26076">
        <ele>512</ele>
        <time>2021-06-26T12:43:59Z</time>
      </trkpt>
      <trkpt lat="46.17281" lon="6.26071">
        <ele>511.8</ele>
        <time>2021-06-26T12:44:00Z</time>
      </trkpt>
      <trkpt lat="46.17283" lon="6.26065">
        <ele>512</ele>
        <time>2021-06-26T12:44:01Z</time>
      </trkpt>
      <trkpt lat="46.17287" lon="6.26059">
        <ele>511.6</ele>
        <time>2021-06-26T12:44:02Z</time>
      </trkpt>
      <trkpt lat="46.17292" lon="6.26053">
        <ele>511.8</ele>
        <time>2021-06-26T12:44:03Z</time>
      </trkpt>
      <trkpt lat="46.17296" lon="6.26047">
        <ele>511.6</ele>
        <time>2021-06-26T12:44:04Z</time>
      </trkpt>
      <trkpt lat="46.17304" lon="6.26033">
        <ele>510.8</ele>
        <time>2021-06-26T12:44:06Z</time>
      </trkpt>
      <trkpt lat="46.17315" lon="6.2601">
        <ele>509.6</ele>
        <time>2021-06-26T12:44:09Z</time>
      </trkpt>
      <trkpt lat="46.17319" lon="6.26002">
        <ele>509</ele>
        <time>2021-06-26T12:44:10Z</time>
      </trkpt>
      <trkpt lat="46.17326" lon="6.25986">
        <ele>508</ele>
        <time>2021-06-26T12:44:12Z</time>
      </trkpt>
      <trkpt lat="46.1733" lon="6.25978">
        <ele>508</ele>
        <time>2021-06-26T12:44:13Z</time>
      </trkpt>
      <trkpt lat="46.17334" lon="6.25971">
        <ele>507.6</ele>
        <time>2021-06-26T12:44:14Z</time>
      </trkpt>
      <trkpt lat="46.17338" lon="6.25963">
        <ele>507.4</ele>
        <time>2021-06-26T12:44:15Z</time>
      </trkpt>
      <trkpt lat="46.17341" lon="6.25956">
        <ele>507.4</ele>
        <time>2021-06-26T12:44:16Z</time>
      </trkpt>
      <trkpt lat="46.17347" lon="6.2594">
        <ele>507.2</ele>
        <time>2021-06-26T12:44:18Z</time>
      </trkpt>
      <trkpt lat="46.17354" lon="6.25924">
        <ele>507.2</ele>
        <time>2021-06-26T12:44:20Z</time>
      </trkpt>
      <trkpt lat="46.17357" lon="6.25916">
        <ele>507.2</ele>
        <time>2021-06-26T12:44:21Z</time>
      </trkpt>
      <trkpt lat="46.1736" lon="6.25909">
        <ele>507.4</ele>
        <time>2021-06-26T12:44:22Z</time>
      </trkpt>
      <trkpt lat="46.17363" lon="6.25901">
        <ele>507.2</ele>
        <time>2021-06-26T12:44:23Z</time>
      </trkpt>
      <trkpt lat="46.17366" lon="6.25894">
        <ele>507.4</ele>
        <time>2021-06-26T12:44:24Z</time>
      </trkpt>
      <trkpt lat="46.1737" lon="6.25887">
        <ele>507.4</ele>
        <time>2021-06-26T12:44:25Z</time>
      </trkpt>
      <trkpt lat="46.17373" lon="6.25881">
        <ele>507.6</ele>
        <time>2021-06-26T12:44:26Z</time>
      </trkpt>
      <trkpt lat="46.17377" lon="6.25876">
        <ele>507.8</ele>
        <time>2021-06-26T12:44:27Z</time>
      </trkpt>
      <trkpt lat="46.17381" lon="6.25871">
        <ele>508</ele>
        <time>2021-06-26T12:44:28Z</time>
      </trkpt>
      <trkpt lat="46.17385" lon="6.25866">
        <ele>508.2</ele>
        <time>2021-06-26T12:44:29Z</time>
      </trkpt>
      <trkpt lat="46.17389" lon="6.25862">
        <ele>508.2</ele>
        <time>2021-06-26T12:44:30Z</time>
      </trkpt>
      <trkpt lat="46.17393" lon="6.25858">
        <ele>508.6</ele>
        <time>2021-06-26T12:44:31Z</time>
      </trkpt>
      <trkpt lat="46.17397" lon="6.25853">
        <ele>509</ele>
        <time>2021-06-26T12:44:32Z</time>
      </trkpt>
      <trkpt lat="46.17401" lon="6.25849">
        <ele>509.2</ele>
        <time>2021-06-26T12:44:33Z</time>
      </trkpt>
      <trkpt lat="46.17404" lon="6.25845">
        <ele>509.2</ele>
        <time>2021-06-26T12:44:34Z</time>
      </trkpt>
      <trkpt lat="46.17408" lon="6.25841">
        <ele>509.2</ele>
        <time>2021-06-26T12:44:35Z</time>
      </trkpt>
      <trkpt lat="46.17411" lon="6.25837">
        <ele>509.4</ele>
        <time>2021-06-26T12:44:36Z</time>
      </trkpt>
      <trkpt lat="46.17414" lon="6.25833">
        <ele>509.4</ele>
        <time>2021-06-26T12:44:37Z</time>
      </trkpt>
      <trkpt lat="46.17417" lon="6.25827">
        <ele>509.4</ele>
        <time>2021-06-26T12:44:38Z</time>
      </trkpt>
      <trkpt lat="46.17419" lon="6.25821">
        <ele>509.6</ele>
        <time>2021-06-26T12:44:39Z</time>
      </trkpt>
      <trkpt lat="46.1742" lon="6.25813">
        <ele>509.6</ele>
        <time>2021-06-26T12:44:40Z</time>
      </trkpt>
      <trkpt lat="46.17421" lon="6.25806">
        <ele>509.8</ele>
        <time>2021-06-26T12:44:41Z</time>
      </trkpt>
      <trkpt lat="46.17422" lon="6.25799">
        <ele>510</ele>
        <time>2021-06-26T12:44:42Z</time>
      </trkpt>
      <trkpt lat="46.17423" lon="6.25792">
        <ele>510.2</ele>
        <time>2021-06-26T12:44:43Z</time>
      </trkpt>
      <trkpt lat="46.17426" lon="6.25787">
        <ele>510.4</ele>
        <time>2021-06-26T12:44:44Z</time>
      </trkpt>
      <trkpt lat="46.1743" lon="6.25783">
        <ele>510.6</ele>
        <time>2021-06-26T12:44:45Z</time>
      </trkpt>
      <trkpt lat="46.17434" lon="6.25778">
        <ele>510.8</ele>
        <time>2021-06-26T12:44:46Z</time>
      </trkpt>
      <trkpt lat="46.17438" lon="6.25774">
        <ele>510.8</ele>
        <time>2021-06-26T12:44:47Z</time>
      </trkpt>
      <trkpt lat="46.17445" lon="6.25763">
        <ele>510.8</ele>
        <time>2021-06-26T12:44:49Z</time>
      </trkpt>
      <trkpt lat="46.1745" lon="6.25758">
        <ele>511</ele>
        <time>2021-06-26T12:44:50Z</time>
      </trkpt>
      <trkpt lat="46.17461" lon="6.25748">
        <ele>510.8</ele>
        <time>2021-06-26T12:44:52Z</time>
      </trkpt>
      <trkpt lat="46.17467" lon="6.25742">
        <ele>511</ele>
        <time>2021-06-26T12:44:53Z</time>
      </trkpt>
      <trkpt lat="46.17486" lon="6.25725">
        <ele>510.8</ele>
        <time>2021-06-26T12:44:56Z</time>
      </trkpt>
      <trkpt lat="46.17507" lon="6.25709">
        <ele>510.4</ele>
        <time>2021-06-26T12:44:59Z</time>
      </trkpt>
      <trkpt lat="46.17514" lon="6.25703">
        <ele>510.2</ele>
        <time>2021-06-26T12:45:00Z</time>
      </trkpt>
      <trkpt lat="46.17529" lon="6.2569">
        <ele>509.4</ele>
        <time>2021-06-26T12:45:02Z</time>
      </trkpt>
      <trkpt lat="46.17543" lon="6.25677">
        <ele>508</ele>
        <time>2021-06-26T12:45:04Z</time>
      </trkpt>
      <trkpt lat="46.17566" lon="6.25659">
        <ele>506.4</ele>
        <time>2021-06-26T12:45:07Z</time>
      </trkpt>
      <trkpt lat="46.17575" lon="6.25654">
        <ele>505.8</ele>
        <time>2021-06-26T12:45:08Z</time>
      </trkpt>
      <trkpt lat="46.17583" lon="6.2565">
        <ele>505.4</ele>
        <time>2021-06-26T12:45:09Z</time>
      </trkpt>
      <trkpt lat="46.17591" lon="6.25645">
        <ele>505</ele>
        <time>2021-06-26T12:45:10Z</time>
      </trkpt>
      <trkpt lat="46.17599" lon="6.25641">
        <ele>504.2</ele>
        <time>2021-06-26T12:45:11Z</time>
      </trkpt>
      <trkpt lat="46.17607" lon="6.25637">
        <ele>503.6</ele>
        <time>2021-06-26T12:45:12Z</time>
      </trkpt>
      <trkpt lat="46.17615" lon="6.25633">
        <ele>502.8</ele>
        <time>2021-06-26T12:45:13Z</time>
      </trkpt>
      <trkpt lat="46.17623" lon="6.25629">
        <ele>502.4</ele>
        <time>2021-06-26T12:45:14Z</time>
      </trkpt>
      <trkpt lat="46.1763" lon="6.25625">
        <ele>502</ele>
        <time>2021-06-26T12:45:15Z</time>
      </trkpt>
      <trkpt lat="46.17646" lon="6.25616">
        <ele>501.6</ele>
        <time>2021-06-26T12:45:17Z</time>
      </trkpt>
      <trkpt lat="46.17653" lon="6.25612">
        <ele>501</ele>
        <time>2021-06-26T12:45:18Z</time>
      </trkpt>
      <trkpt lat="46.17661" lon="6.25608">
        <ele>501</ele>
        <time>2021-06-26T12:45:19Z</time>
      </trkpt>
      <trkpt lat="46.17668" lon="6.25605">
        <ele>501</ele>
        <time>2021-06-26T12:45:20Z</time>
      </trkpt>
      <trkpt lat="46.17676" lon="6.25601">
        <ele>500.6</ele>
        <time>2021-06-26T12:45:21Z</time>
      </trkpt>
      <trkpt lat="46.1769" lon="6.25592">
        <ele>499.8</ele>
        <time>2021-06-26T12:45:23Z</time>
      </trkpt>
      <trkpt lat="46.17713" lon="6.25581">
        <ele>499.2</ele>
        <time>2021-06-26T12:45:26Z</time>
      </trkpt>
      <trkpt lat="46.1772" lon="6.25577">
        <ele>498.8</ele>
        <time>2021-06-26T12:45:27Z</time>
      </trkpt>
      <trkpt lat="46.17772" lon="6.25553">
        <ele>497</ele>
        <time>2021-06-26T12:45:34Z</time>
      </trkpt>
      <trkpt lat="46.17788" lon="6.25551">
        <ele>497</ele>
        <time>2021-06-26T12:45:36Z</time>
      </trkpt>
      <trkpt lat="46.17796" lon="6.2555">
        <ele>496.8</ele>
        <time>2021-06-26T12:45:37Z</time>
      </trkpt>
      <trkpt lat="46.17803" lon="6.2555">
        <ele>496.8</ele>
        <time>2021-06-26T12:45:38Z</time>
      </trkpt>
      <trkpt lat="46.1781" lon="6.25549">
        <ele>496.8</ele>
        <time>2021-06-26T12:45:39Z</time>
      </trkpt>
      <trkpt lat="46.17817" lon="6.25549">
        <ele>496.8</ele>
        <time>2021-06-26T12:45:40Z</time>
      </trkpt>
      <trkpt lat="46.17824" lon="6.25549">
        <ele>496.8</ele>
        <time>2021-06-26T12:45:41Z</time>
      </trkpt>
      <trkpt lat="46.17831" lon="6.25549">
        <ele>496.8</ele>
        <time>2021-06-26T12:45:42Z</time>
      </trkpt>
      <trkpt lat="46.17838" lon="6.2555">
        <ele>496.6</ele>
        <time>2021-06-26T12:45:43Z</time>
      </trkpt>
      <trkpt lat="46.17845" lon="6.25551">
        <ele>496.6</ele>
        <time>2021-06-26T12:45:44Z</time>
      </trkpt>
      <trkpt lat="46.17852" lon="6.25551">
        <ele>496.8</ele>
        <time>2021-06-26T12:45:45Z</time>
      </trkpt>
      <trkpt lat="46.17859" lon="6.25553">
        <ele>496.8</ele>
        <time>2021-06-26T12:45:46Z</time>
      </trkpt>
      <trkpt lat="46.17865" lon="6.25554">
        <ele>496.8</ele>
        <time>2021-06-26T12:45:47Z</time>
      </trkpt>
      <trkpt lat="46.17871" lon="6.25556">
        <ele>497</ele>
        <time>2021-06-26T12:45:48Z</time>
      </trkpt>
      <trkpt lat="46.17877" lon="6.25557">
        <ele>497.2</ele>
        <time>2021-06-26T12:45:49Z</time>
      </trkpt>
      <trkpt lat="46.17883" lon="6.25557">
        <ele>497</ele>
        <time>2021-06-26T12:45:50Z</time>
      </trkpt>
      <trkpt lat="46.17888" lon="6.25557">
        <ele>497.2</ele>
        <time>2021-06-26T12:45:51Z</time>
      </trkpt>
      <trkpt lat="46.17893" lon="6.25557">
        <ele>497.4</ele>
        <time>2021-06-26T12:45:52Z</time>
      </trkpt>
      <trkpt lat="46.17898" lon="6.25557">
        <ele>497.6</ele>
        <time>2021-06-26T12:45:53Z</time>
      </trkpt>
      <trkpt lat="46.17903" lon="6.25557">
        <ele>498</ele>
        <time>2021-06-26T12:45:54Z</time>
      </trkpt>
      <trkpt lat="46.17908" lon="6.25556">
        <ele>498.4</ele>
        <time>2021-06-26T12:45:55Z</time>
      </trkpt>
      <trkpt lat="46.17913" lon="6.25556">
        <ele>498.6</ele>
        <time>2021-06-26T12:45:56Z</time>
      </trkpt>
      <trkpt lat="46.17918" lon="6.25555">
        <ele>499</ele>
        <time>2021-06-26T12:45:57Z</time>
      </trkpt>
      <trkpt lat="46.17923" lon="6.25553">
        <ele>499.4</ele>
        <time>2021-06-26T12:45:58Z</time>
      </trkpt>
      <trkpt lat="46.17928" lon="6.25552">
        <ele>499.8</ele>
        <time>2021-06-26T12:45:59Z</time>
      </trkpt>
      <trkpt lat="46.17933" lon="6.25551">
        <ele>500.4</ele>
        <time>2021-06-26T12:46:00Z</time>
      </trkpt>
      <trkpt lat="46.17937" lon="6.2555">
        <ele>500.8</ele>
        <time>2021-06-26T12:46:01Z</time>
      </trkpt>
      <trkpt lat="46.17942" lon="6.25548">
        <ele>501.2</ele>
        <time>2021-06-26T12:46:02Z</time>
      </trkpt>
      <trkpt lat="46.17947" lon="6.25547">
        <ele>501.4</ele>
        <time>2021-06-26T12:46:03Z</time>
      </trkpt>
      <trkpt lat="46.17951" lon="6.25545">
        <ele>501.8</ele>
        <time>2021-06-26T12:46:04Z</time>
      </trkpt>
      <trkpt lat="46.17956" lon="6.25543">
        <ele>501.8</ele>
        <time>2021-06-26T12:46:05Z</time>
      </trkpt>
      <trkpt lat="46.17961" lon="6.25541">
        <ele>501.8</ele>
        <time>2021-06-26T12:46:06Z</time>
      </trkpt>
      <trkpt lat="46.17966" lon="6.25539">
        <ele>502</ele>
        <time>2021-06-26T12:46:07Z</time>
      </trkpt>
      <trkpt lat="46.17971" lon="6.25536">
        <ele>502</ele>
        <time>2021-06-26T12:46:08Z</time>
      </trkpt>
      <trkpt lat="46.17976" lon="6.25533">
        <ele>502.4</ele>
        <time>2021-06-26T12:46:09Z</time>
      </trkpt>
      <trkpt lat="46.17981" lon="6.2553">
        <ele>502.6</ele>
        <time>2021-06-26T12:46:10Z</time>
      </trkpt>
      <trkpt lat="46.17986" lon="6.25528">
        <ele>502.8</ele>
        <time>2021-06-26T12:46:11Z</time>
      </trkpt>
      <trkpt lat="46.17992" lon="6.25524">
        <ele>503.2</ele>
        <time>2021-06-26T12:46:12Z</time>
      </trkpt>
      <trkpt lat="46.17997" lon="6.25521">
        <ele>503.2</ele>
        <time>2021-06-26T12:46:13Z</time>
      </trkpt>
      <trkpt lat="46.18002" lon="6.25517">
        <ele>503.4</ele>
        <time>2021-06-26T12:46:14Z</time>
      </trkpt>
      <trkpt lat="46.18007" lon="6.25513">
        <ele>503.6</ele>
        <time>2021-06-26T12:46:15Z</time>
      </trkpt>
      <trkpt lat="46.18012" lon="6.25508">
        <ele>503.4</ele>
        <time>2021-06-26T12:46:16Z</time>
      </trkpt>
      <trkpt lat="46.18017" lon="6.25504">
        <ele>503.6</ele>
        <time>2021-06-26T12:46:17Z</time>
      </trkpt>
      <trkpt lat="46.18022" lon="6.25498">
        <ele>503.4</ele>
        <time>2021-06-26T12:46:18Z</time>
      </trkpt>
      <trkpt lat="46.18027" lon="6.25493">
        <ele>503.4</ele>
        <time>2021-06-26T12:46:19Z</time>
      </trkpt>
      <trkpt lat="46.18033" lon="6.25486">
        <ele>503.6</ele>
        <time>2021-06-26T12:46:20Z</time>
      </trkpt>
      <trkpt lat="46.1805" lon="6.25466">
        <ele>503.4</ele>
        <time>2021-06-26T12:46:23Z</time>
      </trkpt>
      <trkpt lat="46.18055" lon="6.25459">
        <ele>503.4</ele>
        <time>2021-06-26T12:46:24Z</time>
      </trkpt>
      <trkpt lat="46.18066" lon="6.25441">
        <ele>502.8</ele>
        <time>2021-06-26T12:46:26Z</time>
      </trkpt>
      <trkpt lat="46.18087" lon="6.25416">
        <ele>501.8</ele>
        <time>2021-06-26T12:46:29Z</time>
      </trkpt>
      <trkpt lat="46.18094" lon="6.25409">
        <ele>501.4</ele>
        <time>2021-06-26T12:46:30Z</time>
      </trkpt>
      <trkpt lat="46.18128" lon="6.25385">
        <ele>500</ele>
        <time>2021-06-26T12:46:34Z</time>
      </trkpt>
      <trkpt lat="46.18137" lon="6.25379">
        <ele>499.4</ele>
        <time>2021-06-26T12:46:35Z</time>
      </trkpt>
      <trkpt lat="46.18144" lon="6.25373">
        <ele>498.6</ele>
        <time>2021-06-26T12:46:36Z</time>
      </trkpt>
      <trkpt lat="46.18153" lon="6.25368">
        <ele>498</ele>
        <time>2021-06-26T12:46:37Z</time>
      </trkpt>
      <trkpt lat="46.18161" lon="6.25363">
        <ele>497.4</ele>
        <time>2021-06-26T12:46:38Z</time>
      </trkpt>
      <trkpt lat="46.18186" lon="6.25349">
        <ele>495.8</ele>
        <time>2021-06-26T12:46:41Z</time>
      </trkpt>
      <trkpt lat="46.18202" lon="6.25339">
        <ele>495.4</ele>
        <time>2021-06-26T12:46:43Z</time>
      </trkpt>
      <trkpt lat="46.1821" lon="6.25333">
        <ele>495.2</ele>
        <time>2021-06-26T12:46:44Z</time>
      </trkpt>
      <trkpt lat="46.18218" lon="6.25328">
        <ele>495.2</ele>
        <time>2021-06-26T12:46:45Z</time>
      </trkpt>
      <trkpt lat="46.18234" lon="6.25318">
        <ele>494.8</ele>
        <time>2021-06-26T12:46:47Z</time>
      </trkpt>
      <trkpt lat="46.1825" lon="6.25307">
        <ele>494.2</ele>
        <time>2021-06-26T12:46:49Z</time>
      </trkpt>
      <trkpt lat="46.18257" lon="6.25302">
        <ele>494.2</ele>
        <time>2021-06-26T12:46:50Z</time>
      </trkpt>
      <trkpt lat="46.18264" lon="6.25298">
        <ele>494</ele>
        <time>2021-06-26T12:46:51Z</time>
      </trkpt>
      <trkpt lat="46.18295" lon="6.25278">
        <ele>493.4</ele>
        <time>2021-06-26T12:46:55Z</time>
      </trkpt>
      <trkpt lat="46.18303" lon="6.25273">
        <ele>493.4</ele>
        <time>2021-06-26T12:46:56Z</time>
      </trkpt>
      <trkpt lat="46.1832" lon="6.25262">
        <ele>493.2</ele>
        <time>2021-06-26T12:46:58Z</time>
      </trkpt>
      <trkpt lat="46.18337" lon="6.2525">
        <ele>493.2</ele>
        <time>2021-06-26T12:47:00Z</time>
      </trkpt>
      <trkpt lat="46.18355" lon="6.25239">
        <ele>492.6</ele>
        <time>2021-06-26T12:47:02Z</time>
      </trkpt>
      <trkpt lat="46.18364" lon="6.25233">
        <ele>492.4</ele>
        <time>2021-06-26T12:47:03Z</time>
      </trkpt>
      <trkpt lat="46.18381" lon="6.25222">
        <ele>491.2</ele>
        <time>2021-06-26T12:47:05Z</time>
      </trkpt>
      <trkpt lat="46.1839" lon="6.25216">
        <ele>490.6</ele>
        <time>2021-06-26T12:47:06Z</time>
      </trkpt>
      <trkpt lat="46.18399" lon="6.25211">
        <ele>490.4</ele>
        <time>2021-06-26T12:47:07Z</time>
      </trkpt>
      <trkpt lat="46.18407" lon="6.25206">
        <ele>489.6</ele>
        <time>2021-06-26T12:47:08Z</time>
      </trkpt>
      <trkpt lat="46.18415" lon="6.25202">
        <ele>489</ele>
        <time>2021-06-26T12:47:09Z</time>
      </trkpt>
      <trkpt lat="46.18423" lon="6.25198">
        <ele>488.6</ele>
        <time>2021-06-26T12:47:10Z</time>
      </trkpt>
      <trkpt lat="46.18431" lon="6.25195">
        <ele>488.4</ele>
        <time>2021-06-26T12:47:11Z</time>
      </trkpt>
      <trkpt lat="46.18439" lon="6.25191">
        <ele>488.4</ele>
        <time>2021-06-26T12:47:12Z</time>
      </trkpt>
      <trkpt lat="46.18447" lon="6.25188">
        <ele>488</ele>
        <time>2021-06-26T12:47:13Z</time>
      </trkpt>
      <trkpt lat="46.18455" lon="6.25185">
        <ele>487.6</ele>
        <time>2021-06-26T12:47:14Z</time>
      </trkpt>
      <trkpt lat="46.18471" lon="6.25181">
        <ele>486.8</ele>
        <time>2021-06-26T12:47:16Z</time>
      </trkpt>
      <trkpt lat="46.18505" lon="6.25173">
        <ele>485.6</ele>
        <time>2021-06-26T12:47:20Z</time>
      </trkpt>
      <trkpt lat="46.18522" lon="6.25169">
        <ele>485.4</ele>
        <time>2021-06-26T12:47:22Z</time>
      </trkpt>
      <trkpt lat="46.18529" lon="6.25168">
        <ele>485.2</ele>
        <time>2021-06-26T12:47:23Z</time>
      </trkpt>
      <trkpt lat="46.18537" lon="6.25166">
        <ele>485.2</ele>
        <time>2021-06-26T12:47:24Z</time>
      </trkpt>
      <trkpt lat="46.18545" lon="6.25165">
        <ele>485.2</ele>
        <time>2021-06-26T12:47:25Z</time>
      </trkpt>
      <trkpt lat="46.18552" lon="6.25163">
        <ele>485</ele>
        <time>2021-06-26T12:47:26Z</time>
      </trkpt>
      <trkpt lat="46.18559" lon="6.25162">
        <ele>485</ele>
        <time>2021-06-26T12:47:27Z</time>
      </trkpt>
      <trkpt lat="46.18566" lon="6.25161">
        <ele>485</ele>
        <time>2021-06-26T12:47:28Z</time>
      </trkpt>
      <trkpt lat="46.18572" lon="6.2516">
        <ele>485</ele>
        <time>2021-06-26T12:47:29Z</time>
      </trkpt>
      <trkpt lat="46.18578" lon="6.25159">
        <ele>484.8</ele>
        <time>2021-06-26T12:47:30Z</time>
      </trkpt>
      <trkpt lat="46.18584" lon="6.25157">
        <ele>484.6</ele>
        <time>2021-06-26T12:47:31Z</time>
      </trkpt>
      <trkpt lat="46.18617" lon="6.25148">
        <ele>484.6</ele>
        <time>2021-06-26T12:47:36Z</time>
      </trkpt>
      <trkpt lat="46.18639" lon="6.25139">
        <ele>484</ele>
        <time>2021-06-26T12:47:39Z</time>
      </trkpt>
      <trkpt lat="46.1867" lon="6.25126">
        <ele>483.8</ele>
        <time>2021-06-26T12:47:43Z</time>
      </trkpt>
      <trkpt lat="46.18694" lon="6.25116">
        <ele>483.2</ele>
        <time>2021-06-26T12:47:46Z</time>
      </trkpt>
      <trkpt lat="46.18725" lon="6.25102">
        <ele>481.4</ele>
        <time>2021-06-26T12:47:50Z</time>
      </trkpt>
      <trkpt lat="46.18742" lon="6.25094">
        <ele>481</ele>
        <time>2021-06-26T12:47:52Z</time>
      </trkpt>
      <trkpt lat="46.18768" lon="6.25086">
        <ele>480.2</ele>
        <time>2021-06-26T12:47:55Z</time>
      </trkpt>
      <trkpt lat="46.18777" lon="6.25083">
        <ele>480</ele>
        <time>2021-06-26T12:47:56Z</time>
      </trkpt>
      <trkpt lat="46.18785" lon="6.25081">
        <ele>480</ele>
        <time>2021-06-26T12:47:57Z</time>
      </trkpt>
      <trkpt lat="46.18812" lon="6.25079">
        <ele>479.4</ele>
        <time>2021-06-26T12:48:00Z</time>
      </trkpt>
      <trkpt lat="46.18821" lon="6.2508">
        <ele>479.2</ele>
        <time>2021-06-26T12:48:01Z</time>
      </trkpt>
      <trkpt lat="46.18829" lon="6.25079">
        <ele>478.8</ele>
        <time>2021-06-26T12:48:02Z</time>
      </trkpt>
      <trkpt lat="46.18837" lon="6.25079">
        <ele>478.6</ele>
        <time>2021-06-26T12:48:03Z</time>
      </trkpt>
      <trkpt lat="46.18845" lon="6.25079">
        <ele>478.2</ele>
        <time>2021-06-26T12:48:04Z</time>
      </trkpt>
      <trkpt lat="46.18861" lon="6.25079">
        <ele>477.8</ele>
        <time>2021-06-26T12:48:06Z</time>
      </trkpt>
      <trkpt lat="46.18869" lon="6.2508">
        <ele>477.8</ele>
        <time>2021-06-26T12:48:07Z</time>
      </trkpt>
      <trkpt lat="46.18885" lon="6.2508">
        <ele>477.4</ele>
        <time>2021-06-26T12:48:09Z</time>
      </trkpt>
      <trkpt lat="46.1892" lon="6.25079">
        <ele>477</ele>
        <time>2021-06-26T12:48:13Z</time>
      </trkpt>
      <trkpt lat="46.18945" lon="6.25074">
        <ele>476.4</ele>
        <time>2021-06-26T12:48:16Z</time>
      </trkpt>
      <trkpt lat="46.18981" lon="6.25072">
        <ele>476</ele>
        <time>2021-06-26T12:48:20Z</time>
      </trkpt>
      <trkpt lat="46.1899" lon="6.25075">
        <ele>476.2</ele>
        <time>2021-06-26T12:48:21Z</time>
      </trkpt>
      <trkpt lat="46.19007" lon="6.25082">
        <ele>475.4</ele>
        <time>2021-06-26T12:48:23Z</time>
      </trkpt>
      <trkpt lat="46.19015" lon="6.25086">
        <ele>475</ele>
        <time>2021-06-26T12:48:24Z</time>
      </trkpt>
      <trkpt lat="46.19022" lon="6.25093">
        <ele>474.6</ele>
        <time>2021-06-26T12:48:25Z</time>
      </trkpt>
      <trkpt lat="46.1903" lon="6.25099">
        <ele>474</ele>
        <time>2021-06-26T12:48:26Z</time>
      </trkpt>
      <trkpt lat="46.19037" lon="6.25103">
        <ele>473.6</ele>
        <time>2021-06-26T12:48:27Z</time>
      </trkpt>
      <trkpt lat="46.19053" lon="6.2511">
        <ele>473</ele>
        <time>2021-06-26T12:48:29Z</time>
      </trkpt>
      <trkpt lat="46.1906" lon="6.25113">
        <ele>472.6</ele>
        <time>2021-06-26T12:48:30Z</time>
      </trkpt>
      <trkpt lat="46.19068" lon="6.25116">
        <ele>472.4</ele>
        <time>2021-06-26T12:48:31Z</time>
      </trkpt>
      <trkpt lat="46.19075" lon="6.25118">
        <ele>472.2</ele>
        <time>2021-06-26T12:48:32Z</time>
      </trkpt>
      <trkpt lat="46.19082" lon="6.25119">
        <ele>472</ele>
        <time>2021-06-26T12:48:33Z</time>
      </trkpt>
      <trkpt lat="46.19089" lon="6.25118">
        <ele>471.8</ele>
        <time>2021-06-26T12:48:34Z</time>
      </trkpt>
      <trkpt lat="46.19095" lon="6.25117">
        <ele>471.8</ele>
        <time>2021-06-26T12:48:35Z</time>
      </trkpt>
      <trkpt lat="46.191" lon="6.25115">
        <ele>471.6</ele>
        <time>2021-06-26T12:48:36Z</time>
      </trkpt>
      <trkpt lat="46.19105" lon="6.25113">
        <ele>471.6</ele>
        <time>2021-06-26T12:48:37Z</time>
      </trkpt>
      <trkpt lat="46.19109" lon="6.25111">
        <ele>471.6</ele>
        <time>2021-06-26T12:48:38Z</time>
      </trkpt>
      <trkpt lat="46.19112" lon="6.25109">
        <ele>471.6</ele>
        <time>2021-06-26T12:48:39Z</time>
      </trkpt>
      <trkpt lat="46.19115" lon="6.25108">
        <ele>471.6</ele>
        <time>2021-06-26T12:48:40Z</time>
      </trkpt>
      <trkpt lat="46.19118" lon="6.25106">
        <ele>471.6</ele>
        <time>2021-06-26T12:48:41Z</time>
      </trkpt>
      <trkpt lat="46.19121" lon="6.25105">
        <ele>471.6</ele>
        <time>2021-06-26T12:48:42Z</time>
      </trkpt>
      <trkpt lat="46.1913" lon="6.25103">
        <ele>471.8</ele>
        <time>2021-06-26T12:48:44Z</time>
      </trkpt>
      <trkpt lat="46.19135" lon="6.25105">
        <ele>472.2</ele>
        <time>2021-06-26T12:48:45Z</time>
      </trkpt>
      <trkpt lat="46.1914" lon="6.25108">
        <ele>473</ele>
        <time>2021-06-26T12:48:46Z</time>
      </trkpt>
      <trkpt lat="46.19145" lon="6.25111">
        <ele>473.6</ele>
        <time>2021-06-26T12:48:47Z</time>
      </trkpt>
      <trkpt lat="46.1915" lon="6.25111">
        <ele>474</ele>
        <time>2021-06-26T12:48:48Z</time>
      </trkpt>
      <trkpt lat="46.19156" lon="6.2511">
        <ele>474.8</ele>
        <time>2021-06-26T12:48:49Z</time>
      </trkpt>
      <trkpt lat="46.19161" lon="6.25106">
        <ele>475</ele>
        <time>2021-06-26T12:48:50Z</time>
      </trkpt>
      <trkpt lat="46.19166" lon="6.251">
        <ele>475.2</ele>
        <time>2021-06-26T12:48:51Z</time>
      </trkpt>
      <trkpt lat="46.19171" lon="6.25093">
        <ele>475.2</ele>
        <time>2021-06-26T12:48:52Z</time>
      </trkpt>
      <trkpt lat="46.19177" lon="6.25087">
        <ele>475.2</ele>
        <time>2021-06-26T12:48:53Z</time>
      </trkpt>
      <trkpt lat="46.19183" lon="6.25084">
        <ele>475.2</ele>
        <time>2021-06-26T12:48:54Z</time>
      </trkpt>
      <trkpt lat="46.19189" lon="6.25086">
        <ele>475.2</ele>
        <time>2021-06-26T12:48:55Z</time>
      </trkpt>
      <trkpt lat="46.19199" lon="6.25099">
        <ele>475.4</ele>
        <time>2021-06-26T12:48:57Z</time>
      </trkpt>
      <trkpt lat="46.19204" lon="6.25106">
        <ele>475.4</ele>
        <time>2021-06-26T12:48:58Z</time>
      </trkpt>
      <trkpt lat="46.1921" lon="6.25112">
        <ele>475.4</ele>
        <time>2021-06-26T12:48:59Z</time>
      </trkpt>
      <trkpt lat="46.19216" lon="6.25116">
        <ele>475.2</ele>
        <time>2021-06-26T12:49:00Z</time>
      </trkpt>
      <trkpt lat="46.19224" lon="6.25118">
        <ele>474.8</ele>
        <time>2021-06-26T12:49:01Z</time>
      </trkpt>
      <trkpt lat="46.19231" lon="6.25118">
        <ele>474.2</ele>
        <time>2021-06-26T12:49:02Z</time>
      </trkpt>
      <trkpt lat="46.19239" lon="6.25118">
        <ele>473.8</ele>
        <time>2021-06-26T12:49:03Z</time>
      </trkpt>
      <trkpt lat="46.19247" lon="6.25117">
        <ele>473.4</ele>
        <time>2021-06-26T12:49:04Z</time>
      </trkpt>
      <trkpt lat="46.19254" lon="6.25116">
        <ele>473.4</ele>
        <time>2021-06-26T12:49:05Z</time>
      </trkpt>
      <trkpt lat="46.19261" lon="6.25115">
        <ele>473.2</ele>
        <time>2021-06-26T12:49:06Z</time>
      </trkpt>
      <trkpt lat="46.19268" lon="6.25114">
        <ele>473</ele>
        <time>2021-06-26T12:49:07Z</time>
      </trkpt>
      <trkpt lat="46.19274" lon="6.25113">
        <ele>473</ele>
        <time>2021-06-26T12:49:08Z</time>
      </trkpt>
      <trkpt lat="46.19277" lon="6.2511">
        <ele>472.8</ele>
        <time>2021-06-26T12:49:09Z</time>
      </trkpt>
      <trkpt lat="46.19279" lon="6.25106">
        <ele>472.6</ele>
        <time>2021-06-26T12:49:10Z</time>
      </trkpt>
      <trkpt lat="46.1928" lon="6.25102">
        <ele>472.2</ele>
        <time>2021-06-26T12:49:11Z</time>
      </trkpt>
      <trkpt lat="46.1928" lon="6.251">
        <ele>471.8</ele>
        <time>2021-06-26T12:49:12Z</time>
      </trkpt>
      <trkpt lat="46.1928" lon="6.25099">
        <ele>471.8</ele>
        <time>2021-06-26T12:49:17Z</time>
      </trkpt>
      <trkpt lat="46.19279" lon="6.25097">
        <ele>471.8</ele>
        <time>2021-06-26T12:49:29Z</time>
      </trkpt>
      <trkpt lat="46.19279" lon="6.25095">
        <ele>471.8</ele>
        <time>2021-06-26T12:49:30Z</time>
      </trkpt>
      <trkpt lat="46.1928" lon="6.25081">
        <ele>471.8</ele>
        <time>2021-06-26T12:49:34Z</time>
      </trkpt>
      <trkpt lat="46.19284" lon="6.25048">
        <ele>471.4</ele>
        <time>2021-06-26T12:49:40Z</time>
      </trkpt>
      <trkpt lat="46.19288" lon="6.2503">
        <ele>471.4</ele>
        <time>2021-06-26T12:49:43Z</time>
      </trkpt>
      <trkpt lat="46.1929" lon="6.25025">
        <ele>471.4</ele>
        <time>2021-06-26T12:49:44Z</time>
      </trkpt>
      <trkpt lat="46.19291" lon="6.25021">
        <ele>471.4</ele>
        <time>2021-06-26T12:49:45Z</time>
      </trkpt>
      <trkpt lat="46.19292" lon="6.25019">
        <ele>471.2</ele>
        <time>2021-06-26T12:49:46Z</time>
      </trkpt>
      <trkpt lat="46.19292" lon="6.25019">
        <ele>470.8</ele>
        <time>2021-06-26T12:49:48Z</time>
      </trkpt>
      <trkpt lat="46.19292" lon="6.2502">
        <ele>470.6</ele>
        <time>2021-06-26T12:49:50Z</time>
      </trkpt>
      <trkpt lat="46.19293" lon="6.25019">
        <ele>470.2</ele>
        <time>2021-06-26T12:49:58Z</time>
      </trkpt>
    </trkseg>
  </trk>
</gpx>